Big House Big Heart 5K & 10K

back to results

Oct. 3, 2010

Big House Big Heart 5K & 10K
Ann Arbor, MI
Provided by Running Fit Timing


Big House Big Heart - 5k Overall Results
Ann Arbor, MI
October 3, 2010

Results by RF Timing
Software by ChuckScore

State/
Place Name Bib Gun Tag Pace Sex Age City County
1 Perrin,Josh 8688 15:17.0 15:16.5 4:55 M 24 Hamburg MI
2 Setzke,Scott 9254 16:13.8 16:13.3 5:13 M 29
3 Butler,Lewis 9076 16:14.2 16:13.8 5:13 M 25
4 Lalonde,Lindsey 8548 16:23.5 16:21.5 5:16 M 25 Ann Arbor MI
5 Uselding,Nate 9149 16:27.7 16:26.9 5:18 M 32
6 Fetters,Kyle 5172 16:31.1 16:29.9 5:19 M 25 Ann Arbor United States
7 Kessler,Mike 8528 16:33.7 16:33.1 5:20 M 41 Ann Arbor MI
8 Stead,Phil 9023 16:33.7 16:33.0 5:20 M 29 Ann Arbor MI
9 Doody,Jeremy 4964 16:49.5 16:48.7 5:25 M 27 Laingsburg MI
10 Donaghy,Alex 4957 16:51.1 16:50.7 5:25 M 23 Ann Arbor United States
11 Williams,Jacob 8866 16:53.7 16:52.0 5:26 M 21 Ann Arbor United States
12 Pariano,Anthony 6831 16:58.9 16:58.8 5:28 M 36 Ann Arbor United States
13 Ghena,Nathaniel 5343 17:17.0 17:15.9 5:33 M 17 Newport United States
14 Neumann,Matt 6694 17:27.2 17:26.1 5:37 M 18 Canton MI
15 Rogawski,David 7158 17:42.7 17:41.2 5:42 M 23 Ann Arbor MI
16 Zawacki,Ian 8886 17:57.5 17:55.7 5:46 M 18 Monroe United States
17 Gherardini,Niklas 5344 18:00.3 17:54.0 5:46 M 18 Westland United States
18 Muessig,Dominic 9430 18:03.8 18:01.0 5:48 M 15 Clinton United States
19 Cicala,Brandon 4662 18:07.2 18:06.4 5:50 M 17 Livonia MI
20 Furey,Dave 8413 18:15.7 18:15.3 5:53 M 52 Ann Arbor MI
21 Gollin,Michael 5382 18:23.2 18:19.7 5:54 M 16 Livonia MI
22 Vandermeer,Michael 7860 18:24.5 18:14.8 5:52 M 20 Grand Rapids MI
23 Brown,Adam 4449 18:24.6 18:19.1 5:54 M 31 Ann Arbor MI
24 Cooke,Michael 4728 18:27.9 18:16.0 5:53 M 28 Ann Arbor MI
25 Weber,Andrew 9037 18:28.0 18:26.6 5:56 M 30 Ann Arbor United States Of Ame
26 Boucher,Yvan 9119 18:29.0 18:28.4 5:57 M 23
27 Park,Laurel 6833 18:29.1 18:25.9 5:56 F 47 Ann Arbor MI
28 Raux,Rob 7032 18:30.7 18:28.9 5:57 M 28 Ann Arbor MI
29 Green,Eric 8440 18:31.8 18:28.8 5:57 M 44 West Bloomfield MI
30 Rumsey,Josh 7213 18:33.9 18:32.3 5:58 M 17 Swanton OH
31 Davaloz,Tomas 4831 18:37.1 18:33.0 5:58 M 21 Ann Arbor United States
32 Rothstein,Jeff 7188 18:42.5 18:40.0 6:00 M 48 Ann Arbor MI
33 Trustman,Robert 7796 18:43.5 18:39.3 6:00 M 39 Ypsilanti MI
34 Benkarski,Michael 4259 18:51.6 18:47.1 6:03 M 16 Novi MI
35 Imber,Chris 5756 18:52.4 18:50.5 6:04 M 34 Clarkston MI
36 Newman,Tarkington 8987 18:52.6 18:51.9 6:04 M 23 Frankenmuth MI
37 Baker,Denny 4145 18:56.2 18:53.0 6:05 M 36 Hartland MI
38 ST.Onge,Brian 7553 18:59.6 18:57.5 6:06 M 34 Port Huron United States
39 Gentner,Ryan 5327 19:01.5 18:59.9 6:07 M 16 Brooklyn MI
40 Perry,Adam 6892 19:02.6 18:57.4 6:06 M 18 Farmington MI
41 Benoit,Jay 4263 19:03.7 19:02.6 6:08 M 14 St Clair Shores MI
42 Bush,Bryan 8911 19:06.0 19:03.4 6:08 M 20 Ann Arbor United States
43 Kasper,Taylor 5886 19:06.8 18:44.3 6:02 M 19 Lexington United States
44 Keeling,Ryan 5898 19:12.2 19:06.5 6:09 M 18 Livonia United States
45 Schork,Madeline 8770 19:12.4 19:06.3 6:09 F 22 Ann Arbor U.S.
46 Walters,Bill 9315 19:13.9 19:09.3 6:10 M 41
47 Benedict,Robert 4257 19:16.8 19:10.2 6:10 M 45 Ann Arbor MI
48 Jackson,Jordan 5769 19:17.9 19:11.7 6:11 M 21 Saline MI
49 Werbel,William 8859 19:20.7 18:57.1 6:06 M 24 Ann Arbor MI
50 Perrotta,Anthony 6891 19:22.9 19:21.8 6:14 M 18 Bloomfield Hills United States
51 Stout,Corwin 7624 19:23.3 19:20.4 6:13 M 21 Ann Arbor MI
52 Mckissen,Brian 8612 19:23.4 19:21.7 6:14 M 34 Royal Oak MI
53 Martell,Raul 6332 19:23.7 19:12.7 6:11 M 33 Grosse Pointe Park United States
54 Swisher,Justin 9168 19:23.8 19:21.3 6:14 M 15
55 Keyser,Alexandra 8529 19:26.0 19:23.8 6:15 F 19 Ann Arbor MI
56 Styrna,Joe 9473 19:28.4 19:10.0 6:10 M 35 Ann Arbor United States
57 Zapata,David 8223 19:28.6 19:27.4 6:16 M 20 Berrien Springs MI
58 Sawitzky,Davey 7291 19:30.9 19:25.3 6:15 M 18 Ann Arbor United States
59 French,Rob 5258 19:31.1 19:26.9 6:16 M 48 Dexter MI
60 Cohn,Aaron 4687 19:33.7 19:05.1 6:09 M 33 Ann Arbor MI
61 Pangborn,Jeffrey 6822 19:34.2 19:30.7 6:17 M 45 Three Rivers United States Of Ame
62 Burkhead,Kenneth 4515 19:34.2 19:32.2 6:17 M 16 Jackson MI
63 Brish,Samantha 4439 19:34.4 19:29.6 6:16 F 18 Milford MI
64 Martenas,Chuck 9083 19:34.7 19:32.3 6:17 M 0
65 Boldt,John 4351 19:38.4 19:34.1 6:18 M 54 Monroe MI
66 Anderle,Eric 8262 19:42.3 19:41.1 6:20 M 19 Ann Arbor MI
67 Wicks,Gregory 8064 19:43.7 19:38.2 6:19 M 19 Ann Arbor United States
68 Braun,Joshua 8301 19:44.1 19:40.3 6:20 M 18 Canton United States
69 Chittle,Matt 4643 19:44.2 19:41.4 6:20 M 40 Ann Arbor MI
70 Knight,Fred 8536 19:46.0 19:42.9 6:21 M 52 Ann Arbor MI
71 Bockey,James 4341 19:48.2 19:45.4 6:22 M 36 Temperance MI
72 Pacheco,Harlyn 6813 19:50.0 19:44.5 6:21 M 27 Ann Arbor MI
73 Robinson,Ellen 7141 19:50.7 19:45.9 6:22 F 19 Novi United States
74 Elcock,Beverly 9140 19:52.2 19:51.3 6:23 F 21
75 Heinlein,Tom 5592 19:53.6 19:51.0 6:23 M 42 Ann Arbor United States
76 Gaboury,Adam 5284 19:54.2 19:50.2 6:23 M 13 Ann Arbor MI
77 Aseirsson,Theodor 8898 19:55.0 19:43.0 6:21 M 39 Ann Arbor MI
78 Kerber,Kevin 5932 19:58.3 19:53.7 6:24 M 36 Ann Arbor MI
79 Kennedy,Steve 5925 19:58.4 19:56.0 6:25 M 32 Ann Arbor MI
80 Vanskyock,Nicole 9314 19:59.1 19:54.7 6:25 F 24
81 Furey,Thomas 8414 20:00.9 19:14.8 6:12 M 14 Ann Arbor United States
82 Stec,Deron 9282 20:02.3 20:00.2 6:26 M 35
83 Naumann,Larry 6673 20:04.4 19:58.8 6:26 M 53 Berkley MI
84 Andrews,Ariel 4078 20:05.4 20:01.7 6:27 F 30 Ann Arbor MI
85 Raux,Richard 7031 20:05.6 19:58.8 6:26 M 54 East Aurora United States
86 Janci,Stephen 701 20:05.8 19:59.5 6:26 M 30 Farmington Hills United States
87 Fortner,Kevin 8935 20:05.8 20:02.2 6:27 M 30 Ann Arbor MI
88 Junga,Stephen 5864 20:08.3 19:20.9 6:14 M 17 Ann Arbor MI
89 Weis,Matthew 7996 20:09.7 20:00.4 6:26 M 23 Stevensville MI
90 Zohan,Patrick 9343 20:12.6 19:49.1 6:23 M 23
91 Kasper,Joe 5884 20:13.4 19:50.1 6:23 M 45 Lexington United States
92 Adams,Dylan 4018 20:17.8 20:11.0 6:30 M 17 Grass Lake MI
93 Price,Rebecca 6967 20:18.3 20:14.2 6:31 F 52 Ann Arbor MI
94 Keyser,Kelsey 8532 20:19.9 20:16.6 6:32 F 16 Sturgis MI
95 Hayes,Wally 5576 20:20.5 20:17.1 6:32 M 58 Ann Arbor MI
96 Bourque,Tom 4383 20:21.6 20:19.2 6:32 M 54 Ann Arbor MI
97 Woolliscroft,Marc 8158 20:21.7 20:13.7 6:31 M 22 Saline MI
98 Kennedy,Shane 8524 20:24.5 20:18.3 6:32 M 19 Canton United States
99 Moore,Doug 9426 20:24.8 20:20.0 6:33 M 32 Pinckney United States
100 Kasper,Thomas 5887 20:26.0 20:02.8 6:27 M 16 Lexington United States
101 Herrala,Wally 8469 20:26.7 20:23.6 6:34 M 66 Ann Arbor MI
102 Jarchow,Christine 5793 20:26.9 20:22.8 6:34 F 26 Grass Lake United States
103 Catalan,David 4607 20:26.9 19:53.8 6:24 M 20 Plymouth MI
104 Russman,Daniel 9177 20:27.7 20:21.2 6:33 M 0
105 Heist,Kevin 5596 20:29.3 20:23.4 6:34 M 26 Ann Arbor MI
106 Harris,Hailey 5541 20:30.0 20:26.2 6:35 F 12 Canton MI
107 Champion,Brandon 9276 20:31.6 20:29.8 6:36 M 16
108 Dowling,Ellen 4979 20:31.8 20:28.6 6:35 F 17 Ann Arbor MI
109 Digiovanni,Michael 4936 20:32.3 20:29.5 6:36 M 16 Ann Arbor MI
110 Tukel,Eli 8823 20:32.5 20:25.8 6:35 M 13 West Bloomfield MI
111 Wenk,Earl 8857 20:33.4 20:29.0 6:36 M 41 Ann Arbor MI
112 Suliman,Adam 7663 20:33.7 20:25.9 6:35 M 37 Ypsilanti MI
113 Cell,Alexandria 9178 20:35.9 20:24.4 6:34 F 14
114 Hudson,Greg 5729 20:36.7 20:30.3 6:36 M 36 Temperance MI
115 Stults,Andrew 7649 20:41.2 20:31.6 6:36 M 14 Richland United States
116 Jackson,Matt 5770 20:44.0 20:35.1 6:38 M 32 Royal Oak MI
117 Jennings,Dylan 5807 20:48.7 19:47.0 6:22 M 15 Saline MI
118 Milner,Zack 9457 20:51.1 20:44.6 6:41 M 19
119 Sunahara,Roger 7671 20:51.9 20:45.5 6:41 M 47 Ann Arbor United States
120 Straka,Eric 8804 20:52.1 20:49.6 6:42 M 44 Ann Arbor U.S.A,
121 Fox,John 5235 20:55.0 20:50.6 6:43 M 44 Dexter MI
122 Lacroix,Daniel 6096 20:55.1 20:47.4 6:42 M 14 Ypsilanti MI
123 Miller,Charles 6515 20:55.3 20:48.0 6:42 M 51 Farmington Hills MI
124 Rumsey,Jason 7212 20:55.9 20:54.3 6:44 M 14 Swanton OH
125 Mcguffey,Chris 6432 20:57.2 20:49.4 6:42 M 26 Ann Arbor MI
126 Matthews,Joshua 9463 20:58.1 20:52.9 6:43 M 23
127 Parks,Sue 9139 20:58.9 20:57.2 6:45 F 54
128 Wines,Chad 8115 20:58.9 20:30.9 6:36 M 23 Pinckney MI
129 Keyser,Keith 8531 20:59.7 20:57.1 6:45 M 45 Sturgis MI
130 Santoro Iii,Tom 7282 21:00.0 20:47.6 6:42 M 26 Ann Arbor MI
131 Dragotta,Philip 4991 21:00.2 20:54.0 6:44 M 24 Ann Arbor MI
132 Gawron,Jimmy 5317 21:01.8 20:49.3 6:42 M 22 Ann Arbor MI
133 Gawron,Daniel 5316 21:03.6 20:50.9 6:43 M 19 Ann Arbor MI
134 Wetzel,Logan 8029 21:04.6 21:01.5 6:46 M 13 Saline MI
135 Majeske,Karl 8585 21:06.0 21:01.2 6:46 M 48 Ann Arbor MI
136 Nicholas,Benjamin 9088 21:06.5 21:03.0 6:47 M 13
137 Brown,Lisa 4462 21:07.2 20:57.0 6:45 F 35 Dexter MI
138 Place,Daniel 8700 21:08.1 20:59.9 6:46 M 23 Ann Arbor MI
139 Cave,Clint 4611 21:08.4 21:00.3 6:46 M 23 Ashland IL
140 Abosch,Michael 8256 21:09.6 21:07.4 6:48 M 19 Ann Arbor United States
141 Kise,Stevie 5972 21:09.7 21:06.6 6:48 M 12 Saline MI
142 Mckeone,Patrick 6445 21:10.9 20:41.2 6:39 M 17 Ypsi Washtenaw
143 Hall,Kevin 5504 21:12.4 21:09.4 6:49 M 13 Ann Arbor MI
144 Reilly,Terry 8729 21:14.2 21:09.0 6:48 M 54 Milan Usausausa
145 Gibson,Aram 8423 21:16.4 21:06.4 6:48 M 16 Ann Arbor MI
146 Bowersox,Adam 8902 21:16.9 21:09.5 6:49 M 51 Chelsea MI
147 Oconnor,Michelle 6751 21:20.7 21:16.9 6:51 F 42 Ann Arbor MI
148 Nicholas,Fred 9090 21:22.1 21:18.3 6:51 M 45
149 Hall,Charles 5500 21:23.4 21:15.9 6:51 M 43 Swartz Creek MI
150 Bearden,James 4209 21:24.0 21:16.8 6:51 M 55 Livonia MI
151 Selvig,Dan 7371 21:25.5 21:18.6 6:52 M 26 Ann Arbor MI
152 Duerst,Jake 5009 21:25.7 21:22.7 6:53 M 13 Ann Arbor United States
153 Katsefaras,Barry 5890 21:25.9 21:17.5 6:51 M 47 Pinckney MI
154 Hertz,David 5616 21:28.1 21:19.1 6:52 M 49 Toledo OH
155 Olsen,Vince 6774 21:30.0 20:27.7 6:35 M 15 Ann Arbor MI
156 Bursch,Eric 4528 21:30.3 21:20.2 6:52 M 33 Ypsilanti MI
157 Robinson,Joshua 8736 21:31.8 21:23.3 6:53 M 22 Ann Arbor United States
158 Castleman,Bill 4604 21:32.5 21:26.8 6:54 M 39 Canton MI
159 Pressprich,William 6963 21:32.5 21:20.8 6:52 M 54 Ann Arbor United States
160 Yasuda,Satoshi 8178 21:32.8 21:25.7 6:54 M 28 Ann Arbor MI
161 Kenney,Jason 5929 21:33.4 21:30.3 6:55 M 37 Walled Lake MI
162 Preston,Jason 6965 21:36.1 21:25.2 6:54 M 34 Adrian MI
163 Stuart,Eric 7643 21:36.1 21:31.1 6:56 M 21 Riverview MI
164 Valtadoros,Philip 7843 21:36.3 21:31.5 6:56 M 10 Ann Arbor MI
165 Wells,Ronald 8010 21:36.9 21:28.6 6:55 M 36 Petersburg MI
166 Strickler,Eric 7635 21:38.4 21:30.6 6:55 M 17 Lapeer MI
167 Machinski,Nicholas 6280 21:38.7 21:31.6 6:56 M 20 Ann Arbor United States
168 Judge,Patrick 5857 21:40.6 21:31.9 6:56 M 47 Riverview United States
169 Frost,Patrick 5270 21:42.3 21:34.9 6:57 M 26 Shelby Township MI
170 Oates,Tom 6742 21:42.8 21:31.5 6:56 M 10 Chelsea MI
171 Boiler,Matt 9103 21:43.1 21:34.8 6:57 M 21
172 Wilson,Kevin 8112 21:43.2 20:41.6 6:40 M 20 Ann Arbor United States Of Ame
173 Beckwith,Jason 4220 21:43.6 21:33.2 6:56 M 33 Wayland United States
174 Bliss,Michael 4334 21:45.0 21:43.2 6:59 M 27 Novi Oakland
175 Feldeisen,Ron 5155 21:45.7 21:39.6 6:58 M 44 Ann Arbor MI
176 Zapata,Ruben 8224 21:46.7 21:42.7 6:59 M 16 Berrien Springs MI
177 Deininger,Peter 8360 21:47.7 21:44.8 7:00 M 45 Ann Arbor MI
178 Yoas,Scot 8189 21:48.3 21:36.5 6:57 M 52 Plymouth MI
179 Hipp,Michael 5654 21:49.1 21:42.9 6:59 M 27 Dearborn Heights MI
180 Leahy,William 6140 21:51.4 21:18.0 6:51 M 28 Ann Arbor MI
181 Van Dyke,Aaron 8832 21:51.6 21:37.8 6:58 M 28 Ann Arbor MI
182 Koselka,Elizabeth 9226 21:51.9 21:38.8 6:58 F 19
183 Waidley,Monica 7929 21:57.3 21:40.5 6:59 F 44 Dexter MI
184 Charles,Jonathan 4632 21:58.8 21:50.7 7:02 M 14 Ann Arbor MI
185 Jong,Matthew 5847 21:59.7 21:36.5 6:57 M 16 Ann Arbor Washtenaw
186 Nicholas,Madeleine 9089 21:59.9 21:56.6 7:04 F 13
187 Wilson,Christopher 8110 22:00.6 21:50.6 7:02 M 31 Metamora MI
188 Kirkey,Jeff 5970 22:01.0 21:44.9 7:00 M 37 Dexter MI
189 Michele,Justin 6496 22:04.5 21:58.2 7:04 M 10 Ann Arbor MI
190 Sitterly,Mark 7450 22:06.1 22:00.6 7:05 M 49 Monroe MI
191 Isken,Mark 5761 22:07.5 22:02.1 7:06 M 45 Rochester Hills United States
192 Riegger,Jim 7103 22:08.1 21:53.0 7:03 M 16 Ann Arbor MI
193 Halasy,Scott 8446 22:08.4 21:49.8 7:02 M 24 Wyandotte MI
194 Oldani,Keegan 6769 22:09.5 22:04.4 7:06 M 9 Ann Arbor MI
195 Schroeder,Tyler 7332 22:11.1 22:05.0 7:06 M 21 Whitehouse United States
196 Vigna,David 7900 22:11.6 21:56.1 7:04 M 51 Warren United States
197 Stannik,Nils 7564 22:12.5 21:57.9 7:04 M 19 Ann Arbor MI
198 Slack,Steve 7463 22:13.1 21:59.1 7:05 M 60 Ann Arbor MI
199 Siegler,Jessica 7423 22:15.6 22:00.2 7:05 F 14 Canton MI
200 Fritz,Scott 5267 22:18.2 22:11.4 7:09 M 29 Farmington Hills MI
201 Mulvihill,Thomas 6625 22:19.5 22:12.7 7:09 M 56 Livonia MI
202 Luka,Peter 6250 22:20.3 21:51.8 7:02 M 26 Morral United States
203 Rutherford,James 7235 22:21.3 22:07.2 7:07 M 30 Fenton MI
204 Lectka,David 6147 22:22.0 22:07.4 7:07 M 16 Livonia United States
205 Greenland,Fiona 5434 22:22.4 21:53.3 7:03 F 34 Ann Arbor MI
206 Jackson,Carlos 5768 22:23.7 22:14.2 7:09 M 15 Ann Arbor MI
207 Gardner,Ryan 5296 22:23.8 22:21.8 7:12 M 24 Ypsilanti United States
208 Majmudar,Chinmay 8977 22:24.9 22:11.9 7:09 M 30 Ann Arbor United States
209 Buckhave,Eric 4484 22:25.1 22:11.5 7:09 M 40 Ypsilanti MI
210 Ernst,Heidi 9316 22:26.7 22:22.1 7:12 F 27
211 Kowalski,Joshua 8961 22:30.3 22:18.8 7:11 M 10 Chelsea MI
212 Bayer,Chuck 4203 22:33.9 22:25.2 7:13 M 61 Farmington Hills MI
213 Weidmayer,Jeff 7992 22:35.8 22:12.5 7:09 M 35 Ann Arbor MI
214 Erb,Natalie 5091 22:37.0 22:24.2 7:13 F 20 Ann Arbor MI
215 Sonnega,Peter 9306 22:37.3 22:12.7 7:09 M 13
216 Cowan,Brad 4751 22:38.8 22:30.5 7:15 M 44 Waterford MI
217 Wilson,Matthew 8113 22:39.9 22:32.2 7:15 M 36 Hamburg MI
218 Arens,Dave 4088 22:41.4 22:36.5 7:17 M 37 Sherwood United States
219 Dowling,David 4978 22:41.4 22:29.8 7:14 M 50 Ann Arbor MI
220 Mundinger-smith,Eric 6626 22:42.9 21:40.6 6:59 M 13 Linden MI
221 Kennard,Spencer 5920 22:43.9 22:28.8 7:14 M 21 Monroe MI
222 Eleazar,Drew 5066 22:43.9 22:29.9 7:14 M 35 Saline MI
223 York,Paul 8879 22:44.5 22:25.4 7:13 M 51 Ann Arbor MI
224 Harrison,Scott 5552 22:44.7 22:36.7 7:17 M 49 Canton MI
225 Vidovic,Alexander 8838 22:45.2 22:35.3 7:16 M 12 Whitmore Lake MI
226 Dawn,Austin 4861 22:48.1 22:26.4 7:13 M 14 Monroe MI
227 Kozicz,Jack 6038 22:48.3 22:32.1 7:15 M 13 Ann Arbor MI
228 Stimac,Peyton 7603 22:48.5 22:37.2 7:17 M 13 Dexter MI
229 Waddington,Richard 8843 22:50.0 22:35.7 7:16 M 25 Ann Arbor United States
230 Lefevre,Mark 6161 22:50.3 22:45.8 7:20 M 49 Saint Clair Shores MI
231 Boynton,Nicholas 4395 22:50.6 22:25.0 7:13 M 13 Troy MI
232 Li,Sai 6209 22:50.6 22:36.4 7:17 M 31 Ann Arbor MI
233 Wittig,Lynda 8134 22:51.7 22:45.5 7:20 F 50 Ann Arbor MI
234 Mussi,Edward 6651 22:51.7 22:04.5 7:06 M 16 Saline MI
235 Wagner,Mark 7926 22:53.9 22:44.1 7:19 M 50 Novi MI
236 Ryan,Timothy 7248 22:55.2 22:26.2 7:13 M 26 Ann Arbor MI
237 Korkuch,Beth 6019 23:00.0 22:51.2 7:21 F 22 Ann Arbor MI
238 Cameron,Mark 4558 23:00.4 22:48.9 7:21 M 50 Ann Arbor MI
239 Ringo,Thomas 8731 23:00.8 22:54.0 7:22 M 55 Northville MI
240 Hocter,Paul 5670 23:02.8 22:51.6 7:21 M 50 Clarklake MI
241 Holleman,Amy 5684 23:03.4 22:51.3 7:21 F 29 Ann Arbor U.S.
242 Jacobs,Sutton 5778 23:04.4 22:56.4 7:23 M 13 Manchester MI
243 Wallace,Bryan 7945 23:07.2 22:43.3 7:19 M 17 Monroe MI
244 Wick,Kirk 8062 23:07.3 22:52.5 7:22 M 45 North Adams MI
245 Mcdonald,Joseph 6425 23:08.3 22:47.4 7:20 M 19 Jackson U.S.A.
246 Balcom,Jason 8274 23:08.8 22:49.5 7:21 M 36 Ann Arbor MI
247 Schemanski,Paul 7305 23:09.1 22:50.0 7:21 M 46 Petoskey MI
248 Drain,Kurt 4992 23:09.6 23:01.7 7:25 M 40 Chicago IL
249 Garner,Mitchell 8938 23:09.8 22:53.1 7:22 M 60 Ann Arbor MI
250 Santoro JR.,Tom 7283 23:10.4 22:58.1 7:24 M 66 Gregory MI
251 Buzinkai,Donald 4544 23:13.2 22:53.5 7:22 M 40 Ann Arbor MI
252 Wankel,Sandra 9081 23:13.3 22:48.4 7:20 F 43
253 Lew,Kailey 6199 23:14.6 23:07.2 7:27 F 19 Wyoming United States
254 Turner Iii,Wil 7810 23:15.2 22:54.7 7:22 M 33 Ypsialnti MI
255 Berry,Ivor 4287 23:15.8 22:58.8 7:24 M 22 Ann Arbor MI
256 Lucas,Brooks 6246 23:15.8 23:02.1 7:25 M 35 Caillac MI
257 Van Norman,Paul 7849 23:15.9 23:02.2 7:25 M 36 Fenton MI
258 Rhodes,Jeremy 7082 23:16.7 23:07.5 7:27 M 28 Belleville MI
259 Leagon,Thomas 6139 23:17.2 22:35.4 7:16 M 39 Canton MI
260 Mueting,Mark 6612 23:17.6 23:05.6 7:26 M 44 Dexter United States
261 Gallagher,Tim 9340 23:17.6 23:09.0 7:27 M 45
262 Smith,Eryn 7481 23:18.2 22:52.2 7:22 M 35 Ypsilanti MI
263 Trimboli,Brian 7786 23:18.7 23:01.7 7:25 M 34 Shelby Township MI
264 Griggs,Nicholas 5444 23:18.8 22:51.8 7:22 M 21 Ann Arbor MI
265 Jong,Jim 5846 23:19.0 22:55.9 7:23 M 48 Ann Arbor Washtenaw
266 Thapliyal,Vinayak 7732 23:19.1 23:06.1 7:26 M 18 Ann Arbor MI
267 Oesch,Jim 9437 23:21.1 23:14.0 7:29 M 37 Lake Odessa MI
268 Oesch,Tyler 9436 23:21.9 23:14.5 7:29 M 15 Lake Odessa MI
269 Zacks,Daniel 8218 23:23.1 23:18.1 7:30 M 11 Ann Arbor United States
270 Varbedian,Jason 7872 23:23.3 23:13.0 7:28 M 20 Ann Arbor United States
271 Mozena,Sean 6607 23:23.4 23:11.7 7:28 M 40 Adrian MI
272 Buggs,Michelle 9308 23:26.3 23:09.7 7:27 F 28
273 Kozloff,Ken 8542 23:28.8 23:09.6 7:27 M 35 Ann Arbor MI
274 German,Robert 5336 23:28.9 23:19.4 7:30 M 40 Ann Arbor MI
275 ST. Onge,Brad 7552 23:29.8 23:05.8 7:26 M 32 Port Huron United States
276 Bain,Jeffery 4136 23:29.9 23:10.2 7:27 M 39 Riverview MI
277 Slotnick,Melissa 7470 23:32.2 23:14.6 7:29 F 34 Ann Arbor MI
278 Knight,Chris 5989 23:32.2 23:21.4 7:31 M 44 Saline MI
279 Rush,Jeremy 7219 23:32.9 23:13.5 7:29 M 31 Lansing MI
280 Matt,Tarek 8602 23:33.2 23:24.1 7:32 M 34 Canton MI
281 Mcdonald,Don 6424 23:35.2 23:22.5 7:31 M 39 Howell MI
282 Beach,Katelyn 8283 23:36.6 23:10.1 7:27 F 22 Howell MI
283 Fralick,Joe 5242 23:37.1 23:21.2 7:31 M 32 Stevensville MI
284 Vidovic,Wendy 8839 23:38.9 23:29.0 7:33 F 47 Whitmore Lake MI
285 Kaiser,Phil 5869 23:41.1 23:23.4 7:32 M 28 Brooklyn MI
286 Gerathy,Dave 5330 23:41.6 23:01.4 7:25 M 41 Highland MI
287 Mcbrairty,Alex 6397 23:41.8 21:23.6 6:53 M 19 Ann Arbor United States
288 Puskar,Jon 6990 23:44.1 22:38.6 7:17 M 20 Ann Arbor MI
289 Rieger,Nate 7102 23:44.3 23:38.9 7:37 M 13 Allendale MI
290 West,Brian 8861 23:44.5 23:16.5 7:29 M 36 Highland MI
291 Salvner,Joshua 7268 23:44.5 23:39.5 7:37 M 26 Ann Arbor MI
292 Jansson,Peter 5792 23:44.7 23:30.4 7:34 M 36 Fenton MI
293 Dzierbicki,Jeff 5034 23:45.4 23:22.1 7:31 M 33 Troy MI
294 Hammond,Douglas 5522 23:46.0 20:56.0 6:44 M 35 Plymouth United States Of Ame
295 Weiss,Jaclyn 8001 23:46.3 23:25.9 7:33 F 21 Ann Arbor MI
296 Hancock,Nolan 8452 23:47.9 23:38.8 7:37 M 12 Parma MI
297 Sweeton,Dave 7694 23:48.0 23:22.7 7:31 M 31 Livonia MI
298 Zawacki,Lindsey 8226 23:48.4 23:45.3 7:39 F 13 Monroe MI
299 Sreniawski,Louis 7548 23:48.4 23:10.3 7:27 M 35 Flat Rock MI
300 Schemanski,Mikkie 7304 23:49.0 23:30.8 7:34 F 48 Petoskey MI
301 Vander Weide,Nathan 7855 23:52.4 23:26.5 7:33 M 28 Novi United States
302 Clark,Charlotte 9118 23:53.4 23:49.9 7:40 F 12
303 O'sullivan,Larry 8675 23:53.8 23:52.3 7:41 M 46 Ypsilanti MI
304 Rosen,Leisa 7175 23:53.9 23:32.8 7:35 F 40 Ann Arbor MI
305 Moeke,Emilee 6560 23:54.0 23:30.2 7:34 F 21 Ann Arbor United States
306 Hines,Kara 5650 23:54.3 23:30.5 7:34 F 21 Ann Arbor United States
307 Schubatis,Adam 8773 23:54.3 23:34.1 7:35 M 20 Ann Arbor MI
308 Mcdannel,Stephanie 6421 23:55.1 23:23.3 7:32 F 35 Livonia MI
309 Harrison,Grace 5549 23:56.4 23:50.4 7:40 F 64 Ann Arbor MI
310 Sochacki,Nick 8795 23:56.5 23:34.4 7:35 M 26 Ann Arbor MI
311 Rust,Robert 7234 23:56.9 23:45.1 7:39 M 11 Ypsilanti MI
312 Briggs,Karl 4433 23:58.6 23:33.4 7:35 M 54 Freeland MI
313 Wood,Stewart 8145 23:59.7 23:42.2 7:38 M 55 Ann Arbor MI
314 Moore,Erin 6572 24:00.3 23:39.1 7:37 F 28 Ann Arbor MI
315 Koppman,Jerry 6018 24:00.5 23:31.8 7:34 M 32 Ann Arbor United States
316 Steih,Paul 7584 24:01.2 23:46.4 7:39 M 49 Ann Arbor MI
317 Clark,David 4672 24:01.4 23:36.4 7:36 M 59 Ypsilanti MI
318 Chang,Richard 4626 24:01.9 23:48.4 7:40 M 37 Ypsilanti MI
319 Sutton,Evan 7678 24:02.2 21:19.7 6:52 M 30 White Lake MI
320 Marshall,Sarah 6330 24:02.6 23:52.3 7:41 F 16 Saline MI
321 Jensen,Tyler 8495 24:03.2 23:24.3 7:32 M 14 Frankenmuth MI
322 Morgan,Spencer 6589 24:03.2 23:56.7 7:42 M 14 Ann Arbor United States
323 Gibson,Jason 8424 24:03.6 22:57.7 7:23 M 26 Ypsilanti MI
324 Osterman,Michael 8673 24:04.0 23:53.4 7:41 M 15
325 Navarre,Courtney 8654 24:04.7 23:34.6 7:35 F 24 Luna Pier United States
326 Richner,Cedric 7095 24:05.1 23:55.7 7:42 M 46 Ann Arbor United States
327 Sapp,Laura 7284 24:05.2 23:49.0 7:40 F 36 Dexter MI
328 Pardon,Mark 6829 24:05.9 23:57.4 7:43 M 60 Ann Arbor MI
329 Breedveld,Alexa 8303 24:07.8 23:35.2 7:36 F 20 Saline United States
330 Weaver,Kristina 9311 24:08.1 23:46.4 7:39 F 24
331 Hochrein,David 5667 24:08.4 23:52.1 7:41 M 41 Dexter MI
332 Rosati,Matthew 8749 24:09.1 24:05.9 7:45 M 12 Ann Arbor United States
333 Goodson,Madeline 5396 24:10.5 23:55.6 7:42 F 12 Ann Arbor MI
334 Clapsadle,Michael 4670 24:11.1 23:46.0 7:39 M 31 Livonia United States
335 Emanuel,Michael 5084 24:11.8 23:40.8 7:37 M 34 Novi MI
336 Webb,Terry 8855 24:12.0 24:02.6 7:44 M 37 Parma MI
337 Amburgey,Kimberly 4060 24:12.8 24:04.7 7:45 F 25 Ann Arbor MI
338 Gilbert,Martin 5348 24:13.4 24:09.5 7:47 M 16 Berrien Springs MI
339 Kanji,Riyaz 8517 24:13.7 23:44.3 7:38 M 45 Ann Arbor MI
340 Pray,Pamela 6962 24:13.8 24:00.8 7:44 F 56 Clinton MI
341 Toteff,Courtney 7778 24:14.5 23:56.9 7:42 F 26 Grass Lake United States
342 Valdez,Sam 7835 24:14.7 23:07.0 7:26 M 44 Jasper United States
343 O'connell,Daniel 6750 24:15.7 23:52.2 7:41 M 30 Ann Arbor MI
344 Sung,Randall 7673 24:15.7 24:00.1 7:44 M 47 Ann Arbor MI
345 Hoops,Andrew 5693 24:16.2 23:59.5 7:43 M 30 Burton MI
346 Ellison,Josh 8391 24:16.7 23:50.9 7:41 M 31 Sylvania OH
347 Lyijynen,James 6267 24:16.7 23:50.4 7:40 M 42 Rochester Hills MI
348 Albanito,James 4033 24:17.0 23:47.5 7:39 M 40 Marshfield WI
349 Mullis,Merrill 6624 24:17.6 24:01.0 7:44 F 38 Ann Arbor MI
350 Krassa,Drake 6047 24:17.9 23:58.2 7:43 M 14 Chesterfield MI
351 Rastalsky,Hartmut 7029 24:18.4 24:00.3 7:44 M 45 Ann Arbor MI
352 Demars,Sara 4890 24:18.4 24:04.7 7:45 F 25 Grosse Pointe Shores MI
353 Chea,Angela 4637 24:18.9 23:58.1 7:43 F 39 Dexter MI
354 Conzelmann,Tom 4718 24:19.1 23:22.7 7:31 M 48 Saline MI
355 Jodoin,Brad 5812 24:19.8 23:36.9 7:36 M 21 Lansing United States Of Ame
356 Dyer,Dale 5027 24:20.0 22:46.0 7:20 M 45 Chelsea MI
357 Fay,Colm 5149 24:20.1 23:33.2 7:35 M 30 Ann Arbor MI
358 Jacuzi,David 9327 24:20.2 24:11.7 7:47 M 0
359 Mcgarty,Peter 8608 24:20.4 23:52.6 7:41 M 35 Ypsilanti MI
360 Muessig,Brian 9432 24:20.6 23:46.9 7:39 M 42 Clinton United States
361 Kring,Tim 6057 24:21.0 24:06.0 7:45 M 33 Niles Berrien
362 Lynch,Kevin 6269 24:21.1 24:05.3 7:45 M 24 Niles United States
363 Mcmackin,Ross 6448 24:21.4 24:13.2 7:48 M 27 Novi MI
364 Digiovanni,Anna 4935 24:21.5 24:09.9 7:47 F 14 Ann Arbor MI
365 Ni,Lisong 6703 24:21.6 24:05.9 7:45 M 52 Ypsilanti MI
366 Roumel,Nick 7193 24:23.1 23:54.0 7:42 M 53 Ann Arbo MI
367 Schmit,Steve 9239 24:23.2 22:57.5 7:23 M 21
368 Secord,Jeff 7358 24:23.7 24:02.3 7:44 M 54 Jackson MI
369 Williston,Zack 8105 24:24.6 24:10.3 7:47 M 9 Ann Arbor MI
370 Macdermaid,Bobby 6276 24:24.7 24:09.0 7:46 M 18 Linden MI
371 Poole,Julie 8706 24:24.7 24:03.1 7:44 F 29 Canton United States
372 Digiovanni,Tony 4937 24:25.1 24:13.2 7:48 M 43 Ann Arbor MI
373 Stimac,Stacy 7604 24:25.1 24:13.8 7:48 F 43 Dexter MI
374 Blommer,Mike 4337 24:25.2 24:10.9 7:47 M 44 Ann Arbor MI
375 Brink,Lindsay 4437 24:25.6 23:57.1 7:43 F 30 Farmington Hills MI
376 Keller,Elizabeth 5904 24:25.7 23:58.5 7:43 F 26 Ann Arbor United States
377 Flewelling,Brent 5213 24:25.7 24:09.8 7:47 M 30 Northville MI
378 Pena,Joel 6874 24:26.1 23:45.2 7:39 M 25 Ann Arbor MI
379 Studley,Ron 7647 24:26.3 23:40.4 7:37 M 41 New Baltimore MI
380 Gleichman,Hillary 5369 24:28.1 24:07.4 7:46 F 48 Saline MI
381 Chatman,Dawn 8326 24:28.6 23:54.6 7:42 F 41 Ann Arbor MI
382 Brown,William 4467 24:31.4 24:03.8 7:45 M 37 Royal Oak MI
383 Burkel,James 4512 24:31.6 23:38.3 7:37 M 40 Chelsea MI
384 Weinberg,Lauren 9181 24:31.6 23:15.8 7:29 F 12
385 Weiss,Lisa 8002 24:31.7 24:10.9 7:47 F 52 Ann Arbor MI
386 Eisinger,Daniel 5055 24:32.2 23:52.9 7:41 M 21 Grand Blanc United States
387 White,Jim 8039 24:32.8 23:54.7 7:42 M 43 Farmington MI
388 Anderson,Cathi 4069 24:33.2 23:45.3 7:39 F 39 Livonia MI
389 Russell,Alan 7221 24:34.3 23:14.0 7:29 M 29 Jerome MI
390 Gentner,Rachelle 5326 24:34.6 24:09.9 7:47 F 24 Brooklyn MI
391 Waite,Amanda 7933 24:35.1 24:13.9 7:48 F 21 Plymouth United States
392 D'agostini,Brian 4813 24:35.4 24:29.7 7:53 M 19 Northville United States Of Ame
393 Waltrr,Gillian 7954 24:36.6 23:33.8 7:35 F 12 Ann Arbor MI
394 Wilkie,Ryan 8078 24:37.5 23:39.2 7:37 M 14 Saline MI
395 Jordan,Zach 5850 24:37.7 23:39.4 7:37 M 14 Saline MI
396 Lane,Andy 9231 24:37.8 23:46.4 7:39 M 34
397 Keller,Jonathon 5906 24:38.2 24:11.9 7:47 M 26 Ann Arbor United States
398 Beeman,Charity 4230 24:38.6 24:12.4 7:47 F 36 Stockbridge MI
399 Borys,Jeremy 4372 24:38.9 24:20.3 7:50 M 35 Plymouth MI
400 Girbach,Kevin 5364 24:40.1 24:13.5 7:48 M 50 Novi MI
401 Ternes,John 7729 24:40.9 24:17.3 7:49 M 54 Ann Arbor MI
402 Federbush,Justin 9475 24:43.3 22:07.2 7:07 M 19
403 Slawecki,Tiernan 8790 24:43.7 24:32.4 7:54 M 12 Ann Arbor MI
404 Kunimitsu,Kazuhiro 6086 24:44.2 24:27.5 7:52 M 35 Ann Arbor MI
405 Reed,John 7048 24:44.8 24:14.5 7:48 M 47 Ann Arbor MI
406 Pritchett,Cedric 6976 24:45.6 24:14.9 7:48 M 32 Dexter MI
407 Grob,Carly 5448 24:45.8 24:23.5 7:51 F 21 Ann Arbor MI
408 Carvette,Tyler 4598 24:46.5 24:43.6 7:58 M 10 Ann Arbor MI
409 Noble,Catherine 6722 24:46.8 24:19.1 7:50 F 20 Saline MI
410 Seigerman,Cydney 7369 24:46.9 24:21.4 7:50 F 19 West Bloomfield MI
411 Reid,Allison 7058 24:47.1 22:51.5 7:21 F 19 Ann Arbor MI
412 Chen,Sarah 9326 24:47.2 24:03.0 7:44 F 16
413 Sugerman,Alexander 7657 24:47.7 24:27.0 7:52 M 14 Ann Arbor MI
414 Denman,Kevin 4894 24:47.8 24:28.3 7:53 M 34 Philadelphia PA
415 Krawczyk,Meagan 6051 24:47.9 24:29.8 7:53 F 25 Philadelphia PA
416 Smith,Sara 7504 24:49.2 24:27.3 7:52 F 21 Ann Arbor MI
417 Leblanc,John 6142 24:49.4 24:26.5 7:52 M 24 Ann Arbor MI
418 Matuszak,Vincent 6368 24:49.7 24:31.2 7:54 M 10 Brighton United States
419 Roberts,Julie 7122 24:50.0 24:24.6 7:51 F 41 Ann Arbor United States
420 Matuszak,Matthew 6365 24:50.1 24:31.2 7:54 M 40 Brighton United States
421 Schaufle,Rudy 9304 24:51.3 24:34.0 7:54 M 30
422 Connolly,Francis 4712 24:51.6 24:27.8 7:52 M 49 Ann Arbor MI
423 Layne,Joseph 8556 24:51.7 24:34.2 7:54 M 31 Southfield MI
424 Kalaida,Natasha 5870 24:51.9 24:33.3 7:54 F 28 Ann Arbor MI
425 Tarrant,Devin 7708 24:52.6 23:33.0 7:35 M 22 Belleville United States
426 Turner,Chris 9264 24:53.1 24:20.2 7:50 M 31
427 Halter,Jeffrey 5516 24:53.5 24:42.4 7:57 M 65 Ann Arbor MI
428 Reese,Andrew 7051 24:54.4 24:35.8 7:55 M 11 Brighton MI
429 Smith,Tom 7507 24:54.9 24:32.0 7:54 M 53 Mount Pleasant MI
430 Kunzelman,Chad 8544 24:55.8 24:39.3 7:56 M 34 Munith MI
431 Caruso,Vinnie 8316 24:55.9 23:53.9 7:42 M 19 Shelby Township MI
432 Wagner,Steve 7928 24:56.0 24:40.9 7:57 M 46 Ann Arbor MI
433 Zillioux,Jacqueline 8240 24:57.8 24:36.9 7:55 F 21 Ann Arbor MI
434 Trese,Andrea 7783 24:58.4 24:18.8 7:50 F 21 Ann Arbor United States
435 Hatcher,Robert 5559 24:58.6 24:33.8 7:54 M 36 South Lyon MI
436 Carter,Annie 4590 24:58.9 23:56.7 7:42 F 16 Ann Arbor MI
437 Hasegawa,Doug 5556 24:59.3 24:29.4 7:53 M 56 Evanston IL
438 Fielder,Kevin 5178 25:00.0 24:22.9 7:51 M 22 Ann Arbor United States
439 Scott,Stephanie 7347 25:00.3 23:58.2 7:43 F 20 Carleton MI
440 Basch,Ari 8279 25:00.9 24:17.6 7:49 M 9 Ann Arbor MI
441 Kennard,Stan 5921 25:01.6 24:45.9 7:58 M 50 Monroe MI
442 Wilson,Brian 8109 25:01.9 24:48.4 7:59 M 48 Ann Arbor MI
443 Nienhuis,Brad 6713 25:03.4 24:40.8 7:57 M 30 Allendale United States
444 Evans,Daniel 9162 25:03.4 24:28.9 7:53 M 8
445 Haack,Larry 8943 25:03.9 24:28.3 7:53 M 57 Ann Arbor MI
446 Hunter,Lauren 5742 25:06.3 24:55.6 8:01 F 13 Saline MI
447 Zwicke,Christy 8253 25:06.3 24:38.5 7:56 F 29 Ann Arbor MI
448 Brachulis,Andrew 4399 25:07.6 24:58.1 8:02 M 32 Ann Arbor MI
449 Martin,Kristina 6339 25:07.9 24:43.2 7:57 F 31 Gregory MI
450 Besford,Todd 4295 25:08.1 25:01.9 8:03 M 9 Ann Arbor United States
451 Mcintosh,Tiffany 9222 25:08.2 24:48.3 7:59 F 15
452 Gorlewski,Roger 5403 25:08.5 25:01.4 8:03 M 74 Ann Arbor MI
453 Reid,Rick 7059 25:09.6 24:33.9 7:54 M 50 Ann Arbor MI
454 Peiter,Christine 6870 25:09.9 24:43.9 7:58 F 37 Chelsea MI
455 Colvin,Patrick 4702 25:10.3 23:50.0 7:40 M 20 Ann Arbor MI
456 Lande-Keeling,Joanne 9418 25:10.3 24:32.8 7:54 F 40 Ann Arbor MI
457 Cook,Scott 4725 25:11.3 24:50.0 8:00 M 49 Farmington Hills MI
458 Bodei,Steven 4342 25:11.6 23:50.4 7:40 M 26 Ann Arbor MI
459 Brown,Gary 4454 25:11.7 24:40.6 7:57 M 40 Ann Arbor United States
460 Zinn,Nichole 9257 25:13.7 24:37.3 7:55 F 34
461 Hunter,Marguerite 5743 25:14.3 25:03.8 8:04 F 10 Saline MI
462 Kanji,Laura 8516 25:15.2 24:46.1 7:58 F 13 Ann Arbor MI
463 Browning,Keely 4469 25:15.6 24:02.3 7:44 F 20 Ann Arbor United States
464 Fahl,Samantha 5130 25:16.2 24:43.9 7:58 F 21 Kalamazoo MI
465 Ammerman,Jack 4061 25:16.3 24:56.7 8:02 M 10 Ann Arbor MI
466 Fahl,Danielle 5129 25:17.0 24:44.4 7:58 F 23 Ann Arbor MI
467 Yaklin,Nathan 8171 25:17.3 24:19.5 7:50 M 14 Saline MI
468 Harris,Sam 5547 25:18.7 24:43.5 7:57 M 16 Ann Arbor MI
469 Kaercher,Tommy 8515 25:19.0 22:46.3 7:20 M 16 Ann Arbor MI
470 Kroll,Jason 6061 25:19.8 24:43.5 7:57 M 14 Brighton MI
471 Diblassio,Brian 4927 25:20.3 24:43.8 7:58 M 41 Ann Arbor MI
472 Brewer,Christine 4426 25:20.5 24:11.2 7:47 F 36 Newport U.S
473 Mathiesen,Jeff 8599 25:21.2 25:00.6 8:03 M 43 Commerce Township MI
474 Greene,Arthur 8441 25:21.2 24:44.8 7:58 M 55 Ann Arbor MI
475 Fitzparick,Christopher 5200 25:22.1 23:24.6 7:32 M 48 Saline MI
476 Thomas,Mike 7744 25:22.2 24:40.9 7:57 M 34 Temperance United States
477 Sheridan,Kate 8783 25:22.6 23:15.2 7:29 F 25 Cleveland Heights OH
478 Marsonek,Steffanie 8595 25:22.9 23:49.2 7:40 F 25 Canton MI
479 Burns,Jeff 4519 25:23.1 25:02.0 8:03 M 46 Tecumseh MI
480 Moore,Jason 6575 25:23.4 21:36.8 6:57 M 33 Ann Arbor MI
481 Ammerman,Marci 4062 25:24.2 25:04.2 8:04 F 45 Ann Arbor MI
482 Umphrey,Edward 8829 25:24.3 24:23.4 7:51 M 27 Ann Arbor MI
483 Robbins,Emily 7118 25:25.4 24:55.9 8:01 F 19 Ann Arbor MI
484 Warren,Jim 9036 25:25.8 24:01.2 7:44 M 39 Brooklyn MI
485 Dudek,Stephen 5008 25:26.4 25:00.6 8:03 M 38 Livonia United States
486 Youngman,Mark 8206 25:28.3 24:43.6 7:58 M 33 Perrysburg OH
487 Ross,Patty 7184 25:28.7 25:01.3 8:03 F 52 Boulder United States
488 Sheng,Cynthia 7397 25:29.2 25:07.4 8:05 F 41 Ann Arbor MI
489 Koning,David 6011 25:30.4 24:47.8 7:59 M 34 Zeeland United States
490 Breidenstein,Abagail 4420 25:30.5 25:10.0 8:06 F 23 Ann Arbor MI
491 Koerschner,Evan 6002 25:30.7 24:29.4 7:53 M 11 Ann Arbor MI
492 Garg,Neha 5300 25:30.8 25:16.5 8:08 F 18 Ann Arbor MI
493 Iacofano,Jeff 5747 25:31.3 24:06.0 7:45 M 37 Ypsilanti Washtenaw
494 Martin,Tim 6342 25:32.5 25:04.0 8:04 M 55 Ann Arbor MI
495 Schultz,Maggie 7336 25:33.0 24:59.0 8:02 F 14 Whitmore Lake MI
496 Chevalier,Jeremy 4642 25:34.3 24:40.5 7:57 M 36 Ypsilanti MI
497 Hanke,James 5527 25:35.1 24:41.6 7:57 M 35 Ypsilanti MI
498 Davies,Evan 9051 25:35.2 25:03.2 8:04 M 23
499 Pierfelice,Catherine 8697 25:35.9 25:14.1 8:07 F 54 Belleville MI
500 Weinstein,Joshua 7995 25:36.0 24:57.7 8:02 M 23 Ann Arbor MI
501 Gerbens,Eric 5333 25:36.2 24:53.1 8:01 M 29 Ann Arbor MI
502 Rettell,David 9417 25:36.2 24:59.3 8:03 M 44 Ann Arbor MI
503 Cooke,Ann-li 4727 25:36.3 24:47.2 7:59 F 26 Ann Arbor United States
504 Cook,Eric 4720 25:37.1 24:53.7 8:01 M 38 Toledo OH
505 Deckard,Dan 8358 25:37.8 24:57.4 8:02 M 34 Redford MI
506 Wernette,Steven 8021 25:38.0 25:15.2 8:08 M 45 Roseville MI
507 Salgia,Reena 7263 25:38.3 24:46.5 7:58 F 31 Ann Arbor MI
508 Oates,Robbie 6741 25:39.7 25:27.6 8:12 M 8 Chelsea MI
509 Oates,Patrick 6740 25:40.0 25:27.7 8:12 M 41 Chelsea MI
510 Karabakal,Nejat 5878 25:40.7 24:59.0 8:02 M 49 Ann Arbor MI
511 Bergkoetter,Brenton 4276 25:41.6 24:55.5 8:01 M 31 Milford MI
512 Bates,Ryan 4193 25:41.9 24:54.3 8:01 M 26 Ann Arbor MI
513 Picking,David 6921 25:42.3 25:20.7 8:09 M 48 Farmington MI
514 Trese,Brennan 7784 25:42.8 25:01.4 8:03 M 50 Farmington Hills MI
515 Farrington,William 5146 25:43.0 24:57.0 8:02 M 36 Westland United States
516 Bitzer,Dustin 4313 25:43.1 24:42.0 7:57 M 23 Gagetown MI
517 Smith,Derrick 7480 25:43.9 25:15.3 8:08 M 36 Ann Arbor MI
518 Hengesbach,Heather 5604 25:44.3 25:03.7 8:04 F 25 Ypsilanti MI
519 Muzza,Amy 6654 25:45.9 25:17.0 8:08 F 25 Morral United States
520 Rutherford,Dominick 9126 25:46.1 25:24.0 8:11 M 25
521 Kuipers,Kaitlin 6072 25:46.9 25:20.1 8:09 F 25 Holland United States
522 Green,Glenn 8941 25:47.1 25:26.0 8:11 M 46 Dexter MI
523 Malone,Valentino 8586 25:47.7 25:29.2 8:12 M 41 Howell MI
524 Bleske,Barry 4331 25:47.9 24:48.8 7:59 M 49 Saline MI
525 Quinno,Ben 7001 25:48.1 24:56.8 8:02 M 14 Saline MI
526 Graber,Chris 5411 25:48.2 25:01.9 8:03 M 15 Saline MI
527 Ferguson,Kristin 8399 25:48.6 25:33.9 8:14 F 34 Grandville MI
528 Beekman,Tad 4229 25:48.7 25:01.5 8:03 M 15 Saline MI
529 Birchok,Daniel 8289 25:48.8 25:10.8 8:06 M 32 Ann Arbor United States
530 Schulte,Nicholas 7334 25:49.2 25:19.5 8:09 M 30 Royal Oak MI
531 Brooks-planck,Ezra 4446 25:50.2 25:42.6 8:16 M 14 Chelsea MI
532 Eswaran,Shanti 5107 25:50.5 24:58.6 8:02 F 34 Ann Arbor MI
533 Foster,Liam 5225 25:52.1 25:01.8 8:03 M 15 Saline MI
534 Kelly-shaieb,Jessica 5916 25:52.6 25:12.4 8:07 F 32 Ann Arbor MI
535 Curtis,Brooks 4801 25:52.9 25:03.4 8:04 M 47 Ann Arbor MI
536 Kunnath,Joe 8967 25:53.4 24:22.2 7:51 M 14 Canton MI
537 Taylor,Jennifer 9074 25:53.6 25:44.4 8:17 F 41
538 Ley,Katharina 6207 25:54.2 24:48.7 7:59 F 25 Ann Arbor MI
539 Best,Christopher 4297 25:54.2 24:48.1 7:59 M 25 Troy MI
540 Runyan,Michael 9322 25:54.6 25:22.3 8:10 M 29
541 Roeder,Keith 7154 25:54.7 24:20.1 7:50 M 37 Ypsilanti United States
542 Runyan,Danielle 9321 25:54.9 25:22.0 8:10 F 31
543 Gorton,Kayla 5406 25:55.4 25:18.3 8:09 F 21 Ann Arbor MI
544 Curtis,Paul 4804 25:55.6 24:49.4 7:59 M 44 Novi MI
545 Crawford,Tom 4773 25:55.7 25:17.5 8:08 M 45 Ann Arbor MI
546 Skeels,Josh 7455 25:55.8 24:09.9 7:47 M 24 Tecumseh United States
547 Kovacik,Ken 6030 25:56.9 24:40.1 7:56 M 34 Roseville MI
548 Glissman,Julie 5370 25:57.1 25:26.0 8:11 F 29 Walled Lake MI
549 Hogan,Brendan 5678 25:57.8 25:54.3 8:20 M 13 Saline MI
550 Barnes,Terik 9233 25:58.4 25:47.0 8:18 M 11
551 Sugerman,Samuel 7660 25:59.0 25:39.2 8:15 M 10 Ann Arbor MI
552 Maziasz,Matt 9235 25:59.6 24:25.0 7:52 M 15
553 Malik,Anthony 6308 26:00.1 25:46.5 8:18 M 33 Maumee OH
554 Eickhoff,Nathan 8387 26:00.1 25:20.4 8:09 M 22 Frankenmuth United States Of Ame
555 Thelier,Cedric 7736 26:00.7 25:19.0 8:09 M 23 Ypsilanti MI
556 Calvano,Chris 4555 26:01.3 25:42.7 8:17 M 15 Clarkston MI
557 Mitchell,Marcia 6556 26:01.6 25:34.1 8:14 F 42 Dexter MI
558 Stump,Robert 7652 26:02.2 25:27.2 8:12 M 7 Chelsea United States
559 Walker,Thomas 7944 26:02.4 25:27.3 8:12 M 29 Ann Arbor United States
560 Lazarz,Kim 9161 26:05.1 25:30.3 8:13 F 37
561 Valenti,Paul 9174 26:05.6 25:39.8 8:16 M 56
562 Johnson,Caleb 9217 26:06.9 25:53.5 8:20 M 13
563 Mcguire,Tyler 9213 26:07.0 25:54.0 8:20 M 12
564 Malek,Amy 6304 26:07.1 25:33.7 8:14 F 37 Sylvania OH
565 Dingman,Brent 4941 26:07.6 25:56.9 8:21 M 43 Saline MI
566 Klosek,Robert 5980 26:08.9 24:47.4 7:59 M 19 Farmington Hills MI
567 Karlesky,Matthew 5881 26:11.2 25:27.6 8:12 M 28 Ann Arbor United States
568 Collins,Steve 8918 26:11.4 25:36.0 8:14 M 50 Ypsilanti MI
569 Winkler,Andrew 8120 26:11.5 25:54.4 8:20 M 23 Ann Arbor United States
570 Patel,Darshan 6844 26:11.6 25:54.8 8:20 M 22 Ann Arbor United States
571 Connolly,Aidan 4710 26:12.4 25:51.1 8:19 M 12 Ann Arbor MI
572 Matuszewski,Rachel 6371 26:12.9 25:31.0 8:13 F 11 Brighton MI
573 Barnes,Chris 4177 26:13.4 25:23.1 8:10 M 37 Grand Rapids MI
574 Goodman,Aaron 5393 26:13.6 25:53.1 8:20 M 20 Ann Arbor United States
575 Hunter,Meghan 9281 26:13.6 25:48.3 8:18 F 22
576 Wink,Bob 8118 26:13.9 25:31.4 8:13 M 63 South Lyon MI
577 Harfoot,Mike 5532 26:14.1 25:25.4 8:11 M 35 Wolverine Lake United States
578 Erdman,Lawrence 5094 26:14.4 25:29.8 8:12 M 45 Lansing MI
579 Parent,Jeff 8683 26:14.5 24:23.5 7:51 M 46 Royal Oak MI
580 Horchler,Paul 5701 26:14.9 25:37.2 8:15 M 43 Beverly Hills MI
581 Hamann,Rich 5518 26:16.5 25:40.0 8:16 M 34 Saline MI
582 Barnes,Jessica 4179 26:17.1 25:27.1 8:12 F 25 Grand Rapids MI
583 Neugut,Tova 6689 26:17.7 25:49.9 8:19 F 31 Ann Arbor MI
584 Mitchell,Joseph 6555 26:17.9 25:20.1 8:09 M 32 Ann Arbor MI
585 Valenti,Dennis 9033 26:17.9 25:50.4 8:19 M 52 Ann Arbor MI
586 Overgaard,Christie 6810 26:18.2 25:24.4 8:11 F 38 Ypsilanti MI
587 Johnson,Phil 5832 26:18.9 26:10.1 8:25 M 49 Adrian MI
588 Bruder,Peter 4472 26:19.3 25:38.0 8:15 M 53 Howell MI
589 Stringer,William 7638 26:19.3 25:40.8 8:16 M 48 Livonia MI
590 Koerschner,Carl 6001 26:19.4 25:17.5 8:08 M 46 Ann Arbor MI
591 Henrickson,Anna 9405 26:20.2 25:28.4 8:12 F 21 Ann Arbor MI
592 Schoemann,Kim 8769 26:20.4 26:10.3 8:25 F 38 Grand Blanc U.S.
593 Robertson,David 7132 26:20.5 25:09.2 8:06 M 28 Ann Arbor MI
594 Flewelling,Tiara 5214 26:20.6 26:04.4 8:24 F 25 Northville MI
595 Robertson,Leah 7136 26:20.6 25:09.9 8:06 F 28 Ann Arbor MI
596 Ellis,Holli 9123 26:20.7 25:36.6 8:15 F 0
597 Hatt,Nate 5560 26:21.8 24:04.9 7:45 M 25 Ann Arbor United States
598 Maddox,Carrie 6289 26:22.0 25:32.7 8:13 F 28 Canton MI
599 Alderson,Grace 4041 26:23.2 25:49.8 8:19 F 23 Ann Arbor MI
600 Nath,Ritesh 6669 26:23.5 23:02.4 7:25 M 27 Ann Arbor MI
601 Guilbault,Dianne 5463 26:24.1 26:00.1 8:22 F 46 Ann Arbor MI
602 Provalenko,Michael 6979 26:24.2 26:10.1 8:25 M 24 Livonia MI
603 Zauel,Mark 8225 26:24.2 26:00.6 8:22 M 42 Ann Arbor MI
604 Oldani,Kaelan 6768 26:25.1 26:08.1 8:25 F 12 Ann Arbor MI
605 Blankenship,Daniel 9268 26:25.1 25:43.5 8:17 M 0
606 Cares,Olivia 4571 26:25.5 26:12.9 8:26 F 16 Ann Arbor U.S.
607 Bashshur,Noura 4189 26:25.5 25:34.8 8:14 F 45 Ann Arbor MI
608 Burdgick,Mark 4502 26:25.9 25:52.4 8:20 M 44 Highland MI
609 Mazzotta,David 6391 26:26.3 25:35.1 8:14 M 50 Dexter MI
610 Ternes,Deborah 7728 26:26.3 26:03.0 8:23 F 54 Ann Arbor MI
611 Michels,James 6497 26:27.0 26:00.5 8:22 M 49 Plymouth MI
612 Reed,Kevin 8726 26:27.8 24:34.4 7:55 M 25 Ann Arbor MI
613 Brackett,Wayne 4400 26:27.9 26:12.0 8:26 M 56 Taylor MI
614 Benaglio,James 4249 26:28.1 26:01.2 8:22 M 56 Livonia MI
615 Brush,Barbara 4477 26:28.1 25:46.4 8:18 F 53 Ann Arbor United States
616 Santoro,Carol 7281 26:31.1 26:18.7 8:28 F 64 Gregory MI
617 Chang,Vicki 9109 26:31.1 25:24.4 8:11 F 20
618 Batra,Peter 4196 26:31.9 25:57.8 8:21 M 45 Ann Arbor MI
619 Cook,Howard 8919 26:32.2 24:41.5 7:57 M 48 Sterling Heights MI
620 Rutherford,Jason 7236 26:32.7 25:43.8 8:17 M 27 Troy United States
621 Kissel,Angela 5976 26:32.8 24:44.6 7:58 F 27 Allen Park United States
622 Showers,Christopher 7409 26:32.9 25:47.0 8:18 M 27 Ann Arbor MI
623 Weideman,Larry 9332 26:33.5 25:33.1 8:13 M 37
624 Yeatts,Don 8182 26:33.7 24:35.7 7:55 M 59 Ann Arbor MI
625 Benschoter,Kyle 4266 26:33.8 21:35.6 6:57 M 19 Battle Creek MI
626 Solochek,Andrea 8796 26:34.0 24:41.6 7:57 F 20 Ann Arbor MI
627 Jha,Rakesh 8496 26:34.4 24:14.3 7:48 M 39 Worthington United States
628 Jha,Poonam 5811 26:34.6 24:14.6 7:48 F 36 Chicago IL
629 Wittig,Amelia 8132 26:34.8 25:35.0 8:14 F 14 Ann Arbor MI
630 Baker,Alex 9243 26:34.9 25:58.8 8:22 M 10
631 Baker,James 9241 26:35.1 25:58.5 8:22 M 42
632 Mayo,Michael 6386 26:35.2 25:17.3 8:08 M 31 Ypsilanti MI
633 Boxeth,Ryan 9408 26:36.0 21:24.7 6:53 M 16 Ann Arbor MI
634 Wittkopp,Patricia 8135 26:36.0 26:17.1 8:28 F 35 Dexter MI
635 Jodoin,Rick 5814 26:36.4 26:02.3 8:23 M 46 Lansing United States Of Ame
636 Schmidt,Megan 7310 26:36.4 26:04.1 8:23 F 29 Adrian United States
637 Bostian-kentes,Ariana 8292 26:36.4 25:59.6 8:22 F 27 Ann Arbor MI
638 Hanczaruk,Chris 8453 26:36.8 24:53.3 8:01 M 25 New Baltimore MI
639 Culbertson,Mary 4787 26:36.9 25:25.8 8:11 F 35 Saline MI
640 Dahms,Jeff 4814 26:37.5 25:17.0 8:08 M 39 Saline United States
641 Arsen,David 4096 26:37.7 25:48.5 8:18 M 58 Ann Arbor MI
642 Fields,Josh 5179 26:37.9 25:02.3 8:04 M 30 Ann Arbor United States
643 Rovin,Chris 7196 26:38.0 24:28.2 7:53 M 22 Marquette United States
644 Segawa,Max 7361 26:38.2 25:11.3 8:06 M 11 Ann Arbor U.S.A.
645 Douthat,Hannah 8380 26:38.8 25:28.8 8:12 F 24 Saline U.S.
646 Southworth,Samantba 9324 26:38.9 25:48.9 8:19 F 21
647 Dixon,Phillip 4947 26:40.1 24:31.3 7:54 M 29 Ann Arbor MI
648 Olson,Mike 6779 26:40.6 25:32.3 8:13 M 39 Ypsilanti MI
649 Simon,Charles 7434 26:40.6 26:15.6 8:27 M 52 Plymouth MI
650 Lulek,Bobby 8574 26:40.7 25:42.0 8:16 M 35 Milford MI
651 Loftus,Connor 6226 26:43.9 25:49.2 8:19 M 14 Ann Arbor MI
652 Nickodemus,Daniel 6706 26:45.4 25:46.9 8:18 M 49 Ann Arbor MI
653 Lymburner,Kurtil 9283 26:45.4 25:57.5 8:21 M 18
654 Rosati,Rachel 8750 26:45.7 26:28.5 8:31 F 10 Ann Arbor United States
655 Ullrich,Paul 8828 26:46.1 24:52.1 8:00 M 27 Ann Arbor MI
656 Malbone,John 6303 26:46.2 25:51.9 8:19 M 14 Saline MI
657 Aldrich,Keaton 4043 26:46.9 25:42.6 8:17 F 13 Stockbridge MI
658 Grove,Lauren 5454 26:47.0 26:25.3 8:30 F 23 Ann Arbor MI
659 Hoffman,Brandon 5675 26:47.4 25:36.7 8:15 M 16 Trenton MI
660 Christensen,Ken 4655 26:47.6 25:31.1 8:13 M 45 Ann Arbor MI
661 Mckarns,Jack 6438 26:48.2 21:33.4 6:56 M 16 Ann Arbor MI
662 Mitchell,Ian 6554 26:49.0 25:55.4 8:21 M 34 Melvindale MI
663 Marentette,Jason 6321 26:49.1 26:24.1 8:30 M 29 Allen Park MI
664 Segawa,Megumi 7362 26:49.1 25:22.5 8:10 F 42 Ann Arbor U.S.A.
665 Wei,Larry 7988 26:49.3 25:55.4 8:21 M 34 Melvindale MI
666 Lymburner,Courtney 8579 26:49.7 26:01.7 8:23 F 17 Ann Arbor United States
667 Ball,Nick 4160 26:50.2 26:19.8 8:28 M 21 Ann Arbor MI
668 Reed,Arden 8725 26:50.4 25:29.7 8:12 F 21 Ann Arbor United States
669 Sheahan,Elizabeth 7389 26:50.8 25:34.5 8:14 F 21 Macomb United States
670 Goodenow,Lawrence 5390 26:51.3 25:51.8 8:19 M 63 Lapeer MI
671 Sanders,Ryan 7275 26:51.5 26:23.6 8:30 M 10 Dexter MI
672 Kobolel,Heinrich 9330 26:51.6 25:43.7 8:17 M 0
673 Sanders,Tim 7276 26:51.9 26:24.3 8:30 M 38 Dexter MI
674 Snyder,Mary Beth 7521 26:52.1 26:22.1 8:29 F 31 Birmingham MI
675 Davidson,Maryl 4837 26:52.2 26:30.0 8:32 F 45 Saint Clair Shores MI
676 Mashiba,Michael 6347 26:52.6 23:31.4 7:34 M 25 Ann Arbor United States
677 Webb,Paula 8854 26:52.7 26:43.0 8:36 F 41 Parma MI
678 Mckenzie,Christopher 6442 26:53.0 25:43.3 8:17 M 24 Toledo OH
679 Astani,Arman 4102 26:53.5 25:55.7 8:21 M 13 Ann Arbor United States
680 Maier,Jeff 6295 26:53.8 26:23.0 8:30 M 39 Macomb MI
681 Altman,Bailey 4056 26:54.0 26:24.8 8:30 F 23 Royal Oak Oakland
682 Mcintyre,Masha 6435 26:54.1 26:50.4 8:38 F 12 Newport MI
683 Newkold,Lena 9407 26:54.5 26:20.5 8:29 F 16 Saint Joseph MI
684 Karikas,John 9438 26:54.7 25:24.9 8:11 M 13 Chardon OH
685 Gradwohl,Kelsey 5414 26:55.1 24:56.7 8:02 F 16 Ann Arbor United States
686 Garza,Andrew 5311 26:55.4 24:46.0 7:58 M 11 Saginaw MI
687 Remy,Courtney 7066 26:55.6 26:37.8 8:34 F 27 Ann Arbor MI
688 Ammerman,Casie 9410 26:55.6 24:56.6 8:02 F 15 Ann Arbor MI
689 Pitsch,Rosemarie 6933 26:56.4 26:18.9 8:28 F 32 Ann Arbor MI
690 Dadgar,Nahid 4812 26:57.1 26:17.5 8:28 F 58 Ann Arbor MI
691 O'connor,Geoff 6752 26:57.4 26:55.3 8:40 M 51 Ann Arbor MI
692 O'donnell,Keely 6757 26:58.1 24:58.9 8:02 F 16 Ann Arbor MI
693 Walz,Eric 7955 26:59.6 24:51.9 8:00 M 46 Ann Arbor MI
694 Hayes,Melanie 5574 26:59.6 24:21.2 7:50 F 25 Ann Arbor MI
695 Braun,Kristin 8302 27:00.2 26:31.8 8:32 F 21 Canton MI
696 Mcintyre,Bryan 6434 27:01.2 26:31.6 8:32 M 44 Newport MI
697 Hessler,Anthony 5619 27:01.4 26:21.5 8:29 M 28 Madison Heights United States
698 Pool,Matthew 6950 27:01.5 26:15.0 8:27 M 0 Ann Arbor MI
699 Feijoo,Brandon 5152 27:02.6 26:58.5 8:41 M 14 Stevensville MI
700 Keno,Hilary 5930 27:02.6 25:09.9 8:06 F 20 Ann Arbor United States
701 Sager,David 7259 27:03.0 26:28.0 8:31 M 47 Ann Arbor MI
702 Hall,Kelly 5503 27:03.2 25:56.3 8:21 F 15 Ann Arbor MI
703 Hall,Mitch 5508 27:03.4 25:56.5 8:21 M 47 Ann Arbor MI
704 O'donnell,Devin 6756 27:03.6 25:04.8 8:04 F 15 Ann Arbor MI
705 Young,Julia 9134 27:03.6 25:35.0 8:14 F 14
706 Le,Maple 6138 27:04.4 26:37.6 8:34 F 24 Ann Arbor United States
707 Brender,Garet 4421 27:04.8 26:11.7 8:26 M 42 Macomb MI
708 Hertz,Elizabeth 5617 27:04.9 26:55.1 8:40 F 16 Toledo OH
709 Lester,Ryan 6192 27:05.4 26:31.8 8:32 M 13 Chesterfield MI
710 O'brien,Keith 6747 27:05.6 26:54.6 8:40 M 22 Ypsilanti MI
711 Angerman,Nick 9421 27:07.6 25:52.5 8:20 M 13
712 Abbott,Doug 8890 27:07.8 26:35.8 8:34 M 36 Tecumseh MI
713 Kennard,Harrison 5922 27:07.9 26:51.7 8:39 M 26 Ann Arbor MI
714 Abbott,Greg 8891 27:08.0 26:35.7 8:34 M 31 Tecumseh MI
715 Lindblad,Chelsea 8969 27:08.4 25:22.0 8:10 F 21 Ann Arbor United States
716 Cassel,Levi 8317 27:08.7 22:05.2 7:07 M 19 Miami United States
717 Holmes,Jan 5687 27:08.9 26:42.7 8:36 F 56 Dearborn U.S.A.
718 Stoev,Emily 7615 27:09.5 26:32.7 8:33 F 31 Ann Arbor MI
719 Zestos,Vasili 8236 27:09.5 26:04.9 8:24 M 10 Northville MI
720 Walter,Jeff 7947 27:09.7 26:06.3 8:24 M 47 Ann Arbor MI
721 Mckinney,Kevin 6446 27:10.1 23:20.3 7:31 M 17 Petoskey MI
722 Moody,Krista 6568 27:11.7 26:01.5 8:23 F 29 Saginaw MI
723 Richard,Denise 7084 27:11.8 25:59.9 8:22 F 27 Grass Lake U.S.
724 Buck,Greta 4482 27:12.0 26:00.4 8:22 F 44 Canton MI
725 Riebel,Joshua 9135 27:12.4 26:49.1 8:38 M 27
726 Shemanski,Jack 7394 27:12.7 26:19.1 8:28 M 12 Saline MI
727 Tishberg,Lindsay 8818 27:13.1 25:20.1 8:09 F 20 Westfield NJ
728 Ewald,Abbey 5122 27:13.3 26:58.4 8:41 F 30 South Lyon MI
729 Gilliam,Eric 8429 27:13.6 26:34.8 8:33 M 31 Belleville MI
730 Watler,Katherine 7968 27:14.9 26:58.3 8:41 F 35 Ann Arbor MI
731 Young,Christopher 9082 27:15.3 26:03.7 8:23 M 27
732 Yeip,Michael 8185 27:15.4 25:58.0 8:21 M 33 Macomb MI
733 Anaya,Ben 4067 27:16.4 25:30.1 8:12 M 26 Tecumseh MI
734 Johnston,Carrie 5836 27:17.2 26:11.5 8:26 F 33 Flat Rock MI
735 Oga,Akira 8664 27:17.2 25:54.1 8:20 M 38 West Bloomfield MI
736 Wortman,Krista 8161 27:17.6 26:22.6 8:29 F 39 Grosse Pointe Farms MI
737 Towne,Charles 7779 27:17.6 26:02.4 8:23 M 23 Ann Arbor MI
738 Kilbourn,Courtney 5943 27:17.9 26:03.3 8:23 F 22 Ann Arbor MI
739 Wortman,Mark 8162 27:18.2 26:23.7 8:30 M 40 Grosse Pointe Farms MI
740 Shemanski,Ray 7395 27:18.6 26:25.3 8:30 M 48 Saline MI
741 Benedict,Valerie 4258 27:18.6 26:44.3 8:36 F 14 Ann Arbor MI
742 Brown,Kristen M 4460 27:18.9 27:13.7 8:46 F 42 East Woodstock CT
743 Coffey,Michael 4683 27:19.1 26:28.3 8:31 M 50 Ann Arbor MI
744 Geary,Felicity 5320 27:19.2 26:02.3 8:23 F 39 Plymouth MI
745 Anderson,Scott 4074 27:19.6 27:09.5 8:44 M 38 Ypsilanti MI
746 Hayman,Jim 5577 27:19.8 26:17.1 8:28 M 46 Ann Arbor MI
747 Bovio,Nina 4386 27:20.9 27:08.8 8:44 F 64 Ann Arbor MI
748 Schwegler,Daniel 7340 27:21.4 26:17.1 8:28 M 30 South Lyon MI
749 Catalan,Albert 4606 27:21.9 26:48.5 8:38 M 56 Plymouth MI
750 Stewart,David 7591 27:22.2 26:15.2 8:27 M 29 Ann Arbor MI
751 Gaytan,Alex 5319 27:22.7 26:14.8 8:27 M 17 Berrien Springs MI
752 Henning,George 5606 27:23.4 26:20.6 8:29 M 47 Ann Arbor MI
753 Lester,Donna 6191 27:24.0 26:50.0 8:38 F 42 Chesterfield MI
754 Yang,Danny 8875 27:24.0 24:24.0 7:51 M 23 Ann Arbor MI
755 Dieter,Kimberly 4934 27:26.3 27:08.2 8:44 F 21 Saline MI
756 Hadden,Brent 5488 27:26.4 27:03.4 8:43 M 30 Allendale MI
757 Pundmann,Matt 6988 27:26.8 24:14.2 7:48 M 19 Hinsdale United States
758 Bowen,David 4387 27:26.9 26:09.9 8:25 M 34 New Baltimore MI
759 Amshay,Adam 4063 27:27.2 26:46.4 8:37 M 29 Waterford MI
760 Roberts,Katharine 7123 27:27.7 26:48.8 8:38 F 32 Chelsea MI
761 Petersen,Jane 8996 27:27.7 27:08.9 8:44 F 12 Ann Arbor MI
762 Zahradnik,Mark 8881 27:27.9 27:00.2 8:41 M 35 Commerce Twp MI
763 Maclean,Sarah 6285 27:28.2 25:18.0 8:09 F 36 Ann Arbor MI
764 Richards-schuster,Katie 7092 27:28.7 26:53.6 8:39 F 37 Ann Arbor MI
765 Gorga,Caryn 9244 27:28.7 26:53.0 8:39 F 33
766 Gershenson,Lily 5339 27:29.1 25:53.2 8:20 F 28 Ann Arbor MI
767 Buzinkai,Noah 4546 27:29.1 26:46.0 8:37 M 11
768 Collins,Alexis 9427 27:30.5 25:31.9 8:13 F 16 Ann Arbor MI
769 O'donnell,Brienne 6755 27:30.7 25:30.9 8:13 F 15 Ann Arbor MI
770 Hewidy,Hady 5623 27:30.8 22:14.9 7:10 M 16 Ann Arbor MI
771 Holdgreve-resendez,Richard 5682 27:31.5 26:47.7 8:37 M 34 Ann Arbor MI
772 Bentley,Steve 4270 27:31.5 26:47.6 8:37 M 33 Ann Arbor MI
773 Yeatts,Katie 8183 27:31.9 25:33.0 8:13 F 14 Ann Arbor MI
774 Fields,Tina 5181 27:32.2 26:43.5 8:36 F 38 Ann Arbor MI
775 Patek,Laura 6843 27:32.5 26:35.9 8:34 F 21 Ann Arbor United States
776 Bouzit,Lilia 4384 27:32.5 25:33.4 8:14 F 16 Ann Arbor MI
777 Wascha,Eric 7962 27:32.9 25:07.4 8:05 M 30 Royal Oak MI
778 Eickhoff,Zach 8388 27:32.9 26:53.1 8:39 M 27 Frankenmuth United States
779 Miller,Angela 6514 27:33.6 26:34.8 8:33 F 30 Pinckney MI
780 Nelligan,Mike 6681 27:33.6 27:11.0 8:45 M 50 Monroe Monroe
781 Reeber,Sandy 7047 27:33.7 26:51.7 8:39 F 54 Ypsilanti MI
782 Naughton,James 8653 27:33.8 27:21.0 8:48 M 26 Ann Arbor MI
783 Staples,Trevor 7565 27:33.8 26:56.9 8:40 M 43 Ann Arbor MI
784 Rincon,Mauricio 7113 27:34.6 26:32.4 8:33 M 30 Ann Arbor MI
785 Pitsch,Michael 6932 27:35.1 26:57.5 8:41 M 32 Ann Arbor MI
786 Matsuo,Chiaki 8600 27:35.4 27:12.9 8:46 M 48 Ann Arbor Washtenaw
787 Ptasznik,Anthony 6986 27:35.5 26:32.0 8:32 M 39 Plymouth MI
788 Ryan,Blake 7243 27:36.0 26:32.6 8:33 M 11 Sheridan MI
789 Fleming,Kristina 5207 27:36.4 27:09.3 8:44 F 20 Ann Arbor United States
790 Hiyama,Clare 5658 27:37.1 25:38.2 8:15 F 16 Ann Arbor MI
791 Rasmussen,Lorri 7028 27:37.9 26:32.3 8:33 F 15 Ann Arbor MI
792 Sutter,Malorie 7677 27:38.1 27:08.3 8:44 F 21 Ann Arbor United States
793 Foucher,Julie 5230 27:38.9 26:57.7 8:41 F 21 Ann Arbor United States
794 Kozlowski,Kimberly 6039 27:38.9 26:57.8 8:41 F 18 Saline United States
795 Hockstad,Gina 5668 27:39.4 26:38.8 8:35 F 40 Milford MI
796 Jolliet,Alexandre 9137 27:41.2 27:29.0 8:51 M 17
797 Mendez,Rudy 6473 27:41.3 8:55 M 57 Dexter MI
798 Sier,Maurits 7427 27:42.0 26:45.4 8:37 M 12 Ann Arbor MI
799 Snedeker,Jeff 7513 27:42.1 26:35.1 8:33 M 38 Rockford MI
800 Hoover,Billy 5694 27:42.5 25:21.1 8:10 M 37 Howell MI
801 Crumm,Isabelle 4780 27:42.7 27:18.7 8:47 F 9 Ann Arbor MI
802 Beardsley,John 4210 27:43.7 26:55.1 8:40 M 39 Farmington Hills MI
803 Tanner,Jeffrey 7707 27:45.0 25:30.6 8:13 M 31 Jasper United States
804 Holland,Travis 5683 27:45.6 23:08.1 7:27 M 25 Ann Arbor MI
805 Thomas,Megan 8816 27:46.2 26:54.0 8:39 F 33 Ann Arbor Washtenaw
806 Martinec,Richard 6343 27:46.8 26:03.9 8:23 M 61 Livonia MI
807 Clark,Matthew 4674 27:48.1 26:35.7 8:34 M 33 Lowell United States
808 Salazar,Selena 7261 27:48.5 26:34.5 8:33 F 26 Ann Arbor MI
809 Savage,Heidi 7290 27:49.0 27:04.0 8:43 F 34 Ypsilanti MI
810 Seidl,Tony 7364 27:49.0 26:52.3 8:39 M 12 Dexter MI
811 Koerschner,Michelle 6003 27:49.7 26:48.2 8:38 F 45 Ann Arbor MI
812 Arsen,Celia 4095 27:50.1 27:01.3 8:42 F 12 Ann Arbor MI
813 Hargarten,Leah 5533 27:50.3 26:41.1 8:35 F 19 Ann Arbor United States
814 Bowers,Nicole 8295 27:50.9 26:33.2 8:33 F 17 Pinckney MI
815 Nienhuis,Nichole 6714 27:51.7 26:09.7 8:25 F 30 Allendale United States
816 Clevenger,Lance 4679 27:52.4 26:39.3 8:35 M 26 Ann Arbor MI
817 Clark,Cassondra 4671 27:52.7 26:41.0 8:35 F 31 Lowell United States
818 Opaskar,Amanda 6788 27:52.9 26:34.9 8:33 F 20 Ann Arbor MI
819 White,Robert A. 8047 27:53.2 26:47.5 8:37 M 47 Windsor Canada
820 Przybylski,Megan 6984 27:54.2 27:07.8 8:44 F 18 Grand Blanc MI
821 Hasegawa,Nika 5557 27:54.2 27:22.8 8:49 F 26 Ann Arbor MI
822 Howard,Nick 5711 27:55.0 25:34.4 8:14 M 16 Tecumseh MI
823 Buquicchio,Jeana 4497 27:55.1 27:23.3 8:49 F 26 Ann Arbor MI
824 Howard,Jeff 5710 27:55.6 25:35.4 8:14 M 38 Tecumseh MI
825 Bezak,Reta 4302 27:55.8 27:24.3 8:49 F 25 Ann Arbor MI
826 Johnson,Arwen 5817 27:56.3 26:56.8 8:40 F 24 Ann Arbor United States
827 Guinn,Kellen 5467 27:56.4 24:50.7 8:00 M 12 Lowell MI
828 Doyle,Dave 4982 27:56.9 24:50.5 8:00 M 41 Ypsilanti MI
829 Zawadzki,Lisa 8227 27:56.9 27:16.0 8:47 F 45 Saline MI
830 Nilson,Lorna 6718 27:57.0 26:31.1 8:32 F 38 Highland MI
831 Reid,Janet 9005 27:57.2 26:00.4 8:22 F 46 Ann Arbor MI
832 Matuszak,Argenta 6363 27:57.9 27:01.6 8:42 F 33 Brighton United States
833 Elizabeth,Schmidt 5067 27:57.9 26:28.9 8:31 F 11 Ann Arbor MI
834 Martin,Donna 6337 27:58.0 26:27.3 8:31 F 45 Ann Arbor MI
835 Dalton,David 8355 27:58.1 26:59.0 8:41 M 46 Ann Arbor MI
836 Merz,David 8622 27:58.5 27:00.2 8:41 M 11 Ann Arbor MI
837 Krawczyk,Frank 6050 27:59.1 27:03.4 8:43 M 53 Brooklyn MI
838 Suliman,Christina 7664 27:59.2 27:17.2 8:47 F 40 Ypsilanti MI
839 Falconer,Susan 5135 27:59.6 27:06.6 8:44 F 28 Ann Arbor MI
840 Falconer,Boyd 5134 27:59.7 27:06.9 8:44 M 38 Ann Arbor MI
841 Bell,Mckinley 4246 28:00.1 26:54.0 8:39 F 17 Ann Arbor MI
842 Oliver,Owen 8669 28:00.6 27:24.4 8:49 M 11 Spring Arbor MI
843 Jones,Tyler 8511 28:01.7 27:25.8 8:50 M 11 Parma MI
844 Lovell,Ellie 9129 28:01.7 25:41.4 8:16 F 17
845 Johnson,David 9216 28:02.8 26:57.9 8:41 M 34
846 Karabakal,Suzan 5879 28:03.6 27:21.5 8:48 F 11 Ann Arbor MI
847 Zynda,Jonathan 8255 28:03.6 27:34.8 8:53 M 40 Ann Arbor MI
848 Riggle,Beth 7110 28:04.0 27:02.4 8:42 F 23 Ann Arbor United States
849 Cueter,Kris 4784 28:04.4 27:22.0 8:49 F 40 Troy MI
850 Bowen,Diana 9288 28:05.2 26:55.6 8:40 F 28
851 Valasek,Michael 7832 28:05.9 27:33.1 8:52 M 30 Owosso MI
852 Cueter,Joe 4783 28:06.8 27:24.4 8:49 M 43 Troy MI
853 Hirschman,Barbara 9071 28:07.1 26:57.1 8:40 F 26
854 Vezina,Jennifer 7897 28:07.4 27:26.6 8:50 F 37 Dundee MI
855 Flanders,Colin 8401 28:07.6 27:21.5 8:48 M 9 Ann Arbor MI
856 Flanders,Scott 8404 28:07.9 27:22.1 8:49 M 44 Ann Arbor MI
857 Chraiyachati,Krisda 9072 28:08.1 26:58.2 8:41 M 27
858 Zuiderveen,Kirt 9048 28:08.6 27:23.0 8:49 M 36 Jenison MI
859 Brown,Aaron 4448 28:08.6 26:55.3 8:40 M 32 Fairgrove MI
860 Zuiderveen,Cristin 9047 28:09.1 27:23.4 8:49 F 34 Jenison MI
861 Minnehan,Tj 6552 28:09.1 27:26.9 8:50 M 28 Dexter MI
862 Victory,Brendan 9087 28:09.3 27:48.8 8:57 M 43
863 Bitzer,Tyson 4314 28:09.6 27:08.7 8:44 M 34 Caro MI
864 Roddy,Lori 8737 28:09.8 27:31.7 8:52 F 34 Ann Arbor United States
865 Sauter,Cecilia 8767 28:11.3 25:46.0 8:18 F 47 Ann Arbor MI
866 Crowley,Dennis 4778 28:11.8 26:41.8 8:36 M 62 Ypsilanti MI
867 Fielder,Justin 5177 28:12.7 27:50.3 8:58 M 35 Byron Center MI
868 Culbertson,Geoff 4786 28:12.9 27:01.3 8:42 M 40 Saline MI
869 Marsack,Emma 8593 28:12.9 25:37.7 8:15 F 16 New Boston United States
870 Vogt,Michelle 7909 28:13.6 27:14.7 8:46 F 34 Ypsilanti MI
871 Pirrwitz,Kevin 6930 28:13.8 25:19.0 8:09 M 39 Delta OH
872 Cataldo,Chris 8318 28:13.9 26:12.7 8:26 M 50 W. Bloomfield MI
873 Dewitt,John 4921 28:14.4 27:35.0 8:53 M 30 Ann Arbor MI
874 Tsang,Tiffany 7798 28:14.6 27:35.1 8:53 F 29 Ann Arbor MI
875 Knight,Elizabeth 5990 28:14.9 27:15.6 8:46 F 16 Saline MI
876 Neuhalfen,Michael 6690 28:15.3 27:48.8 8:57 M 24 Ann Arbor MI
877 Riegger,Kurt 7104 28:16.0 27:15.2 8:46 M 48 Ann Arbor MI
878 Burger,Troy 4508 28:16.1 23:22.8 7:32 M 41 Coldwater United States
879 Schepke,Ken 7307 28:16.3 27:24.7 8:49 M 40 Rochester Hills MI
880 Fielder,Amanda 5176 28:16.4 26:35.2 8:33 F 30 Byron Center MI
881 Reid,Meredith 9006 28:16.7 26:19.7 8:28 F 17 Ann Arbor MI
882 Jong,Casey 5845 28:16.7 27:53.5 8:59 F 12 Ann Arbor Washtenaw
883 Bandfield,Jeffery 4163 28:17.0 26:32.2 8:32 M 29 Jackson MI
884 Anderson,Meg 8265 28:17.1 27:53.3 8:59 F 25 Ann Arbor United States
885 Sunahara,Zoe 7672 28:17.2 26:44.8 8:37 F 10 Ann Arbor United States
886 Pinkerton,Joy 6927 28:17.8 27:47.8 8:57 F 36 Ann Arbor MI
887 Schmich,Blane 9333 28:18.0 27:02.4 8:42 M 55
888 Crumm,Michelle 4781 28:18.3 27:54.4 8:59 F 39 Ann Arbor MI
889 Chung,Joey 8334 28:18.9 26:43.4 8:36 M 11 Canton MI
890 Crowley,Matthew 4779 28:19.0 27:48.3 8:57 M 37 Williamsville United States
891 Torres,Samantha 8819 28:19.2 28:11.6 9:04 F 12 Ann Arbor MI
892 Torno,Janet 9127 28:19.8 28:03.4 9:02 F 62
893 Dalton,Joel 9346 28:19.9 25:58.7 8:22 M 42
894 Kasza,Alec 8518 28:20.0 24:34.5 7:55 M 11 Sylvania United States
895 Delonis,Martin 4887 28:20.9 27:40.7 8:55 M 30 Ann Arbor MI
896 Menko,Garrett 6479 28:21.4 26:45.0 8:37 M 8 Fenton MI
897 Mygrants,Marjorie 6658 28:21.5 25:38.5 8:15 F 20 Ann Arbor MI
898 Hewett,Jan 5622 28:22.2 26:32.9 8:33 F 45 Dexter MI
899 Paxton,Rachel 6861 28:22.3 27:37.9 8:54 F 15 Saline United States
900 Alexander,Chris 8259 28:22.4 25:05.6 8:05 M 34 Maybee MI
901 Feijoo,Carla 5153 28:22.6 27:42.8 8:55 F 20 Berrien Springs MI
902 Dempsey,Amanda 4893 28:22.8 27:38.7 8:54 F 41 Ann Arbor MI
903 Harris,Kimberly 5544 28:23.0 27:40.3 8:54 F 40 Canton MI
904 Dudas,Austin 5006 28:23.1 27:04.5 8:43 M 13 White Lake MI
905 Johnson,Michelle 9215 28:23.2 27:18.3 8:47 F 34
906 Cislo,Brenden 8336 28:23.5 27:04.9 8:43 M 13 White Lake United States Of Ame
907 Livesay,Chris 6223 28:23.6 27:39.5 8:54 M 18 Saline MI
908 Gupta,Sanjaya 5476 28:23.7 27:32.6 8:52 M 37 Dexter MI
909 Gitlin,Emily 9234 28:24.8 28:00.1 9:01 F 9
910 Hulsing,Wendy 5736 28:25.1 9:09 F 36 Dexter MI
911 Fellows,Marissa 5159 28:25.2 27:02.8 8:42 F 21 Jenison MI
912 Fellows,Mark 5160 28:25.2 27:02.6 8:42 M 52 Jenison MI
913 Proehl,Alyssa 8711 28:26.0 27:41.8 8:55 F 16 Whitmore Lake United States Of Ame
914 Wilensky,Jeff 8075 28:26.2 26:32.6 8:33 M 40 Ann Arbor MI
915 Daniels,Sheila 4823 28:26.2 27:27.4 8:50 F 37 Sterling Heights MI
916 Wilbur,Georic 9298 28:26.7 26:52.7 8:39 M 50
917 Hanczaruk,Stephanie 8454 28:27.6 26:44.4 8:36 M 23 New Baltimore MI
918 Young,Julie 8199 28:27.8 26:08.4 8:25 F 30 Tecumseh MI
919 Krasnick,Neal 6046 28:28.4 28:13.4 9:05 M 49 Franklin MI
920 Glovick,Lee 5372 28:28.4 26:40.0 8:35 M 33 Conklin United States
921 Trese,Carolyn 7785 28:29.0 27:48.1 8:57 F 50 Farmington Hills MI
922 Balachander,Arvind 4156 28:29.1 26:37.1 8:34 M 22 Ann Arbor MI
923 Gostomski,Brent 5409 28:29.1 26:13.1 8:26 M 24 Belleville MI
924 Miller,Troy 6537 28:29.4 28:00.1 9:01 M 37 Ann Arbor MI
925 Dumbrigue,Rose 5012 28:29.4 27:55.9 8:59 F 16 Dearborn MI
926 Gresh,Rena 9136 28:29.8 27:31.1 8:51 F 30
927 Rosati,Anne 8747 28:30.3 28:12.3 9:05 F 39 Ann Arbor United States
928 Boman,Kristen 4357 28:30.4 27:10.5 8:45 F 21 Ada MI
929 Orvis,Dennis 6795 28:30.6 26:58.8 8:41 M 39 Ann Arbor MI
930 Zarzycki,Colin 9044 28:30.7 27:20.1 8:48 M 24 Ann Arbor MI
931 Zestos,Maria 8235 28:31.7 27:27.7 8:50 F 49 Northville MI
932 Verhaeghe,Sophie 7887 28:31.9 26:43.7 8:36 F 20 Ann Arbor MI
933 Guisinger,Helen 5473 28:32.2 27:21.1 8:48 F 69 Coldwater MI
934 Guindon,Arlene 5465 28:32.2 27:42.2 8:55 F 47 Ann Arbor MI
935 Turner,Deb 7809 28:33.3 26:39.9 8:35 F 43 Kalamazoo United States
936 Russell,Travis 7230 28:33.8 25:23.8 8:10 M 19 Monroe MI
937 Donovan,Kate 4963 28:34.8 26:01.9 8:23 F 24 Ann Arbor MI
938 Fotouhi,Arman 8936 28:35.5 27:13.1 8:46 M 13 Dexter United States
939 Jekos,Lee 5804 28:36.7 27:49.9 8:57 M 35 New York United States
940 Webb,Taylor 7976 28:36.7 26:04.1 8:23 F 25 Flint MI
941 Mell,Dennis 6468 28:37.3 26:49.6 8:38 M 60 Monroe MI
942 Lareau,Kathy 6120 28:37.4 27:07.0 8:44 F 50 Dimondale MI
943 Woodward,Sue 9042 28:37.5 27:07.2 8:44 F 50 Mason MI
944 Young,Matt 8202 28:38.1 23:44.6 7:39 M 26 North Adams MI
945 Pett,Kelly 8693 28:38.6 26:54.3 8:40 F 20 Romulus MI
946 Neese,Erica 6678 28:38.7 26:54.4 8:40 F 29 Newport MI
947 Smalheer,Sarah 7471 28:39.2 27:24.6 8:49 F 36 Chelsea MI
948 Hollenbeck,Jacob 5685 28:39.4 25:32.3 8:13 M 24 Ypsilanti MI
949 Mcgregor,Douglas 9170 28:39.6 27:24.4 8:49 M 29
950 Moore,Meghan 6577 28:39.9 27:21.8 8:48 F 24 Ann Arbor MI
951 Valeri,Lindsay 7841 28:40.1 26:50.0 8:38 F 20 Ann Arbor United States
952 Wright Ii,Donald 9043 28:40.6 27:19.3 8:48 M 34 South Lyon MI
953 Schoffner,David 7321 28:42.2 27:20.8 8:48 M 17 Ann Arbor MI
954 Pirrwitz,Dayna 6929 28:42.5 25:48.0 8:18 F 37 Delta OH
955 Han,Ting 5525 28:42.6 25:54.7 8:20 M 27 Ann Arbor MI
956 Musch,Alan 6644 28:43.0 25:53.8 8:20 M 26 Grand Rapids MI
957 Erven,Kirk 5103 28:43.1 25:34.6 8:14 M 47 South Lyon MI
958 Yarrington,Dorothy 8177 28:43.5 25:16.8 8:08 F 20 Ann Arbor United States
959 Berlucchi,Ellen 4280 28:43.7 28:07.2 9:03 F 23 Grand Rapids United States
960 Stead,Conleth 7573 28:43.9 27:43.6 8:55 M 8 Ann Arbor MI
961 Lotz,Amanda 6238 28:44.0 26:17.6 8:28 F 36 Ann Arbor MI
962 Sammut,Greg 7271 28:44.3 26:33.9 8:33 M 35 Dearborn MI
963 Williams,Darrell 8090 28:45.0 27:14.3 8:46 M 59 Stockbridge MI
964 Westhead,Victoria 8027 28:45.4 27:58.6 9:00 F 16 Ann Arbor United States
965 Westhead,Pete 1687 28:45.5 27:59.0 9:00 M 46 Ann Arbor MI
966 Bergkoetter,Lisa 4277 28:45.6 27:31.8 8:52 F 29 Milford MI
967 Rhoades,Jimmy 7081 28:47.1 26:03.4 8:23 M 43 Warren MI
968 Berlucchi,Maureen 4281 28:47.1 28:09.3 9:04 F 29 Ann Arbor United States
969 Luttrell,Kayleigh 8577 28:47.5 27:48.1 8:57 F 16 Saline Washtenaw
970 Neidlinger,Noah 6679 28:47.6 26:09.7 8:25 M 25 Ann Arbor United States
971 Keller,Richard 5907 28:47.8 26:04.2 8:23 M 46 Ann Arbor MI
972 Jourden,Danielle 5852 28:47.9 28:34.6 9:12 F 38 Ann Arbor MI
973 Pool,Jennifer 6949 28:48.3 27:50.9 8:58 F 46 Ann Arbor MI
974 Sandstrom,Matt 8759 28:48.5 26:15.9 8:27 M 33 Ann Arbor MI
975 Mueting,Mara 6611 28:48.7 27:45.6 8:56 F 8 Dexter MI
976 Nixon,Kenneth 6720 28:49.0 27:17.2 8:47 M 58 Chelsea MI
977 Stead,Jim 7574 28:49.0 27:47.4 8:57 M 42 Ann Arbor MI
978 Pool,Rick 6951 28:49.1 27:47.6 8:57 M 45 Ann Arbor MI
979 Nisse,Melissa 8992 28:49.2 26:35.4 8:34 F 25 Ann Arbor MI
980 Lemonnier,Guy 6181 28:49.3 27:32.0 8:52 M 34 Sylvania OH
981 Blank,Marisa 4324 28:49.3 28:18.7 9:07 F 32 Clarkston MI
982 Kingma,Kristin 5960 28:49.7 27:27.5 8:50 F 21 Ann Arbor United States
983 Kent,Grace 8525 28:49.7 26:59.5 8:41 F 11 Ann Arbor MI
984 Bunker,Madison 4495 28:49.9 27:00.0 8:41 F 11 Ann Arbor MI
985 Sieler,Chase 9144 28:50.2 28:32.4 9:11 M 13
986 Hopper,Derick 5699 28:50.3 28:32.6 9:11 M 37 Monroe MI
987 Baran,Donald 4168 28:50.9 28:32.3 9:11 M 52 Troy MI
988 Mccourtie,Todd 6411 28:51.3 26:41.1 8:35 M 47 Brooklyn MI
989 Randall,Ben 7022 28:51.3 27:34.0 8:52 M 12 Whitmore Lake MI
990 Carter,Becky 4591 28:52.0 28:24.8 9:09 F 24 Owosso United States
991 Eichner,Kobi 5048 28:52.3 28:47.2 9:16 M 11 Ann Arbor MI
992 Ranoso,Paolo 7025 28:52.4 27:16.4 8:47 M 25 Ann Arbor MI
993 Buck,Ryan 8307 28:52.6 25:43.8 8:17 M 30 Ypsilanti MI
994 Bueno,Barbara 4489 28:53.3 9:18 F 34 Ann Arbor MI
995 Bath,Bill 4194 28:54.2 25:05.0 8:04 M 38 Petoskey MI
996 Kasza,Matthew 8519 28:54.5 25:09.3 8:06 M 39 Sylvania United States
997 Bruce,Jordan 8306 28:54.7 27:54.6 8:59 M 10 Ann Arbor United States
998 Tripoli,Michael 7787 28:54.9 27:57.1 9:00 M 35 Northville MI
999 Chen,David 9077 28:55.6 28:16.8 9:06 M 20
1000 Mueting,Mary 6613 28:56.1 27:53.7 8:59 F 45 Dexter MI
1001 Moceri,Oksana 6558 28:56.3 25:38.4 8:15 F 35 South Lyon MI
1002 Krassa,Jacqueline 6048 28:56.6 28:36.8 9:13 F 39 Chesterfield MI
1003 Mikonczyk,Michele 6508 28:56.9 26:55.6 8:40 F 38 Dearborn Heights MI
1004 Olson,Karly 6778 28:56.9 28:02.2 9:01 F 33 Westland MI
1005 Griswold,Jason 5447 28:56.9 28:36.7 9:13 M 37 Warren MI
1006 Thomey,Marques 7746 28:57.9 28:17.4 9:06 M 32 Plymouth MI
1007 Lin,John 8560 28:58.1 28:19.3 9:07 M 22 Ann Arbor MI
1008 Baker,Michael 4152 28:58.2 28:53.6 9:18 M 35 Dexter MI
1009 Jacobson,Raelyn 5781 28:58.2 27:46.3 8:56 F 26 Ann Arbor MI
1010 Verklan,Madeline 7889 28:58.8 27:34.5 8:53 F 16 Plymouth MI
1011 Reizian,Margeaux 7065 28:59.1 27:35.2 8:53 F 22 Ann Arbor MI
1012 Arnett,Chelsey 4094 28:59.1 28:14.5 9:05 F 19 Toledo OH
1013 Michno,Thomas 6499 28:59.4 28:27.9 9:10 M 12 Chesterfield Twp MI
1014 Decaluwe,Ashley 4875 28:59.5 26:11.0 8:26 F 18 New Baltimore MI
1015 Volk,David 7911 29:01.4 28:28.9 9:10 M 31 Blissfield MI
1016 Matt,Weber 9464 29:01.6 28:11.1 9:04 M 30
1017 Ray,Cheryl 9439 29:02.1 27:53.4 8:59 F 22 Grand Blanc MI
1018 Ray,Karen 9440 29:02.1 27:53.4 8:59 F 26 Grand Blanc MI
1019 Weller,Chilah 8007 29:02.3 25:55.7 8:21 F 25 Saline MI
1020 Smith,Greg 7485 29:02.8 27:47.2 8:57 M 44 Linden MI
1021 Boorman JR.,Harold 4362 29:03.2 28:13.5 9:05 M 39 Cement City MI
1022 Yoder,Katherine 8190 29:03.2 28:10.4 9:04 F 31 Marshall MI
1023 Rockwell,Hannah 7145 29:03.3 28:10.4 9:04 F 17 Marshall MI
1024 Bungart,Scott 8308 29:03.5 28:13.3 9:05 M 39 Mason MI
1025 Sanger,Margaret 7279 29:03.9 27:51.2 8:58 F 50 Ann Arbor MI
1026 Ryan,Patricia 7247 29:04.2 27:52.0 8:58 F 54 Ann Arbor MI
1027 Ulrey,Sue 7823 29:04.3 28:13.4 9:05 F 57 Ann Arbor MI
1028 Miller,Michael 6528 29:04.4 27:57.1 9:00 M 34 Kalamazoo MI
1029 Robertson,Duane 8733 29:04.6 27:54.9 8:59 M 53 Saginaw MI
1030 Carrithers,Lynn 4585 29:05.4 27:55.7 8:59 F 54 Metamora MI
1031 Shah,Roshan 7375 29:05.7 26:06.3 8:24 M 31 Walled Lake MI
1032 Harris,Mark 9052 29:05.9 28:13.8 9:05 M 54
1033 Roberts,Robert 7130 29:06.0 27:35.1 8:53 M 38 Howell United States
1034 Denys,Arthur 4897 29:06.3 27:07.2 8:44 M 14 Ann Arbor MI
1035 Mastrucci,Ted 6352 29:06.4 27:35.7 8:53 M 43 Howell MI
1036 Reichlmayr,Jaime 7056 29:06.5 26:42.9 8:36 F 21 Ann Arbor MI
1037 Farnum,Katie 8398 29:07.5 28:06.3 9:03 F 25 Brighton MI
1038 Labadie,Samantha 6093 29:07.7 28:32.7 9:11 F 11 Dexter MI
1039 Bell,Julia 4245 29:08.3 28:33.4 9:11 F 11 Dexter United States
1040 Morse,Taylor 6596 29:09.0 26:59.5 8:41 F 16 Brooklyn MI
1041 Split,Bethany 9020 29:09.3 27:54.1 8:59 F 23 Ann Arbor MI
1042 Mueller,Corey 8646 29:09.6 26:42.6 8:36 M 32 Davison MI
1043 Slotten,Peter 9188 29:10.3 25:36.7 8:15 M 0
1044 Textor,Kasey 7731 29:10.7 28:19.1 9:07 F 24 Ann Arbor MI
1045 Telfer,Bill 7721 29:10.9 21:53.3 7:03 M 20 Ann Arbor MI
1046 Van Kampen,Casey Hoye 7848 29:11.7 28:06.1 9:03 F 33 Saline MI
1047 Stults,Cathy 7650 29:11.9 28:16.0 9:06 F 46 Richland United States
1048 Lymburner,Sandra 8581 29:11.9 28:23.1 9:08 F 49 Ann Arbor United States
1049 Calvachi,Robert 8311 29:13.1 26:52.9 8:39 M 47 Ann Arbor MI
1050 Denys,Eric 4898 29:13.2 27:14.2 8:46 M 44 Ann Arbor MI
1051 Pangborn,Misty 6823 29:13.5 28:40.4 9:14 F 35 Parma MI
1052 Anderson,Kirsten 4070 29:13.9 27:50.5 8:58 F 9 Novi MI
1053 Aldrich,Nich 8258 29:14.2 27:06.8 8:44 M 33 Garden City MI
1054 Price,Blair 8708 29:14.5 28:01.8 9:01 F 21 Ann Arbor United States Of Ame
1055 O'shea,Bailey 8671 29:14.7 28:02.2 9:01 F 22 Brooklyn MI
1056 Mckay,Michael 6439 29:15.1 27:15.3 8:46 M 53 Canton MI
1057 Wagner,Jeffrey 7925 29:15.6 28:57.4 9:19 M 39 Temperance MI
1058 Guise,Tom 5472 29:15.7 28:18.3 9:07 M 50 Dexter United States
1059 Bradshaw,Michael 4407 29:15.8 28:18.8 9:07 M 12 Dexter United States
1060 Gross,Elise 5452 29:16.7 27:48.2 8:57 F 21 Ann Arbor United States
1061 Kunnath,Jacob 8966 29:16.8 27:41.0 8:55 M 13 Canton MI
1062 Semifero,Joe 7372 29:17.6 28:34.7 9:12 M 43 Dexter MI
1063 Hart,Ashley 9236 29:18.0 28:03.5 9:02 F 20
1064 Guss,Danielle 9237 29:18.0 28:02.9 9:02 F 19
1065 Northern,Amelia 6734 29:18.9 29:12.7 9:24 F 10 Kalamazoo MI
1066 Chronister,Sarah 8331 29:19.4 27:27.5 8:50 F 19 Ann Arbor MI
1067 Talsma,Sammy 9057 29:20.0 28:37.4 9:13 M 11
1068 Iniguez,Sebastian 8485 29:20.9 26:55.2 8:40 M 12 Ann Arbor MI
1069 Warfield,Morgan 7957 29:21.1 24:25.5 7:52 F 17 Hillsdale MI
1070 Payne,Anja 6863 29:21.2 27:16.2 8:47 F 32 Monroe MI
1071 Russell,Renee 7228 29:21.6 26:11.9 8:26 F 25 Monroe MI
1072 Osterman,David 8672 29:21.7 29:11.1 9:24 M 40 Clarkston MI
1073 Shaw,Ryan 7386 29:21.7 28:01.2 9:01 M 12 Canton MI
1074 Kass,Sam 5888 29:22.3 28:32.9 9:11 F 9 Ann Arbor United States
1075 Barr,Elaine 4180 29:22.5 27:42.1 8:55 F 22 Jackson MI
1076 Banas,Deana 4162 29:22.6 28:49.0 9:16 F 21 Dorr MI
1077 Behm,Denise 4239 29:22.9 28:49.2 9:17 F 41 Dorr MI
1078 Shever,Leah 7401 29:23.6 28:30.5 9:11 F 31 Chelsea MI
1079 Vitale,Donovan 7905 29:24.9 29:08.1 9:23 M 9 Monroe MI
1080 Davis,Jon 9197 29:25.2 28:27.7 9:10 M 54
1081 Davis,Amelia 9196 29:25.7 28:28.1 9:10 F 19
1082 Phair,Eva 8998 29:25.9 28:42.4 9:14 F 8 Ann Arbor MI
1083 Phair,Ian 8999 29:26.3 28:42.7 9:14 M 42 Ann Arbor MI
1084 Jackson,Kathy 9065 29:26.4 27:27.9 8:50 F 50
1085 Johnson,James 5824 29:26.6 28:00.4 9:01 M 60 Muskegon MI
1086 Kuchapsky,Kara 6068 29:26.7 28:41.6 9:14 F 26 Ann Arbor MI
1087 Quigg,Janice 6995 29:27.4 28:58.0 9:19 F 29 Clawson MI
1088 Huber,Julie 5727 29:27.5 27:58.8 9:00 F 31 Toledo OH
1089 Woodyatt,Diana 8157 29:27.8 28:25.2 9:09 F 27 Ann Arbor MI
1090 Singh,Bianca 9338 29:27.9 28:18.2 9:07 F 19
1091 Gordon,Danielle 5399 29:27.9 25:53.3 8:20 F 23 Hartland MI
1092 Law,Jen 6129 29:28.0 28:37.1 9:13 F 30 West Lafayette IN
1093 Freisthler,Jeff 5257 29:28.1 28:29.0 9:10 M 37 Ann Arbor MI
1094 Fellows,Gordon 5157 29:28.4 27:20.2 8:48 M 56 Dexter MI
1095 Stidham,Benjamin 7595 29:29.0 28:42.1 9:14 M 9 Ann Arbor MI
1096 Ewing,Dale 5124 29:29.4 27:14.4 8:46 M 51 Dexter MI
1097 Wasik,Alexis 8850 29:29.6 28:16.9 9:06 F 26 Ypsilanti MI
1098 Singer,Lauren 7439 29:30.5 28:50.4 9:17 F 19 Plainview NY
1099 Smyte,Karen 7512 29:30.8 28:41.0 9:14 F 44 Ann Arbor United States
1100 Fulcher,Nancy 5276 29:31.3 28:44.0 9:15 F 41 Ann Arbor MI
1101 Daly,Leighanne 4820 29:31.6 28:51.6 9:17 F 20 Ann Arbor MI
1102 Fulcher,Courtney 5275 29:31.8 28:44.8 9:15 F 12 Ann Arbor MI
1103 Taylor,Lauren 7714 29:31.9 28:03.1 9:02 F 21 Ann Arbor United States
1104 Lutz,Anthony 6263 29:32.3 27:56.0 8:59 M 10 Toledo OH
1105 Majewski,Maurice 6301 29:32.5 28:10.8 9:04 M 16 Ann Arbor MI
1106 Staelgraeve,Jon 7555 29:32.6 27:33.9 8:52 M 38 Monroe MI
1107 Lutz,David 6264 29:32.8 27:56.2 8:59 M 41 Toledo OH
1108 Bush,Hannah 4531 29:33.3 27:58.5 9:00 F 30 Clawson MI
1109 Heinlein,Lori 5591 29:34.0 28:39.9 9:14 F 42 Ann Arbor United States
1110 Marlette,Abbey 8592 29:34.5 28:56.6 9:19 F 17 Ann Arbor United States Of Ame
1111 Morelli,Kenz 6585 29:34.7 26:50.6 8:38 F 16 Monroe MI
1112 Tyra,Trent 8826 29:34.9 26:51.0 8:39 M 15 Petersburg MI
1113 Vandermarkt,Mike 7859 29:35.3 26:14.8 8:27 M 32 Jenison MI
1114 Stites,Mackenzie 7607 29:36.1 28:58.3 9:19 F 15 Ann Arbor MI
1115 Theodorsdottir,Arnbjorg 9029 29:36.7 29:23.9 9:28 F 10 Ann Arbor MI
1116 Swanson,Jacob 7683 29:36.8 28:44.4 9:15 M 14 Saline MI
1117 Corcoran,J. Sean 4732 29:37.0 28:45.2 9:15 M 15 Saline MI
1118 Wilkins,Karen 8079 29:37.3 28:51.2 9:17 F 54 Ann Arbor MI
1119 Braman,Trenton 9212 29:37.9 29:24.8 9:28 M 13
1120 Huehn,Brendan 9167 29:37.9 25:18.3 8:09 M 12
1121 Van Stone,Cathy 7851 29:38.0 29:17.8 9:26 F 41 Monroe Usa`
1122 Mills,Timothy 6540 29:38.2 29:03.9 9:21 M 50 Ann Arbor United States
1123 Degroff,Kimberly 4879 29:38.6 28:22.5 9:08 F 27 Dexter MI
1124 Shaw,Parker 7385 29:39.0 28:32.4 9:11 M 9 Chelsea MI
1125 Beaubien,Jessica 4213 29:39.1 27:56.6 9:00 F 27 Carleton Monroe
1126 Brewer,Bryan 4425 29:39.6 28:29.0 9:10 M 40 Newport U.S
1127 Forman,Douglas 8408 29:40.3 27:18.8 8:47 M 48 Ann Arbor MI
1128 Donnelly,Ryan 4962 29:40.4 28:04.9 9:02 M 23 Ann Arbor MI
1129 Forman,Alexandra 8407 29:40.4 27:18.3 8:47 F 13 Ann Arbor MI
1130 Noble,Joyce 6723 29:40.4 28:37.6 9:13 F 50 Saline MI
1131 Olsen,Linda 6773 29:40.5 28:36.8 9:13 F 48 Ann Arbor MI
1132 White,Kate 8040 29:41.1 27:54.0 8:59 F 18 Ann Arbor MI
1133 Driskell,Beth 5000 29:41.1 28:52.0 9:17 F 35 Ypsilanti MI
1134 White,Christie 8037 29:41.2 27:53.6 8:59 F 47 Grand Blanc MI
1135 Sammut,Tony 8756 29:41.7 27:31.1 8:51 M 23 Romulus MI
1136 Maxfield,Steve 6379 29:42.1 27:59.8 9:01 M 57 Linden MI
1137 Shaw,Steve 7387 29:43.0 28:36.0 9:12 M 38 Chelsea MI
1138 Bellazaire,Amber 4248 29:43.4 28:20.2 9:07 F 21 Ann Arbor U.S.S
1139 Wirth,Kade 9220 29:43.5 28:48.0 9:16 M 9
1140 Atkinson,Kylie 8268 29:43.6 28:53.9 9:18 F 21 Carleton MI
1141 Martins-caulfield,Joshua 6344 29:43.9 29:01.0 9:20 M 9 Ann Arbor MI
1142 Dicks,Dennis 4930 29:43.9 28:48.5 9:16 M 42 Ypsilanti MI
1143 Gueli,Megan 5461 29:44.3 27:57.5 9:00 F 19 Ann Arbor United States
1144 Sovitch,Olivia 7535 29:44.4 26:40.6 8:35 F 11 Saline MI
1145 Weber,Michael 7981 29:44.4 28:29.7 9:10 M 60 Ann Arbor MI
1146 Sovitch,Abbey 7533 29:44.5 26:40.9 8:35 F 15 Saline MI
1147 Thornton,Cathy 7758 29:44.8 28:37.2 9:13 F 27 Milan MI
1148 Crookston,Shelby 4775 29:46.0 28:17.4 9:06 F 20 Ann Arbor United States
1149 Cprek,Clay 4754 29:46.6 28:10.1 9:04 M 53 Troy MI
1150 Jacot,Colton 8489 29:47.3 28:19.7 9:07 M 13 Millington MI
1151 Iniguez,Jorge 8484 29:47.6 27:20.4 8:48 M 46 Ann Arbor MI
1152 Mazur,Amanda 6388 29:47.6 28:18.6 9:07 F 21 Ann Arbor United States
1153 Dolle,Johanna 4953 29:48.0 24:38.7 7:56 F 21 Ann Arbor MI
1154 Romero,Anthony 7164 29:48.0 28:07.9 9:03 M 49 Ann Arbor MI
1155 Matley,Gina 6360 29:48.1 28:53.1 9:18 F 33 Milan MI
1156 Lussier,Christie 6261 29:48.3 27:43.0 8:55 F 38 Monroe MI
1157 Decaluwe,Brandon 4876 29:48.5 27:00.6 8:42 M 22 Royal Oak MI
1158 Young,Elizabeth 8196 29:48.8 28:33.7 9:12 F 12 Ypsilanti MI
1159 Skinner,Jason 7458 29:49.3 27:41.6 8:55 M 31 Fenton U.S.A
1160 Bibawi,Victor 8288 29:49.8 28:23.8 9:08 M 27 Ann Arbor Ua
1161 Walker,Kristina 7940 29:49.9 28:30.4 9:11 F 49 Ypsilanti MI
1162 Skinner,Derek 7456 29:50.2 27:42.5 8:55 M 24 Goodrich U.S.A
1163 Bourns,Scott 9401 29:50.3 28:45.2 9:15 M 41 Ann Arbor MI
1164 Mcnaney,Davina 6452 29:50.3 28:31.5 9:11 F 38 Pinckney MI
1165 Bourns,Holly 4382 29:50.4 28:45.5 9:15 F 37 Ann Arbor MI
1166 Opipari,Annemarie 6789 29:50.9 28:51.0 9:17 F 18 Dexter MI
1167 Brown,Kimberly 4459 29:51.7 28:38.3 9:13 F 37 Fairgrove MI
1168 Pizzo,Debbie 1963 29:54.3 28:49.7 9:17 F 46 Tipton MI
1169 Kaufman,Amy 5891 29:54.9 29:10.0 9:23 F 32 Ypsilanti MI
1170 Cicala,Teresa 4665 29:55.1 29:16.0 9:25 F 49 Livonia MI
1171 Pizzo,Ian 8699 29:55.3 28:50.9 9:17 M 10 Tipton MI
1172 Harder,Erika 5529 29:55.8 27:29.5 8:51 F 31 Ann Arbor United States
1173 Day,Clyde 4865 29:56.0 27:45.0 8:56 M 57 Commerce Oakland
1174 Smoker,Matt 7511 29:56.2 27:26.1 8:50 M 22 Bronson United States
1175 Corcoran,Susan 8347 29:56.9 28:53.5 9:18 F 49 Saline MI
1176 Schmenk,Dawn 7308 29:57.2 27:52.3 8:58 F 38 Ottawa OH
1177 Lecceadone,Zachary 8559 29:57.2 29:29.8 9:30 M 13 Rockford MI
1178 Bentley,Kristen 8286 29:58.0 27:25.0 8:49 F 20 Waterford MI
1179 Fendrick,Alison 5164 29:58.3 28:14.2 9:05 F 19 Ann Arbor MI
1180 Spinelli,Sherry 7544 29:58.4 29:36.2 9:32 F 36 Pinckney United States
1181 Pando Girard,Aldo 6820 29:59.1 28:52.9 9:18 M 9 Ypsilanti MI
1182 Girard,Nicole 5363 29:59.3 28:53.0 9:18 F 44 Saline MI
1183 Keiles,Stephanie 5902 29:59.9 28:16.1 9:06 F 48 Ann Arbor MI
1184 Wrenbeck,Kathy 8873 30:00.9 29:21.6 9:27 F 37 Grass Lake MI
1185 Bowman,Douglas 4388 30:01.4 28:03.7 9:02 M 53 Livonia MI
1186 Dever,Sara 4915 30:02.0 28:48.5 9:16 F 34 Ann Arbor MI
1187 Cary,John 4599 30:02.9 28:33.4 9:11 M 46 Saginaw MI
1188 Watt,Will 7969 30:03.1 25:10.3 8:06 M 30
1189 Johnson,Keith 5827 30:03.4 25:38.7 8:15 M 38 Ypsilanti U.S.A.
1190 Moore,Jason 6574 30:03.5 25:37.3 8:15 M 34 Ypsilanti U.S.A.
1191 Doyle,Luke 4987 30:03.6 26:50.7 8:38 M 9 Northville MI
1192 Anderson,Sydney 4076 30:04.8 28:41.2 9:14 F 8 Novi MI
1193 Greenstein,Joseph 5435 30:04.9 29:19.9 9:26 M 11 West Bloomfield MI
1194 Jackson,Pete 5772 30:05.2 27:35.5 8:53 M 31 Morton Grove United States
1195 Middaugh,Darel 6502 30:06.1 28:01.3 9:01 M 34 Ypsilanti MI
1196 Mcdonough,Bradley 6427 30:06.3 28:46.0 9:16 M 33 Piymouth Livingston
1197 Bennett,Marty 4261 30:06.3 28:58.1 9:19 M 40 Otsego, MI
1198 Cprek,Julie 4755 30:06.3 28:29.5 9:10 F 22 Troy MI
1199 Merritt,Meredith 6485 30:06.7 29:08.3 9:23 F 21 Perrinton MI
1200 Cramer,Jesse 4763 30:06.8 24:14.2 7:48 M 37 Ann Arbor United States
1201 Erickson,Max 5097 30:07.5 26:15.4 8:27 M 30 Tustin U.S.
1202 Kelly,Brenna 8959 30:07.5 24:23.5 7:51 F 27 Ann Arbor MI
1203 Kroll,Dani 6059 30:07.6 26:17.8 8:28 F 12 Brighton MI
1204 Ellerbe,Will 8933 30:07.6 24:23.9 7:51 M 24 Ann Arbor MI
1205 Anderson,Mark 4071 30:07.7 28:43.8 9:15 M 39 Novi MI
1206 Kibirige,Charles 8534 30:07.8 29:32.1 9:30 M 42 Ann Arbor United States
1207 Kroll,Doug 6060 30:07.9 29:31.3 9:30 M 42 Brighton MI
1208 Rogers,Emily 7159 30:08.0 26:16.8 8:28 F 25 Saline MI
1209 Lymburner,Daniel 8580 30:08.8 29:20.7 9:27 M 50 Ann Arbor United States
1210 Heinz,Irene 5594 30:08.9 28:42.1 9:14 F 57 Ypsilanti MI
1211 Schoeni,Maddie 7320 30:09.7 28:15.9 9:06 F 13 Ann Arbor MI
1212 Sreniawski,Sara 7549 30:09.9 29:03.5 9:21 F 28 Flat Rock MI
1213 Tuttle,James 7813 30:10.0 28:44.9 9:15 M 31 Ann Arbor United States
1214 Winiarski,Cynthia 8117 30:10.2 28:30.9 9:11 F 43 Ann Arbor MI
1215 Nelson,Mark 6683 30:10.8 27:53.7 8:59 M 45 Dexter MI
1216 Johnson,Eva 5823 30:12.1 29:28.9 9:29 F 32 Ypsilanti MI
1217 Parikh,Sachin 6832 30:12.4 29:20.0 9:26 M 32 Ann Arbor MI
1218 Romero,Juliana 7167 30:12.4 28:32.8 9:11 F 11 Ann Arbor MI
1219 Lee,Sheryl 6157 30:12.6 28:59.6 9:20 F 27 Ann Arbor MI
1220 Miller,Katie 6525 30:12.9 28:33.2 9:11 F 9 Ann Arbor MI
1221 Seltz,Pete 7370 30:13.1 28:17.2 9:06 M 36 Ypsilanti MI
1222 Miller,Thomas 6535 30:13.4 28:32.8 9:11 M 37 Ann Arbor MI
1223 Thomas,Marjorie 7742 30:13.5 28:24.0 9:08 F 34 Monroe MI
1224 Burdgick,Mary 4503 30:13.6 27:56.4 9:00 F 18 Highland MI
1225 Mosher,Dan 6601 30:13.6 28:11.6 9:04 M 60 Farmington Hills MI
1226 Sondakh-dorantes,Shaina 7528 30:13.9 29:09.8 9:23 F 14 Saline MI
1227 Mikula,Kristin 6509 30:14.0 29:28.2 9:29 F 24 Warren MI
1228 Ethridge,Haley 5108 30:14.0 27:58.6 9:00 F 13 Dearborn Heights U.S.
1229 Cicala,William 4666 30:14.1 27:31.7 8:52 M 50 Dearborn Heights MI
1230 Mullican,Ross 6620 30:14.6 28:11.4 9:04 M 28 Livonia MI
1231 Turin,Raymond 9032 30:15.4 27:32.7 8:52 M 51 Grosse Pointe Park MI
1232 Steudle,Allison 9454 30:15.7 29:09.6 9:23 F 27 Ann Arbor MI
1233 Puskar,Leah 6991 30:15.9 29:09.4 9:23 F 25 Freeland MI
1234 Griffith,Kyin 5443 30:16.0 28:07.6 9:03 M 10 Ann Arbor MI
1235 Kupa,Mike 6087 30:16.3 28:40.6 9:14 M 50 Petersburg MI
1236 O'leary,James 8666 30:16.6 28:07.1 9:03 M 30 Westland MI
1237 Heslip,Daniel 5618 30:16.6 28:53.4 9:18 M 51 Manchester United States
1238 Nicoli,John 6709 30:16.8 29:20.2 9:27 M 13 Ann Arbor MI
1239 Rivero,Santiago 9007 30:17.2 28:53.7 9:18 M 29 Ann Arbor MI
1240 Brooks,Emily 9416 30:19.0 28:35.8 9:12 F 23 Ypsilanti MI
1241 Brooks,John 9128 30:19.1 28:35.5 9:12 M 56
1242 Hornyak,Joseph 5704 30:19.7 26:04.8 8:24 M 45 Ann Arbor MI
1243 Appel-kraut,Joel 4087 30:20.2 28:11.6 9:04 M 10 Ann Arbor MI
1244 Cyphers,Chance 4806 30:20.2 25:12.4 8:07 M 22
1245 Vandusen,Katie 7861 30:21.1 28:33.8 9:12 F 20 Ann Arbor United States
1246 Zdeba,Tom 8228 30:21.9 28:16.5 9:06 M 59 Ann Arbor MI
1247 Hadden,Laura 5489 30:22.3 28:41.0 9:14 F 31 Allendale MI
1248 Smith,Karen 7493 30:22.7 28:48.3 9:16 F 53 Bronson United States
1249 Cornelius,Melissa 4736 30:23.0 28:45.4 9:15 F 31 Pinckney MI
1250 Probst Vi,Louis 8710 30:23.2 29:27.8 9:29 M 7 Ann Arbor MI
1251 Probst,Louis 8709 30:23.3 29:27.7 9:29 M 45 Ann Arbor MI
1252 Hoover,Jacette 5695 30:23.4 28:01.2 9:01 F 27 Howell MI
1253 Hui,Jonathan 9078 30:23.5 29:45.0 9:35 M 20
1254 Parker,Tim 6835 30:23.7 29:29.2 9:29 M 46 Saline MI
1255 Chitty,James 4645 30:23.8 26:58.1 8:41 M 40 Kalamazoo MI
1256 Talsma,Fran 9058 30:24.4 29:40.4 9:33 F 48
1257 Gignac,Kristen 5346 30:24.6 29:19.0 9:26 F 41 Ann Arbor MI
1258 Cornell,Jennifer 4738 30:24.8 28:29.0 9:10 F 34 Tecumseh MI
1259 Gamble,Dan 5294 30:25.0 30:07.6 9:42 M 67 Ann Arbor MI
1260 Farrell,Tony 5145 30:25.6 25:52.3 8:20 M 31 Clinton MI
1261 Riddle,Ronnie 9299 30:25.9 28:33.4 9:11 M 29
1262 Olszewski,Adam 6781 30:26.1 28:53.0 9:18 M 15 Ann Arbor MI
1263 Waisanen,Ellen 7932 30:26.9 28:42.3 9:14 F 27 Farmington MI
1264 Sheaves,Benjamin 7390 30:27.2 30:06.5 9:41 M 13 Berkley MI
1265 Harrington,Christopher 5539 30:27.4 28:42.9 9:15 M 31 Farmington MI
1266 Muessig,Rebecca 9431 30:27.7 29:53.5 9:37 F 42 Clinton United States
1267 Swanson,Jason 7686 30:28.9 29:04.9 9:22 M 39 Oswego United States
1268 Swanson,Jakob 7684 30:29.0 29:04.6 9:22 M 12 Oswego United States
1269 Nerdrum,Alexa 6687 30:29.4 29:40.3 9:33 F 37 Ann Arbor MI
1270 Olszewski,Veronika 6783 30:29.9 28:56.9 9:19 F 17 Ann Arbor MI
1271 Flannery,Michael 5206 30:30.1 28:55.0 9:18 M 51 Livonia MI
1272 Boynton,Daniel 4394 30:30.5 28:54.6 9:18 M 55 Troy MI
1273 Tucker,Brittanie 7801 30:30.7 28:34.7 9:12 F 26 Ida MI
1274 Ender-brien,Rebecca 5088 30:31.8 27:10.0 8:45 F 30 Canton MI
1275 Bunn,Jessica 4496 30:31.9 29:54.3 9:38 F 29 Ypsilanti MI
1276 Chenault,Robert 8328 30:32.0 27:40.3 8:54 M 34 Ann Arbor MI
1277 Michael,Barbara 6493 30:32.4 29:36.2 9:32 F 52 Ann Arbor MI
1278 Derderian,Nicole 4901 30:32.8 29:36.8 9:32 F 15 Ann Arbor MI
1279 Rigg,Kurt 7109 30:32.9 29:46.3 9:35 M 46 Ann Arbor MI
1280 Lewis,Ashley 6200 30:33.3 27:58.3 9:00 F 19 Canton United States
1281 Roumel,Olivia 7194 30:34.4 29:55.0 9:38 F 14 Ann Arbo MI
1282 Nixon,Mary 6721 30:35.0 29:03.3 9:21 F 53 Chelsea MI
1283 Pangborn,Scott 6824 30:35.2 30:02.5 9:40 M 42 Parma MI
1284 Higdon-sudow,Sarah 8470 30:36.6 28:02.8 9:02 F 29 Ann Arbor United States
1285 Sekerak,Michael 9163 30:37.8 25:44.0 8:17 M 18
1286 Bierlein,Lacey 8901 30:38.2 28:48.2 9:16 F 24 Columbus United States
1287 Caraher,Daniel 8914 30:38.2 28:48.6 9:16 M 26 Norristown PE
1288 Timbs,Rex 7767 30:38.4 28:34.6 9:12 M 45 Ypsilanti MI
1289 Timbs,Sean 7768 30:38.4 28:34.4 9:12 M 13 Ypsilanti MI
1290 Chaivre,Eileen 4617 30:38.8 30:12.8 9:43 F 48 Belleville MI
1291 Marentette,Tammy 6322 30:39.2 29:29.6 9:30 F 35 Allen Park MI
1292 Miner,Alison 6547 30:40.0 29:20.9 9:27 F 13 West Bloomfield MI
1293 Miller,Breanna 8629 30:40.5 30:19.7 9:46 F 21 Ann Arbor MI
1294 Budres,Dan 4487 30:40.5 25:59.9 8:22 M 36 Saline MI
1295 Mcdowell,Kim Da Jung 6428 30:40.5 25:29.9 8:12 F 25 Ann Arbor MI
1296 Kemeter,Julie 5918 30:41.2 29:27.2 9:29 F 48 Brighton MI
1297 Zammit,Meredith 8884 30:41.4 29:43.1 9:34 F 20 Lathrup Village United States
1298 Zammit,Jay 8883 30:41.5 29:43.5 9:34 M 50 Lathrup Village United States
1299 Leventhal,Michael 6194 30:41.8 28:30.4 9:10 M 21 Chappaqua United States
1300 Miner,Jack 6550 30:42.2 29:23.6 9:28 M 48 West Bloomfield MI
1301 Wolf,Joshua 8138 30:42.5 27:56.4 9:00 M 8 Richland MI
1302 Ringbloom,Craig 7114 30:42.5 29:11.8 9:24 M 24 Dundee U.S.
1303 Harper,Krystin 8947 30:42.6 29:00.1 9:20 F 22 Ann Arbor MI
1304 Sletten-farjo,Karin 7466 30:42.9 29:48.8 9:36 F 39 Ann Arbor MI
1305 Yesko,Emily 8878 30:42.9 26:36.2 8:34 F 28 Ypsilanti United States
1306 Lewis,Casey 6201 30:43.2 28:34.1 9:12 M 8 Ann Arbor MI
1307 Lu,Katherine 6244 30:43.3 27:53.0 8:58 F 27 Ann Arbor U.S.
1308 Lewis,Greg 6202 30:43.4 28:34.2 9:12 M 46 Ann Arbor MI
1309 Thomas,Gerald 7740 30:44.6 28:55.6 9:19 M 39 Monroe MI
1310 Schaefer,Anne 7296 30:45.2 29:23.3 9:28 F 27 Lansing United States
1311 Beirlant,Alexander 4241 30:45.5 29:23.3 9:28 M 25 Lansing United States
1312 Zimmerman,Andrew 8888 30:45.7 28:56.4 9:19 M 27 Ann Arbor MI
1313 Hersberger,Katie 5615 30:45.8 28:56.9 9:19 F 27 Ann Arbor MI
1314 Avery,Christopher 4110 30:46.1 28:57.2 9:19 M 27 Ann Arbor MI
1315 Mcdonald,Martin 6426 30:46.2 29:01.3 9:20 M 33 Ann Arbor MI
1316 Leduc,John 6149 30:47.4 28:23.4 9:08 M 54 Ann Arbor MI
1317 Cosgrove,Jacquelyn 4744 30:47.6 28:11.4 9:04 F 19 Gaylord MI
1318 Paris,Rachel 8684 30:47.9 25:57.0 8:21 F 30 Charlotte United States
1319 Amodio,Chad 8261 30:48.3 25:58.5 8:22 M 26 Charlotte United States
1320 Pope,Brandon 6952 30:48.6 30:26.4 9:48 M 13 Manchester MI
1321 Clark,Grace 8337 30:49.2 29:37.5 9:32 F 14 Lowell MI
1322 Dixon,Kyla 8371 30:49.6 29:37.6 9:32 F 11 Lowell MI
1323 Silva,Selina 7430 30:49.7 28:40.8 9:14 F 31 Ann Arbor United States
1324 Hall,Lauren 5506 30:49.9 29:50.2 9:36 F 8 Swartz Creek MI
1325 Zeimet,Frankie 8230 30:50.0 25:29.4 8:12 M 13 Ann Arbor MI
1326 Gwisdala,Jack 5481 30:50.1 29:08.1 9:23 M 58 Standish U.S.A.
1327 Smith,Gloria ( Lita) 7484 30:50.3 28:21.4 9:08 F 46 Monroe MI
1328 Sconochia,Archie 7343 30:50.4 26:08.5 8:25 M 41 Monroe MI
1329 Lemerond,Brian 6171 30:50.5 29:50.5 9:36 M 37 Clarkston MI
1330 Nicoli,Sarah 6710 30:50.6 29:52.9 9:37 F 45 Ann Arbor MI
1331 Kozak,Caitlin 6035 30:52.7 27:55.6 8:59 F 19 Ann Arbor, United States
1332 Plumb,Corey 8701 30:52.8 29:43.7 9:34 M 26 Monroe U.S.
1333 Petrillo,Joe 6903 30:52.8 30:22.5 9:47 M 49 Plymouth MI
1334 Zeimet,Thomas 8231 30:52.9 25:30.9 8:13 M 55 Ann Arbor MI
1335 Becker,Owen 4218 30:53.7 30:17.6 9:45 M 9 South Lyon MI
1336 Becker,Carol 4217 30:54.1 30:18.0 9:45 F 33 South Lyon MI
1337 Petrillo,Hulya 6902 30:54.3 30:23.6 9:47 F 50 Plymouth MI
1338 Johnston,Courtney 5837 30:54.6 29:05.4 9:22 F 22 Dexter MI
1339 Seligman,Eva 8778 30:55.0 27:56.7 9:00 F 25 Ann Arbor MI
1340 Stamper,Kory 9022 30:55.6 29:51.0 9:36 M 17 Southgate MI
1341 O'connor,Mike 6753 30:55.8 29:30.5 9:30 M 47 Howell MI
1342 Pettit,Rebecca 6909 30:56.1 28:52.8 9:18 F 25 Ann Arbor United States
1343 Schwartz,Brian 7338 30:56.7 27:57.4 9:00 M 30 West Bloomfield MI
1344 Salamy JR.,Paul 9223 30:56.9 29:39.9 9:33 F 39
1345 Errer,Ryan 8395 30:57.4 27:49.9 8:57 M 34 Ann Arbor United States
1346 Van Becelaere,Keri 7844 30:57.5 29:25.2 9:28 F 36 Canton MI
1347 Hall,Trevor 5512 30:58.1 29:58.1 9:39 M 12 Swartz Creek MI
1348 Lahaie,Denise 6106 30:58.1 29:42.7 9:34 F 51 Midland MI
1349 Lahaie,Matthew 6107 30:58.2 29:42.9 9:34 M 50 Midland MI
1350 Jones,Daniel 5840 30:58.6 29:03.2 9:21 M 48 Wixom MI
1351 Gulbransen,Erin 5474 30:59.3 28:57.8 9:19 F 25 Ann Arbor MI
1352 Wilbert,Terrance 8070 30:59.5 25:11.3 8:06 M 32 Ypsilanti MI
1353 Bliss,Robert 4335 30:59.6 27:53.3 8:59 M 41 Superior Twp MI
1354 Mosher,Cory 6600 30:59.7 27:48.4 8:57 M 33 Howell United States
1355 Harris,Claire 5540 31:00.5 29:46.9 9:35 F 24 Ann Arbor MI
1356 Argiero,Catherine 4090 31:00.7 29:46.6 9:35 F 44 Chelsea MI
1357 Walters,Jeffrey 7953 31:01.1 28:35.8 9:12 M 29 Grand Blanc MI
1358 Burger,Vicki 4509 31:01.2 26:05.6 8:24 F 41 Coldwater United States
1359 Bankey,Jill 8275 31:01.5 30:25.0 9:47 F 41 Berkley MI
1360 Mazur,Magan 6389 31:01.5 28:36.6 9:13 F 25 Shelby Twp MI
1361 Taylor,Priscilla 8814 31:02.6 27:52.5 8:58 F 55 Brighton United States
1362 Cohen,Kyle 4686 31:02.8 29:41.5 9:33 M 23 Ypsilanti MI
1363 Cornellier,Sean 4741 31:03.1 29:26.2 9:28 M 11 Novi U.S.A.
1364 Budnick,Kaley 4486 31:03.5 29:26.7 9:29 F 23 Ann Arbor MI
1365 Bodkin,Benjamin 4343 31:03.6 29:52.4 9:37 M 36 Eaton Rapids MI
1366 Mcwilliams,Seamus 8614 31:03.7 29:47.4 9:35 M 11 Ann Arbor MI
1367 Johnson,Jane 5825 31:03.9 29:38.1 9:32 F 58 Muskegon MI
1368 Hampton,Elizabeth 5524 31:04.0 29:35.5 9:31 F 36 Jackson MI
1369 Eiler,Christian 5050 31:04.1 27:29.7 8:51 M 34 Williamston MI
1370 Cornellier,Tom 4742 31:04.3 29:26.6 9:29 M 47 Novi U.S.A.
1371 Kirk,Keri 5969 31:04.4 26:40.3 8:35 F 27 Ypsilanti MI
1372 Wicksall,Bethany 8065 31:04.5 29:53.4 9:37 F 34 Lansing MI
1373 Sweeder,Ryan 7691 31:04.6 29:05.4 9:22 M 34 Williamston MI
1374 Johnson,Megan 5831 31:04.8 29:28.1 9:29 F 22 Whitmore Lake MI
1375 Downey,Brian 8381 31:04.9 27:56.4 9:00 M 40 Westland MI
1376 Bacolor,Madeline 4126 31:06.0 30:17.9 9:45 F 11 Ann Arbor MI
1377 Warner,Hannah 7959 31:06.6 30:28.4 9:48 F 11 Holt MI
1378 Wasielewski,Diane 7963 31:06.8 29:34.8 9:31 F 38 Ann Arbor United States
1379 Phillips,Chris 6916 31:07.4 26:36.9 8:34 M 40 Battle Creek United States
1380 Arnett,Marni 8894 31:07.5 28:49.2 9:17 F 41 Ann Arbor MI
1381 Bacolor,Jenna 4125 31:07.7 30:19.9 9:46 F 39 Ann Arbor MI
1382 Mcwilliams,Todd 8615 31:08.6 29:52.7 9:37 M 45 Ann Arbor MI
1383 Lommerse,Jason 6228 31:09.1 29:11.2 9:24 M 31 Belleville MI
1384 Zablocki,Kara 8211 31:09.3 30:16.6 9:45 F 34 Ypsilanti MI
1385 Wetzel,Devan 8028 31:09.5 30:07.6 9:42 F 16 Saline MI
1386 Manu,Erika 6318 31:09.7 30:19.1 9:45 F 40 Ann Arbor MI
1387 Jedele,Chelsea 5801 31:09.8 29:49.0 9:36 F 20 Ann Arbor MI
1388 Jacot,Ryan 8491 31:10.0 29:43.1 9:34 M 22 Millington MI
1389 Goble,Huy 9209 31:11.4 29:38.5 9:32 F 37
1390 Zieske,Skyler 9046 31:11.5 29:20.3 9:27 M 10 Linden MI
1391 Merenda,Helen 6482 31:11.6 29:51.1 9:36 F 20 Canton United States
1392 Felosak,Cara 5161 31:11.9 30:19.1 9:46 F 32 Macomb MI
1393 Felosak,Jason 5162 31:12.1 30:19.3 9:46 M 37 Macomb MI
1394 Curry,Courtney 4800 31:12.5 28:03.7 9:02 F 25 Ann Arbor MI
1395 Levine,Alex 6195 31:12.5 29:50.9 9:36 M 17 Ann Arbor MI
1396 Miller,Jillian 8631 31:12.7 29:59.4 9:39 F 22 Eastpointe MI
1397 Parris,Erin 6837 31:12.8 28:03.9 9:02 F 28 Northville MI
1398 Harrel,Jaiden 8456 31:12.9 29:09.0 9:23 M 14 Norwalk OH
1399 Hudson,Margaret 5730 31:13.1 29:14.2 9:25 F 34 Williamston MI
1400 Dowling,James 4980 31:14.3 26:13.4 8:26 M 40 Ann Arbor MI
1401 Przybylski,Beth 6982 31:14.4 30:27.1 9:48 F 46 Grand Blanc MI
1402 Errer,Emily 5102 31:14.9 28:08.2 9:03 F 24 Caseville MI
1403 Root,Angie 8745 31:15.3 29:58.5 9:39 F 41 Grass Lake MI
1404 Hendricks,Barb 5603 31:15.6 28:22.8 9:08 F 43 Sterling Heights MI
1405 Huber,Kurt 5728 31:15.9 29:46.5 9:35 M 38 Toledo OH
1406 Charpie,Ian 8324 31:16.1 29:44.6 9:34 M 17 Ann Arbor MI
1407 Raiman,Stephen 8720 31:17.1 29:24.4 9:28 M 28 Ann Arbor MI
1408 Jacot,Donald 8490 31:17.3 29:50.3 9:36 M 47 Millington MI
1409 Dolan,Paul 4952 31:17.5 26:13.5 8:26 M 44 Ann Arbor MI
1410 Conzelmann,Matthew 4717 31:17.8 30:25.8 9:48 M 15 Saline MI
1411 Carmack,Jason 4581 31:18.7 30:26.7 9:48 M 15 Saline MI
1412 Zieske,Paul 9045 31:19.2 29:27.8 9:29 M 49 Linden MI
1413 Burnside,Garth 4526 31:20.3 29:52.4 9:37 M 46 Ann Arbor MI
1414 Carner,Sarah 4582 31:20.3 29:24.3 9:28 F 28 Lambertville MI
1415 Burnside,Amanda 4525 31:20.3 29:52.6 9:37 F 19 Ann Arbor MI
1416 Tucker,Kendall 7803 31:20.8 26:55.0 8:40 M 29 Ypsilanti U.S.A.
1417 Brandon,Rick 4411 31:21.1 28:52.2 9:18 M 44 Chelsea U.S.A
1418 Behan,Stephen 4236 31:21.1 28:04.9 9:02 M 23 Ann Arbor MI
1419 Maron,Allie 9195 31:21.3 26:55.7 8:40 F 20
1420 Dou,Zhicheng 4971 31:21.5 28:13.9 9:05 M 30 Ann Arbor MI
1421 Pociopa,Joseph 6937 31:21.7 26:21.8 8:29 M 24 Ann Arbor MI
1422 Miller,Holly 6520 31:21.9 30:12.6 9:43 F 28 Maybee MI
1423 Susi,Peter 7674 31:22.7 29:10.8 9:24 M 34 Ann Arbor MI
1424 Lyden,Angela 6265 31:22.8 29:11.2 9:24 F 39 Ann Arbor MI
1425 Wong,Audrey 8141 31:23.3 27:27.2 8:50 F 25 Ann Arbor MI
1426 ST. Clair,Carley 9021 31:23.6 28:30.0 9:10 F 20 Ann Arbor MI
1427 Shaw,Lori 7384 31:24.6 30:02.5 9:40 F 43 Canton MI
1428 Rosol,Samantha 7179 31:24.8 30:10.5 9:43 F 17 Milford MI
1429 Smith,Curtis 7476 31:24.8 30:19.7 9:46 M 34 Fowlerville MI
1430 Vigna,Dave 7899 31:24.8 29:18.9 9:26 M 24 Warren United States
1431 Borys,Beth 4371 31:25.1 27:45.3 8:56 F 32 Plymouth MI
1432 Lance,Audrey 6110 31:25.1 30:54.0 9:57 F 28 Ann Arbor MI
1433 Cummins,Thomas 4795 31:26.0 29:41.1 9:33 M 15 Rochester Hills MI
1434 Perovich,Michael 6887 31:26.0 29:25.0 9:28 M 40 South Lyon MI
1435 Inuzuka,Kyoko 8487 31:26.4 30:16.9 9:45 F 29 Canton United States
1436 Hsu,David 5715 31:26.5 28:35.6 9:12 M 37 Ann Arbor U.S.
1437 Canterbury,Patricia 4568 31:27.2 26:36.6 8:34 F 51 Amsterdam NY
1438 Rigley,Mickey 7112 31:27.7 30:50.3 9:56 F 11 Livonia U.S.
1439 Aldrich,Courtney 4042 31:28.6 28:27.6 9:10 F 42 Stockbridge MI
1440 Sier,Martijn 7426 31:28.8 29:50.7 9:36 M 10 Ann Arbor MI
1441 Schneider,Rebecca 7315 31:29.1 28:53.0 9:18 F 19 Fowler United States
1442 Cicala,John 4663 31:30.1 30:10.9 9:43 M 51 Livonia MI
1443 Lopp,Timothy 6235 31:30.6 28:38.0 9:13 M 40 Warren MI
1444 Heberling,Michael 5582 31:30.7 29:50.7 9:36 M 59 Grand Blanc MI
1445 Heberling,Adam 5581 31:30.8 29:50.0 9:36 M 25 Ann Arbor United States
1446 Matuszewski,Justin 6370 31:31.3 28:21.5 9:08 M 11 Brighton MI
1447 Miller,Sara 8633 31:31.6 29:39.5 9:33 F 19 Ann Arbor MI
1448 Olson,Eric 9472 31:31.7 25:42.8 8:17 M 33 Ann Arbor United States
1449 Cotner,Allyson 4747 31:32.3 28:34.7 9:12 F 46 Ann Arbor MI
1450 Bolhuis,John 8290 31:32.6 26:33.1 8:33 M 48 Farmington Hills MI
1451 Mackenzie,Jan 6281 31:32.7 28:34.7 9:12 F 46 Ann Arbor MI
1452 Marsonek,Scott 8594 31:33.0 29:59.0 9:39 M 25 Canton MI
1453 Seifert,Laura 7368 31:33.2 28:30.2 9:10 F 41 Lambertville United States
1454 Dempsey,Melissa 8363 31:33.2 10:09 F 28 Sylvania OH
1455 Rigley,Bill 7111 31:33.3 30:55.8 9:57 M 32 Livonia U.S.
1456 Troxell,Ashley 7792 31:33.3 27:51.9 8:58 F 23 Freeland MI
1457 Hauk,Jeff 5561 31:33.7 29:49.6 9:36 M 41 Howell MI
1458 Donevan,Maeve 8378 31:34.8 30:49.4 9:55 F 9 Dexter MI
1459 Zhang,Sam 9049 31:35.4 30:30.0 9:49 M 12
1460 Donevan,Sean 8379 31:35.7 30:50.5 9:56 M 49 Dexter MI
1461 Menchaca,Chris 6471 31:35.9 27:04.8 8:43 M 44 Swartz Creek MI
1462 Sullens,Brad 8810 31:36.0 27:34.4 8:52 M 22 Belleville MI
1463 Northern,Michael 6735 31:36.3 31:30.4 10:08 M 42 Kalamazoo MI
1464 Warner,Dan 7958 31:37.0 30:21.5 9:46 M 43 Toledo OH
1465 Day,Cheryl 8356 31:38.7 29:48.2 9:36 F 42 Ann Arbor MI
1466 Horan,Shana 5700 31:38.8 27:39.9 8:54 F 44 Ann Arbor MI
1467 Thorburn,Foster 7755 31:39.0 30:34.9 9:51 M 10 Chelsea MI
1468 Carl,Aidan 4574 31:39.1 30:24.2 9:47 M 10 Ann Arbor MI
1469 Earl,Bryan 5035 31:40.0 29:03.1 9:21 M 33 Whitmore Lake United States
1470 Adamson,Mandy 4024 31:40.0 29:03.0 9:21 F 30 Whitmore Lake MI
1471 Thorburn,Riley 7757 31:40.6 29:36.2 9:32 F 7 Chelsea MI
1472 Thorburn,Loren 7756 31:40.7 29:36.4 9:32 M 39 Chelsea MI
1473 Crane,Nicole 4767 31:40.8 30:08.2 9:42 F 36 Fraser MI
1474 Kuhlmann,Erika 6070 31:41.0 30:08.5 9:42 F 36 Madison Heights MI
1475 Visnaw,Mark 7904 31:41.1 29:21.2 9:27 M 40 Wayne MI
1476 Zimmerman,Devony 9451 31:41.6 29:55.3 9:38 F 39 Pinckney MI
1477 Meldrum,Amy 6467 31:43.1 30:24.0 9:47 F 21 Ann Arbor MI
1478 Schneider,Dennis 7313 31:43.2 29:07.2 9:22 M 44 Fowler United States
1479 Graber,Joseph 5412 31:43.6 30:14.3 9:44 M 39 Three Rivers MI
1480 Mills,Shaun 6539 31:44.0 28:04.9 9:02 M 38 Holt MI
1481 Yu,Boris 8208 31:44.3 30:37.9 9:52 M 20 Ann Arbor America
1482 Love,Dirk 8570 31:45.2 28:48.4 9:16 M 53 Midland MI
1483 Grasel,Kevin 8940 31:45.6 31:05.5 10:00 M 24 Reese United States
1484 Rolla,Elizabeth 7160 31:47.4 30:23.8 9:47 F 44 Ann Arbor MI
1485 Andrews,Laura 4079 31:48.2 31:30.4 10:08 F 34 Dearborn MI
1486 Drier,Marvin 4997 31:48.4 29:17.7 9:26 M 50 Decatur IN
1487 Drier,Paul 4998 31:48.6 29:17.0 9:26 M 18 Decatur IN
1488 Candy,Molly 4567 31:48.9 29:48.9 9:36 F 21 Ypsilanti United States
1489 Moss,Madison 6290 31:49.4 30:24.2 9:47 F 13 Dexter United States
1490 Chong,Timothy 4651 31:49.6 29:54.4 9:38 M 33 Ann Arbor United States
1491 Chong,Khrizna 4650 31:50.1 29:54.4 9:38 F 30 Ann Arbor United States
1492 Hudson,Rebekah 9180 31:50.5 28:17.1 9:06 F 20
1493 Peitsch,Barbara 8687 31:50.7 30:18.0 9:45 F 49 Ann Arbor MI
1494 Schneider,Mark 7314 31:51.6 29:15.0 9:25 M 16 Fowler United States
1495 Cook,Natalia 4724 31:51.6 29:13.3 9:24 F 31 Ann Arbor MI
1496 Walker,Jeremy 7939 31:52.0 30:26.1 9:48 M 26 Lansing United States
1497 Church,Syndel 4660 31:52.4 29:52.7 9:37 F 22 Ypsilanti United States
1498 Mcallister,Sara 6394 31:53.2 30:25.2 9:47 F 13 Dexter MI
1499 Flake,Lee 5203 31:54.0 29:31.0 9:30 M 41 Ann Arbor MI
1500 Vanisacker,Lisa 7863 31:54.1 28:25.6 9:09 F 42 Monroe MI
1501 Attee,Ami 8271 31:54.2 27:58.9 9:00 F 27 Ypsilanti MI
1502 Searing,Sara 7351 31:54.6 29:23.0 9:27 F 28 Plymouth United States
1503 Searing,Scott 7352 31:54.9 29:22.8 9:27 M 29 Plymouth United States
1504 Mach,Joe 6278 31:55.0 28:22.6 9:08 M 30 Linden MI
1505 Kramer,Marnie 6044 31:55.6 30:37.3 9:51 F 40 Wixom MI
1506 Kramer,Michael 6045 31:55.6 30:37.3 9:51 M 48 Wixom MI
1507 Smith,Dana 8792 31:55.8 27:45.8 8:56 F 37 Ypsilanti MI
1508 Armstrong,Peggy 4092 31:55.8 30:55.7 9:57 F 54 Superior Township MI
1509 Deromedi,Lori 4902 31:55.8 30:56.2 9:57 F 41 Ann Arbor MI
1510 Beer,Deborah 4231 31:56.8 30:27.4 9:48 F 54 Chelsea MI
1511 Paul,Terry 6858 31:57.1 31:04.1 10:00 M 51 Macomb U.S.
1512 Salvatore,Jen 7265 31:57.4 27:51.8 8:58 F 38 South Lyon MI
1513 Wierenga,Robert 8862 31:58.7 25:45.3 8:17 M 41 Ann Arbor MI
1514 Nigro,Autumn 6716 31:59.1 30:37.6 9:51 F 27 Ann Arbor MI
1515 Hicks,Tyler 5634 31:59.5 26:10.1 8:25 M 24 Ann Arbor United States
1516 Desloover,Larry 4909 31:59.9 31:24.1 10:06 M 55 Dundee MI
1517 Musch,David 6645 32:00.3 29:12.1 9:24 M 56 Ypsilanti United States
1518 Musch,Ryan 6647 32:00.5 29:12.1 9:24 M 28 Byron Center United States
1519 Verklan,Mike 7890 32:00.7 29:24.1 9:28 M 49 Plymouth MI
1520 Mccune,Colin 6418 32:01.1 31:04.5 10:00 M 17 Saline MI
1521 Guise,Andrew 5469 32:01.1 31:01.1 9:59 M 11 Dexter United States
1522 Lowther,Abigail 9356 32:01.2 29:16.0 9:25 F 30
1523 Guise,Jamie 5471 32:01.5 31:01.8 9:59 F 46 Dexter United States
1524 Giles,Thomas 5352 32:01.6 31:05.4 10:00 M 17 Saline MI
1525 Coetzee,Andries 4682 32:01.7 29:35.7 9:32 M 39 Ann Arbor MI
1526 Min,Patrick 6546 32:01.7 29:36.3 9:32 M 27 Ann Arbor MI
1527 Nowitzke,Janelle 6737 32:02.0 30:19.0 9:45 F 27 Monroe MI
1528 Wilkins,Katie 8080 32:02.1 28:59.1 9:20 F 29 Ypsilanti MI
1529 Dates,Bob 4829 32:02.4 31:13.3 10:03 M 57 Canton MI
1530 Petroff,Lisa 6904 32:02.6 29:18.0 9:26 F 43 Ann Arbor United States
1531 Zopf,David 8250 32:02.7 30:46.6 9:54 M 28 Ann Arbor MI
1532 Kim,John 5948 32:02.9 29:00.0 9:20 M 42 Ann Arbor MI
1533 Cunningham,Arielle 4797 32:03.0 30:46.5 9:54 F 25 Ann Arbor MI
1534 Mikonczyk,John 8626 32:03.1 30:02.0 9:40 M 43 Dearborn MI
1535 Kosteniuk,William 6023 32:03.4 28:11.7 9:05 M 57 Troy MI
1536 Lee,Cynthia 6152 32:03.5 29:37.9 9:32 F 30 Ann Arbor MI
1537 Perpich,Annie 6888 32:04.9 30:15.0 9:44 F 11 Ann Arbor United States
1538 Smith,Scott W. 7505 32:05.2 29:49.9 9:36 M 40 Rossford OH
1539 Riedlinger,Jennifer 7099 32:05.2 30:35.1 9:51 F 30 Ypsilanti MI
1540 Day,Lexie 8357 32:05.6 30:15.7 9:44 F 11 Ann Arbor MI
1541 Swedlow,Deborah 7690 32:05.8 31:23.4 10:06 F 40 Ann Arbor United States
1542 Hennessey,Paul 5605 32:05.9 29:49.5 9:36 M 43 Toledo OH
1543 Vojcek,Trinea 7910 32:05.9 24:24.2 7:51 F 21 Ypsilanti United States
1544 Bertram,Katherine 4290 32:06.0 24:23.6 7:51 F 21 Livonia United States
1545 Brandon,Jamie 4410 32:06.6 29:37.3 9:32 F 33 Chelsea U.S.A
1546 Fisher,Jacob 5191 32:06.9 30:00.0 9:39 M 30 Plymouth MI
1547 Mickevicius,Jenni 6501 32:07.3 30:19.0 9:45 F 22 Ypsilanti MI
1548 Cinder,Rae Anne 4669 32:07.9 31:19.2 10:05 F 29 Whitmore Lake MI
1549 Evans,Erin 5113 32:08.1 31:16.6 10:04 F 10 Ann Arbor United States
1550 Moro,Ryan 6590 32:08.2 30:20.1 9:46 M 22 Ypsilanti MI
1551 Yuskowatz,Michael 8210 32:08.3 31:19.3 10:05 M 34 Whitmore Lake MI
1552 Evans,Jeff 5114 32:08.4 31:17.0 10:04 M 44 Ann Arbor United States
1553 Skwirsk,Tom 7462 32:08.7 29:06.5 9:22 M 43 Canton MI
1554 Skwirsk,Jacob 7461 32:09.3 29:06.2 9:22 M 10 Canton MI
1555 Zwica,Lynn 8252 32:09.3 28:29.7 9:10 F 34 Ann Arbor MI
1556 Sier,Rob 7428 32:09.6 30:31.7 9:50 M 51 Ann Arbor MI
1557 Dionne,Bill 4942 32:09.6 28:28.7 9:10 M 37 Berkley MI
1558 Vasconi,Aidan 7875 32:10.1 25:39.5 8:15 M 8 Ann Arbor MI
1559 Connors,Denny 4713 32:10.7 27:47.5 8:57 M 44 Allen Park MI
1560 Dimarco,Jody 4940 32:10.9 31:41.8 10:12 F 35 Blissfield United States
1561 Dimarco,Cameron 4939 32:11.3 31:42.3 10:12 M 9 Blissfield United States
1562 Cobb,Amanda 8339 32:11.4 31:26.8 10:07 F 16 Ypsilanti MI
1563 Besford,Andrew 4292 32:12.5 32:06.9 10:20 M 12 Ann Arbor United States
1564 Eroy,Alex 5101 32:12.6 27:05.2 8:43 M 21
1565 Thomas,Michael 7743 32:12.9 30:23.6 9:47 M 61 Novi United States
1566 Sheppard,Cindy 8782 32:13.1 29:48.1 9:36 F 50 Novi MI
1567 Kwasniewicz,Bailey 8545 32:13.1 29:47.8 9:35 F 8 Novi MI
1568 Tucker,Brian 8821 32:14.7 28:12.3 9:05 M 26 Ann Arbor MI
1569 Donahue,Christine 4958 32:14.8 29:37.5 9:32 F 21 Chelsea MI
1570 Petro,Kirsten 8692 32:15.0 29:37.3 9:32 F 22 Ann Arbor MI
1571 Dutton,Keith 9204 32:15.4 29:48.9 9:36 M 43
1572 Gilbert,Alan 8425 32:15.5 31:07.9 10:01 M 12 Berrien Springs MI
1573 Rush,Andrea 7218 32:15.6 31:23.4 10:06 F 27 Lansing MI
1574 Miller,Jeff 6522 32:15.8 28:43.4 9:15 M 42 Saline MI
1575 Hedges,Stephanie 8465 32:15.9 28:14.4 9:05 F 22 Ypsilanti MI
1576 Miller,Lisa 6527 32:16.1 28:43.1 9:15 F 45 Saline MI
1577 Primo,Moses 6969 32:16.4 31:08.5 10:01 M 28 Berrien Springs MI
1578 Shelley,Vanessa 7392 32:16.4 31:08.2 10:01 F 26 Berrien Springs MI
1579 Williams,Douglas 8091 32:16.5 31:32.8 10:09 M 61 Livonia MI
1580 Fitch,David R. 5196 32:16.9 26:18.5 8:28 M 15 Ann Arbor MI
1581 Flohr,Evan 5215 32:16.9 29:26.8 9:29 M 13 Northville MI
1582 Kompoltowicz,Renee 6009 32:17.1 27:13.6 8:46 F 29 Canton United States
1583 Schneider,Daniel 7312 32:17.2 30:24.1 9:47 M 44 Northville MI
1584 Williams,Kathy 8098 32:17.2 31:33.4 10:09 F 56 Livonia MI
1585 Tworek,Eleana 7819 32:17.9 30:27.6 9:48 F 12 Ann Arbor MI
1586 Tworek,Joseph 7820 32:17.9 30:26.8 9:48 M 46 Ann Arbor MI
1587 Hilling,Scott 5646 32:18.0 29:50.1 9:36 M 35 Livonia United States
1588 Delaney,Kelly 4882 32:18.7 29:44.1 9:34 F 25 Ann Arbor MI
1589 Staton,Peter 7571 32:18.8 28:00.2 9:01 M 32 Ann Arbor MI
1590 Zimmer,Steven 8243 32:18.8 29:48.6 9:36 M 44 Chelsea MI
1591 Hoban,Eileen 5664 32:18.9 28:54.6 9:18 F 15 Ann Arbor MI
1592 Dormer,Will 9186 32:19.1 28:45.7 9:15 M 0
1593 Connolly,Caroline 4711 32:19.2 29:41.8 9:34 F 19 Sudbury VT
1594 Freedman,Brianna 9111 32:19.4 31:13.3 10:03 F 20
1595 Staton,Mercedes 7570 32:19.8 28:00.9 9:01 F 35 Ann Arbor MI
1596 Baker,Dreama 4146 32:19.8 31:19.6 10:05 F 46 Dexter MI
1597 Koviak,Kathleen 6033 32:20.1 29:42.1 9:34 F 19 Ann Arbor MI
1598 Rotary,Mark 8753 32:20.2 28:10.6 9:04 M 49 Saline MI
1599 Telgen,Bill 7723 32:20.3 29:13.8 9:24 M 44 Canton United States
1600 Bienvenu,Kesner 4305 32:20.6 29:59.9 9:39 M 33 Chicago IL
1601 Borton,Allen 4370 32:22.0 31:00.8 9:59 M 53 Ann Arbor MI
1602 Nkansah-andoh,Ama 8661 32:22.2 31:56.9 10:17 F 44 Ann Arbor MI
1603 Nkansah-andoh,Afua 8660 32:22.4 31:57.6 10:17 F 9 Ann Arbor MI
1604 Rosen,Gayle 7174 32:22.6 30:08.2 9:42 F 46 Ann Arbor MI
1605 Sanderson,Jenn 8757 32:22.7 29:56.4 9:38 F 32 Saline MI
1606 Mccoy,Maggie 8607 32:22.8 30:24.2 9:47 F 15 Ann Arbor MI
1607 Enos,Emily 5090 32:22.8 28:39.0 9:13 F 22 Ann Arbor United States
1608 Muzik,Jessica 6652 32:23.0 31:47.6 10:14 F 49 Ann Arbor MI
1609 Nawrocki,Heather 6676 32:23.0 31:48.1 10:14 F 23 Ann Arbor MI
1610 Johnson,Neil 8502 32:23.1 28:56.2 9:19 M 39 Ann Arbor MI
1611 Dorso,Kyle 4970 32:23.4 29:53.1 9:37 M 20 Milford United States Of Ame
1612 Myers,Christopher 6656 32:23.6 29:40.8 9:33 M 29 Ann Arbor MI
1613 Dwornick,Sean 8931 32:24.1 30:56.0 9:57 M 23 Brownstown MI
1614 Schultz,Callie 7335 32:24.2 31:50.4 10:15 F 16 Whitmore Lake MI
1615 Sieler,Samantha 9143 32:24.7 32:07.9 10:21 F 9
1616 Liron,Dustin 8970 32:24.8 31:03.4 10:00 M 29 Ann Arbor MI
1617 Magella,Gordon 6291 32:25.0 30:24.7 9:47 M 26 Ypsilanti MI
1618 Lengyel,Candice 6182 32:25.0 30:24.0 9:47 F 27 Ypsilanti MI
1619 Johnson,Richard 5833 32:25.0 30:32.0 9:50 M 63 South Lyon MI
1620 Dwornick,David 8930 32:25.9 30:57.8 9:58 M 52 Brownstown MI
1621 Phillips,Emily 8695 32:25.9 29:48.1 9:36 F 21 Ann Arbor MI
1622 Schneider,Christine 7311 32:26.0 31:41.7 10:12 F 61 Warren MI
1623 Wolf,Richard 8139 32:26.3 29:33.0 9:31 M 42 Richland MI
1624 Moehle,Andrea 8637 32:26.3 29:48.4 9:36 F 23 Ann Arbor United States
1625 Yang,Wenbo 8175 32:26.4 31:56.1 10:17 M 18 Ann Arbor MI
1626 Soenen,Sherry 7526 32:26.4 30:08.7 9:42 F 33 Canton MI
1627 Krajewski,Shelly 6042 32:26.5 28:25.9 9:09 F 30 Sterling Heights MI
1628 Stoner,Shawn 8803 32:27.3 30:17.2 9:45 M 39 Ann Arbor Washtenaw
1629 Mayer,Sylvique 9086 32:27.8 31:07.6 10:01 F 39
1630 Ritzel,Kerstin 9085 32:27.8 31:08.2 10:01 F 40
1631 Wright,Jamie 8163 32:28.1 30:33.2 9:50 F 18 Tecumseh MI
1632 Miller,Jamie 6521 32:28.3 30:10.1 9:43 M 35 Canton MI
1633 Carey,Amanda 4572 32:28.6 29:39.9 9:33 F 23 Ann Arbor MI
1634 Lewis,Carl 9357 32:28.6 29:43.3 9:34 M 29
1635 Pepper,Catherine 6881 32:28.6 29:39.8 9:33 F 31 Ann Arbor United States
1636 Stewart,Lauren 7592 32:29.0 28:26.8 9:09 F 28 Ann Arbor MI
1637 Hallstrom,Lars 8946 32:29.4 31:29.9 10:08 M 12 Ann Arbor MI
1638 Rieman,Julie 7106 32:29.4 28:29.1 9:10 F 30 Canton United States
1639 Hawkins,Tanner 5567 32:29.7 28:51.1 9:17 M 7 Clinton United States
1640 Hawkins,Russell 5566 32:29.8 28:51.1 9:17 M 35 Clinton United States
1641 Hallstrom,Anneka 8944 32:30.3 31:30.4 10:08 F 10 Ann Arbor MI
1642 Van Deren,Gunnar 8830 32:30.8 30:59.4 9:58 M 13 Plymouth MI
1643 Hallstrom,Kirsten 8945 32:30.9 31:30.7 10:09 F 41 Ann Arbor MI
1644 Van Deren,Shannon 8831 32:31.0 30:59.5 9:58 F 38 Plymouth MI
1645 Kwasniewicz,Mackenzie 8546 32:31.1 30:06.5 9:41 F 10 Novi MI
1646 Matz,Josh 6373 32:31.4 29:16.2 9:25 M 25 Ann Arbor MI
1647 Kwasniewicz,Suzanne 8547 32:31.4 30:06.0 9:41 F 42 Novi MI
1648 Lekas,Annalise 6167 32:31.5 28:55.6 9:19 F 19 Birmingham United States
1649 Dettling,Renee 4912 32:31.6 30:38.6 9:52 F 45 Manchester MI
1650 Johnson,Brenda 5818 32:31.6 30:59.3 9:58 F 57 Bloomington IN
1651 Matz,Becky 6372 32:31.7 29:16.8 9:25 F 25 Ann Arbor MI
1652 Boyce,Todd 9098 32:32.0 32:16.1 10:23 M 19
1653 Fritts,Kathleen 5266 32:32.4 30:11.0 9:43 F 30 Ann Arbor MI
1654 Haley,Kristina 5498 32:32.5 30:11.3 9:43 F 30 Dexter MI
1655 Norton,William 6736 32:32.6 31:27.5 10:08 M 12 Ann Arbor MI
1656 Matuszak,Nick 6366 32:32.6 32:09.7 10:21 M 9 Brighton United States
1657 Inman,Patty 8952 32:32.7 29:39.0 9:33 F 34 Grand Blanc MI
1658 Koman,Patricia 6007 32:32.9 31:27.5 10:08 F 25 Ann Arbor MI
1659 Brasher,Anthony 4414 32:33.2 29:16.3 9:25 M 35 Ann Arbor MI
1660 Whipple,Carolyn 8034 32:33.5 29:15.3 9:25 F 23 Ann Arbor MI
1661 Smotrich-barr,Dani 9152 32:33.6 31:26.6 10:07 F 11
1662 Frontier,Amy 5269 32:33.6 30:38.7 9:52 F 37 Ann Arbor MI
1663 Simon,Beth 7433 32:33.8 30:39.1 9:52 F 40 Ann Arbor MI
1664 Gough,Brendan 5410 32:33.9 32:00.1 10:18 M 11 Chesterfield MI
1665 Dawn,Dustin 4862 32:34.3 32:12.3 10:22 M 17 Monroe MI
1666 Masserant,Nicholas 6350 32:34.4 32:13.7 10:22 M 17 Monroe MI
1667 Dunietz,Barry 8926 32:34.5 30:59.1 9:58 M 41 Ann Arbor MI
1668 Lindstrom,Lori 6216 32:34.9 29:26.7 9:29 F 43 Southfield MI
1669 Dunietz,Liana 8927 32:34.9 30:59.4 9:58 F 10 Ann Arbor MI
1670 Matuszak,Jerry 6364 32:35.1 32:12.7 10:22 M 70 Ann Arbor MI
1671 Baird,Adam 4137 32:35.2 31:14.5 10:03 M 46 Dexter MI
1672 Zukowski,Joe 8251 32:35.2 29:04.0 9:21 M 47 Livonia United States
1673 Pomerance,Sheryl 6948 32:35.4 31:48.1 10:14 F 55 West Bloomfield MI
1674 Glass,Talia 5366 32:35.4 28:43.7 9:15 F 27 Ann Arbor MI
1675 Mooney,Carol 6571 32:35.7 30:48.7 9:55 F 48 Toledo OH
1676 Patnoude,Chelsea 6847 32:35.8 30:44.0 9:54 F 27 Apt 207 Mi
1677 Smotrich-barr,Avital 9153 32:35.8 31:28.0 10:08 F 13
1678 Woodby,Wendy 8151 32:36.1 31:23.0 10:06 F 19 Fenton MI
1679 Barr,Michael 9151 32:36.3 31:28.1 10:08 M 44
1680 Quiroga,Martha 7002 32:36.8 30:36.9 9:51 F 55 Temperance MI
1681 Halloran,Jude 5515 32:36.9 30:27.5 9:48 F 53 Ann Arbor U.S.
1682 Reichlmayr,Julie 7057 32:36.9 30:13.7 9:44 F 23 Ann Arbor MI
1683 Ellsworth,Ashlee 5078 32:37.2 29:55.6 9:38 F 23 E. Lansing MI
1684 Paterson,Kirby 6846 32:37.5 29:56.2 9:38 F 23 Ann Arbor MI
1685 Stump,Greg 7651 32:39.1 31:59.8 10:18 M 44 Chelsea United States
1686 Krach,Blaine 6040 32:39.2 30:01.8 9:40 F 19 Beverly Hills MI
1687 Dolan,Chris 4951 32:39.7 27:35.7 8:53 M 50 Birmingham MI
1688 Suazo,Dayana 7656 32:40.3 31:18.2 10:05 F 25 Ypsilanti MI
1689 Fisher,Kelly 5192 32:40.6 30:10.7 9:43 F 31 Macomb MI
1690 Sadler,Andrew 7255 32:40.9 29:36.4 9:32 M 35 Ann Arbor MI
1691 Sadler,Anya 7256 32:41.2 29:36.8 9:32 F 42 Ann Arbor MI
1692 Thompson,Elise 7750 32:41.8 29:28.5 9:29 F 21 Ann Arbor MI
1693 Latva,Rosa 6123 32:42.6 30:42.2 9:53 F 21 Ann Arbor MI
1694 Sabo,Debi 7252 32:42.8 30:41.3 9:53 F 21 Ann Arbor MI
1695 Lammers,Michelle 8549 32:43.4 30:15.3 9:44 F 31 Canton MI
1696 Sullivan,Cheryl 7665 32:43.6 30:58.6 9:58 F 53 Northville MI
1697 Cusatis,Tim 8354 32:43.6 30:15.2 9:44 M 52 Grand Blanc MI
1698 Williams,Audra 8089 32:43.7 29:30.5 9:30 F 20 Ann Arbor MI
1699 Nelson,Matt 6684 32:43.7 29:31.3 9:30 M 37 Ann Arbor MI
1700 Przygodski,Jenny 6985 32:43.8 30:16.0 9:45 F 32 Ann Arbor MI
1701 Mckenzie,William 6443 32:44.6 28:51.9 9:17 M 29 Ann Arbor MI
1702 Kibner,Adam 5941 32:45.2 28:26.8 9:09 M 21 Redford United States
1703 Mulder,Dawn 6617 32:45.5 31:07.2 10:01 F 61 Wyoming United States
1704 Chiano,Kara 8916 32:45.6 29:58.8 9:39 F 25 Grand Blanc MI
1705 Breaugh,Melissa 4419 32:45.6 31:39.2 10:11 F 20 Ann Arbor United States
1706 Mccartney,Tom 6401 32:45.7 30:22.9 9:47 M 62 Saline MI
1707 Ballien,Lisa 4161 32:46.0 29:36.7 9:32 F 44 Ferndale MI
1708 Hunt,Melissa 8951 32:46.1 29:59.1 9:39 F 25 Grand Blanc MI
1709 Ettenson,Kara 5109 32:46.6 29:18.6 9:26 F 34 Ann Arbor MI
1710 Knieper,Wayne 5988 32:46.9 30:18.8 9:45 M 68 Frankenmuth United States
1711 Vitale,Trevor 7907 32:47.3 32:30.1 10:28 M 7 Monroe MI
1712 Beard,Kristen 4207 32:48.2 29:43.9 9:34 M 30 Belleville MI
1713 Collins,Mike 4699 32:48.6 31:54.1 10:16 M 45 Ann Arbor MI
1714 Jansson,Owen 5791 32:48.9 30:21.9 9:46 M 66 Ann Arbor U.S.
1715 Holmes,Michael 5688 32:48.9 31:40.4 10:12 M 32 Kalamazoo United States
1716 Martin,Bill 6336 32:48.9 30:32.5 9:50 M 65 Ann Arbor MI
1717 Carvette,Grace 4597 32:49.5 32:45.5 10:33 F 9 Ann Arbor MI
1718 Sicklesteel,Aex 7413 32:49.5 30:17.4 9:45 M 11 South Lyon MI
1719 Carvette,Brian 4596 32:49.8 32:45.5 10:33 M 38 Ann Arbor MI
1720 Judge,Jordan 8512 32:49.9 28:53.8 9:18 F 23 Riverview United States
1721 Fisher,Lisa 5193 32:50.1 30:43.8 9:53 F 31 Plymouth MI
1722 Schlagenhart,Amanda 9465 32:50.1 30:57.8 9:58 F 20 Ann Arbor MI
1723 Macdonald,Lisa 6277 32:50.4 30:22.4 9:47 F 30 Livonia MI
1724 Roy,Kristen 7200 32:50.4 29:56.0 9:38 F 29 Ferndale United States
1725 Roy,Thomas 7201 32:50.5 29:55.8 9:38 M 28 Ferndale United States
1726 Wolnnin,Brian 9334 32:50.6 28:54.5 9:18 M 0
1727 Talsma,Isabel 9055 32:50.7 32:07.1 10:20 F 19
1728 Pschigoda,Sara 8713 32:50.8 29:43.0 9:34 F 31 Ann Arbor MI
1729 Harris,Sidney 9461 32:50.9 30:41.0 9:53 M 22 Ann Arbor MI
1730 Gordon,Kendall 5400 32:51.2 30:59.1 9:58 F 19 Chicago IL
1731 Chakarova,Larissa 9460 32:51.3 30:41.0 9:53 F 22 Ann Arbor MI
1732 Hoban,Timothy 5665 32:52.6 29:26.9 9:29 M 49 Ann Arbor MI
1733 Leyton,Aimee 6208 32:53.1 30:46.6 9:54 F 28 Ann Arbor MI
1734 Seeley,Andrea 7359 32:53.3 30:46.6 9:54 F 26 Ann Arbor MI
1735 Kraus,Ingrid 6049 32:53.5 30:46.4 9:54 F 27 Ann Arbor MI
1736 Brummett,Sara 4474 32:53.5 30:46.6 9:54 F 28 Ann Arbor MI
1737 Phillips,Tj 6919 32:54.0 29:22.0 9:27 M 63 Traverse City United States
1738 Ryan,Brock 7245 32:54.9 29:32.6 9:31 M 8 Sheridan MI
1739 Oemke,Kathleen 6760 32:55.1 31:11.6 10:02 F 60 Howell MI
1740 Petronio,Kyle 6906 32:56.2 28:39.9 9:14 M 11 Brighton MI
1741 Goodyear,Michael 5398 32:56.4 30:30.4 9:49 M 49 Ann Arbor MI
1742 Riegger,Otto 7105 32:56.9 31:55.6 10:17 M 74 Ann Arbor MI
1743 Raju,Jainagaraj 7011 32:56.9 29:31.0 9:30 M 41 Novi MI
1744 Musch,Steven 6648 32:56.9 30:07.8 9:42 M 26 Ypsilanti MI
1745 Mulder,Ray 6618 32:57.7 31:19.2 10:05 M 60 Wyoming United States
1746 Koch,Heather 8538 32:57.8 31:36.3 10:10 F 36 Ypsilanti MI
1747 Goerlitz,Lisa 8939 32:58.1 30:28.5 9:49 F 33 Saline United States
1748 Pandey,Gaurav 6819 32:58.5 31:06.8 10:01 M 27 Ann Arbor MI
1749 Katende,Rusty 9238 32:58.5 32:21.2 10:25 M 18
1750 Ryan,Brandy 7244 32:58.5 29:36.6 9:32 F 35 Sheridan MI
1751 Johnson,Ann 8497 32:59.4 31:12.3 10:03 F 35 Dearborn MI
1752 Pangborn,Annie 6821 32:59.5 32:35.3 10:29 F 18 Three Rivers United States Of Ame
1753 Maroudis,Rebecca 6328 33:00.7 32:35.9 10:30 F 30 Waterford MI
1754 Schwartz,Jenny 7339 33:00.8 30:02.0 9:40 F 30 West Bloomfield MI
1755 Bandfield,Katie 4164 33:01.1 31:15.6 10:04 F 28 Jackson MI
1756 Matuszak,Rosie 6367 33:01.7 32:11.0 10:22 F 66 Ann Arbor MI
1757 O'brien,Margaret 8663 33:01.8 31:14.5 10:03 F 44 Pinckney MI
1758 Burkhart,Katir 4513 33:02.4 30:10.2 9:43 F 23 Whitmore Lake MI
1759 Ungrodt,Laura 7826 33:02.4 30:10.7 9:43 F 28 Dexter MI
1760 Demeuse,Shelby 4891 33:02.4 28:10.0 9:04 F 17 Howell MI
1761 Richard,Tara 9471 33:03.2 29:57.0 9:38 F 38 Ann Arbor United States
1762 Hill,Glenn 5641 33:03.8 30:23.0 9:47 M 40 Ann Arbor MI
1763 Hoben,Jimmy 5666 33:04.2 29:54.5 9:38 M 29 Maumee OH
1764 Becher,Cory 4215 33:04.2 29:54.1 9:37 M 19 Granville United States
1765 Elliott,Danielle 5072 33:05.0 32:33.8 10:29 F 34 Williamsville United States
1766 Lemmen,Lindsey 6177 33:05.2 32:14.8 10:23 F 21 Holland MI
1767 Garg,Anjali 5299 33:05.4 31:49.5 10:15 F 21 Wyandotte MI
1768 Thomson,Jeremiah 7754 33:06.8 29:22.6 9:27 M 27 Farmington Hills MI
1769 Caulfield,Sueann 4609 33:07.0 32:23.6 10:26 F 48 Ann Arbor MI
1770 Vasquez,Dante 9403 33:07.2 29:19.3 9:26 M 30 Ann Arbor MI
1771 Wonnacott,Caitlin 8142 33:07.4 30:33.6 9:50 F 11 Ypsilanti MI
1772 Mckenna,John 6440 33:07.4 32:34.5 10:29 M 19 Novi United States
1773 Wonnacott,Rob 8143 33:08.0 30:34.6 9:50 M 39 Ypsilanti MI
1774 Cuevas,Jonathan 4785 33:08.2 30:59.9 9:59 M 21 Ann Arbor MI
1775 Herron,Olivia 5614 33:09.5 30:14.1 9:44 F 19 Brighton MI
1776 Le Potttier,Ben 8558 33:09.6 32:07.6 10:20 M 7 Ann Arbor MI
1777 Ruhlig,Gary 7206 33:09.6 30:01.2 9:40 M 47 Grand Rapids United States
1778 Noble,Bub 8662 33:09.7 28:32.8 9:11 F 18 Saline MI
1779 Hines,Lindsey 5651 33:10.1 30:24.0 9:47 F 27 Ann Arbor MI
1780 Galea,Mike 5287 33:10.1 30:09.6 9:42 M 61 Ann Arbor United States
1781 Szurek,Ed 8811 33:10.1 29:56.5 9:38 M 24 Brighton MI
1782 Monchamp,Robert 8641 33:10.2 30:24.0 9:47 M 35 Ann Arbor MI
1783 Jones,Ken 5843 33:10.6 27:43.5 8:55 M 49 South Lyon Oakland
1784 Pratt,Todd 6960 33:10.6 30:27.1 9:48 M 29 Big Rapids America
1785 Reichlmayr,Jeffrey 8728 33:11.0 30:48.3 9:55 M 17 South Lyon MI
1786 Harrell,Jim 5538 33:11.2 30:24.3 9:47 M 44 Niles MI
1787 Heidorn,Grace 5587 33:11.6 28:13.9 9:05 F 12 Ann Arbor U.S.A.
1788 Ruttkofsky,Vicki 7240 33:12.3 31:44.8 10:13 F 33 Adrian MI
1789 Al-Kharsa,Safia 9173 33:12.3 32:42.2 10:32 F 26
1790 Perez,Lisa 6884 33:12.6 31:25.0 10:07 F 42 Pinckney MI
1791 Hill,Brian 5639 33:12.6 27:25.3 8:50 M 28 Ypsilanti MI
1792 Reader,Nicholas 9224 33:12.9 28:21.3 9:08 M 23
1793 Penski,Cindi 6878 33:13.6 30:22.5 9:47 F 42 Holt United States
1794 Hornyak,Annamaria 5703 33:14.0 28:58.5 9:20 F 45 Ann Arbor MI
1795 Granger,Brian 5420 33:14.1 29:48.6 9:36 M 29 Royal Oak MI
1796 Hernandez,Ann 5611 33:14.3 29:58.9 9:39 F 26 Ann Arbor MI
1797 Napolitan,Michael 6665 33:14.5 32:25.9 10:26 M 45 Ann Arbor MI
1798 Willatt,Lily 8082 33:14.6 31:42.1 10:12 F 10 Ann Arbor MI
1799 Hagedorn,Katrina 5493 33:14.8 29:55.8 9:38 F 45 Ann Arbor MI
1800 Garza,Steven 5312 33:14.9 31:05.0 10:00 M 47 Saginaw MI
1801 Snuverink,Laura 7519 33:15.6 30:07.1 9:42 F 41 Ann Arbor United State
1802 Stark-nemon,Barbara 7569 33:16.0 32:45.6 10:33 F 60 Ann Arbor United States
1803 Schwegler,Lyndsey 7341 33:16.0 29:49.7 9:36 F 29 South Lyon MI
1804 Cobb,Jeff 4680 33:16.1 31:31.5 10:09 M 45 Howell MI
1805 Rupp,Jenna 7217 33:16.2 30:01.7 9:40 F 41 Ypsilanti MI
1806 Soda,Lisa 7525 33:16.3 30:11.0 9:43 F 37 Rockford MI
1807 Renaud,Jeff 7068 33:17.0 29:34.9 9:31 M 40 Dexter MI
1808 Baird,Jean 4138 33:17.2 31:56.6 10:17 F 43 Dexter MI
1809 Mcallister,James 6393 33:17.3 31:48.7 10:14 M 49 Dexter MI
1810 Halberstam,Alexandra 8447 33:18.0 31:45.7 10:13 F 10 Ann Arbor MI
1811 Walters,Jeff 7952 33:18.1 29:10.4 9:23 M 39 Ann Arbor MI
1812 Tzalel,Elena 8827 33:18.2 31:45.6 10:13 F 10 Ann Arbor MI
1813 Brunwasser,Kaite 4476 33:18.3 31:29.4 10:08 F 32 Ann Arbor MI
1814 Boxeth,Dan 4390 33:18.3 28:06.9 9:03 M 40 Ann Arbor MI
1815 Narge,Ronald 6668 33:19.1 32:10.8 10:21 M 13 Berrien Springs MI
1816 Bachynski,Jennifer 4124 33:19.4 30:40.8 9:52 F 37 Troy MI
1817 Huaringa,Maria 5719 33:19.9 32:12.1 10:22 F 25 Berrien Springs MI
1818 Marcano,Blanca 6320 33:19.9 32:12.4 10:22 F 16 Stevensville MI
1819 Gonzalez,Emmanuel 5389 33:20.6 33:16.1 10:42 M 15 Berrien Springs MI
1820 Livingston,Laura 8566 33:20.9 32:08.7 10:21 F 41 Ann Arbor MI
1821 Livingston,Madeleine 8567 33:20.9 32:08.9 10:21 F 13 Ann Arbor MI
1822 Craddick,Christa 4759 33:21.5 30:04.2 9:41 F 23 Belleville MI
1823 Mathis,Jacqueline 9280 33:21.7 31:42.1 10:12 F 0
1824 Knuth,Erik 9278 33:21.8 31:42.1 10:12 M 40
1825 Knuth,Cynthia 9279 33:21.9 31:42.7 10:12 F 36
1826 Karth,David 9277 33:22.1 31:41.9 10:12 M 48
1827 Mckanna,Trudy 6437 33:22.3 30:17.0 9:45 F 34 Rockford MI
1828 Scott,Lucy 7346 33:23.2 30:18.8 9:45 F 8 Ann Arbor MI
1829 Reynolds,Jessica 7080 33:23.3 29:19.0 9:26 F 22 Jackson MI
1830 Markham,Cathy 6325 33:23.6 31:53.8 10:16 F 42 Brighton MI
1831 Hozak,Doug 8479 33:23.6 30:26.0 9:48 M 46 Plainwell MI
1832 Markham,Rick 6326 33:23.8 31:54.3 10:16 M 43 Brighton MI
1833 Underwood,Shelley 7825 33:24.1 32:24.3 10:26 F 32 Northville MI
1834 Atkinson,Sarah 8270 33:24.7 31:32.2 10:09 F 20 Ann Arbor MI
1835 Siminovich,Sandro 9294 33:24.9 31:58.9 10:18 M 38
1836 Atkinson,Paige 8269 33:25.3 31:32.5 10:09 F 16 West Bloomfield MI
1837 Byker,Tanya 8912 33:25.4 30:50.9 9:56 F 38 Ann Arbor MI
1838 Phair,Bas 8997 33:25.6 30:50.8 9:56 M 10 Ann Arbor MI
1839 Kalish,Molly 5871 33:26.3 30:24.5 9:47 F 24 Royal Oak MI
1840 Jackson,Shannon 5773 33:26.4 31:37.2 10:11 F 21 Howell MI
1841 Lowe-jackson,Patricia 6243 33:27.2 31:37.7 10:11 F 52 Howell MI
1842 Robinson,Christina 7140 33:27.2 30:59.7 9:59 F 32 Ann Arbor MI
1843 Johnson,Mark 5830 33:28.1 31:54.3 10:16 M 32 Marshall United States
1844 Babbitt,Tim 9289 33:28.3 31:12.7 10:03 M 0
1845 Shirley,Annabeth 7407 33:28.7 28:06.1 9:03 F 21 Ann Arbor United States
1846 Maziasz,Rich 6387 33:28.8 31:49.7 10:15 M 45 Troy MI
1847 Stites,Sydney 7609 33:29.2 28:34.0 9:12 F 12 Ann Arbor MI
1848 Early,Jason 5036 33:29.7 31:12.8 10:03 M 36 East Lansing MI
1849 Harrel-king,Tricia 8457 33:30.0 31:26.2 10:07 F 40 Norwalk OH
1850 Zand,Roya 8885 33:30.1 32:23.7 10:26 F 20 Ann Arbor MI
1851 Younger,John 8880 33:30.1 27:16.9 8:47 M 43 Ann Arbor MI
1852 Nordman,Colin 6730 33:30.5 30:34.7 9:51 M 21 White Lake MI
1853 Thurn,Kathleen 7766 33:30.7 31:37.0 10:11 F 45 Plymouth MI
1854 Falk,Corey 5137 33:30.8 29:33.1 9:31 M 35 Grand Rapids MI
1855 Gwozdek,Ellen 5482 33:30.8 30:28.9 9:49 F 20 Plymouth United States
1856 Adams,Niki 4022 33:30.8 32:57.8 10:37 F 39 Parma MI
1857 Stoner,Cathy 8802 33:30.9 31:21.0 10:05 F 40 Ann Arbor Washtenaw
1858 Geusens,Petra 5342 33:31.1 30:13.6 9:44 F 40 Ann Arbor MI
1859 Hsu,Jenny 5716 33:31.2 30:13.5 9:44 F 40 Ann Arbor MI
1860 Hubbard,Deb 9452 33:31.2 30:03.1 9:40 F 45 Chelsea MI
1861 Duerst,Marley 5010 33:31.3 31:41.6 10:12 F 11 Ann Arbor United States
1862 Hess,Ann 9414 33:31.4 30:13.9 9:44 F 35 Ann Arbor MI
1863 Szalay,Kari 7701 33:31.4 33:07.7 10:40 F 10 Saline MI
1864 Welch,William 8006 33:31.8 29:47.1 9:35 M 59 Livonia MI
1865 Garfinkle,Jan 5298 33:31.9 29:16.1 9:25 F 52 Ann Arbor MI
1866 Chang,Emma 4621 33:32.0 31:41.7 10:12 F 11 Ann Arbor United States
1867 Bottini,Dave 8293 33:32.1 31:33.3 10:09 M 33 Brownstown MI
1868 Patterson,Jimmy 6852 33:32.6 31:55.2 10:16 M 16 Farmington MI
1869 Maziasz,Keith 9419 33:33.1 31:54.3 10:16 M 43 Troy MI
1870 Coral,Sharon 4731 33:33.4 32:16.7 10:23 F 47 South Lyon MI
1871 Switalski,Carol 7698 33:33.6 32:16.9 10:23 F 56 Grosse Pointe Park MI
1872 Dyer,Sam 5028 33:33.7 31:59.6 10:18 M 21 Chelsea United States
1873 Kreinbrink,Lauren 6054 33:33.9 31:59.7 10:18 F 19 Ludington United States
1874 Gonzalez-cota,Alan 8436 33:34.0 29:36.8 9:32 M 31 Ann Arbor MI
1875 Opipari III,Anthony 6791 33:34.1 32:28.8 10:27 M 14 Dexter MI
1876 Thornton,Rachel 7759 33:34.4 29:59.3 9:39 F 15 Ypsilanti MI
1877 Luckett,Amelia 8573 33:34.5 29:36.3 9:32 F 31 Ann Arbor MI
1878 Hsu,Daniel 5714 33:34.6 30:58.1 9:58 M 28 Ann Arbor MI
1879 Stoel,Jeffrey 7614 33:34.7 30:19.0 9:45 M 26 Lansing United States
1880 Bradford,Kelly 4401 33:34.9 31:25.5 10:07 F 20 Ann Arbor United States
1881 Saitta,Emily 7260 33:35.2 30:38.9 9:52 F 20 Ann Arbor MI
1882 Dobski,Jeanise 4948 33:35.4 31:26.0 10:07 F 20 Ann Arbor United States
1883 Clark,William 4676 33:35.4 32:22.8 10:25 M 54 Belding United States
1884 Matson,Brittany 6361 33:35.7 31:57.0 10:17 F 19 Troy MI
1885 Watson,William 8852 33:35.9 32:28.6 10:27 M 36 Brighton MI
1886 Aronow,Joshua 8896 33:36.2 32:12.5 10:22 M 8 Ann Arbor MI
1887 Cap,Samantha 4570 33:36.4 31:07.8 10:01 F 21 East Lansing United States
1888 Patterson,Karyn 6854 33:36.8 31:59.3 10:18 F 43 Farmington MI
1889 Marco,Daniel 9323 33:37.1 28:31.3 9:11 M 36
1890 Shaw,Alicia 7382 33:37.2 31:58.7 10:18 F 30 Commerce Twp MI
1891 Sandler,Stuart M 7277 33:38.4 31:51.1 10:15 M 36 Ann Arbor MI
1892 Neill,Sara 6680 33:38.5 32:36.7 10:30 F 25 Ann Arbor MI
1893 Kull,David 8543 33:38.5 29:58.1 9:39 M 43 Dexter MI
1894 Pease,Sheryl 6865 33:38.9 31:51.6 10:15 F 35 Whitmore Lake MI
1895 Frimenko,Hilary 5264 33:38.9 32:08.2 10:21 F 21 Northville MI
1896 Bleckman,Johanna 4327 33:38.9 28:33.7 9:12 F 30 Ann Arbor MI
1897 Bleckman,Marc 4328 33:39.1 28:33.8 9:12 M 34 Ann Arbor MI
1898 Rodriguez,Karen 9328 33:39.4 32:38.4 10:30 F 23
1899 Throesch,Forrest 7764 33:39.7 30:03.6 9:40 M 26 Zeeland MI
1900 Lisker,David 6219 33:39.9 32:21.1 10:25 M 35 Monroe MI
1901 Kuhr,Kim 6071 33:40.0 31:12.0 10:03 F 36 Lambertville MI
1902 Frimenko,Jacob 5265 33:40.0 32:09.5 10:21 M 56 Northville MI
1903 Koning-randall,Kimberly 6012 33:40.1 31:41.7 10:12 F 44 Whitmore Lake MI
1904 Martin,Alexis 8596 33:40.3 32:21.0 10:25 F 16 Oakland Twp MI
1905 Thelen,Marshall 7735 33:40.3 31:14.6 10:03 M 12 South Lyon MI
1906 Burdgick,Jennifer 4501 33:40.7 31:24.1 10:06 F 44 Highland MI
1907 Shaft,Broc 8779 33:40.9 31:01.3 9:59 M 29 Perry MI
1908 Voeks,Jenna 7908 33:41.8 30:58.2 9:58 F 20 Ann Arbor United States
1909 Foley,Jessica 5219 33:41.9 29:39.2 9:33 F 30 Ann Arbor MI
1910 Barr,Kate 4182 33:42.2 29:39.2 9:33 F 28 Ann Arbor MI
1911 Little,Stephen 6220 33:42.3 32:51.7 10:35 M 46 South Lyon MI
1912 Kerska,Katerina 8526 33:42.3 30:59.9 9:59 F 13 Ann Arbor MI
1913 Maier,Karin 6296 33:42.4 33:11.2 10:41 F 35 Macomb MI
1914 Carolin,Sean 4583 33:42.9 28:51.5 9:17 M 28
1915 Kerska,Stefanie 8527 33:42.9 31:00.5 9:59 F 42 Ann Arbor MI
1916 Braman,Brandon 9214 33:43.7 32:40.4 10:31 M 12
1917 Cadena,Lydia 9117 33:43.9 30:23.7 9:47 F 39
1918 Goodrich,Trey 5394 33:44.4 30:07.9 9:42 M 42 Dexter MI
1919 Smith,Lisa 7497 33:44.5 32:49.9 10:34 F 36 Owosso MI
1920 Mcnair,Sarah 6450 33:44.9 32:49.8 10:34 F 28 Portland United States
1921 Whitman,James 8055 33:45.0 32:21.1 10:25 M 65 ST. Clair Shores MI
1922 Forman,Gabrielle 8409 33:45.5 31:26.3 10:07 F 10 Ann Arbor MI
1923 Dalton,Cammie 9171 33:45.6 31:24.5 10:07 F 10
1924 Roedel,Brooklynn 7150 33:45.9 31:41.7 10:12 F 11 Livonia MI
1925 Meloche,David 6470 33:46.1 31:31.8 10:09 M 45 Windsor Canada
1926 Roedel,Kaleb 7151 33:46.3 31:42.2 10:12 M 26 Ann Arbor MI
1927 Hogan,Leanne 5679 33:46.5 33:00.3 10:37 F 24 Ann Arbor United States
1928 Ver Kuilen,Nicole 7886 33:46.6 29:16.5 9:25 F 19 Ann Arbor MI
1929 Mandel,Caroline 6313 33:46.9 31:54.7 10:16 F 44 Ann Arbor MI
1930 Perpich,Liz 6889 33:47.0 31:54.7 10:16 F 48 Ann Arbor United States
1931 Olson,Denise 6775 33:47.0 32:38.6 10:30 F 40 Ypsilanti MI
1932 Kelley,Jeff 5908 33:47.2 31:06.6 10:01 M 24 Farmington Hills MI
1933 Shipe,Dennis 7405 33:47.6 30:16.7 9:45 M 50 Battle Creek MI
1934 Newton,Andrew 6699 33:48.0 30:50.9 9:56 M 36 Ypsilanti MI
1935 Kasper,Nicole 5885 33:48.1 31:01.9 9:59 F 26 Ann Arbor MI
1936 Shipe,Ayn 7404 33:48.1 10:53 F 63 Battle Creek MI
1937 Newton,Hayden 6700 33:48.2 30:51.6 9:56 M 7 Ypsilanti MI
1938 Ruhe,Matthew 7205 33:48.2 28:30.9 9:11 M 28 Mansfield United States
1939 Rathjen,Darcy 7030 33:48.3 32:21.2 10:25 F 44 Ann Arbor MI
1940 Ruhe,Adrienne 7204 33:48.6 28:31.5 9:11 F 27 Mansfield United States
1941 Morgan,Anna 9075 33:49.1 32:22.4 10:25 F 38
1942 Flanders,Brooke 5205 33:49.3 29:53.1 9:37 F 35 Paw Paw MI
1943 Russell,Carrie 7224 33:50.9 31:53.4 10:16 F 31 Loveland OH
1944 Hughes,Philip 5735 33:51.0 10:54 M 43 Ann Arbor United States
1945 Jackson,Shaun 5774 33:51.0 31:53.4 10:16 M 61 Ann Arbor MI
1946 Hughes,Kimberly 5734 33:51.0 10:54 F 43 Ann Arbor United States
1947 Hughes,Alexander 5733 33:51.1 32:52.2 10:35 M 12 Ann Arbor United States
1948 Jessop,Aj 9115 33:51.7 29:45.2 9:35 M 12
1949 Flood,Megan 5216 33:51.8 31:49.6 10:15 F 22 Sturgis MI
1950 Reed,Sam 8727 33:51.9 33:17.0 10:43 M 17 Dexter United States
1951 Stoner,Jamie 7620 33:52.1 30:37.7 9:51 F 41 Onsted MI
1952 Van Doren,Alexandra 7846 33:52.2 29:26.6 9:29 F 38 Ann Arbor MI
1953 Olson,John 6777 33:52.3 32:38.1 10:30 M 29 Plymouth United States
1954 Lavery,Laurel 9345 33:53.4 32:51.3 10:34 F 0
1955 Meija-ham,Ilze 6463 33:54.8 32:03.1 10:19 F 38 Ann Arbor U.S.A.
1956 Gordon,Martha 5402 33:55.0 30:47.3 9:55 F 40 Ann Arbor MI
1957 Coffin,Sarah 4684 33:55.0 32:03.7 10:19 F 28 Ypsilanti U.S.A
1958 Held,Lindsay 5597 33:55.7 31:40.6 10:12 F 33 Dearborn Heights U.S.
1959 Levinger,Amy 6197 33:56.1 30:20.3 9:46 F 19 Omaha United States
1960 Thelen,Brian 7734 33:56.3 31:30.1 10:08 M 42 South Lyon MI
1961 Eymann,Tim 5125 33:56.5 30:51.2 9:56 M 29 Ann Arbor United States
1962 Yang,Hengxi 9125 33:56.6 29:16.3 9:25 M 25
1963 Ho,Peter 5660 33:56.7 31:18.4 10:05 M 34 Ann Arbor MI
1964 Strange-laetsch,Cheryl 7628 33:57.6 32:24.5 10:26 F 51 Grass Lake MI
1965 Cook,Jody 4722 33:58.2 31:58.4 10:17 F 20 Howell MI
1966 Delorenzo,Dawn 4888 33:58.3 32:20.0 10:24 F 39 Livonia MI
1967 Vides,Wanda 8837 33:58.6 32:35.1 10:29 F 27 Ann Arbor MI
1968 Proctor,Julia 6977 33:59.3 30:17.0 9:45 F 27 Ann Arbor U.S.A
1969 Mandel,Hailey 6314 33:59.8 32:09.9 10:21 F 11 Ann Arbor MI
1970 Rae,Rebecca 8719 33:59.9 27:30.0 8:51 F 32 Ann Arbor MI
1971 Rawak,Chrissi 7034 34:00.2 31:19.8 10:05 F 40 Ann Arbor MI
1972 Baker,Chris 4144 34:01.8 30:42.8 9:53 M 42 Wixom MI
1973 Johnston,Dan 5838 34:02.7 32:13.8 10:22 M 50 Pinckney MI
1974 Schade,Vanessa 7295 34:03.1 28:05.5 9:02 F 17 Ann Arbor MI
1975 Schade,Oliver 7294 34:03.2 28:05.2 9:02 M 43 Ann Arbor MI
1976 Gerych,Christina 5341 34:03.6 30:47.6 9:55 F 39 Brighton MI
1977 Charpie,John 8325 34:03.7 32:32.2 10:28 M 48 Ann Arbor MI
1978 Ramani,Biswa 9349 34:03.9 31:03.5 10:00 M 23
1979 Charpie,Christine 8323 34:03.9 32:32.5 10:28 F 11 Ann Arbor MI
1980 Harlan,Mary 5535 34:04.1 31:22.6 10:06 F 30 Ann Arbor United States
1981 Hall,Kyle 5505 34:04.1 32:50.0 10:34 M 10 Ann Arbor MI
1982 Brubaker,Sherry 4470 34:04.2 31:25.7 10:07 F 29 Ypsilanti MI
1983 Radovcic,Davorka 8718 34:04.7 29:38.6 9:32 F 30 Ann Arbor MI
1984 Sarringhaus,Lauren 8765 34:04.8 29:38.0 9:32 F 29 Ann Arbor MI
1985 Moffitt,Rosalind 6561 34:04.8 30:07.4 9:42 F 48 Ypsilanti MI
1986 Pav,Brent 8685 34:04.8 29:38.9 9:33 M 35 Ann Arbor MI
1987 Mouton,Jeffry 8644 34:05.5 29:38.6 9:32 M 31 Ann Arbor MI
1988 Beck,Angela 4216 34:05.7 32:56.8 10:36 F 32 Ypsilanti MI
1989 Irwin,Jessica 5760 34:06.1 31:17.9 10:04 F 21 Chesterfield MI
1990 Erkkinen,Elizabeth 5099 34:06.6 27:54.2 8:59 F 13 Ann Arbor MI
1991 Gingras,Allison 8430 34:06.9 30:14.8 9:44 F 30 Ann Arbor MI
1992 Erkkinen,Tom 5100 34:07.2 27:55.1 8:59 M 45 Ann Arbor MI
1993 Durussel-jones,Heather 5022 34:07.2 30:14.4 9:44 F 30 Manchester United States
1994 Vile,Richard 8840 34:07.4 29:22.2 9:27 M 67 Dexter MI
1995 Przybylski,Matt 6983 34:07.4 33:20.2 10:44 M 47 Grand Blanc MI
1996 Lane,Nick 9365 34:07.7 29:04.4 9:21 M 19
1997 Noetzel,Rob 6725 34:07.9 33:08.4 10:40 M 41 Decatur United States
1998 Noetzel,David 6724 34:07.9 33:07.9 10:40 M 10 Decatur United States
1999 Bassett,Zachary 4192 34:08.1 32:33.2 10:29 M 7 Ann Arbor United States
2000 Bassett,John 4190 34:08.7 32:33.7 10:29 M 38 Ann Arbor United States
2001 Throesch,Deanna 7763 34:08.7 30:32.7 9:50 F 25 Zeeland MI
2002 Smead,Stacy 7473 34:09.0 30:32.0 9:50 F 27 Holland MI
2003 Cunningham,Andrea 4796 34:09.2 32:56.4 10:36 F 27 Ann Arbor MI
2004 Johnson,Lisa 8501 34:09.7 33:05.1 10:39 F 49 Ann Arbor MI
2005 Drake,Michael 4994 34:09.8 27:16.6 8:47 M 36 Ann Arbor MI
2006 Johnson,Frank 8499 34:09.9 33:04.7 10:39 M 59 Ann Arbor MI
2007 Hall,Thomas 5511 34:10.3 32:41.5 10:31 M 43 Highland MI
2008 Valentine,Bryan 7840 34:10.8 30:06.8 9:42 M 26 South Lyon MI
2009 Khraizat,Ali 5939 34:11.2 32:04.4 10:19 M 32 Dearborn MI
2010 Patterson,Christa 6850 34:11.4 33:15.3 10:42 F 29 Ann Arbor MI
2011 Grimes,Anthony 5445 34:11.4 33:15.5 10:42 M 35 Ann Arbor MI
2012 Sitarski,Kristina 7448 34:12.5 29:36.9 9:32 F 27 Ann Arbor MI
2013 Bouladian,Teren 4380 34:12.9 30:51.0 9:56 F 27 Novi MI
2014 Ressler,Emily 7072 34:13.3 33:16.6 10:43 F 29 Ann Arbor MI
2015 Hall,Lori 5507 34:13.6 32:59.5 10:37 F 48 Ann Arbor MI
2016 O'toole,Emily 9133 34:13.8 31:13.4 10:03 F 22
2017 Taulbee,Jessica 7711 34:13.9 30:45.4 9:54 F 32 Temperance MI
2018 Campbell,Amanda 9267 34:14.0 31:11.7 10:02 F 23
2019 Hudson,Tara 5732 34:14.0 30:45.4 9:54 F 30 Temperance MI
2020 Weisman,David 7998 34:14.0 31:20.1 10:05 M 55 Ann Arbor MI
2021 Glass,Dennis 9447 34:15.0 30:39.9 9:52 M 12 Milan United States
2022 Savalian,Kelly 9344 34:15.5 30:22.2 9:47 F 44
2023 Cornelius,Debbie 4734 34:15.6 32:38.2 10:30 F 49 Pinckney MI
2024 Last,Sally 8552 34:16.7 32:10.5 10:21 F 25 Ann Arbor MI
2025 Kristiansen,Pia 6058 34:16.7 32:11.0 10:22 F 29 Ann Arbor MI
2026 Suladze,Giorgi 7661 34:16.9 32:11.0 10:22 M 23 Ann Arbor MI
2027 Romans,Lois 8744 34:17.3 30:09.1 9:42 F 51 South Lyon MI
2028 Bender,Bryan 4251 34:17.5 30:21.1 9:46 M 25 Northville MI
2029 Gurtowsky,Larry 5477 34:17.5 31:17.4 10:04 M 63 Ann Arbor MI
2030 Gurtowsky,Michael 5478 34:17.5 31:18.0 10:04 M 29 Dexter MI
2031 Stander,Taryn 7558 34:17.6 31:19.4 10:05 F 31 Troy MI
2032 Momeni,Jessica 6562 34:17.6 31:19.6 10:05 F 31 Novi United States
2033 Kaiser,Kristine 9169 34:17.8 31:11.0 10:02 F 28
2034 Specter,Lindsay 7542 34:18.6 31:22.8 10:06 F 21 Ann Arbor MI
2035 Germilhac,Joe 5337 34:18.6 30:27.3 9:48 M 48 Troy MI
2036 Gilbert,Jessica 5347 34:18.9 32:34.8 10:29 F 25 ST. Clair United States
2037 Mooreville,Mira 6582 34:19.7 32:09.7 10:21 F 21 Ann Arbor MI
2038 Berman,Stephanie 4283 34:19.8 32:09.9 10:21 F 21 West Bloomfield MI
2039 Romans,Nolan 7162 34:20.1 30:13.2 9:44 M 10 Brighton MI
2040 Romans,Kirk 7161 34:20.3 30:12.5 9:43 M 50 Brighton MI
2041 Romans,Tracey 7163 34:20.3 30:12.3 9:43 F 40 Brighton MI
2042 Hoban,Christopher 5662 34:21.2 30:55.3 9:57 M 13 Ann Arbor MI
2043 Maguire,Kathy 9059 34:21.4 31:53.6 10:16 F 0
2044 Reese,Garrett 7052 34:21.9 33:25.6 10:46 M 9 Brighton MI
2045 Kwok,Sofia 6090 34:22.1 32:03.1 10:19 F 9 Ann Arbor MI
2046 Pruner,Jenn 8712 34:22.4 32:15.6 10:23 F 21 Melvindale MI
2047 Davis,Shalaka 4857 34:23.5 29:40.4 9:33 F 37 Ypsilanti MI
2048 Reese,Shannon 7053 34:23.9 33:27.5 10:46 F 35 Brighton MI
2049 Storick,Sarah 9175 34:24.2 33:01.7 10:38 F 27
2050 Unrath,Lindsey 9176 34:24.3 33:01.6 10:38 F 27
2051 Schrot,Annabel 7333 34:25.2 33:07.9 10:40 F 47 Jackson MI
2052 Stroud,Leah 8806 34:25.6 32:42.3 10:32 F 9 Ann Arbor MI
2053 Telgen,Diane 7724 34:26.5 31:10.6 10:02 F 45 Canton United States
2054 Stroud,John 8805 34:26.6 32:43.5 10:32 M 38 Ann Arbor MI
2055 Wisniewski,Meera 8129 34:26.9 30:57.1 9:58 F 41 Ypsilanti United States
2056 Doner,Annika 4959 34:27.2 30:09.9 9:43 F 19 Ann Arbor United States
2057 Carroll,Todd 4587 34:29.2 32:55.9 10:36 M 42 Saline MI
2058 Paul-parsons,Muriel 6859 34:29.5 33:18.7 10:43 F 12 Ann Arbor MI
2059 Cornelius,Mariah 4735 34:29.7 32:51.8 10:35 F 10 Pinckney MI
2060 Rodgers,Maggie 9130 34:30.1 31:30.0 10:08 F 21
2061 Davidson,Bill 4835 34:30.5 29:32.4 9:30 M 49 Dexter MI
2062 Gunsberg,Ben 8445 34:30.8 29:01.0 9:20 M 36 Ann Arbor United States
2063 Schroeder,Kathy 7331 34:30.8 33:52.0 10:54 F 46 Holt MI
2064 Melnick,Andrea 6469 34:30.9 29:01.1 9:20 F 35 Ann Arbor United States
2065 Warner,Kevin 7961 34:30.9 33:52.3 10:54 M 54 Holt MI
2066 Mahalak,Brad 937 34:31.1 30:28.0 9:48 M 44 Saline MI
2067 Moore,Melanie 6578 34:31.6 30:11.1 9:43 F 52 Ypsilanti MI
2068 Accra,Stephen 4013 34:31.7 31:54.4 10:16 M 28 Dearborn MI
2069 Elkadri,Mohamed 5069 34:31.7 31:54.4 10:16 M 31 Dearborn United States
2070 Block,Shawn 4336 34:32.0 34:06.5 10:59 M 35 Flat Rock United States
2071 Anderson,Ashley 8263 34:32.5 29:43.9 9:34 F 20 Ann Arbor MI
2072 Paans,Alex 8680 34:32.5 29:43.7 9:34 F 20 Ann Arbor MI
2073 Abella,Isabel 4002 34:33.0 30:36.2 9:51 F 25 Northville MI
2074 Rieger,Alexis 7100 34:33.2 33:22.3 10:44 F 11 Allendale MI
2075 Richards,Annette 7086 34:33.6 29:36.2 9:32 F 27 Ann Arbor
2076 Merritt,Michael 6486 34:33.9 33:34.9 10:49 M 22 Perrinton MI
2077 Wainright,Megan 7930 34:34.6 33:22.1 10:44 F 24 Ypsilanti United States
2078 Forshee,Jim 5220 34:34.6 34:12.0 11:00 M 84 Ann Arbor MI
2079 Wainright,Stephanie 7931 34:34.6 33:22.2 10:44 F 24 Ypsilanti United States
2080 Black,David 4316 34:35.2 31:50.5 10:15 M 41 Commerce MI
2081 Moeller,Hannah Hunt 8638 34:35.5 32:42.2 10:32 F 20 Boulder CO
2082 Greathead,Mark 5428 34:35.6 31:29.2 10:08 M 37 Brownstown U.S.
2083 Moeller,Lou 8639 34:35.8 32:42.2 10:32 F 54 Boulder CO
2084 Neely,Brittany 6677 34:36.0 31:40.4 10:12 F 20 Ann Arbor MI
2085 Huang,Grace 5718 34:36.1 29:25.0 9:28 F 22 Ann Arbor MI
2086 Kaczynski,Katrina 9207 34:36.2 29:31.8 9:30 F 18
2087 Gerdes,Christine 5335 34:36.3 31:28.0 10:08 F 36 Saline MI
2088 Collins,Taylor 8342 34:36.6 33:38.1 10:50 F 20 Ann Arbor United States
2089 Langerman,Marlene 6116 34:36.6 31:32.0 10:09 F 44 Monroe MI
2090 Upton,Annie 9208 34:36.7 29:32.2 9:30 F 18
2091 Robertson,Tessa 7138 34:36.8 29:32.2 9:30 F 17 Ann Arbor MI
2092 Black,Benjamin 4315 34:37.1 31:52.6 10:16 M 14 Commerce MI
2093 Bottini,Elvia 8294 34:37.7 32:39.7 10:31 F 30 Brownstown MI
2094 Olivero,Richard 8670 34:37.9 31:54.7 10:16 M 29 Ann Arbor MI
2095 Jennings,Christopher 5806 34:38.2 31:29.1 10:08 M 22 Grand Blanc MI
2096 Coleman,Nicole 8340 34:38.2 31:07.3 10:01 F 26 Holly MI
2097 Lulko,Danielle 6254 34:38.5 32:38.8 10:30 F 22 Canton MI
2098 Lulko,Shelly 6255 34:38.8 32:38.6 10:30 F 48 Canton MI
2099 Mancini,Gary 8589 34:39.6 32:42.0 10:31 M 52 Canton MI
2100 Ross,Katy 7181 34:39.7 32:44.2 10:32 F 12 Ann Arbor MI
2101 Mancini,Amanda 8587 34:39.7 32:41.8 10:31 F 22 Canton MI
2102 Lampman,Brian 9097 34:40.3 33:44.7 10:52 M 37
2103 Mancini,Brandon 8588 34:40.3 32:42.2 10:32 M 25 Canton MI
2104 Gillon,Kristen 5361 34:40.6 34:12.2 11:01 F 28 Perrysburg OH
2105 Smith,Maggie 7499 34:40.6 32:06.2 10:20 F 56 Ann Arbor MI
2106 Lampman,Kale 9096 34:40.6 33:45.0 10:52 M 8
2107 Salamanca,Camila 9329 34:40.7 33:32.6 10:48 F 0
2108 Horntz,Stephanie 9194 34:41.1 31:05.5 10:00 F 0
2109 Forster,Kaitlin 5221 34:41.3 30:47.3 9:55 F 21 Plymouth U.S.A
2110 Sprauer,Leigh 7547 34:41.6 33:32.4 10:48 F 33 Ann Arbor MI
2111 Brasher,Isobelle 4415 34:41.8 31:25.1 10:07 F 8 Ann Arbor MI
2112 Le Pottier,Sophie 8557 34:42.6 33:39.7 10:50 F 10 Ann Arbor MI
2113 Lindblade,Kim 8562 34:42.8 32:02.2 10:19 F 38 Ann Arbor MI
2114 Milske,Maria 6544 34:42.9 31:39.1 10:11 F 14 Ann Arbor MI
2115 Lindblade,Sean 8563 34:43.1 32:01.5 10:18 M 38 Ann Arbor MI
2116 Rocha,Marcelo 9073 34:43.2 29:00.3 9:20 M 0
2117 Flanders,Tess 8405 34:43.6 31:57.4 10:17 F 11 Ann Arbor MI
2118 Kim,Jenny 9448 34:43.7 30:03.4 9:40 F 28 Ann Arbor United States
2119 Souweidane,Sara 9100 34:43.8 31:57.4 10:17 F 0
2120 Spangler,Karen 7539 34:43.9 30:53.7 9:57 F 25 Ann Arbor MI
2121 Montgomery,Kelly 6567 34:44.3 30:49.4 9:55 F 21 Ann Arbor United States
2122 Reyna,Tommy 7079 34:44.5 32:48.6 10:34 M 41 Ypsilanti MI
2123 Reyna,Dawn 7078 34:44.6 32:48.4 10:34 F 39 Ypsilanti MI
2124 Roeser-nordling,Logan 7157 34:45.0 30:16.9 9:45 M 9 Ann Arbor MI
2125 Willette-green,Molly 8084 34:45.1 30:12.8 9:43 F 21 Interlochen MI
2126 Mclean,Nahida 6447 34:45.9 33:14.8 10:42 F 38 Woodhaven MI
2127 Iacofano,Dawn 5746 34:45.9 33:19.8 10:44 F 39 Ypsilanti Washtenaw
2128 Wachtell,Jill 7916 34:46.1 31:43.1 10:13 F 46 Lambertville MI
2129 Yahr,Jeffrey 8874 34:46.1 33:19.9 10:44 M 40 Ann Arbor MI
2130 Gerathy,Patrick 5331 34:46.7 34:37.2 11:09 M 16 Highland MI
2131 Doud,Jennifer 4972 34:46.9 32:19.1 10:24 F 36 Plymouth United States
2132 Dormer,Doug 9187 34:47.2 31:11.4 10:02 M 0
2133 Sears,Charlie 7355 34:47.6 33:01.0 10:38 M 23 Ann Arbor MI
2134 Evans,Charles 9319 34:48.0 33:01.9 10:38 M 46
2135 Burek,Laura 4506 34:48.6 29:50.2 9:36 F 27 Canton United States
2136 Milgrom,Tedi 6513 34:48.9 30:22.9 9:47 F 23 Ann Arbor MI
2137 Taylor,Mike 7715 34:49.1 30:13.4 9:44 M 32 Ann Arbor MI
2138 Keener,Alix 5900 34:49.2 30:22.9 9:47 F 23 Ann Arbor MI
2139 Plaunt,Sandra 6934 34:49.7 29:51.0 9:36 F 43 Farmington Hills MI
2140 Paxton,Theresa 6862 34:50.1 31:20.5 10:05 F 25 Clio United States
2141 Grubbs,Seth 8443 34:50.3 30:56.0 9:57 M 11 Adrian MI
2142 Perrin,Kelli 6890 34:50.3 31:20.4 10:05 F 33 Flushing MI
2143 Schaffer,Katie 7299 34:50.7 33:05.2 10:39 F 39 Chelsea Washtenaw
2144 Dixon,Marjorie 4946 34:50.9 31:49.6 10:15 F 47 Ann Arbor MI
2145 Benson,Molly 4267 34:51.4 31:48.6 10:14 F 22 Ypsilanti MI
2146 Mccaslin,Erin 6402 34:51.6 30:33.6 9:50 F 23 Battle Creek MI
2147 Hage,Gloria 5492 34:51.8 31:44.7 10:13 F 49 Northville MI
2148 Dempsey,Caden 9260 34:51.9 31:16.2 10:04 M 8
2149 Kissel,Amber 5975 34:52.0 32:53.7 10:35 F 16 Allen Park United States
2150 Ryan,Gretchen 7246 34:52.2 31:05.3 10:00 F 52 Gurnee IL
2151 Shields,Teri 7402 34:52.6 32:31.3 10:28 F 54 Ann Arbor MI
2152 Hada,Manila 5484 34:52.9 28:52.6 9:18 F 27 Ann Arbor MI
2153 Kwok,Roland 6088 34:53.0 28:53.4 9:18 M 54 Ann Arbor MI
2154 Dempsey,John 9259 34:53.1 31:17.6 10:04 M 45
2155 Zacharias,Katie 8216 34:53.1 30:28.4 9:48 F 20 Sterling Heights United States
2156 Wegryn,Helena 7987 34:54.3 31:52.9 10:16 F 44 Ann Arbor MI
2157 Vitale,Sue 7906 34:54.3 34:35.2 11:08 F 41 Monroe MI
2158 Kelly,Zachary 9251 34:54.6 29:39.4 9:33 M 19
2159 Eyre,Meredith 9250 34:55.0 29:39.5 9:33 F 19
2160 Otero,Morgan 6805 34:55.4 31:50.3 10:15 F 12 Grand Blanc MI
2161 Erickson,Ted 5098 34:55.6 29:33.1 9:31 M 40 Ann Arbor MI
2162 Paez,Anabel 6815 34:55.9 31:24.0 10:06 F 21 Ann Arbor MI
2163 Leonard,Michelle 6187 34:55.9 32:40.0 10:31 F 30 Dearborn MI
2164 Bono,Greg 4360 34:56.2 31:41.8 10:12 M 43 Ypsilanti MI
2165 Slocum,Sam 7468 34:56.7 32:04.0 10:19 M 20 Holland MI
2166 Travis,Jennifer 7781 34:56.9 33:02.6 10:38 F 30 Ann Arbor MI
2167 Rieder,Elizabeth 7098 34:57.4 33:18.0 10:43 F 33 Westland MI
2168 Furlong,Dylan 5280 34:58.1 29:48.4 9:36 M 11 Ann Arbor United States
2169 Doescher,Kelly 4950 34:58.3 31:03.6 10:00 F 51 Metamora MI
2170 Fill,Michael 5184 34:58.3 32:26.7 10:27 M 31 Dexter MI
2171 Bravo,Daniela 4417 34:58.9 30:26.1 9:48 F 21 Ann Arbor MI
2172 Glaza,Jane 5367 34:59.3 31:05.7 10:00 F 30 Canton MI
2173 Schmidt,Maggie 7309 34:59.3 32:41.4 10:31 F 8 Ann Arbor MI
2174 Milske,Kathy 6543 34:59.7 31:55.9 10:17 F 47 Ann Arbor MI
2175 Restrepo,Vivian 7075 35:00.5 33:37.8 10:49 F 25 Ann Arbor MI
2176 Dionne,Jennifer 4943 35:00.8 31:19.4 10:05 F 34 Berkley MI
2177 Wipp,Kaine 8121 35:01.0 30:00.0 9:39 M 8 Jerome MI
2178 Hawn,Samantha 5572 35:02.0 30:33.2 9:50 F 9 Portage United States
2179 Amstutz,Andrew 4064 35:02.5 34:49.0 11:12 M 46 Ann Arbor MI
2180 Young-schmidt,Susan 8207 35:03.0 32:44.8 10:32 F 44 Ann Arbor MI
2181 Swanson,Jacilyn 7682 35:03.4 32:32.5 10:28 F 10 Oswego United States
2182 Crane,Jon 4766 35:03.7 33:25.9 10:46 M 48 Wyandotte MI
2183 Swanson,Jennifer 7687 35:03.7 32:33.2 10:29 F 38 Oswego United States
2184 Fisher,Holly 5190 35:04.1 31:09.2 10:02 F 32 Holt Ingham
2185 Conaway,Tiffany 4707 35:04.5 33:08.3 10:40 F 33 Napoleon MI
2186 Mcgregor,Ashley 8983 35:04.9 34:00.4 10:57 F 17 Southgate MI
2187 Balogh,Jennifer 8900 35:05.0 34:01.2 10:57 F 28 Lincoln Park MI
2188 Rouech,Tiffany 7192 35:05.2 32:27.2 10:27 F 35 Gregory MI
2189 Freeman,Rachel 5251 35:05.4 32:27.3 10:27 F 35 East Lansing MI
2190 Choi,Danielle 4648 35:05.4 30:58.8 9:58 F 34 Chelsea MI
2191 Crower,Melissa 4776 35:05.6 30:40.4 9:52 F 54 Midland U.S.
2192 Leduc,Lauren 6150 35:05.7 32:41.7 10:31 F 25 Ann Arbor MI
2193 Whaley,Shari 8032 35:05.7 31:40.8 10:12 F 41 Grayslake IL
2194 Smith,Judith 7491 35:06.2 30:53.0 9:56 F 43 Ann Arbor MI
2195 Sims,Jennifer 9445 35:06.3 29:53.0 9:37 F 28 Newport MI
2196 Osworth,Jennifer 6802 35:06.5 30:41.2 9:53 F 39 Tecumseh MI
2197 Sims,Jeffrey 7438 35:06.5 29:53.6 9:37 M 27 Newport MI
2198 Golze,Daniel 5383 35:06.9 28:41.3 9:14 M 51 Ann Arbor U.S.A.
2199 Lubeck-hofer,Julie 6245 35:08.8 31:48.6 10:14 F 36 Ann Arbor MI
2200 Stites,Stacey 7608 35:09.8 30:14.7 9:44 F 44 Ann Arbor MI
2201 Devee,Abigail 4913 35:10.0 30:14.1 9:44 F 35 Ann Arbor MI
2202 Brabbs,Cassie 4396 35:10.4 30:21.9 9:46 F 31 Ann Arbor United States
2203 Barry,Stephanie 4186 35:12.4 32:37.4 10:30 F 23 Ann Arbor MI
2204 Baker,Aimee 4141 35:13.8 32:06.0 10:20 F 31 Hartland MI
2205 Henry,Kara 5608 35:14.9 32:49.2 10:34 F 29 Royal Oak MI
2206 Johnson,Craig 5819 35:16.1 29:31.6 9:30 M 27 Ann Arbor MI
2207 Ray,Anna 7035 35:16.1 29:31.7 9:30 F 30 Ann Arbor MI
2208 Gajar,Alyssa 8415 35:16.2 31:38.0 10:11 F 13 Ann Arbor United States Of Ame
2209 Rogers,Hallie 9092 35:16.2 31:37.9 10:11 F 0
2210 Rogers,Lindsie 9091 35:17.1 31:38.7 10:11 F 11
2211 Rieger,Kristy 7101 35:17.6 34:06.0 10:59 F 38 Allendale MI
2212 Grubbs,Lisa 5455 35:18.8 31:23.0 10:06 F 39 Adrian MI
2213 Grubbs,Todd 5456 35:18.9 31:25.0 10:07 M 40 Adrian MI
2214 Smith,Rachel 7502 35:19.2 32:45.1 10:32 F 25 Ann Arbor MI
2215 Puskar,David 6989 35:19.6 34:12.9 11:01 M 25 Freeland MI
2216 Carey,Kimberly 4573 35:19.8 31:52.5 10:16 F 24 Ann Arbor MI
2217 Elwart,Marissa 8392 35:19.9 31:52.1 10:15 F 17 Gregory MI
2218 Deak,Dawn 4868 35:20.0 31:46.9 10:14 F 39 Northville MI
2219 Rudnick,Robert 7203 35:20.6 33:18.6 10:43 M 58 Farmington Hills MI
2220 Leonard,Jamie 6184 35:22.9 32:59.1 10:37 M 10 Ann Arbor MI
2221 Beard,Rebecca 4208 35:23.1 32:18.4 10:24 F 28 Belleville MI
2222 Desai,Kavita 4904 35:24.0 33:13.6 10:42 F 30 Ann Arbor MI
2223 Adams,Devon 4017 35:24.5 32:41.3 10:31 F 19 Ann Arbor MI
2224 Malik,Alana 6307 35:25.9 32:01.4 10:18 F 35 Maumee OH
2225 Bender,Jim 4252 35:26.1 34:09.0 11:00 M 49 Sylvania OH
2226 Walter,Kim 7948 35:26.9 32:00.9 10:18 F 30 West Bloomfield MI
2227 Frait,Kirsten 5239 35:27.7 31:53.1 10:16 F 39 Milan MI
2228 Beard,Ashley 4206 35:27.9 31:32.2 10:09 F 33 Ann Arbor MI
2229 Lyon,Jill 6273 35:27.9 31:32.4 10:09 F 56 Ann Arbor United States Of Ame
2230 Hill,Christy 5640 35:29.5 32:13.2 10:22 F 39 Swartz Creek MI
2231 Dilsizian,Kyle 4938 35:30.6 31:17.9 10:04 M 32 S Rockwood MI
2232 Gronda,Yvette 5450 35:31.3 34:30.6 11:06 F 42 Rockwood MI
2233 Connelly,Jason 4709 35:32.0 31:19.9 10:05 M 32 Canton MI
2234 Gillis,Richard 5360 35:32.1 31:28.3 10:08 M 60 Whitmore LK. MI
2235 Davis,Betsy 4841 35:32.3 32:27.2 10:27 F 42 Ann Arbor MI
2236 Miller,Vivienne 6538 35:32.4 33:42.1 10:51 F 11 Saline MI
2237 Sovitch,Greg 7534 35:32.9 32:28.6 10:27 M 46 Saline MI
2238 Budd,Edith 4485 35:33.3 34:03.5 10:58 F 37 Highland MI
2239 Cox,Michelle 8921 35:33.5 33:11.8 10:41 F 35 Jackson MI
2240 Beckman,Dirk 9122 35:33.7 34:41.7 11:10 M 46
2241 Baker,Russ 4154 35:33.8 34:32.8 11:07 M 42 Lawton MI
2242 Johnson,Joanna 8500 35:34.1 34:33.2 11:07 F 36 Battle Creek MI
2243 Knauff,Allison 5983 35:34.1 31:09.6 10:02 F 25 Ann Arbor MI
2244 Babij,Nicholas 4114 35:34.4 31:10.1 10:02 M 23 Ann Arbor United States
2245 Saylor,Renee 7292 35:34.4 33:56.1 10:55 F 39 Grand Blanc MI
2246 Miller,Rasa 6531 35:34.7 33:44.2 10:52 F 32 Saline MI
2247 Musch,Janelle 6646 35:34.7 28:37.4 9:13 F 28 Byron Center United States
2248 Oswald,Olivia 8677 35:34.8 31:00.7 9:59 F 10 Ann Arbor U.S.A.
2249 Siller,Lauren 8785 35:34.9 31:01.4 9:59 F 10 Ann Arbor United States
2250 Subaiya,Peter 8808 35:35.0 33:37.6 10:49 M 22 Ann Arbor MI
2251 Walker,Sarah 7943 35:35.3 34:18.9 11:03 F 24 Southfield United States
2252 Mcguire,Jim 6433 35:35.6 32:13.3 10:22 M 54 Southfield MI
2253 Adelman,Michael 4025 35:36.0 27:32.0 8:52 M 20 Flossmoor United States
2254 Gengler,Charolette 5322 35:36.0 32:21.9 10:25 F 44 Ann Arbor MI
2255 Siegel,Karen 9159 35:36.2 31:59.0 10:18 F 45
2256 Handy,Becky 5526 35:36.2 29:26.8 9:29 F 38 Rockford MI
2257 Myers,Elissa 6657 35:36.4 31:32.2 10:09 F 28 South Lyon MI
2258 Rundle,Joseph 7214 35:36.6 31:50.0 10:15 M 26 Ann Arbor MI
2259 Portnoy,Danielle 6953 35:36.6 27:32.9 8:52 F 19 Ann Arbor United States
2260 Hunt,Frank 5739 35:37.1 32:23.9 10:26 M 49 Belleville MI
2261 Garrett,Nicole 5305 35:37.1 32:14.0 10:22 F 34 Cincinnati OH
2262 Harper,Heather 5536 35:37.1 31:21.6 10:06 F 36 Saline MI
2263 Miner,Amanda 6549 35:37.2 32:03.2 10:19 F 34 Webberville MI
2264 Martin,Kimberly 9093 35:37.3 34:28.0 11:06 F 41
2265 Eiler,Beth 5049 35:37.4 32:03.3 10:19 F 34 Williamston MI
2266 Jasey,Najette 5797 35:37.4 30:43.3 9:53 F 30 Farmington Hills MI
2267 Oren,Joe 6793 35:38.0 32:17.5 10:24 M 21 Ann Arbor MI
2268 Morris,Marianne 6591 35:38.1 31:47.5 10:14 F 37 New Hudson MI
2269 Cave,Travis 4612 35:38.2 30:52.5 9:56 M 33 Ashland IL
2270 Lee,Kimberly 6154 35:38.2 33:59.4 10:56 F 33 Westland MI
2271 Suarez,Carol 7655 35:38.6 32:26.7 10:27 F 56 Dearborn Wayne
2272 Kostovski,Jacqueline 6024 35:38.6 32:26.7 10:27 F 36 Dearborn U.S.A.
2273 Lechner,Heather 6145 35:38.7 31:48.1 10:14 F 40 Novi United States
2274 Martin,Susan 6341 35:39.2 30:46.7 9:54 F 40 Ann Arbor MI
2275 Hough,Dale 8474 35:39.2 33:42.2 10:51 M 49 Ann Arbor MI
2276 Hough,Karolee 8476 35:39.3 33:43.1 10:51 F 47 Ann Arbor MI
2277 Brown,Megan 4464 35:40.7 31:10.1 10:02 F 19 Ann Arbor United States
2278 Jessop,Alexei 9116 35:40.8 31:33.5 10:09 M 11
2279 Lamb,Bill 9355 35:41.2 33:36.9 10:49 M 0
2280 Gerathy,Chloe 5329 35:41.3 31:22.5 10:06 F 13 Highland MI
2281 Mesnard,Kent 6488 35:41.5 33:37.2 10:49 M 33 Brighton MI
2282 Dzubur,Eldin 9266 35:41.5 32:38.1 10:30 M 22
2283 Comazzi,Anthony 4703 35:42.3 32:04.5 10:19 M 67 Ypsilanti MI
2284 Oswald,Julia 8676 35:42.4 31:07.7 10:01 F 45 Ann Arbor U.S.A.
2285 Springgate,Madison 8799 35:42.9 33:51.8 10:54 F 19 Ann Arbor MI
2286 Sladick,Jeanette 7464 35:43.0 31:23.6 10:06 F 38 Detroit MI
2287 Feldkamp,Carolyn 5156 35:43.0 34:46.0 11:11 F 23 Northville MI
2288 Camp,Allison 4559 35:43.3 31:45.8 10:13 F 32 Grand Rapids MI
2289 King,Jody 5954 35:43.8 34:10.0 11:00 F 32 Royal Oak MI
2290 Knoff,Jayne 8537 35:44.1 32:31.2 10:28 F 22 Ann Arbor U.S.
2291 Koval,Rachel 8541 35:44.1 32:30.9 10:28 F 23 Ann Arbor MI
2292 Munslow,Amy 8649 35:44.7 34:54.2 11:14 F 21 Ann Arbor, MI
2293 Wood,Jenny 9240 35:44.8 34:54.4 11:14 F 21
2294 Barrett,Lauren 4184 35:44.8 32:04.9 10:20 F 34 Woodhaven MI
2295 Yates,Andrea 8876 35:44.9 34:54.6 11:14 F 21 Ann Arbor MI
2296 Carlson,Matthew 4580 35:45.1 32:19.0 10:24 M 43 Holland MI
2297 Mcnally,Patty 6451 35:45.2 30:13.5 9:44 F 41 Ann Arbor MI
2298 Jessop,Carol 9114 35:45.3 31:38.1 10:11 F 51
2299 Williams,Molly 8099 35:45.6 33:16.2 10:42 F 35 Stockbridge MI
2300 Pfiester,David 8694 35:45.8 31:42.0 10:12 M 51 Ypsilanti MI
2301 O'brien,Hope 6745 35:47.0 31:53.6 10:16 F 39 Plymouth MI
2302 Mell,Amy 8621 35:47.0 34:42.4 11:10 F 33 Ann Arbor MI
2303 Laforest,Jennifer 6103 35:47.4 33:04.6 10:39 F 24 Ann Arbor United States
2304 Strauss,Mira 7632 35:48.2 33:49.6 10:53 F 9 Ann Arbor MI
2305 Harrigan,Steph 8459 35:48.3 34:44.6 11:11 F 30 Ann Arbor MI
2306 Benoit,Jeff 4264 35:48.5 30:43.6 9:53 M 34 Richmond United States
2307 Harrigan,Geoff 8458 35:48.6 34:44.9 11:11 M 36 Ann Arbor MI
2308 Strauss,Martin 7631 35:49.1 33:50.6 10:54 M 43 Ann Arbor MI
2309 Allen,Michael 4054 35:49.6 32:59.7 10:37 M 29 Hazel Park MI
2310 Auth,Barb 4109 35:49.6 32:51.2 10:34 F 33 Livonia MI
2311 Wasilewski,Holly 7964 35:49.7 32:50.9 10:34 F 38 Commerce Township MI
2312 Brooks,Jeanette 4442 35:49.9 31:51.0 10:15 F 40 Dexter MI
2313 Benoit,Thomas 4265 35:51.3 30:45.5 9:54 M 35 Milan United States
2314 Gonzales,Anna 8434 35:51.4 33:04.6 10:39 F 26 Holly United States Of Ame
2315 Dean,Courtney 4870 35:52.6 35:04.7 11:17 F 22 Westland MI
2316 Sintobin,Holly 7440 35:53.3 33:23.5 10:45 F 32 Delta OH
2317 Spence,Rachel 8797 35:53.4 34:01.1 10:57 F 31 Ypsilanti MI
2318 Karpowicz,Joshua 5882 35:53.6 35:05.6 11:18 M 22 Westland MI
2319 Dauch,Jacqueline 4830 35:53.7 32:42.7 10:32 F 23 Ann Arbor MI
2320 Pankoff,Cassandra 6825 35:53.9 30:51.2 9:56 F 24 Plymouth United States
2321 Webster,Lindsey 7985 35:54.1 32:45.4 10:33 F 26 Northville MI
2322 Snyder,Rhonda 7524 35:54.2 30:51.4 9:56 F 57 Livonia MI
2323 Davis,Dave 4846 35:55.5 31:35.1 10:10 M 55 Ann Arbor United States
2324 Dorman,Rylie 4968 35:55.6 34:22.6 11:04 F 10 Scotts MI
2325 Dorman,Shellie 4969 35:55.9 11:34 F 40 Scotts MI
2326 Dorman,Josie 4967 35:56.0 34:21.0 11:03 F 11 Scotts MI
2327 Dorman,Brian 4966 35:56.0 34:22.8 11:04 M 38 Scotts MI
2328 Crause,Claire 4768 35:56.0 32:52.1 10:35 F 15 Ann Arbor MI
2329 Crause,Elise 4769 35:56.1 32:52.3 10:35 F 10 Ann Arbor MI
2330 Rymarz,Marty 7250 35:56.3 32:29.6 10:28 M 44 Linden MI
2331 Papachristou,Kate 6826 35:56.9 34:18.0 11:02 F 25 Ann Arbor MI
2332 Long,Jeffrey 6231 35:56.9 32:20.3 10:25 M 49 Livonia MI
2333 Goodsell,Robert 5395 35:57.1 31:18.3 10:05 M 52 Ann Arbor MI
2334 Zacharias,Carly 8215 35:57.5 31:32.5 10:09 F 19 Sterling Heights United States
2335 Hines,Elizabeth 5648 35:57.8 34:01.9 10:57 F 15 Ann Arbor MI
2336 Huang,Alison 5717 35:58.6 32:23.4 10:25 F 21 Ann Arbor United States Of Ame
2337 Bush,Meagan 4532 35:58.6 34:38.4 11:09 F 31 Ypsilanti MI
2338 Furney,Starla 5283 35:58.6 31:41.0 10:12 F 49 Battle Creek MI
2339 Martin,Steven 6340 35:59.0 32:32.6 10:28 M 44 Warren MI
2340 Sanford,Amy 7278 35:59.2 31:50.7 10:15 F 24 Novi United States
2341 Barkume,Kevin 4175 35:59.3 31:11.4 10:02 M 48 Canton MI
2342 Smith,Madeline 7498 35:59.3 33:56.5 10:55 F 15 Ann Arbor MI
2343 Radin,Aaron 8715 35:59.4 32:57.0 10:36 M 20 Waterford MI
2344 Hanania,Jennifer 9335 35:59.8 33:38.7 10:50 F 18
2345 Smith,Leslie 7495 35:59.8 33:56.9 10:56 F 47 Ann Arbor MI
2346 Jones,Stephen 8508 35:59.9 33:23.1 10:45 M 47 Clio MI
2347 Hawn,Michael 5571 36:00.6 31:31.9 10:09 M 35 Portage United States
2348 Lentine,Janel 6183 36:00.8 33:56.2 10:55 F 30 Chesterfield MI
2349 Lawrence,Jane 6130 36:01.1 32:16.3 10:23 F 22 Ann Arbor MI
2350 Mcallister,Sarah 6395 36:02.5 31:19.7 10:05 F 31 Saline United States
2351 Lazenby,Susan 6136 36:02.8 33:06.8 10:39 F 50 Livonia MI
2352 Desenberg,Jon 4905 36:02.9 31:35.1 10:10 M 76 Ann Arbor MI
2353 Aronow,Hannah 8895 36:03.3 34:38.7 11:09 F 10 Ann Arbor MI
2354 Aronow,Stefanie 8897 36:03.3 34:39.6 11:09 F 38 Ann Arbor MI
2355 Kafke-eager,Heather 9210 36:05.0 32:32.8 10:29 F 30
2356 Branski,Jessica 4413 36:05.2 32:44.8 10:32 F 19 Ann Arbor United States
2357 Ladd,Jennifer 6100 36:05.3 34:37.6 11:09 F 41 Onsted MI
2358 Mckaig,Heather 6436 36:05.8 32:45.7 10:33 F 38 Brighton MI
2359 Kasza,Sam 8520 36:06.0 32:20.6 10:25 M 9 Sylvania United States
2360 Watson,Ashley 9079 36:06.0 30:31.1 9:49 F 9
2361 Schnorberger,John 7317 36:06.5 32:21.7 10:25 M 49 Toledo OH
2362 Sochacki,Kate 8794 36:06.9 32:23.7 10:26 F 27 Ann Arbor MI
2363 Cosgrove,Patrick 4745 36:07.0 33:18.3 10:43 M 50 Gaylord MI
2364 Darling,Paul 4826 36:07.3 32:38.3 10:30 M 47 Ann Arbor MI
2365 Mckarns,Katherine 9249 36:07.4 30:52.7 9:56 F 19
2366 Velez,Daniel 7884 36:07.7 30:11.8 9:43 M 47 Ypsilanti United States
2367 Carson,Cassandra 4589 36:07.8 31:50.0 10:15 F 38 Milan MI
2368 Heinrich,Amanda 5593 36:08.1 34:29.3 11:06 F 30 Plymouth MI
2369 Martz,Adrienne 8979 36:08.6 31:42.3 10:12 F 23 Farmington Hills MI
2370 Honik,Grace 5690 36:08.6 32:50.8 10:34 F 21 Ann Arbor United States
2371 Duda,Molly 5005 36:08.8 32:10.0 10:21 F 11 Northville MI
2372 Macy,Madeleine 6288 36:09.2 32:14.7 10:23 F 54 Clarkston U.S.A.
2373 Williams,Sean 8102 36:09.2 33:18.4 10:43 M 37 Stockbridge MI
2374 Duda,Chris 5004 36:09.3 32:10.3 10:21 M 40 Northville MI
2375 Heidorn,Daniel 5586 36:10.3 31:12.5 10:03 M 10 Ann Arbor U.S.A.
2376 Smith,Evelyn 7482 36:10.9 31:55.6 10:17 F 35 Canton U.S.A.
2377 Levine,Sarah 6196 36:12.3 35:33.9 11:27 F 22 Ann Arbor MI
2378 Witenbach,Josh 9120 36:12.3 30:16.5 9:45 M 31
2379 Wittenbach,Kristin 9121 36:12.4 30:16.9 9:45 F 0
2380 Sarmir,Karen 7287 36:12.7 32:04.1 10:19 F 25 Ann Arbor United States
2381 Mcclain,Erik 6403 36:12.9 33:20.7 10:44 M 33 Canton MI
2382 Warthman,Stacy 8848 36:13.1 33:59.2 10:56 F 36 South Lyon MI
2383 Hendershot,Sally 5601 36:13.6 33:10.6 10:41 F 51 Jackson MI
2384 Jasman,Chuck 9435 36:13.6 31:13.2 10:03 M 58 Saline MI
2385 Redeker,Caroline 7045 36:14.1 34:01.2 10:57 F 42 South Lyon MI
2386 ?,Laura 9342 36:14.1 34:00.8 10:57 F 39
2387 Goe,Ashley 5374 36:14.2 11:40 F 24 Ann Arbor U.S.
2388 Yau,Tiffany 8181 36:14.9 32:18.4 10:24 F 25 Ann Arbor MI
2389 Dickerson,Damon 4928 36:15.0 30:31.8 9:50 M 31 Kalamazoo U.S.
2390 Fiedler,Tiffany 5175 36:15.1 32:24.8 10:26 F 28 Belleville MI
2391 Whittington,Alexandria 8058 36:15.8 31:39.3 10:11 F 14 Temperance MI
2392 Henson,Jeremy 5610 36:15.8 33:19.8 10:44 M 33 Plymouth MI
2393 Osman,Danielle 6801 36:15.9 33:00.8 10:38 F 25 Ann Arbor MI
2394 Travis,John 7782 36:16.3 34:22.2 11:04 M 30 Ann Arbor MI
2395 Miles,Kelly 6511 36:16.6 34:05.6 10:58 F 41 Ann Arbor MI
2396 Hammond,Katelyn 5523 36:17.4 31:47.0 10:14 F 19 Alma United States Of Ame
2397 Blake,Amber 4321 36:18.7 33:03.8 10:39 F 30 Ann Arbor MI
2398 Rife,Dan 7108 36:18.8 33:03.8 10:39 M 30 Ann Arbor MI
2399 Wiggins,Chris 8069 36:19.2 33:49.7 10:53 M 26 Northville MI
2400 Whitcomb,Shepherd 8036 36:19.3 32:44.9 10:32 M 39 Ann Arbor MI
2401 Hilling,Jessica 5645 36:19.6 33:50.9 10:54 F 34 Livonia United States
2402 Iloff,Christopher 5755 36:19.7 32:13.2 10:22 M 35 Berkley MI
2403 Hoyle,Sally 9060 36:20.4 31:43.9 10:13 F 0
2404 Underwood,Jacqueline 7824 36:21.3 32:47.1 10:33 F 10 Ann Arbor MI
2405 Sicklesteel,Mike 7414 36:21.7 33:49.2 10:53 M 44 South Lyon MI
2406 Whitcomb,Madeline 8035 36:21.8 32:47.6 10:33 F 11 Ann Arbor MI
2407 Skonecki,Matt 7460 36:21.9 35:20.2 11:22 M 12 Ann Arbor MI
2408 Laverty,Kristy 6125 36:22.3 33:07.3 10:40 F 33 Dexter MI
2409 Davidson,Randy 4838 36:22.3 35:51.1 11:32 M 50 Ann Arbor United States
2410 Sutter,Denise 7676 36:22.4 35:51.5 11:32 F 49 Ann Arbor United States
2411 Gentles,Travan 5325 36:22.5 31:06.7 10:01 M 12 Ypsilanti MI
2412 Gentles,Angelin 5323 36:22.5 31:07.1 10:01 F 42 Ypsilanti MI
2413 Kop,Deborah 6014 36:22.7 31:24.6 10:07 F 44 Ann Arbor U.S.A.
2414 Alamdari,Jessica 4031 36:22.8 33:03.3 10:38 F 28 Manchester MI
2415 Beechuk,Robyn 4228 36:23.3 32:34.3 10:29 F 27 Plymouth MI
2416 Shull,Sandy 7410 36:23.7 34:43.3 11:11 F 48 Ligonier IN
2417 Estep,Susan 5105 36:23.7 34:43.1 11:10 F 28 Saline MI
2418 Mcdermott,Bill 6422 36:24.1 33:18.8 10:43 M 28 Southgate MI
2419 Nguyen,Teresa 6702 36:24.3 35:36.4 11:28 F 28 Ann Arbor MI
2420 Lane,Jonathan 8550 36:24.6 35:36.4 11:28 M 27 Ann Arbor MI
2421 Kull,Charlene 8965 36:24.8 32:44.7 10:32 F 66 Brighton MI
2422 Moret,Jessica 6586 36:24.9 33:20.1 10:44 F 25 Southgate MI
2423 Gentles,Lukeland 5324 36:25.3 31:09.6 10:02 M 41 Ypsilanti MI
2424 Ross,Kevin 7183 36:25.3 34:30.0 11:06 M 47 Ann Arbor MI
2425 Hill,Knut 5643 36:25.4 34:42.7 11:10 M 35 Ann Arbor MI
2426 Babion,Kathryn 4115 36:25.6 32:00.6 10:18 F 26 Farmington Hills United States
2427 Langan,Therese 6114 36:25.6 34:30.5 11:06 F 47 Ann Arbor MI
2428 Jackson,Susan 5775 36:25.6 34:08.2 10:59 F 52 Saline MI
2429 Beauvais,Angie 4214 36:26.1 33:52.7 10:54 F 26 Grand Blanc MI
2430 Mueller,Tina 8647 36:26.3 33:57.7 10:56 F 30 Davison MI
2431 Maun,Heather 6375 36:26.6 32:08.1 10:21 F 27 Ann Arbor MI
2432 Mcguire,Kristin 8611 36:27.4 34:45.8 11:11 F 44 Ann Arbor MI
2433 Russell,Sarah 7229 36:27.6 31:26.4 10:07 F 28 Jerome MI
2434 Webber,Leah 7978 36:27.6 34:08.7 10:59 F 10 Ann Arbor United States
2435 Lowenschuss,David 8571 36:27.8 34:44.9 11:11 M 42 Ann Arbor MI
2436 Dewitt,Seth 4922 36:27.9 31:50.8 10:15 M 15 Maybee, MI
2437 Lee,Meghan 6156 36:28.5 32:16.6 10:23 F 36 Ann Arbor MI
2438 Boxeth,April 4389 36:28.9 31:17.8 10:04 F 39 Ann Arbor MI
2439 Ayers,Celia 4113 36:29.0 33:42.6 10:51 F 11 Ann Arbor United States
2440 Taub,Caroline 7710 36:29.4 33:42.5 10:51 F 11 Ann Arbor MI
2441 Nowygrod,Ashley 6738 36:30.2 28:45.0 9:15 F 28 Ann Arbor MI
2442 Tomac,Angel 7772 36:31.2 33:51.7 10:54 F 35 Caledonia MI
2443 Yu,Olivia 8209 36:31.8 32:32.2 10:28 F 29 Ann Arbor MI
2444 Wernette,Alexandra 8019 36:32.0 32:13.5 10:22 F 21 Ann Arbor MI
2445 Testani,Carla 8815 36:32.6 33:20.9 10:44 F 38 Northville MI
2446 Stark,Tate 7568 36:32.6 32:00.9 10:18 F 22 Dexter MI
2447 Wernette,Sherry 8020 36:32.7 32:14.7 10:23 F 42 Roseville MI
2448 Testani,Megan 7730 36:32.8 33:20.3 10:44 F 30 Northville MI
2449 Weingarten,Avi 9038 36:32.9 35:13.6 11:20 M 10 Ann Arbor U.S.A.
2450 Hoag,Meredith 5661 36:32.9 31:32.9 10:09 F 42 Pinckney MI
2451 Mcclellan,Ashley 6404 36:33.2 33:27.4 10:46 F 21 Ann Arbor MI
2452 Williams,Jessica 8096 36:33.8 34:06.6 10:59 F 36 Fenton MI
2453 Littleton,Jennifer 8564 36:34.1 32:37.1 10:30 F 29 Belleville MI
2454 Kollar,Becky 6005 36:34.2 32:52.6 10:35 F 23 Ann Arbor MI
2455 Weingarten,Irwin 9039 36:34.3 35:15.0 11:21 M 42 Ann Arbor U.S.A.
2456 Johnson,Kristen 5829 36:35.6 35:13.0 11:20 F 18 Muskegon MI
2457 Cooper,James 8344 36:35.7 33:16.6 10:43 M 58 Toledo United States
2458 Cramer,Johanna 4764 36:35.9 30:42.0 9:53 F 36 Ann Arbor MI
2459 Campbell,Robin 4565 36:36.2 34:05.4 10:58 F 46 Addison United States
2460 Stidham,Elizabeth 7596 36:36.4 33:18.4 10:43 F 13 Ann Arbor MI
2461 Thomas,Gina 7741 36:36.7 35:46.7 11:31 F 42 Ypsilanti MI
2462 Christiansen,Angela 4656 36:36.7 35:47.3 11:31 F 36 Ypsilanti MI
2463 Kollar,Tracy 6006 36:36.7 32:54.5 10:36 F 50 Ada MI
2464 Perry,Brendan 6893 36:37.3 33:17.6 10:43 M 12 Canton MI
2465 Robinson,Marc 7143 36:37.8 33:16.5 10:43 M 42 Canton MI
2466 Weber,Deborah 7979 36:38.3 35:24.0 11:24 F 60 Ann Arbor MI
2467 Foster,Leah 5224 36:38.5 34:47.5 11:12 F 31 Evanston IL
2468 Lynn,Stephen 6272 36:38.6 31:15.9 10:04 M 41 Northville MI
2469 Harr,Sharon 5537 36:38.7 32:20.0 10:24 F 50 Ann Arbor MI
2470 Grady,Jennifer 5415 36:39.5 33:24.7 10:45 F 29 Canton MI
2471 Reed,Shelley 7049 36:40.0 31:08.7 10:01 F 36 High Ridge MO
2472 Smith,Jacob 7487 36:40.2 32:02.8 10:19 M 14 Dundee MI
2473 Baker,Brendan 4142 36:40.3 31:06.7 10:01 M 10 Maybee MI
2474 Jones,Rebecca 8507 36:40.6 36:04.0 11:36 F 29 Parma MI
2475 White,Patrick 8045 36:41.0 34:53.1 11:14 M 52 Grand Blanc MI
2476 Gretkierewicz,Owen 5439 36:41.0 32:13.1 10:22 M 10 Ann Arbor MI
2477 Oliver,Julie 8668 36:41.0 36:03.8 11:36 F 38 Spring Arbor MI
2478 Tsai,Tony 7797 36:41.2 34:26.4 11:05 M 38 Ann Arbor MI
2479 Kirkwood,Dennis 5971 36:41.5 32:07.2 10:20 M 62 Ann Arbor MI
2480 Jucha,Dawn 5854 36:41.9 34:20.2 11:03 F 39 Canton MI
2481 Olszowy,Christina 6784 36:42.0 31:16.6 10:04 F 27 Plymouth MI
2482 Burns,Peter 4522 36:42.7 32:48.6 10:34 M 70 Sharpsburg GA
2483 Burns,Steve 4524 36:43.0 32:49.6 10:34 M 44 Ann Arbor MI
2484 Dutta,Carolyn 5024 36:43.0 32:49.4 10:34 F 43 Ann Arbor MI
2485 Iwashyna,Stefanie 5766 36:43.1 32:49.4 10:34 F 40 Ann Arbor MI
2486 Throesch,Karen 7765 36:43.6 33:06.4 10:39 F 52 Holland MI
2487 Fedorowicz,Martha 5150 36:43.8 32:11.5 10:22 F 20 Ann Arbor MI
2488 Burns,Kate 4520 36:43.8 32:49.6 10:34 F 10 Ann Arbor MI
2489 Veit,Anthony 7883 36:43.8 31:17.3 10:04 M 58 Ann Arbor MI
2490 Fagerlin,Angie 5128 36:43.9 34:29.8 11:06 F 37 Ann Arbor MI
2491 Morrow,Elisabeth 6592 36:44.6 33:03.4 10:38 F 34 Ann Arbor MI
2492 Koester,Robin 8539 36:44.8 32:57.1 10:36 F 49 Center Line MI
2493 Gentes,Gail 8421 36:45.4 32:40.0 10:31 F 58 Ann Arbor MI
2494 Hanlon,Phil 8455 36:45.4 32:40.1 10:31 M 55 Ann Arbor MI
2495 Agranoff,Julie 4026 36:45.5 32:34.7 10:29 F 40 Ann Arbor MI
2496 Rooker,Emily Lynn 7169 36:46.0 33:43.1 10:51 F 17 Linden MI
2497 Banning,Al 4167 36:46.4 35:01.0 11:16 M 67 Ann Arbor MI
2498 Crowfoot,Dara 4777 36:46.4 32:36.0 10:30 F 40 Chicago IL
2499 Kent,Mara 9273 36:47.0 33:06.4 10:39 F 39
2500 Czarnecki,Wayne 4809 36:47.1 33:28.1 10:46 M 34 Jenison MI
2501 Czarnecki,Melissa 4808 36:47.4 33:28.8 10:47 F 33 Jenison MI
2502 Brodie,Arnold 4440 36:47.5 30:58.9 9:58 M 50 Saline United States
2503 Kibbey,Hayden 9193 36:47.9 33:37.2 10:49 M 0
2504 Berends,Stefhanie 4273 36:48.1 33:33.4 10:48 F 27 Hudsonville MI
2505 Strickler,Scott 7637 36:48.3 33:35.4 10:49 M 48 Lapeer MI
2506 Pawlak,Michael 6860 36:48.4 33:32.7 10:48 M 26 Spring Lake MI
2507 Strickler,Kristine 7636 36:48.6 33:35.4 10:49 F 45 Lapeer MI
2508 Fitch,David S. 5197 36:49.0 30:51.7 9:56 M 46 Ann Arbor MI
2509 Chung,David 8333 36:49.8 35:29.7 11:25 M 13 Canton MI
2510 Abraham,Jean 4009 36:49.9 32:56.0 10:36 F 63 West Bloomfield MI
2511 Miller,Sharon 6533 36:50.0 31:53.2 10:16 F 30 Ann Arbor MI
2512 Gretkierewicz,Christina 5437 36:50.1 32:21.1 10:25 F 40 Ann Arbor MI
2513 Doan,Parker 8374 36:50.1 32:45.7 10:33 M 11 Gregory MI
2514 Hurst,Laura 9300 36:50.7 36:26.2 11:44 F 31
2515 Baird,Trisha 4140 36:51.0 32:37.2 10:30 F 31 Howell MI
2516 Doan,Matt 8372 36:51.1 32:46.9 10:33 M 40 Gregory MI
2517 Tennis,Matthew 9028 36:51.3 32:57.0 10:36 M 29 Howell MI
2518 Budzinski,Katherine 180 36:51.9 33:41.8 10:51 F 39 Rochester Hills MI
2519 Perryman,Emily 6897 36:52.3 32:46.2 10:33 F 37 Ann Arbor MI
2520 Goldberg,Caren 8432 36:52.5 34:30.0 11:06 F 46 Ann Arbor MI
2521 Melampy,Elizabeth 6466 36:52.6 33:36.9 10:49 F 45 Ann Arbor MI
2522 Fellows,Karen 5158 36:52.7 33:25.6 10:46 F 56 Dexter MI
2523 Skinner,Ellen 7457 36:52.8 32:34.8 10:29 F 28 Westland MI
2524 Sovitch,Patricia 7536 36:52.9 33:49.3 10:53 F 46 Saline MI
2525 Cushman,Dawn 4805 36:53.3 33:07.0 10:40 F 27 Ann Arbor MI
2526 Moore,Michelle 6579 36:53.4 32:35.2 10:29 F 45 Lansing MI
2527 Arkwright,Jessi 8266 36:54.0 32:48.2 10:33 F 30 Ypsilanti MI
2528 Iley,Michael 5752 36:54.0 33:47.1 10:52 M 33 Berkley MI
2529 O'neill,Rick 6786 36:54.1 33:03.7 10:38 M 62 Ann Arbor MI
2530 Schroeder,Andrea 7329 36:54.3 34:32.6 11:07 F 33 Ypsilanti MI
2531 Houser,Terry 9425 36:54.9 32:36.8 10:30 M 41
2532 Smith,Heather 7486 36:55.8 34:33.6 11:07 F 36 Ypsilanti MI
2533 Steffes,Megan 7576 36:56.0 34:18.4 11:03 F 19 Grandville U.S.A.
2534 Zieske,Sue 8239 36:56.4 35:05.2 11:18 F 43 Linden MI
2535 Ptasznik,Heather 6987 36:56.6 33:31.5 10:47 F 38 Plymouth MI
2536 Besk,Danielle 4296 36:56.6 32:49.7 10:34 F 21 Ann Arbor MI
2537 Johnson,Jonetta 5826 36:57.3 31:52.3 10:15 F 28 Ann Arbor United States
2538 Vanwormer,Sarah 7870 36:57.3 32:26.4 10:26 F 31 Birch Run United States
2539 Kozanecki,Sarah 6037 36:57.4 33:50.5 10:54 F 29 Canton MI
2540 Vanwormer,Silas 7871 36:57.5 32:26.2 10:26 M 6 Birch Run United States
2541 Drier,Shirley 4999 36:58.8 34:18.0 11:02 F 48 Decatur IN
2542 Styrna,Kasey 7654 36:59.6 33:03.6 10:38 F 39 Ann Arbor United States
2543 Moak,Lauren 6557 36:59.8 31:47.8 10:14 F 21 Ann Arbor United States
2544 West,Justin 8025 37:00.0 33:54.6 10:55 M 36 Grand Blanc MI
2545 Riske,Jennifer 7116 37:01.0 31:53.8 10:16 F 27 Shelby Twp MI
2546 Siroky,Susan 7443 37:01.8 35:45.5 11:31 F 50 Clawson Oakland
2547 Langley,Lisa 6117 37:01.8 35:46.3 11:31 F 50 Ann Arbor MI
2548 Ranville,Matthew 7027 37:02.0 33:41.3 10:51 M 39 Ann Arbor MI
2549 Woodhull,Whitney 8153 37:02.2 31:50.8 10:15 F 22 Ann Arbor MI
2550 Hilditch,Gina 5637 37:02.4 34:59.3 11:16 F 42 Canton MI
2551 Hilditch,Jana 5638 37:03.1 34:59.9 11:16 F 11 Canton MI
2552 Leonard,Lou 6186 37:03.8 34:39.9 11:09 M 47 Ann Arbor MI
2553 Shonce,Michael 7408 37:03.8 36:18.1 11:41 M 19 Livonia United States
2554 Murphy,Lauren 6637 37:03.9 36:18.7 11:41 F 18 Livonia United States
2555 Burrows,Heather 4527 37:04.3 32:32.2 10:28 F 39 Ann Arbor MI
2556 Cherven,Larry 8915 37:04.5 33:11.4 10:41 M 58 Ann Arbor MI
2557 Paretti,Rose 6830 37:04.6 32:31.8 10:28 F 10 Ann Arbor MI
2558 Loughman,Colleen 6239 37:04.8 34:53.6 11:14 F 41 Saline MI
2559 Sweigart,Michelle 7696 37:04.9 32:36.2 10:30 F 15 Saline United States
2560 Wascher,Pj 8849 37:05.4 32:47.6 10:33 M 22 Ann Arbor Washtenaw
2561 Burrows,Denise 8910 37:06.2 32:34.0 10:29 F 62 Plymouth MI
2562 Potthoff,M Robin 6957 37:07.2 34:57.2 11:15 F 64 Ann Arbor MI
2563 Miller,Gretchen 6519 37:07.6 35:42.4 11:30 F 24 Ann Arbor MI
2564 Gerathy,Sonya 5332 37:08.0 32:49.5 10:34 F 40 Highland MI
2565 Kracht,Patricia 6041 37:08.4 32:32.0 10:28 F 42 Ann Arbor MI
2566 Miller,Tina 6536 37:08.7 33:30.6 10:47 F 50 Grand Blanc MI
2567 Leopold,Kay 6190 37:08.8 31:06.0 10:01 F 24 Ann Arbor U.S.
2568 Merica,Paul 6484 37:09.1 35:42.4 11:30 M 50 Ann Arbor U.S.A.
2569 Edginton,Nancy 9132 37:09.7 34:08.6 10:59 F 57
2570 Linzner,Josona 6218 37:09.7 35:48.7 11:32 F 32 Unionville United States
2571 Gordon,Maribeth 5401 37:09.7 35:48.8 11:32 F 33 Cassopolis United States
2572 Gucwa,Emily 5460 37:09.9 32:03.8 10:19 F 14 Ann Arbor MI
2573 Munzel,Callan 6632 37:10.3 32:03.8 10:19 F 14 Ann Arbor MI
2574 Carlson,Jennifer 4577 37:10.3 34:08.0 10:59 F 37 Ypsilanti MI
2575 Carlson,Brad 4576 37:10.4 34:07.4 10:59 M 38 Ypsilanti MI
2576 Michalak,Eric 6494 37:10.8 34:07.6 10:59 M 39 Northville MI
2577 Osworth,Kevin 6803 37:10.8 32:45.6 10:33 M 40 Tecumseh MI
2578 Rodgers,Tammi 9131 37:11.1 34:10.5 11:00 F 51
2579 Turowski,Kelly 7811 37:11.2 35:20.4 11:22 F 29 Canton MI
2580 Provalenko,Christine 6978 37:11.9 33:37.1 10:49 F 41 Livonia MI
2581 Alexander,Ellen 4046 37:12.2 33:05.2 10:39 F 52 Houston TX
2582 Stone,Krysta 9027 37:12.4 33:24.9 10:45 F 34 Ann Arbor MI
2583 Paster,Jodie 6842 37:13.8 36:44.2 11:49 F 40 Adrian MI
2584 Burmeister Loera,Catherine 9331 37:13.8 35:55.8 11:34 F 35
2585 Welty,Patrick 8015 37:14.0 32:47.4 10:33 M 27 Saline MI
2586 Turner,Darcy 7808 37:14.1 34:55.3 11:14 F 40 Whitmore Lake MI
2587 Morgan,Kevin 6588 37:14.2 30:37.5 9:51 M 28 Ann Arbor MI
2588 Van Buren,Beth 7845 37:14.2 36:44.8 11:50 F 44 Blissfield MI
2589 Welty,Denise 8013 37:14.7 32:47.7 10:33 F 27 Saline MI
2590 Schenk,Rachel 7306 37:14.8 32:26.8 10:27 F 12 Ann Arbor MI
2591 Perrin,Stephen 8690 37:15.0 33:24.8 10:45 M 58 Ann Arbor U.S.A.
2592 Burgard,Maya 8909 37:15.1 32:27.3 10:27 F 12 Ann Arbor MI
2593 Hines,Paige 5652 37:15.2 33:26.6 10:46 F 25 Toledo OH
2594 Manz,Kurt 6319 37:15.6 33:27.2 10:46 M 28 Toledo OH
2595 Leenhouts,John 6158 37:15.9 31:49.3 10:15 M 63 Spring Lake MI
2596 Leenhouts,Laura 6159 37:16.3 31:49.4 10:15 F 35 Grand Haven MI
2597 Cataldo,Sheri 8319 37:16.4 35:14.5 11:21 F 49 W. Bloomfield MI
2598 Caataldo,Michael 9453 37:16.4 35:14.0 11:20 M 19
2599 Richards,Lyndsey 7089 37:16.5 35:04.6 11:17 F 22 Belleville MI
2600 Mcmichael,James 6449 37:16.8 32:19.3 10:24 M 34 Dexter MI
2601 Holshoe,Heather 5689 37:16.9 33:42.2 10:51 F 34 Ypsilanti MI
2602 Bordeau Ii,James 4367 37:17.1 31:38.2 10:11 M 44 Lasalle MI
2603 Baker,Lynn 4150 37:17.1 31:19.6 10:05 F 37 Hudson OH
2604 Fitch,Julie 5198 37:17.7 31:20.3 10:05 F 45 Ann Arbor MI
2605 Heams,Stacey 5578 37:17.7 33:42.7 10:51 F 41 Saline MI
2606 Vandermarkt,Kim 7858 37:17.8 33:57.5 10:56 F 34 Jenison MI
2607 Nikanowicz,Kelli 6717 37:19.3 32:59.8 10:37 F 28 Pinckney MI
2608 Kaplan,Marissa 5877 37:19.3 34:01.5 10:57 F 21 Ann Arbor MI
2609 Hayes,Kathleen 8464 37:20.1 34:02.1 10:57 F 61 Grand Blanc MI
2610 Johnson,Temuulen 8503 37:20.3 33:53.1 10:54 F 36 Ann Arbor MI
2611 King,Tammie 8535 37:21.1 34:28.6 11:06 F 38 Saline MI
2612 Skonecki,Greg 7459 37:21.2 36:18.9 11:41 M 43 Ann Arbor MI
2613 Waite,Benoit 7934 37:21.5 33:23.9 10:45 M 37 Ypsilanti MI
2614 Villalba,Serena 7901 37:21.6 32:22.6 10:25 F 27 Ann Arbor MI
2615 Mach,Mandy 6279 37:21.6 33:49.3 10:53 F 29 Linden MI
2616 Gervasone,Carrie 5340 37:21.8 36:50.9 11:52 F 37 Fraser MI
2617 Rovin,Rich 7197 37:22.4 32:29.0 10:27 M 49 Marquette United States
2618 Das,Aneesa 4827 37:22.7 34:41.4 11:10 F 37 Dublin OH
2619 Opipari,Valerie 6790 37:23.3 36:22.7 11:43 F 53 Dexter MI
2620 Devitt,Anna 8368 37:23.5 33:50.0 10:53 F 53 Hartland MI
2621 Devitt,Matt 4918 37:23.7 33:50.2 10:53 M 51 Hartland MI
2622 Opipari Jr,Anthony 6792 37:24.2 12:02 M 46 Dexter MI
2623 Mcfarland,Patrick 8982 37:24.5 31:22.8 10:06 M 33 Clinton Twp MI
2624 Vanhaaften,Valerie 7862 37:24.6 34:43.0 11:10 F 35 Ann Arbor MI
2625 Wolfe,Grace 8872 37:24.9 32:35.8 10:29 F 17 Saline MI
2626 Mcfarland,Beth 8981 37:25.4 31:23.7 10:06 F 30 Clinton Twp MI
2627 Renner,Jennifer 7069 37:25.6 34:05.7 10:58 F 34 South Lyon MI
2628 Colbert,Laura 4693 37:26.2 33:26.4 10:46 F 48 Shelby TwP. MI
2629 Fischer,Melissa 5188 37:26.6 33:48.4 10:53 F 38 Howell MI
2630 Furlong,Tim 5282 37:27.3 32:17.3 10:24 M 41 Ann Arbor United States
2631 Frye,Latasha 5272 37:27.6 33:05.8 10:39 F 33 Ypsilanti MI
2632 Sconochia,Stephanie 7344 37:27.7 32:45.2 10:33 F 41 Monroe MI
2633 Taft,Christina 7704 37:27.7 32:45.3 10:33 F 43 Monroe MI
2634 Brown,Lisa 4461 37:27.8 33:33.2 10:48 F 43 Manchester MI
2635 Berman,Tracy 4284 37:28.2 31:06.9 10:01 F 27 Ann Arbor MI
2636 Peterson,Lisa 8691 37:28.3 29:56.1 9:38 F 37 Canton MI
2637 Kubek,Anne 6067 37:28.4 33:34.0 10:48 F 44 Ann Arbor United States Of Ame
2638 Kooy,Patti 9318 37:28.5 34:43.3 11:11 F 55
2639 Berman,Greg 4282 37:28.6 31:07.8 10:01 M 27 Ann Arbor MI
2640 Cripps,Katherine 4774 37:29.6 35:02.0 11:17 F 28 Linden MI
2641 Stilber,Allie 7599 37:29.8 36:04.4 11:37 F 13 Dexter United States
2642 Skaff,David 7454 37:30.8 33:57.8 10:56 M 43 Ann Arbor MI
2643 Vidusic,Kara 7898 37:31.3 32:42.8 10:32 F 29 Whitmore Lake United States
2644 Cornell,Jason 4737 37:31.3 32:37.9 10:30 M 30 Tecumseh MI
2645 Madden,Chris 8973 37:31.4 29:27.6 9:29 M 38 Ann Arbor MI
2646 Doescher,James 4949 37:31.9 33:38.0 10:50 M 55 Metamora MI
2647 Begley,Lesa 4235 37:32.1 32:22.7 10:25 F 32 Ann Arbor MI
2648 Poljanac,Matt 6942 37:32.2 32:40.6 10:31 M 36 Ypsilanti MI
2649 Moore,Thomas 6581 37:33.1 33:12.1 10:41 M 40 Ypsilanti MI
2650 Batchelor,Karin 8282 37:33.9 35:31.8 11:26 F 48 Hillsdale MI
2651 Swank,Emily 7681 37:33.9 35:32.3 11:26 F 26 Chicago IL
2652 Woodcock,Ellen 8152 37:34.5 33:06.4 10:39 F 18 Muskegon United States
2653 Jamrog,Cynthia 5784 37:34.8 35:03.6 11:17 F 35 Holland MI
2654 Buzinkai,Zoe 4547 37:35.2 34:11.2 11:00 F 15
2655 Keller,Dan 5903 37:35.5 32:39.5 10:31 M 20
2656 Peitz,Tori 6872 37:35.6 34:28.1 11:06 F 18 Petersburg MI
2657 Peitz,Kelly 6871 37:35.7 34:28.6 11:06 F 39 Petersburg MI
2658 Katie,Bergmann 5889 37:35.7 34:53.3 11:14 F 15 Cadillac MI
2659 Mastrogiacomo Jr,Patrick 6351 37:36.1 34:23.4 11:04 M 41 Wyandotte MI
2660 Gardner,Jonathan 5295 37:36.2 35:09.1 11:19 M 38 Ypsilanti MI
2661 Gibson,Gabrielle 5345 37:36.8 35:35.1 11:27 F 24 Ann Arbor MI
2662 Litzler,Thomas R. 6221 37:37.5 35:35.6 11:27 M 23 Ann Arbor MI
2663 Dovitz,Melanie 4976 37:37.6 35:48.4 11:31 F 21 Farmington Hills United States
2664 Litzler,Tom 6222 37:37.6 35:35.4 11:27 M 51 Ann Arbor MI
2665 Greenstein,Victoria 5436 37:38.4 35:49.3 11:32 F 18 West Bloomfield MI
2666 Carter,Tammy 4594 37:38.6 33:32.6 10:48 F 37 Ann Arbor MI
2667 Nichols,Fran 6705 37:38.7 34:08.0 10:59 F 48 Petersburg MI
2668 Schroeder,Jill 7330 37:39.5 34:08.9 10:59 F 41 Ida MI
2669 Diviney,Kathryn 4944 37:40.3 34:50.8 11:13 F 29 Oak Park MI
2670 Binge,Brad 4309 37:41.4 30:44.1 9:54 M 36 Plymouth MI
2671 Laursen,Shannon 6124 37:44.1 33:56.1 10:55 F 35 Ypsilanti MI
2672 Long,Travis 6232 37:44.3 33:56.8 10:56 M 36 Ypsilanti MI
2673 Chang,Matthew 4624 37:45.8 33:17.1 10:43 M 8 Ann Arbor United States
2674 Snyder,Michelle 7522 37:45.9 36:19.3 11:41 F 53 Pinckney MI
2675 Galardi,Staci 8416 37:46.0 33:42.7 10:51 F 42 South Lyon MI
2676 Chang,Andrew 4620 37:46.1 33:17.3 10:43 M 43 Ann Arbor United States
2677 Tripple,Katherine 7788 37:46.7 35:21.1 11:23 F 25 Ann Arbor MI
2678 Papadopoulos,George 6827 37:47.8 35:28.6 11:25 M 43 Ann Arbor MI
2679 Scott,Ginny 7345 37:47.9 31:25.7 10:07 F 33 Tampa FL
2680 Jensen,Megan 8494 37:48.1 31:26.0 10:07 F 30 Ann Arbor United States
2681 Schrock,Betsey 7327 37:48.7 33:18.7 10:43 F 61 Farmington Hills MI
2682 Dibelius,Steven 8369 37:49.5 33:24.7 10:45 M 24 Ann Arbor MI
2683 Hunt,Oneita 5741 37:49.6 34:36.0 11:08 F 49 Belleville MI
2684 Stanifer,Kristin 7560 37:50.7 34:27.0 11:05 F 27 Tecumseh MI
2685 Lee,Nguk 9420 37:50.8 35:30.5 11:26 F 42 Ann Arbor MI
2686 Gonzalez,Madeline 9462 37:51.5 36:29.9 11:45 F 45
2687 Sweeton,Jim 9459 37:51.5 36:30.1 11:45 M 62
2688 Korona,Kelley 6021 37:51.5 34:31.9 11:07 F 43 Canton MI
2689 Kwiatkowski,Bethany 9227 37:52.2 33:30.2 10:47 F 26
2690 Mccomb,Matt 9228 37:52.3 33:30.3 10:47 M 27
2691 Rucker,Joan 7202 37:52.7 32:57.1 10:36 F 66 Northville United States
2692 White,Ryan 8048 37:53.4 35:28.7 11:25 M 26 Ann Arbor MI
2693 Demember,Alexandra 8361 37:53.5 35:59.3 11:35 F 11 Northville United States
2694 Demember,Robert 8362 37:53.6 35:59.3 11:35 M 57 Northville MI
2695 Swisher,Jackie 7697 37:54.3 34:03.1 10:58 F 36 Dundee MI
2696 Atkins,Ryan 4105 37:54.9 33:27.9 10:46 M 31 Okemos United States
2697 Ettenson,Mel 5110 37:55.0 34:27.2 11:05 M 76 Bingham Farms MI
2698 Buzinkai,Lora 4545 37:55.2 34:31.2 11:07 F 43
2699 Fisk,Vanessa 5195 37:56.0 34:09.4 11:00 F 39 Gregory United States
2700 Borer,Michael 9255 37:56.2 35:58.8 11:35 M 25
2701 Imperiale,Amanda 5757 37:56.5 33:19.5 10:44 F 19 Ann Arbor MI
2702 Boren,Jillian 9256 37:56.6 35:59.4 11:35 F 0
2703 Wagner,Matt 7927 37:56.6 32:52.4 10:35 M 37 Maumee OH
2704 Hunter,Erika 8481 37:57.6 32:56.3 10:36 F 31 Ann Arbor MI
2705 Bergum,Katie 4278 37:58.0 36:42.2 11:49 F 21 White Lake MI
2706 Halverson,Sky 5517 37:58.1 33:09.7 10:40 M 25 Ann Arbor MI
2707 Phelps,Laura 6913 37:58.6 33:10.3 10:41 F 26 Ann Arbor MI
2708 Krushelnick,Joe 6064 37:58.7 32:40.7 10:31 M 9 Ann Arbor MI
2709 Krushelnick,Karl 6065 37:58.9 32:40.6 10:31 M 46 Ann Arbor MI
2710 Kwok,Sam 6089 37:59.6 35:00.8 11:16 M 7 Ann Arbor MI
2711 Kim,Cathy 5947 37:59.7 34:59.8 11:16 F 42 Ann Arbor MI
2712 Derosia,Maria 8925 37:59.9 35:09.6 11:19 F 41 Grass Lake MI
2713 Kwok,Yeong 6091 38:00.1 35:00.4 11:16 M 44 Ann Arbor MI
2714 White,Marie 8043 38:00.1 33:58.4 10:56 F 12 Ann Arbor MI
2715 Francis,Patrick 8937 38:00.6 34:39.2 11:09 M 42 Ann Arbor MI
2716 Whitmarsh,Susan 8056 38:01.7 34:15.2 11:01 F 42 Chelsea United States
2717 White,Kit 8041 38:01.8 34:00.0 10:57 F 47 Ann Arbor MI
2718 Sieb,Autumn 7420 38:02.3 33:56.6 10:55 F 30 Monroe MI
2719 Blaylock,Janille 4326 38:02.4 35:48.2 11:31 F 23 Canton MI
2720 Schott,Amanda 7324 38:03.2 34:16.4 11:02 F 34 Ann Arbor MI
2721 Martel,David 6331 38:03.5 34:42.0 11:10 M 43 Ann Arbor MI
2722 Goins,Nina 5376 38:03.7 34:34.9 11:08 F 43 Monroe MI
2723 Kelley,Patrick 5909 38:04.1 34:18.4 11:03 M 41 Coldwater MI
2724 Gross,Kate 5453 38:04.4 33:08.9 10:40 F 38 Flushing United States
2725 Eder,Sally 5037 38:04.8 34:09.1 11:00 F 51 Ann Arbor MI
2726 Abernathy,Rich 4003 38:04.9 32:04.9 10:20 M 39 ST. Clair Shores MI
2727 Shaw,Kathy 7383 38:05.1 33:27.8 10:46 F 44 Ann Arbor MI
2728 Turowski,Scott 7812 38:05.4 36:08.8 11:38 M 30 Canton MI
2729 Gonzalez,Chelsea 5388 38:05.6 34:08.8 10:59 F 22 Livonia MI
2730 Kulpa,Matt 6078 38:05.8 34:09.0 10:59 M 22 Dearborn Heights MI
2731 Miles,Mark 6512 38:06.8 35:19.3 11:22 M 52 Pompeii MI
2732 Hale,Richard 5497 38:07.0 35:18.7 11:22 M 51 ST. Johns MI
2733 Picardat,Beth 9105 38:07.1 33:52.0 10:54 F 25
2734 Pierson,Joy 9449 38:07.1 32:54.5 10:36 F 22 Saline MI
2735 Faivor,Frank 5133 38:07.2 35:19.0 11:22 M 52 Howell MI
2736 Reader,Matthew 9252 38:07.2 33:15.2 10:42 M 26
2737 Pierson,Judy 6924 38:07.6 32:54.9 10:36 F 58 Saline MI
2738 Dyas,Laura 5026 38:07.6 35:37.7 11:28 F 50 Plymouth MI
2739 Dyas,Kristina 5025 38:07.6 35:38.1 11:28 F 24 Plymouth MI
2740 Wagner,Tye 8845 38:08.1 37:48.5 12:10 M 7 Temperance MI
2741 Wagner,Lyndsay 8844 38:08.5 37:48.9 12:10 F 11 Temperance MI
2742 Van Pelt,Chastity 7850 38:08.9 32:02.5 10:19 F 30 Ypsilanti United States
2743 Williams,Jessie 8097 38:09.7 35:34.2 11:27 F 20 Ann Arbor United States
2744 Norris,Annaka 6733 38:10.1 35:00.8 11:16 F 35 Ferndale MI
2745 Keck,Elizabeth 5893 38:10.4 34:05.1 10:58 F 30 Monroe MI
2746 Throesch,Benjamin 7762 38:11.1 34:34.1 11:08 M 21 Ann Arbor MI
2747 Olszewski,Amy 6782 38:11.1 34:55.3 11:14 F 46 Ann Arbor MI
2748 Sniegowski,John 7517 38:11.4 12:18 M 45 Cadillac MI
2749 Sniegowski,Linda 7518 38:11.6 35:29.2 11:25 F 46 Cadillac MI
2750 Jacobs,Lisa 5776 38:11.7 34:36.3 11:08 F 33 Novi MI
2751 Kumar,Sanjeev 6082 38:11.9 32:30.6 10:28 M 42 Ann Arbor MI
2752 Para,Kathy 8682 38:12.0 33:05.4 10:39 F 59 Ypsilanti Washtenaw
2753 Gallagher,Mary 5290 38:12.7 34:43.9 11:11 F 11 Whitmore Lake MI
2754 Brewster,Melissa 4427 38:13.9 36:31.0 11:45 F 39 Howell MI
2755 Cobb,Jen 4681 38:14.1 36:31.4 11:45 F 39 Howell MI
2756 Jackson,Anne 8953 38:15.7 35:30.0 11:26 F 48 Ann Arbor MI
2757 Chelune,Doris 4638 38:15.7 33:42.7 10:51 F 66 Saline United States
2758 Skadsen,Janice 7453 38:15.8 35:31.7 11:26 F 55 Ann Arbor MI
2759 Mayer,Mary 8603 38:16.0 34:43.2 11:11 F 69 Ann Arbor MI
2760 Chelune,Jennifer 4639 38:16.0 33:43.2 10:51 F 39 Cincinnati OH
2761 Wolf,Jamie 8137 38:16.9 33:47.5 10:53 F 23 Rothbury MI
2762 Boughton,Dorothy 4379 38:16.9 35:47.1 11:31 F 65 Gregory MI
2763 Mcgonegal,Maureen 6431 38:17.6 36:10.8 11:39 F 24 Brighton MI
2764 Mcgonegal,Margaret 6430 38:18.4 36:12.9 11:39 F 26 Ann Arbor MI
2765 Farrell,Melissa 5144 38:18.6 33:45.9 10:52 F 30 Adrian MI
2766 Rippe,Lindsay 7115 38:18.8 34:33.7 11:07 F 29 Chicago United States
2767 Shook,Christine 9138 38:20.0 34:58.7 11:15 F 26
2768 Huehn,Maria 9166 38:20.0 33:52.5 10:54 F 44
2769 Nethers,Christine 6688 38:20.2 33:52.6 10:54 F 54 Ypsilanti MI
2770 Newsom,Brendan 8988 38:21.5 34:23.4 11:04 M 8 Sylvania United States
2771 Stocking,Alena 7610 38:22.2 35:31.9 11:26 F 41 Ann Arbor MI
2772 Vale,Sarah 7837 38:22.6 36:06.5 11:37 F 26 Ann Arbor MI
2773 Rusher,Kelly 7220 38:22.7 36:56.9 11:54 F 46 Ann Arbor MI
2774 Peet,Amy 6869 38:23.1 35:00.3 11:16 F 31 Burlington MI
2775 Hallberg,Jan 5513 38:23.1 36:57.0 11:54 F 58 Ann Arbor MI
2776 Wilde,Emma 8074 38:23.1 31:25.9 10:07 F 19 Plymouth MI
2777 Olk,Melanie 6772 38:23.4 33:10.9 10:41 F 36 Saginaw U.S.
2778 Vale,David 7836 38:24.0 36:07.5 11:38 M 52 Ann Arbor MI
2779 Binge,Kristine 4310 38:24.8 31:27.3 10:07 F 35 Plymouth MI
2780 Foster,Nicholas 5227 38:25.0 32:36.7 10:30 M 10 Ann Arbor MI
2781 Newsom,Cheryl 8989 38:25.3 34:27.2 11:05 F 35 Sylvania United States
2782 Evans,Lisa 5117 38:25.4 35:32.3 11:26 F 38 Ann Arbor MI
2783 Lopez,Mick 8569 38:25.5 31:51.9 10:15 M 34 Union OH
2784 Jaruzel,Cathy 5795 38:25.6 33:42.9 10:51 F 32 Flint MI
2785 Chang,Susan 4628 38:26.0 33:33.6 10:48 F 36 West Bloomfield United States
2786 Foster,David 5222 38:26.3 32:38.3 10:30 M 41 Ann Arbor MI
2787 Foster,William 5228 38:26.6 32:39.3 10:31 M 7 Ann Arbor MI
2788 Matuszewski,Brady 6369 38:26.9 35:07.3 11:18 M 6 Brighton MI
2789 Geiman,Colin 8419 38:27.0 31:53.4 10:16 M 9 Ann Arbor United States
2790 Snedeker,Mike 7514 38:27.3 35:47.7 11:31 M 37 Wernersville PA
2791 Burek,Dorothy 4504 38:28.3 33:24.2 10:45 F 55 Canton United States
2792 Burek,Greg 4505 38:28.5 33:24.4 10:45 M 59 Canton United States
2793 Welton,Shelly 9102 38:29.7 33:30.6 10:47 F 0
2794 Peteyk,Taryn 9150 38:30.5 34:20.6 11:03 F 35
2795 Judge,Kathryn 5856 38:30.8 35:29.2 11:25 F 40 Bloomfield Hills MI
2796 Manor,Nichole 9263 38:31.5 34:27.4 11:05 F 36
2797 Reaume,Alice 7040 38:31.9 34:27.5 11:05 F 32 Monroe MI
2798 Ellis,Jay 5077 38:32.2 31:57.6 10:17 M 38 Ann Arbor MI
2799 Judge,Karen 5855 38:32.3 35:30.4 11:26 F 39 Livonia MI
2800 Watts,Kevin 7971 38:32.6 33:43.3 10:51 M 33 Dearborn United States
2801 Taylor,Jen 7712 38:33.3 38:08.9 12:17 F 37 Battle Creek MI
2802 Kulpa,Deanna 6077 38:33.4 34:48.5 11:12 F 40 Ann Arbor MI
2803 Duff,Tammy 5011 38:33.5 38:09.1 12:17 F 37 Battle Creek MI
2804 Urteaga,Anabel 7827 38:34.1 36:54.7 11:53 F 24 Ann Arbor MI
2805 Reedy,Stephanie 7050 38:34.1 35:39.2 11:29 F 35 Pincnkey MI
2806 Harris,Jackie 5542 38:34.5 35:45.1 11:30 F 19 Ann Arbor United States
2807 Wicklund,Jocelyne 8063 38:34.9 33:59.0 10:56 F 42 Ann Arbor MI
2808 Smiley,Michelle 9018 38:34.9 35:45.1 11:30 F 19 Ann Arbor MI
2809 Nairn,Emily 6660 38:35.6 35:45.7 11:31 F 19 Plymouth United States
2810 Lawrenchuk,Michael 6133 38:35.7 32:47.1 10:33 M 26 Ann Arbor MI
2811 Cordts,Sara 4733 38:35.8 36:57.5 11:54 F 27 Garden City MI
2812 Bondy,Renee' 4358 38:36.2 37:04.0 11:56 F 27 Taylor Wayne
2813 Maun,Kevin 6376 38:36.4 32:04.7 10:19 M 28 Ann Arbor MI
2814 Yerace,Barbara 8186 38:36.9 35:16.7 11:21 F 50 Saline MI
2815 Wink,Linda 8119 38:37.0 35:17.6 11:22 F 60 South Lyon MI
2816 Espitia,Nicolaus 5104 38:37.8 36:38.2 11:48 M 27 Fowlerville United States
2817 Grabell,Adam 8437 38:37.8 36:38.3 11:48 M 28 Ann Arbor MI
2818 Johns,Ronald 5816 38:38.4 34:23.2 11:04 M 29 Dearborn MI
2819 Johns,Amanda 5815 38:38.6 34:25.0 11:05 F 27 Dearborn MI
2820 Greeley,Amber 5431 38:39.1 33:01.3 10:38 F 27 Ann Arbor MI
2821 Kerns,Ashley 5933 38:39.4 33:01.7 10:38 F 27 Ann Arbor MI
2822 Lectka,Anna 6146 38:40.1 34:08.7 10:59 F 13 Livonia United States
2823 Lectka,John 6148 38:40.5 34:08.9 10:59 M 45 Livonia United States
2824 Bauer,Jeffrey 4199 38:41.1 35:26.8 11:25 M 27 Milan MI
2825 Avink,Hank 4111 38:41.2 31:35.1 10:10 M 33 Richland MI
2826 Sweeney,Carol A 7692 38:41.4 37:29.1 12:04 F 65 Northville MI
2827 Bova,Gina 4385 38:41.7 33:24.1 10:45 F 42 Clinton Township MI
2828 Albano,Nancy 4035 38:42.0 35:36.9 11:28 F 47 Monroe MI
2829 Tucker,Barbara 7799 38:42.1 36:37.0 11:47 F 61 Ann Arbor MI
2830 Huhn,Rebecca 8480 38:42.3 36:43.2 11:49 F 25 Fowlerville United States
2831 Carlson,Katherine 4579 38:42.4 35:16.3 11:21 F 5 Holland MI
2832 Mccoy,Henry 6412 38:42.5 34:52.3 11:13 M 11 Ann Arbor MI
2833 Vandermarkt,Dale 7856 38:42.6 35:18.2 11:22 M 59 Jenison MI
2834 Carlson,Jodi 4578 38:42.6 35:16.4 11:21 F 36 Holland MI
2835 Grabell,Alison 8438 38:42.8 36:44.1 11:49 F 29 Ann Arbor MI
2836 Rust,Bruce 7232 38:42.9 34:22.4 11:04 M 44 Ypsilanti MI
2837 Sweeney,David O. 7693 38:43.2 37:29.6 12:04 M 66 Northville MI
2838 Kulwicki,Mary 6081 38:43.4 34:32.4 11:07 F 52 Ann Arbor MI
2839 Garner,Lori 5302 38:43.4 34:52.8 11:14 F 42 Ann Arbor MI
2840 Kulwicki,Amanda 6080 38:43.6 34:32.8 11:07 F 23 Ann Arbor MI
2841 Piccirilli,Angela 1222 38:43.7 33:25.4 10:45 F 40 Macomb MI
2842 Lyden,Mary Lou 6266 38:44.6 36:32.3 11:46 F 60 Washington DC
2843 Welter,Stacia 8011 38:44.6 36:03.5 11:36 F 36 Portland MI
2844 Barczak,Tom 4170 38:44.7 36:03.7 11:36 M 37 Portland MI
2845 Steglitz,Allison 7578 38:45.0 34:01.0 10:57 F 8 Ann Arbor MI
2846 Dielman,Ron 4932 38:45.7 35:15.8 11:21 M 30 Perrysburg OH
2847 Eipperle-smith,Debra 5051 38:45.9 34:41.2 11:10 F 53 Monroe MI
2848 Bez,Ilene 4301 38:46.0 34:19.8 11:03 F 48 Farmington Hills MI
2849 Koch,Melissa 5993 38:46.1 34:46.3 11:11 F 24 Jackson, United States
2850 Vainner,Andrew 7830 38:46.2 34:46.4 11:12 M 27 Jackson, United States
2851 Tumbarello,Julie 7805 38:46.5 37:24.0 12:02 F 40 Ypsilanti MI
2852 Zick,Andrew 8237 38:46.5 33:51.3 10:54 M 51 Durand MI
2853 Tumbarello,Holly 7804 38:46.5 37:24.2 12:02 F 12 Ypsilanti MI
2854 Loso,Mary 6236 38:47.3 33:46.5 10:52 F 64 Pinckney MI
2855 Samborn,Alison 7269 38:47.5 35:13.0 11:20 F 32 Ann Arbor MI
2856 Zwinak,Alexander 8254 38:48.0 34:16.8 11:02 M 41 Ann Arbor MI
2857 Devins,Michele 4917 38:48.1 34:25.1 11:05 F 56 Southgate MI
2858 Steglitz,Brian 7579 38:48.6 34:04.3 10:58 M 42 Ann Arbor MI
2859 Bell,Jill 4244 38:48.9 32:16.1 10:23 F 31 Ann Arbor MI
2860 Conlin,Catherine 9247 38:49.0 33:37.2 10:49 F 12
2861 Bell,Jeff 4243 38:49.1 32:16.3 10:23 M 34 Ann Arbor MI
2862 Conlin,John 9246 38:49.7 33:37.5 10:49 M 43
2863 Bell,Ron 4247 38:49.9 32:17.0 10:23 M 63 Ypsilanti MI
2864 Mozena,Kimberly 8645 38:50.9 35:37.3 11:28 F 34 Onsted U.S.
2865 Lynn-zavicar,Lorrie 8582 38:51.0 35:37.8 11:28 F 34 Onsted MI
2866 Mcdonald,Jamie 9287 38:51.5 35:37.4 11:28 F 0
2867 Loney,Neil 6229 38:51.5 37:42.5 12:08 M 63 Ann Arbor MI
2868 Loney,Stephen 6230 38:51.7 37:43.0 12:08 M 57 Ann Arbor MI
2869 Saunders,Tara 7289 38:51.8 33:27.5 10:46 F 38 Ann Arbor MI
2870 Addonizio,Mike 8893 38:52.0 36:28.0 11:44 M 62 Ann Arbor MI
2871 Marentette,Wayne 6323 38:52.5 35:33.9 11:27 M 60 Wyandotte MI
2872 Burnett,Kelly 8310 38:52.6 34:19.0 11:03 F 39 Britton MI
2873 Carrier,Kelly 8315 38:52.6 34:19.1 11:03 F 38 Adrian MI
2874 Chisnell,Lani 8917 38:53.2 35:40.5 11:29 F 40 Ypsilanti MI
2875 Wade,Heather 7922 38:53.6 34:19.6 11:03 F 39 Ann Arbor MI
2876 O'leary,Jillian 8667 38:53.9 36:44.7 11:50 F 29 Westland MI
2877 Sneyd,Joy 9275 38:54.7 35:52.7 11:33 F 42
2878 Vansyckle,Levi 7869 38:55.1 35:16.1 11:21 M 10 Greenville MI
2879 Johnson,Stephanie 9458 38:55.9 37:45.5 12:09 F 37 Owosso MI
2880 Richards,Chris 7087 38:56.4 35:22.7 11:23 M 33 Ypsilanti MI
2881 Vansyckle,Jamie 7868 38:57.0 35:17.6 11:22 F 38 Greenville MI
2882 Dai,Hanyi 4815 38:57.1 37:38.4 12:07 F 34 Kalamazoo MI
2883 Stram,Lisa 7627 38:57.4 35:23.6 11:24 F 26 Brighton MI
2884 Hicks,D'anne 5631 38:57.8 34:34.3 11:08 F 49 Fraser United States
2885 Hicks,Taylor 5633 38:57.8 34:34.0 11:08 F 21 Ann Arbor MI
2886 Freeman,Stefany 5252 38:57.8 34:31.0 11:07 F 47 Bloomfield Hills MI
2887 Vanneste,Karen 7866 38:58.0 35:07.8 11:18 F 42 Chelsea MI
2888 Swarbrick,Donna 7689 38:59.0 35:13.2 11:20 F 54 Bloomfield Hills MI
2889 Kennel,Maggi 5927 38:59.6 33:45.6 10:52 F 34 Ann Arbor MI
2890 Richards,Staci 7090 38:59.7 35:25.6 11:24 F 28 Ypsilanti MI
2891 Gretkierewicz,Luke 5438 39:01.0 34:33.3 11:07 M 8 Ann Arbor MI
2892 Gretkierewicz,Tim 5440 39:01.2 34:32.8 11:07 M 43 Ann Arbor MI
2893 Debeau,Jennifer 4872 39:02.0 35:23.3 11:23 F 23 Plymouth United States
2894 Messina,Zachary 6489 39:02.2 35:23.3 11:23 M 34 Canton United States
2895 Jaruzel,Karen 5794 39:02.8 34:19.9 11:03 F 29 Ann Arbor MI
2896 Fardig,Amy 5141 39:03.1 34:20.4 11:03 F 27 Ann Arbor MI
2897 Doyle,Kerry 4985 39:03.5 35:33.7 11:27 F 42 Northville MI
2898 Botica,John 4375 39:03.9 33:45.6 10:52 M 38 Ypsilanti United States
2899 Elly,Erin 5080 39:04.5 36:09.2 11:38 F 36 Ann Arbor MI
2900 Smith,Tracy 7508 39:04.6 34:15.5 11:02 F 30 Ann Arbor MI
2901 Smith,Daniel 7477 39:04.7 34:16.0 11:02 M 30 Ann Arbor MI
2902 Thomas,David L 7739 39:04.9 33:25.9 10:46 M 36 Ann Arbor MI
2903 Falko,Denelle 5138 39:05.2 33:42.8 10:51 F 34 West Bloomfield MI
2904 Pollock,Asaf 6945 39:05.5 37:57.3 12:13 M 13 Huntington Woods MI
2905 Stevens,Carly 7587 39:05.7 34:48.6 11:12 F 35 Ypsilanti MI
2906 Miel,Rhoda 6506 39:05.9 34:53.4 11:14 F 48 Ann Arbor MI
2907 Gray,Kristen 5425 39:06.2 33:33.1 10:48 F 22 Saline MI
2908 Baker,Kaden 4148 39:06.9 33:36.2 10:49 M 8 Maybee MI
2909 Baker,Paul 4153 39:07.7 33:33.6 10:48 M 44 Maybee MI
2910 Falko,Todd 5139 39:07.8 33:45.1 10:52 M 34 West Bloomfield MI
2911 Gray,Gary 5424 39:07.9 33:35.3 10:49 M 47 Saline MI
2912 Howe,Devyn 5712 39:08.1 36:15.0 11:40 F 13 Saline MI
2913 Mycek,Katherine 6655 39:08.6 34:12.1 11:00 F 29 Ann Arbor MI
2914 Heldsinger,Andrea 5598 39:08.8 35:36.7 11:28 F 59 Ann Arbor MI
2915 Nordin,Jennifer 6729 39:08.9 35:54.3 11:33 F 40 Plymouth United States
2916 Cummins,Emily 4794 39:09.0 37:23.5 12:02 F 22 Rochester Hills MI
2917 Cosgrove,Dan 4743 39:09.7 36:20.9 11:42 M 42 Canton MI
2918 Edmunds,Marie 5039 39:09.8 35:15.4 11:21 F 59 West Bloomfield MI
2919 Howe,Shea 5713 39:10.1 36:17.2 11:41 F 11 Saline MI
2920 Dolan,Jennifer 9183 39:10.4 34:18.6 11:03 F 24
2921 Paitrasson-riviere,Alexis 9182 39:10.6 34:19.1 11:03 M 24
2922 Wakefield,Thomas 9470 39:11.2 38:37.6 12:26 M 56 Ann Arbor MI
2923 Wakefield,Mary 9469 39:11.5 38:37.3 12:26 F 56 Ann Arbor MI
2924 O'neal,Pam 6785 39:12.2 34:10.7 11:00 F 36 Ann Arbor MI
2925 Fuerst,Todd 5273 39:12.4 38:10.1 12:17 M 30 Midland United States
2926 Brooks-heath,Sooner 4445 39:12.7 34:31.7 11:07 M 30 Ypsilanti MI
2927 Jackson,Mike 5771 39:12.8 37:21.7 12:02 M 53 Howell MI
2928 Hoeft,Sheila 8471 39:12.9 34:37.3 11:09 F 37 Dexter United States
2929 Lawton,Jennifer 6134 39:13.0 34:32.6 11:07 F 29 Ypsilanti MI
2930 Schrader,Al 8771 39:13.0 35:00.1 11:16 M 75 Ann Arbor MI
2931 Lowe,Pamela 6242 39:13.3 37:23.0 12:02 F 52 Brighton MI
2932 Czernik,Brandon 4811 39:13.6 33:29.5 10:47 M 26 Jackson MI
2933 Zemer,Amber 8234 39:14.0 33:30.7 10:47 F 26 Jackson MI
2934 Smith,Laura 8793 39:14.2 34:57.4 11:15 F 33 Lansing MI
2935 Desai,Bipin 4903 39:14.3 37:22.8 12:02 M 58 Brighton MI
2936 Miller,Gerald 6518 39:15.9 37:39.6 12:07 M 51 Manchester United States
2937 Fairbanks,Mindy 5132 39:16.2 35:37.3 11:28 F 37 Milan MI
2938 Austin,Stephany 4108 39:16.4 36:34.6 11:46 F 63 Bloomfield Hills United States
2939 Cherry,Donald 4640 39:16.5 36:34.5 11:46 M 67 Grosse Pointe MI
2940 Barbara,Torzewski 4169 39:16.6 35:38.3 11:28 F 37 Milan MI
2941 Buchstaller,Johanna 8907 39:18.2 34:22.7 11:04 F 32 Ann Arbor United States
2942 Johnson,Ellen 5822 39:19.0 35:27.3 11:25 F 32 Ann Arbor MI
2943 Fox,Tera 5237 39:19.6 31:51.5 10:15 F 38 Ypsilanti MI
2944 Hooks,Earl 5692 39:19.8 12:40 M 27 Wyandotte United States
2945 Beach,Katharine 8284 39:20.1 35:20.3 11:22 F 35 Ypsilanti MI
2946 Duck,Elinor 5001 39:20.2 34:10.1 11:00 F 8 Ann Arbor MI
2947 Massoudi,Roya 8980 39:20.4 37:23.7 12:02 F 47 Dexter United States
2948 Duck,Ken 5002 39:20.7 34:10.7 11:00 M 41 Ann Arbor MI
2949 Lehman,Michael 6164 39:20.9 36:15.4 11:40 M 27 Huntington Woods MI
2950 Lehman,Victoria 6165 39:21.1 36:15.9 11:40 F 27 Huntington Woods MI
2951 Elliott,Shawn 5075 39:21.5 33:41.1 10:51 M 38 Westland MI
2952 Buck,Audrey 4481 39:21.7 38:06.2 12:16 F 12 Canton MI
2953 Elliott,Amy 5071 39:22.0 33:40.9 10:50 F 37 Westland MI
2954 Sweeton,Rebecca 7695 39:22.3 35:19.6 11:22 F 32 Livonia MI
2955 Styles,Stephanie 8807 39:23.6 12:41 F 18 Ann Arbor U.S.A
2956 Chrispens,Collin 4653 39:23.6 36:58.9 11:54 M 16 Holt MI
2957 Williams,Shannon 8103 39:23.9 37:53.2 12:12 F 33 Farmington MI
2958 Haight,Michelle 5496 39:26.1 38:26.9 12:23 F 41 Troy MI
2959 Watza,Jack 7972 39:26.8 35:43.3 11:30 M 12 Ann Arbor MI
2960 Otero,Danielle 6804 39:27.5 36:21.7 11:42 F 40 Grand Blanc MI
2961 Lloyd,Ginger 6224 39:27.7 38:16.0 12:19 F 60 Tecumseh MI
2962 Mateo,Carmen 6354 39:28.4 35:36.0 11:27 F 13 Ann Arbor MI
2963 Zellman,George 8233 39:28.7 38:42.1 12:27 M 38 Ann Arbor United States
2964 Ouellette,Daniel 6808 39:29.2 33:36.0 10:49 M 50 Saline MI
2965 Ouellette,Claire 6807 39:29.3 33:36.4 10:49 F 21 Saline MI
2966 Lieffers,Cary 6213 39:30.9 36:16.8 11:41 F 29 Milan MI
2967 Maslowsky,Julie 6349 39:31.1 36:00.9 11:36 F 28 Ann Arbor MI
2968 Labarrie,Al 6094 39:31.2 36:01.4 11:36 M 27 Ann Arbor MI
2969 Chaffin,Keith 4616 39:32.7 37:35.8 12:06 M 40 Brighton MI
2970 Lynch,Julie 6268 39:32.8 38:01.4 12:14 F 40 Whitmore Lake MI
2971 Campbell,Jeff 4561 39:33.0 12:44 M 32 Berkley MI
2972 Taddia,Anthony 7703 39:33.3 37:36.7 12:06 M 47 Livonia United States
2973 Stewart,Rhiannon 7594 39:33.5 36:10.5 11:39 F 30 Ann Arbor Washtenaw
2974 Saldana,Julia 7262 39:33.7 37:32.5 12:05 F 20 Ann Arbor MI
2975 Stewart,Andrew 9026 39:34.5 36:11.9 11:39 M 27 Ann Arbor MI
2976 Brown,Katie 9064 39:34.6 34:32.2 11:07 F 16
2977 Mooney,Ann 6570 39:34.7 37:04.0 11:56 F 57 Ann Arbor MI
2978 Fried,Leo 5262 39:35.3 34:09.9 11:00 M 9 Ann Arbor MI
2979 Fried,Aaron 5261 39:35.4 34:10.4 11:00 M 42 Ann Arbor MI
2980 Findlay,Patricia 5185 39:35.5 36:33.4 11:46 F 68 Ann Arbor MI
2981 Siegel,Sandra 9016 39:35.9 38:08.8 12:17 F 45 Woodhaven MI
2982 Siegel,Scott 9017 39:36.1 38:08.9 12:17 M 46 Woodhaven MI
2983 Herring- Kittelberge,Tammy 5613 39:36.9 38:08.4 12:17 F 47 ST. Thomas Canada
2984 Yallop,Wendy 8172 39:36.9 38:09.1 12:17 F 43 Ann Arbor MI
2985 Heumann,Lynn 5621 39:37.3 35:10.1 11:19 F 48 Ann Arbor MI
2986 Park,Nguyen 6834 39:38.0 34:45.2 11:11 F 37 Brownstown United States
2987 Blackwell,Jennifer 4320 39:38.3 33:42.5 10:51 F 39 Ann Arbor MI
2988 Mckenzie,Arynne 6441 39:38.6 35:46.1 11:31 F 32 Ann Arbor MI
2989 Walke,Thomas 7936 39:39.0 12:46 M 39 Ann Arbor MI
2990 Ventura,Justin 7885 39:40.3 34:32.7 11:07 M 34 Canton MI
2991 Hudson,Matthew 5731 39:41.1 34:53.3 11:14 M 37 Milan MI
2992 Ventura,Holly 9413 39:41.1 34:34.1 11:08 F 33 Canton MI
2993 Hadley,Diana 5490 39:42.0 35:14.6 11:21 F 34 Ann Arbor MI
2994 Vetor,Karen 7896 39:42.1 35:14.9 11:21 F 40 Ypsilanti MI
2995 Hurley,Ann 8482 39:42.7 35:39.8 11:29 F 46 South Lyon MI
2996 Pace,Christian 8681 39:43.4 37:03.9 11:56 M 12 Marshall MI
2997 Tamm,Elissa 8812 39:43.4 34:40.2 11:10 F 24 Northville MI
2998 Deboer,Shannon 4873 39:43.7 34:55.8 11:15 F 31 Belding MI
2999 Mikkor,Tom 6507 39:44.9 38:21.5 12:21 M 41 Ann Arbor U.S.
3000 Stricklen,Anna 7634 39:45.2 38:21.9 12:21 F 12 Ann Arbor U.S.
3001 Davis,Michael 4852 39:45.5 36:34.0 11:46 M 37 Dexter MI
3002 Davis,Hayden 4848 39:45.7 36:34.4 11:46 M 6 Dexter MI
3003 Dalley,Matthew 4819 39:46.0 33:51.1 10:54 M 35 Plymouth MI
3004 Beatty,Lucy 4212 39:46.4 35:35.9 11:27 F 53 Oak Park MI
3005 Dalaly,Mimi 9248 39:46.8 12:48 F 30
3006 Spangler,Craig 7538 39:47.0 35:57.0 11:34 M 56 Bloomfield Hills MI
3007 Murawski,Kelly 6633 39:47.2 34:01.2 10:57 F 24 Canton MI
3008 Rollet,Jim 8743 39:47.6 35:30.9 11:26 M 51 Southgate MI
3009 Basham,Christian 4188 39:48.1 34:31.7 11:07 F 32 Whitmore Lake United States
3010 Halberstam,Hannah 8449 39:48.4 38:13.1 12:18 F 7 Ann Arbor MI
3011 Blake,Brandon 4322 39:49.0 33:51.4 10:54 M 14 Flint United States
3012 Halberstam,Daniel 8448 39:49.1 38:13.8 12:18 M 43 Ann Arbor MI
3013 Pollock,Ayelet 6946 39:49.5 38:40.9 12:27 F 10 Huntington Woods MI
3014 Pender,Lorie 6875 39:49.7 33:51.8 10:54 F 35 West Bloomfield United States
3015 Pacernick,Rachel 6812 39:49.8 38:41.0 12:27 F 10 Ann Arbor MI
3016 Pollock,Allison 6944 39:50.2 38:42.0 12:27 F 39 Huntington Woods MI
3017 Weinstein,Elisabeth 7994 39:50.2 38:41.9 12:27 F 41 Ann Arbor MI
3018 Dew,Thena 4919 39:50.3 38:53.1 12:31 F 35 Royal Oak MI
3019 Dennis,Meredith 4895 39:50.6 35:21.3 11:23 F 21 Ann Arbor MI
3020 Williams,Terri 8104 39:50.6 34:45.4 11:11 F 28 Ann Arbor MI
3021 Rock,Elizabeth 7144 39:50.7 38:29.3 12:23 F 23 Ypsilanti MI
3022 Kopec,Jourdon 6017 39:50.8 35:21.4 11:23 F 20 Ann Arbor, United States
3023 Mead,Cathy 8616 39:51.2 37:11.4 11:58 F 54 Marshall MI
3024 Fensch,Jessica 5165 39:51.7 35:32.2 11:26 F 26 Jackson MI
3025 Buszka,Shelly 4537 39:51.9 38:14.4 12:18 F 43 Farmington Hills MI
3026 Black,Terry 4319 39:52.0 38:26.9 12:23 M 52 Ann Arbor MI
3027 Buszka,Preston 4536 39:52.1 38:14.5 12:19 M 9 Farmington Hills MI
3028 Curry,Connie 4799 39:52.3 38:27.0 12:23 F 53 Ann Arbor MI
3029 Mccreight,Amanda 6415 39:52.6 35:45.0 11:30 F 30 Pinckney United States
3030 Fick,Sarah 5174 39:52.8 34:53.8 11:14 F 28 Ann Arbor MI
3031 House,Emily 5707 39:52.8 34:53.9 11:14 F 27 Ann Arbor MI
3032 Mercado,Jessica 6480 39:53.1 36:43.8 11:49 F 20 Grand Blanc MI
3033 Willits,Sarah 8106 39:53.3 35:20.8 11:23 F 21 Ann Arbor MI
3034 Abler,Ben 4004 39:53.6 29:27.2 9:29 M 34 Novi MI
3035 Ingram,Angel 5759 39:54.6 35:36.0 11:27 F 23 Southfield MI
3036 Hlalo,Fortune 5659 39:56.9 34:16.1 11:02 M 33 Lansing MI
3037 Sladick,Tyler 8789 39:56.9 35:37.4 11:28 M 10 Fowlerville MI
3038 Sladick,Michelle 7465 39:57.4 35:38.2 11:28 F 39 Fowlerville MI
3039 Leflar,Patrick 6162 39:57.6 36:19.3 11:41 M 40 Clinton Township United States
3040 Hawley,Shawn 5568 39:57.6 34:53.9 11:14 M 30 Ann Arbor MI
3041 Heumann,Katherine 5620 39:57.8 34:32.7 11:07 F 50 Manchester MI
3042 Mcdannel,Gary 6419 39:59.2 38:25.4 12:22 M 61 Southgate MI
3043 Ladd,Haylee 6099 39:59.4 38:27.6 12:23 F 13 Onsted MI
3044 Lucchesi,Mary 6248 40:00.7 37:37.3 12:07 F 51 Westlake OH
3045 Watza,Joe 7973 40:01.4 36:17.1 11:41 M 11 Ann Arbor MI
3046 Tuller,Kelli 8825 40:01.8 35:40.9 11:29 F 38 Ida MI
3047 Gale,Anastasia 5286 40:02.5 36:05.8 11:37 F 31 Berkley MI
3048 William,Law 8085 40:02.8 38:27.3 12:23 M 58 Farmington Hills MI
3049 Walker,Sara 7942 40:03.0 36:01.7 11:36 F 29 Ann Arbor United States
3050 Kelley,Tracy 5910 40:03.2 36:17.8 11:41 F 38 Coldwater MI
3051 Boedeker,Stephanie 4345 40:03.5 37:33.5 12:05 F 31 Clinton Township MI
3052 Smay,Michelle 7472 40:03.6 35:52.6 11:33 F 39 Ann Arbor MI
3053 Watza,Dave 9423 40:03.7 36:19.6 11:42 M 44
3054 Walterhouse,Tom 7951 40:03.8 35:52.2 11:33 M 52 Ann Arbor MI
3055 Siegler,Cathie 7422 40:04.2 34:22.2 11:04 F 43 Canton MI
3056 Weir,Alicia 9360 40:04.3 36:31.1 11:45 F 34
3057 Bierlein,Maggie 4306 40:04.5 34:24.0 11:04 F 30 Lansing MI
3058 Weir,Andy 9361 40:04.6 36:31.1 11:45 M 55
3059 Seidleck,Marianne 7366 40:05.2 34:44.9 11:11 F 42 Dexter United States
3060 Seidleck,Chris 7365 40:05.4 34:45.6 11:11 M 12 Dexter United States
3061 Miller,Kim 8632 40:05.6 34:46.3 11:12 F 34 Canton MI
3062 Miller,Ricky 6532 40:05.6 34:46.8 11:12 M 36 Canton United States
3063 Vontom,Emily 7914 40:05.8 38:04.5 12:15 F 25 Ypsilanti MI
3064 Adams,Matthew 4021 40:08.1 33:41.4 10:51 M 37 South Lyon MI
3065 Drake,Elizabeth 4993 40:08.3 33:15.9 10:42 F 34 Ann Arbor MI
3066 Chinavare,Chad 8330 40:08.4 37:57.1 12:13 M 25 Brownstown MI
3067 Siskosky,James 7445 40:09.1 35:52.3 11:33 M 64 Novi MI
3068 Pinhey,Shay 6926 40:09.3 36:25.7 11:43 F 13 Ann Arbor MI
3069 Begeman,Kate 4234 40:09.4 36:26.2 11:44 F 49 Ann Arbor MI
3070 Horvath,Cristina 8472 40:10.0 37:59.2 12:14 F 23 Southgate MI
3071 Nolan,Will 6728 40:10.7 34:25.9 11:05 M 12 Ypsilanti MI
3072 Sumerton,Amy 7667 40:12.0 36:10.8 11:39 F 34 Ann Arbor MI
3073 Bergum,Paul 4279 40:12.9 36:00.4 11:35 M 54 White Lake MI
3074 Eichner,Adam 5047 40:13.8 35:37.9 11:28 M 44 Ann Arbor MI
3075 Ressler,Theodore 7074 40:15.3 35:43.9 11:30 M 34 Ann Arbor MI
3076 Boedeker,Gregory 4344 40:15.8 35:36.4 11:28 M 60 Clinton Township MI
3077 Wu,Grace 8169 40:16.1 35:44.5 11:30 F 30 Ann Arbor MI
3078 Creager,Jackie 8349 40:16.3 35:22.8 11:23 F 57 Ann Arbor MI
3079 Valasek,Katie 7831 40:16.6 34:23.8 11:04 F 27 Owosso MI
3080 Hawkins,Troy 8463 40:16.7 37:10.4 11:58 M 30 Indianapolis IN
3081 Wellman,Patrick 8008 40:16.8 38:15.3 12:19 M 11 Ann Arbor MI
3082 Stehouwer,Emilia 7583 40:17.3 36:28.9 11:45 F 9 Ann Arbor U.S.
3083 Bradley,Claire 4403 40:17.5 36:29.1 11:45 F 10 Ann Arbor MI
3084 Rodriguez,Marisa 9009 40:17.6 37:05.3 11:56 F 26 Ann Arbor MI
3085 Szalay,Kurt 7702 40:18.0 39:53.4 12:50 M 45 Saline MI
3086 Harwood,Eddie 8948 40:18.2 37:05.6 11:56 M 26 Ann Arbor MI
3087 Walsh,Margaret 7946 40:18.9 38:18.3 12:20 F 58 Ann Arbor MI
3088 Stehouwer,Elizabeth 7582 40:19.7 36:30.2 11:45 F 39 Ann Arbor U.S.
3089 Frei,Nicole 5254 40:19.9 36:30.8 11:45 F 43 Ann Arbor MI
3090 Cottrell,Lesa 8920 40:19.9 35:20.4 11:22 F 50 Chelsea MI
3091 Swanson,Jameson 7685 40:21.3 36:45.4 11:50 M 10 Saline MI
3092 Lawrenchuk,Mallory 6132 40:21.4 34:32.8 11:07 F 25 Ann Arbor MI
3093 Schaffner,Jim 7300 40:21.9 33:00.2 10:37 M 25 Rocester Hills MI
3094 Baca,Jessica 4119 40:22.4 35:35.3 11:27 F 21 South Lyon MI
3095 Baca,Ann 4118 40:22.9 35:35.7 11:27 F 50 South Lyon MI
3096 Ross,Kenneth 7182 40:24.0 35:30.2 11:26 M 21 Stillwater OK
3097 Bailey,Angela 4133 40:24.1 35:29.9 11:26 F 18 Ann Arbor MI
3098 Burdette,Gabriel 4499 40:24.2 36:30.6 11:45 M 30 Milan MI
3099 Burdette,Tara 4500 40:24.6 36:31.2 11:45 F 27 Milan MI
3100 Baylerian,Adam 4204 40:24.9 33:55.2 10:55 M 37 Troy MI
3101 Hawn,Kristen 5569 40:25.1 35:56.2 11:34 F 35 Portage United States
3102 Fountain,Jason 5231 40:25.2 36:43.1 11:49 M 35 West Bloomfield MI
3103 Grod,Andrew 5449 40:25.5 35:36.8 11:28 M 29 Berea OH
3104 Tang,Sherry 8813 40:26.2 35:55.4 11:34 F 19 Ann Arbor MI
3105 Fry,David 5271 40:26.3 35:20.8 11:23 M 45 Ann Arbor MI
3106 Goh,Keow Mei 5375 40:26.8 35:21.6 11:23 F 42 Ann Arbor MI
3107 Mawhirter,Orianne 6377 40:27.1 38:44.1 12:28 F 26 Algonac MI
3108 Bourlier,Jeanet 4381 40:27.1 38:42.9 12:28 F 25 Algonac United States
3109 Stein,Steve 9211 40:27.8 37:50.4 12:11 M 51
3110 Brichta,Brian 4430 40:28.0 34:59.8 11:16 M 35 Ann Arbor MI
3111 Lukaszewski,Denise 6251 40:28.2 37:52.8 12:12 F 25 Ann Arbor MI
3112 Kotsogiannis,Vana 6027 40:28.2 34:01.5 10:57 F 18 Southgate United States
3113 Schafer,Dan 7297 40:28.2 34:48.5 11:12 M 42 Jackson MI
3114 Piekman,Susanne 9359 40:29.6 39:52.0 12:50 F 42
3115 Bofarull,Borja 4348 40:29.9 37:27.5 12:03 M 27 Ann Arbor MI
3116 Kallas,Mekenna 9184 40:30.9 38:06.0 12:16 F 8
3117 Schafer,Kim 7298 40:31.0 34:52.1 11:13 F 42 Jackson MI
3118 Kallas,Greg 9203 40:31.0 38:05.7 12:16 M 51
3119 Kallas,Kimberly 9185 40:32.5 38:08.3 12:17 F 43
3120 Horn,Christina 9433 40:32.9 38:25.6 12:22 F 35 Plymouth United States
3121 Asher,Brandi 8267 40:33.0 38:25.7 12:22 F 25 Northville MI
3122 Khan,Syma 5938 40:33.6 34:47.7 11:12 F 24 Canton MI
3123 Iniguez,Xavier 8486 40:33.6 38:02.6 12:15 M 10 Ann Arbor MI
3124 Johnson,Andrew 9218 40:33.7 36:35.2 11:47 M 9
3125 Sherman,Jamie 7399 40:34.4 36:53.6 11:52 F 28 Lansing MI
3126 Parkinson,Sean 6836 40:34.4 36:28.6 11:44 M 49 Dundee MI
3127 Ryan,Austin 7242 40:35.0 36:53.7 11:53 M 12 Lansing MI
3128 Brown,Vicki 4466 40:35.1 36:08.8 11:38 F 26 Ann Arbor MI
3129 Kent,James 5931 40:35.2 36:08.9 11:38 M 27 Ann Arbor MI
3130 Richards,William (rob) 7091 40:35.4 38:20.2 12:20 M 49 Belleville MI
3131 Richards,Deborah 7088 40:35.5 38:21.6 12:21 F 50 Belleville MI
3132 Secor,Melyssa 8777 40:35.6 36:34.6 11:46 F 15 Bay City MI
3133 Secor,Christopher 8776 40:36.2 36:35.0 11:46 M 46 Bay City MI
3134 Yeh,Frances 8184 40:36.8 35:42.8 11:30 F 37 Ann Arbor MI
3135 Priest,Rebecca 6968 40:36.9 35:07.3 11:18 F 30 Ann Arbor United States
3136 Bath,Jacob 4195 40:37.1 35:29.3 11:25 M 9 Petoskey MI
3137 Trombley,Natalie 7791 40:37.2 13:04 F 37 Rochester Hills MI
3138 Harrington,Michele 8460 40:37.7 35:21.1 11:23 F 34 Ann Arbor MI
3139 Harrington,Wes 8461 40:37.8 35:20.9 11:23 M 36 Ann Arbor MI
3140 Cavanaugh,Angela 4610 40:38.0 37:20.6 12:01 F 41 Chelsea Washtenaw
3141 Kingery,Jamie 5959 40:38.3 35:11.7 11:20 F 26 Ypsilanti United States
3142 Smith,William 7510 40:38.4 35:32.8 11:26 M 24 Ann Arbor MI
3143 Ferebee,Christina 5166 40:38.5 35:10.9 11:19 F 31 Winterville NC
3144 Thompson,Kelly 7751 40:38.9 35:33.1 11:27 F 24 Ann Arbor MI
3145 Serrell,William 7374 40:39.6 34:55.0 11:14 M 59 Ypsilanti MI
3146 Dziubek,Constantine 8385 40:40.2 39:14.6 12:38 F 51 Canton MI
3147 Olk,Matthew 6771 40:40.3 35:26.9 11:25 M 38 Saginaw MI
3148 Mcnish,Dena 6453 40:40.6 38:00.8 12:14 F 34 Howell MI
3149 Stilber,Julie 7600 40:40.6 37:04.2 11:56 F 43 Dexter United States
3150 Dickerson,Pamela 4929 40:40.7 38:01.0 12:14 F 29 Ypsilanti MI
3151 Cornellier,Christine 4739 40:41.1 39:04.0 12:34 F 17 Novi U.S.A.
3152 Swanson,Sherri 7688 40:41.5 37:05.6 11:56 F 47 Saline MI
3153 Davis,Sarah 4856 40:41.6 38:02.8 12:15 F 23 Grand Rapids MI
3154 Charlton,Michael 4633 40:42.1 13:06 M 28 Clinton MI
3155 Cornellier,Maria 4740 40:42.2 39:05.0 12:35 F 46 Novi U.S.A.
3156 Tanguay,Donald 7706 40:42.3 36:53.5 11:52 M 59 Jackson MI
3157 Smith,Sherry 7506 40:43.4 35:49.1 11:32 F 46 Willis MI
3158 Wallace,Monica 7342 40:43.5 37:32.4 12:05 F 20 Adrian United States
3159 Johnson,Stacey 5834 40:43.6 37:21.3 12:01 F 31 Marshall United States
3160 Sisco,Brooke 7444 40:43.7 37:20.5 12:01 F 31 Burlington MI
3161 Roedel,Martin 7153 40:44.5 38:35.2 12:25 M 57 Livonia MI
3162 Whalen,Tom 8030 40:44.8 36:52.7 11:52 M 79 Ann Arbor MI
3163 Alvarez,Cristina 4059 40:45.0 37:34.1 12:06 F 24 Adrian United States
3164 Munkacsy,Mary 6628 40:45.5 35:37.4 11:28 F 53 Okemos MI
3165 Morgan,Jennifer 6587 40:45.5 35:27.3 11:25 F 31 Byron Center MI
3166 Frazier,Charles 5245 40:45.6 35:27.4 11:25 M 28 Byron Center MI
3167 Buck,Margaret 4483 40:45.9 39:32.0 12:43 F 9 Canton MI
3168 Stephen,John 7585 40:46.2 36:43.5 11:49 M 23 Ann Arbor MI
3169 Oswald,Victor 8679 40:46.4 36:10.2 11:39 M 9 Ann Arbor U.S.A.
3170 Oswald,Robert 8678 40:46.8 36:11.2 11:39 M 46 Ann Arbor U.S.A.
3171 Mccready-maynes,Jennifer 6414 40:47.2 35:57.1 11:34 F 33 Dexter MI
3172 Russell,Bobby 7223 40:47.3 36:26.1 11:44 M 38 Milan MI
3173 Leflar,Paula 6163 40:47.8 37:10.0 11:58 F 36 Clinton Township United States
3174 Young,Thomas 8205 40:48.1 39:34.6 12:44 M 8 Ypsilanti MI
3175 Ross,Scott 7185 40:49.1 35:57.9 11:35 M 36 Flint MI
3176 Artt,Diane 4097 40:49.1 35:33.2 11:27 F 50 White Lake MI
3177 Platt,Heather 9003 40:50.7 35:51.9 11:33 F 40 Chelsea MI
3178 Gunn,Kyle 9272 40:50.8 38:10.3 12:17 M 11
3179 Freiman,Meryl 5256 40:51.4 34:48.5 11:12 F 5 Ann Arbor MI
3180 Freiman,Catherine 5255 40:51.4 34:48.9 11:12 F 40 Ann Arbor MI
3181 Wolf,Darlene 8136 40:51.4 38:05.2 12:16 F 41 Richland MI
3182 Gunn,Jeff 9271 40:51.7 38:11.3 12:17 M 16
3183 Williams,Alyssa 8086 40:52.1 37:04.2 11:56 F 10 Saline MI
3184 Devee,Wendy 4914 40:52.6 35:56.6 11:34 F 55 Ann Arbor MI
3185 Rosol,Susan 7180 40:52.8 35:49.3 11:32 F 46 Milford MI
3186 Holcombe,Lucas 5680 40:52.8 38:20.6 12:20 M 11 Ypsilanti MI
3187 Bieniek,Nick 4303 40:53.1 35:59.4 11:35 M 22 Ann Arbor MI
3188 Bach,Megan 4122 40:53.2 36:08.0 11:38 F 33 Ypsilanti MI
3189 Lameti,Katie 6109 40:53.4 38:22.6 12:21 F 19 Owosso MI
3190 Lavasseur,David 8555 40:53.8 35:05.2 11:18 M 50 Saline MI
3191 Searles,Leanne 7353 40:54.1 38:18.9 12:20 F 30 Muskegon MI
3192 Bradley,Colin 4404 40:54.3 36:30.3 11:45 M 10 Mason MI
3193 Wolfe,Beverly 8871 40:54.5 36:03.9 11:36 F 49 Saline MI
3194 Niemiec,Gabrielle 6712 40:55.2 37:06.6 11:57 F 12 Taylor MI
3195 Mendez,Janet 6472 40:55.6 36:31.3 11:45 F 37 Mason MI
3196 Nibert,Nicole 6704 40:55.9 37:07.3 11:57 F 26 Taylor MI
3197 Keller,Jenell 9443 40:58.2 34:49.9 11:13 F 28 Holly MI
3198 Schrotenboer,Sara 8772 40:58.3 34:50.7 11:13 F 25 Saginaw United States
3199 Catalfio,Jo Ann 4608 40:58.7 35:46.2 11:31 F 51 Dexter MI
3200 Telfer,James 7722 40:59.0 35:46.5 11:31 M 59 Dexter MI
3201 Dastmalchi,Yekta 4828 40:59.9 38:01.6 12:14 F 50 Novi MI
3202 Johnson,Micah 9219 41:00.4 37:01.0 11:55 M 7
3203 Gonzalez,Archie 5387 41:00.7 37:05.3 11:56 M 48 Livonia MI
3204 Levenstein,Margaret 6193 41:00.7 37:49.4 12:10 F 48 Ann Arbor MI
3205 Muilenburg,Justine 9205 41:01.6 37:01.5 11:55 F 24
3206 Gonzalez,Ryan 9274 41:01.8 37:05.2 11:56 M 20
3207 Davidson,Eileen 4836 41:02.3 36:05.0 11:37 F 44 Dexter MI
3208 Mitchell,Brett 6553 41:02.7 37:03.1 11:56 M 32 Ann Arbor MI
3209 Mandalari,Anthony 6310 41:04.9 40:46.1 13:07 M 13 Lake Orion MI
3210 Sanders,Monica 7274 41:05.6 36:02.9 11:36 F 34 Mason MI
3211 Moeller,Mark 8640 41:07.8 39:14.7 12:38 M 55 Boulder CO
3212 Vecziedins,Karlis 7881 41:08.0 35:38.6 11:28 M 43 Caledonia MI
3213 Ramesh,Swaminathan 7013 41:09.4 39:03.3 12:34 M 61 Canton MI
3214 Adams,Joe 4020 41:10.6 39:18.7 12:39 M 47 Grass Lake MI
3215 Medford,Jody 8985 41:10.6 33:55.8 10:55 M 37 Waterford MI
3216 Medford,Daniella 8984 41:10.7 34:00.2 10:57 F 37 Waterford MI
3217 Thompson,Robert 7753 41:10.8 38:34.8 12:25 M 26 Ann Arbor MI
3218 Elser,Doug 5081 41:11.1 35:48.1 11:31 M 69 Ann Arbor MI
3219 Gast,Terri 5313 41:13.7 36:43.6 11:49 F 31 Saginaw MI
3220 Whitehead,Alan 8050 41:14.5 38:40.4 12:27 M 57 Novi MI
3221 Woodall,Michael 8150 41:14.6 40:05.4 12:54 M 57 Attica United States
3222 Mcveigh,Mary 6456 41:15.5 36:53.1 11:52 F 29 Ann Arbor MI
3223 Bingham,Aimee 4311 41:16.0 37:13.8 11:59 F 35 Manchester MI
3224 Gomez,Sheila 5384 41:16.0 39:27.5 12:42 F 61 Ann Arbor MI
3225 Tepper,Justin 7727 41:16.1 37:06.8 11:57 M 30 Dearborn MI
3226 Burk,Scott 9084 41:16.5 37:19.1 12:01 M 40
3227 Khivansara,Vishal 8533 41:16.6 38:27.2 12:23 M 30 Ann Arbor MI
3228 Burk,Madison 4510 41:16.7 37:19.2 12:01 F 10 Canton MI
3229 Romero,Jan 7166 41:17.5 39:36.4 12:45 F 47 Ann Arbor MI
3230 Dominguez,Kathryn 4956 41:17.8 39:22.4 12:40 F 49 Ann Arbor MI
3231 Branham,Aaron 4412 41:18.1 37:15.5 12:00 M 28 Manchester MI
3232 Hines,Julia 5649 41:18.4 39:23.0 12:41 F 12 Ann Arbor MI
3233 Woodall,April 8147 41:19.0 40:10.1 12:56 F 24 Davison United States
3234 Englesbe,Michael 5089 41:19.1 34:42.3 11:10 M 39 Ann Arbor MI
3235 Meier,Duane 6461 41:19.3 37:14.5 11:59 M 32 Warren MI
3236 Kovacik,John 6029 41:19.5 37:15.1 11:59 M 37 Sterling Heights MI
3237 Truesdell,Melaney 7795 41:19.8 36:57.4 11:54 F 23 Chelsea MI
3238 Stipes,Whitney 7606 41:20.7 35:56.6 11:34 F 30 Grand Blanc United States
3239 Lynn,Leslie 6271 41:21.8 35:59.2 11:35 F 38 Northville MI
3240 El-asri,Ashley 5056 41:22.7 36:31.4 11:45 F 32 Ann Arbor MI
3241 El-asri,Mohamed 5057 41:22.8 36:30.9 11:45 M 41 Ann Arbor MI
3242 Shubow,Jenny 9015 41:24.1 38:34.1 12:25 F 58 Ann Arbor MI
3243 Bednarz,Leslie 4224 41:24.6 34:58.1 11:15 F 29 Northville MI
3244 Jacobs,Margaret 5777 41:24.6 39:08.3 12:36 F 59 Whitmore Lake MI
3245 Hodges,Patricia 5671 41:25.6 36:49.1 11:51 F 49 Ann Arbor MI
3246 Bukowski,Bella 4490 41:28.7 35:54.1 11:33 F 39 Ann Arbor MI
3247 Basch,Rose 8281 41:29.3 40:34.3 13:04 F 7 Ann Arbor MI
3248 Cerimele,Wendy 4614 41:29.6 38:37.7 12:26 F 43 Saline MI
3249 Basch,Rena 8280 41:29.8 40:34.2 13:03 F 45 Ann Arbor MI
3250 Bukowski,Claudine 4491 41:30.0 35:55.0 11:34 F 39 Rockford MI
3251 Bradley,Tristen 4405 41:30.1 35:33.7 11:27 F 33 Ann Arbor MI
3252 Simon,Lisa 7435 41:31.2 36:02.3 11:36 F 43 Ann Arbor MI
3253 Paterson,Andrew 6845 41:31.6 33:52.5 10:54 M 37 Ann Arbor MI
3254 Rose,Kathleen 7172 41:32.6 39:15.9 12:38 F 64 Ann Arbor MI
3255 Higgins,Roger 5636 41:32.9 38:47.1 12:29 M 62 Ypsilanti MI
3256 Reath,Arie 9429 41:33.8 37:06.6 11:57 F 21 Ann Arbor United States
3257 Fifer,Carly 5182 41:33.8 34:57.3 11:15 F 44 Ann Arbor MI
3258 Burch,Jacqueline 9424 41:34.2 37:06.9 11:57 F 25 Plymouth MI
3259 Bridges,Susan 8904 41:35.0 37:17.3 12:00 F 46 Chesaning MI
3260 Keefauver,Lisa 5897 41:35.1 36:42.1 11:49 F 39 Ann Arbor MI
3261 Burger,Logan 4507 41:35.5 36:36.7 11:47 M 15 Coldwater United States
3262 Anton,Katie 4085 41:35.6 36:49.8 11:51 F 31 Lansing MI
3263 Mcculloch,Jennifer 6416 41:35.7 36:42.7 11:49 F 35 Ypsilanti MI
3264 Pollock,Hadas 6947 41:36.2 40:24.2 13:00 F 10 Huntington Woods MI
3265 Alexander,Jennifer 4047 41:36.4 37:11.6 11:58 F 38 Battle Creek MI
3266 Debus,Vanessa 4874 41:36.5 36:35.8 11:47 F 23 Ypsilanti MI
3267 Bawardi,Hani 4201 41:39.7 35:19.3 11:22 M 40 Ann Arbor MI
3268 Allen,Catherine 8260 41:40.0 35:18.9 11:22 F 30 Ann Arbor MI
3269 Brent,Laura 9253 41:40.4 37:27.2 12:03 F 30
3270 Whitehead,Jill 8051 41:41.3 39:06.4 12:35 F 50 Novi MI
3271 Silver,Alyson 7431 41:41.7 37:49.7 12:11 F 28 Apt 8k NE
3272 Weiss,Ben 8000 41:41.7 37:49.1 12:10 M 29 Apartment 114 MI
3273 Galloway,Alicia 5293 41:41.8 36:43.6 11:49 F 31 Reading MI
3274 Allen,Justina 4053 41:42.9 37:29.9 12:04 F 31 Canton MI
3275 Bollman,Anna 4354 41:43.1 37:36.8 12:06 F 59 Ypsilanti MI
3276 Kachman,Donald 5867 41:44.2 36:15.8 11:40 M 40 Ann Arbor MI
3277 Davis-kean,Greg 4859 41:45.6 36:19.9 11:42 M 42 Ann Arbor MI
3278 Meister,Kaitlyn 8618 41:46.4 38:28.3 12:23 F 16 Saline MI
3279 Davis,Patrick 4854 41:46.9 38:53.1 12:31 M 11 Dundee MI
3280 Hickey,Roy 5629 41:47.1 38:53.9 12:31 M 31 Dundee MI
3281 Heidorn,Jon 5588 41:47.2 36:49.2 11:51 M 46 Ann Arbor U.S.A.
3282 Atkins,James 4103 41:47.7 37:20.4 12:01 M 61 Sault StE. Marie MI
3283 Korona,Jennie 6020 41:47.9 38:27.3 12:23 F 42 Canton MI
3284 Sandstrom,Lacie 8758 41:48.2 39:15.3 12:38 F 29 Ann Arbor MI
3285 Stidham,Michael 7598 41:48.9 38:32.8 12:24 M 41 Ann Arbor MI
3286 Morrow-pringle,Amber 6594 41:49.2 37:40.5 12:08 F 30 Muskegon United States
3287 Heinz,Wolfgang 5595 41:49.7 37:28.7 12:04 M 60 Ypsilanti MI
3288 Halberstam,Zach 8450 41:49.9 40:14.9 12:57 M 7 Ann Arbor MI
3289 Katz,Ellen 8521 41:50.2 40:15.2 12:57 F 41 Ann Arbor MI
3290 Stidham,Laura 7597 41:50.3 38:34.3 12:25 F 39 Ann Arbor MI
3291 Gold,Heather 5377 41:51.2 34:26.0 11:05 F 34 Ann Arbor MI
3292 Demeuse,Vicki 4892 41:51.3 36:57.9 11:54 F 48 Howell MI
3293 Kachman,Eric 5868 41:51.3 36:22.8 11:43 M 11 Ann Arbor MI
3294 Gold,Justin 5378 41:51.7 34:26.5 11:05 M 37 Ann Arbor MI
3295 Matson,Laura 6362 41:51.9 37:14.9 11:59 F 27 Ann Arbor MI
3296 Chi,Emily 8329 41:53.2 37:16.5 12:00 F 23 Ann Arbor MI
3297 Behrenwald,Tara 4240 41:53.7 37:04.9 11:56 F 27 Midland United States
3298 Walter,Sandy 7950 41:53.7 40:49.7 13:08 F 43 Ann Arbor MI
3299 Izah,Sylvester 5767 41:54.5 38:05.5 12:16 M 33 Farmington Hills MI
3300 Hough,Lindsey 8477 41:55.3 39:58.5 12:52 F 25 Ann Arbor MI
3301 Bergin,Dan 4275 41:55.5 35:24.8 11:24 M 46 Pinckney MI
3302 Smith,Debbie 9148 41:55.7 38:00.3 12:14 F 52
3303 Kurowski,Rachel 9428 41:56.1 36:20.2 11:42 F 34
3304 Stallard,Chelsea 1465 41:56.9 37:47.6 12:10 F 22 South Lyon MI
3305 Harris,Lindsay 593 41:57.4 37:48.3 12:10 F 28 Howell MI
3306 Cowan,Anne 4750 41:58.2 37:12.0 11:58 F 40 Ann Arbor MI
3307 Steglitz,Charlotte 7580 41:58.2 37:14.1 11:59 F 7 Ann Arbor MI
3308 Guinn,Mark 5468 42:00.3 36:58.0 11:54 M 32 Dearborn MI
3309 Guinn,Jill 5466 42:00.8 36:58.8 11:54 F 32 Dearborn MI
3310 Rzeppa,Emily 7251 42:01.3 38:55.6 12:32 F 25 Pinckney MI
3311 Brewster,Trevor 4429 42:02.3 38:15.5 12:19 M 30 Ann Arbor MI
3312 Robertson,Tracy 7139 42:02.3 38:15.2 12:19 F 33 Ann Arbor MI
3313 Graham,Christine 5417 42:04.1 36:45.0 11:50 F 41 Brighton MI
3314 Simon,Rachel 9337 42:05.2 39:44.4 12:47 F 19
3315 Donnelly,Lana 4961 42:05.7 41:08.9 13:15 F 27 Ferndale United States
3316 Connole,Michael 9305 42:06.0 38:39.0 12:26 M 29
3317 Krawczyk,Patricia 6052 42:07.0 36:47.8 11:51 F 53 Brooklyn MI
3318 Gallo,Ryan 5292 42:07.6 36:54.0 11:53 M 36 Commerce Twp United States
3319 Arnaboldi,Michela 4093 42:07.9 38:06.8 12:16 F 36 Ann Arbor MI
3320 Heyn,Lorie 5624 42:08.6 38:26.3 12:22 F 37 Milan United States
3321 Lex,Dg 6205 42:08.8 39:23.6 12:41 M 35 Royal Oak United States
3322 Knoop,Peter 5992 42:09.4 38:08.8 12:17 M 43 Ann Arbor MI
3323 Foster,Katie 5223 42:10.1 36:22.7 11:43 F 42 Ann Arbor MI
3324 Foster,Meghan 5226 42:10.1 36:22.0 11:42 F 12 Ann Arbor MI
3325 Hempel,Amy 5600 42:10.5 37:22.7 12:02 F 42 Ida MI
3326 Trester,Rebecca 9404 42:11.2 37:13.1 11:59 F 35 Chelsea MI
3327 Riddle,Matthew 9297 42:11.8 35:34.4 11:27 M 31
3328 Dale-riddle,Allison 9296 42:12.1 35:35.6 11:27 F 31
3329 Carreon,Carrie 9412 42:12.2 37:05.6 11:56 F 44 Ann Arbor MI
3330 Reinecke,Sandra 7062 42:13.3 38:46.4 12:29 F 29 Jackson MI
3331 Henderson-zaner,Jennifer 5602 42:14.0 37:49.7 12:11 F 37 Troy MI
3332 Odigie,Claire 6754 42:15.3 38:26.9 12:23 F 30 Farmington Hills MI
3333 Artt,Douglas 4098 42:16.3 37:00.7 11:55 M 52 White Lake MI
3334 Brown,Kegan 9446 42:16.8 37:37.9 12:07 M 13
3335 Michels,Kallie 6498 42:17.5 37:51.9 12:11 F 47 Plymouth MI
3336 Harrison,Michael 5551 42:17.5 37:52.2 12:11 M 55 Allen Park MI
3337 Simon,Alicia 7432 42:18.3 38:56.2 12:32 F 30 Grass Lake MI
3338 Landau,Tammy 6113 42:18.8 38:56.3 12:32 F 31 Canton MI
3339 Colvig,Anna 4701 42:19.5 37:17.1 12:00 F 36 Ypsilanti MI
3340 Dennisuk,Debbie 4896 42:19.5 38:23.2 12:21 F 57 Trenton United States
3341 Groshko Timm,Constance 8442 42:19.5 39:56.7 12:51 F 52 Ann Arbor MI
3342 Benakovich,Marti 4250 42:19.8 39:11.7 12:37 F 50 Grand Blanc MI
3343 Bush,Rachel 4533 42:21.6 35:27.7 11:25 F 36 Whitmore Lake MI
3344 Weaver,Stephanie 7974 42:21.7 35:27.2 11:25 F 33 Whitmore Lake MI
3345 Timm,DR. Terry 8817 42:22.7 39:59.3 12:52 M 68 Ann Arbor MI
3346 Warner,Kathleen 7960 42:23.2 37:59.2 12:14 F 51 Prairie Du Chien WI
3347 Hyzy,Julie 5745 42:23.5 40:01.6 12:53 F 57 Ann Arbor United States
3348 Kaercher,Thomas 8514 42:24.1 38:31.6 12:24 M 49 Ann Arbor MI
3349 Mozdzierz,Trish 6606 42:24.7 38:17.6 12:20 F 46 Brighton MI
3350 Wing,Hannah 8116 42:25.5 37:24.9 12:03 F 23 Ypsilanti MI
3351 Dusseau,Jacque 5023 42:25.6 37:25.6 12:03 F 25 Temperance MI
3352 Davis,Jennifer 4849 42:26.2 39:46.8 12:48 F 21 Grand Rapids United States
3353 Chumpitasi,Sue 9146 42:26.2 38:09.0 12:17 F 0
3354 Desjarlais,Frank 9145 42:26.3 38:09.2 12:17 M 47
3355 Riemenschneider,Jeanene 7107 42:26.6 39:58.3 12:52 F 63 Gregory MI
3356 Higdon,Stephanie 5635 42:26.9 39:57.5 12:52 F 27 Northville MI
3357 Rutz,Erin 7241 42:27.1 37:20.6 12:01 F 28 Ypsilanti United States
3358 Ziewacz,Jenny 8887 42:27.8 37:40.9 12:08 F 34 Ann Arbor United States
3359 Osborne,Jaime 6796 42:27.9 37:41.0 12:08 F 34 Ann Arbor MI
3360 Cyr,Mandy 4807 42:28.0 37:40.2 12:07 F 27 Ann Arbor MI
3361 Lawrence-jacobson,Abbie 6131 42:28.1 37:12.8 11:59 F 36 Ann Arbor U.S.
3362 Taylor,Laura 7713 42:28.7 36:41.3 11:49 F 31 Dexter MI
3363 Thompson,Carol 7748 42:29.2 39:54.1 12:51 F 25 Ann Arbor MI
3364 Mccullough,Jackie 6417 42:29.2 37:08.6 11:57 F 32 Brownstown MI
3365 Walker,Austin 8847 42:30.6 37:51.5 12:11 M 13 Clark Lake MI
3366 Holcombe,Stacie 5681 42:33.0 40:00.8 12:53 F 44 Ypsilanti MI
3367 Arizala,Andy 4091 42:33.1 36:49.8 11:51 M 68 Ann Arbor MI
3368 Pohlman,Quade 8703 42:33.4 35:38.3 11:28 M 8 Ann Arbor United States
3369 Pohlman,Roland 8705 42:33.6 35:37.9 11:28 M 43 Ann Arbor United States
3370 Ellsworth,Jennifer 5079 42:33.6 39:27.6 12:42 F 45 Saline MI
3371 Ludema,Karen 6249 42:33.9 35:38.0 11:28 F 44 Ann Arbor MI
3372 Williamson,Jennifer 8867 42:36.1 36:56.9 11:54 F 28 Ann Arbor MI
3373 Baughman,Linda 2153 42:36.9 36:45.8 11:50 F 0
3374 Root,Tom 7171 42:38.1 37:25.3 12:03 M 39 Ann Arbor MI
3375 Clark,Kimberly 4673 42:38.4 38:18.4 12:20 F 26 Plymouth MI
3376 Sulavik,Mark 7662 42:39.1 41:45.5 13:26 M 16 Ann Arbor MI
3377 Wittig,Caleb 8133 42:39.1 41:42.5 13:25 M 15 Ann Arbor MI
3378 Williams,Eric 8094 42:39.6 41:45.3 13:26 M 16 Saline MI
3379 Koenes,Joy 5995 42:39.6 40:00.7 12:53 F 26 Wyoming MI
3380 Woodward,Sherri 8156 42:41.2 36:53.2 11:52 F 44 Brighton MI
3381 York,Phil 8192 42:41.6 37:26.0 12:03 M 37 Saline MI
3382 York,Logan 8191 42:41.9 37:26.2 12:03 M 7 Saline MI
3383 Dean,Bill 4869 42:42.0 40:50.2 13:09 M 47 Grass Lake MI
3384 Waters,Elizabeth 8851 42:43.5 37:45.9 12:09 F 30 Adrian MI
3385 Verklan,Caroline 7888 42:44.2 40:07.9 12:55 F 13 Plymouth MI
3386 King,Nancy 5956 42:47.1 38:33.2 12:25 F 47 Ann Arbor MI
3387 Verklan,Shannon 7891 42:48.9 40:12.9 12:57 F 47 Plymouth MI
3388 Beuckelaere,Jacqueline 4298 42:50.7 37:44.7 12:09 F 42 Dearborn MI
3389 Waddington,Marin 7919 42:52.2 37:11.7 11:58 F 9 Dexter United States
3390 Lavi,Maya 6127 42:52.6 40:35.6 13:04 F 25 Ann Arbor MI
3391 Waddington,Skylar 7921 42:52.9 37:12.2 11:58 F 9 Dexter United States
3392 Johnson,Valerie 5835 42:53.9 38:10.7 12:17 F 37 Plymouth MI
3393 Vann,Gerald 7865 42:54.8 38:38.3 12:26 M 36 Canton United States
3394 Vann,Amelia 7864 42:56.1 38:38.7 12:26 F 36 Canton United States
3395 Prasad,Shikha 9474 42:56.3 40:40.5 13:05 F 26 Ann Arbor MI
3396 Rollet,Jamie 8742 42:56.7 38:41.3 12:27 F 24 Southgate MI
3397 Gallagher,Elizabeth 5289 42:57.1 39:28.5 12:42 F 9 Whitmore Lake MI
3398 Waddington,Ryan 7920 42:57.6 37:15.8 12:00 M 39 Dexter United States
3399 Prygoski,Phil 6980 42:58.4 39:48.8 12:49 M 62 Okemos MI
3400 Meintel,Tyler 6465 43:00.1 38:02.6 12:15 M 19 Ann Arbor MI
3401 Meintel,Lisa 6464 43:00.3 38:03.0 12:15 F 21 Ann Arbor MI
3402 Alexander,Laurie 4048 43:00.4 38:30.7 12:24 F 39 Ann Arbor MI
3403 Gallagher,Christine 5288 43:00.5 39:31.7 12:43 F 42 Whitmore Lake MI
3404 Cassman,Gabrielle 4601 43:02.8 39:37.3 12:45 F 25 Ottawa Lake MI
3405 Cullip,Jo Anne 4788 43:03.0 38:21.0 12:21 F 53 Ann Arbor MI
3406 Cullip,Valerie 4791 43:03.1 38:21.2 12:21 F 24 Ann Arbor MI
3407 Brewster,Michael 4428 43:03.3 41:20.3 13:18 M 46 Howell MI
3408 Jahn,Elizabeth 5782 43:05.8 39:33.6 12:44 F 38 Ann Arbor MI
3409 Czelada,Stefanie 4810 43:05.9 40:46.2 13:07 F 33 Fairgrove MI
3410 Foester,Shane 9325 43:06.1 40:47.6 13:08 M 0
3411 Farwig,Brandi 5147 43:06.7 37:07.9 11:57 F 29 Canton MI
3412 Anderson,Todd 4077 43:07.9 37:07.6 11:57 M 40 Grand Ledge United States
3413 Anderson,Sarah 4073 43:08.0 37:06.4 11:57 F 30 Grand Ledge United States
3414 Duck,Magda 5003 43:09.6 38:13.1 12:18 F 12 Ann Arbor MI
3415 Siller,Katherine 8784 43:09.9 38:12.8 12:18 F 12 Ann Arbor United States
3416 Reingold,Alison 7063 43:10.2 38:24.8 12:22 F 36 Ann Arbor MI
3417 Davis-kean,Pam 4860 43:10.4 37:45.3 12:09 F 45 Ann Arbor MI
3418 Hunt,Liz 5740 43:13.9 40:54.7 13:10 F 31 Saginaw MI
3419 Teague,Ladonnah 7716 43:14.2 40:55.8 13:10 F 55 Bay City Use
3420 Ray,Philip 7036 43:16.1 38:46.1 12:29 M 42 Ann Arbor MI
3421 Smith,Colleen 7475 43:16.3 38:40.7 12:27 F 31 Petersburg U S
3422 Zambeck,Laura 8222 43:16.6 38:40.5 12:27 F 44 Ypsilanti MI
3423 Kocibelli,Etleva 5994 43:17.1 38:40.6 12:27 F 36 Saline MI
3424 Smith,Michelle 7500 43:17.2 38:41.0 12:27 F 38 Temperance MI
3425 Sharrow,Ryan 7379 43:17.3 39:27.5 12:42 M 28 Port Huron MI
3426 Renaud,Charlotte 7067 43:17.5 38:42.3 12:27 F 38 Dexter MI
3427 Sharrow,Gabrielle 7378 43:17.6 39:27.2 12:42 F 28 Port Huron MI
3428 Desselles,Christy 4910 43:17.7 39:25.8 12:41 F 33 Belleville MI
3429 Bohms,Cicely 4350 43:17.9 39:26.3 12:42 F 33 Ypsilanti MI
3430 Emmert,Patty 5085 43:18.9 41:42.0 13:25 F 46 Detroit MI
3431 Lukela,Henry 6253 43:19.2 39:00.1 12:33 M 7 Ann Arbor MI
3432 Reilly,Jane 7060 43:19.5 39:00.4 12:33 F 63 New Haven VT
3433 Fain,Kim 9189 43:20.4 39:40.3 12:46 F 35
3434 Illson,Rebecca 8483 43:20.8 41:07.0 13:14 F 24 Beverly Hills United States
3435 Duda,Erin 9442 43:21.4 39:38.5 12:46 F 46 Commerce United States
3436 Weiland,Teri 8856 43:21.7 39:47.4 12:48 F 25 Hartland MI
3437 Waddington,Gabriella 7917 43:21.9 37:40.1 12:07 F 9 Dexter United States
3438 Fields,Kristina 5180 43:22.1 37:18.3 12:00 F 52 Ann Arbor MI
3439 Waddington,Kari 7918 43:22.1 37:41.7 12:08 F 40 Dexter United States
3440 Petronio,Diane 6905 43:22.4 39:06.5 12:35 F 48 Brighton MI
3441 Hamann,Thomas 5519 43:22.6 38:44.1 12:28 M 6 Saline MI
3442 Lubetkin,Sierra 8972 43:23.5 39:02.2 12:34 F 7 Ann Arbor MI
3443 Lubetkin,Andrea 8572 43:23.5 39:02.6 12:34 F 39 Ann Arbor MI
3444 Sisty,Adam 7446 43:24.3 40:00.4 12:53 M 29 Tecumseh MI
3445 Pinkhasova,Sofia 6928 43:24.3 38:53.4 12:31 F 19 Ann Arbor United States
3446 Mergler,Kristin 6483 43:26.6 37:40.3 12:08 F 38 Ann Arbor MI
3447 Dunham,Stephanie 5017 43:26.6 37:40.2 12:07 F 38 Ann Arbor MI
3448 Bauer,Bob 4198 43:26.9 37:39.6 12:07 M 63 Milan MI
3449 Castle,Sandy 4603 43:27.1 40:23.1 13:00 F 45 Ypsilanti MI
3450 Cox,Hollie 9054 43:27.4 37:41.4 12:08 F 38
3451 Flood,William 9165 43:27.8 39:41.1 12:46 M 60
3452 Flood,Emma 9164 43:28.0 39:40.9 12:46 F 10
3453 Engelter,Krystin 8393 43:29.2 36:56.1 11:53 F 26 Ypsilanti MI
3454 Krause,Ashley 8962 43:29.9 36:57.3 11:54 F 25 Plymouth United States
3455 Torrez,Nicole 7777 43:30.1 39:58.1 12:52 F 31 Northville MI
3456 Torrez,Jason 7776 43:30.5 39:58.5 12:52 M 34 Northville MI
3457 Boerkoel,James 4347 43:30.8 38:12.4 12:18 M 26 Ann Arbor MI
3458 Boerkoel,Elizabeth 4346 43:31.1 38:12.3 12:18 F 26 Ann Arbor MI
3459 Goodin,Aunic 5391 43:31.9 40:50.9 13:09 M 13 Chelsea MI
3460 Anderson,Charles 8264 43:32.7 39:48.1 12:49 M 27 Ann Arbor MI
3461 Goodin,Madelaine 5392 43:32.8 40:48.5 13:08 F 11 Chelsea MI
3462 Zimmer,Emily 8242 43:33.1 40:49.5 13:08 F 36 Chelsea MI
3463 Matta,Nicole 9317 43:33.2 39:13.9 12:38 F 33
3464 Okronley,Zachary 6767 43:33.2 39:18.5 12:39 M 9 Howell MI
3465 Okronley,Julee 6765 43:33.3 39:19.0 12:39 F 39 Howell MI
3466 Rainson,Matthew 7010 43:33.5 39:47.9 12:49 M 35 Ann Arbor United States
3467 Mcandrew,Laura 6396 43:33.5 39:48.7 12:49 F 23 Ann Arbor MI
3468 Roberts,Melissa 7128 43:34.1 14:01 F 33 Clinton United States
3469 Stanley,Sunday 7563 43:34.2 39:48.1 12:49 F 44 Oakland CA
3470 Okronley,Michael 6766 43:36.1 39:21.8 12:40 M 39 Howell MI
3471 Mccartney,Sue 6400 43:36.5 38:57.6 12:32 F 59 Saline MI
3472 Okronley,Jacob 6764 43:36.6 39:22.9 12:41 M 7 Howell MI
3473 Rodgers,Tom 7147 43:38.4 36:40.4 11:48 M 38 Shelby Twp MI
3474 Rodgers,Cindy 7146 43:38.6 36:38.2 11:48 F 34 Shelby Twp MI
3475 Hiner,Jamie 5647 43:39.6 38:45.0 12:28 F 29 Ferndale MI
3476 Wirebaugh,Wilson 8125 43:39.9 37:35.7 12:06 M 10 Holland MI
3477 Rowe,Caitlin 7198 43:41.3 39:35.1 12:44 F 38 Ann Arbor MI
3478 Tucker,Brian 7800 43:41.3 39:11.7 12:37 M 43 Chelsea MI
3479 Tucker,Jamie 7802 43:41.5 39:12.0 12:37 F 43 Chelsea MI
3480 Christensen,Katherine 4654 43:42.1 38:14.1 12:18 F 49 North Baltimore OH
3481 Joseph,Courtney 5851 43:43.3 40:58.5 13:11 F 35 Royal Oak United States
3482 Overbeek,Kaleigh 6809 43:43.3 40:18.5 12:58 F 11 Jenison MI
3483 Patterson,Jody 6853 43:43.3 39:12.4 12:37 F 26 Horton MI
3484 Wirebaugh,Derek 8122 43:43.6 37:39.5 12:07 M 37 Holland MI
3485 Comazzi,Lynne 4704 43:43.9 40:46.1 13:07 F 67 Ypsilanti MI
3486 Colbert,Sarah 4694 43:44.1 39:44.3 12:47 F 18 Shelby TwP. MI
3487 Costello,Zac 4746 43:44.4 39:44.3 12:47 M 18 Shelby TwP. United States
3488 Williams,Kristy 9477 43:44.7 33:28.6 10:46 F 35
3489 Issel,Cathy 9476 43:45.1 33:29.0 10:47 F 0
3490 Osterman,Wendy 8674 43:45.9 39:30.2 12:43 F 40 Clarkston MI
3491 Dean,Danielle 4871 43:46.7 38:48.5 12:29 F 25
3492 Murphy,Hedwig 6636 43:47.1 38:23.0 12:21 F 61 Ann Arbor MI
3493 Lacroix,Rebecca 6098 43:47.5 38:25.0 12:22 F 11 Ypsilanti MI
3494 Lacroix,Douglas 6097 43:49.3 38:26.9 12:23 M 53 Ypsilanti MI
3495 Bundesen,Brian 4494 43:49.4 41:03.7 13:13 M 54 Ann Arbor MI
3496 Rosati,Sarah 8751 43:49.8 38:35.1 12:25 F 7 Ann Arbor United States
3497 Rosati,Greg 8748 43:50.1 38:35.6 12:25 M 41 Ann Arbor United States
3498 Stevens,Debra 7589 43:51.1 38:34.8 12:25 F 50 Ann Arbor MI
3499 Mullins,Emilie 6623 43:51.4 40:44.4 13:07 F 34 Monroe MI
3500 Mullins,Cassidy 8648 43:51.5 40:45.0 13:07 F 11 Monroe MI
3501 Gorzen,Becky 5407 43:51.6 39:59.1 12:52 F 34 Plymouth United States Of Ame
3502 Thompson,Alexis 7747 43:52.4 39:32.5 12:44 F 28 Chelsea MI
3503 Maxfield,Doris 6378 43:53.9 38:47.4 12:29 F 57 Linden MI
3504 Yamamoto,Yoshiko 8173 43:54.1 39:16.0 12:38 F 48 Novi Oakland
3505 Chun,Erin 4658 43:54.9 41:05.0 13:13 F 31 Canton MI
3506 Lloyd,Stormy 6225 43:56.4 43:01.0 13:51 F 34 Canton United States
3507 Stahle,Diane 7556 43:58.1 39:52.4 12:50 F 53 Canton MI
3508 Miller,Cliff 6516 43:58.2 42:36.9 13:43 M 36 Saline MI
3509 Miller,Laura 6526 43:58.3 42:37.9 13:43 F 36 Saline MI
3510 Janci,Elizabeth 5785 43:58.8 39:44.1 12:47 F 28 Pittsburgh United States
3511 Gilliland,Robert 5358 43:59.4 38:03.4 12:15 M 33 Holland OH
3512 Gilliland,Natlaie 5357 43:59.6 38:03.7 12:15 F 29 Holland OH
3513 Kulp,Roman 6073 43:59.7 37:35.1 12:06 M 12 Ann Arbor MI
3514 Abrams,Jennifer 8257 44:01.0 39:10.9 12:37 F 34 Owosso MI
3515 Davis,Alexander 4840 44:01.5 38:59.9 12:33 M 8 Ann Arbor MI
3516 Davis,Carol 4843 44:01.5 38:59.8 12:33 F 44 Ann Arbor MI
3517 Deford,Ashley 4877 44:01.7 37:52.0 12:11 F 21 Ann Arbor MI
3518 Day,Anya 4864 44:02.8 39:12.3 12:37 F 28 Ypsilanti MI
3519 Mosher,Karen 6602 44:03.1 40:26.0 13:01 F 47 Ann Arbor MI
3520 Woodall,Gary 8148 44:04.0 41:37.3 13:24 M 47 Ann Arbor MI
3521 Saulter,Ken 8766 44:05.5 42:29.1 13:40 M 69 Ann Arbor MI
3522 Kozanecki,Pam 6036 44:06.7 38:20.0 12:20 F 54 Farmington Hills MI
3523 Kronsbein,Gretchen 6063 44:08.1 38:12.3 12:18 F 34 Novi MI
3524 Doyle,Grace 4983 44:08.9 40:41.1 13:06 F 11 Northville MI
3525 Mahoney,Matthew 9069 44:09.7 41:29.8 13:21 M 7
3526 Jastrzembowski,Ann 5798 44:09.7 39:06.7 12:35 F 50 Pinckney MI
3527 Kulp,Steve 6076 44:09.8 37:45.3 12:09 M 43 Ann Arbor MI
3528 Mahoney,Tom 9070 44:10.2 41:30.3 13:22 M 43
3529 Searles,Tim 7354 44:10.4 41:31.9 13:22 M 27 Muskegon MI
3530 Sumrall,Tara 7670 44:10.5 39:37.7 12:45 F 25 Ypsilanti MI
3531 Greyson,Courtney 5442 44:10.7 39:40.6 12:46 F 26 Farmington Hills MI
3532 Doan,Payton 8375 44:10.8 40:07.3 12:55 F 9 Gregory MI
3533 Visco,Elizabeth 7903 44:11.4 39:41.5 12:47 F 26 Hudsonville MI
3534 Boote,Grace 4365 44:11.6 40:08.1 12:55 F 10 Gregory MI
3535 Boote,Dean 4364 44:12.1 40:07.8 12:55 M 43 Gregory MI
3536 Hayes,Tally 5575 44:15.2 41:36.4 13:24 F 48 Ann Arbor MI
3537 Henry,Marlene 5609 44:15.6 36:55.3 11:53 F 59 Whitmore Lake MI
3538 Henry,Donald 5607 44:15.6 36:55.2 11:53 M 60 Whitmore Lake MI
3539 Stone,Mike 7619 44:15.7 36:55.6 11:53 M 35 Ann Arbor MI
3540 Elliott,Lynn 5074 44:16.6 38:17.3 12:19 F 55 Manchester MI
3541 Jazwinski,Zoe 5800 44:17.8 41:25.7 13:20 F 22 Redford MI
3542 Doyle,Sean 4989 44:18.1 40:47.9 13:08 M 40 Northville MI
3543 Campbell,Karen 8312 44:19.4 40:46.1 13:07 F 40 Pinckney United States
3544 Cooper,Jennifer 4729 44:20.5 42:55.2 13:49 F 24 Ann Arbor MI
3545 Mcdiarmid,Brenda 9200 44:21.0 39:31.4 12:43 F 26
3546 Smith,Katharine 7494 44:21.8 39:43.9 12:47 F 40 Birmingham United States
3547 Faulkner,Margaret 9199 44:21.9 39:32.2 12:44 F 20
3548 Mcgee,Ryann 8609 44:22.3 40:45.0 13:07 F 21 Farmington Hills MI
3549 Flanders,Juliet 8402 44:23.7 14:17 F 44 Ann Arbor MI
3550 Flanders,May 8403 44:24.3 41:29.0 13:21 F 6 Ann Arbor MI
3551 Cain,Javan 4552 44:24.4 40:06.9 12:55 M 13 Saline MI
3552 Meyer,Michelle 6491 44:24.7 40:07.9 12:55 F 34 Saline MI
3553 Dombi,Nicholas 4955 44:25.5 39:56.2 12:51 M 14 Oregon OH
3554 Tasch,Andrea 7709 44:26.7 38:32.0 12:24 F 33 Dundee MI
3555 Mackenzie,Wendy 6282 44:26.8 39:34.3 12:44 F 35 Beverly Hills MI
3556 Freeman,Monica 5250 44:29.0 38:59.5 12:33 F 28 London Canada
3557 Freeman,Doug 5249 44:29.5 38:59.8 12:33 M 29 London Canada
3558 Rose,Marcia 7173 44:32.1 42:02.6 13:32 F 69 Ann Arbor MI
3559 Krall,Kelli 6043 44:32.2 38:56.8 12:32 F 33 Manchester MI
3560 Lowe,Kristen 920 44:33.7 41:12.6 13:16 F 23 Farmington Hills U.S.
3561 Inglot,Rachel 689 44:33.8 41:12.6 13:16 F 23 Grand Rapids MI
3562 Bottom,Lauralyn 4378 44:36.9 38:28.4 12:23 F 34 Ann Arbor MI
3563 Ortwein,Lana 6794 44:39.7 40:27.8 13:01 F 35 Chesterfield MI
3564 Waters,Michael 7967 44:40.2 39:42.9 12:47 M 31 Adrian MI
3565 Mosley,Linda 6603 44:41.2 40:19.2 12:59 F 58 Allen Park MI
3566 Khalaf,Lois 5936 44:41.4 42:13.5 13:35 F 54 Westland MI
3567 Dombi,Laurie 4954 44:41.8 40:13.1 12:57 F 45 Oregon OH
3568 Rummel,Carl 7211 44:42.0 40:46.9 13:08 M 46 Royal Oak MI
3569 Leblanc,Jonathan 6143 44:42.5 42:39.1 13:44 M 13 Dexter MI
3570 Patterson,Shelley 6856 44:43.1 42:10.7 13:35 F 36 Allen Park MI
3571 Mackson,Megan 6283 44:43.3 39:57.0 12:51 F 30 Ypsilanti MI
3572 Rousse-bettendorf,Laurie 7195 44:43.3 42:11.2 13:35 F 36 Newport MI
3573 Kolesar,Sara 6004 44:43.8 39:57.0 12:51 F 29 Belleville MI
3574 Darling,Katie 8922 44:45.7 42:34.0 13:42 F 31 South Lyon United States
3575 Young,Kathleen 8201 44:46.4 40:48.2 13:08 F 63 Ann Arbor MI
3576 Mann,Michael 6316 44:46.8 40:51.1 13:09 M 40 Howell MI
3577 Penrice,John 6877 44:49.5 38:25.5 12:22 M 54 Livonia MI
3578 Stewart,Melissa 7593 44:49.6 38:26.3 12:22 F 29 Bloomfield Hills MI
3579 Smith,Deana 7479 44:53.1 39:28.7 12:42 F 35 Ypsilanti MI
3580 Mccollum,Jamie 8606 44:59.1 40:56.1 13:11 F 26 Ann Arbor MI
3581 Glahn,Peggy 5365 45:00.3 40:52.4 13:09 F 44 Ann Arbor MI
3582 Yates,Rebekah 8877 45:00.7 40:58.0 13:11 F 24 Belleville United States
3583 Hurst,Laura 5744 45:04.0 38:25.1 12:22 F 35 Ypsilanti MI
3584 Gugino,Anthony 5462 45:04.2 38:25.4 12:22 M 35 Ypsilanti MI
3585 Malerman,Derek 6305 45:04.3 38:24.7 12:22 M 37 Williamston MI
3586 Vermevlen,Nancy 7892 45:06.2 40:00.4 12:53 F 50 Ann Arbor MI
3587 Odtohan,Catherine 6758 45:08.2 40:29.7 13:02 F 39 Chicago United States
3588 Bowersox,Brad 8903 45:09.0 41:36.1 13:23 M 15 Chelsea MI
3589 Kenney,Christine 5928 45:09.3 41:47.6 13:27 F 32 Walled Lake MI
3590 Matt,Haneen 8601 45:09.3 41:48.2 13:27 F 31 Canton MI
3591 Roedel,Karen 7152 45:09.9 43:00.8 13:51 F 53 Livonia MI
3592 Haller,Becky 5514 45:10.0 43:00.7 13:51 F 23 Ann Arbor MI
3593 Schreiner,Matt 7326 45:10.5 38:17.4 12:19 M 36 Kalamazoo MI
3594 Schreiner,Abby 7325 45:10.6 38:17.1 12:19 F 12 Kalamazoo MI
3595 Galbraith,Marshall 5285 45:10.6 40:29.9 13:02 M 24 Dearborn MI
3596 Smith,Leslie Lynn 7496 45:10.7 37:57.4 12:13 F 43 Linden MI
3597 Lex Sr,Dennis 6206 45:12.0 42:26.6 13:40 M 67 Grosse Pointe Woods United States
3598 Phillips,Carrie 6915 45:12.4 40:42.2 13:06 F 37 Battle Creek United States
3599 Keene,Brittany 5899 45:12.8 39:47.6 12:48 F 26 Willis MI
3600 Lytle Lutovsky,Jessica 6275 45:13.0 42:42.7 13:45 F 30 Pinckney MI
3601 Lim,Ann 6215 45:14.2 40:20.6 12:59 F 37 Ann Arbor MI
3602 Mcbee,Heather 8604 45:15.0 40:40.3 13:05 F 38 Petersburg MI
3603 Morelli,Christine 6584 45:15.1 40:39.9 13:05 F 46 Monroe MI
3604 Gareiss,Roger 5297 45:16.5 40:46.1 13:07 M 66 Charlotte MI
3605 Austin,Jennifer 4107 45:17.0 40:38.5 13:05 F 34 ST. Louis MI
3606 Zurbuchen,Lucas 9156 45:18.1 39:35.6 12:45 M 8
3607 Marquez,Dana 6329 45:18.4 40:12.8 12:57 F 36 Ferndale MI
3608 Itchon,Joyce 5765 45:18.7 40:12.8 12:57 F 37 Clinton Township MI
3609 Bennett,Billie Jo 4260 45:20.1 41:05.1 13:13 F 34 Petersburg MI
3610 Straub,Leslie 7629 45:20.3 41:05.3 13:13 F 28 Petersburg MI
3611 Millunchick,Joanna 6541 45:20.4 40:42.1 13:06 F 42 Ann Arbor MI
3612 Zurbuchen,Thomas 9155 45:20.7 39:38.8 12:46 M 42
3613 Merchant,Emily 6481 45:21.2 40:24.7 13:00 F 31 Ann Arbor MI
3614 Moss,Elizabeth 6604 45:21.4 40:25.0 13:01 F 46 Ann Arbor MI
3615 Carlson,Jake 8314 45:23.4 38:11.2 12:17 M 7 Ann Arbor MI
3616 Weilnau,Ginette 7993 45:26.8 41:49.3 13:28 F 28 Garden City Wayne
3617 Willford,Wendy 8864 45:27.0 38:40.4 12:27 F 35 Dexter MI
3618 Patton,Sandra 6857 45:27.1 41:49.5 13:28 F 50 Canton MI
3619 Vonwihl,Jodi 7915 45:27.4 41:50.2 13:28 F 40 West Bloomfield MI
3620 Montenegro,Mayela 6566 45:27.9 40:29.0 13:02 F 21 Ann Arbor MI
3621 Grams,William 5419 45:28.0 40:29.0 13:02 M 65 Ann Arbor MI
3622 Carlson,Frances 8313 45:28.1 38:15.9 12:19 F 37 Ann Arbor MI
3623 Baiardi,Hannah 4131 45:28.8 40:07.5 12:55 F 15 South Lyon MI
3624 Roberts,Jim 7121 45:28.9 36:36.1 11:47 M 36 Clinton United States
3625 Mulligan,Katie 6621 45:29.3 42:00.9 13:31 F 23 South Lyon MI
3626 Temple,Patricia 7725 45:30.2 40:52.4 13:09 F 66 Canton MI
3627 Baiardi,Victor 4132 45:30.2 40:08.9 12:55 M 48 South Lyon MI
3628 Myrick,Theresa 8652 45:30.8 40:29.1 13:02 F 38 Lansing MI
3629 Volk,Michael 7912 45:31.6 38:23.3 12:21 M 35 Ann Arbor MI
3630 Gilling,Earnee 5359 45:32.9 41:36.3 13:23 F 35 Ypsilanti MI
3631 Sleziak,Aleksandra 7467 45:33.4 38:23.2 12:21 F 27 Ypsilanti MI
3632 Peters,Katrina 6899 45:33.6 41:55.8 13:30 F 31 Monroe Monroe
3633 Volk,Teresa 7913 45:33.7 38:23.2 12:21 F 31 Ann Arbor MI
3634 Kegebein,Shannon 5901 45:34.5 42:18.0 13:37 F 38 Brighton MI
3635 Jordan,Blake 5848 45:37.0 40:40.1 13:05 M 10 Newberry MI
3636 Jordan,Julie 5849 45:37.6 40:40.9 13:06 F 40 Newberry MI
3637 Ranville,Erin 7026 45:38.5 42:17.9 13:37 F 39 Ann Arbor MI
3638 Campbell,Elizabeth 4560 45:40.2 14:42 F 27 Ann Arbor MI
3639 Marchese,Kari 8978 45:40.4 42:02.9 13:32 F 30 Monroe Usd
3640 Jarzembowski,Sarah 5796 45:40.9 14:42 F 29 Ann Arbor MI
3641 Anton,Megan 4086 45:43.3 40:34.6 13:04 F 29 Chicago IL
3642 Choi,Calvin 4647 45:43.4 40:34.7 13:04 M 27 Chicago IL
3643 Reyes,Kimberly 7076 45:44.3 39:54.1 12:51 F 40 Cincinnati OH
3644 Woodall,Lavonne 8149 45:46.8 44:37.5 14:22 F 28 Washington TwP., United States
3645 Williams,Ray 8101 45:47.7 42:01.0 13:31 M 46 Saline MI
3646 Briggs,Linda 4434 45:48.9 43:44.4 14:05 F 53 Freeland MI
3647 Williams,Patrick 8100 45:49.1 42:01.4 13:32 M 14 Saline MI
3648 Magnusdottir,Geirlang 8976 45:49.2 45:35.7 14:40 F 40 Ann Arbor MI
3649 Theodorsdottir,Lina 9030 45:49.4 45:36.8 14:41 F 10 Ann Arbor MI
3650 Perry-mason,Gail 8995 45:49.9 38:51.8 12:31 F 47 Grosse Pointe Park MI
3651 Stoops,Lucy 7621 45:51.2 40:52.8 13:09 F 48 Ann Arbor MI
3652 Mayher,Jean 6385 45:52.8 41:27.4 13:21 F 39 Ann Arbor MI
3653 Pettit,Marcia 6908 45:52.9 41:27.3 13:21 F 39 Westland MI
3654 Chapman,Kiersten 4630 45:54.6 44:35.1 14:21 F 39 Ypsilanti MI
3655 Kett,Laura 5935 45:54.8 41:38.5 13:24 F 56 Ann Arbor MI
3656 Iles,Avery 9191 45:56.6 40:53.9 13:10 M 10
3657 Bedore,Christine 4226 45:57.8 44:07.6 14:12 F 31 Delray Beach FL
3658 Benton,Lee 4272 46:00.6 39:31.3 12:43 M 21 Chelsea MI
3659 Bircher,James 4312 46:00.7 39:31.6 12:43 M 21 Ann Arbor MI
3660 Naab,Kelsey 6659 46:01.0 39:30.3 12:43 F 23 Kalamazoo United States
3661 Truesdell,Denise 7794 46:01.4 41:38.7 13:24 F 49 Chelsea MI
3662 Iles,Arika 5751 46:02.0 40:59.0 13:11 F 33 Jackson MI
3663 Lafollette,Justin 6102 46:02.3 39:34.1 12:44 M 29 Union U.S.
3664 Lafollette,Dana 6101 46:02.5 39:34.3 12:44 F 28 Union U.S.
3665 Nati,Diana 6670 46:04.5 41:43.0 13:26 F 26 Ann Arbor MI
3666 Myers,Jamison 8651 46:04.7 42:41.3 13:44 M 35 Ypsilanti MI
3667 Braun,Casey 4416 46:07.4 41:29.5 13:21 F 28 South Lyon MI
3668 Jodoin,Christine 5813 46:09.5 40:28.2 13:02 F 45 Lansing United States Of Ame
3669 Haddas,Connor 5486 46:12.0 42:58.1 13:50 M 12 Saline MI
3670 Haddas,Karen 5487 46:12.0 42:57.8 13:50 F 41 Saline MI
3671 Burk,Maricris 4511 46:12.6 42:15.9 13:36 F 40 Canton MI
3672 Streit,Bettylou 7633 46:14.2 41:21.8 13:19 F 64 Farmington MI
3673 Martin,Jennifer 8597 46:15.0 43:41.0 14:04 F 34 Belleville MI
3674 Simons,Jillian 8787 46:15.1 43:43.1 14:04 F 5 Belleville MI
3675 Simons,Duane 8786 46:15.9 43:43.9 14:05 M 36 Belleville MI
3676 Connelly,Christina 4708 46:17.0 42:53.5 13:48 F 24 Lambertville MI
3677 Varrone,Melanie 9035 46:17.1 42:53.2 13:48 F 24 Perrysburg OH
3678 Caverly,Alisa 4613 46:18.7 41:33.3 13:22 F 28 Brownstown MI
3679 Rust,Matt 7233 46:19.2 41:59.5 13:31 M 8 Ypsilanti MI
3680 Crabill,Alex 4756 46:19.4 41:32.9 13:22 F 29 East Lansing MI
3681 Modlin,Devon 6559 46:19.7 41:35.1 13:23 M 30 Brownstown MI
3682 Rust,Beth 7231 46:19.7 42:00.1 13:31 F 44 Ypsilanti MI
3683 Emmons,Sheri 5087 46:19.9 44:40.1 14:23 F 30 Sterling Heights MI
3684 Crabill,Brandon 4757 46:19.9 41:33.3 13:23 M 27 East Lansing MI
3685 Alberto,Sandra 4036 46:20.8 43:03.6 13:52 F 41 Swartz Creek MI
3686 Ferguson,Anton 5167 46:20.8 41:34.2 13:23 M 8 Ann Arbor MI
3687 Emmons,Abbey 5086 46:21.0 44:40.5 14:23 F 27 Troy MI
3688 Ferguson,Robert 5170 46:21.0 41:34.0 13:23 M 40 Ann Arbor MI
3689 Ferguson,Calan 5168 46:21.0 41:34.9 13:23 M 13 Ann Arbor MI
3690 Ferguson,Nolan 5169 46:21.6 41:34.1 13:23 M 11 Ann Arbor MI
3691 Isken,Samuel 5763 46:22.1 42:43.0 13:45 M 13 Rochester Hills United States
3692 Isken,Nancy 5762 46:22.1 42:43.1 13:45 F 41 Rochester Hills United States
3693 Newman,Rebecca 6698 46:22.2 42:41.9 13:45 F 23 Ypsilanti United States
3694 Collins,Kira 4697 46:22.4 42:41.9 13:45 F 27 Ypsilanti MI
3695 Van Kampen,Will 9301 46:24.4 39:33.9 12:44 M 38
3696 West,Andrea 8022 46:27.6 41:33.8 13:23 F 30 Tecumseh MI
3697 Bott,Michelle 4376 46:28.7 40:10.8 12:56 F 32 Carleton MI
3698 Bott,Ted 4377 46:28.8 40:11.2 12:56 M 30 Carleton MI
3699 Reiber,Emily 7055 46:28.9 41:48.4 13:27 F 27 Ypsilanti MI
3700 Dowling,Sydney 4981 46:34.2 41:31.6 13:22 F 8 Ann Arbor MI
3701 Robbins,Jacqui 7119 46:37.3 41:34.4 13:23 F 39 Ann Arbor MI
3702 Alford,Darcy 4049 46:42.0 40:51.3 13:09 F 35 Dexter MI
3703 Flaherty,Katie 5202 46:43.8 43:17.7 13:56 F 31 Troy MI
3704 Line,Charles 6217 46:44.2 43:18.3 13:56 M 33 Troy MI
3705 Thompson,Cindy 7749 46:44.5 41:48.7 13:27 F 33 Ann Arbor MI
3706 Ketchman,Yasminah 5934 46:44.8 41:53.4 13:29 F 29 Ypsilanti MI
3707 Craig,Haley 4761 46:45.7 42:51.2 13:48 F 7 Dexter MI
3708 Craig,Kathleen 4762 46:46.0 42:51.0 13:48 F 29 Dexter MI
3709 Asam,Lauren 4099 46:46.2 41:49.0 13:28 F 10 Canton United States
3710 Asam,Susan 4101 46:46.6 41:49.6 13:28 F 34 Plymouth United States
3711 Caldwell,Bob 4554 46:46.6 43:38.9 14:03 M 30 Saline MI
3712 Ingles,Cynthia 5758 46:47.1 41:33.5 13:23 F 28 Port Huron MI
3713 Asam,Robert 4100 46:47.6 41:50.3 13:28 M 58 Belleville United States
3714 Maley,Robin 6306 46:47.7 43:39.6 14:03 F 30 Ann Arbor MI
3715 Bender,Vicki 4254 46:47.7 45:29.8 14:39 F 50 Sylvania OH
3716 Bedich,Jenna 4223 46:47.9 43:29.6 14:00 F 18 South Lyon MI
3717 Bender Mckenzie,Nicole 4255 46:47.9 45:30.0 14:39 F 24 Sylvania OH
3718 Degenaro,Vincent 4878 46:48.0 41:01.0 13:12 M 35 Dexter MI
3719 Babo,Angie 4117 46:49.0 45:30.0 14:39 F 40 Ypsilanti MI
3720 Evans,Kayla 5116 46:49.8 43:31.3 14:00 F 18 New Hudson MI
3721 Elka,Patricia 5068 46:50.0 45:31.5 14:39 F 48 Willis MI
3722 Mulligan,Marci 6622 46:50.3 43:23.0 13:58 F 53 South Lyon MI
3723 Samborn,James 7270 46:54.7 40:37.2 13:04 M 62 Ann Arbor MI
3724 Peterson,Colleen 6901 46:56.1 44:28.1 14:19 F 27 Grand Blanc MI
3725 Converso-baran,Kimber 4716 46:57.1 42:36.8 13:43 F 46 Ypsilanti MI
3726 Deloach,Sherry 4886 46:57.2 42:37.0 13:43 F 45 Ypsilanti U.S.
3727 Shannon,Lara 8781 46:59.8 41:35.6 13:23 F 40 Ann Arbor MI
3728 Shannon,Gary 8780 46:59.9 41:35.6 13:23 M 70 Lexington KY
3729 Viola,Carrie 7902 47:00.3 42:43.2 13:45 F 34 Plymouth United States
3730 Nault,Christine 6671 47:04.3 41:21.5 13:19 F 26 Grass Lake MI
3731 George,Meghan 5328 47:04.7 44:36.8 14:22 F 30 Swartz Creek MI
3732 Hoover,Liam 5697 47:04.9 44:37.8 14:22 M 4 Howell MI
3733 Nault,Michael 6672 47:08.0 41:23.0 13:19 M 27 Grass Lake MI
3734 Smith,Garvin 7483 47:08.4 42:02.7 13:32 M 73 Ann Arbor MI
3735 Lundy,Veronica 6258 47:10.5 45:45.5 14:44 F 45 Pinckney MI
3736 Browne,Antoinette 4468 47:10.5 45:45.9 14:44 F 46 Pinckney MI
3737 Culver,Darcie 4792 47:11.3 42:23.8 13:39 F 27 Howell United States
3738 Crane,Nancy 8348 47:11.6 42:15.7 13:36 F 42 West Bloomfield MI
3739 Poers,Brian 9285 47:12.0 42:17.4 13:37 M 0
3740 Doan,Miki 8373 47:13.1 43:10.1 13:54 F 40 Gregory MI
3741 Boote,Beth 4363 47:13.2 43:09.7 13:54 F 41 Gregory MI
3742 Cunningham,Dan 9286 47:13.4 42:19.2 13:37 M 47
3743 Resko,Stella 7070 47:13.9 41:33.8 13:23 F 32 Ann Arbor MI
3744 Brannock,Zach 8297 47:17.1 41:43.5 13:26 M 25 Tecumseh MI
3745 Meyer,Kate 8623 47:17.4 41:43.4 13:26 F 25 Tecumseh MI
3746 Sorini Elser,Sandra 7531 47:18.2 41:56.3 13:30 F 62 Ann Arbor MI
3747 Salvatore,Lucie 7267 47:18.6 41:55.7 13:30 F 7 South Lyon MI
3748 Cohn,Tommy 4691 47:20.4 40:43.3 13:06 M 11 Ann Arbor MI
3749 Monica,Mike 6564 47:21.0 44:51.8 14:26 M 38 Grass Lake United States
3750 Wisniewski,Andrew 8127 47:21.3 40:56.6 13:11 M 34 South Lyon MI
3751 Monica,Kimberly 6563 47:21.4 44:52.4 14:27 F 41 Grass Lake United States
3752 Wisniewski,Jamie 8128 47:23.1 40:58.5 13:11 F 33 South Lyon MI
3753 Cooper,Kimberly 8345 47:23.5 44:00.7 14:10 F 53 Toledo United States
3754 Cooper,Sarah 8346 47:23.5 44:00.7 14:10 F 25 Toledo United States
3755 Sherman,Christine 7398 47:25.0 43:30.2 14:00 F 37 Tecumseh United States
3756 Murphy,Claudia 6635 47:25.1 42:56.8 13:49 F 57 Plymouth MI
3757 Fermoyle,Maureen 5171 47:25.5 42:57.5 13:50 F 57 Royal Oak MI
3758 Sherman,Thad 7400 47:25.5 43:30.6 14:00 M 41 Tecumseh United States
3759 Fotis,Katie 5229 47:27.2 42:25.2 13:39 F 36 Kalamazoo United States
3760 Ahmed,Sara 4027 47:30.1 42:38.0 13:43 F 38 Royal Oak MI
3761 Ahmed,Fuzail 9455 47:30.6 42:38.0 13:43 M 7 Royal Oak MI
3762 Strodel,Matt 7639 47:34.8 45:40.5 14:42 M 35 Ann Arbor United States
3763 Butcher,Brittney 4539 47:36.5 42:02.7 13:32 F 12 Owosso MI
3764 Hannah,Rachel 9313 47:36.6 42:02.7 13:32 F 12
3765 Gilbert,Lydia 8426 47:38.0 43:05.1 13:52 F 10 Ann Arbor MI
3766 Cohn,Peter 4690 47:38.2 41:02.1 13:12 M 6 Ann Arbor MI
3767 Vandermarkt,Kathy 7857 47:39.5 44:14.4 14:14 F 56 Jenison MI
3768 Cohn,Jonathan 4689 47:40.4 41:02.4 13:13 M 41 Ann Arbor MI
3769 Cohn,Amy 4688 47:42.0 41:03.8 13:13 F 40 Ann Arbor MI
3770 Deleonard,Morgan 4884 47:42.7 45:48.1 14:44 F 26 Ann Arbor United States
3771 Nephew,Amanda 6686 47:43.0 43:07.2 13:53 F 28 Ann Arbor MI
3772 Bleitz,Alyssa 4329 47:43.1 45:02.8 14:30 F 15 Milan MI
3773 Bleitz,Daniel 4330 47:43.6 45:03.0 14:30 M 43 Milan MI
3774 Edwards,Leandra 5041 47:44.7 35:56.2 11:34 F 21 Novi United States
3775 Cekola,Kim 8320 47:45.2 41:50.7 13:28 F 42 Ann Arbor MI
3776 Gaynor,Gloria 5318 47:45.4 42:20.6 13:38 F 62 Ypsilanti United States
3777 Behen,Isabel 4237 47:45.9 42:25.0 13:39 F 9 Ypsilanti MI
3778 Behen,Rosalie 4238 47:46.3 42:25.6 13:39 F 40 Ypsilanti MI
3779 Lum,Ruth 8576 47:48.8 45:06.7 14:31 F 61 Ann Arbor MI
3780 Cherry,Donald 4641 47:49.8 45:07.5 14:31 M 67 Grosse Pointe MI
3781 Baca,Lynn 4121 47:52.4 42:57.7 13:50 F 23 South Lyon MI
3782 Delles,Tammie 4885 47:52.9 43:43.8 14:04 F 43 Ann Arbor MI
3783 Eglinton,Bennett 5046 47:53.1 43:55.4 14:08 M 19 Se Grand Rapids United States Of Ame
3784 Montague,Jessica 6565 47:53.1 43:55.4 14:08 F 19 Brighton United States
3785 Rorie,Kecia 8746 47:53.9 43:44.6 14:05 F 34 Ann Arbor MI
3786 Aikey,Justin 4030 47:54.4 46:24.1 14:56 M 33 Trenton MI
3787 Barkakati,Emily 4172 47:54.7 43:26.5 13:59 F 24 Ann Arbor MI
3788 Wang,Anran 7956 47:55.1 43:26.6 13:59 M 23 Ann Arbor MI
3789 Aikey,Esther 4029 47:55.2 46:25.4 14:57 F 31 Trenton MI
3790 Theobald,Candy 7737 47:57.7 43:03.9 13:52 F 45 Linden MI
3791 Baca,John 4120 47:57.9 43:02.5 13:51 M 50 South Lyon United States
3792 Davies,Tricia 4839 48:00.8 45:26.2 14:37 F 54 Ann Arbor United States
3793 Sarns,Dick 8760 48:00.9 42:27.7 13:40 M 83 Ann Arbor MI
3794 Walter,Natalie 9206 48:01.0 43:59.8 14:10 F 30
3795 Koyle,Karen 6034 48:01.1 46:05.1 14:50 F 55 Bloomfield Hills MI
3796 Narayanan,Lakshmi 6667 48:01.3 42:01.1 13:31 F 58 Ann Arbor MI
3797 Rivet,Randall 7117 48:01.5 43:16.2 13:56 M 58 Ann Arbor MI
3798 Mulhern,Ann 6619 48:01.8 45:28.8 14:38 F 53 Ann Arbor MI
3799 King,Bill 5952 48:02.1 43:48.6 14:06 M 51 Ann Arbor MI
3800 Walker,Angela 7937 48:02.2 42:24.6 13:39 F 31 Ann Arbor United States
3801 King,Trevor 5958 48:02.6 43:48.8 14:06 M 13 Ann Arbor MI
3802 Trapp,Beth 8820 48:04.9 42:47.1 13:46 F 46 O MI
3803 Erickson,Anne 5096 48:07.0 42:44.0 13:45 F 39 Ann Arbor MI
3804 Heath,Rebecca 5580 48:10.0 43:47.1 14:06 F 34 Milan United States
3805 Guenther,Rebecca 8444 48:11.6 43:48.1 14:06 F 33 Milan MI
3806 Moon,Mitzi 6569 48:11.7 43:47.8 14:06 F 36 Ypsilanit United States
3807 Gruszczynski,Tim 5459 48:12.6 45:16.5 14:34 M 50 Plymouth MI
3808 Meister,Alyssa 8617 48:13.0 44:48.9 14:25 F 13 Saline MI
3809 Gruszczynski,Phyllis 5458 48:13.0 45:17.1 14:35 F 49 Plymouth MI
3810 Sitarski,Kelsey 7447 48:13.7 43:39.4 14:03 F 16 Livonia MI
3811 Loose,Cathy 6233 48:13.9 43:28.2 13:59 F 42 Dearborn Heights MI
3812 Loose,Megan 6234 48:14.6 43:29.1 14:00 F 15 Dearborn Heights MI
3813 Banks,Aimee 4166 48:14.7 45:09.2 14:32 F 25 Flat Rock MI
3814 Kohrman,Amy 8540 48:17.7 45:27.9 14:38 F 47 Ann Arbor MI
3815 Meister,Mark 8619 48:19.4 44:54.8 14:27 M 43 Saline MI
3816 Shemwell,Aubree 7396 48:20.9 46:13.0 14:53 F 32 Chelsea MI
3817 Grant-yopko,Barbara 5421 48:21.1 46:12.8 14:52 F 56 Chelsea MI
3818 Roeser-nordling,Kathy 7156 48:21.3 43:51.1 14:07 F 41 Ann Arbor MI
3819 Mukavitz,Scott 6616 48:22.2 46:32.8 14:59 M 48 Eastpointe MI
3820 Chang,Louise 4623 48:22.6 43:52.3 14:07 F 43 Ann Arbor United States
3821 Crawford,Kathy 4772 48:26.4 46:36.3 15:00 F 50 Dexter MI
3822 Seidl,Stephannie 7363 48:26.5 45:52.8 14:46 F 45 Dexter MI
3823 Eisenbrey,Karen 5053 48:27.6 15:36 F 65 Ypsilanti MI
3824 Siler,Kathleen 7429 48:28.1 45:04.3 14:30 F 65 Manchester MI
3825 Mathews,Mary 8598 48:29.4 44:41.2 14:23 F 23 Ann Arbor MI
3826 Forsyth,Danielle 9422 48:29.6 44:41.6 14:23 F 23 Garden City MI
3827 Shaver,Chuck 7381 48:30.6 43:28.6 14:00 M 50 Ann Arbor MI
3828 Petz,Dana 6910 48:31.4 45:19.9 14:35 F 23 Madison Heights MI
3829 Kjerrumgaard,Stacy 5977 48:32.4 45:21.0 14:36 F 26 Harrison Township MI
3830 Munson,Christine 6629 48:32.4 42:34.6 13:42 F 37 Howell MI
3831 Munson,Jim 6630 48:32.8 42:34.9 13:42 M 43 Howell MI
3832 Harris,Lynn 5545 48:33.3 42:47.4 13:46 F 57 Manhattan Beach CA
3833 Krushelnick,Katie 6066 48:33.4 43:16.7 13:56 F 7 Ann Arbor MI
3834 Harris,Kathryn 5543 48:33.7 42:48.0 13:47 F 26 Ann Arbor MI
3835 Wyngarden,Alyson 8170 48:34.2 45:18.4 14:35 F 27 Northville MI
3836 Oslin,Alyson 6800 48:34.3 45:18.2 14:35 F 26 Ann Arbor MI
3837 Hicks,Brian 5630 48:34.6 44:51.8 14:26 M 49 Fraser United States
3838 Brennan,Ann 4422 48:34.8 43:18.3 13:56 F 41 Ann Arbor MI
3839 Hicks,Noah 5632 48:34.9 44:52.7 14:27 M 14 Fraser United States
3840 Young,Jennifer 8198 48:35.2 46:51.0 15:05 F 44 Ypsilanti MI
3841 Redies,Karen 8724 48:35.5 43:11.9 13:54 F 51 Adrian MI
3842 Young,Stephen 8204 48:35.6 46:51.1 15:05 M 43 Ypsilanti MI
3843 Kirby,Hannah 5962 48:40.7 48:05.8 15:29 F 13 Jackson MI
3844 May,Eric 6382 48:41.6 45:50.4 14:45 M 30 Ann Arbor MI
3845 Cullip,Robert 4790 48:42.3 44:01.0 14:10 M 58 Ann Arbor MI
3846 Cullip,Patrick 4789 48:42.5 44:00.6 14:10 M 28 Ann Arbor MI
3847 Newman,Frank 6697 48:44.8 48:30.4 15:37 M 62 West Bloomfield MI
3848 Canvassar,Marc 4569 48:45.1 48:31.0 15:37 M 50 West Bloomfield MI
3849 Newman,Andrea 6696 48:45.2 48:30.4 15:37 F 52 Ann Arbor
3850 Williams,Elaine 8093 48:45.8 44:57.6 14:28 F 46 Saline MI
3851 Wilkie,Kelly 9104 48:46.1 44:58.9 14:29 F 42
3852 Kirby,Heidi 5963 48:47.5 48:12.6 15:31 F 41 Jackson MI
3853 Kirby,Marcus 5964 48:47.8 48:12.3 15:31 M 43 Jackson MI
3854 Ramsey,Gwen 7021 48:48.7 43:46.1 14:05 F 17 Commerce MI
3855 Yang,Karen 8174 48:55.1 43:43.2 14:04 F 48 Ann Arbor MI
3856 Craig,David 4760 48:55.3 45:06.1 14:31 M 60 Grass Lake MI
3857 Holdgreve-resender,Katie 9312 48:56.1 42:46.4 13:46 F 33
3858 Lusk,Mary 6260 48:56.5 44:27.6 14:19 F 8 Woodhaven United States
3859 Hermsen,Jenny 8468 48:57.2 46:15.0 14:53 F 23 Norwalk CT
3860 Lusk,Chris 6259 48:57.3 44:28.2 14:19 M 33 Woodhaven United States
3861 Botica,Emily 4374 48:58.3 43:40.2 14:03 F 35 Ypsilanti United States
3862 Ryan,Greg 8755 48:58.8 46:16.5 14:54 M 59 Martinez GA
3863 Ryan,Betty 8754 49:00.4 46:18.7 14:54 F 60 Martinez GA
3864 Scott,Karen 9265 49:00.8 47:07.3 15:10 F 47
3865 Vorgitch,James 8841 49:02.5 42:03.8 13:32 M 40 Warren United States
3866 Woodward,Jennifer 8155 49:04.9 44:20.8 14:16 F 34 Oak Park MI
3867 Budres,Mary 4488 49:05.5 44:22.7 14:17 F 31 Grosse Ile MI
3868 Buchholz,Amber 4480 49:05.9 47:14.4 15:12 F 17 Deaborn Heights MI
3869 Welyhorskyj,Tiffany 8016 49:06.2 47:14.8 15:12 F 20 Dearborn Heights United States
3870 Brown,Frederick 4453 49:07.7 43:08.7 13:53 M 66 Sparta MI
3871 Uchtorff,Clint 7821 49:09.1 46:19.8 14:55 M 27 New Boston United States
3872 Uchtorff,Renee 7822 49:09.2 46:20.5 14:55 F 27 New Boston United States
3873 Colter,Christeen 4700 49:10.2 45:17.3 14:35 F 34 Manchester MI
3874 Manning,Rayanne 6317 49:10.8 43:20.2 13:57 F 32 Ann Arbor United States
3875 Hill,Jennifer 5642 49:11.2 45:42.8 14:43 F 28 Detroit MI
3876 Murray-mcgue,Tracy 8650 49:13.5 44:56.5 14:28 F 28 South Lyon MI
3877 Dunnigan,David 5020 49:13.6 45:38.0 14:41 M 56 Milan MI
3878 Bray,Lindsay 4418 49:21.4 46:03.5 14:49 F 29 Novi MI
3879 Evans,Tricia 5119 49:21.7 46:04.1 14:50 F 23 Ann Arbor MI
3880 Straub,Rita 7630 49:23.5 46:48.4 15:04 F 44 New Boston Wayne
3881 Werner,Rebecca 8018 49:23.6 46:49.4 15:04 F 43 Wixom MI
3882 Steger,Jennifer 7577 49:25.4 44:46.5 14:25 F 33 Livonia MI
3883 Rehn,Dianna 7054 49:25.7 43:29.9 14:00 F 22 Western Springs United States
3884 Hubbard,Jessica 5723 49:26.0 44:41.7 14:23 F 28 Dexter MI
3885 Stevens,Craig 7588 49:33.6 44:44.4 14:24 M 40 Saginaw United States
3886 Weidmayer,Elissa 7991 49:34.0 43:48.0 14:06 F 29 Ann Arbor MI
3887 Pebley,Dale 6867 49:34.8 43:52.6 14:07 M 10 Howell MI
3888 Pebley,Cristey 6866 49:36.0 43:53.9 14:08 F 40 Howell MI
3889 Mehraban,Abigail 6458 49:36.1 46:12.3 14:52 F 8 Ann Arbor MI
3890 Albertson,Donald 9284 49:40.9 15:59 M 67
3891 Vanpelt,Demetrices 7867 49:41.0 43:33.1 14:01 F 58 Canton MI
3892 Douglas,Morgan 4975 49:42.7 43:55.0 14:08 F 10 Ann Arbor MI
3893 Bentley,Jennifer 4268 49:43.0 43:37.9 14:03 F 39 Ann Arbor MI
3894 Douglas,Jodi 4974 49:43.1 43:54.8 14:08 F 41 Ann Arbor MI
3895 Bentley,Ryan 4269 49:43.2 43:38.5 14:03 M 6 Ann Arbor MI
3896 Palmeri,Judi 6817 49:44.1 47:21.3 15:14 F 61 Saline MI
3897 Clements,Mac Kenzie 4678 49:44.8 46:43.8 15:02 F 17 Ann Arbor MI
3898 Stroud,Stephanie 7641 49:45.1 46:43.7 15:02 F 17 Saline MI
3899 Pritchett,Bernice 9466 49:45.3 43:47.0 14:06 F 35 Dexter MI
3900 Dawn,Paula 4863 49:45.6 45:10.2 14:32 F 42 Monroe MI
3901 Croissant,Megan 8350 49:46.0 46:11.2 14:52 F 31 Birmingham MI
3902 Croissant,Paul 8351 49:46.3 46:10.8 14:52 M 71 Rochester Hills MI
3903 Abler,Jennifer 4005 49:48.3 39:23.7 12:41 F 36 Novi MI
3904 Ochmanski,Richard 6749 49:48.8 46:31.3 14:58 M 62 Plymouth United States
3905 Ochmanski,M. Kathleen 6748 49:49.0 46:32.0 14:59 F 61 Plymouth United States
3906 Shauver,Melissa 7380 49:49.7 44:59.1 14:29 F 31 Ann Arbor MI
3907 Mangisto,Liora 6315 49:51.0 44:25.6 14:18 F 24 Ann Arbor MI
3908 Fried,Ryder 5263 49:51.2 44:25.4 14:18 M 6 Ann Arbor MI
3909 Welty,Anne 8012 49:52.1 43:43.8 14:05 F 58 Saline MI
3910 Kemeter,Brian 5917 49:53.7 47:53.0 15:25 M 19 Manchester MI
3911 Kemeter,Sharon 5919 49:54.4 47:53.3 15:25 F 47 Manchester MI
3912 Kennedy-ashe,Jodi 5926 49:54.7 47:32.0 15:18 F 41 Chelsea MI
3913 Simonelli,Tabatha 7436 49:54.9 47:32.1 15:18 F 41 Brighton MI
3914 Morrow,Jonathan 6593 49:55.5 48:20.1 15:33 M 34 Ann Arbor MI
3915 Bawardi,Rula 4202 49:56.0 47:05.0 15:09 F 40 Ann Arbor MI
3916 Mann,Amy 8590 49:56.2 45:05.7 14:31 F 22 Ypsilanti MI
3917 Flagel,Shelly 5201 49:56.6 48:22.8 15:34 F 34 Ann Arbor MI
3918 Newell,Charlie 8657 49:56.7 45:06.1 14:31 M 25 Ypsilanti MI
3919 May,Jill 6383 49:58.3 47:07.1 15:10 F 30 Ann Arbor MI
3920 O'brien,Becky 6744 49:58.4 45:41.2 14:42 F 32 Canton MI
3921 Chung,Chonghui 8332 49:59.4 46:13.6 14:53 F 41 Canton MI
3922 Chung,Kwangil 8335 49:59.4 46:13.4 14:53 M 42 Canton MI
3923 Chodzkaite,Ieva 4646 50:00.6 16:06 F 17 Ann Arbor MI
3924 Bernstein,Shari 4285 50:02.1 45:28.0 14:38 F 19 Ann Arbor MI
3925 Randel,Jessica 7024 50:02.2 45:28.5 14:38 F 19 Merion Station United States
3926 Welty,Max 8014 50:02.3 43:53.5 14:08 M 59 Saline MI
3927 Grimm,Alicia 5446 50:03.3 16:07 F 30 Chelsea United States
3928 Bennett,Pamela 4262 50:04.8 44:57.6 14:28 F 55 Ann Arbor MI
3929 Leblanc,M.J. 6144 50:05.3 48:01.4 15:27 F 45 Dexter MI
3930 Mehraban,Lucy 6460 50:06.2 46:41.7 15:02 F 5 Ann Arbor MI
3931 Everett,Kathy 5120 50:06.2 44:43.1 14:24 F 24 Chelsea MI
3932 Pienta,Amy 6922 50:06.5 46:41.6 15:02 F 42 Ann Arbor MI
3933 Rodriguez,Austin 9101 50:07.1 44:43.8 14:24 M 5
3934 Devine,Edmond 4916 50:09.9 49:52.8 16:03 M 94 Ann Arbor MI
3935 Stalker,Sue 7557 50:11.1 47:36.9 15:20 F 57 Ann Arbor MI
3936 Bradshaw,Carol 4406 50:11.3 47:37.5 15:20 F 47 Dexter United States
3937 Sirineo,Josephine 8788 50:11.6 46:56.8 15:07 F 34 Ann Arbor MI
3938 Kibler,Jeanette 5940 50:12.2 45:09.5 14:32 F 62 Ann Arbor MI
3939 Kisell,Craig 5973 50:13.2 48:25.8 15:35 M 14 Eastpointe MI
3940 Brugar,Kristy 4473 50:14.0 46:44.6 15:03 F 38 Royal Oak MI
3941 Yesta,Suzanne 8187 50:14.2 46:45.1 15:03 F 38 Canton MI
3942 Liebert,Monica 6210 50:15.4 44:01.1 14:10 F 59 Ann Arbor MI
3943 Kennedy,Bill 8522 50:16.2 49:21.8 15:53 M 50 South Lyon U.S.
3944 Henstock,Jennifer 8467 50:16.4 49:22.2 15:53 F 40 South Lyon U. S.
3945 Read,Carol 7039 50:16.5 46:11.4 14:52 F 70 Grass Lake MI
3946 Kennedy,Diane 8523 50:16.6 49:23.0 15:54 F 45 South Lyon U.S.
3947 Odtohan,Lea 6759 50:17.0 45:38.3 14:41 F 42 Royal Oak MI
3948 Walker,Sandra 7941 50:19.1 44:42.1 14:23 F 60 Lansing MI
3949 Sachs,Eric 7253 50:19.9 47:22.6 15:15 M 36 Ann Arbor MI
3950 Wietzke,Brian 9400 50:22.2 46:17.0 14:54 M 34 Ann Arbor MI
3951 Wietzke,Karen 8068 50:22.3 46:17.3 14:54 F 56 Hudsonville MI
3952 Cain,Denise 4551 50:24.1 45:24.5 14:37 F 50 Manchester MI
3953 Rutter,Craig 7238 50:25.3 48:00.5 15:27 M 57 Defiance OH
3954 Garrett,Tim 5307 50:30.9 44:33.7 14:21 M 41 Cincinnati OH
3955 Carter,Nancy 4593 50:33.4 45:42.3 14:43 F 47 Ann Arbor MI
3956 Fischer,Mary Jo 5187 50:34.2 45:43.6 14:43 F 41 Metamora OH
3957 Simpson,Aimee 7437 50:37.1 43:36.7 14:02 F 33 Richland MI
3958 Avink,Sarah 4112 50:37.4 43:31.8 14:01 F 34 Richland MI
3959 Furlong,Jake 5281 50:42.2 45:31.6 14:39 M 8 Ann Arbor United States
3960 Furlong,Annmarie 5279 50:42.4 45:31.6 14:39 F 43 Ann Arbor United States
3961 Pfister,Amy 6912 50:46.5 47:27.0 15:16 F 39 Adrian United States
3962 Bertram,Sherrie 4291 50:46.7 47:26.2 15:16 F 48 Onsted United States
3963 Rogosch,Kaitlyn 8741 50:46.9 49:48.0 16:02 F 10 Westland MI
3964 Rogosch,David 8740 50:49.9 49:51.9 16:03 M 43 Westland MI
3965 Brabbs-grenesko,Kimberly 4398 50:51.6 46:01.9 14:49 F 39 Midland MI
3966 Brabbs,Cindy 4397 50:51.9 46:04.3 14:50 F 61 Midland MI
3967 Trahey,Kevin 7780 50:54.4 48:08.8 15:30 M 38 Cadillac MI
3968 Weber,Tom 7982 50:55.4 49:49.7 16:02 M 58 Ann Arbor U.S.
3969 Weber,Kathy 7980 50:55.4 49:49.3 16:02 F 57 Ann Arbor U.S.
3970 Vanzant,Dylan 8835 50:56.1 44:59.8 14:29 M 10 Livonia MI
3971 Rogosch,Danielle 8739 50:57.4 49:58.7 16:05 F 40 Westland MI
3972 Rogosch,Alex 8738 50:57.8 50:00.2 16:06 M 13 Westland MI
3973 Harris,Jeremy 592 50:58.3 46:49.3 15:04 M 29 Howell MI
3974 Stallard,Timothy 1468 50:58.7 46:49.3 15:04 M 56 South Lyon MI
3975 Dunkerley,Zeena 9160 50:58.9 46:21.1 14:55 F 32
3976 Katz,Jacqueline 9320 51:00.1 45:59.6 14:48 F 70
3977 Wenner,Beth 8858 51:00.2 45:59.2 14:48 F 46 Saline MI
3978 Gilbert,Mark 8427 51:00.9 46:27.8 14:57 M 44 Ann Arbor MI
3979 Gilbert,Meredith 8428 51:00.9 46:27.6 14:57 F 8 Ann Arbor MI
3980 Swan,Deanna 7680 51:02.9 46:57.3 15:07 F 45 Saline MI
3981 Perrin,Laurie 8689 51:03.0 47:26.4 15:16 F 13 Ann Arbor U.S.A.
3982 Abbott,Gwyn 4001 51:03.4 48:10.0 15:30 F 39 Howell MI
3983 Moore,Michelle 6580 51:03.7 47:27.2 15:16 F 14 Ann Arbor MI
3984 Sosnowski,Sarah 7532 51:04.5 48:49.7 15:43 F 31 Belleville MI
3985 Miller,Danielle 6517 51:04.9 47:39.9 15:20 F 27 Charlotte MI
3986 Zurbuchen,Erin 9154 51:06.2 45:24.6 14:37 F 35
3987 Zurbuchen,Maria 9157 51:06.2 45:24.8 14:37 F 7
3988 Zeimet,Veronica 8232 51:07.4 45:46.8 14:44 F 11 Ann Arbor MI
3989 Reilly,Eric 9353 51:08.3 46:01.0 14:49 M 21
3990 Reilly,Rosemarie 7061 51:08.4 46:01.6 14:49 F 50 Bloomfield Hills MI
3991 Reilly,John 9354 51:09.0 46:01.6 14:49 M 53
3992 Harris,Michelle 5546 51:09.2 46:07.5 14:51 F 44 Ypsilanti MI
3993 Perkins,Sherry 6886 51:09.4 46:08.0 14:51 F 51 Ypsilanti MI
3994 Hawkins,Ian 5565 51:12.0 47:20.3 15:14 M 62 Ypsilanti MI
3995 Hawkins,Barbara 5564 51:12.1 47:20.6 15:14 F 64 Ypsilanti MI
3996 Wheeler,Tracy 8033 51:13.3 47:48.2 15:23 F 48 Springport MI
3997 Connors,Margaret 9141 51:13.6 45:37.8 14:41 F 61
3998 Connors,Tim 9142 51:13.7 45:37.3 14:41 M 55
3999 Ewing,Alice 5123 51:17.1 48:53.6 15:44 F 51 Dexter MI
4000 Tokuno,Sadako 9309 51:19.3 46:07.6 14:51 F 47
4001 Webber,Alicia 7977 51:20.0 45:16.9 14:34 F 32 Brighton MI
4002 Snyder,Courtney 7520 51:22.0 49:55.2 16:04 F 20 Pinckney MI
4003 Thiesmeyer,Sara 9031 51:22.1 45:35.5 14:40 F 29 Redford MI
4004 Roberts,Kathy 7124 51:22.1 48:57.9 15:46 F 49 Guelph Canada
4005 Mccabe,Maria-rosa 6398 51:24.8 49:43.4 16:00 F 74 Annarbor MI
4006 ?,Elisa 9341 51:25.0 49:43.6 16:00 F 45
4007 Austin,Heather 8899 51:25.6 45:38.0 14:41 F 37 Walled Lake MI
4008 Butler,Stacie 4543 51:26.2 47:20.1 15:14 F 40 Ann Arbor MI
4009 Sutch,Laurie 7675 51:26.4 47:20.5 15:14 F 44 Ann Arbor MI
4010 Allen,Allison 4050 51:26.9 46:01.0 14:49 F 29 Hazel Park MI
4011 Vanzant,Caren 8834 51:27.1 45:31.1 14:39 F 44 Commerce TwP. MI
4012 Brown,Joshua 4456 51:27.3 46:32.6 14:59 M 11 Saline MI
4013 Brown,Carol 4451 51:30.5 46:35.5 15:00 F 48 Saline MI
4014 Thornton,Stephanie 7760 51:33.4 48:28.8 15:36 F 36 Monroe United States
4015 Schnorberger,Valerie 7318 51:33.5 48:29.4 15:36 F 45 Monroe MI
4016 Lund,Eric 6257 51:34.0 45:17.0 14:34 M 31 Oak Park United States
4017 Sitterly,Julianne 7449 51:34.1 48:30.7 15:37 F 46 Monroe MI
4018 French,Trevor 5259 51:34.3 45:17.0 14:34 M 31 Cadillac MI
4019 Shipp,Carolyn 7406 51:34.4 48:30.8 15:37 F 49 Monroe MI
4020 Hoeft,Leslie 5672 51:37.6 49:12.9 15:50 F 42 Whitmore Lake United States
4021 King,Lawrence 5955 51:40.8 48:49.6 15:43 M 61 Ann Arbor MI
4022 Julien,Thomas 5863 51:41.2 48:50.2 15:43 M 61 Lansing MI
4023 Stoll,Carrie 7616 51:41.3 49:24.5 15:54 F 23 Ann Arbor MI
4024 Miller,Beth 8628 51:42.3 48:12.4 15:31 F 32 Birmingham MI
4025 Troisi,Cathy 7790 51:42.4 49:24.8 15:54 F 57 Ann Arbor MI
4026 Miller,Jason 8630 51:42.4 48:12.6 15:31 M 31 Birmingham MI
4027 Stupple,Kelly 7653 51:43.9 46:34.1 14:59 F 41 Ann Arbor United States
4028 Davidson,Beverly 4834 51:44.0 46:34.0 14:59 F 42 Ann Arbor MI
4029 Jones,Matt 8506 51:45.8 45:30.7 14:39 M 15 Clio MI
4030 Smith,Aimee 7474 51:54.9 47:09.1 15:11 F 42 Ann Arbor MI
4031 Keedy,Margaret 5896 51:56.8 47:25.3 15:16 F 13 Ypsilanti MI
4032 Donham,Marilyn 4960 51:56.9 47:11.0 15:11 F 47 Ann Arbor MI
4033 Keedy,Deb 5894 51:57.2 47:25.7 15:16 F 53 Ypsilanti MI
4034 Keedy,John 5895 51:57.5 47:25.1 15:16 M 53 Ypsilanti MI
4035 Schoeni,Bob 7319 51:58.3 49:21.5 15:53 M 46 Ann Arbor MI
4036 Graydon,Carolyn 5426 52:07.6 47:45.5 15:22 F 39 Jackson United States Of Ame
4037 Graydon,Jeffrey 5427 52:07.6 47:45.8 15:22 M 41 Jackson United States Of Ame
4038 Jamrog,Shelly 8956 52:08.5 50:19.6 16:12 F 47 Birch Run United States
4039 Bordeau,Debra 4366 52:09.6 46:31.1 14:58 F 39 Lasalle MI
4040 Wirebaugh,Payton 8124 52:10.0 46:06.6 14:50 F 7 Holland MI
4041 Wirebaugh,Jayne 8123 52:10.1 46:06.6 14:50 F 36 Holland MI
4042 Fox,Colby 5234 52:12.8 16:48 F 60 Aa MI
4043 Krijnen,Anneke 6056 52:13.3 48:09.3 15:30 F 62 Milan MI
4044 Fechik,Kate 9302 52:13.9 50:54.3 16:23 F 47
4045 Woodby,Tammy 9303 52:14.0 50:54.2 16:23 F 44
4046 Romer,Tracie 9352 52:20.6 48:09.9 15:30 F 28
4047 Barksdale,Lisa 4173 52:20.7 46:46.5 15:03 F 32 Ann Arbor MI
4048 Jamrog,Julia 8955 52:21.7 50:32.8 16:16 F 20 Birch Run United States
4049 Dorcey,John 4965 52:21.9 38:35.9 12:25 M 64 Brighton MI
4050 Brennock,Grace 4423 52:25.6 50:29.1 16:15 F 62 Ypsilanti Washtenaw
4051 Al-amin,Sakina 4032 52:26.0 47:25.4 15:16 F 24 Ann Arbor MI
4052 Bailey,Kate 4134 52:27.0 47:18.7 15:14 F 16 Oxford MI
4053 Sidebottom,David 7416 52:27.0 47:19.2 15:14 M 50 Lake Orion MI
4054 Hickey,Andrea 5628 52:28.0 46:14.2 14:53 F 31 Dundee MI
4055 Collica,Judi 4695 52:36.4 47:17.7 15:13 F 68 Whitmore Lake MI
4056 Niedzielski,Sharon 6711 52:36.5 47:17.4 15:13 F 59 Whitmore Lake United States
4057 Kroll,Jeri Lea 6062 52:41.6 48:52.2 15:44 F 40 Brighton MI
4058 Garner,Jill 5301 52:41.9 48:52.7 15:44 F 39 New Boston MI
4059 Sultana,Kathy 9095 52:43.3 49:50.8 16:03 F 47
4060 Klima,Julie 5979 52:43.4 49:51.1 16:03 F 25 Ann Arbor MI
4061 Mcnicol,Yvonne 8613 52:43.6 48:43.0 15:41 F 34 Britton MI
4062 Mccarley,Tonya 8605 52:43.7 48:43.4 15:41 F 36 Britton MI
4063 Peters,Robert 6900 52:44.8 47:13.3 15:12 M 70 Commerce Township MI
4064 Roberts,Meghan 7127 52:45.4 46:40.4 15:01 F 24 Ann Arbor MI
4065 Jones,Debbie 5841 52:45.6 48:06.0 15:29 F 54 Ann Arbor MI
4066 Kummet,Kari 6085 52:45.9 48:06.0 15:29 F 42 Ypsilanti MI
4067 Knauss,Carol 5984 52:46.1 46:41.4 15:02 F 52 Ann Arbor MI
4068 Fisher,Robyn 5194 52:47.3 47:51.2 15:24 F 31 Tecumseh MI
4069 Fisher,Amanda 5189 52:47.5 47:51.4 15:24 F 22 Blissfield MI
4070 Bullard,Mary 4492 52:48.5 51:35.3 16:36 F 61 Monroe MI
4071 Lemmen,Jane 6176 52:48.5 47:19.6 15:14 F 49 Holland MI
4072 Lemmen,Jane 6175 52:48.5 47:19.9 15:14 F 43 Holland MI
4073 Dorsey,Laura 9441 52:48.7 49:06.0 15:48 F 56 Brighton MI
4074 Clark,Paula 4675 52:49.3 17:00 F 48 Farmington Oakland
4075 Quebbeman,Andrew 6992 52:50.4 48:08.8 15:30 M 22 Lansing United States
4076 Quebbeman,Nathan 6994 52:51.2 17:01 M 20 Lansing United States
4077 Bort,Sue 4369 52:52.3 48:10.8 15:30 F 48 Lansing United States
4078 Quebbeman,Marsha 6993 52:52.4 48:11.7 15:31 F 50 Lansing United States
4079 Crabtree,Suzette 4758 52:52.4 51:38.4 16:37 F 58 Monroe Monroe
4080 Charow,Victoria 4635 52:54.1 49:13.8 15:51 F 20 Saint Clair Shores MI
4081 Charow,Lynda 4634 52:54.1 49:12.8 15:50 F 44 Saint Clair Shores MI
4082 Niess May,Barbara 9107 52:57.4 48:18.0 15:33 F 40
4083 Hurris,Simon 9108 52:58.3 48:19.0 15:33 M 9
4084 Pinsky,Matthew 9001 52:59.9 46:36.6 15:00 M 31 Ann Arbor MI
4085 Pinsky,Melissa 9002 53:02.2 46:39.2 15:01 F 33 Ann Arbor MI
4086 Gross,Beverly 5451 53:02.9 50:15.5 16:11 F 55 Bloomfield Hills MI
4087 Graham,Marian 5418 53:03.8 50:16.0 16:11 F 46 Westwood United States
4088 Zonderman,Jennifer 8248 53:04.4 50:18.6 16:12 F 41 Westwood United States
4089 Choi,Jennifer 4649 53:05.1 45:36.2 14:41 F 33 Ann Arbor MI
4090 Mccormick,Kelli 6409 53:05.3 50:18.3 16:11 F 51 White Lake United States
4091 Hotta,Natsumoto 5705 53:05.9 45:37.7 14:41 M 34 Ann Arbor MI
4092 Chandler,Susan 4619 53:06.0 50:30.6 16:15 F 65 Ann Arbor MI
4093 Hiranuma,Yoko 5655 53:06.1 45:42.1 14:43 F 33 Ann Arbor MI
4094 ST. Germain,Gerald 7550 53:06.4 46:35.2 15:00 M 67 Ann Arbor MI
4095 Chandler,Bill 4618 53:06.5 50:31.4 16:16 M 65 Ann Arbor MI
4096 Kim,Yun-gi 5949 53:06.7 45:37.0 14:41 M 33 Ann Arbor MI
4097 Weisman,Andrew 7997 53:08.9 50:14.3 16:10 M 10 Ann Arbor MI
4098 ST. Germain,Linda 7551 53:09.2 46:38.2 15:01 F 39 Ann Arbor MI
4099 Lacey,Heidi 6095 53:11.6 50:47.5 16:21 F 36 Fort Wayne IN
4100 Rutter,Gayle 7239 53:11.8 50:47.4 16:21 F 58 Defiance OH
4101 Frania,Kathryn 5243 53:13.4 47:13.8 15:12 F 25 Belleville MI
4102 Burkhart,Kitty 4514 53:16.3 47:18.8 15:14 F 61 Whitmore Lake MI
4103 Badgerow,Charlie 8272 53:25.6 47:20.0 15:14 M 24 Superior Township MI
4104 Roberts,Debra 8732 53:25.6 47:19.2 15:14 F 56 Superior Township MI
4105 Anderson,Barbara 4068 53:26.9 49:58.0 16:05 F 62 Ann Arbor MI
4106 Schnepf,Dylan 9198 53:31.5 50:23.6 16:13 M 14
4107 Hubbard,Dianne 5722 53:31.8 48:47.2 15:42 F 55 Temperance MI
4108 Boxhorn,Mary 4391 53:31.8 48:47.7 15:42 F 55 Temperance MI
4109 Robertson,Noah 8735 53:32.1 50:24.2 16:13 M 11 Saginaw MI
4110 Dieter,Julie 4933 53:33.5 49:50.5 16:03 F 58 Saline MI
4111 Mccourtie,Shannon 6410 53:36.6 47:50.9 15:24 F 0 Brooklyn MI
4112 Campbell,Madeline 4562 53:38.9 49:05.5 15:48 F 19 Loudonville United States
4113 Peterman,Amanda 6898 53:39.0 49:04.9 15:48 F 19 West Bloomfield United States
4114 Davis,Katherine 4851 53:41.1 49:25.2 15:54 F 19 Grand Rapids United States
4115 Snedeker,Christine 9019 53:42.2 49:26.4 15:55 F 39 Rockford MI
4116 Davis,Cheri 4844 53:43.6 49:27.3 15:55 F 54 Grand Rapids MI
4117 Berridge,Danielle 4286 53:43.8 48:37.1 15:39 F 22 Ann Arbor
4118 Kilyanek,Stephanie 5946 53:44.1 48:37.4 15:39 F 24
4119 Haddad,Dan 5485 53:44.2 48:37.4 15:39 M 22
4120 Little,Alissa 9242 53:45.6 47:29.7 15:17 F 23
4121 Welch,Emily 8004 53:46.2 50:02.4 16:06 F 10 Livonia MI
4122 Wassermann,Emilie 7966 53:46.2 50:02.3 16:06 F 10 Livonia MI
4123 Haley,Rob 9147 53:46.6 47:30.5 15:17 M 29
4124 Gunn,Michael 8942 53:49.7 47:30.9 15:18 M 44 Ida MI
4125 Gunn,Valerie 5475 53:49.7 47:30.9 15:18 F 41 Ida United States
4126 Roebuck,Ivana 7148 53:51.3 46:56.0 15:06 F 30 Northville Wayne
4127 D'angelo,Melissa 9434 53:51.6 46:56.4 15:06 F 30 Dexter MI
4128 Diedo,Karen 8370 53:52.3 52:45.3 16:59 F 59 Ann Arbor MI
4129 Roebuck,Landry 7149 53:53.3 46:58.0 15:07 M 33 Northville Wayne
4130 Lucas-bell,Regina 6247 53:54.6 51:48.6 16:41 F 36 Dexter United States
4131 Flessland,Eric 5209 53:55.1 49:11.4 15:50 M 52 Grosse Ile MI
4132 Sarns,Megan 8763 53:55.3 51:50.5 16:41 F 11 Dexter MI
4133 Flessland,Ellise 5208 53:55.7 49:12.0 15:50 F 8 Grosse Ile MI
4134 Sarns,Joey 8761 53:56.3 51:49.7 16:41 M 13 Dexter MI
4135 Flessland,Stephanie 5212 53:56.7 49:13.2 15:51 F 45 Grosse Ile MI
4136 Lehnert,Eileen 6166 53:56.7 48:30.0 15:37 F 59 Jackson MI
4137 Spalding,David 7537 53:57.0 48:29.6 15:36 M 58 Jackson MI
4138 Sarns,Lori 8762 53:58.6 51:53.8 16:42 F 50 Dexter MI
4139 Sarns,Steve 8764 53:58.9 50:59.4 16:25 M 55 Dexter MI
4140 Heys,Katie 5625 54:01.0 48:33.8 15:38 F 27 Ann Arbor MI
4141 Heys,Lisa 5626 54:10.2 48:42.6 15:41 F 30 Ann Arbor MI
4142 Heys,Liz 5627 54:10.3 48:43.0 15:41 F 27 Ann Arbor MI
4143 Lake,Michele 6108 54:11.3 49:04.7 15:48 F 48 Ann Arbor MI
4144 Nguyen,Jennifer 6701 54:11.6 49:04.4 15:48 F 35 Ann Arbor MI
4145 Burns,Jan 4518 54:11.7 48:20.0 15:33 F 52 Maricopa AZ
4146 Siburt,David 7412 54:12.1 49:21.7 15:53 M 29 Highland MI
4147 Hayden,Sarah 5573 54:12.3 49:17.1 15:52 F 29 Flint United States Of Ame
4148 Quigley,Daniel 6996 54:12.5 49:17.3 15:52 M 28 Flint United States Of Ame
4149 Wolfe,Elizabeth 8140 54:12.6 49:22.2 15:53 F 18 Highland United States
4150 Kuckuck,Calla 6069 54:12.8 49:22.5 15:54 F 24 Highland MI
4151 Hoover,Leanne 5696 54:13.1 48:18.8 15:33 F 33 Pinckney MI
4152 Wilson,Domnique 9041 54:14.4 51:45.2 16:39 F 11 Ypsilanti MI
4153 Bigelow,Victoria 4307 54:14.7 48:59.8 15:46 F 56 Ann Arbor MI
4154 Juno,Andrew 5865 54:15.1 51:39.4 16:38 M 7 Flushing MI
4155 Stuart,Deborah 7642 54:16.5 48:40.6 15:40 F 31 Pleasant Lake MI
4156 May,Karen 6384 54:16.6 51:29.4 16:34 F 48 Milan MI
4157 Stuart,Mike 7644 54:17.0 48:40.8 15:40 M 32 Pleasant Lake MI
4158 Teeple,Jim 7719 54:17.4 51:30.1 16:35 M 55 Milan MI
4159 Sullivan,Katie 7666 54:17.6 52:20.8 16:51 F 17 Whitehouse OH
4160 Juno,Julie 5866 54:18.2 51:42.1 16:38 F 50 Flushing MI
4161 Plocek,Brittany 6935 54:18.3 52:21.8 16:51 F 17 Monclova OH
4162 La Pan,Morgan 6092 54:18.3 51:42.2 16:38 M 51 Ann Arbor MI
4163 Wilson,Althea 9040 54:20.3 51:51.6 16:42 F 42 Ypsilanti MI
4164 Leonard,Julie 6185 54:21.8 49:19.6 15:53 F 44 Ann Arbor MI
4165 Flake,Paula 5204 54:22.0 49:19.8 15:53 F 47 Ann Arbor MI
4166 Fransisco,Debby 8411 54:22.8 48:28.6 15:36 F 54 Novi MI
4167 Burns,Adam 4516 54:24.6 49:40.7 15:59 M 27 Rochester Hills United States
4168 Frost,April 8412 54:25.5 52:31.1 16:54 F 41 Pinckney MI
4169 Bakkenbowers,Karen 8273 54:25.5 52:31.2 16:54 F 49 Pinckney MI
4170 Burns,Grace 4517 54:25.9 49:41.6 16:00 F 27 Rochester Hills United States
4171 Quinnin,Ryan 6999 54:30.8 47:45.4 15:22 M 13 Ann Arbor MI
4172 Quinnin,Tim 7000 54:31.1 47:45.7 15:22 M 50 Ann Arbor MI
4173 Elder,Violet 5058 54:33.7 48:18.0 15:33 F 57 Ann Arbor MI
4174 Weisman,Jacqueline 7999 54:34.0 51:39.5 16:38 F 54 Ann Arbor MI
4175 Carson,Barbara 4588 54:34.6 51:08.6 16:28 F 55 Ann Arbor MI
4176 Castorena,Joe 4605 54:34.8 48:54.4 15:44 M 51 Pinckney MI
4177 Castorena,Haley 4600 54:34.9 48:54.5 15:45 F 16 Pinckney MI
4178 Quinnin,Maria 6998 54:35.1 47:50.2 15:24 F 50 Ann Arbor MI
4179 Dupuy,Dorothy 5021 54:36.1 51:39.4 16:38 F 56 Ann Arbor MI
4180 Elyakin,Nathan 5082 54:37.2 51:43.8 16:39 M 10 Ann Arbor MI
4181 Julien,Deborah 5862 54:37.3 51:44.8 16:39 F 58 Lansing MI
4182 Lemerond,Charlotte 6172 54:37.8 47:43.4 15:22 F 1 Clarkston MI
4183 Heemsoth,Miranda 5585 54:38.0 47:41.9 15:21 F 35 Grand Blanc MI
4184 Lemerond,Laura 6174 54:38.6 47:43.1 15:22 F 4 Clarkston MI
4185 Elyakin,Neal 5083 54:39.6 51:46.4 16:40 M 55 Ann Arbor MI
4186 Metzger,Courtney 6490 54:40.9 51:55.8 16:43 F 27 Commerce MI
4187 Findley,Jessica 5186 54:41.2 51:56.3 16:43 F 23 Troy MI
4188 Stanichuk,Jessica 7559 54:41.3 51:56.6 16:43 F 24 Royal Oak United States
4189 Whitfield,Lynne 8053 54:42.1 49:49.5 16:02 F 46 Niles MI
4190 Rotzien,Laura 7190 54:42.2 49:49.8 16:02 F 52 Inkster MI
4191 Welch,Daniel 8003 54:42.8 50:57.4 16:24 M 61 Ann Arbor MI
4192 Spencer,Tara 8798 54:42.9 50:58.4 16:24 F 32 West Bloomfield MI
4193 Welch,Mary Ann 8005 54:43.1 50:58.3 16:24 F 45 Livonia MI
4194 Miller,Joan 6524 54:43.9 48:51.9 15:44 F 48 Ann Arbor MI
4195 Maclean,Ann 8584 54:44.4 48:52.5 15:44 F 57 Canton MI
4196 Chun,Tony 4659 54:45.4 51:55.0 16:43 M 33 Canton MI
4197 Williams,Amy 8087 54:46.4 47:51.0 15:24 F 29 Swartz Creek MI
4198 Lemerond,Elizabeth 6173 54:46.9 47:52.3 15:24 F 35 Clarkston MI
4199 Mccammon,Lewis 9364 54:48.7 50:05.9 16:07 M 4
4200 Blank,Laurie 4323 54:53.0 50:46.3 16:20 F 59 White Lake MI
4201 Zinn,Kara 9363 54:54.1 50:11.1 16:09 F 34
4202 Mccammon,Ryan 9362 54:54.4 50:11.9 16:09 M 38
4203 Mahmud,Kelly 6294 54:58.3 47:01.2 15:08 F 44 Saline MI
4204 Ramirez,Roberto 7015 55:03.9 48:59.9 15:46 M 17 ST. Louis MI
4205 Ryder,Corey 7249 55:04.3 49:27.0 15:55 F 37 Ann Arbor MI
4206 Quackenbush,Susan 8714 55:04.7 49:28.0 15:55 F 63 Ann Arbor MI
4207 Brenny,Amy 4424 55:05.4 49:01.5 15:47 F 41 Forest Lake MN
4208 Early,Jennifer 8386 55:07.6 48:37.8 15:39 F 35 East Lansing MI
4209 Dresch,Danille 4996 55:08.3 49:06.9 15:48 F 29 Dexter MI
4210 Miller,Jennifer 6523 55:11.9 50:30.8 16:15 F 58 Manchester United States
4211 Sieler,Beverly 7424 55:15.7 53:31.7 17:14 F 63 Monroe MI
4212 Oga,Keitaro 8665 55:16.0 53:51.9 17:20 M 8 West Bloomfield MI
4213 Keller,Janet 5905 55:19.9 54:26.9 17:31 F 64 Ann Arbor MI
4214 Bedore,Rick 4227 55:21.6 48:31.2 15:37 M 50 Jackson MI
4215 Lincoln,Kim 8561 55:25.8 53:22.7 17:11 F 34 Wayne United States
4216 Deyoung,Laurie 4923 55:26.1 53:23.2 17:11 F 37 Grand Rapids MI
4217 Hendee,Karly 8466 55:27.4 50:26.9 16:14 F 26 Ann Arbor MI
4218 Gonzales,D'arcy 5385 55:31.6 17:52 M 60 Clarkston MI
4219 Hamilton,Susan 5521 55:41.7 48:59.5 15:46 F 51 Ann Arbor MI
4220 Prince,Monica 6973 55:41.9 49:00.2 15:46 F 59 Ypsilanti MI
4221 Nelson,Kyle 9291 55:44.7 49:30.3 15:56 M 0
4222 Spencer,Beth 1456 55:44.8 49:39.3 15:59 F 61 Ann Arbor MI
4223 Russell,Randy 7227 55:44.9 50:16.0 16:11 M 56 Windsor Canada
4224 Racz,Darlene 7007 55:45.3 49:38.3 15:59 F 59 Pinckney MI
4225 Kyle,Marissa 9290 55:45.4 49:29.4 15:56 F 14
4226 Prince,Russell 6974 55:47.0 49:03.0 15:47 M 62 Ypsilanti MI
4227 Maguire,Robert 6293 55:47.3 49:04.4 15:48 M 67 Ypsilanti MI
4228 Allen,Han Na 4052 55:49.7 55:44.8 17:57 F 25 Ypsilanti MI
4229 Ramsay,Ian 7018 55:54.3 49:23.7 15:54 M 12 Livonia MI
4230 Mccready,Ron 6413 55:54.4 50:34.4 16:17 M 62 Ann Arbor MI
4231 Brower,Luke 9225 55:54.7 50:27.3 16:14 M 16
4232 Lemmen,Samantha 6179 55:54.9 50:28.2 16:15 F 16 Holland MI
4233 Zerka,Jamie 9269 55:55.9 53:09.2 17:06 F 31
4234 Schumer,Alison 9339 55:57.1 53:03.2 17:05 F 41
4235 Hoffman,Jill 8950 55:57.5 53:03.1 17:05 F 41 Davison MI
4236 Allen,Connie 4051 55:59.1 55:54.3 18:00 F 61 Ypsilanti MI
4237 West,Michelle 8026 56:02.2 51:10.2 16:28 F 33 Grand Blanc MI
4238 Wright,Michael 8165 56:02.5 49:28.4 15:55 M 35 Huntington Woods United States
4239 Wright,Lisa 8164 56:02.6 49:28.4 15:55 F 35 Huntington Woods MI
4240 Bassett,Liz 4191 56:04.4 50:34.7 16:17 F 37 Ann Arbor United States
4241 Dibartolo,Nick 4926 56:04.9 49:18.0 15:52 M 33 Saline MI
4242 Dibartolo,Lea 4925 56:05.2 49:17.6 15:52 F 35 Ashland OH
4243 Erdudy?,David 9295 56:05.3 54:50.3 17:39 M 45
4244 Ramsay,Lisa 7020 56:09.5 49:39.6 15:59 F 43 Livonia MI
4245 Brooks,Joseph 9409 56:15.4 49:31.3 15:56 M 29 Ann Arbor MI
4246 Stallard,Karol 1466 56:17.1 52:07.1 16:46 F 52 South Lyon MI
4247 Stallard,Kyle 1467 56:17.4 52:06.2 16:46 M 30 South Lyon MI
4248 Graebner,Brittney 8439 56:18.6 50:11.5 16:09 F 23 Saginaw MI
4249 Hocter,Karen 5669 56:19.6 49:45.7 16:01 F 48 Clarklake MI
4250 Mudge,Trevor 2136 56:27.0 53:54.6 17:21 M 62
4251 Hill,Wendy 5644 56:27.2 49:53.3 16:03 F 56 Windsor Canada
4252 Vanvalkenburg,Janet 2238 56:27.2 53:54.8 17:21 F 67
4253 Root,Ian 7170 56:28.8 51:20.8 16:32 M 5 Ann Arbor MI
4254 Williams,Dustin 8092 56:29.7 50:55.4 16:23 M 31 Dexter United States
4255 Chrzanowski,Teryn 4657 56:31.1 52:40.6 16:57 F 30 Northville MI
4256 Dale,Emily 4818 56:31.4 51:23.1 16:32 F 23 Ann Arbor MI
4257 Fox,Kathy 5236 56:31.6 52:41.5 16:58 F 54 Northville MI
4258 Lemmen,Mike 6178 56:33.1 51:07.7 16:27 M 45 Holland MI
4259 Camilleri,Diane 9110 56:33.3 52:42.2 16:58 F 54
4260 Lemmmen,Jackie 6180 56:33.5 51:05.1 16:27 F 48 Zeeland MI
4261 Haessler,Kathryn 5491 56:35.2 51:00.6 16:25 F 30 Ann Arbor MI
4262 Majer,Mara 6300 56:35.7 52:21.2 16:51 F 8 Saline MI
4263 Majer,Anissa 6299 56:35.9 52:21.5 16:51 F 37 Saline MI
4264 Morell,Toni 6583 56:39.0 51:25.9 16:33 F 38 Ann Arbor MI
4265 Mccaffrey,Carol 6399 56:39.6 50:07.7 16:08 F 68 Ann Arbor MI
4266 Girdwood,John 9270 56:40.1 53:53.5 17:21 M 31
4267 Barnes,Darla 4178 56:40.1 51:29.0 16:34 F 42 Dexter MI
4268 Stilber,Katie 7601 56:43.1 52:55.2 17:02 F 13 Pinckney United States
4269 Stilber,Ted 7602 56:43.3 52:55.3 17:02 M 41 Dexter United States
4270 Constantine,Hannah 9370 56:48.4 45:00.0 14:29 F 24 Redford MI
4271 Arft,Ashley 4089 56:50.0 51:17.6 16:31 F 26 Ann Arbor MI
4272 Jeruzal,Erin 5808 56:50.3 51:19.4 16:31 F 31 Chelsea MI
4273 Montgomery,Barb 8642 56:50.3 51:16.7 16:30 F 56 Chelsea MI
4274 Buageila,Aneesa 4479 57:01.6 50:34.7 16:17 F 28 Ann Arbor MI
4275 Stehney,Matthew 7581 57:03.8 18:22 M 26 Ann Arbor MI
4276 Kelly,Barbara 5913 57:04.3 50:47.4 16:21 F 57 Ann Arbor MI
4277 Murphy,Mary 6638 57:04.5 50:47.2 16:21 F 60 Ann Arbor MI
4278 Young,Patricia 8203 57:05.9 54:08.6 17:26 F 59 Tecumseh MI
4279 Freedman,Vicki 5248 57:13.3 18:25 F 45 Dresher PA
4280 Couper,Mick 4749 57:14.3 54:48.0 17:38 M 52 Ann Arbor MI
4281 Ofstedal,Mary Beth 6762 57:14.6 54:48.3 17:38 F 49 Ann Arbor MI
4282 Patriacca,Paul 6848 57:18.3 51:03.4 16:26 M 40 Carleton MI
4283 Patriacca,Yulia 6849 57:18.6 51:03.8 16:26 F 31 Carleton MI
4284 Wood,Michael 8144 57:23.1 51:56.8 16:43 M 31 Novi MI
4285 Contreras,Jessica 8343 57:24.2 51:58.1 16:44 F 28 Dearborn Hts MI
4286 Jenkins,Simone 8493 57:31.4 51:20.9 16:32 F 41 Ann Arbor MI
4287 Zamberlan,Mary 8882 57:31.7 51:20.8 16:32 F 47 Ann Arbor MI
4288 Lewis,Karen 6203 57:33.7 54:11.1 17:26 F 52 Brighton MI
4289 Barkume,Aileen 4174 57:34.3 52:14.5 16:49 F 59 Royal Oak MI
4290 Greve,Sally 5441 57:34.7 51:26.7 16:33 F 65 Ann Arbor United States
4291 Helquist,Julie 5599 57:35.1 51:27.4 16:34 F 37 Grass Lake United States
4292 Barkume,Tim 4176 57:35.4 52:15.6 16:49 M 57 Farmington Hills MI
4293 Cappelli,Stacey 8913 57:35.9 51:15.8 16:30 F 31 Dexter United States
4294 Orlando,Patrizia 8993 57:36.3 51:14.9 16:30 F 31 Ann Arbor United States
4295 Radin,Marianne 8716 57:36.6 51:46.1 16:40 F 45 Waterford MI
4296 Radin,Stephan 8717 57:36.6 51:45.4 16:39 M 48 Waterford MI
4297 Turner,Billy 7807 57:39.8 57:12.6 18:25 M 36 Monroe MI
4298 Filimon,Christi 5183 57:40.2 57:12.7 18:25 F 35 Monroe MI
4299 Vaughn,Kevin 7880 57:41.1 53:58.1 17:22 M 49 Livonia MI
4300 Lagory,Ellen 6104 57:41.5 54:01.4 17:23 F 57 Livonia MI
4301 Zale,Karen 8221 57:42.1 54:00.4 17:23 F 43 Livonia MI
4302 Lagory,Michael 6105 57:42.4 53:59.0 17:22 M 55 Livonia MI
4303 Brigham,Sarah 4436 57:44.8 53:10.2 17:07 F 24 Chelsea MI
4304 Brigham,Kathleen 4435 57:45.3 53:10.5 17:07 F 56 Chelsea MI
4305 Folk,Mary Ann 9444 57:48.5 54:49.3 17:39 F 64
4306 Pelton,George 6873 57:55.3 54:54.0 17:40 M 64 Fenton MI
4307 Studley,Jo 7646 57:57.5 56:11.1 18:05 F 37 East Tawas MI
4308 Studley,Andrea 7645 57:57.5 56:11.8 18:05 F 31 New Baltimore MI
4309 Khalaf,Tahseen 5937 57:58.4 55:00.1 17:42 M 61 Westland Use
4310 Tuttle,Cherry 9190 57:58.7 54:19.3 17:29 F 56
4311 Studley,Sharon 7648 57:58.9 56:13.4 18:06 F 64 Tawas MI
4312 Lavi,Amy 6126 58:01.9 55:44.4 17:56 F 49 Ann Arbor MI
4313 Lavi,Nina 6128 58:03.7 55:46.3 17:57 F 19 Ann Arbor MI
4314 Sidebottom,Cassie 7415 58:05.1 52:56.9 17:03 F 8 Toronto Canada
4315 Erdman,Breckan 5093 58:08.4 51:33.1 16:36 F 15 Lansing MI
4316 Erdman,Zachary 5095 58:09.6 51:34.0 16:36 M 10 Lansing MI
4317 Werner,Ron 8860 58:12.2 53:00.6 17:04 M 39 Wixom MI
4318 Sidebottom,Patricia 7417 58:12.4 53:03.3 17:05 F 42 Toronto Canada
4319 Bailey,Kathriene 4135 58:12.7 53:02.4 17:04 F 47 Oxford MI
4320 Sidebottom,Peter-john 7418 58:16.4 53:07.7 17:06 M 54 Toronto Canada
4321 Beernink,Carol 4232 58:20.3 54:21.9 17:30 F 65 Grand Rapids MI
4322 Kumbier,Tim 6084 58:22.0 53:58.9 17:22 M 51 Ann Arbor MI
4323 Wiseman,Troy 8126 58:22.0 53:07.4 17:06 M 40 Monroe United States
4324 Beernink,John 4233 58:29.3 54:30.2 17:33 M 70 Grand Rapids MI
4325 Wolf,Robert 9179 58:31.5 53:10.0 17:07 M 36
4326 Ananda,Layla 4066 58:34.7 54:20.6 17:29 F 60 Ann Arbor MI
4327 Kumbier,Mary 6083 58:35.0 54:12.5 17:27 F 51 Ann Arbor MI
4328 Hipkiss,Stephen 5653 58:35.1 52:59.3 17:03 M 42 Ann Arbor MI
4329 Jaworski,Marisa 5799 58:35.3 54:12.0 17:27 F 24 Monore MI
4330 Robertson,Jim 8734 58:36.6 18:52 M 63 Plymouth MI
4331 Robertson,Pat 7137 58:36.7 18:52 F 63 Plymouth MI
4332 Chapp,Sharon 4631 58:37.4 53:16.6 17:09 F 28 Wolverine Lake MI
4333 Houghton,Ginger 5706 58:37.5 53:17.7 17:09 F 28 Livonia Wayne
4334 Patterson,Howard 6851 58:37.7 52:00.2 16:44 M 50 Horton MI
4335 Patterson,Nola 6855 58:38.0 52:00.4 16:44 F 47 Horton MI
4336 Farrell,Damian 5142 58:39.3 51:41.5 16:38 M 49 Ann Arbor MI
4337 Curtis,Jon 4802 58:39.8 52:16.7 16:50 M 22 Ypsilanti MI
4338 Facey,Bill 5126 58:43.4 52:22.9 16:52 M 62 Lasalle MI
4339 Brichta,Rachel 4431 58:45.7 52:25.5 16:52 F 33 Ann Arbor MI
4340 Facey,Brenda 5127 58:46.4 52:25.7 16:52 F 61 Lasalle MI
4341 Weid,James 7989 58:46.9 53:14.1 17:08 M 60 Jackson MI
4342 Weid,Rebecca 7990 58:47.3 53:15.2 17:08 F 60 Jackson MI
4343 Koviak,Karen 6032 58:50.5 52:57.2 17:03 F 51 Clarkston MI
4344 Palmer,Karen 6816 58:51.2 57:10.4 18:24 F 52 Chelsea United States
4345 Luther,Karen 6262 58:51.6 52:58.5 17:03 F 52 Novi MI
4346 Woods,Bonnie 8154 58:52.0 57:12.1 18:25 F 60 Saline MI
4347 Van Sumeren,Kate 7852 58:52.3 52:58.2 17:03 F 52 Richmond VA
4348 Albin,Pam 9106 58:52.5 53:00.1 17:04 F 51
4349 Willoughby,Sara 8108 58:55.0 53:02.7 17:04 F 31 Allen Park United States
4350 Burns,Nancy 4521 58:57.0 54:12.5 17:27 F 59 Grosse Pointe Woods MI
4351 Burns,Scott 4523 58:58.0 54:14.8 17:28 M 59 Grosse Pointe Woods MI
4352 House,Scott 5709 59:00.3 52:45.5 16:59 M 39 Bath MI
4353 House,Judy 5708 59:00.4 52:45.5 16:59 F 37 Bath MI
4354 Ramsay,Chloe 7017 59:03.5 52:32.6 16:55 F 10 Livonia MI
4355 Ramsay,Jack 7019 59:04.1 52:32.8 16:55 M 8 Livonia MI
4356 Adams,Cindy 4016 59:06.0 52:39.1 16:57 F 35 South Lyon MI
4357 Prince,Caira 6971 59:06.7 54:55.9 17:41 F 30 Ann Arbor MI
4358 Ramsay,Alan 7016 59:06.8 52:35.5 16:56 M 41 Livonia MI
4359 Mbala-nkanga,Olivia Mateso 6392 59:07.9 52:05.9 16:46 F 22 Ypsilanti United States
4360 Willoughby,Ryan 8107 59:09.6 53:17.4 17:09 M 32 Allen Park United States
4361 Mukavitz,Rachel 6615 59:11.1 57:24.0 18:28 F 15 Eastpointe MI
4362 Richiert,Diane 7094 59:12.3 52:59.6 17:03 F 51 ST. Louis MI
4363 Berry,Kelli 4288 59:13.7 55:03.3 17:43 F 30 Ann Arbor MI
4364 Neuman,Jodi 6692 59:13.7 53:23.8 17:11 F 29 Brooklyn MI
4365 Honnov,Jack 9348 59:14.4 55:11.6 17:46 M 0
4366 Neuman,Scott 6693 59:14.4 53:24.3 17:11 M 32 Brooklyn MI
4367 Wood,Tabi 8146 59:15.9 52:53.7 17:01 F 21 Ypsilanti MI
4368 Knight,Toni 5991 59:16.1 52:53.8 17:02 F 47 Saline MI
4369 Mukavitz,Maria 6614 59:16.2 57:29.4 18:30 F 47 Eastpointe MI
4370 Aiken,Naomi 4028 59:16.3 57:30.3 18:31 F 44 Eastpointe MI
4371 Kisell,Stephanie 5974 59:16.5 57:30.7 18:31 F 39 Eastpointe MI
4372 Koran,Kathleen 9347 59:16.6 55:14.3 17:47 F 0
4373 Erbeznik,Jasen 5092 59:20.7 53:09.0 17:06 M 13 Ypsilanti MI
4374 Murray,Dave 6640 59:23.6 54:12.6 17:27 M 33 Ann Arbor United States
4375 Checkoway,Marjorie 8327 59:23.8 54:08.9 17:26 F 63 Ann Arbor MI
4376 Doll,Sarah 8377 59:24.6 54:09.5 17:26 F 29 Ann Arbor MI
4377 Murray,Scot 6643 59:25.7 54:14.6 17:28 M 41 Round Rock TX
4378 Sharp,Richard 7377 59:27.1 57:45.7 18:35 M 65 Jackson United States
4379 Davis,Christy 4845 59:27.2 57:45.3 18:35 F 35 Jackson United States
4380 Peoples,Alice 6880 59:27.5 53:38.7 17:16 F 53 Ypsilanti MI
4381 Russell,Ashleigh 7222 59:27.5 53:38.3 17:16 F 25 Mclean VA
4382 Fair,Allaina 5131 59:27.6 53:38.7 17:16 F 30 Taylor MI
4383 Nofs,Julie 6726 59:28.9 53:13.0 17:08 F 33 Battle Creek MI
4384 Poucher,Heather 6958 59:29.1 53:19.0 17:10 F 39 Ypsilanti MI
4385 Debono,Maggie 2139 59:29.9 56:10.7 18:05 M 55
4386 Osier,Shirley 6799 59:29.9 56:10.4 18:05 F 56 Clarkston MI
4387 Nofs,Michael 6727 59:30.4 53:15.1 17:08 M 33 Battle Creek MI
4388 Ressler,Susan 7073 59:36.2 19:11 F 62 Ann Arbor MI
4389 Stapnowski,Todd 7566 59:37.0 56:42.6 18:15 M 45 Saline MI
4390 Hoener,Kyle 5673 59:37.6 56:43.2 18:15 F 25 Canton MI
4391 Hoener,Michael 5674 59:37.7 56:43.0 18:15 M 24 Canton MI
4392 Zonts,Steve 8249 59:41.5 53:39.7 17:16 M 57 Jackson MI
4393 Osburn,Alice 6797 59:43.7 54:23.6 17:30 F 62 Grosse Pointe Park MI
4394 Osburn,Philip 6798 59:43.9 54:23.8 17:30 M 62 Grosse Pointe Park MI
4395 Bolgos,Doreen 4353 59:47.4 53:57.5 17:22 F 57 Ann Arbor MI
4396 Eisenhardt,John 5054 59:48.1 53:58.0 17:22 M 58 Dexter MI
4397 Fabiilli,Franca 8397 59:48.2 54:27.5 17:32 F 57 Eastpointe MI
4398 Santeufemia,Margaret 9010 59:49.4 54:27.8 17:32 F 52 Washington U.S.
4399 Booker,Nicole 4361 59:54.6 55:31.7 17:52 F 27 Saline MI
4400 Olson,Jessica 6776 59:55.1 53:54.5 17:21 F 27 Jackson MI
4401 Cudworth,Meghan 9158 59:55.1 53:52.5 17:20 F 27
4402 Chaudhary,Cecilia 4636 59:58.2 53:28.8 17:13 F 32 Ann Arbor Washtenaw
4403 Stankov,Marc 7561 59:58.3 53:18.6 17:09 M 59 Fowlerville United States
4404 Stankov,Mary Anne 7562 59:58.7 53:17.7 17:09 F 57 Fowlerville United States
4405 Peabody,David 8686 1:00:02.8 54:24.3 17:31 M 29 Ann Arbor MI
4406 Janssen,Andrea 5789 1:00:03.0 19:20 F 42 Ann Arbor MI
4407 Janssen,Gregory 5790 1:00:03.9 19:20 M 44 Ann Arbor MI
4408 Olson,Robyn 6780 1:00:11.1 53:06.1 17:05 F 36 Livonia MI
4409 Feeman,Debbie 5151 1:00:18.1 55:03.7 17:43 F 58 Ypsilanti MI
4410 Elliott,Dorothy 5073 1:00:24.2 56:08.0 18:04 F 62 Ann Arbor MI
4411 Smith,Pj 7501 1:00:26.6 54:26.1 17:31 F 56 Pinckney MI
4412 Cassman,Judy 4602 1:00:26.6 57:01.7 18:21 F 47 Ottawa Lake United States
4413 Nelson,Katherine 9292 1:00:28.3 54:13.9 17:27 F 39
4414 Nelson,Nicholas 9293 1:00:28.4 54:13.2 17:27 M 11
4415 Mccormick,Colleen 6407 1:00:29.4 57:44.0 18:35 F 53 West Bloomfield United States
4416 Steuwe,Kathy 8801 1:00:32.9 55:09.6 17:45 F 46 Tecumseh MI
4417 Newman,Lisa 8659 1:00:34.3 55:10.5 17:46 F 49 Adrian MI
4418 Wilcox,Tracey 8072 1:00:35.1 47:50.0 15:24 F 35 Waterford MI
4419 Wilcox,William 8073 1:00:36.0 47:50.4 15:24 M 59 Waterford MI
4420 Adams,Susan 4023 1:00:38.5 55:08.1 17:45 F 42 Lincoln Park MI
4421 Smith,Wendy 7509 1:00:38.9 55:05.8 17:44 F 51 Mialn MI
4422 Merritt,Norma 6487 1:00:39.2 55:07.1 17:44 F 48 Ann Arbor U.S.A.
4423 Nightingale,Janet 6715 1:00:41.6 58:39.9 18:53 F 67 Grass Lake MI
4424 Garrett,Suzanne 5306 1:00:41.9 58:40.2 18:53 F 48 Ypsilanti MI
4425 Brown,Tami 4465 1:00:43.1 57:46.8 18:36 F 39 Westland MI
4426 Hartley,Annette 5553 1:00:43.2 57:47.2 18:36 F 40 Westland MI
4427 Cook,Colleen 4719 1:00:44.3 55:34.0 17:53 F 33 Ypsilanti MI
4428 Snyder,Rebecca 7523 1:00:44.4 55:34.6 17:53 F 33 Ann Arbor MI
4429 Karvonen,Donna 5883 1:00:45.4 55:44.9 17:57 F 60 Ann Arbor MI
4430 Hanson,Mary 5528 1:00:47.3 54:02.6 17:24 F 47 Pinckney U.S.A.
4431 Smith,Judy 7492 1:00:47.4 54:02.3 17:24 F 62 Ypsilanti MI
4432 Laswell,Eve 8553 1:00:55.4 59:27.4 19:08 F 20 Ann Arbor MI
4433 Cunningham,Rebecca 8353 1:00:55.6 59:27.3 19:08 F 26 Ann Arbor MI
4434 Border,Jessica 4368 1:00:57.3 57:34.0 18:32 F 26 Westland MI
4435 Webb,Crystal 7975 1:01:01.4 57:37.1 18:33 F 28 Canton MI
4436 Flynn,Dan 5217 1:01:02.4 54:14.8 17:28 M 54 Riverview MI
4437 Leduc,Mary 6151 1:01:03.6 58:29.7 18:50 F 51 Ann Arbor MI
4438 Velazquez,Mae 8836 1:01:03.8 58:30.9 18:50 F 64 Ypsilanti Washtenaw
4439 Reiser,Amy 8730 1:01:10.0 55:35.0 17:53 F 38 Ypsilanti MI
4440 Field,Karen 8400 1:01:10.3 55:34.7 17:53 F 48 Ann Arbor MI
4441 Galea,Sarah 8417 1:01:12.9 58:17.2 18:46 F 29 Ann Arbor MI
4442 Delao,Judy 4883 1:01:14.8 55:32.5 17:53 F 21 Ann Arbor MI
4443 Briscoe,James 4438 1:01:16.4 54:44.4 17:37 M 49 Plymouth MI
4444 Moore,Jennifer 6576 1:01:17.2 58:57.9 18:59 F 48 Ann Arbor MI
4445 Kinsler,Candace 5961 1:01:17.4 58:58.3 18:59 F 53 Ann Arbor MI
4446 Graves,Jean 5423 1:01:19.0 54:33.2 17:34 F 45 Pinckney MI
4447 Rau,Kelly 8722 1:01:19.3 54:33.1 17:33 F 44 Pinckney MI
4448 Alton,Karen 4058 1:01:22.1 54:48.4 17:38 F 45 Ypsilanti MI
4449 Alton,Denise 4057 1:01:22.2 54:49.3 17:39 F 44 Ypsilanti MI
4450 Fraker,Elizabeth 5240 1:01:25.5 54:34.4 17:34 F 36 Tecumseh MI
4451 Fraker,Michael 5241 1:01:26.2 54:34.9 17:34 M 37 Tecumseh MI
4452 Bruck,Lisa 4471 1:01:36.2 57:46.6 18:36 F 26 Ann Arbor United States
4453 Garrett,Andrea 5303 1:01:37.5 59:34.7 19:11 F 45 Stockbridge MI
4454 Laginess,Elizabeth 8968 1:01:38.7 55:52.1 17:59 F 43 Rochester Hills MI
4455 Quinlan,Heather 6997 1:01:39.2 55:52.5 17:59 F 29 Sterling Heights MI
4456 Lynch,Debbie 9094 1:01:40.1 55:53.5 17:59 F 33
4457 Kiriazis,Samantha 5967 1:01:41.2 59:22.9 19:07 F 16 Grosse Pointe Woods MI
4458 Kiriazis,Michael 5966 1:01:42.1 59:23.1 19:07 M 19 Ann Arbor United States
4459 Kiriazis,Ted 5968 1:01:42.1 59:22.3 19:07 M 49 Grosse Pointe Woods MI
4460 Koepfle,Lorraine 5999 1:01:42.8 57:04.3 18:22 F 57 Ann Arbor MI
4461 Koepfle,Taylor 6000 1:01:43.3 57:04.6 18:22 F 16 Ann Arbor MI
4462 Annelin,Catherine M 4083 1:01:44.5 57:23.7 18:28 F 60 Traverse City MI
4463 Annelin,Thomas 4084 1:01:47.4 57:25.2 18:29 M 61 Traverse City MI
4464 Mathers,Laurel 6356 1:01:50.4 19:54 F 43 South Lyon MI
4465 Mathers,Natalie 6357 1:01:50.5 19:54 F 10 South Lyon MI
4466 Mathers,Billy 6355 1:01:50.5 55:30.6 17:52 M 14 South Lyon MI
4467 Mieczkowski,Richard 6505 1:01:54.6 55:16.0 17:47 M 62 Temperance MI
4468 Mieczkowski,Alison 6503 1:01:55.9 55:17.5 17:48 F 31 Ann Arbor MI
4469 Mieczkowski,Janet 6504 1:01:56.3 55:17.5 17:48 F 63 Temperance MI
4470 Ramesh,Sumati 7012 1:01:58.0 59:51.6 19:16 F 60 Canton MI
4471 Helewa Stevick,Grace 617 1:01:59.6 59:45.8 19:14 F 54 Ann Arbor MI
4472 Stevick,Tom 1479 1:01:59.6 59:45.4 19:14 M 53 Ann Arbor MI
4473 Kreiner,Eileen 6055 1:02:00.8 57:38.9 18:33 F 54 Ann Arbor MI
4474 Kiriazis,Jill 5965 1:02:05.3 59:45.9 19:14 F 48 Grosse Pointe Woods MI
4475 Farrell,Katherine 5143 1:02:06.3 55:07.7 17:45 F 53 Ann Arbor MI
4476 Curtis,Marianne 4803 1:02:06.5 55:44.7 17:57 F 22 Ypsilanti MI
4477 Sauers,Judith 7288 1:02:09.4 1:00:06.7 19:21 F 69 Stockbridge MI
4478 Beymer,Jason 4299 1:02:23.2 55:21.6 17:49 M 33 Ypsilanti MI
4479 Beymer,Lisa 4300 1:02:23.5 55:21.8 17:49 F 31 Ypsilanti MI
4480 Cameron,Lindsay 4556 1:02:25.0 59:08.5 19:02 F 25 Howell MI
4481 Belbeck,Lisa 4242 1:02:25.0 59:12.1 19:03 F 44 Milan MI
4482 Mckeon Stosuy,Mary 6444 1:02:27.0 55:44.9 17:57 F 57 Medford NJ
4483 Stosuy,Gregory 7622 1:02:27.6 55:47.1 17:57 M 65 Medford NJ
4484 Gillesppe,Jennifer 9350 1:02:29.4 59:19.5 19:06 F 22
4485 Aldridge,Melanie 4044 1:02:29.4 59:12.2 19:03 F 37 Whitmore Lake MI
4486 Bylsma,Kenneth 4549 1:02:31.7 57:56.9 18:39 M 61 Pinckney MI
4487 Bylsma,Cindy 4548 1:02:32.4 57:57.8 18:39 F 53 Pinckney MI
4488 Stanley,Nancy 9099 1:02:34.6 56:26.8 18:10 F 70
4489 Edwards,Sally 9468 1:02:35.0 56:27.3 18:10 F 68 Ann Arbor MI
4490 Judson,Karen 8513 1:02:35.3 56:23.8 18:09 F 58 Ann Arbor MI
4491 Judge,Vanessa 5858 1:02:36.4 58:01.5 18:41 F 51 Riverview United States
4492 Judge-gonzalez,Ellen 5859 1:02:36.7 58:01.9 18:41 F 45 Livonia MI
4493 Koepfle,Jim 5998 1:02:42.5 58:04.0 18:41 M 52 Ann Arbor MI
4494 King,Timothy 5957 1:02:45.0 58:20.9 18:47 M 12 Martin United States Of Ame
4495 Davis,Hannah 4847 1:02:45.2 1:00:09.3 19:22 F 11 Ann Arbor MI
4496 Milam,Lindsey 6510 1:02:47.7 58:24.6 18:48 F 33 Ida MI
4497 Davis,Steven 4858 1:02:48.5 1:00:12.0 19:23 M 49 Ann Arbor MI
4498 Nulam,Tom 9366 1:02:48.9 58:25.1 18:48 M 42
4499 Boglarsky,Cheryl 4349 1:02:49.0 57:44.2 18:35 F 48 Brighton MI
4500 King,Abigail 5950 1:02:49.9 58:26.4 18:49 F 35 Martin United States Of Ame
4501 Davis,Nancy 4853 1:02:50.0 1:00:14.5 19:23 F 48 Ann Arbor MI
4502 Jeruzal,Tim 5809 1:02:55.4 57:50.8 18:37 M 48 Brighton MI
4503 Hawn,Matthew 5570 1:03:07.6 56:25.2 18:10 M 6 Portage United States
4504 Zabriskie,Michelle 8214 1:03:08.2 56:25.8 18:10 F 35 Ypsilanti MI
4505 Pohlman,Riley 8704 1:03:16.0 56:21.8 18:08 F 9 Ann Arbor United States
4506 Pohlman,Cindy 8702 1:03:16.1 56:21.5 18:08 F 57 Ann Arbor United States
4507 Stears,Mark 7575 1:03:22.1 57:10.6 18:24 M 49 Ypsilanti MI
4508 Zabriskie,Alex 8212 1:03:26.2 56:42.4 18:15 M 3 Ypsilanti MI
4509 Zabriskie,Michael 8213 1:03:26.7 56:42.4 18:15 M 41 Ypsilanti MI
4510 Thomas,Andrea 7738 1:03:28.8 52:16.7 16:50 F 42 Ann Arbor MI
4511 Maxwell,Betsy 6380 1:03:30.1 57:20.9 18:27 F 66 Ypsilanti MI
4512 Maxwell,Robert 6381 1:03:30.1 57:19.5 18:27 M 66 Ypsilanti MI
4513 Mccormick,Joan 6408 1:03:34.7 1:00:46.0 19:34 F 53 White Bear Lake United States
4514 Kellmann,Mary 5911 1:03:37.2 57:10.0 18:24 F 61 Dearborn MI
4515 Walker,Jennifer 7938 1:03:37.2 57:10.7 18:24 F 37 Canton United States
4516 Fuhrman,Janet 5274 1:03:37.3 1:00:48.7 19:34 F 57 Troy MI
4517 Bradley,Christine 8296 1:03:37.3 57:10.7 18:24 F 37 Canton MI
4518 Bradley,Carol 4402 1:03:37.5 57:10.1 18:24 F 67 Dearborn MI
4519 Wagner,Douglas 7924 1:03:38.3 57:56.3 18:39 M 67 Brighton Livingston
4520 King,Amy 5951 1:03:38.5 57:56.0 18:39 F 34 West Bloomfield MI
4521 Pasquarella,Judith 6840 1:03:39.1 57:19.5 18:27 F 63 Ann Arbor MI
4522 Pasquarella,Ronan 6841 1:03:39.6 57:19.5 18:27 M 6 Ann Arbor MI
4523 Kennedy,Carrie 9232 1:03:43.0 58:25.6 18:48 F 22
4524 Martin,Adam 6335 1:03:43.3 58:25.9 18:48 M 24 Ann Arbor MI
4525 O'brien,John 6746 1:03:45.9 59:55.1 19:17 M 54 Bloomfield Hills MI
4526 Rotzien,Geoleen 7189 1:03:48.9 58:39.7 18:53 F 73 Niles MI
4527 Rotzien,Lee 7191 1:03:49.3 58:39.9 18:53 M 74 Niles MI
4528 Evans,Mara 5118 1:03:55.4 56:52.7 18:18 F 45 Chelsea MI
4529 Evans,Andrea 5111 1:03:56.1 56:52.8 18:18 F 22 Ann Arbor MI
4530 Sumerton,William 7669 1:03:56.4 56:31.9 18:12 M 71 Novi MI
4531 Sumerton,Linda 7668 1:03:57.8 56:34.3 18:12 F 66 Novi MI
4532 Butcher,Michael 4542 1:03:58.0 57:03.0 18:22 M 9 Owosso MI
4533 Romero,Sarah 9456 1:03:58.3 58:14.1 18:45 F 32 Canton United States
4534 Butcher,Kandi 4541 1:04:00.3 57:05.8 18:23 F 60 Owosso U.S.A.
4535 Cervi,Jennifer 8321 1:04:03.8 1:02:34.5 20:08 F 37 Ann Arbor MI
4536 Gutowski,Sarah 5479 1:04:04.2 20:37 F 29 Northville United States
4537 Reck,Allison 7041 1:04:04.7 58:09.3 18:43 F 23 Whitmore Lake MI
4538 Farquhar,Kathryn 9467 1:04:04.9 1:02:35.7 20:09 F 20 Ann Arbor MI
4539 Stevens,Anna 7586 1:04:05.5 58:09.8 18:43 F 52 Pinckney MI
4540 Hall,Peter 577 1:04:06.1 58:05.1 18:42 M 64 Pinckney MI
4541 Yatzek,Tiffany 8180 1:04:10.5 59:24.0 19:07 F 30 Adrian MI
4542 Yatzek,Derrick 8179 1:04:11.2 59:25.2 19:07 M 32 Adrian MI
4543 Romero,Eric 7165 1:04:12.5 58:25.8 18:48 M 31 Canton MI
4544 King,David 5953 1:04:12.9 58:23.8 18:48 M 30 West Bloomfield MI
4545 Wagner,Cheryl 7923 1:04:13.3 58:24.0 18:48 F 64 Brighton Livingston
4546 Hardimon,Shaun 5531 1:04:23.9 1:02:59.7 20:17 M 42 Swartz Creek MI
4547 Hardimon,Michele 5530 1:04:25.7 1:03:01.5 20:17 F 40 Swartz Creek MI
4548 Brogdon,Kristen 4441 1:04:27.8 58:10.6 18:43 F 22 Tipton United States
4549 Brogdon,Elyse 8304 1:04:28.8 58:10.8 18:44 F 19 Tipton MI
4550 Valley,Marnee 7842 1:04:35.6 55:44.7 17:57 F 34 Holly MI
4551 Koon,Pam 6013 1:04:35.7 55:44.5 17:56 F 63 Atlas MI
4552 Hall,Amber 5499 1:04:36.5 57:42.8 18:35 F 40 Swartz Creek MI
4553 Butcher,Brett 4538 1:04:36.7 57:42.8 18:35 M 36 Owosso MI
4554 Champion,Lynley 9358 1:04:37.7 1:01:15.0 19:43 F 41
4555 Keyser,Holly 8530 1:04:37.8 1:01:14.9 19:43 F 45 Sturgis MI
4556 Ableson,Janice 4006 1:04:39.1 58:45.1 18:55 F 63 Oak Park MI
4557 Ableson,Katie 4007 1:04:39.6 58:45.3 18:55 F 29 Northville MI
4558 Chitty,Dawn 4644 1:04:43.1 58:17.5 18:46 F 37 Kalamazoo MI
4559 Whaley,James 8031 1:04:43.7 58:18.8 18:46 M 51 Grayslake IL
4560 Deloria,Wayne 4889 1:04:44.8 20:50 M 56 Whitmore Lake MI
4561 Sytsma,Maureen 7700 1:04:45.7 1:01:50.9 19:54 F 48 Canton MI
4562 Sanders,Kathy 7272 1:04:46.2 20:51 F 58 Shelby Township MI
4563 Sanders,Lee 7273 1:04:46.2 20:51 M 59 Shelby Township MI
4564 Wisniske,Kristi 8130 1:04:46.7 1:01:49.4 19:54 F 39 Westland MI
4565 Hurst,Amy 9061 1:04:48.7 58:52.2 18:57 F 58
4566 Neall,Jeffrey 8656 1:04:49.3 57:52.8 18:38 M 48 Flint United States
4567 Wrobleski,Shirley 8168 1:04:49.8 57:31.8 18:31 F 48 Ann Arbor MI
4568 Neall,Donna 8655 1:04:50.1 57:53.5 18:38 F 58 Flint United States
4569 Butcher,Jennifer 4540 1:04:52.1 57:56.1 18:39 F 34 Owosso MI
4570 Twichell,Karen 7818 1:04:54.1 58:06.2 18:42 F 55 Saline MI
4571 Twichell,Fred 7814 1:04:54.2 58:05.3 18:42 M 62 Saline MI
4572 Twichell,Jody 7817 1:04:55.1 58:07.1 18:42 F 33 Saline MI
4573 Hoffman,Jeffrey 5676 1:04:57.0 20:54 M 60 ST. Clair Shores MI
4574 Vanderwal,Bonnie 8833 1:05:02.1 58:22.0 18:47 F 36 Grand Rapids MI
4575 Twichell,Gloria 7815 1:05:06.6 58:18.5 18:46 F 57 Saline MI
4576 Twichell,Jerry 7816 1:05:06.6 58:17.6 18:46 M 57 Saline MI
4577 Gengler,Karen 8420 1:05:08.6 58:28.2 18:49 F 41 Wyoming MI
4578 Bulmer,Joan 4493 1:05:13.3 58:25.2 18:48 F 63 Ann Arbor MI
4579 Desentz,Sharla 4908 1:05:15.9 56:49.5 18:17 F 36 Medina OH
4580 Buczek,Cyndi 8908 1:05:16.2 56:25.8 18:10 F 45 Brighton United States
4581 Counahan,Jim 4748 1:05:22.1 59:53.6 19:17 M 48 Ludington MI
4582 Rayno,Sara 7038 1:05:31.1 59:47.1 19:15 F 34 Redford MI
4583 Raymo,Elaine 7037 1:05:31.2 59:47.6 19:15 F 58 Dearborn Heights MI
4584 Luke,Cathy 6252 1:05:34.7 58:20.6 18:47 F 41 Howell MI
4585 Elfline,Megan 8390 1:05:35.0 58:20.6 18:47 F 31 Howell MI
4586 Elfline,Eric 8389 1:05:35.1 58:18.0 18:46 M 32 Howell MI
4587 Navarre,Joanne 6674 1:05:39.9 59:40.7 19:12 F 52 Dexter MI
4588 Gilliland,Beth 5356 1:05:40.1 59:34.3 19:10 F 35 Ann Arbor MI
4589 Graf,Jenny 5416 1:05:40.6 59:34.3 19:10 F 30 South Lyon MI
4590 Normann,Stephanie 6732 1:05:40.7 59:35.6 19:11 F 30 Whitmore Lake MI
4591 Vecziedins,Kerrie 7882 1:05:45.3 1:00:15.8 19:24 F 41 Caledonia MI
4592 Robertson,Keegan 7135 1:05:54.5 1:00:17.1 19:24 M 4 Ypsilanti MI
4593 Robertson,Jen 7133 1:05:54.6 1:00:17.0 19:24 F 36 Ypsilanti MI
4594 Robertson,Dan 7131 1:05:55.4 1:00:17.8 19:24 M 36 Ypsilanti MI
4595 Jahnke,James 8954 1:06:09.6 21:18 M 30 Royal Oak MI
4596 Jahnke,Krista 5783 1:06:10.1 1:00:00.7 19:19 F 30 Royal Oak Mi
4597 Navvab,Minna 6675 1:06:17.7 59:12.4 19:03 F 23 Ann Arbor MI
4598 Stout,Charlie 7623 1:06:26.2 1:00:20.0 19:25 M 54 Ann Arbor MI
4599 Sefton,Robin 7360 1:06:26.3 1:00:19.3 19:25 F 40 Ann Arbor MI
4600 Lanczak,David 6111 1:06:26.9 1:00:43.4 19:33 M 43 Canton MI
4601 Lanczak,Parker 6112 1:06:26.9 1:00:43.4 19:33 M 9 Canton MI
4602 Lovejoy,Julia 6241 1:06:28.1 1:03:00.5 20:17 F 40 Ypsilanti MI
4603 Alcini,William 4039 1:06:29.1 1:03:01.6 20:17 M 50 Ann Arbor MI
4604 Jones,Melissa 5844 1:06:33.2 1:00:23.3 19:26 F 29 ST. Clair MI
4605 Bruner,Tammy 4475 1:06:33.4 1:00:23.3 19:26 F 32 Saint Clair Shores MI
4606 Jones,James 5842 1:06:33.6 1:00:22.6 19:26 M 29 ST. Clair MI
4607 Chowdhury,Eve 4652 1:07:00.0 57:23.0 18:28 F 38 Brownstown MI
4608 Zacharias,Lisa 8217 1:07:05.7 1:00:09.0 19:22 F 47 Sterling Heights United States
4609 Sutton,Lisa 7679 1:07:07.0 1:00:10.1 19:22 F 28 White Lake MI
4610 Hough,Robert 8478 1:07:08.4 1:04:59.9 20:55 M 26 Ann Arbor MI
4611 Halstead,Roxanne 8451 1:07:18.3 1:04:06.6 20:38 F 57 Ypsilanti MI
4612 Lathrop,Cheryl 8554 1:07:19.9 1:04:07.6 20:38 F 53 Saline MI
4613 Nicks,Joanne 6707 1:07:20.3 1:04:05.0 20:38 F 60 Tecumseh MI
4614 Knieper,Sharon 5987 1:07:20.7 1:02:36.2 20:09 F 36 Birch Run United States
4615 Knieper,Anita 5986 1:07:20.7 1:02:36.4 20:09 F 48 Frankenmuth United States
4616 Perry,Cassandra 6894 1:07:23.1 1:05:43.6 21:09 F 40 Oxford MI
4617 Perry,Jack 6896 1:07:23.1 1:06:08.0 21:17 M 10 Oxford MI
4618 Siroky,Isabella 7442 1:07:23.2 1:06:07.0 21:17 F 10 Clawson Oakland
4619 Perry,Elizabeth 6895 1:07:23.8 1:05:43.7 21:09 F 12 Oxford MI
4620 Sirois,Teresa 7441 1:07:24.2 1:05:45.0 21:10 F 37 Oxford MI
4621 Guillou,Karin 5464 1:07:26.5 1:01:43.4 19:52 F 42 Canton MI
4622 Baumann,Kristin 4200 1:07:30.3 1:00:23.4 19:26 F 37 Clinton MI
4623 Clark,Kyra 8338 1:07:32.8 1:05:20.5 21:02 F 19 Ypsilanti MI
4624 Mirelez,Christina 8635 1:07:34.8 1:05:23.0 21:03 F 27 Ann Arbor MI
4625 Brogdon,James 8305 1:07:35.5 1:01:17.4 19:44 M 63 Tipton MI
4626 Wiktorzak,Denise 8863 1:07:35.5 1:01:17.1 19:43 F 54 Tipton MI
4627 Red Cloud,Shawna 8723 1:07:44.4 59:16.0 19:05 F 38 Ann Arbor MI
4628 Danbert,Jill 4822 1:07:45.5 1:04:17.7 20:42 F 37 Ann Arbor United States
4629 Mcpherson,John 6455 1:07:52.7 1:01:19.3 19:44 M 29 Livonia MI
4630 Mcpherson,Jackie 6454 1:07:55.4 1:01:21.1 19:45 F 27 Livonia MI
4631 Desentz,Erica 4906 1:08:32.5 59:41.2 19:13 F 35 Livonia MI
4632 Desentz,Jason 4907 1:08:32.7 59:38.4 19:12 M 34 Medina OH
4633 Desentz,Danny 9258 1:08:33.6 22:04 M 0
4634 Bakshi,Nandini 4155 1:08:34.9 1:02:44.6 20:12 F 26 Ann Arbor MI
4635 Klute,Jan 5982 1:08:35.3 1:02:45.4 20:12 F 53 Ann Arbor MI
4636 Hall,Patricia 5509 1:08:42.8 22:07 F 51 Ann Arbor MI
4637 Green,Harold 5433 1:08:43.0 22:07 M 64 Ypsilanti MI
4638 Smith,Haldon 9230 1:08:43.0 1:03:25.1 20:25 M 86
4639 Smith,Tina 9229 1:08:43.8 1:03:25.9 20:25 F 81
4640 Cleary,Jessica 4677 1:08:45.5 1:03:08.6 20:19 F 27 Wixom MI
4641 Sorensen,Linda 7530 1:08:52.1 1:03:12.7 20:21 F 52 Canton MI
4642 Cowan,Jennifer 9450 1:08:54.6 22:11 F 33 Garden City MI
4643 Sorensen,Brian 7529 1:08:54.6 1:03:16.3 20:22 M 51 Canton MI
4644 Bridson,Eman 4432 1:09:00.1 1:03:23.9 20:24 F 27 South Lyon Oakland
4645 Schroeder,Amber 7328 1:09:00.1 1:03:22.3 20:24 F 28 Belleville MI
4646 Copp,Elizabeth 4730 1:09:02.6 22:13 F 36 Pinckney MI
4647 Pray,David 6961 1:09:07.9 1:02:01.9 19:58 M 63 Clinton MI
4648 Pray,Lauren 8707 1:09:07.9 1:02:00.5 19:57 F 34 Plymouth MI
4649 Valasek,Susan 7834 1:09:18.2 1:03:25.5 20:25 F 55 Owosso MI
4650 West,Judith 8024 1:09:18.3 1:03:24.9 20:25 F 59 Onsted MI
4651 Valasek,Mike 7833 1:09:21.8 1:03:28.6 20:26 M 55 Owosso MI
4652 Gavin,Kathryn 5315 1:09:23.0 1:02:18.5 20:03 F 39 Plymouth MI
4653 Scott,Kevin 9013 1:09:29.2 22:22 M 39 Novi MI
4654 Scott,Esm� 9012 1:09:34.3 22:24 F 2 Novi MI
4655 Schultenover,Leigh 9011 1:09:34.3 22:24 F 37 Novi MI
4656 Bandyk,Jennifer (jenny) 4165 1:09:34.5 56:41.9 18:15 F 39 Ypsilanti MI
4657 Verville,Rachel 7895 1:09:42.0 22:26 F 19 Ortonville MI
4658 Murphy,Myranda 6639 1:09:48.0 1:04:38.9 20:48 F 12 Ann Arbor MI
4659 Wiles,Kathleen 8076 1:09:51.1 1:04:41.6 20:49 F 53 Ann Arbor MI
4660 Barnaby,Jennifer 8276 1:09:51.2 1:02:51.8 20:14 F 41 Jackson MI
4661 Murphy,Anne 6634 1:09:51.6 1:04:41.6 20:49 F 52 Ann Arbor MI
4662 Van Gent,Wendy 7847 1:09:59.9 1:05:47.3 21:10 F 52 Ypsilanti M
4663 Barnaby,Martin 8277 1:10:04.4 1:03:04.6 20:18 M 38 Jackson MI
4664 Dworkin,Carol 8384 1:10:04.6 1:08:51.1 22:10 F 65 Ann Arbor MI
4665 Prince,Helena 6972 1:10:06.7 22:34 F 64 Ann Arbor MI
4666 Kominek,Randi 6008 1:10:13.9 1:03:14.6 20:21 F 63 Ida MI
4667 Walasinski,Marge 9402 1:10:15.8 1:03:15.5 20:22 F 62 Milan MI
4668 Spiegelberg,Shawn 7543 1:10:20.3 1:04:15.4 20:41 F 59 Fort Wayne IN
4669 Horkey,Sharon 5702 1:10:20.3 1:03:19.9 20:23 F 61 Dundee MI
4670 Roberts,Ken 7125 1:10:21.0 1:00:05.4 19:20 M 32 Britton MI
4671 Roberts,Lisa 7126 1:10:21.1 1:00:05.4 19:20 F 29 Britton MI
4672 Plumb,Linda 6936 1:10:21.4 1:03:22.1 20:24 F 62 Dundee MI
4673 Doughty,Erica 4973 1:10:22.6 1:04:19.9 20:42 F 30 Jackson MI
4674 Mandalari,Steve 6312 1:10:27.0 1:08:00.0 21:53 M 46 Lake Orion MI
4675 Brown,Mary 4463 1:10:27.2 22:41 F 31 Royal Oak MI
4676 Goddard,Mary-catherine 5373 1:10:28.8 22:41 F 18 Oakland MI
4677 Reyes,Monica 7077 1:10:29.0 1:03:19.6 20:23 F 36 Ypsilanti MI
4678 Mandalari,Marita 6311 1:10:29.8 1:08:42.2 22:07 F 46 Lake Orion MI
4679 Duncan,Katy 5016 1:10:31.8 1:03:20.9 20:23 F 32 Dexter MI
4680 Vasquez,Adrienne 7878 1:10:32.4 1:05:00.3 20:55 F 24 Walled Lake United States
4681 Duncan,Diane 5015 1:10:33.1 1:03:20.9 20:23 F 59 Westland MI
4682 Vasquez,Luis 7879 1:10:33.1 1:05:00.3 20:55 M 30 Walled Lake United States
4683 Esterline,Dane 5106 1:10:37.3 1:00:21.8 19:26 M 32 Tecumseh MI
4684 Esterline,Sarah 7285 1:10:37.3 1:00:21.8 19:26 F 30 Tecumseh MI
4685 Judson,Merita 5860 1:10:42.3 22:45 F 57 Ann Arbor MI
4686 Judson,Roger 5861 1:10:44.4 22:46 M 54 Ann Arbor MI
4687 Tomalia,Jason 7773 1:10:45.2 1:03:22.3 20:24 M 34 Ann Arbor MI
4688 Tomalia,Victoria 7774 1:10:45.7 1:03:22.6 20:24 F 34 Ann Arbor MI
4689 Macqueen,Donald 6286 1:10:58.5 1:08:27.9 22:02 M 65 Ann Arbor MI
4690 Macqueen,Jane 6287 1:10:59.1 1:08:29.1 22:03 F 65 Ann Arbor MI
4691 Wilson,David 8868 1:11:03.9 1:03:23.5 20:24 M 28 Ann Arbor MI
4692 Wilson,Patricia 8870 1:11:09.6 22:54 F 54 Milwaukie OR
4693 Jones,Ashley 8504 1:11:09.7 1:04:56.0 20:54 F 12 Clio MI
4694 Jones,Tyler 8510 1:11:15.7 1:05:01.7 20:56 M 17 Clio MI
4695 Jones,Joshua 8505 1:11:16.0 1:05:03.2 20:56 M 9 Clio MI
4696 Drayton,Amy 4995 1:11:36.9 23:03 F 31 Ypsilanti MI
4697 Albright,Jeremy 4038 1:11:36.9 23:03 M 31 Ypsilanti MI
4698 Overlander,Grace 8994 1:11:38.8 1:05:30.3 21:05 F 31 Ann Arbor United States
4699 Deruyver,Robyn 8367 1:11:39.0 1:05:25.5 21:03 F 33 Ann Arbor MI
4700 Eggertsen,Brian 5044 1:11:51.8 1:04:40.8 20:49 M 34 Ann Arbor MI
4701 Eggertsen,Jean 5045 1:11:51.8 1:04:41.7 20:49 F 34 Ann Arbor MI
4702 Possley,Michelle 6954 1:11:52.3 1:04:46.3 20:51 F 36 Canton MI
4703 Sparling,Susan 7541 1:12:35.9 1:05:20.3 21:02 F 60 Ann Arbor MI
4704 Sparling,Brooke 7540 1:12:39.0 1:05:25.7 21:04 F 31 Ann Arbor United States
4705 Yarges,Katherine 8176 1:12:42.7 1:05:25.1 21:03 F 60 Newport United States
4706 Frommel,Debbie 5268 1:12:59.8 1:05:43.1 21:09 F 58 Newport KY
4707 Calabro,Laura 4553 1:13:01.8 1:10:13.9 22:36 F 55 Dryden MI
4708 Calabro,Frank 9221 1:13:02.1 1:10:15.8 22:37 M 19
4709 Hoover,Sharon 5698 1:13:07.2 1:10:05.0 22:33 F 61 Dearborn MI
4710 Meyer,Richhard 6492 1:13:11.4 1:10:09.4 22:35 M 61 Novi MI
4711 Hall,James 5502 1:13:18.2 23:36 M 47 Saint Louis MI
4712 Hall,Ida 5501 1:13:31.0 1:07:19.7 21:40 F 44 Saint Louis MI
4713 Hall,Steven 5510 1:13:32.4 1:07:21.0 21:41 M 11 Saint Louis MI
4714 Doyle,Sandi 9367 1:13:37.4 1:06:46.2 21:29 F 0
4715 Roslund,Melody 7178 1:13:39.3 1:07:29.0 21:43 F 54 ST. Louis MI
4716 Love,Betty 6240 1:13:39.9 1:07:26.2 21:42 F 67 Ithaca MI
4717 Cook,Ann 9368 1:13:40.8 1:06:48.4 21:30 F 0
4718 Hubbard,Brittany 5720 1:13:43.0 23:44 F 25 Belleville United States
4719 Baril,Noel 4171 1:14:14.7 1:05:24.3 21:03 M 49 Pleasant Ridge MI
4720 Elders,Laura 5062 1:14:39.9 1:07:57.6 21:52 F 26 Grandville MI
4721 Dykhouse,Nancy 5030 1:14:47.6 1:08:06.0 21:55 F 74 Grand Rapids MI
4722 Elders,Bradley 5060 1:14:47.6 1:08:06.1 21:55 M 27 Grandville MI
4723 Boahene,Kojo 4340 1:14:59.8 1:08:15.1 21:58 M 28 Grand Rapids MI
4724 Todd,Quentin 7771 1:15:51.2 1:08:35.3 22:05 M 5 Pontiac United States
4725 Jefferson,Valerie 5802 1:15:54.3 1:08:38.0 22:05 F 40 Auburn Hills Oakland
4726 Todd,Cewanda 7770 1:15:54.9 1:08:39.3 22:06 F 40 Pontiac United States
4727 Wilson,Sydney 8114 1:15:56.6 1:08:40.3 22:06 F 16 Pontiac United States
4728 Evans,Dianna 5112 1:15:57.5 1:08:40.0 22:06 F 60 Pontiac MI
4729 Dykhouse,Sandy 5031 1:16:49.8 1:10:05.9 22:34 F 47 Caledonia United States
4730 Boahene,Betsy 4339 1:16:50.3 1:10:06.2 22:34 F 27 Grand Rapids MI




Big House Big Heart - 5K Age Group Results
Ann Arbor, MI
October 3, 2010

Results by RF Timing
Software by ChuckScore

MaleUnknown 1-4 5-9 10-14 15-19 20-24 25-29 30-34 35-39 40-44 45-49 50-54 55-59 60-64 65-69 70-74 75-79 80-84 85-89 90-94
FemaleUnknown 1-4 5-9 10-14 15-19 20-24 25-29 30-34 35-39 40-44 45-49 50-54 55-59 60-64 65-69 70-74 80-84
Top Male
Overall Overall State/
Place Name Bib Gun Tag Pace Place by Sex City County
1 Perrin,Josh 8688 15:17.0 15:16.5 4:55 1 1 Hamburg MI
Go To Top
Top Female
Overall Overall State/
Place Name Bib Gun Tag Pace Place by Sex City County
1 Park,Laurel 6833 18:29.1 18:25.9 5:56 25 1 Ann Arbor MI
Go To Top
Age Unknown - Male
Overall Overall State/
Place Name Bib Gun Tag Pace Place by Sex City County
1 Martenas,Chuck 9083 19:34.7 19:32.3 6:17 66 62
2 Russman,Daniel 9177 20:27.7 20:21.2 6:33 103 93
3 Jacuzi,David 9327 24:20.2 24:11.7 7:47 423 349
4 Slotten,Peter 9188 29:10.3 25:36.7 8:15 664 505
5 Blankenship,Daniel 9268 26:25.1 25:43.5 8:17 685 520
6 Kobolel,Heinrich 9330 26:51.6 25:43.7 8:17 686 521
7 Pool,Matthew 6950 27:01.5 26:15.0 8:27 789 588 Ann Arbor MI
8 Dormer,Will 9186 32:19.1 28:45.7 9:15 1329 847
9 Wolnnin,Brian 9334 32:50.6 28:54.5 9:18 1369 866
10 Rocha,Marcelo 9073 34:43.2 29:00.3 9:20 1391 876
11 Dormer,Doug 9187 34:47.2 31:11.4 10:02 1929 1112
12 Babbitt,Tim 9289 33:28.3 31:12.7 10:03 1935 1114
13 Lamb,Bill 9355 35:41.2 33:36.9 10:49 2541 1327
14 Kibbey,Hayden 9193 36:47.9 33:37.2 10:49 2544 1328
15 Foester,Shane 9325 43:06.1 40:47.6 13:08 3592 1661
16 Poers,Brian 9285 47:12.0 42:17.4 13:37 3698 1696
17 Nelson,Kyle 9291 55:44.7 49:30.3 15:56 4146 1810
18 Honnov,Jack 9348 59:14.4 55:11.6 17:46 4399 1887
19 Desentz,Danny 9258 1:08:33.6 1:08:33.6 22:04 4699 1970
Go To Top
1-4 Male
Overall Overall State/
Place Name Bib Gun Tag Pace Place by Sex City County
1 Hoover,Liam 5697 47:04.9 44:37.8 14:22 3827 1728 Howell MI
2 Mccammon,Lewis 9364 54:48.7 50:05.9 16:07 4176 1818
3 Zabriskie,Alex 8212 1:03:26.2 56:42.4 18:15 4444 1896 Ypsilanti MI
4 Robertson,Keegan 7135 1:05:54.5 1:00:17.1 19:24 4587 1936 Ypsilanti MI
Go To Top
5-9 Male
Overall Overall State/
Place Name Bib Gun Tag Pace Place by Sex City County
1 Oldani,Keegan 6769 22:09.5 22:04.4 7:06 209 187 Ann Arbor MI
2 Williston,Zack 8105 24:24.6 24:10.3 7:47 419 347 Ann Arbor MI
3 Basch,Ari 8279 25:00.9 24:17.6 7:49 438 360 Ann Arbor MI
4 Evans,Daniel 9162 25:03.4 24:28.9 7:53 468 379
5 Besford,Todd 4295 25:08.1 25:01.9 8:03 561 446 Ann Arbor United States
6 Stump,Robert 7652 26:02.2 25:27.2 8:12 623 483 Chelsea United States
7 Oates,Robbie 6741 25:39.7 25:27.6 8:12 626 486 Chelsea MI
8 Vasconi,Aidan 7875 32:10.1 25:39.5 8:15 674 511 Ann Arbor MI
9 Menko,Garrett 6479 28:21.4 26:45.0 8:37 880 632 Fenton MI
10 Doyle,Luke 4987 30:03.6 26:50.7 8:38 896 642 Northville MI
11 Flanders,Colin 8401 28:07.6 27:21.5 8:48 1000 699 Ann Arbor MI
12 Stead,Conleth 7573 28:43.9 27:43.6 8:55 1071 736 Ann Arbor MI
13 Wolf,Joshua 8138 30:42.5 27:56.4 9:00 1121 756 Richland MI
14 Shaw,Parker 7385 29:39.0 28:32.4 9:11 1257 816 Chelsea MI
15 Lewis,Casey 6201 30:43.2 28:34.1 9:12 1274 823 Ann Arbor MI
16 Stidham,Benjamin 7595 29:29.0 28:42.1 9:14 1311 838 Ann Arbor MI
17 Wirth,Kade 9220 29:43.5 28:48.0 9:16 1332 850
18 Hawkins,Tanner 5567 32:29.7 28:51.1 9:17 1347 856 Clinton United States
19 Pando Girard,Aldo 6820 29:59.1 28:52.9 9:18 1356 860 Ypsilanti MI
20 Martins-caulfield,Joshua 6344 29:43.9 29:01.0 9:20 1392 877 Ann Arbor MI
21 Vitale,Donovan 7905 29:24.9 29:08.1 9:23 1412 892 Monroe MI
22 Probst Vi,Louis 8710 30:23.2 29:27.8 9:29 1487 934 Ann Arbor MI
23 Ryan,Brock 7245 32:54.9 29:32.6 9:31 1508 945 Sheridan MI
24 Wipp,Kaine 8121 35:01.0 30:00.0 9:39 1647 1004 Jerome MI
25 Roeser-nordling,Logan 7157 34:45.0 30:16.9 9:45 1715 1025 Ann Arbor MI
26 Becker,Owen 4218 30:53.7 30:17.6 9:45 1720 1028 South Lyon MI
27 Newton,Hayden 6700 33:48.2 30:51.6 9:56 1854 1079 Ypsilanti MI
28 Dempsey,Caden 9260 34:51.9 31:16.2 10:04 1946 1121
29 Dimarco,Cameron 4939 32:11.3 31:42.3 10:12 2072 1161 Blissfield United States
30 Geiman,Colin 8419 38:27.0 31:53.4 10:16 2119 1171 Ann Arbor United States
31 Le Potttier,Ben 8558 33:09.6 32:07.6 10:20 2183 1197 Ann Arbor MI
32 Matuszak,Nick 6366 32:32.6 32:09.7 10:21 2190 1199 Brighton United States
33 Aronow,Joshua 8896 33:36.2 32:12.5 10:22 2205 1204 Ann Arbor MI
34 Kasza,Sam 8520 36:06.0 32:20.6 10:25 2237 1219 Sylvania United States
35 Vanwormer,Silas 7871 36:57.5 32:26.2 10:26 2259 1227 Birch Run United States
36 Vitale,Trevor 7907 32:47.3 32:30.1 10:28 2274 1234 Monroe MI
37 Bassett,Zachary 4192 34:08.1 32:33.2 10:29 2289 1238 Ann Arbor United States
38 Foster,William 5228 38:26.6 32:39.3 10:31 2321 1248 Ann Arbor MI
39 Krushelnick,Joe 6064 37:58.7 32:40.7 10:31 2330 1254 Ann Arbor MI
40 Chang,Matthew 4624 37:45.8 33:17.1 10:43 2467 1296 Ann Arbor United States
41 Reese,Garrett 7052 34:21.9 33:25.6 10:46 2502 1312 Brighton MI
42 Baker,Kaden 4148 39:06.9 33:36.2 10:49 2539 1326 Maybee MI
43 Lampman,Kale 9096 34:40.6 33:45.0 10:52 2576 1339
44 Fried,Leo 5262 39:35.3 34:09.9 11:00 2667 1365 Ann Arbor MI
45 Newsom,Brendan 8988 38:21.5 34:23.4 11:04 2708 1379 Sylvania United States
46 Gretkierewicz,Luke 5438 39:01.0 34:33.3 11:07 2749 1390 Ann Arbor MI
47 Kwok,Sam 6089 37:59.6 35:00.8 11:16 2836 1414 Ann Arbor MI
48 Matuszewski,Brady 6369 38:26.9 35:07.3 11:18 2846 1418 Brighton MI
49 Bath,Jacob 4195 40:37.1 35:29.3 11:25 2909 1441 Petoskey MI
50 Pohlman,Quade 8703 42:33.4 35:38.3 11:28 2960 1456 Ann Arbor United States
51 Oswald,Victor 8679 40:46.4 36:10.2 11:39 3040 1478 Ann Arbor U.S.A.
52 Davis,Hayden 4848 39:45.7 36:34.4 11:46 3095 1500 Dexter MI
53 Johnson,Andrew 9218 40:33.7 36:35.2 11:47 3100 1503
54 Johnson,Micah 9219 41:00.4 37:01.0 11:55 3155 1523
55 York,Logan 8191 42:41.9 37:26.2 12:03 3219 1543 Saline MI
56 Wagner,Tye 8845 38:08.1 37:48.5 12:10 3259 1558 Temperance MI
57 Carlson,Jake 8314 45:23.4 38:11.2 12:17 3308 1575 Ann Arbor MI
58 Buszka,Preston 4536 39:52.1 38:14.5 12:19 3320 1580 Farmington Hills MI
59 Hamann,Thomas 5519 43:22.6 38:44.1 12:28 3404 1607 Saline MI
60 Davis,Alexander 4840 44:01.5 38:59.9 12:33 3424 1613 Ann Arbor MI
61 Lukela,Henry 6253 43:19.2 39:00.1 12:33 3425 1614 Ann Arbor MI
62 Okronley,Zachary 6767 43:33.2 39:18.5 12:39 3448 1618 Howell MI
63 Okronley,Jacob 6764 43:36.6 39:22.9 12:41 3454 1622 Howell MI
64 Young,Thomas 8205 40:48.1 39:34.6 12:44 3482 1630 Ypsilanti MI
65 Zurbuchen,Lucas 9156 45:18.1 39:35.6 12:45 3484 1631
66 Halberstam,Zach 8450 41:49.9 40:14.9 12:57 3548 1650 Ann Arbor MI
67 Cohn,Peter 4690 47:38.2 41:02.1 13:12 3615 1669 Ann Arbor MI
68 Mahoney,Matthew 9069 44:09.7 41:29.8 13:21 3635 1674
69 Ferguson,Anton 5167 46:20.8 41:34.2 13:23 3647 1680 Ann Arbor MI
70 Rust,Matt 7233 46:19.2 41:59.5 13:31 3681 1691 Ypsilanti MI
71 Ahmed,Fuzail 9455 47:30.6 42:38.0 13:43 3718 1703 Royal Oak MI
72 Bentley,Ryan 4269 49:43.2 43:38.5 14:03 3777 1715 Ann Arbor MI
73 Fried,Ryder 5263 49:51.2 44:25.4 14:18 3818 1725 Ann Arbor MI
74 Rodriguez,Austin 9101 50:07.1 44:43.8 14:24 3835 1729
75 Furlong,Jake 5281 50:42.2 45:31.6 14:39 3887 1744 Ann Arbor United States
76 Hurris,Simon 9108 52:58.3 48:19.0 15:33 4062 1787
77 Root,Ian 7170 56:28.8 51:20.8 16:32 4225 1832 Ann Arbor MI
78 Juno,Andrew 5865 54:15.1 51:39.4 16:38 4239 1835 Flushing MI
79 Ramsay,Jack 7019 59:04.1 52:32.8 16:55 4282 1849 Livonia MI
80 Oga,Keitaro 8665 55:16.0 53:51.9 17:20 4338 1866 West Bloomfield MI
81 Hawn,Matthew 5570 1:03:07.6 56:25.2 18:10 4436 1894 Portage United States
82 Butcher,Michael 4542 1:03:58.0 57:03.0 18:22 4453 1900 Owosso MI
83 Pasquarella,Ronan 6841 1:03:39.6 57:19.5 18:27 4470 1905 Ann Arbor MI
84 Lanczak,Parker 6112 1:06:26.9 1:00:43.4 19:33 4598 1942 Canton MI
85 Jones,Joshua 8505 1:11:16.0 1:05:03.2 20:56 4669 1961 Clio MI
86 Todd,Quentin 7771 1:15:51.2 1:08:35.3 22:05 4700 1971 Pontiac United States
Go To Top
10-14 Male
Overall Overall State/
Place Name Bib Gun Tag Pace Place by Sex City County
1 Benoit,Jay 4263 19:03.7 19:02.6 6:08 43 42 St Clair Shores MI
2 Furey,Thomas 8414 20:00.9 19:14.8 6:12 53 51 Ann Arbor United States
3 Gaboury,Adam 5284 19:54.2 19:50.2 6:23 80 75 Ann Arbor MI
4 Tukel,Eli 8823 20:32.5 20:25.8 6:35 108 96 West Bloomfield MI
5 Stults,Andrew 7649 20:41.2 20:31.6 6:36 118 104 Richland United States
6 Lacroix,Daniel 6096 20:55.1 20:47.4 6:42 124 110 Ypsilanti MI
7 Rumsey,Jason 7212 20:55.9 20:54.3 6:44 134 120 Swanton OH
8 Wetzel,Logan 8029 21:04.6 21:01.5 6:46 142 126 Saline MI
9 Nicholas,Benjamin 9088 21:06.5 21:03.0 6:47 143 127
10 Kise,Stevie 5972 21:09.7 21:06.6 6:48 145 129 Saline MI
11 Hall,Kevin 5504 21:12.4 21:09.4 6:49 148 132 Ann Arbor MI
12 Duerst,Jake 5009 21:25.7 21:22.7 6:53 161 144 Ann Arbor United States
13 Valtadoros,Philip 7843 21:36.3 21:31.5 6:56 172 155 Ann Arbor MI
14 Oates,Tom 6742 21:42.8 21:31.5 6:56 173 156 Chelsea MI
15 Mundinger-smith,Eric 6626 22:42.9 21:40.6 6:59 188 169 Linden MI
16 Charles,Jonathan 4632 21:58.8 21:50.7 7:02 196 177 Ann Arbor MI
17 Michele,Justin 6496 22:04.5 21:58.2 7:04 204 183 Ann Arbor MI
18 Sonnega,Peter 9306 22:37.3 22:12.7 7:09 221 199
19 Kowalski,Joshua 8961 22:30.3 22:18.8 7:11 224 202 Chelsea MI
20 Boynton,Nicholas 4395 22:50.6 22:25.0 7:13 228 204 Troy MI
21 Dawn,Austin 4861 22:48.1 22:26.4 7:13 232 208 Monroe MI
22 Kozicz,Jack 6038 22:48.3 22:32.1 7:15 237 213 Ann Arbor MI
23 Vidovic,Alexander 8838 22:45.2 22:35.3 7:16 239 215 Whitmore Lake MI
24 Stimac,Peyton 7603 22:48.5 22:37.2 7:17 245 221 Dexter MI
25 Jacobs,Sutton 5778 23:04.4 22:56.4 7:23 270 241 Manchester MI
26 Zacks,Daniel 8218 23:23.1 23:18.1 7:30 304 269 Ann Arbor United States
27 Jensen,Tyler 8495 24:03.2 23:24.3 7:32 317 281 Frankenmuth MI
28 Hancock,Nolan 8452 23:47.9 23:38.8 7:37 340 295 Parma MI
29 Rieger,Nate 7102 23:44.3 23:38.9 7:37 341 296 Allendale MI
30 Wilkie,Ryan 8078 24:37.5 23:39.2 7:37 343 297 Saline MI
31 Jordan,Zach 5850 24:37.7 23:39.4 7:37 344 298 Saline MI
32 Rust,Robert 7234 23:56.9 23:45.1 7:39 351 305 Ypsilanti MI
33 Morgan,Spencer 6589 24:03.2 23:56.7 7:42 384 327 Ann Arbor United States
34 Krassa,Drake 6047 24:17.9 23:58.2 7:43 389 329 Chesterfield MI
35 Rosati,Matthew 8749 24:09.1 24:05.9 7:45 408 339 Ann Arbor United States
36 Yaklin,Nathan 8171 25:17.3 24:19.5 7:50 441 361 Saline MI
37 Kunnath,Joe 8967 25:53.4 24:22.2 7:51 447 365 Canton MI
38 Sugerman,Alexander 7657 24:47.7 24:27.0 7:52 461 373 Ann Arbor MI
39 Koerschner,Evan 6002 25:30.7 24:29.4 7:53 470 381 Ann Arbor MI
40 Matuszak,Vincent 6368 24:49.7 24:31.2 7:54 473 383 Brighton United States
41 Slawecki,Tiernan 8790 24:43.7 24:32.4 7:54 477 387 Ann Arbor MI
42 Kasza,Alec 8518 28:20.0 24:34.5 7:55 485 393 Sylvania United States
43 Reese,Andrew 7051 24:54.4 24:35.8 7:55 487 395 Brighton MI
44 Kroll,Jason 6061 25:19.8 24:43.5 7:57 506 408 Brighton MI
45 Carvette,Tyler 4598 24:46.5 24:43.6 7:58 507 409 Ann Arbor MI
46 Garza,Andrew 5311 26:55.4 24:46.0 7:58 516 414 Saginaw MI
47 Guinn,Kellen 5467 27:56.4 24:50.7 8:00 530 423 Lowell MI
48 Ammerman,Jack 4061 25:16.3 24:56.7 8:02 541 431 Ann Arbor MI
49 Quinno,Ben 7001 25:48.1 24:56.8 8:02 543 432 Saline MI
50 Segawa,Max 7361 26:38.2 25:11.3 8:06 582 459 Ann Arbor U.S.A.
51 Huehn,Brendan 9167 29:37.9 25:18.3 8:09 598 468
52 Karikas,John 9438 26:54.7 25:24.9 8:11 617 480 Chardon OH
53 Zeimet,Frankie 8230 30:50.0 25:29.4 8:12 631 489 Ann Arbor MI
54 Sugerman,Samuel 7660 25:59.0 25:39.2 8:15 673 510 Ann Arbor MI
55 Brooks-planck,Ezra 4446 25:50.2 25:42.6 8:16 680 516 Chelsea MI
56 Barnes,Terik 9233 25:58.4 25:47.0 8:18 697 529
57 Loftus,Connor 6226 26:43.9 25:49.2 8:19 702 531 Ann Arbor MI
58 Connolly,Aidan 4710 26:12.4 25:51.1 8:19 706 533 Ann Arbor MI
59 Malbone,John 6303 26:46.2 25:51.9 8:19 708 535 Saline MI
60 Angerman,Nick 9421 27:07.6 25:52.5 8:20 711 538
61 Johnson,Caleb 9217 26:06.9 25:53.5 8:20 715 540
62 Mcguire,Tyler 9213 26:07.0 25:54.0 8:20 717 542
63 Hogan,Brendan 5678 25:57.8 25:54.3 8:20 719 544 Saline MI
64 Astani,Arman 4102 26:53.5 25:55.7 8:21 725 550 Ann Arbor United States
65 Baker,Alex 9243 26:34.9 25:58.8 8:22 737 559
66 Zestos,Vasili 8236 27:09.5 26:04.9 8:24 763 571 Northville MI
67 Shemanski,Jack 7394 27:12.7 26:19.1 8:28 804 596 Saline MI
68 Sanders,Ryan 7275 26:51.5 26:23.6 8:30 814 602 Dexter MI
69 Lester,Ryan 6192 27:05.4 26:31.8 8:32 829 610 Chesterfield MI
70 Ryan,Blake 7243 27:36.0 26:32.6 8:33 836 615 Sheridan MI
71 Chung,Joey 8334 28:18.9 26:43.4 8:36 874 630 Canton MI
72 Sier,Maurits 7427 27:42.0 26:45.4 8:37 881 633 Ann Arbor MI
73 Buzinkai,Noah 4546 27:29.1 26:46.0 8:37 882 634
74 Seidl,Tony 7364 27:49.0 26:52.3 8:39 900 645 Dexter MI
75 Iniguez,Sebastian 8485 29:20.9 26:55.2 8:40 914 652 Ann Arbor MI
76 Feijoo,Brandon 5152 27:02.6 26:58.5 8:41 931 660 Stevensville MI
77 Merz,David 8622 27:58.5 27:00.2 8:41 937 663 Ann Arbor MI
78 Dudas,Austin 5006 28:23.1 27:04.5 8:43 950 671 White Lake MI
79 Cislo,Brenden 8336 28:23.5 27:04.9 8:43 952 673 White Lake United States Of Ame
80 Denys,Arthur 4897 29:06.3 27:07.2 8:44 958 677 Ann Arbor MI
81 Fotouhi,Arman 8936 28:35.5 27:13.1 8:46 972 682 Dexter United States
82 Oliver,Owen 8669 28:00.6 27:24.4 8:49 1012 704 Spring Arbor MI
83 Jones,Tyler 8511 28:01.7 27:25.8 8:50 1017 707 Parma MI
84 Randall,Ben 7022 28:51.3 27:34.0 8:52 1043 720 Whitmore Lake MI
85 Kunnath,Jacob 8966 29:16.8 27:41.0 8:55 1061 731 Canton MI
86 Bruce,Jordan 8306 28:54.7 27:54.6 8:59 1113 751 Ann Arbor United States
87 Lutz,Anthony 6263 29:32.3 27:56.0 8:59 1119 754 Toledo OH
88 Shaw,Ryan 7386 29:21.7 28:01.2 9:01 1143 766 Canton MI
89 Griffith,Kyin 5443 30:16.0 28:07.6 9:03 1168 775 Ann Arbor MI
90 Appel-kraut,Joel 4087 30:20.2 28:11.6 9:04 1183 783 Ann Arbor MI
91 Bradshaw,Michael 4407 29:15.8 28:18.8 9:07 1211 796 Dexter United States
92 Jacot,Colton 8489 29:47.3 28:19.7 9:07 1214 798 Millington MI
93 Matuszewski,Justin 6370 31:31.3 28:21.5 9:08 1218 800 Brighton MI
94 Michno,Thomas 6499 28:59.4 28:27.9 9:10 1235 806 Chesterfield Twp MI
95 Sieler,Chase 9144 28:50.2 28:32.4 9:11 1258 817
96 Timbs,Sean 7768 30:38.4 28:34.4 9:12 1276 825 Ypsilanti MI
97 Talsma,Sammy 9057 29:20.0 28:37.4 9:13 1295 833
98 Petronio,Kyle 6906 32:56.2 28:39.9 9:14 1300 835 Brighton MI
99 Swanson,Jacob 7683 29:36.8 28:44.4 9:15 1321 843 Saline MI
100 Eichner,Kobi 5048 28:52.3 28:47.2 9:16 1331 849 Ann Arbor MI
101 Pizzo,Ian 8699 29:55.3 28:50.9 9:17 1344 854 Tipton MI
102 Swanson,Jakob 7684 30:29.0 29:04.6 9:22 1404 885 Oswego United States
103 Skwirsk,Jacob 7461 32:09.3 29:06.2 9:22 1408 888 Canton MI
104 Harrel,Jaiden 8456 31:12.9 29:09.0 9:23 1414 893 Norwalk OH
105 Greenstein,Joseph 5435 30:04.9 29:19.9 9:26 1450 910 West Bloomfield MI
106 Nicoli,John 6709 30:16.8 29:20.2 9:27 1452 912 Ann Arbor MI
107 Zieske,Skyler 9046 31:11.5 29:20.3 9:27 1453 913 Linden MI
108 Braman,Trenton 9212 29:37.9 29:24.8 9:28 1470 924
109 Cornellier,Sean 4741 31:03.1 29:26.2 9:28 1474 926 Novi U.S.A.
110 Flohr,Evan 5215 32:16.9 29:26.8 9:29 1479 928 Northville MI
111 Lecceadone,Zachary 8559 29:57.2 29:29.8 9:30 1494 936 Rockford MI
112 Jessop,Aj 9115 33:51.7 29:45.2 9:35 1573 969
113 Mcwilliams,Seamus 8614 31:03.7 29:47.4 9:35 1579 973 Ann Arbor MI
114 Furlong,Dylan 5280 34:58.1 29:48.4 9:36 1584 974 Ann Arbor United States
115 Sier,Martijn 7426 31:28.8 29:50.7 9:36 1602 985 Ann Arbor MI
116 Hall,Trevor 5512 30:58.1 29:58.1 9:39 1636 999 Swartz Creek MI
117 Sheaves,Benjamin 7390 30:27.2 30:06.5 9:41 1661 1009 Berkley MI
118 Romans,Nolan 7162 34:20.1 30:13.2 9:44 1692 1019 Brighton MI
119 Sicklesteel,Aex 7413 32:49.5 30:17.4 9:45 1719 1027 South Lyon MI
120 Carl,Aidan 4574 31:39.1 30:24.2 9:47 1760 1043 Ann Arbor MI
121 Pope,Brandon 6952 30:48.6 30:26.4 9:48 1770 1049 Manchester MI
122 Zhang,Sam 9049 31:35.4 30:30.0 9:49 1784 1055
123 Thorburn,Foster 7755 31:39.0 30:34.9 9:51 1799 1063 Chelsea MI
124 Glass,Dennis 9447 34:15.0 30:39.9 9:52 1813 1067 Milan United States
125 Phair,Bas 8997 33:25.6 30:50.8 9:56 1847 1076 Ann Arbor MI
126 Hoban,Christopher 5662 34:21.2 30:55.3 9:57 1861 1082 Ann Arbor MI
127 Grubbs,Seth 8443 34:50.3 30:56.0 9:57 1865 1085 Adrian MI
128 Van Deren,Gunnar 8830 32:30.8 30:59.4 9:58 1879 1090 Plymouth MI
129 Guise,Andrew 5469 32:01.1 31:01.1 9:59 1887 1093 Dexter United States
130 Baker,Brendan 4142 36:40.3 31:06.7 10:01 1905 1103 Maybee MI
131 Gentles,Travan 5325 36:22.5 31:06.7 10:01 1906 1104 Ypsilanti MI
132 Gilbert,Alan 8425 32:15.5 31:07.9 10:01 1916 1107 Berrien Springs MI
133 Heidorn,Daniel 5586 36:10.3 31:12.5 10:03 1934 1113 Ann Arbor U.S.A.
134 Thelen,Marshall 7735 33:40.3 31:14.6 10:03 1943 1119 South Lyon MI
135 Norton,William 6736 32:32.6 31:27.5 10:08 2007 1137 Ann Arbor MI
136 Hallstrom,Lars 8946 32:29.4 31:29.9 10:08 2016 1142 Ann Arbor MI
137 Jessop,Alexei 9116 35:40.8 31:33.5 10:09 2038 1150
138 Black,Benjamin 4315 34:37.1 31:52.6 10:16 2115 1170 Commerce MI
139 Gough,Brendan 5410 32:33.9 32:00.1 10:18 2155 1187 Chesterfield MI
140 Smith,Jacob 7487 36:40.2 32:02.8 10:19 2163 1189 Dundee MI
141 Besford,Andrew 4292 32:12.5 32:06.9 10:20 2180 1195 Ann Arbor United States
142 Narge,Ronald 6668 33:19.1 32:10.8 10:21 2197 1201 Berrien Springs MI
143 Gretkierewicz,Owen 5439 36:41.0 32:13.1 10:22 2207 1206 Ann Arbor MI
144 Opipari III,Anthony 6791 33:34.1 32:28.8 10:27 2271 1231 Dexter MI
145 Foster,Nicholas 5227 38:25.0 32:36.7 10:30 2305 1241 Ann Arbor MI
146 Braman,Brandon 9214 33:43.7 32:40.4 10:31 2327 1251
147 Doan,Parker 8374 36:50.1 32:45.7 10:33 2358 1262 Gregory MI
148 Hall,Kyle 5505 34:04.1 32:50.0 10:34 2381 1270 Ann Arbor MI
149 Hughes,Alexander 5733 33:51.1 32:52.2 10:35 2389 1272 Ann Arbor United States
150 Leonard,Jamie 6184 35:22.9 32:59.1 10:37 2407 1277 Ann Arbor MI
151 Noetzel,David 6724 34:07.9 33:07.9 10:40 2442 1285 Decatur United States
152 Perry,Brendan 6893 36:37.3 33:17.6 10:43 2469 1298 Canton MI
153 Blake,Brandon 4322 39:49.0 33:51.4 10:54 2600 1350 Flint United States
154 Nolan,Will 6728 40:10.7 34:25.9 11:05 2714 1381 Ypsilanti MI
155 Seidleck,Chris 7365 40:05.4 34:45.6 11:11 2788 1401 Dexter United States
156 Mccoy,Henry 6412 38:42.5 34:52.3 11:13 2807 1406 Ann Arbor MI
157 Weingarten,Avi 9038 36:32.9 35:13.6 11:20 2857 1420 Ann Arbor U.S.A.
158 Vansyckle,Levi 7869 38:55.1 35:16.1 11:21 2865 1424 Greenville MI
159 Skonecki,Matt 7460 36:21.9 35:20.2 11:22 2878 1430 Ann Arbor MI
160 Chung,David 8333 36:49.8 35:29.7 11:25 2910 1442 Canton MI
161 Sladick,Tyler 8789 39:56.9 35:37.4 11:28 2950 1453 Fowlerville MI
162 Watza,Jack 7972 39:26.8 35:43.3 11:30 2969 1459 Ann Arbor MI
163 Watza,Joe 7973 40:01.4 36:17.1 11:41 3053 1483 Ann Arbor MI
164 Kachman,Eric 5868 41:51.3 36:22.8 11:43 3069 1490 Ann Arbor MI
165 Bradley,Colin 4404 40:54.3 36:30.3 11:45 3081 1495 Mason MI
166 Swanson,Jameson 7685 40:21.3 36:45.4 11:50 3124 1511 Saline MI
167 Ryan,Austin 7242 40:35.0 36:53.7 11:53 3137 1516 Lansing MI
168 Pace,Christian 8681 39:43.4 37:03.9 11:56 3158 1525 Marshall MI
169 Kulp,Roman 6073 43:59.7 37:35.1 12:06 3230 1547 Ann Arbor MI
170 Wirebaugh,Wilson 8125 43:39.9 37:35.7 12:06 3231 1548 Holland MI
171 Brown,Kegan 9446 42:16.8 37:37.9 12:07 3236 1551
172 Walker,Austin 8847 42:30.6 37:51.5 12:11 3266 1561 Clark Lake MI
173 Pollock,Asaf 6945 39:05.5 37:57.3 12:13 3273 1564 Huntington Woods MI
174 Iniguez,Xavier 8486 40:33.6 38:02.6 12:15 3283 1566 Ann Arbor MI
175 Gunn,Kyle 9272 40:50.8 38:10.3 12:17 3306 1574
176 Wellman,Patrick 8008 40:16.8 38:15.3 12:19 3322 1581 Ann Arbor MI
177 Holcombe,Lucas 5680 40:52.8 38:20.6 12:20 3335 1585 Ypsilanti MI
178 Davis,Patrick 4854 41:46.9 38:53.1 12:31 3412 1610 Dundee MI
179 Dombi,Nicholas 4955 44:25.5 39:56.2 12:51 3516 1641 Oregon OH
180 Cain,Javan 4552 44:24.4 40:06.9 12:55 3533 1646 Saline MI
181 Jordan,Blake 5848 45:37.0 40:40.1 13:05 3574 1655 Newberry MI
182 Cohn,Tommy 4691 47:20.4 40:43.3 13:06 3582 1657 Ann Arbor MI
183 Mandalari,Anthony 6310 41:04.9 40:46.1 13:07 3586 1658 Lake Orion MI
184 Goodin,Aunic 5391 43:31.9 40:50.9 13:09 3599 1664 Chelsea MI
185 Iles,Avery 9191 45:56.6 40:53.9 13:10 3605 1666
186 Ferguson,Nolan 5169 46:21.6 41:34.1 13:23 3646 1679 Ann Arbor MI
187 Ferguson,Calan 5168 46:21.0 41:34.9 13:23 3649 1681 Ann Arbor MI
188 Williams,Patrick 8100 45:49.1 42:01.4 13:32 3686 1693 Saline MI
189 Leblanc,Jonathan 6143 44:42.5 42:39.1 13:44 3720 1704 Dexter MI
190 Isken,Samuel 5763 46:22.1 42:43.0 13:45 3725 1706 Rochester Hills United States
191 Haddas,Connor 5486 46:12.0 42:58.1 13:50 3742 1707 Saline MI
192 King,Trevor 5958 48:02.6 43:48.8 14:06 3797 1719 Ann Arbor MI
193 Pebley,Dale 6867 49:34.8 43:52.6 14:07 3800 1720 Howell MI
194 Hicks,Noah 5632 48:34.9 44:52.7 14:27 3842 1733 Fraser United States
195 Vanzant,Dylan 8835 50:56.1 44:59.8 14:29 3849 1735 Livonia MI
196 Brown,Joshua 4456 51:27.3 46:32.6 14:59 3953 1761 Saline MI
197 Quinnin,Ryan 6999 54:30.8 47:45.4 15:22 4028 1777 Ann Arbor MI
198 Kisell,Craig 5973 50:13.2 48:25.8 15:35 4066 1789 Eastpointe MI
199 Ramsay,Ian 7018 55:54.3 49:23.7 15:54 4135 1808 Livonia MI
200 Rogosch,Alex 8738 50:57.8 50:00.2 16:06 4171 1817 Westland MI
201 Weisman,Andrew 7997 53:08.9 50:14.3 16:10 4181 1820 Ann Arbor MI
202 Schnepf,Dylan 9198 53:31.5 50:23.6 16:13 4188 1822
203 Robertson,Noah 8735 53:32.1 50:24.2 16:13 4189 1823 Saginaw MI
204 Erdman,Zachary 5095 58:09.6 51:34.0 16:36 4236 1834 Lansing MI
205 Elyakin,Nathan 5082 54:37.2 51:43.8 16:39 4245 1838 Ann Arbor MI
206 Sarns,Joey 8761 53:56.3 51:49.7 16:41 4252 1841 Dexter MI
207 Erbeznik,Jasen 5092 59:20.7 53:09.0 17:06 4313 1858 Ypsilanti MI
208 Nelson,Nicholas 9293 1:00:28.4 54:13.2 17:27 4361 1874
209 Mathers,Billy 6355 1:01:50.5 55:30.6 17:52 4406 1890 South Lyon MI
210 King,Timothy 5957 1:02:45.0 58:20.9 18:47 4520 1919 Martin United States Of Ame
211 Perry,Jack 6896 1:07:23.1 1:06:08.0 21:17 4684 1963 Oxford MI
212 Hall,Steven 5510 1:13:32.4 1:07:21.0 21:41 4689 1965 Saint Louis MI
Go To Top
15-19 Male
Overall Overall State/
Place Name Bib Gun Tag Pace Place by Sex City County
1 Ghena,Nathaniel 5343 17:17.0 17:15.9 5:33 13 13 Newport United States
2 Neumann,Matt 6694 17:27.2 17:26.1 5:37 14 14 Canton MI
3 Gherardini,Niklas 5344 18:00.3 17:54.0 5:46 16 16 Westland United States
4 Zawacki,Ian 8886 17:57.5 17:55.7 5:46 17 17 Monroe United States
5 Muessig,Dominic 9430 18:03.8 18:01.0 5:48 18 18 Clinton United States
6 Cicala,Brandon 4662 18:07.2 18:06.4 5:50 19 19 Livonia MI
7 Gollin,Michael 5382 18:23.2 18:19.7 5:54 24 24 Livonia MI
8 Rumsey,Josh 7213 18:33.9 18:32.3 5:58 30 29 Swanton OH
9 Kasper,Taylor 5886 19:06.8 18:44.3 6:02 34 33 Lexington United States
10 Benkarski,Michael 4259 18:51.6 18:47.1 6:03 35 34 Novi MI
11 Perry,Adam 6892 19:02.6 18:57.4 6:06 40 39 Farmington MI
12 Gentner,Ryan 5327 19:01.5 18:59.9 6:07 42 41 Brooklyn MI
13 Keeling,Ryan 5898 19:12.2 19:06.5 6:09 47 45 Livonia United States
14 Junga,Stephen 5864 20:08.3 19:20.9 6:14 55 53 Ann Arbor MI
15 Swisher,Justin 9168 19:23.8 19:21.3 6:14 56 54
16 Perrotta,Anthony 6891 19:22.9 19:21.8 6:14 58 56 Bloomfield Hills United States
17 Sawitzky,Davey 7291 19:30.9 19:25.3 6:15 60 57 Ann Arbor United States
18 Burkhead,Kenneth 4515 19:34.2 19:32.2 6:17 65 61 Jackson MI
19 Wicks,Gregory 8064 19:43.7 19:38.2 6:19 68 64 Ann Arbor United States
20 Braun,Joshua 8301 19:44.1 19:40.3 6:20 69 65 Canton United States
21 Anderle,Eric 8262 19:42.3 19:41.1 6:20 70 66 Ann Arbor MI
22 Jennings,Dylan 5807 20:48.7 19:47.0 6:22 77 72 Saline MI
23 Kasper,Thomas 5887 20:26.0 20:02.8 6:27 94 86 Lexington United States
24 Adams,Dylan 4018 20:17.8 20:11.0 6:30 95 87 Grass Lake MI
25 Kennedy,Shane 8524 20:24.5 20:18.3 6:32 100 90 Canton United States
26 Olsen,Vince 6774 21:30.0 20:27.7 6:35 111 98 Ann Arbor MI
27 Digiovanni,Michael 4936 20:32.3 20:29.5 6:36 114 100 Ann Arbor MI
28 Champion,Brandon 9276 20:31.6 20:29.8 6:36 115 101
29 Mckeone,Patrick 6445 21:10.9 20:41.2 6:39 120 106 Ypsi Washtenaw
30 Milner,Zack 9457 20:51.1 20:44.6 6:41 122 108
31 Gawron,Daniel 5316 21:03.6 20:50.9 6:43 131 117 Ann Arbor MI
32 Gibson,Aram 8423 21:16.4 21:06.4 6:48 144 128 Ann Arbor MI
33 Abosch,Michael 8256 21:09.6 21:07.4 6:48 146 130 Ann Arbor United States
34 Mcbrairty,Alex 6397 23:41.8 21:23.6 6:53 163 146 Ann Arbor United States
35 Boxeth,Ryan 9408 26:36.0 21:24.7 6:53 164 147 Ann Arbor MI
36 Strickler,Eric 7635 21:38.4 21:30.6 6:55 170 153 Lapeer MI
37 Mckarns,Jack 6438 26:48.2 21:33.4 6:56 177 160 Ann Arbor MI
38 Benschoter,Kyle 4266 26:33.8 21:35.6 6:57 180 163 Battle Creek MI
39 Jong,Matthew 5847 21:59.7 21:36.5 6:57 182 165 Ann Arbor Washtenaw
40 Zapata,Ruben 8224 21:46.7 21:42.7 6:59 189 170 Berrien Springs MI
41 Riegger,Jim 7103 22:08.1 21:53.0 7:03 198 179 Ann Arbor MI
42 Stannik,Nils 7564 22:12.5 21:57.9 7:04 203 182 Ann Arbor MI
43 Mussi,Edward 6651 22:51.7 22:04.5 7:06 210 188 Saline MI
44 Cassel,Levi 8317 27:08.7 22:05.2 7:07 212 190 Miami United States
45 Federbush,Justin 9475 24:43.3 22:07.2 7:07 214 192
46 Lectka,David 6147 22:22.0 22:07.4 7:07 215 193 Livonia United States
47 Jackson,Carlos 5768 22:23.7 22:14.2 7:09 222 200 Ann Arbor MI
48 Hewidy,Hady 5623 27:30.8 22:14.9 7:10 223 201 Ann Arbor MI
49 Wallace,Bryan 7945 23:07.2 22:43.3 7:19 247 223 Monroe MI
50 Kaercher,Tommy 8515 25:19.0 22:46.3 7:20 252 227 Ann Arbor MI
51 Mcdonald,Joseph 6425 23:08.3 22:47.4 7:20 253 228 Jackson U.S.A.
52 Thapliyal,Vinayak 7732 23:19.1 23:06.1 7:26 283 254 Ann Arbor MI
53 Oesch,Tyler 9436 23:21.9 23:14.5 7:29 299 267 Lake Odessa MI
54 Mckinney,Kevin 6446 27:10.1 23:20.3 7:31 306 271 Petoskey MI
55 Osterman,Michael 8673 24:04.0 23:53.4 7:41 376 322
56 Caruso,Vinnie 8316 24:55.9 23:53.9 7:42 377 323 Shelby Township MI
57 Macdermaid,Bobby 6276 24:24.7 24:09.0 7:46 413 343 Linden MI
58 Gilbert,Martin 5348 24:13.4 24:09.5 7:47 414 344 Berrien Springs MI
59 Pundmann,Matt 6988 27:26.8 24:14.2 7:48 432 355 Hinsdale United States
60 Maziasz,Matt 9235 25:59.6 24:25.0 7:52 458 371
61 D'agostini,Brian 4813 24:35.4 24:29.7 7:53 471 382 Northville United States Of Ame
62 Harris,Sam 5547 25:18.7 24:43.5 7:57 505 407 Ann Arbor MI
63 Klosek,Robert 5980 26:08.9 24:47.4 7:59 520 415 Farmington Hills MI
64 Beekman,Tad 4229 25:48.7 25:01.5 8:03 558 443 Saline MI
65 Foster,Liam 5225 25:52.1 25:01.8 8:03 559 444 Saline MI
66 Graber,Chris 5411 25:48.2 25:01.9 8:03 560 445 Saline MI
67 Russell,Travis 7230 28:33.8 25:23.8 8:10 613 478 Monroe MI
68 Howard,Nick 5711 27:55.0 25:34.4 8:14 653 499 Tecumseh MI
69 Hoffman,Brandon 5675 26:47.4 25:36.7 8:15 663 504 Trenton MI
70 Calvano,Chris 4555 26:01.3 25:42.7 8:17 682 517 Clarkston MI
71 Sekerak,Michael 9163 30:37.8 25:44.0 8:17 689 524
72 Lymburner,Kurtil 9283 26:45.4 25:57.5 8:21 731 553
73 Gaytan,Alex 5319 27:22.7 26:14.8 8:27 787 586 Berrien Springs MI
74 Fitch,David R. 5196 32:16.9 26:18.5 8:28 801 595 Ann Arbor MI
75 Tyra,Trent 8826 29:34.9 26:51.0 8:39 897 643 Petersburg MI
76 Schoffner,David 7321 28:42.2 27:20.8 8:48 997 697 Ann Arbor MI
77 Jolliet,Alexandre 9137 27:41.2 27:29.0 8:51 1027 710
78 Livesay,Chris 6223 28:23.6 27:39.5 8:54 1056 728 Saline MI
79 Majewski,Maurice 6301 29:32.5 28:10.8 9:04 1177 779 Ann Arbor MI
80 Corcoran,J. Sean 4732 29:37.0 28:45.2 9:15 1326 846 Saline MI
81 Olszewski,Adam 6781 30:26.1 28:53.0 9:18 1358 861 Ann Arbor MI
82 Lane,Nick 9365 34:07.7 29:04.4 9:21 1403 884
83 Schneider,Mark 7314 31:51.6 29:15.0 9:25 1431 902 Fowler United States
84 Drier,Paul 4998 31:48.6 29:17.0 9:26 1441 906 Decatur IN
85 Kelly,Zachary 9251 34:54.6 29:39.4 9:33 1545 957
86 Cummins,Thomas 4795 31:26.0 29:41.1 9:33 1555 959 Rochester Hills MI
87 Charpie,Ian 8324 31:16.1 29:44.6 9:34 1571 967 Ann Arbor MI
88 Levine,Alex 6195 31:12.5 29:50.9 9:36 1604 987 Ann Arbor MI
89 Stamper,Kory 9022 30:55.6 29:51.0 9:36 1606 988 Southgate MI
90 Becher,Cory 4215 33:04.2 29:54.1 9:37 1620 994 Granville United States
91 Conzelmann,Matthew 4717 31:17.8 30:25.8 9:48 1766 1046 Saline MI
92 Carmack,Jason 4581 31:18.7 30:26.7 9:48 1771 1050 Saline MI
93 Reichlmayr,Jeffrey 8728 33:11.0 30:48.3 9:55 1841 1074 South Lyon MI
94 Mccune,Colin 6418 32:01.1 31:04.5 10:00 1896 1098 Saline MI
95 Giles,Thomas 5352 32:01.6 31:05.4 10:00 1899 1100 Saline MI
96 Dewitt,Seth 4922 36:27.9 31:50.8 10:15 2105 1167 Maybee, MI
97 Patterson,Jimmy 6852 33:32.6 31:55.2 10:16 2135 1180 Farmington MI
98 Yang,Wenbo 8175 32:26.4 31:56.1 10:17 2139 1182 Ann Arbor MI
99 Dawn,Dustin 4862 32:34.3 32:12.3 10:22 2203 1203 Monroe MI
100 Masserant,Nicholas 6350 32:34.4 32:13.7 10:22 2212 1209 Monroe MI
101 Boyce,Todd 9098 32:32.0 32:16.1 10:23 2220 1211
102 Katende,Rusty 9238 32:58.5 32:21.2 10:25 2242 1222
103 Mckenna,John 6440 33:07.4 32:34.5 10:29 2294 1240 Novi United States
104 Gonzalez,Emmanuel 5389 33:20.6 33:16.1 10:42 2461 1292 Berrien Springs MI
105 Reed,Sam 8727 33:51.9 33:17.0 10:43 2466 1295 Dexter United States
106 Gerathy,Patrick 5331 34:46.7 34:37.2 11:09 2760 1392 Highland MI
107 Caataldo,Michael 9453 37:16.4 35:14.0 11:20 2858 1421
108 Shonce,Michael 7408 37:03.8 36:18.1 11:41 3056 1484 Livonia United States
109 Burger,Logan 4507 41:35.5 36:36.7 11:47 3103 1505 Coldwater United States
110 Chrispens,Collin 4653 39:23.6 36:58.9 11:54 3153 1521 Holt MI
111 Meintel,Tyler 6465 43:00.1 38:02.6 12:15 3282 1565 Ann Arbor MI
112 Gunn,Jeff 9271 40:51.7 38:11.3 12:17 3309 1576
113 Costello,Zac 4746 43:44.4 39:44.3 12:47 3499 1636 Shelby TwP. United States
114 Bowersox,Brad 8903 45:09.0 41:36.1 13:23 3653 1684 Chelsea MI
115 Wittig,Caleb 8133 42:39.1 41:42.5 13:25 3660 1686 Ann Arbor MI
116 Williams,Eric 8094 42:39.6 41:45.3 13:26 3664 1688 Saline MI
117 Sulavik,Mark 7662 42:39.1 41:45.5 13:26 3665 1689 Ann Arbor MI
118 Eglinton,Bennett 5046 47:53.1 43:55.4 14:08 3805 1722 Se Grand Rapids United States Of Ame
119 Jones,Matt 8506 51:45.8 45:30.7 14:39 3883 1743 Clio MI
120 Kemeter,Brian 5917 49:53.7 47:53.0 15:25 4041 1781 Manchester MI
121 Ramirez,Roberto 7015 55:03.9 48:59.9 15:46 4105 1799 ST. Louis MI
122 Brower,Luke 9225 55:54.7 50:27.3 16:14 4191 1824
123 Kiriazis,Michael 5966 1:01:42.1 59:23.1 19:07 4553 1927 Ann Arbor United States
124 Jones,Tyler 8510 1:11:15.7 1:05:01.7 20:56 4668 1960 Clio MI
125 Calabro,Frank 9221 1:13:02.1 1:10:15.8 22:37 4721 1975
Go To Top
20-24 Male
Overall Overall State/
Place Name Bib Gun Tag Pace Place by Sex City County
1 Donaghy,Alex 4957 16:51.1 16:50.7 5:25 10 10 Ann Arbor United States
2 Williams,Jacob 8866 16:53.7 16:52.0 5:26 11 11 Ann Arbor United States
3 Rogawski,David 7158 17:42.7 17:41.2 5:42 15 15 Ann Arbor MI
4 Vandermeer,Michael 7860 18:24.5 18:14.8 5:52 20 20 Grand Rapids MI
5 Boucher,Yvan 9119 18:29.0 18:28.4 5:57 27 26
6 Davaloz,Tomas 4831 18:37.1 18:33.0 5:58 31 30 Ann Arbor United States
7 Newman,Tarkington 8987 18:52.6 18:51.9 6:04 37 36 Frankenmuth MI
8 Werbel,William 8859 19:20.7 18:57.1 6:06 39 38 Ann Arbor MI
9 Bush,Bryan 8911 19:06.0 19:03.4 6:08 44 43 Ann Arbor United States
10 Jackson,Jordan 5769 19:17.9 19:11.7 6:11 51 49 Saline MI
11 Stout,Corwin 7624 19:23.3 19:20.4 6:13 54 52 Ann Arbor MI
12 Zapata,David 8223 19:28.6 19:27.4 6:16 62 59 Berrien Springs MI
13 Zohan,Patrick 9343 20:12.6 19:49.1 6:23 78 73
14 Catalan,David 4607 20:26.9 19:53.8 6:24 84 78 Plymouth MI
15 Weis,Matthew 7996 20:09.7 20:00.4 6:26 91 84 Stevensville MI
16 Woolliscroft,Marc 8158 20:21.7 20:13.7 6:31 96 88 Saline MI
17 Wines,Chad 8115 20:58.9 20:30.9 6:36 117 103 Pinckney MI
18 Wilson,Kevin 8112 21:43.2 20:41.6 6:40 121 107 Ann Arbor United States Of Ame
19 Gawron,Jimmy 5317 21:01.8 20:49.3 6:42 127 113 Ann Arbor MI
20 Matthews,Joshua 9463 20:58.1 20:52.9 6:43 132 118
21 Dragotta,Philip 4991 21:00.2 20:54.0 6:44 133 119 Ann Arbor MI
22 Place,Daniel 8700 21:08.1 20:59.9 6:46 139 123 Ann Arbor MI
23 Cave,Clint 4611 21:08.4 21:00.3 6:46 140 124 Ashland IL
24 Robinson,Joshua 8736 21:31.8 21:23.3 6:53 162 145 Ann Arbor United States
25 Stuart,Eric 7643 21:36.1 21:31.1 6:56 171 154 Riverview MI
26 Machinski,Nicholas 6280 21:38.7 21:31.6 6:56 174 157 Ann Arbor United States
27 Boiler,Matt 9103 21:43.1 21:34.8 6:57 178 161
28 Halasy,Scott 8446 22:08.4 21:49.8 7:02 194 175 Wyandotte MI
29 Telfer,Bill 7721 29:10.9 21:53.3 7:03 199 180 Ann Arbor MI
30 Schroeder,Tyler 7332 22:11.1 22:05.0 7:06 211 189 Whitehouse United States
31 Gardner,Ryan 5296 22:23.8 22:21.8 7:12 225 203 Ypsilanti United States
32 Kennard,Spencer 5920 22:43.9 22:28.8 7:14 233 209 Monroe MI
33 Puskar,Jon 6990 23:44.1 22:38.6 7:17 246 222 Ann Arbor MI
34 Griggs,Nicholas 5444 23:18.8 22:51.8 7:22 262 233 Ann Arbor MI
35 Schmit,Steve 9239 24:23.2 22:57.5 7:23 271 242
36 Berry,Ivor 4287 23:15.8 22:58.8 7:24 274 245 Ann Arbor MI
37 Varbedian,Jason 7872 23:23.3 23:13.0 7:28 295 263 Ann Arbor United States
38 Tarrant,Devin 7708 24:52.6 23:33.0 7:35 329 287 Belleville United States
39 Schubatis,Adam 8773 23:54.3 23:34.1 7:35 333 290 Ann Arbor MI
40 Jodoin,Brad 5812 24:19.8 23:36.9 7:36 338 293 Lansing United States Of Ame
41 Colvin,Patrick 4702 25:10.3 23:50.0 7:40 365 313 Ann Arbor MI
42 Eisinger,Daniel 5055 24:32.2 23:52.9 7:41 375 321 Grand Blanc United States
43 Lynch,Kevin 6269 24:21.1 24:05.3 7:45 407 338 Niles United States
44 Skeels,Josh 7455 25:55.8 24:09.9 7:47 418 346 Tecumseh United States
45 Fielder,Kevin 5178 25:00.0 24:22.9 7:51 448 366 Ann Arbor United States
46 Ellerbe,Will 8933 30:07.6 24:23.9 7:51 454 369 Ann Arbor MI
47 Yang,Danny 8875 27:24.0 24:24.0 7:51 455 370 Ann Arbor MI
48 Leblanc,John 6142 24:49.4 24:26.5 7:52 460 372 Ann Arbor MI
49 Rovin,Chris 7196 26:38.0 24:28.2 7:53 465 376 Marquette United States
50 Bitzer,Dustin 4313 25:43.1 24:42.0 7:57 502 405 Gagetown MI
51 Weinstein,Joshua 7995 25:36.0 24:57.7 8:02 546 435 Ann Arbor MI
52 Davies,Evan 9051 25:35.2 25:03.2 8:04 564 449
53 Cyphers,Chance 4806 30:20.2 25:12.4 8:07 585 461
54 Thelier,Cedric 7736 26:00.7 25:19.0 8:09 600 470 Ypsilanti MI
55 Eickhoff,Nathan 8387 26:00.1 25:20.4 8:09 605 473 Frankenmuth United States Of Ame
56 Hollenbeck,Jacob 5685 28:39.4 25:32.3 8:13 645 497 Ypsilanti MI
57 Mckenzie,Christopher 6442 26:53.0 25:43.3 8:17 684 519 Toledo OH
58 Goodman,Aaron 5393 26:13.6 25:53.1 8:20 712 539 Ann Arbor United States
59 Winkler,Andrew 8120 26:11.5 25:54.4 8:20 720 545 Ann Arbor United States
60 Patel,Darshan 6844 26:11.6 25:54.8 8:20 722 547 Ann Arbor United States
61 Towne,Charles 7779 27:17.6 26:02.4 8:23 752 565 Ann Arbor MI
62 Hicks,Tyler 5634 31:59.5 26:10.1 8:25 773 577 Ann Arbor United States
63 Provalenko,Michael 6979 26:24.2 26:10.1 8:25 775 579 Livonia MI
64 Gostomski,Brent 5409 28:29.1 26:13.1 8:26 784 583 Belleville MI
65 Ball,Nick 4160 26:50.2 26:19.8 8:28 806 597 Ann Arbor MI
66 Pociopa,Joseph 6937 31:21.7 26:21.8 8:29 810 600 Ann Arbor MI
67 Balachander,Arvind 4156 28:29.1 26:37.1 8:34 856 624 Ann Arbor MI
68 Hanczaruk,Stephanie 8454 28:27.6 26:44.4 8:36 878 631 New Baltimore MI
69 O'brien,Keith 6747 27:05.6 26:54.6 8:40 910 649 Ypsilanti MI
70 Decaluwe,Brandon 4876 29:48.5 27:00.6 8:42 939 665 Royal Oak MI
71 Eroy,Alex 5101 32:12.6 27:05.2 8:43 953 674
72 Zarzycki,Colin 9044 28:30.7 27:20.1 8:48 994 694 Ann Arbor MI
73 Smoker,Matt 7511 29:56.2 27:26.1 8:50 1018 708 Bronson United States
74 Sammut,Tony 8756 29:41.7 27:31.1 8:51 1032 712 Romulus MI
75 Adelman,Michael 4025 35:36.0 27:32.0 8:52 1037 715 Flossmoor United States
76 Sullens,Brad 8810 31:36.0 27:34.4 8:52 1044 721 Belleville MI
77 Skinner,Derek 7456 29:50.2 27:42.5 8:55 1067 734 Goodrich U.S.A
78 Neuhalfen,Michael 6690 28:15.3 27:48.8 8:57 1087 744 Ann Arbor MI
79 Behan,Stephen 4236 31:21.1 28:04.9 9:02 1157 769 Ann Arbor MI
80 Donnelly,Ryan 4962 29:40.4 28:04.9 9:02 1159 771 Ann Arbor MI
81 Chen,David 9077 28:55.6 28:16.8 9:06 1201 792
82 Lin,John 8560 28:58.1 28:19.3 9:07 1213 797 Ann Arbor MI
83 Reader,Nicholas 9224 33:12.9 28:21.3 9:08 1216 799
84 Kibner,Adam 5941 32:45.2 28:26.8 9:09 1232 804 Redford United States
85 Leventhal,Michael 6194 30:41.8 28:30.4 9:10 1248 812 Chappaqua United States
86 Ringbloom,Craig 7114 30:42.5 29:11.8 9:24 1424 898 Dundee U.S.
87 Vigna,Dave 7899 31:24.8 29:18.9 9:26 1446 908 Warren United States
88 Cohen,Kyle 4686 31:02.8 29:41.5 9:33 1556 960 Ypsilanti MI
89 Jacot,Ryan 8491 31:10.0 29:43.1 9:34 1562 962 Millington MI
90 Hui,Jonathan 9078 30:23.5 29:45.0 9:35 1572 968
91 Dorso,Kyle 4970 32:23.4 29:53.1 9:37 1616 992 Milford United States Of Ame
92 Szurek,Ed 8811 33:10.1 29:56.5 9:38 1634 998 Brighton MI
93 Moro,Ryan 6590 32:08.2 30:20.1 9:46 1735 1033 Ypsilanti MI
94 Nordman,Colin 6730 33:30.5 30:34.7 9:51 1798 1062 White Lake MI
95 Yu,Boris 8208 31:44.3 30:37.9 9:52 1808 1066 Ann Arbor America
96 Harris,Sidney 9461 32:50.9 30:41.0 9:53 1817 1068 Ann Arbor MI
97 Dwornick,Sean 8931 32:24.1 30:56.0 9:57 1864 1084 Brownstown MI
98 Cuevas,Jonathan 4785 33:08.2 30:59.9 9:59 1883 1091 Ann Arbor MI
99 Ramani,Biswa 9349 34:03.9 31:03.5 10:00 1893 1096
100 Grasel,Kevin 8940 31:45.6 31:05.5 10:00 1900 1101 Reese United States
101 Kelley,Jeff 5908 33:47.2 31:06.6 10:01 1904 1102 Farmington Hills MI
102 Babij,Nicholas 4114 35:34.4 31:10.1 10:02 1924 1110 Ann Arbor United States
103 Jennings,Christopher 5806 34:38.2 31:29.1 10:08 2013 1140 Grand Blanc MI
104 Dyer,Sam 5028 33:33.7 31:59.6 10:18 2152 1185 Chelsea United States
105 Slocum,Sam 7468 34:56.7 32:04.0 10:19 2171 1190 Holland MI
106 Suladze,Giorgi 7661 34:16.9 32:11.0 10:22 2200 1202 Ann Arbor MI
107 Oren,Joe 6793 35:38.0 32:17.5 10:24 2228 1215 Ann Arbor MI
108 Dzubur,Eldin 9266 35:41.5 32:38.1 10:30 2312 1244
109 Keller,Dan 5903 37:35.5 32:39.5 10:31 2322 1249
110 Wascher,Pj 8849 37:05.4 32:47.6 10:33 2366 1266 Ann Arbor Washtenaw
111 Radin,Aaron 8715 35:59.4 32:57.0 10:36 2402 1275 Waterford MI
112 Sears,Charlie 7355 34:47.6 33:01.0 10:38 2414 1280 Ann Arbor MI
113 Dibelius,Steven 8369 37:49.5 33:24.7 10:45 2497 1310 Ann Arbor MI
114 Merritt,Michael 6486 34:33.9 33:34.9 10:49 2534 1322 Perrinton MI
115 Subaiya,Peter 8808 35:35.0 33:37.6 10:49 2548 1331 Ann Arbor MI
116 Kulpa,Matt 6078 38:05.8 34:09.0 10:59 2663 1363 Dearborn Heights MI
117 Paitrasson-riviere,Alexis 9182 39:10.6 34:19.1 11:03 2692 1374
118 Throesch,Benjamin 7762 38:11.1 34:34.1 11:08 2753 1391 Ann Arbor MI
119 Karpowicz,Joshua 5882 35:53.6 35:05.6 11:18 2845 1417 Westland MI
120 Ross,Kenneth 7182 40:24.0 35:30.2 11:26 2913 1443 Stillwater OK
121 Smith,William 7510 40:38.4 35:32.8 11:26 2923 1445 Ann Arbor MI
122 Litzler,Thomas R. 6221 37:37.5 35:35.6 11:27 2935 1449 Ann Arbor MI
123 Bieniek,Nick 4303 40:53.1 35:59.4 11:35 3017 1471 Ann Arbor MI
124 Stephen,John 7585 40:46.2 36:43.5 11:49 3115 1510 Ann Arbor MI
125 Gonzalez,Ryan 9274 41:01.8 37:05.2 11:56 3164 1526
126 Benton,Lee 4272 46:00.6 39:31.3 12:43 3469 1625 Chelsea MI
127 Bircher,James 4312 46:00.7 39:31.6 12:43 3471 1626 Ann Arbor MI
128 Galbraith,Marshall 5285 45:10.6 40:29.9 13:02 3564 1652 Dearborn MI
129 Wang,Anran 7956 47:55.1 43:26.6 13:59 3763 1712 Ann Arbor MI
130 Reilly,Eric 9353 51:08.3 46:01.0 14:49 3915 1751
131 Badgerow,Charlie 8272 53:25.6 47:20.0 15:14 4001 1771 Superior Township MI
132 Quebbeman,Andrew 6992 52:50.4 48:08.8 15:30 4048 1783 Lansing United States
133 Haddad,Dan 5485 53:44.2 48:37.4 15:39 4082 1794
134 Curtis,Jon 4802 58:39.8 52:16.7 16:50 4270 1847 Ypsilanti MI
135 Quebbeman,Nathan 6994 52:51.2 52:51.2 17:01 4292 1852 Lansing United States
136 Hoener,Michael 5674 59:37.7 56:43.0 18:15 4447 1899 Canton MI
137 Martin,Adam 6335 1:03:43.3 58:25.9 18:48 4529 1923 Ann Arbor MI
Go To Top
25-29 Male
Overall Overall State/
Place Name Bib Gun Tag Pace Place by Sex City County
1 Setzke,Scott 9254 16:13.8 16:13.3 5:13 2 2
2 Butler,Lewis 9076 16:14.2 16:13.8 5:13 3 3
3 Lalonde,Lindsey 8548 16:23.5 16:21.5 5:16 4 4 Ann Arbor MI
4 Fetters,Kyle 5172 16:31.1 16:29.9 5:19 6 6 Ann Arbor United States
5 Stead,Phil 9023 16:33.7 16:33.0 5:20 7 7 Ann Arbor MI
6 Doody,Jeremy 4964 16:49.5 16:48.7 5:25 9 9 Laingsburg MI
7 Cooke,Michael 4728 18:27.9 18:16.0 5:53 22 22 Ann Arbor MI
8 Raux,Rob 7032 18:30.7 18:28.9 5:57 29 28 Ann Arbor MI
9 Pacheco,Harlyn 6813 19:50.0 19:44.5 6:21 74 70 Ann Arbor MI
10 Heist,Kevin 5596 20:29.3 20:23.4 6:34 105 94 Ann Arbor MI
11 Santoro Iii,Tom 7282 21:00.0 20:47.6 6:42 125 111 Ann Arbor MI
12 Mcguffey,Chris 6432 20:57.2 20:49.4 6:42 128 114 Ann Arbor MI
13 Leahy,William 6140 21:51.4 21:18.0 6:51 154 137 Ann Arbor MI
14 Selvig,Dan 7371 21:25.5 21:18.6 6:52 156 139 Ann Arbor MI
15 Yasuda,Satoshi 8178 21:32.8 21:25.7 6:54 166 149 Ann Arbor MI
16 Frost,Patrick 5270 21:42.3 21:34.9 6:57 179 162 Shelby Township MI
17 Van Dyke,Aaron 8832 21:51.6 21:37.8 6:58 184 167 Ann Arbor MI
18 Hipp,Michael 5654 21:49.1 21:42.9 6:59 190 171 Dearborn Heights MI
19 Bliss,Michael 4334 21:45.0 21:43.2 6:59 191 172 Novi Oakland
20 Luka,Peter 6250 22:20.3 21:51.8 7:02 197 178 Morral United States
21 Fritz,Scott 5267 22:18.2 22:11.4 7:09 216 194 Farmington Hills MI
22 Ryan,Timothy 7248 22:55.2 22:26.2 7:13 231 207 Ann Arbor MI
23 Waddington,Richard 8843 22:50.0 22:35.7 7:16 241 217 Ann Arbor United States
24 Gibson,Jason 8424 24:03.6 22:57.7 7:23 272 243 Ypsilanti MI
25 Nath,Ritesh 6669 26:23.5 23:02.4 7:25 280 251 Ann Arbor MI
26 Rhodes,Jeremy 7082 23:16.7 23:07.5 7:27 286 256 Belleville MI
27 Holland,Travis 5683 27:45.6 23:08.1 7:27 287 257 Ann Arbor MI
28 Russell,Alan 7221 24:34.3 23:14.0 7:29 297 265 Jerome MI
29 Kaiser,Phil 5869 23:41.1 23:23.4 7:32 315 279 Brooklyn MI
30 Vander Weide,Nathan 7855 23:52.4 23:26.5 7:33 320 283 Novi United States
31 Mashiba,Michael 6347 26:52.6 23:31.4 7:34 326 285 Ann Arbor United States
32 Sochacki,Nick 8795 23:56.5 23:34.4 7:35 334 291 Ann Arbor MI
33 Salvner,Joshua 7268 23:44.5 23:39.5 7:37 345 299 Ann Arbor MI
34 Young,Matt 8202 28:38.1 23:44.6 7:39 350 304 North Adams MI
35 Pena,Joel 6874 24:26.1 23:45.2 7:39 352 306 Ann Arbor MI
36 Bodei,Steven 4342 25:11.6 23:50.4 7:40 368 315 Ann Arbor MI
37 Hatt,Nate 5560 26:21.8 24:04.9 7:45 406 337 Ann Arbor United States
38 Keller,Jonathon 5906 24:38.2 24:11.9 7:47 424 350 Ann Arbor United States
39 Mcmackin,Ross 6448 24:21.4 24:13.2 7:48 426 351 Novi MI
40 Umphrey,Edward 8829 25:24.3 24:23.4 7:51 449 367 Ann Arbor MI
41 Dixon,Phillip 4947 26:40.1 24:31.3 7:54 475 385 Ann Arbor MI
42 Reed,Kevin 8726 26:27.8 24:34.4 7:55 484 392 Ann Arbor MI
43 Best,Christopher 4297 25:54.2 24:48.1 7:59 522 417 Troy MI
44 Ullrich,Paul 8828 26:46.1 24:52.1 8:00 532 425 Ann Arbor MI
45 Gerbens,Eric 5333 25:36.2 24:53.1 8:01 533 426 Ann Arbor MI
46 Hanczaruk,Chris 8453 26:36.8 24:53.3 8:01 534 427 New Baltimore MI
47 Bates,Ryan 4193 25:41.9 24:54.3 8:01 536 429 Ann Arbor MI
48 Robertson,David 7132 26:20.5 25:09.2 8:06 575 455 Ann Arbor MI
49 Runyan,Michael 9322 25:54.6 25:22.3 8:10 610 476
50 Rutherford,Dominick 9126 25:46.1 25:24.0 8:11 614 479
51 Walker,Thomas 7944 26:02.4 25:27.3 8:12 624 484 Ann Arbor United States
52 Karlesky,Matthew 5881 26:11.2 25:27.6 8:12 625 485 Ann Arbor United States
53 Anaya,Ben 4067 27:16.4 25:30.1 8:12 635 491 Tecumseh MI
54 Rutherford,Jason 7236 26:32.7 25:43.8 8:17 687 522 Troy United States
55 Showers,Christopher 7409 26:32.9 25:47.0 8:18 696 528 Ann Arbor MI
56 Musch,Alan 6644 28:43.0 25:53.8 8:20 716 541 Grand Rapids MI
57 Han,Ting 5525 28:42.6 25:54.7 8:20 721 546 Ann Arbor MI
58 Amodio,Chad 8261 30:48.3 25:58.5 8:22 734 556 Charlotte United States
59 Young,Christopher 9082 27:15.3 26:03.7 8:23 756 567
60 Neidlinger,Noah 6679 28:47.6 26:09.7 8:25 770 575 Ann Arbor United States
61 Stewart,David 7591 27:22.2 26:15.2 8:27 790 589 Ann Arbor MI
62 Hessler,Anthony 5619 27:01.4 26:21.5 8:29 809 599 Madison Heights United States
63 Marentette,Jason 6321 26:49.1 26:24.1 8:30 816 604 Allen Park MI
64 Bandfield,Jeffery 4163 28:17.0 26:32.2 8:32 832 612 Jackson MI
65 Clevenger,Lance 4679 27:52.4 26:39.3 8:35 860 625 Ann Arbor MI
66 Amshay,Adam 4063 27:27.2 26:46.4 8:37 883 635 Waterford MI
67 Riebel,Joshua 9135 27:12.4 26:49.1 8:38 890 640
68 Kennard,Harrison 5922 27:07.9 26:51.7 8:39 899 644 Ann Arbor MI
69 Eickhoff,Zach 8388 27:32.9 26:53.1 8:39 904 648 Frankenmuth United States
70 Tucker,Kendall 7803 31:20.8 26:55.0 8:40 911 650 Ypsilanti U.S.A.
71 Chraiyachati,Krisda 9072 28:08.1 26:58.2 8:41 928 659
72 Ranoso,Paolo 7025 28:52.4 27:16.4 8:47 984 688 Ann Arbor MI
73 Naughton,James 8653 27:33.8 27:21.0 8:48 998 698 Ann Arbor MI
74 Mcgregor,Douglas 9170 28:39.6 27:24.4 8:49 1011 703
75 Hill,Brian 5639 33:12.6 27:25.3 8:50 1016 706 Ypsilanti MI
76 Minnehan,Tj 6552 28:09.1 27:26.9 8:50 1020 709 Dexter MI
77 Mullican,Ross 6620 30:14.6 28:11.4 9:04 1180 781 Livonia MI
78 Tucker,Brian 8821 32:14.7 28:12.3 9:05 1185 785 Ann Arbor MI
79 Bibawi,Victor 8288 29:49.8 28:23.8 9:08 1224 803 Ann Arbor Ua
80 Ruhe,Matthew 7205 33:48.2 28:30.9 9:11 1251 813 Mansfield United States
81 Riddle,Ronnie 9299 30:25.9 28:33.4 9:11 1267 821
82 Walters,Jeffrey 7953 31:01.1 28:35.8 9:12 1285 830 Grand Blanc MI
83 Caraher,Daniel 8914 30:38.2 28:48.6 9:16 1338 853 Norristown PE
84 Carolin,Sean 4583 33:42.9 28:51.5 9:17 1349 857
85 Mckenzie,William 6443 32:44.6 28:51.9 9:17 1351 858 Ann Arbor MI
86 Rivero,Santiago 9007 30:17.2 28:53.7 9:18 1366 865 Ann Arbor MI
87 Zimmerman,Andrew 8888 30:45.7 28:56.4 9:19 1376 871 Ann Arbor MI
88 Avery,Christopher 4110 30:46.1 28:57.2 9:19 1380 872 Ann Arbor MI
89 Musch,Ryan 6647 32:00.5 29:12.1 9:24 1425 899 Byron Center United States
90 Matz,Josh 6373 32:31.4 29:16.2 9:25 1436 903 Ann Arbor MI
91 Yang,Hengxi 9125 33:56.6 29:16.3 9:25 1438 905
92 Thomson,Jeremiah 7754 33:06.8 29:22.6 9:27 1460 918 Farmington Hills MI
93 Searing,Scott 7352 31:54.9 29:22.8 9:27 1461 919 Plymouth United States
94 Beirlant,Alexander 4241 30:45.5 29:23.3 9:28 1463 920 Lansing United States
95 Raiman,Stephen 8720 31:17.1 29:24.4 9:28 1469 923 Ann Arbor MI
96 Johnson,Craig 5819 35:16.1 29:31.6 9:30 1501 942 Ann Arbor MI
97 Min,Patrick 6546 32:01.7 29:36.3 9:32 1520 951 Ann Arbor MI
98 Myers,Christopher 6656 32:23.6 29:40.8 9:33 1554 958 Ann Arbor MI
99 Lewis,Carl 9357 32:28.6 29:43.3 9:34 1564 963
100 Plumb,Corey 8701 30:52.8 29:43.7 9:34 1566 965 Monroe U.S.
101 Granger,Brian 5420 33:14.1 29:48.6 9:36 1586 975 Royal Oak MI
102 Heberling,Adam 5581 31:30.8 29:50.0 9:36 1596 981 Ann Arbor United States
103 Sims,Jeffrey 7438 35:06.5 29:53.6 9:37 1619 993 Newport MI
104 Hoben,Jimmy 5666 33:04.2 29:54.5 9:38 1624 996 Maumee OH
105 Roy,Thomas 7201 32:50.5 29:55.8 9:38 1628 997 Ferndale United States
106 Marsonek,Scott 8594 31:33.0 29:59.0 9:39 1641 1001 Canton MI
107 Throesch,Forrest 7764 33:39.7 30:03.6 9:40 1657 1008 Zeeland MI
108 Valentine,Bryan 7840 34:10.8 30:06.8 9:42 1662 1010 South Lyon MI
109 Musch,Steven 6648 32:56.9 30:07.8 9:42 1667 1012 Ypsilanti MI
110 Stoel,Jeffrey 7614 33:34.7 30:19.0 9:45 1728 1030 Lansing United States
111 Bender,Bryan 4251 34:17.5 30:21.1 9:46 1737 1034 Northville MI
112 Magella,Gordon 6291 32:25.0 30:24.7 9:47 1763 1045 Ypsilanti MI
113 Walker,Jeremy 7939 31:52.0 30:26.1 9:48 1769 1048 Lansing United States
114 Pratt,Todd 6960 33:10.6 30:27.1 9:48 1773 1052 Big Rapids America
115 Morgan,Kevin 6588 37:14.2 30:37.5 9:51 1805 1065 Ann Arbor MI
116 Zopf,David 8250 32:02.7 30:46.6 9:54 1836 1073 Ann Arbor MI
117 Eymann,Tim 5125 33:56.5 30:51.2 9:56 1852 1078 Ann Arbor United States
118 Hsu,Daniel 5714 33:34.6 30:58.1 9:58 1870 1087 Ann Arbor MI
119 Shaft,Broc 8779 33:40.9 31:01.3 9:59 1888 1094 Perry MI
120 Liron,Dustin 8970 32:24.8 31:03.4 10:00 1892 1095 Ann Arbor MI
121 Pandey,Gaurav 6819 32:58.5 31:06.8 10:01 1907 1105 Ann Arbor MI
122 Berman,Greg 4282 37:28.6 31:07.8 10:01 1915 1106 Ann Arbor MI
123 Primo,Moses 6969 32:16.4 31:08.5 10:01 1919 1108 Berrien Springs MI
124 Gurtowsky,Michael 5478 34:17.5 31:18.0 10:04 1956 1127 Dexter MI
125 Roedel,Kaleb 7151 33:46.3 31:42.2 10:12 2071 1160 Ann Arbor MI
126 Rundle,Joseph 7214 35:36.6 31:50.0 10:15 2100 1165 Ann Arbor MI
127 Accra,Stephen 4013 34:31.7 31:54.4 10:16 2130 1177 Dearborn MI
128 Olivero,Richard 8670 34:37.9 31:54.7 10:16 2133 1179 Ann Arbor MI
129 Maun,Kevin 6376 38:36.4 32:04.7 10:19 2175 1193 Ann Arbor MI
130 Olson,John 6777 33:52.3 32:38.1 10:30 2313 1245 Plymouth United States
131 Mancini,Brandon 8588 34:40.3 32:42.2 10:32 2339 1257 Canton MI
132 Lawrenchuk,Michael 6133 38:35.7 32:47.1 10:33 2362 1264 Ann Arbor MI
133 Welty,Patrick 8015 37:14.0 32:47.4 10:33 2364 1265 Saline MI
134 Tennis,Matthew 9028 36:51.3 32:57.0 10:36 2403 1276 Howell MI
135 Allen,Michael 4054 35:49.6 32:59.7 10:37 2409 1278 Hazel Park MI
136 Schaffner,Jim 7300 40:21.9 33:00.2 10:37 2411 1279 Rocester Hills MI
137 Halverson,Sky 5517 37:58.1 33:09.7 10:40 2447 1287 Ann Arbor MI
138 Reader,Matthew 9252 38:07.2 33:15.2 10:42 2457 1290
139 Mcdermott,Bill 6422 36:24.1 33:18.8 10:43 2477 1302 Southgate MI
140 Manz,Kurt 6319 37:15.6 33:27.2 10:46 2507 1315 Toledo OH
141 Czernik,Brandon 4811 39:13.6 33:29.5 10:47 2517 1318 Jackson MI
142 Mccomb,Matt 9228 37:52.3 33:30.3 10:47 2519 1319
143 Pawlak,Michael 6860 36:48.4 33:32.7 10:48 2527 1320 Spring Lake MI
144 Wiggins,Chris 8069 36:19.2 33:49.7 10:53 2590 1344 Northville MI
145 Puskar,David 6989 35:19.6 34:12.9 11:01 2678 1369 Freeland MI
146 Johns,Ronald 5816 38:38.4 34:23.2 11:04 2707 1378 Dearborn MI
147 Vainner,Andrew 7830 38:46.2 34:46.4 11:12 2793 1402 Jackson, United States
148 Bauer,Jeffrey 4199 38:41.1 35:26.8 11:25 2898 1436 Milan MI
149 Frazier,Charles 5245 40:45.6 35:27.4 11:25 2903 1438 Byron Center MI
150 White,Ryan 8048 37:53.4 35:28.7 11:25 2906 1440 Ann Arbor MI
151 Lane,Jonathan 8550 36:24.6 35:36.4 11:28 2942 1451 Ann Arbor MI
152 Grod,Andrew 5449 40:25.5 35:36.8 11:28 2945 1452 Berea OH
153 Borer,Michael 9255 37:56.2 35:58.8 11:35 3013 1469
154 Labarrie,Al 6094 39:31.2 36:01.4 11:36 3021 1473 Ann Arbor MI
155 Kent,James 5931 40:35.2 36:08.9 11:38 3038 1477 Ann Arbor MI
156 Stewart,Andrew 9026 39:34.5 36:11.9 11:39 3045 1480 Ann Arbor MI
157 Lehman,Michael 6164 39:20.9 36:15.4 11:40 3049 1481 Huntington Woods MI
158 Espitia,Nicolaus 5104 38:37.8 36:38.2 11:48 3105 1506 Fowlerville United States
159 Grabell,Adam 8437 38:37.8 36:38.3 11:48 3107 1507 Ann Arbor MI
160 Harwood,Eddie 8948 40:18.2 37:05.6 11:56 3169 1528 Ann Arbor MI
161 Branham,Aaron 4412 41:18.1 37:15.5 12:00 3193 1534 Manchester MI
162 Bofarull,Borja 4348 40:29.9 37:27.5 12:03 3221 1544 Ann Arbor MI
163 Weiss,Ben 8000 41:41.7 37:49.1 12:10 3261 1559 Apartment 114 MI
164 Chinavare,Chad 8330 40:08.4 37:57.1 12:13 3272 1563 Brownstown MI
165 Boerkoel,James 4347 43:30.8 38:12.4 12:18 3313 1578 Ann Arbor MI
166 Thompson,Robert 7753 41:10.8 38:34.8 12:25 3377 1598 Ann Arbor MI
167 Connole,Michael 9305 42:06.0 38:39.0 12:26 3388 1604
168 Freeman,Doug 5249 44:29.5 38:59.8 12:33 3423 1612 London Canada
169 Hooks,Earl 5692 39:19.8 39:19.8 12:40 3451 1620 Wyandotte United States
170 Sharrow,Ryan 7379 43:17.3 39:27.5 12:42 3463 1624 Port Huron MI
171 Lafollette,Justin 6102 46:02.3 39:34.1 12:44 3479 1629 Union U.S.
172 Anderson,Charles 8264 43:32.7 39:48.1 12:49 3507 1638 Ann Arbor MI
173 Sisty,Adam 7446 43:24.3 40:00.4 12:53 3528 1644 Tecumseh MI
174 Choi,Calvin 4647 45:43.4 40:34.7 13:04 3568 1653 Chicago IL
175 Charlton,Michael 4633 40:42.1 40:42.1 13:06 3580 1656 Clinton MI
176 Nault,Michael 6672 47:08.0 41:23.0 13:19 3629 1673 Grass Lake MI
177 Searles,Tim 7354 44:10.4 41:31.9 13:22 3638 1676 Muskegon MI
178 Crabill,Brandon 4757 46:19.9 41:33.3 13:23 3641 1677 East Lansing MI
179 Brannock,Zach 8297 47:17.1 41:43.5 13:26 3663 1687 Tecumseh MI
180 Cullip,Patrick 4789 48:42.5 44:00.6 14:10 3808 1723 Ann Arbor MI
181 Newell,Charlie 8657 49:56.7 45:06.1 14:31 3855 1737 Ypsilanti MI
182 Uchtorff,Clint 7821 49:09.1 46:19.8 14:55 3943 1757 New Boston United States
183 Harris,Jeremy 592 50:58.3 46:49.3 15:04 3974 1766 Howell MI
184 Haley,Rob 9147 53:46.6 47:30.5 15:17 4017 1775
185 Quigley,Daniel 6996 54:12.5 49:17.3 15:52 4123 1803 Flint United States Of Ame
186 Siburt,David 7412 54:12.1 49:21.7 15:53 4129 1806 Highland MI
187 Brooks,Joseph 9409 56:15.4 49:31.3 15:56 4147 1811 Ann Arbor MI
188 Burns,Adam 4516 54:24.6 49:40.7 15:59 4151 1812 Rochester Hills United States
189 Peabody,David 8686 1:00:02.8 54:24.3 17:31 4371 1879 Ann Arbor MI
190 Stehney,Matthew 7581 57:03.8 57:03.8 18:22 4454 1901 Ann Arbor MI
191 Jones,James 5842 1:06:33.6 1:00:22.6 19:26 4593 1940 ST. Clair MI
192 Mcpherson,John 6455 1:07:52.7 1:01:19.3 19:44 4605 1944 Livonia MI
193 Wilson,David 8868 1:11:03.9 1:03:23.5 20:24 4640 1951 Ann Arbor MI
194 Hough,Robert 8478 1:07:08.4 1:04:59.9 20:55 4665 1958 Ann Arbor MI
195 Elders,Bradley 5060 1:14:47.6 1:08:06.1 21:55 4695 1967 Grandville MI
196 Boahene,Kojo 4340 1:14:59.8 1:08:15.1 21:58 4696 1968 Grand Rapids MI
Go To Top
30-34 Male
Overall Overall State/
Place Name Bib Gun Tag Pace Place by Sex City County
1 Uselding,Nate 9149 16:27.7 16:26.9 5:18 5 5
2 Brown,Adam 4449 18:24.6 18:19.1 5:54 23 23 Ann Arbor MI
3 Weber,Andrew 9037 18:28.0 18:26.6 5:56 26 25 Ann Arbor United States Of Ame
4 Imber,Chris 5756 18:52.4 18:50.5 6:04 36 35 Clarkston MI
5 ST.Onge,Brian 7553 18:59.6 18:57.5 6:06 41 40 Port Huron United States
6 Cohn,Aaron 4687 19:33.7 19:05.1 6:09 45 44 Ann Arbor MI
7 Martell,Raul 6332 19:23.7 19:12.7 6:11 52 50 Grosse Pointe Park United States
8 Mckissen,Brian 8612 19:23.4 19:21.7 6:14 57 55 Royal Oak MI
9 Kennedy,Steve 5925 19:58.4 19:56.0 6:25 86 79 Ann Arbor MI
10 Janci,Stephen 701 20:05.8 19:59.5 6:26 89 82 Farmington Hills United States
11 Fortner,Kevin 8935 20:05.8 20:02.2 6:27 93 85 Ann Arbor MI
12 Moore,Doug 9426 20:24.8 20:20.0 6:33 102 92 Pinckney United States
13 Jackson,Matt 5770 20:44.0 20:35.1 6:38 119 105 Royal Oak MI
14 Sutton,Evan 7678 24:02.2 21:19.7 6:52 158 141 White Lake MI
15 Bursch,Eric 4528 21:30.3 21:20.2 6:52 159 142 Ypsilanti MI
16 Preston,Jason 6965 21:36.1 21:25.2 6:54 165 148 Adrian MI
17 Beckwith,Jason 4220 21:43.6 21:33.2 6:56 176 159 Wayland United States
18 Moore,Jason 6575 25:23.4 21:36.8 6:57 183 166 Ann Arbor MI
19 Wilson,Christopher 8110 22:00.6 21:50.6 7:02 195 176 Metamora MI
20 Rutherford,James 7235 22:21.3 22:07.2 7:07 213 191 Fenton MI
21 Majmudar,Chinmay 8977 22:24.9 22:11.9 7:09 218 196 Ann Arbor United States
22 Li,Sai 6209 22:50.6 22:36.4 7:17 242 218 Ann Arbor MI
23 Turner Iii,Wil 7810 23:15.2 22:54.7 7:22 268 239 Ypsialnti MI
24 Trimboli,Brian 7786 23:18.7 23:01.7 7:25 276 247 Shelby Township MI
25 ST. Onge,Brad 7552 23:29.8 23:05.8 7:26 282 253 Port Huron United States
26 Rush,Jeremy 7219 23:32.9 23:13.5 7:29 296 264 Lansing MI
27 Fralick,Joe 5242 23:37.1 23:21.2 7:31 307 272 Stevensville MI
28 Dzierbicki,Jeff 5034 23:45.4 23:22.1 7:31 309 274 Troy MI
29 Sweeton,Dave 7694 23:48.0 23:22.7 7:31 311 276 Livonia MI
30 Matt,Tarek 8602 23:33.2 23:24.1 7:32 316 280 Canton MI
31 Koppman,Jerry 6018 24:00.5 23:31.8 7:34 327 286 Ann Arbor United States
32 Fay,Colm 5149 24:20.1 23:33.2 7:35 330 288 Ann Arbor MI
33 Emanuel,Michael 5084 24:11.8 23:40.8 7:37 347 301 Novi MI
34 Clapsadle,Michael 4670 24:11.1 23:46.0 7:39 355 307 Livonia United States
35 Lane,Andy 9231 24:37.8 23:46.4 7:39 357 309
36 Ellison,Josh 8391 24:16.7 23:50.9 7:41 369 316 Sylvania OH
37 O'connell,Daniel 6750 24:15.7 23:52.2 7:41 371 318 Ann Arbor MI
38 Hoops,Andrew 5693 24:16.2 23:59.5 7:43 392 330 Burton MI
39 Kring,Tim 6057 24:21.0 24:06.0 7:45 411 342 Niles Berrien
40 Flewelling,Brent 5213 24:25.7 24:09.8 7:47 415 345 Northville MI
41 Pritchett,Cedric 6976 24:45.6 24:14.9 7:48 436 358 Dexter MI
42 Turner,Chris 9264 24:53.1 24:20.2 7:50 443 363
43 Denman,Kevin 4894 24:47.8 24:28.3 7:53 466 377 Philadelphia PA
44 Schaufle,Rudy 9304 24:51.3 24:34.0 7:54 482 390
45 Layne,Joseph 8556 24:51.7 24:34.2 7:54 483 391 Southfield MI
46 Kunzelman,Chad 8544 24:55.8 24:39.3 7:56 492 396 Munith MI
47 Kovacik,Ken 6030 25:56.9 24:40.1 7:56 493 397 Roseville MI
48 Nienhuis,Brad 6713 25:03.4 24:40.8 7:57 496 400 Allendale United States
49 Thomas,Mike 7744 25:22.2 24:40.9 7:57 498 402 Temperance United States
50 Youngman,Mark 8206 25:28.3 24:43.6 7:58 508 410 Perrysburg OH
51 Koning,David 6011 25:30.4 24:47.8 7:59 521 416 Zeeland United States
52 Bergkoetter,Brenton 4276 25:41.6 24:55.5 8:01 537 430 Milford MI
53 Deckard,Dan 8358 25:37.8 24:57.4 8:02 545 434 Redford MI
54 Brachulis,Andrew 4399 25:07.6 24:58.1 8:02 547 436 Ann Arbor MI
55 Fields,Josh 5179 26:37.9 25:02.3 8:04 563 448 Ann Arbor United States
56 Alexander,Chris 8259 28:22.4 25:05.6 8:05 572 453 Maybee MI
57 Wascha,Eric 7962 27:32.9 25:07.4 8:05 573 454 Royal Oak MI
58 Watt,Will 7969 30:03.1 25:10.3 8:06 580 457
59 Birchok,Daniel 8289 25:48.8 25:10.8 8:06 581 458 Ann Arbor United States
60 Wilbert,Terrance 8070 30:59.5 25:11.3 8:06 583 460 Ypsilanti MI
61 Mayo,Michael 6386 26:35.2 25:17.3 8:08 593 465 Ypsilanti MI
62 Schulte,Nicholas 7334 25:49.2 25:19.5 8:09 601 471 Royal Oak MI
63 Mitchell,Joseph 6555 26:17.9 25:20.1 8:09 603 472 Ann Arbor MI
64 Tanner,Jeffrey 7707 27:45.0 25:30.6 8:13 637 492 Jasper United States
65 Moore,Jason 6574 30:03.5 25:37.3 8:15 666 507 Ypsilanti U.S.A.
66 Hamann,Rich 5518 26:16.5 25:40.0 8:16 676 513 Saline MI
67 Olson,Eric 9472 31:31.7 25:42.8 8:17 683 518 Ann Arbor United States
68 Buck,Ryan 8307 28:52.6 25:43.8 8:17 688 523 Ypsilanti MI
69 Malik,Anthony 6308 26:00.1 25:46.5 8:18 694 526 Maumee OH
70 Farrell,Tony 5145 30:25.6 25:52.3 8:20 709 536 Clinton MI
71 Mitchell,Ian 6554 26:49.0 25:55.4 8:21 723 548 Melvindale MI
72 Wei,Larry 7988 26:49.3 25:55.4 8:21 724 549 Melvindale MI
73 Yeip,Michael 8185 27:15.4 25:58.0 8:21 733 555 Macomb MI
74 Shah,Roshan 7375 29:05.7 26:06.3 8:24 766 573 Walled Lake MI
75 Bowen,David 4387 27:26.9 26:09.9 8:25 772 576 New Baltimore MI
76 Vandermarkt,Mike 7859 29:35.3 26:14.8 8:27 788 587 Jenison MI
77 Erickson,Max 5097 30:07.5 26:15.4 8:27 791 590 Tustin U.S.
78 Sandstrom,Matt 8759 28:48.5 26:15.9 8:27 793 592 Ann Arbor MI
79 Schwegler,Daniel 7340 27:21.4 26:17.1 8:28 795 593 South Lyon MI
80 Rincon,Mauricio 7113 27:34.6 26:32.4 8:33 834 613 Ann Arbor MI
81 Gilliam,Eric 8429 27:13.6 26:34.8 8:33 844 618 Belleville MI
82 Abbott,Greg 8891 27:08.0 26:35.7 8:34 849 620 Tecumseh MI
83 Clark,Matthew 4674 27:48.1 26:35.7 8:34 850 621 Lowell United States
84 Glovick,Lee 5372 28:28.4 26:40.0 8:35 862 626 Conklin United States
85 Mueller,Corey 8646 29:09.6 26:42.6 8:36 870 629 Davison MI
86 Bentley,Steve 4270 27:31.5 26:47.6 8:37 885 637 Ann Arbor MI
87 Holdgreve-resendez,Richard 5682 27:31.5 26:47.7 8:37 886 638 Ann Arbor MI
88 Brown,Aaron 4448 28:08.6 26:55.3 8:40 915 653 Fairgrove MI
89 Pitsch,Michael 6932 27:35.1 26:57.5 8:41 923 656 Ann Arbor MI
90 Johnson,David 9216 28:02.8 26:57.9 8:41 926 657
91 Hadden,Brent 5488 27:26.4 27:03.4 8:43 947 669 Allendale MI
92 Aldrich,Nich 8258 29:14.2 27:06.8 8:44 955 675 Garden City MI
93 Bitzer,Tyson 4314 28:09.6 27:08.7 8:44 963 678 Caro MI
94 Wright Ii,Donald 9043 28:40.6 27:19.3 8:48 993 693 South Lyon MI
95 Eiler,Christian 5050 31:04.1 27:29.7 8:51 1029 711 Williamston MI
96 Lemonnier,Guy 6181 28:49.3 27:32.0 8:52 1036 714 Sylvania OH
97 Valasek,Michael 7832 28:05.9 27:33.1 8:52 1041 718 Owosso MI
98 Dewitt,John 4921 28:14.4 27:35.0 8:53 1047 723 Ann Arbor MI
99 Jackson,Pete 5772 30:05.2 27:35.5 8:53 1051 725 Morton Grove United States
100 Chenault,Robert 8328 30:32.0 27:40.3 8:54 1059 729 Ann Arbor MI
101 Delonis,Martin 4887 28:20.9 27:40.7 8:55 1060 730 Ann Arbor MI
102 Skinner,Jason 7458 29:49.3 27:41.6 8:55 1063 733 Fenton U.S.A
103 Mosher,Cory 6600 30:59.7 27:48.4 8:57 1086 743 Howell United States
104 Errer,Ryan 8395 30:57.4 27:49.9 8:57 1089 746 Ann Arbor United States
105 Miller,Michael 6528 29:04.4 27:57.1 9:00 1126 758 Kalamazoo MI
106 Schwartz,Brian 7338 30:56.7 27:57.4 9:00 1128 760 West Bloomfield MI
107 Staton,Peter 7571 32:18.8 28:00.2 9:01 1140 764 Ann Arbor MI
108 Middaugh,Darel 6502 30:06.1 28:01.3 9:01 1145 767 Ypsilanti MI
109 O'leary,James 8666 30:16.6 28:07.1 9:03 1166 774 Westland MI
110 Matt,Weber 9464 29:01.6 28:11.1 9:04 1178 780
111 Dou,Zhicheng 4971 31:21.5 28:13.9 9:05 1192 790 Ann Arbor MI
112 Thomey,Marques 7746 28:57.9 28:17.4 9:06 1205 794 Plymouth MI
113 Mach,Joe 6278 31:55.0 28:22.6 9:08 1220 801 Linden MI
114 Volk,David 7911 29:01.4 28:28.9 9:10 1238 808 Blissfield MI
115 Bleckman,Marc 4328 33:39.1 28:33.8 9:12 1272 822 Ann Arbor MI
116 Harrington,Christopher 5539 30:27.4 28:42.9 9:15 1315 840 Farmington MI
117 Tuttle,James 7813 30:10.0 28:44.9 9:15 1323 844 Ann Arbor United States
118 Mcdonough,Bradley 6427 30:06.3 28:46.0 9:16 1330 848 Piymouth Livingston
119 Mcdonald,Martin 6426 30:46.2 29:01.3 9:20 1395 879 Ann Arbor MI
120 Earl,Bryan 5035 31:40.0 29:03.1 9:21 1397 880 Whitmore Lake United States
121 Sweeder,Ryan 7691 31:04.6 29:05.4 9:22 1406 887 Williamston MI
122 Susi,Peter 7674 31:22.7 29:10.8 9:24 1420 895 Ann Arbor MI
123 Lommerse,Jason 6228 31:09.1 29:11.2 9:24 1422 897 Belleville MI
124 Vasquez,Dante 9403 33:07.2 29:19.3 9:26 1449 909 Ann Arbor MI
125 Parikh,Sachin 6832 30:12.4 29:20.0 9:26 1451 911 Ann Arbor MI
126 Abler,Ben 4004 39:53.6 29:27.2 9:29 1482 930 Novi MI
127 Gonzalez-cota,Alan 8436 33:34.0 29:36.8 9:32 1528 954 Ann Arbor MI
128 Mouton,Jeffry 8644 34:05.5 29:38.6 9:32 1539 955 Ann Arbor MI
129 Beard,Kristen 4207 32:48.2 29:43.9 9:34 1568 966 Belleville MI
130 Chong,Timothy 4651 31:49.6 29:54.4 9:38 1622 995 Ann Arbor United States
131 Bienvenu,Kesner 4305 32:20.6 29:59.9 9:39 1645 1002 Chicago IL
132 Fisher,Jacob 5191 32:06.9 30:00.0 9:39 1646 1003 Plymouth MI
133 Taylor,Mike 7715 34:49.1 30:13.4 9:44 1693 1020 Ann Arbor MI
134 Witenbach,Josh 9120 36:12.3 30:16.5 9:45 1710 1023
135 Smith,Curtis 7476 31:24.8 30:19.7 9:46 1733 1032 Fowlerville MI
136 Dickerson,Damon 4928 36:15.0 30:31.8 9:50 1788 1058 Kalamazoo U.S.
137 Benoit,Jeff 4264 35:48.5 30:43.6 9:53 1824 1070 Richmond United States
138 Cave,Travis 4612 35:38.2 30:52.5 9:56 1856 1081 Ashland IL
139 Rigley,Bill 7111 31:33.3 30:55.8 9:57 1863 1083 Livonia U.S.
140 Dilsizian,Kyle 4938 35:30.6 31:17.9 10:04 1955 1126 S Rockwood MI
141 Ho,Peter 5660 33:56.7 31:18.4 10:05 1959 1129 Ann Arbor MI
142 Yuskowatz,Michael 8210 32:08.3 31:19.3 10:05 1962 1131 Whitmore Lake MI
143 Connelly,Jason 4709 35:32.0 31:19.9 10:05 1970 1132 Canton MI
144 Mcfarland,Patrick 8982 37:24.5 31:22.8 10:06 1979 1134 Clinton Twp MI
145 Bottini,Dave 8293 33:32.1 31:33.3 10:09 2036 1149 Brownstown MI
146 Avink,Hank 4111 38:41.2 31:35.1 10:10 2039 1151 Richland MI
147 Holmes,Michael 5688 32:48.9 31:40.4 10:12 2054 1155 Kalamazoo United States
148 Lopez,Mick 8569 38:25.5 31:51.9 10:15 2111 1169 Union OH
149 Johnson,Mark 5830 33:28.1 31:54.3 10:16 2128 1175 Marshall United States
150 Elkadri,Mohamed 5069 34:31.7 31:54.4 10:16 2131 1178 Dearborn United States
151 Khraizat,Ali 5939 34:11.2 32:04.4 10:19 2173 1191 Dearborn MI
152 Bell,Jeff 4243 38:49.1 32:16.3 10:23 2221 1212 Ann Arbor MI
153 Mcmichael,James 6449 37:16.8 32:19.3 10:24 2233 1217 Dexter MI
154 Fill,Michael 5184 34:58.3 32:26.7 10:27 2262 1228 Dexter MI
155 Cornell,Jason 4737 37:31.3 32:37.9 10:30 2311 1243 Tecumseh MI
156 Rife,Dan 7108 36:18.8 33:03.8 10:39 2426 1283 Ann Arbor MI
157 Henson,Jeremy 5610 36:15.8 33:19.8 10:44 2479 1303 Plymouth MI
158 Mcclain,Erik 6403 36:12.9 33:20.7 10:44 2485 1306 Canton MI
159 Atkins,Ryan 4105 37:54.9 33:27.9 10:46 2512 1316 Okemos United States
160 Czarnecki,Wayne 4809 36:47.1 33:28.1 10:46 2513 1317 Jenison MI
161 Mesnard,Kent 6488 35:41.5 33:37.2 10:49 2545 1329 Brighton MI
162 Watts,Kevin 7971 38:32.6 33:43.3 10:51 2573 1337 Dearborn United States
163 Falko,Todd 5139 39:07.8 33:45.1 10:52 2577 1340 West Bloomfield MI
164 Iley,Michael 5752 36:54.0 33:47.1 10:52 2582 1342 Berkley MI
165 Smith,Daniel 7477 39:04.7 34:16.0 11:02 2681 1370 Ann Arbor MI
166 Hlalo,Fortune 5659 39:56.9 34:16.1 11:02 2682 1371 Lansing MI
167 Travis,John 7782 36:16.3 34:22.2 11:04 2702 1375 Ann Arbor MI
168 Brooks-heath,Sooner 4445 39:12.7 34:31.7 11:07 2736 1386 Ypsilanti MI
169 Ventura,Justin 7885 39:40.3 34:32.7 11:07 2743 1387 Canton MI
170 Hawley,Shawn 5568 39:57.6 34:53.9 11:14 2815 1409 Ann Arbor MI
171 Dielman,Ron 4932 38:45.7 35:15.8 11:21 2864 1423 Perrysburg OH
172 Richards,Chris 7087 38:56.4 35:22.7 11:23 2890 1433 Ypsilanti MI
173 Messina,Zachary 6489 39:02.2 35:23.3 11:23 2893 1434 Canton United States
174 Riddle,Matthew 9297 42:11.8 35:34.4 11:27 2931 1447
175 Ressler,Theodore 7074 40:15.3 35:43.9 11:30 2970 1460 Ann Arbor MI
176 Turowski,Scott 7812 38:05.4 36:08.8 11:38 3036 1476 Canton MI
177 Burdette,Gabriel 4499 40:24.2 36:30.6 11:45 3082 1496 Milan MI
178 Guinn,Mark 5468 42:00.3 36:58.0 11:54 3151 1520 Dearborn MI
179 Mitchell,Brett 6553 41:02.7 37:03.1 11:56 3157 1524 Ann Arbor MI
180 Tepper,Justin 7727 41:16.1 37:06.8 11:57 3173 1529 Dearborn MI
181 Hawkins,Troy 8463 40:16.7 37:10.4 11:58 3180 1531 Indianapolis IN
182 Meier,Duane 6461 41:19.3 37:14.5 11:59 3190 1532 Warren MI
183 Gilliland,Robert 5358 43:59.4 38:03.4 12:15 3286 1567 Holland OH
184 Izah,Sylvester 5767 41:54.5 38:05.5 12:16 3290 1568 Farmington Hills MI
185 Fuerst,Todd 5273 39:12.4 38:10.1 12:17 3305 1573 Midland United States
186 Brewster,Trevor 4429 42:02.3 38:15.5 12:19 3323 1582 Ann Arbor MI
187 Khivansara,Vishal 8533 41:16.6 38:27.2 12:23 3363 1594 Ann Arbor MI
188 Hickey,Roy 5629 41:47.1 38:53.9 12:31 3415 1611 Dundee MI
189 Campbell,Jeff 4561 39:33.0 39:33.0 12:44 3476 1627 Berkley MI
190 Waters,Michael 7967 44:40.2 39:42.9 12:47 3496 1635 Adrian MI
191 Torrez,Jason 7776 43:30.5 39:58.5 12:52 3523 1642 Northville MI
192 Bott,Ted 4377 46:28.8 40:11.2 12:56 3543 1649 Carleton MI
193 Wisniewski,Andrew 8127 47:21.3 40:56.6 13:11 3609 1667 South Lyon MI
194 Modlin,Devon 6559 46:19.7 41:35.1 13:23 3650 1682 Brownstown MI
195 Line,Charles 6217 46:44.2 43:18.3 13:56 3758 1711 Troy MI
196 Caldwell,Bob 4554 46:46.6 43:38.9 14:03 3778 1716 Saline MI
197 Lusk,Chris 6259 48:57.3 44:28.2 14:19 3822 1726 Woodhaven United States
198 French,Trevor 5259 51:34.3 45:17.0 14:34 3864 1741 Cadillac MI
199 Lund,Eric 6257 51:34.0 45:17.0 14:34 3865 1742 Oak Park United States
200 Kim,Yun-gi 5949 53:06.7 45:37.0 14:41 3892 1745 Ann Arbor MI
201 Hotta,Natsumoto 5705 53:05.9 45:37.7 14:41 3894 1747 Ann Arbor MI
202 May,Eric 6382 48:41.6 45:50.4 14:45 3911 1750 Ann Arbor MI
203 Wietzke,Brian 9400 50:22.2 46:17.0 14:54 3940 1756 Ann Arbor MI
204 Aikey,Justin 4030 47:54.4 46:24.1 14:56 3946 1758 Trenton MI
205 Pinsky,Matthew 9001 52:59.9 46:36.6 15:00 3960 1764 Ann Arbor MI
206 Roebuck,Landry 7149 53:53.3 46:58.0 15:07 3982 1768 Northville Wayne
207 Miller,Jason 8630 51:42.4 48:12.6 15:31 4057 1786 Birmingham MI
208 Morrow,Jonathan 6593 49:55.5 48:20.1 15:33 4064 1788 Ann Arbor MI
209 Stuart,Mike 7644 54:17.0 48:40.8 15:40 4085 1795 Pleasant Lake MI
210 Dibartolo,Nick 4926 56:04.9 49:18.0 15:52 4125 1804 Saline MI
211 Williams,Dustin 8092 56:29.7 50:55.4 16:23 4208 1827 Dexter United States
212 Chun,Tony 4659 54:45.4 51:55.0 16:43 4256 1842 Canton MI
213 Wood,Michael 8144 57:23.1 51:56.8 16:43 4260 1843 Novi MI
214 Stallard,Kyle 1467 56:17.4 52:06.2 16:46 4265 1845 South Lyon MI
215 Nofs,Michael 6727 59:30.4 53:15.1 17:08 4320 1861 Battle Creek MI
216 Willoughby,Ryan 8107 59:09.6 53:17.4 17:09 4323 1862 Allen Park United States
217 Neuman,Scott 6693 59:14.4 53:24.3 17:11 4331 1864 Brooklyn MI
218 Girdwood,John 9270 56:40.1 53:53.5 17:21 4340 1867
219 Murray,Dave 6640 59:23.6 54:12.6 17:27 4360 1873 Ann Arbor United States
220 Beymer,Jason 4299 1:02:23.2 55:21.6 17:49 4404 1889 Ypsilanti MI
221 Elfline,Eric 8389 1:05:35.1 58:18.0 18:46 4515 1917 Howell MI
222 King,David 5953 1:04:12.9 58:23.8 18:48 4522 1920 West Bloomfield MI
223 Romero,Eric 7165 1:04:12.5 58:25.8 18:48 4528 1922 Canton MI
224 Yatzek,Derrick 8179 1:04:11.2 59:25.2 19:07 4555 1928 Adrian MI
225 Desentz,Jason 4907 1:08:32.7 59:38.4 19:12 4563 1929 Medina OH
226 Roberts,Ken 7125 1:10:21.0 1:00:05.4 19:20 4577 1934 Britton MI
227 Esterline,Dane 5106 1:10:37.3 1:00:21.8 19:26 4591 1939 Tecumseh MI
228 Tomalia,Jason 7773 1:10:45.2 1:03:22.3 20:24 4637 1950 Ann Arbor MI
229 Eggertsen,Brian 5044 1:11:51.8 1:04:40.8 20:49 4655 1954 Ann Arbor MI
230 Vasquez,Luis 7879 1:10:33.1 1:05:00.3 20:55 4667 1959 Walled Lake United States
231 Jahnke,James 8954 1:06:09.6 1:06:09.6 21:18 4685 1964 Royal Oak MI
232 Albright,Jeremy 4038 1:11:36.9 1:11:36.9 23:03 4728 1977 Ypsilanti MI
Go To Top
35-39 Male
Overall Overall State/
Place Name Bib Gun Tag Pace Place by Sex City County
1 Pariano,Anthony 6831 16:58.9 16:58.8 5:28 12 12 Ann Arbor United States
2 Trustman,Robert 7796 18:43.5 18:39.3 6:00 32 31 Ypsilanti MI
3 Baker,Denny 4145 18:56.2 18:53.0 6:05 38 37 Hartland MI
4 Styrna,Joe 9473 19:28.4 19:10.0 6:10 49 47 Ann Arbor United States
5 Aseirsson,Theodor 8898 19:55.0 19:43.0 6:21 73 69 Ann Arbor MI
6 Bockey,James 4341 19:48.2 19:45.4 6:22 75 71 Temperance MI
7 Kerber,Kevin 5932 19:58.3 19:53.7 6:24 83 77 Ann Arbor MI
8 Stec,Deron 9282 20:02.3 20:00.2 6:26 90 83
9 Suliman,Adam 7663 20:33.7 20:25.9 6:35 109 97 Ypsilanti MI
10 Hudson,Greg 5729 20:36.7 20:30.3 6:36 116 102 Temperance MI
11 Hammond,Douglas 5522 23:46.0 20:56.0 6:44 135 121 Plymouth United States Of Ame
12 Castleman,Bill 4604 21:32.5 21:26.8 6:54 167 150 Canton MI
13 Wells,Ronald 8010 21:36.9 21:28.6 6:55 168 151 Petersburg MI
14 Kenney,Jason 5929 21:33.4 21:30.3 6:55 169 152 Walled Lake MI
15 Kirkey,Jeff 5970 22:01.0 21:44.9 7:00 193 174 Dexter MI
16 Weidmayer,Jeff 7992 22:35.8 22:12.5 7:09 219 197 Ann Arbor MI
17 Eleazar,Drew 5066 22:43.9 22:29.9 7:14 235 211 Saline MI
18 Wilson,Matthew 8113 22:39.9 22:32.2 7:15 238 214 Hamburg MI
19 Leagon,Thomas 6139 23:17.2 22:35.4 7:16 240 216 Canton MI
20 Arens,Dave 4088 22:41.4 22:36.5 7:17 243 219 Sherwood United States
21 Balcom,Jason 8274 23:08.8 22:49.5 7:21 256 230 Ann Arbor MI
22 Smith,Eryn 7481 23:18.2 22:52.2 7:22 263 234 Ypsilanti MI
23 Lucas,Brooks 6246 23:15.8 23:02.1 7:25 278 249 Caillac MI
24 Van Norman,Paul 7849 23:15.9 23:02.2 7:25 279 250 Fenton MI
25 Kozloff,Ken 8542 23:28.8 23:09.6 7:27 289 259 Ann Arbor MI
26 Bain,Jeffery 4136 23:29.9 23:10.2 7:27 292 260 Riverview MI
27 Sreniawski,Louis 7548 23:48.4 23:10.3 7:27 293 261 Flat Rock MI
28 Oesch,Jim 9437 23:21.1 23:14.0 7:29 298 266 Lake Odessa MI
29 West,Brian 8861 23:44.5 23:16.5 7:29 303 268 Highland MI
30 Mcdonald,Don 6424 23:35.2 23:22.5 7:31 310 275 Howell MI
31 Jansson,Peter 5792 23:44.7 23:30.4 7:34 323 284 Fenton MI
32 Chang,Richard 4626 24:01.9 23:48.4 7:40 361 312 Ypsilanti MI
33 Mcgarty,Peter 8608 24:20.4 23:52.6 7:41 374 320 Ypsilanti MI
34 Warren,Jim 9036 25:25.8 24:01.2 7:44 397 333 Brooklyn MI
35 Webb,Terry 8855 24:12.0 24:02.6 7:44 400 335 Parma MI
36 Brown,William 4467 24:31.4 24:03.8 7:45 403 336 Royal Oak MI
37 Iacofano,Jeff 5747 25:31.3 24:06.0 7:45 410 341 Ypsilanti Washtenaw
38 Cramer,Jesse 4763 30:06.8 24:14.2 7:48 431 354 Ann Arbor United States
39 Jha,Rakesh 8496 26:34.4 24:14.3 7:48 433 356 Worthington United States
40 Roeder,Keith 7154 25:54.7 24:20.1 7:50 442 362 Ypsilanti United States
41 Borys,Jeremy 4372 24:38.9 24:20.3 7:50 444 364 Plymouth MI
42 Kunimitsu,Kazuhiro 6086 24:44.2 24:27.5 7:52 463 374 Ann Arbor MI
43 Hatcher,Robert 5559 24:58.6 24:33.8 7:54 480 388 South Lyon MI
44 Chevalier,Jeremy 4642 25:34.3 24:40.5 7:57 494 398 Ypsilanti MI
45 Hanke,James 5527 25:35.1 24:41.6 7:57 501 404 Ypsilanti MI
46 Cook,Eric 4720 25:37.1 24:53.7 8:01 535 428 Toledo OH
47 Farrington,William 5146 25:43.0 24:57.0 8:02 544 433 Westland United States
48 Dudek,Stephen 5008 25:26.4 25:00.6 8:03 554 440 Livonia United States
49 Bath,Bill 4194 28:54.2 25:05.0 8:04 571 452 Petoskey MI
50 Kasza,Matthew 8519 28:54.5 25:09.3 8:06 576 456 Sylvania United States
51 Smith,Derrick 7480 25:43.9 25:15.3 8:08 588 463 Ann Arbor MI
52 Dahms,Jeff 4814 26:37.5 25:17.0 8:08 591 464 Saline United States
53 Pirrwitz,Kevin 6930 28:13.8 25:19.0 8:09 599 469 Delta OH
54 Hoover,Billy 5694 27:42.5 25:21.1 8:10 607 475 Howell MI
55 Barnes,Chris 4177 26:13.4 25:23.1 8:10 612 477 Grand Rapids MI
56 Harfoot,Mike 5532 26:14.1 25:25.4 8:11 618 481 Wolverine Lake United States
57 Olson,Mike 6779 26:40.6 25:32.3 8:13 644 496 Ypsilanti MI
58 Weideman,Larry 9332 26:33.5 25:33.1 8:13 648 498
59 Howard,Jeff 5710 27:55.6 25:35.4 8:14 660 502 Tecumseh MI
60 Johnson,Keith 5827 30:03.4 25:38.7 8:15 672 509 Ypsilanti U.S.A.
61 Lulek,Bobby 8574 26:40.7 25:42.0 8:16 679 515 Milford MI
62 Oga,Akira 8664 27:17.2 25:54.1 8:20 718 543 West Bloomfield MI
63 Budres,Dan 4487 30:40.5 25:59.9 8:22 740 560 Saline MI
64 Maier,Jeff 6295 26:53.8 26:23.0 8:30 813 601 Macomb MI
65 Sanders,Tim 7276 26:51.9 26:24.3 8:30 817 605 Dexter MI
66 Ptasznik,Anthony 6986 27:35.5 26:32.0 8:32 831 611 Plymouth MI
67 Sammut,Greg 7271 28:44.3 26:33.9 8:33 841 617 Dearborn MI
68 Snedeker,Jeff 7513 27:42.1 26:35.1 8:33 846 619 Rockford MI
69 Abbott,Doug 8890 27:07.8 26:35.8 8:34 851 622 Tecumseh MI
70 Beardsley,John 4210 27:43.7 26:55.1 8:40 912 651 Farmington Hills MI
71 Orvis,Dennis 6795 28:30.6 26:58.8 8:41 932 661 Ann Arbor MI
72 Zahradnik,Mark 8881 27:27.9 27:00.2 8:41 938 664 Commerce Twp MI
73 Falconer,Boyd 5134 27:59.7 27:06.9 8:44 956 676 Ann Arbor MI
74 Anderson,Scott 4074 27:19.6 27:09.5 8:44 967 679 Ypsilanti MI
75 Drake,Michael 4994 34:09.8 27:16.6 8:47 985 689 Ann Arbor MI
76 Zuiderveen,Kirt 9048 28:08.6 27:23.0 8:49 1006 701 Jenison MI
77 Gupta,Sanjaya 5476 28:23.7 27:32.6 8:52 1038 716 Dexter MI
78 Staelgraeve,Jon 7555 29:32.6 27:33.9 8:52 1042 719 Monroe MI
79 Roberts,Robert 7130 29:06.0 27:35.1 8:53 1049 724 Howell United States
80 Crowley,Matthew 4779 28:19.0 27:48.3 8:57 1085 742 Williamsville United States
81 Jekos,Lee 5804 28:36.7 27:49.9 8:57 1090 747 New York United States
82 Fielder,Justin 5177 28:12.7 27:50.3 8:58 1091 748 Byron Center MI
83 Tripoli,Michael 7787 28:54.9 27:57.1 9:00 1127 759 Northville MI
84 Miller,Troy 6537 28:29.4 28:00.1 9:01 1139 763 Ann Arbor MI
85 Mills,Shaun 6539 31:44.0 28:04.9 9:02 1158 770 Holt MI
86 Bungart,Scott 8308 29:03.5 28:13.3 9:05 1187 786 Mason MI
87 Boorman JR.,Harold 4362 29:03.2 28:13.5 9:05 1190 788 Cement City MI
88 Seltz,Pete 7370 30:13.1 28:17.2 9:06 1204 793 Ypsilanti MI
89 Dionne,Bill 4942 32:09.6 28:28.7 9:10 1237 807 Berkley MI
90 Freisthler,Jeff 5257 29:28.1 28:29.0 9:10 1241 810 Ann Arbor MI
91 Marco,Daniel 9323 33:37.1 28:31.3 9:11 1253 814
92 Hopper,Derick 5699 28:50.3 28:32.6 9:11 1259 818 Monroe MI
93 Miller,Thomas 6535 30:13.4 28:32.8 9:11 1261 819 Ann Arbor MI
94 Hsu,David 5715 31:26.5 28:35.6 9:12 1284 829 Ann Arbor U.S.
95 Shaw,Steve 7387 29:43.0 28:36.0 9:12 1287 831 Chelsea MI
96 Griswold,Jason 5447 28:56.9 28:36.7 9:13 1289 832 Warren MI
97 Anderson,Mark 4071 30:07.7 28:43.8 9:15 1319 842 Novi MI
98 Hawkins,Russell 5566 32:29.8 28:51.1 9:17 1346 855 Clinton United States
99 Baker,Michael 4152 28:58.2 28:53.6 9:18 1365 864 Dexter MI
100 Thomas,Gerald 7740 30:44.6 28:55.6 9:19 1373 869 Monroe MI
101 Johnson,Neil 8502 32:23.1 28:56.2 9:19 1375 870 Ann Arbor MI
102 Wagner,Jeffrey 7925 29:15.6 28:57.4 9:19 1381 873 Temperance MI
103 Gunsberg,Ben 8445 34:30.8 29:01.0 9:20 1393 878 Ann Arbor United States
104 Swanson,Jason 7686 30:28.9 29:04.9 9:22 1405 886 Oswego United States
105 Walters,Jeff 7952 33:18.1 29:10.4 9:23 1419 894 Ann Arbor MI
106 Brasher,Anthony 4414 32:33.2 29:16.3 9:25 1437 904 Ann Arbor MI
107 Madden,Chris 8973 37:31.4 29:27.6 9:29 1484 931 Ann Arbor MI
108 Nelson,Matt 6684 32:43.7 29:31.3 9:30 1499 940 Ann Arbor MI
109 Falk,Corey 5137 33:30.8 29:33.1 9:31 1510 947 Grand Rapids MI
110 Coetzee,Andries 4682 32:01.7 29:35.7 9:32 1515 950 Ann Arbor MI
111 Thorburn,Loren 7756 31:40.7 29:36.4 9:32 1522 952 Chelsea MI
112 Sadler,Andrew 7255 32:40.9 29:36.4 9:32 1523 953 Ann Arbor MI
113 Pav,Brent 8685 34:04.8 29:38.9 9:33 1541 956 Ann Arbor MI
114 Huber,Kurt 5728 31:15.9 29:46.5 9:35 1575 971 Toledo OH
115 Hilling,Scott 5646 32:18.0 29:50.1 9:36 1597 982 Livonia United States
116 Lemerond,Brian 6171 30:50.5 29:50.5 9:36 1601 984 Clarkston MI
117 Bodkin,Benjamin 4343 31:03.6 29:52.4 9:37 1608 989 Eaton Rapids MI
118 Miller,Jamie 6521 32:28.3 30:10.1 9:43 1676 1015 Canton MI
119 Graber,Joseph 5412 31:43.6 30:14.3 9:44 1701 1021 Three Rivers MI
120 Stoner,Shawn 8803 32:27.3 30:17.2 9:45 1718 1026 Ann Arbor Washtenaw
121 Felosak,Jason 5162 31:12.1 30:19.3 9:46 1731 1031 Macomb MI
122 Monchamp,Robert 8641 33:10.2 30:24.0 9:47 1753 1041 Ann Arbor MI
123 Wonnacott,Rob 8143 33:08.0 30:34.6 9:50 1797 1061 Ypsilanti MI
124 Binge,Brad 4309 37:41.4 30:44.1 9:54 1827 1071 Plymouth MI
125 Benoit,Thomas 4265 35:51.3 30:45.5 9:54 1830 1072 Milan United States
126 Newton,Andrew 6699 33:48.0 30:50.9 9:56 1849 1077 Ypsilanti MI
127 Early,Jason 5036 33:29.7 31:12.8 10:03 1936 1115 East Lansing MI
128 Greathead,Mark 5428 34:35.6 31:29.2 10:08 2014 1141 Brownstown U.S.
129 Hawn,Michael 5571 36:00.6 31:31.9 10:09 2025 1147 Portage United States
130 Sandler,Stuart M 7277 33:38.4 31:51.1 10:15 2108 1168 Ann Arbor MI
131 Ellis,Jay 5077 38:32.2 31:57.6 10:17 2146 1183 Ann Arbor MI
132 Siminovich,Sandro 9294 33:24.9 31:58.9 10:18 2149 1184
133 Lindblade,Sean 8563 34:43.1 32:01.5 10:18 2160 1188 Ann Arbor MI
134 Abernathy,Rich 4003 38:04.9 32:04.9 10:20 2177 1194 ST. Clair Shores MI
135 Iloff,Christopher 5755 36:19.7 32:13.2 10:22 2208 1207 Berkley MI
136 Lisker,David 6219 33:39.9 32:21.1 10:25 2241 1221 Monroe MI
137 Watson,William 8852 33:35.9 32:28.6 10:27 2269 1229 Brighton MI
138 Bassett,John 4190 34:08.7 32:33.7 10:29 2290 1239 Ann Arbor United States
139 Poljanac,Matt 6942 37:32.2 32:40.6 10:31 2328 1252 Ypsilanti MI
140 Stroud,John 8805 34:26.6 32:43.5 10:32 2344 1258 Ann Arbor MI
141 Whitcomb,Shepherd 8036 36:19.3 32:44.9 10:32 2349 1259 Ann Arbor MI
142 Carvette,Brian 4596 32:49.8 32:45.5 10:33 2355 1260 Ann Arbor MI
143 Wagner,Matt 7927 37:56.6 32:52.4 10:35 2391 1273 Maumee OH
144 Grimes,Anthony 5445 34:11.4 33:15.5 10:42 2459 1291 Ann Arbor MI
145 Williams,Sean 8102 36:09.2 33:18.4 10:43 2472 1300 Stockbridge MI
146 Waite,Benoit 7934 37:21.5 33:23.9 10:45 2492 1308 Ypsilanti MI
147 Thomas,David L 7739 39:04.9 33:25.9 10:46 2504 1314 Ann Arbor MI
148 Elliott,Shawn 5075 39:21.5 33:41.1 10:51 2555 1333 Westland MI
149 Ranville,Matthew 7027 37:02.0 33:41.3 10:51 2556 1334 Ann Arbor MI
150 Adams,Matthew 4021 40:08.1 33:41.4 10:51 2557 1335 South Lyon MI
151 Lampman,Brian 9097 34:40.3 33:44.7 10:52 2575 1338
152 Botica,John 4375 39:03.9 33:45.6 10:52 2579 1341 Ypsilanti United States
153 Dalley,Matthew 4819 39:46.0 33:51.1 10:54 2598 1348 Plymouth MI
154 Paterson,Andrew 6845 41:31.6 33:52.5 10:54 2607 1352 Ann Arbor MI
155 West,Justin 8025 37:00.0 33:54.6 10:55 2612 1353 Grand Blanc MI
156 Baylerian,Adam 4204 40:24.9 33:55.2 10:55 2613 1354 Troy MI
157 Medford,Jody 8985 41:10.6 33:55.8 10:55 2614 1355 Waterford MI
158 Long,Travis 6232 37:44.3 33:56.8 10:56 2620 1356 Ypsilanti MI
159 Block,Shawn 4336 34:32.0 34:06.5 10:59 2650 1359 Flat Rock United States
160 Carlson,Brad 4576 37:10.4 34:07.4 10:59 2652 1360 Ypsilanti MI
161 Michalak,Eric 6494 37:10.8 34:07.6 10:59 2653 1361 Northville MI
162 Dorman,Brian 4966 35:56.0 34:22.8 11:04 2706 1377 Scotts MI
163 Tsai,Tony 7797 36:41.2 34:26.4 11:05 2716 1382 Ann Arbor MI
164 Gold,Justin 5378 41:51.7 34:26.5 11:05 2717 1383 Ann Arbor MI
165 Englesbe,Michael 5089 41:19.1 34:42.3 11:10 2773 1397 Ann Arbor MI
166 Hill,Knut 5643 36:25.4 34:42.7 11:10 2775 1398 Ann Arbor MI
167 Harrigan,Geoff 8458 35:48.6 34:44.9 11:11 2783 1399 Ann Arbor MI
168 Miller,Ricky 6532 40:05.6 34:46.8 11:12 2794 1403 Canton United States
169 Hudson,Matthew 5731 39:41.1 34:53.3 11:14 2810 1408 Milan MI
170 Brichta,Brian 4430 40:28.0 34:59.8 11:16 2830 1411 Ann Arbor MI
171 Gardner,Jonathan 5295 37:36.2 35:09.1 11:19 2849 1419 Ypsilanti MI
172 Harrington,Wes 8461 40:37.8 35:20.9 11:23 2884 1432 Ann Arbor MI
173 Olk,Matthew 6771 40:40.3 35:26.9 11:25 2899 1437 Saginaw MI
174 Snedeker,Mike 7514 38:27.3 35:47.7 11:31 2984 1462 Wernersville PA
175 Ross,Scott 7185 40:49.1 35:57.9 11:35 3012 1468 Flint MI
176 Barczak,Tom 4170 38:44.7 36:03.7 11:36 3026 1474 Portland MI
177 Russell,Bobby 7223 40:47.3 36:26.1 11:44 3071 1491 Milan MI
178 Davis,Michael 4852 39:45.5 36:34.0 11:46 3094 1499 Dexter MI
179 Roberts,Jim 7121 45:28.9 36:36.1 11:47 3102 1504 Clinton United States
180 Rodgers,Tom 7147 43:38.4 36:40.4 11:48 3108 1508 Shelby Twp MI
181 Fountain,Jason 5231 40:25.2 36:43.1 11:49 3113 1509 West Bloomfield MI
182 Gallo,Ryan 5292 42:07.6 36:54.0 11:53 3138 1517 Commerce Twp United States
183 Stone,Mike 7619 44:15.7 36:55.6 11:53 3142 1519 Ann Arbor MI
184 Kovacik,John 6029 41:19.5 37:15.1 11:59 3192 1533 Sterling Heights MI
185 Waddington,Ryan 7920 42:57.6 37:15.8 12:00 3194 1535 Dexter United States
186 Root,Tom 7171 42:38.1 37:25.3 12:03 3216 1541 Ann Arbor MI
187 York,Phil 8192 42:41.6 37:26.0 12:03 3218 1542 Saline MI
188 Wirebaugh,Derek 8122 43:43.6 37:39.5 12:07 3238 1552 Holland MI
189 Schreiner,Matt 7326 45:10.5 38:17.4 12:19 3328 1583 Kalamazoo MI
190 Volk,Michael 7912 45:31.6 38:23.3 12:21 3346 1587 Ann Arbor MI
191 Malerman,Derek 6305 45:04.3 38:24.7 12:22 3347 1588 Williamston MI
192 Gugino,Anthony 5462 45:04.2 38:25.4 12:22 3351 1589 Ypsilanti MI
193 Vann,Gerald 7865 42:54.8 38:38.3 12:26 3386 1603 Canton United States
194 Zellman,George 8233 39:28.7 38:42.1 12:27 3400 1606 Ann Arbor United States
195 Okronley,Michael 6766 43:36.1 39:21.8 12:40 3452 1621 Howell MI
196 Lex,Dg 6205 42:08.8 39:23.6 12:41 3457 1623 Royal Oak United States
197 Van Kampen,Will 9301 46:24.4 39:33.9 12:44 3478 1628
198 Walke,Thomas 7936 39:39.0 39:39.0 12:46 3490 1633 Ann Arbor MI
199 Rainson,Matthew 7010 43:33.5 39:47.9 12:49 3506 1637 Ann Arbor United States
200 Degenaro,Vincent 4878 46:48.0 41:01.0 13:12 3614 1668 Dexter MI
201 Miller,Cliff 6516 43:58.2 42:36.9 13:43 3715 1702 Saline MI
202 Myers,Jamison 8651 46:04.7 42:41.3 13:44 3721 1705 Ypsilanti MI
203 Simons,Duane 8786 46:15.9 43:43.9 14:05 3787 1717 Belleville MI
204 Monica,Mike 6564 47:21.0 44:51.8 14:26 3840 1732 Grass Lake United States
205 Strodel,Matt 7639 47:34.8 45:40.5 14:42 3900 1749 Ann Arbor United States
206 Sachs,Eric 7253 50:19.9 47:22.6 15:15 4007 1773 Ann Arbor MI
207 Trahey,Kevin 7780 50:54.4 48:08.8 15:30 4049 1784 Cadillac MI
208 Wright,Michael 8165 56:02.5 49:28.4 15:55 4143 1809 Huntington Woods United States
209 Mccammon,Ryan 9362 54:54.4 50:11.9 16:09 4180 1819
210 House,Scott 5709 59:00.3 52:45.5 16:59 4290 1851 Bath MI
211 Werner,Ron 8860 58:12.2 53:00.6 17:04 4304 1855 Wixom MI
212 Wolf,Robert 9179 58:31.5 53:10.0 17:07 4315 1859
213 Fraker,Michael 5241 1:01:26.2 54:34.9 17:34 4380 1881 Tecumseh MI
214 Turner,Billy 7807 57:39.8 57:12.6 18:25 4465 1903 Monroe MI
215 Butcher,Brett 4538 1:04:36.7 57:42.8 18:35 4484 1907 Owosso MI
216 Robertson,Dan 7131 1:05:55.4 1:00:17.8 19:24 4588 1937 Ypsilanti MI
217 Barnaby,Martin 8277 1:10:04.4 1:03:04.6 20:18 4626 1948 Jackson MI
218 Scott,Kevin 9013 1:09:29.2 1:09:29.2 22:22 4711 1973 Novi MI
Go To Top
40-44 Male
Overall Overall State/
Place Name Bib Gun Tag Pace Place by Sex City County
1 Kessler,Mike 8528 16:33.7 16:33.1 5:20 8 8 Ann Arbor MI
2 Green,Eric 8440 18:31.8 18:28.8 5:57 28 27 West Bloomfield MI
3 Walters,Bill 9315 19:13.9 19:09.3 6:10 48 46
4 Chittle,Matt 4643 19:44.2 19:41.4 6:20 71 67 Ann Arbor MI
5 Heinlein,Tom 5592 19:53.6 19:51.0 6:23 81 76 Ann Arbor United States
6 Wenk,Earl 8857 20:33.4 20:29.0 6:36 113 99 Ann Arbor MI
7 Straka,Eric 8804 20:52.1 20:49.6 6:42 129 115 Ann Arbor U.S.A,
8 Fox,John 5235 20:55.0 20:50.6 6:43 130 116 Dexter MI
9 Hall,Charles 5500 21:23.4 21:15.9 6:51 150 134 Swartz Creek MI
10 Feldeisen,Ron 5155 21:45.7 21:39.6 6:58 186 168 Ann Arbor MI
11 Buckhave,Eric 4484 22:25.1 22:11.5 7:09 217 195 Ypsilanti MI
12 Cowan,Brad 4751 22:38.8 22:30.5 7:15 236 212 Waterford MI
13 Buzinkai,Donald 4544 23:13.2 22:53.5 7:22 266 237 Ann Arbor MI
14 Gerathy,Dave 5330 23:41.6 23:01.4 7:25 275 246 Highland MI
15 Drain,Kurt 4992 23:09.6 23:01.7 7:25 277 248 Chicago IL
16 Mueting,Mark 6612 23:17.6 23:05.6 7:26 281 252 Dexter United States
17 Valdez,Sam 7835 24:14.7 23:07.0 7:26 284 255 Jasper United States
18 Mozena,Sean 6607 23:23.4 23:11.7 7:28 294 262 Adrian MI
19 German,Robert 5336 23:28.9 23:19.4 7:30 305 270 Ann Arbor MI
20 Knight,Chris 5989 23:32.2 23:21.4 7:31 308 273 Saline MI
21 Burger,Troy 4508 28:16.1 23:22.8 7:32 313 278 Coldwater United States
22 Burkel,James 4512 24:31.6 23:38.3 7:37 339 294 Chelsea MI
23 Studley,Ron 7647 24:26.3 23:40.4 7:37 346 300 New Baltimore MI
24 Muessig,Brian 9432 24:20.6 23:46.9 7:39 359 310 Clinton United States
25 Albanito,James 4033 24:17.0 23:47.5 7:39 360 311 Marshfield WI
26 Lyijynen,James 6267 24:16.7 23:50.4 7:40 366 314 Rochester Hills MI
27 Hochrein,David 5667 24:08.4 23:52.1 7:41 370 317 Dexter MI
28 White,Jim 8039 24:32.8 23:54.7 7:42 380 325 Farmington MI
29 Blommer,Mike 4337 24:25.2 24:10.9 7:47 420 348 Ann Arbor MI
30 Digiovanni,Tony 4937 24:25.1 24:13.2 7:48 427 352 Ann Arbor MI
31 Matuszak,Matthew 6365 24:50.1 24:31.2 7:54 474 384 Brighton United States
32 Brown,Gary 4454 25:11.7 24:40.6 7:57 495 399 Ann Arbor United States
33 Diblassio,Brian 4927 25:20.3 24:43.8 7:58 509 411 Ann Arbor MI
34 Curtis,Paul 4804 25:55.6 24:49.4 7:59 527 420 Novi MI
35 Doyle,Dave 4982 27:56.9 24:50.5 8:00 529 422 Ypsilanti MI
36 Rettell,David 9417 25:36.2 24:59.3 8:03 552 438 Ann Arbor MI
37 Mathiesen,Jeff 8599 25:21.2 25:00.6 8:03 553 439 Commerce Township MI
38 Oates,Patrick 6740 25:40.0 25:27.7 8:12 627 487 Chelsea MI
39 Malone,Valentino 8586 25:47.7 25:29.2 8:12 630 488 Howell MI
40 Horchler,Paul 5701 26:14.9 25:37.2 8:15 665 506 Beverly Hills MI
41 Wierenga,Robert 8862 31:58.7 25:45.3 8:17 691 525 Ann Arbor MI
42 Burdgick,Mark 4502 26:25.9 25:52.4 8:20 710 537 Highland MI
43 Dingman,Brent 4941 26:07.6 25:56.9 8:21 729 552 Saline MI
44 Baker,James 9241 26:35.1 25:58.5 8:22 735 557
45 Dalton,Joel 9346 28:19.9 25:58.7 8:22 736 558
46 Zauel,Mark 8225 26:24.2 26:00.6 8:22 745 562 Ann Arbor MI
47 Rhoades,Jimmy 7081 28:47.1 26:03.4 8:23 755 566 Warren MI
48 Sconochia,Archie 7343 30:50.4 26:08.5 8:25 769 574 Monroe MI
49 Brender,Garet 4421 27:04.8 26:11.7 8:26 779 580 Macomb MI
50 Dowling,James 4980 31:14.3 26:13.4 8:26 785 584 Ann Arbor MI
51 Dolan,Paul 4952 31:17.5 26:13.5 8:26 786 585 Ann Arbor MI
52 Wortman,Mark 8162 27:18.2 26:23.7 8:30 815 603 Grosse Pointe Farms MI
53 Mcintyre,Bryan 6434 27:01.2 26:31.6 8:32 828 609 Newport MI
54 Wilensky,Jeff 8075 28:26.2 26:32.6 8:33 835 614 Ann Arbor MI
55 Phillips,Chris 6916 31:07.4 26:36.9 8:34 855 623 Battle Creek United States
56 Staples,Trevor 7565 27:33.8 26:56.9 8:40 921 655 Ann Arbor MI
57 Chitty,James 4645 30:23.8 26:58.1 8:41 927 658 Kalamazoo MI
58 Culbertson,Geoff 4786 28:12.9 27:01.3 8:42 941 666 Saline MI
59 Menchaca,Chris 6471 31:35.9 27:04.8 8:43 951 672 Swartz Creek MI
60 Denys,Eric 4898 29:13.2 27:14.2 8:46 975 683 Ann Arbor MI
61 Younger,John 8880 33:30.1 27:16.9 8:47 986 690 Ann Arbor MI
62 Flanders,Scott 8404 28:07.9 27:22.1 8:49 1004 700 Ann Arbor MI
63 Cueter,Joe 4783 28:06.8 27:24.4 8:49 1010 702 Troy MI
64 Schepke,Ken 7307 28:16.3 27:24.7 8:49 1014 705 Rochester Hills MI
65 Zynda,Jonathan 8255 28:03.6 27:34.8 8:53 1046 722 Ann Arbor MI
66 Mastrucci,Ted 6352 29:06.4 27:35.7 8:53 1053 727 Howell MI
67 Smith,Greg 7485 29:02.8 27:47.2 8:57 1077 738 Linden MI
68 Stead,Jim 7574 28:49.0 27:47.4 8:57 1078 739 Ann Arbor MI
69 Connors,Denny 4713 32:10.7 27:47.5 8:57 1079 740 Allen Park MI
70 Victory,Brendan 9087 28:09.3 27:48.8 8:57 1088 745
71 Bliss,Robert 4335 30:59.6 27:53.3 8:59 1101 749 Superior Twp MI
72 Lutz,David 6264 29:32.8 27:56.2 8:59 1120 755 Toledo OH
73 Downey,Brian 8381 31:04.9 27:56.4 9:00 1122 757 Westland MI
74 Schade,Oliver 7294 34:03.2 28:05.2 9:02 1160 772 Ann Arbor MI
75 Boxeth,Dan 4390 33:18.3 28:06.9 9:03 1165 773 Ann Arbor MI
76 Brewer,Bryan 4425 29:39.6 28:29.0 9:10 1239 809 Newport U.S
77 Semifero,Joe 7372 29:17.6 28:34.7 9:12 1280 827 Dexter MI
78 Lopp,Timothy 6235 31:30.6 28:38.0 9:13 1297 834 Warren MI
79 Phair,Ian 8999 29:26.3 28:42.7 9:14 1314 839 Ann Arbor MI
80 Miller,Jeff 6522 32:15.8 28:43.4 9:15 1317 841 Saline MI
81 Bourns,Scott 9401 29:50.3 28:45.2 9:15 1325 845 Ann Arbor MI
82 Dicks,Dennis 4930 29:43.9 28:48.5 9:16 1336 852 Ypsilanti MI
83 Brandon,Rick 4411 31:21.1 28:52.2 9:18 1353 859 Chelsea U.S.A
84 Bennett,Marty 4261 30:06.3 28:58.1 9:19 1384 874 Otsego, MI
85 Kim,John 5948 32:02.9 29:00.0 9:20 1389 875 Ann Arbor MI
86 Skwirsk,Tom 7462 32:08.7 29:06.5 9:22 1409 889 Canton MI
87 Schneider,Dennis 7313 31:43.2 29:07.2 9:22 1410 890 Fowler United States
88 Osterman,David 8672 29:21.7 29:11.1 9:24 1421 896 Clarkston MI
89 Telgen,Bill 7723 32:20.3 29:13.8 9:24 1429 901 Canton United States
90 Visnaw,Mark 7904 31:41.1 29:21.2 9:27 1456 915 Wayne MI
91 Perovich,Michael 6887 31:26.0 29:25.0 9:28 1472 925 South Lyon MI
92 Raju,Jainagaraj 7011 32:56.9 29:31.0 9:30 1497 938 Novi MI
93 Flake,Lee 5203 31:54.0 29:31.0 9:30 1498 939 Ann Arbor MI
94 Kroll,Doug 6060 30:07.9 29:31.3 9:30 1500 941 Brighton MI
95 Kibirige,Charles 8534 30:07.8 29:32.1 9:30 1504 943 Ann Arbor United States
96 Wolf,Richard 8139 32:26.3 29:33.0 9:31 1509 946 Richland MI
97 Erickson,Ted 5098 34:55.6 29:33.1 9:31 1511 948 Ann Arbor MI
98 Renaud,Jeff 7068 33:17.0 29:34.9 9:31 1513 949 Dexter MI
99 Zimmer,Steven 8243 32:18.8 29:48.6 9:36 1587 976 Chelsea MI
100 Dutton,Keith 9204 32:15.4 29:48.9 9:36 1589 977
101 Hennessey,Paul 5605 32:05.9 29:49.5 9:36 1592 978 Toledo OH
102 Hauk,Jeff 5561 31:33.7 29:49.6 9:36 1593 979 Howell MI
103 Smith,Scott W. 7505 32:05.2 29:49.9 9:36 1595 980 Rossford OH
104 Kull,David 8543 33:38.5 29:58.1 9:39 1637 1000 Dexter MI
105 Mikonczyk,John 8626 32:03.1 30:02.0 9:40 1652 1006 Dearborn MI
106 Pangborn,Scott 6824 30:35.2 30:02.5 9:40 1654 1007 Parma MI
107 Goodrich,Trey 5394 33:44.4 30:07.9 9:42 1668 1013 Dexter MI
108 Warner,Dan 7958 31:37.0 30:21.5 9:46 1738 1035 Toledo OH
109 Hill,Glenn 5641 33:03.8 30:23.0 9:47 1748 1039 Ann Arbor MI
110 Schneider,Daniel 7312 32:17.2 30:24.1 9:47 1757 1042 Northville MI
111 Harrell,Jim 5538 33:11.2 30:24.3 9:47 1761 1044 Niles MI
112 Mahalak,Brad 937 34:31.1 30:28.0 9:48 1779 1054 Saline MI
113 Baker,Chris 4144 34:01.8 30:42.8 9:53 1822 1069 Wixom MI
114 Dunietz,Barry 8926 32:34.5 30:59.1 9:58 1875 1089 Ann Arbor MI
115 Gentles,Lukeland 5324 36:25.3 31:09.6 10:02 1922 1109 Ypsilanti MI
116 Lynn,Stephen 6272 36:38.6 31:15.9 10:04 1945 1120 Northville MI
117 Evans,Jeff 5114 32:08.4 31:17.0 10:04 1949 1122 Ann Arbor United States
118 Grubbs,Todd 5456 35:18.9 31:25.0 10:07 1992 1136 Adrian MI
119 Barr,Michael 9151 32:36.3 31:28.1 10:08 2011 1138
120 Thelen,Brian 7734 33:56.3 31:30.1 10:08 2018 1143 South Lyon MI
121 Northern,Michael 6735 31:36.3 31:30.4 10:08 2020 1144 Kalamazoo MI
122 Bordeau Ii,James 4367 37:17.1 31:38.2 10:11 2049 1154 Lasalle MI
123 Bono,Greg 4360 34:56.2 31:41.8 10:12 2064 1156 Ypsilanti MI
124 Knuth,Erik 9278 33:21.8 31:42.1 10:12 2070 1159
125 Black,David 4316 34:35.2 31:50.5 10:15 2103 1166 Commerce MI
126 Markham,Rick 6326 33:23.8 31:54.3 10:16 2127 1174 Brighton MI
127 Maziasz,Keith 9419 33:33.1 31:54.3 10:16 2129 1176 Troy MI
128 Stump,Greg 7651 32:39.1 31:59.8 10:18 2154 1186 Chelsea United States
129 Duda,Chris 5004 36:09.3 32:10.3 10:21 2195 1200 Northville MI
130 Furlong,Tim 5282 37:27.3 32:17.3 10:24 2227 1214 Ann Arbor United States
131 Carlson,Matthew 4580 35:45.1 32:19.0 10:24 2231 1216 Holland MI
132 Rymarz,Marty 7250 35:56.3 32:29.6 10:28 2273 1233 Linden MI
133 Kumar,Sanjeev 6082 38:11.9 32:30.6 10:28 2275 1235 Ann Arbor MI
134 Martin,Steven 6340 35:59.0 32:32.6 10:28 2286 1237 Warren MI
135 Houser,Terry 9425 36:54.9 32:36.8 10:30 2307 1242
136 Foster,David 5222 38:26.3 32:38.3 10:30 2315 1246 Ann Arbor MI
137 Hall,Thomas 5511 34:10.3 32:41.5 10:31 2333 1255 Highland MI
138 Osworth,Kevin 6803 37:10.8 32:45.6 10:33 2357 1261 Tecumseh MI
139 Doan,Matt 8372 36:51.1 32:46.9 10:33 2361 1263 Gregory MI
140 Reyna,Tommy 7079 34:44.5 32:48.6 10:34 2370 1267 Ypsilanti MI
141 Burns,Steve 4524 36:43.0 32:49.6 10:34 2376 1269 Ann Arbor MI
142 Carroll,Todd 4587 34:29.2 32:55.9 10:36 2397 1274 Saline MI
143 Noetzel,Rob 6725 34:07.9 33:08.4 10:40 2445 1286 Decatur United States
144 Moore,Thomas 6581 37:33.1 33:12.1 10:41 2454 1289 Ypsilanti MI
145 Robinson,Marc 7143 36:37.8 33:16.5 10:43 2463 1293 Canton MI
146 Chang,Andrew 4620 37:46.1 33:17.3 10:43 2468 1297 Ann Arbor United States
147 Yahr,Jeffrey 8874 34:46.1 33:19.9 10:44 2481 1304 Ann Arbor MI
148 Baker,Paul 4153 39:07.7 33:33.6 10:48 2531 1321 Maybee MI
149 Conlin,John 9246 38:49.7 33:37.5 10:49 2547 1330
150 Sicklesteel,Mike 7414 36:21.7 33:49.2 10:53 2586 1343 South Lyon MI
151 Strauss,Martin 7631 35:49.1 33:50.6 10:54 2594 1346 Ann Arbor MI
152 Hughes,Philip 5735 33:51.0 33:51.0 10:54 2596 1347 Ann Arbor United States
153 Skaff,David 7454 37:30.8 33:57.8 10:56 2624 1357 Ann Arbor MI
154 Steglitz,Brian 7579 38:48.6 34:04.3 10:58 2644 1358 Ann Arbor MI
155 Fried,Aaron 5261 39:35.4 34:10.4 11:00 2670 1366 Ann Arbor MI
156 Duck,Ken 5002 39:20.7 34:10.7 11:00 2672 1367 Ann Arbor MI
157 Zwinak,Alexander 8254 38:48.0 34:16.8 11:02 2684 1372 Ann Arbor MI
158 Kelley,Patrick 5909 38:04.1 34:18.4 11:03 2687 1373 Coldwater MI
159 Rust,Bruce 7232 38:42.9 34:22.4 11:04 2703 1376 Ypsilanti MI
160 Mastrogiacomo Jr,Patrick 6351 37:36.1 34:23.4 11:04 2709 1380 Wyandotte MI
161 Gretkierewicz,Tim 5440 39:01.2 34:32.8 11:07 2745 1388 Ann Arbor MI
162 Baker,Russ 4154 35:33.8 34:32.8 11:07 2747 1389 Lawton MI
163 Francis,Patrick 8937 38:00.6 34:39.2 11:09 2765 1393 Ann Arbor MI
164 Martel,David 6331 38:03.5 34:42.0 11:10 2772 1396 Ann Arbor MI
165 Lowenschuss,David 8571 36:27.8 34:44.9 11:11 2784 1400 Ann Arbor MI
166 Schafer,Dan 7297 40:28.2 34:48.5 11:12 2798 1404 Jackson MI
167 Kwok,Yeong 6091 38:00.1 35:00.4 11:16 2835 1413 Ann Arbor MI
168 Weingarten,Irwin 9039 36:34.3 35:15.0 11:21 2862 1422 Ann Arbor U.S.A.
169 Bawardi,Hani 4201 41:39.7 35:19.3 11:22 2875 1428 Ann Arbor MI
170 Papadopoulos,George 6827 37:47.8 35:28.6 11:25 2905 1439 Ann Arbor MI
171 Eichner,Adam 5047 40:13.8 35:37.9 11:28 2954 1454 Ann Arbor MI
172 Pohlman,Roland 8705 42:33.6 35:37.9 11:28 2955 1455 Ann Arbor United States
173 Vecziedins,Karlis 7881 41:08.0 35:38.6 11:28 2961 1457 Caledonia MI
174 Kachman,Donald 5867 41:44.2 36:15.8 11:40 3050 1482 Ann Arbor MI
175 Skonecki,Greg 7459 37:21.2 36:18.9 11:41 3058 1485 Ann Arbor MI
176 Leflar,Patrick 6162 39:57.6 36:19.3 11:41 3060 1486 Clinton Township United States
177 Watza,Dave 9423 40:03.7 36:19.6 11:42 3061 1487
178 Davis-kean,Greg 4859 41:45.6 36:19.9 11:42 3062 1488 Ann Arbor MI
179 Cosgrove,Dan 4743 39:09.7 36:20.9 11:42 3064 1489 Canton MI
180 El-asri,Mohamed 5057 41:22.8 36:30.9 11:45 3084 1497 Ann Arbor MI
181 Anderson,Todd 4077 43:07.9 37:07.6 11:57 3176 1530 Grand Ledge United States
182 Burk,Scott 9084 41:16.5 37:19.1 12:01 3199 1536
183 Chaffin,Keith 4616 39:32.7 37:35.8 12:06 3232 1549 Brighton MI
184 Kulp,Steve 6076 44:09.8 37:45.3 12:09 3254 1557 Ann Arbor MI
185 Knoop,Peter 5992 42:09.4 38:08.8 12:17 3297 1570 Ann Arbor MI
186 Halberstam,Daniel 8448 39:49.1 38:13.8 12:18 3317 1579 Ann Arbor MI
187 Mikkor,Tom 6507 39:44.9 38:21.5 12:21 3338 1586 Ann Arbor U.S.
188 Stidham,Michael 7598 41:48.9 38:32.8 12:24 3373 1597 Ann Arbor MI
189 Rosati,Greg 8748 43:50.1 38:35.6 12:25 3381 1600 Ann Arbor United States
190 Ray,Philip 7036 43:16.1 38:46.1 12:29 3406 1608 Ann Arbor MI
191 Tucker,Brian 7800 43:41.3 39:11.7 12:37 3437 1616 Chelsea MI
192 Zurbuchen,Thomas 9155 45:20.7 39:38.8 12:46 3489 1632
193 Boote,Dean 4364 44:12.1 40:07.8 12:55 3536 1647 Gregory MI
194 Doyle,Sean 4989 44:18.1 40:47.9 13:08 3593 1662 Northville MI
195 Mann,Michael 6316 44:46.8 40:51.1 13:09 3600 1665 Howell MI
196 Cohn,Jonathan 4689 47:40.4 41:02.4 13:13 3616 1670 Ann Arbor MI
197 Mahoney,Tom 9070 44:10.2 41:30.3 13:22 3636 1675
198 Ferguson,Robert 5170 46:21.0 41:34.0 13:23 3645 1678 Ann Arbor MI
199 Vorgitch,James 8841 49:02.5 42:03.8 13:32 3692 1695 Warren United States
200 Munson,Jim 6630 48:32.8 42:34.9 13:42 3713 1701 Howell MI
201 Sherman,Thad 7400 47:25.5 43:30.6 14:00 3770 1714 Tecumseh United States
202 Garrett,Tim 5307 50:30.9 44:33.7 14:21 3823 1727 Cincinnati OH
203 Stevens,Craig 7588 49:33.6 44:44.4 14:24 3836 1730 Saginaw United States
204 Meister,Mark 8619 48:19.4 44:54.8 14:27 3843 1734 Saline MI
205 Bleitz,Daniel 4330 47:43.6 45:03.0 14:30 3852 1736 Milan MI
206 Chung,Kwangil 8335 49:59.4 46:13.4 14:53 3935 1754 Canton MI
207 Gilbert,Mark 8427 51:00.9 46:27.8 14:57 3949 1759 Ann Arbor MI
208 Young,Stephen 8204 48:35.6 46:51.1 15:05 3977 1767 Ypsilanti MI
209 Gunn,Michael 8942 53:49.7 47:30.9 15:18 4018 1776 Ida MI
210 Graydon,Jeffrey 5427 52:07.6 47:45.8 15:22 4031 1779 Jackson United States Of Ame
211 Kirby,Marcus 5964 48:47.8 48:12.3 15:31 4055 1785 Jackson MI
212 Rogosch,David 8740 50:49.9 49:51.9 16:03 4165 1815 Westland MI
213 Patriacca,Paul 6848 57:18.3 51:03.4 16:26 4214 1830 Carleton MI
214 Ramsay,Alan 7016 59:06.8 52:35.5 16:56 4283 1850 Livonia MI
215 Stilber,Ted 7602 56:43.3 52:55.3 17:02 4296 1853 Dexter United States
216 Hipkiss,Stephen 5653 58:35.1 52:59.3 17:03 4301 1854 Ann Arbor MI
217 Wiseman,Troy 8126 58:22.0 53:07.4 17:06 4311 1856 Monroe United States
218 Murray,Scot 6643 59:25.7 54:14.6 17:28 4363 1875 Round Rock TX
219 Zabriskie,Michael 8213 1:03:26.7 56:42.4 18:15 4445 1897 Ypsilanti MI
220 Nulam,Tom 9366 1:02:48.9 58:25.1 18:48 4525 1921
221 Janssen,Gregory 5790 1:00:03.9 1:00:03.9 19:20 4576 1933 Ann Arbor MI
222 Lanczak,David 6111 1:06:26.9 1:00:43.4 19:33 4597 1941 Canton MI
223 Hardimon,Shaun 5531 1:04:23.9 1:02:59.7 20:17 4622 1946 Swartz Creek MI
Go To Top
45-49 Male
Overall Overall State/
Place Name Bib Gun Tag Pace Place by Sex City County
1 Rothstein,Jeff 7188 18:42.5 18:40.0 6:00 33 32 Ann Arbor MI
2 Benedict,Robert 4257 19:16.8 19:10.2 6:10 50 48 Ann Arbor MI
3 French,Rob 5258 19:31.1 19:26.9 6:16 61 58 Dexter MI
4 Pangborn,Jeffrey 6822 19:34.2 19:30.7 6:17 64 60 Three Rivers United States Of Ame
5 Kasper,Joe 5884 20:13.4 19:50.1 6:23 79 74 Lexington United States
6 Sunahara,Roger 7671 20:51.9 20:45.5 6:41 123 109 Ann Arbor United States
7 Keyser,Keith 8531 20:59.7 20:57.1 6:45 137 122 Sturgis MI
8 Majeske,Karl 8585 21:06.0 21:01.2 6:46 141 125 Ann Arbor MI
9 Katsefaras,Barry 5890 21:25.9 21:17.5 6:51 153 136 Pinckney MI
10 Nicholas,Fred 9090 21:22.1 21:18.3 6:51 155 138
11 Hertz,David 5616 21:28.1 21:19.1 6:52 157 140 Toledo OH
12 Judge,Patrick 5857 21:40.6 21:31.9 6:56 175 158 Riverview United States
13 Deininger,Peter 8360 21:47.7 21:44.8 7:00 192 173 Ann Arbor MI
14 Sitterly,Mark 7450 22:06.1 22:00.6 7:05 207 185 Monroe MI
15 Isken,Mark 5761 22:07.5 22:02.1 7:06 208 186 Rochester Hills United States
16 Harrison,Scott 5552 22:44.7 22:36.7 7:17 244 220 Canton MI
17 Lefevre,Mark 6161 22:50.3 22:45.8 7:20 250 225 Saint Clair Shores MI
18 Dyer,Dale 5027 24:20.0 22:46.0 7:20 251 226 Chelsea MI
19 Schemanski,Paul 7305 23:09.1 22:50.0 7:21 257 231 Petoskey MI
20 Wick,Kirk 8062 23:07.3 22:52.5 7:22 264 235 North Adams MI
21 Jong,Jim 5846 23:19.0 22:55.9 7:23 269 240 Ann Arbor Washtenaw
22 Gallagher,Tim 9340 23:17.6 23:09.0 7:27 288 258
23 Conzelmann,Tom 4718 24:19.1 23:22.7 7:31 312 277 Saline MI
24 Fitzparick,Christopher 5200 25:22.1 23:24.6 7:32 318 282 Saline MI
25 Kanji,Riyaz 8517 24:13.7 23:44.3 7:38 349 303 Ann Arbor MI
26 Steih,Paul 7584 24:01.2 23:46.4 7:39 356 308 Ann Arbor MI
27 O'sullivan,Larry 8675 23:53.8 23:52.3 7:41 372 319 Ypsilanti MI
28 Richner,Cedric 7095 24:05.1 23:55.7 7:42 382 326 Ann Arbor United States
29 Sung,Randall 7673 24:15.7 24:00.1 7:44 393 331 Ann Arbor MI
30 Rastalsky,Hartmut 7029 24:18.4 24:00.3 7:44 394 332 Ann Arbor MI
31 Reed,John 7048 24:44.8 24:14.5 7:48 434 357 Ann Arbor MI
32 Parent,Jeff 8683 26:14.5 24:23.5 7:51 451 368 Royal Oak MI
33 Connolly,Francis 4712 24:51.6 24:27.8 7:52 464 375 Ann Arbor MI
34 Wagner,Steve 7928 24:56.0 24:40.9 7:57 497 401 Ann Arbor MI
35 Cook,Howard 8919 26:32.2 24:41.5 7:57 499 403 Sterling Heights MI
36 Wilson,Brian 8109 25:01.9 24:48.4 7:59 524 418 Ann Arbor MI
37 Bleske,Barry 4331 25:47.9 24:48.8 7:59 526 419 Saline MI
38 Cook,Scott 4725 25:11.3 24:50.0 8:00 528 421 Farmington Hills MI
39 Walz,Eric 7955 26:59.6 24:51.9 8:00 531 424 Ann Arbor MI
40 Karabakal,Nejat 5878 25:40.7 24:59.0 8:02 550 437 Ann Arbor MI
41 Burns,Jeff 4519 25:23.1 25:02.0 8:03 562 447 Tecumseh MI
42 Curtis,Brooks 4801 25:52.9 25:03.4 8:04 565 450 Ann Arbor MI
43 Wernette,Steven 8021 25:38.0 25:15.2 8:08 587 462 Roseville MI
44 Crawford,Tom 4773 25:55.7 25:17.5 8:08 594 466 Ann Arbor MI
45 Koerschner,Carl 6001 26:19.4 25:17.5 8:08 595 467 Ann Arbor MI
46 Picking,David 6921 25:42.3 25:20.7 8:09 606 474 Farmington MI
47 Green,Glenn 8941 25:47.1 25:26.0 8:11 621 482 Dexter MI
48 Erdman,Lawrence 5094 26:14.4 25:29.8 8:12 633 490 Lansing MI
49 Christensen,Ken 4655 26:47.6 25:31.1 8:13 641 494 Ann Arbor MI
50 Erven,Kirk 5103 28:43.1 25:34.6 8:14 655 500 South Lyon MI
51 Stringer,William 7638 26:19.3 25:40.8 8:16 677 514 Livonia MI
52 Nickodemus,Daniel 6706 26:45.4 25:46.9 8:18 695 527 Ann Arbor MI
53 Hall,Mitch 5508 27:03.4 25:56.5 8:21 728 551 Ann Arbor MI
54 Batra,Peter 4196 26:31.9 25:57.8 8:21 732 554 Ann Arbor MI
55 Michels,James 6497 26:27.0 26:00.5 8:22 744 561 Plymouth MI
56 Jodoin,Rick 5814 26:36.4 26:02.3 8:23 750 564 Lansing United States Of Ame
57 Keller,Richard 5907 28:47.8 26:04.2 8:23 760 569 Ann Arbor MI
58 Hornyak,Joseph 5704 30:19.7 26:04.8 8:24 762 570 Ann Arbor MI
59 Walter,Jeff 7947 27:09.7 26:06.3 8:24 765 572 Ann Arbor MI
60 Johnson,Phil 5832 26:18.9 26:10.1 8:25 774 578 Adrian MI
61 Hayman,Jim 5577 27:19.8 26:17.1 8:28 797 594 Ann Arbor MI
62 Henning,George 5606 27:23.4 26:20.6 8:29 808 598 Ann Arbor MI
63 Shemanski,Ray 7395 27:18.6 26:25.3 8:30 820 606 Saline MI
64 Sager,David 7259 27:03.0 26:28.0 8:31 822 607 Ann Arbor MI
65 Bolhuis,John 8290 31:32.6 26:33.1 8:33 839 616 Farmington Hills MI
66 Mccourtie,Todd 6411 28:51.3 26:41.1 8:35 868 627 Brooklyn MI
67 White,Robert A. 8047 27:53.2 26:47.5 8:37 884 636 Windsor Canada
68 Calvachi,Robert 8311 29:13.1 26:52.9 8:39 902 647 Ann Arbor MI
69 Dalton,David 8355 27:58.1 26:59.0 8:41 933 662 Ann Arbor MI
70 Matsuo,Chiaki 8600 27:35.4 27:12.9 8:46 971 681 Ann Arbor Washtenaw
71 Riegger,Kurt 7104 28:16.0 27:15.2 8:46 979 686 Ann Arbor MI
72 Forman,Douglas 8408 29:40.3 27:18.8 8:47 992 692 Ann Arbor MI
73 Iniguez,Jorge 8484 29:47.6 27:20.4 8:48 996 696 Ann Arbor MI
74 Jones,Ken 5843 33:10.6 27:43.5 8:55 1070 735 South Lyon Oakland
75 Pool,Rick 6951 28:49.1 27:47.6 8:57 1080 741 Ann Arbor MI
76 Nelson,Mark 6683 30:10.8 27:53.7 8:59 1108 750 Dexter MI
77 Erkkinen,Tom 5100 34:07.2 27:55.1 8:59 1115 753 Ann Arbor MI
78 Westhead,Pete 1687 28:45.5 27:59.0 9:00 1136 761 Ann Arbor MI
79 Romero,Anthony 7164 29:48.0 28:07.9 9:03 1169 776 Ann Arbor MI
80 Rotary,Mark 8753 32:20.2 28:10.6 9:04 1176 778 Saline MI
81 Krasnick,Neal 6046 28:28.4 28:13.4 9:05 1189 787 Franklin MI
82 Cary,John 4599 30:02.9 28:33.4 9:11 1266 820 Saginaw MI
83 Lewis,Greg 6202 30:43.4 28:34.2 9:12 1275 824 Ann Arbor MI
84 Timbs,Rex 7767 30:38.4 28:34.6 9:12 1277 826 Ypsilanti MI
85 Jones,Daniel 5840 30:58.6 29:03.2 9:21 1398 881 Wixom MI
86 Zukowski,Joe 8251 32:35.2 29:04.0 9:21 1402 883 Livonia United States
87 Miner,Jack 6550 30:42.2 29:23.6 9:28 1465 921 West Bloomfield MI
88 Verklan,Mike 7890 32:00.7 29:24.1 9:28 1467 922 Plymouth MI
89 Cornellier,Tom 4742 31:04.3 29:26.6 9:29 1476 927 Novi U.S.A.
90 Hoban,Timothy 5665 32:52.6 29:26.9 9:29 1481 929 Ann Arbor MI
91 Probst,Louis 8709 30:23.3 29:27.7 9:29 1485 932 Ann Arbor MI
92 Zieske,Paul 9045 31:19.2 29:27.8 9:29 1486 933 Linden MI
93 Parker,Tim 6835 30:23.7 29:29.2 9:29 1492 935 Saline MI
94 O'connor,Mike 6753 30:55.8 29:30.5 9:30 1496 937 Howell MI
95 Davidson,Bill 4835 34:30.5 29:32.4 9:30 1507 944 Dexter MI
96 Rigg,Kurt 7109 30:32.9 29:46.3 9:35 1574 970 Ann Arbor MI
97 Jacot,Donald 8490 31:17.3 29:50.3 9:36 1600 983 Millington MI
98 Burnside,Garth 4526 31:20.3 29:52.4 9:37 1609 990 Ann Arbor MI
99 Mcwilliams,Todd 8615 31:08.6 29:52.7 9:37 1611 991 Ann Arbor MI
100 Ruhlig,Gary 7206 33:09.6 30:01.2 9:40 1648 1005 Grand Rapids United States
101 Velez,Daniel 7884 36:07.7 30:11.8 9:43 1686 1017 Ypsilanti United States
102 Petrillo,Joe 6903 30:52.8 30:22.5 9:47 1743 1037 Plymouth MI
103 Hozak,Doug 8479 33:23.6 30:26.0 9:48 1767 1047 Plainwell MI
104 Tworek,Joseph 7820 32:17.9 30:26.8 9:48 1772 1051 Ann Arbor MI
105 Germilhac,Joe 5337 34:18.6 30:27.3 9:48 1775 1053 Troy MI
106 Goodyear,Michael 5398 32:56.4 30:30.4 9:49 1785 1056 Ann Arbor MI
107 Kramer,Michael 6045 31:55.6 30:37.3 9:51 1803 1064 Wixom MI
108 Donevan,Sean 8379 31:35.7 30:50.5 9:56 1846 1075 Dexter MI
109 Fitch,David S. 5197 36:49.0 30:51.7 9:56 1855 1080 Ann Arbor MI
110 Garza,Steven 5312 33:14.9 31:05.0 10:00 1897 1099 Saginaw MI
111 Barkume,Kevin 4175 35:59.3 31:11.4 10:02 1928 1111 Canton MI
112 Baird,Adam 4137 32:35.2 31:14.5 10:03 1942 1118 Dexter MI
113 Dempsey,John 9259 34:53.1 31:17.6 10:04 1952 1125
114 Cobb,Jeff 4680 33:16.1 31:31.5 10:09 2023 1145 Howell MI
115 Meloche,David 6470 33:46.1 31:31.8 10:09 2024 1146 Windsor Canada
116 Karth,David 9277 33:22.1 31:41.9 10:12 2066 1157
117 Mcallister,James 6393 33:17.3 31:48.7 10:14 2092 1162 Dexter MI
118 Maziasz,Rich 6387 33:28.8 31:49.7 10:15 2098 1164 Troy MI
119 Collins,Mike 4699 32:48.6 31:54.1 10:16 2126 1173 Ann Arbor MI
120 Long,Jeffrey 6231 35:56.9 32:20.3 10:25 2236 1218 Livonia MI
121 Schnorberger,John 7317 36:06.5 32:21.7 10:25 2244 1223 Toledo OH
122 Hunt,Frank 5739 35:37.1 32:23.9 10:26 2254 1225 Belleville MI
123 Napolitan,Michael 6665 33:14.5 32:25.9 10:26 2258 1226 Ann Arbor MI
124 Sovitch,Greg 7534 35:32.9 32:28.6 10:27 2270 1230 Saline MI
125 Rovin,Rich 7197 37:22.4 32:29.0 10:27 2272 1232 Marquette United States
126 Charpie,John 8325 34:03.7 32:32.2 10:28 2283 1236 Ann Arbor MI
127 Darling,Paul 4826 36:07.3 32:38.3 10:30 2316 1247 Ann Arbor MI
128 Krushelnick,Karl 6065 37:58.9 32:40.6 10:31 2329 1253 Ann Arbor MI
129 Little,Stephen 6220 33:42.3 32:51.7 10:35 2386 1271 South Lyon MI
130 Evans,Charles 9319 34:48.0 33:01.9 10:38 2419 1281
131 Przybylski,Matt 6983 34:07.4 33:20.2 10:44 2483 1305 Grand Blanc MI
132 Jones,Stephen 8508 35:59.9 33:23.1 10:45 2490 1307 Clio MI
133 Crane,Jon 4766 35:03.7 33:25.9 10:46 2503 1313 Wyandotte MI
134 Gray,Gary 5424 39:07.9 33:35.3 10:49 2535 1323 Saline MI
135 Strickler,Scott 7637 36:48.3 33:35.4 10:49 2536 1324 Lapeer MI
136 Hough,Dale 8474 35:39.2 33:42.2 10:51 2561 1336 Ann Arbor MI
137 Lectka,John 6148 38:40.5 34:08.9 10:59 2662 1362 Livonia United States
138 Bender,Jim 4252 35:26.1 34:09.0 11:00 2664 1364 Sylvania OH
139 Ross,Kevin 7183 36:25.3 34:30.0 11:06 2730 1385 Ann Arbor MI
140 Leonard,Lou 6186 37:03.8 34:39.9 11:09 2767 1394 Ann Arbor MI
141 Beckman,Dirk 9122 35:33.7 34:41.7 11:10 2771 1395
142 Amstutz,Andrew 4064 35:02.5 34:49.0 11:12 2802 1405 Ann Arbor MI
143 Fry,David 5271 40:26.3 35:20.8 11:23 2882 1431 Ann Arbor MI
144 Bergin,Dan 4275 41:55.5 35:24.8 11:24 2896 1435 Pinckney MI
145 Oswald,Robert 8678 40:46.8 36:11.2 11:39 3044 1479 Ann Arbor U.S.A.
146 Parkinson,Sean 6836 40:34.4 36:28.6 11:44 3075 1493 Dundee MI
147 Secor,Christopher 8776 40:36.2 36:35.0 11:46 3099 1502 Bay City MI
148 Heidorn,Jon 5588 41:47.2 36:49.2 11:51 3128 1512 Ann Arbor U.S.A.
149 Gonzalez,Archie 5387 41:00.7 37:05.3 11:56 3165 1527 Livonia MI
150 Opipari Jr,Anthony 6792 37:24.2 37:24.2 12:02 3214 1540 Dexter MI
151 Taddia,Anthony 7703 39:33.3 37:36.7 12:06 3233 1550 Livonia United States
152 Siegel,Scott 9017 39:36.1 38:08.9 12:17 3300 1571 Woodhaven MI
153 Desjarlais,Frank 9145 42:26.3 38:09.2 12:17 3304 1572
154 Sniegowski,John 7517 38:11.4 38:11.4 12:18 3310 1577 Cadillac MI
155 Richards,William (rob) 7091 40:35.4 38:20.2 12:20 3334 1584 Belleville MI
156 Kaercher,Thomas 8514 42:24.1 38:31.6 12:24 3371 1596 Ann Arbor MI
157 Adams,Joe 4020 41:10.6 39:18.7 12:39 3449 1619 Grass Lake MI
158 Szalay,Kurt 7702 40:18.0 39:53.4 12:50 3513 1640 Saline MI
159 Baiardi,Victor 4132 45:30.2 40:08.9 12:55 3540 1648 South Lyon MI
160 Rummel,Carl 7211 44:42.0 40:46.9 13:08 3591 1660 Royal Oak MI
161 Dean,Bill 4869 42:42.0 40:50.2 13:09 3598 1663 Grass Lake MI
162 Brewster,Michael 4428 43:03.3 41:20.3 13:18 3626 1672 Howell MI
163 Woodall,Gary 8148 44:04.0 41:37.3 13:24 3656 1685 Ann Arbor MI
164 Williams,Ray 8101 45:47.7 42:01.0 13:31 3684 1692 Saline MI
165 Cunningham,Dan 9286 47:13.4 42:19.2 13:37 3701 1697
166 Hicks,Brian 5630 48:34.6 44:51.8 14:26 3839 1731 Fraser United States
167 Mukavitz,Scott 6616 48:22.2 46:32.8 14:59 3954 1762 Eastpointe MI
168 Schoeni,Bob 7319 51:58.3 49:21.5 15:53 4128 1805 Ann Arbor MI
169 Lemmen,Mike 6178 56:33.1 51:07.7 16:27 4217 1831 Holland MI
170 Farrell,Damian 5142 58:39.3 51:41.5 16:38 4242 1836 Ann Arbor MI
171 Radin,Stephan 8717 57:36.6 51:45.4 16:39 4248 1839 Waterford MI
172 Vaughn,Kevin 7880 57:41.1 53:58.1 17:22 4346 1870 Livonia MI
173 Briscoe,James 4438 1:01:16.4 54:44.4 17:37 4381 1882 Plymouth MI
174 Erdudy?,David 9295 56:05.3 54:50.3 17:39 4387 1884
175 Stapnowski,Todd 7566 59:37.0 56:42.6 18:15 4446 1898 Saline MI
176 Stears,Mark 7575 1:03:22.1 57:10.6 18:24 4461 1902 Ypsilanti MI
177 Jeruzal,Tim 5809 1:02:55.4 57:50.8 18:37 4492 1909 Brighton MI
178 Neall,Jeffrey 8656 1:04:49.3 57:52.8 18:38 4493 1910 Flint United States
179 Kiriazis,Ted 5968 1:01:42.1 59:22.3 19:07 4551 1926 Grosse Pointe Woods MI
180 Counahan,Jim 4748 1:05:22.1 59:53.6 19:17 4572 1931 Ludington MI
181 Davis,Steven 4858 1:02:48.5 1:00:12.0 19:23 4583 1935 Ann Arbor MI
182 Baril,Noel 4171 1:14:14.7 1:05:24.3 21:03 4673 1962 Pleasant Ridge MI
183 Mandalari,Steve 6312 1:10:27.0 1:08:00.0 21:53 4693 1966 Lake Orion MI
184 Hall,James 5502 1:13:18.2 1:13:18.2 23:36 4729 1978 Saint Louis MI
Go To Top
50-54 Male
Overall Overall State/
Place Name Bib Gun Tag Pace Place by Sex City County
1 Furey,Dave 8413 18:15.7 18:15.3 5:53 21 21 Ann Arbor MI
2 Boldt,John 4351 19:38.4 19:34.1 6:18 67 63 Monroe MI
3 Knight,Fred 8536 19:46.0 19:42.9 6:21 72 68 Ann Arbor MI
4 Raux,Richard 7031 20:05.6 19:58.8 6:26 87 80 East Aurora United States
5 Naumann,Larry 6673 20:04.4 19:58.8 6:26 88 81 Berkley MI
6 Bourque,Tom 4383 20:21.6 20:19.2 6:32 101 91 Ann Arbor MI
7 Miller,Charles 6515 20:55.3 20:48.0 6:42 126 112 Farmington Hills MI
8 Reilly,Terry 8729 21:14.2 21:09.0 6:48 147 131 Milan Usausausa
9 Bowersox,Adam 8902 21:16.9 21:09.5 6:49 149 133 Chelsea MI
10 Pressprich,William 6963 21:32.5 21:20.8 6:52 160 143 Ann Arbor United States
11 Yoas,Scot 8189 21:48.3 21:36.5 6:57 181 164 Plymouth MI
12 Vigna,David 7900 22:11.6 21:56.1 7:04 201 181 Warren United States
13 York,Paul 8879 22:44.5 22:25.4 7:13 230 206 Ann Arbor MI
14 Dowling,David 4978 22:41.4 22:29.8 7:14 234 210 Ann Arbor MI
15 Wagner,Mark 7926 22:53.9 22:44.1 7:19 248 224 Novi MI
16 Cameron,Mark 4558 23:00.4 22:48.9 7:21 255 229 Ann Arbor MI
17 Hocter,Paul 5670 23:02.8 22:51.6 7:21 261 232 Clarklake MI
18 Briggs,Karl 4433 23:58.6 23:33.4 7:35 331 289 Freeland MI
19 Roumel,Nick 7193 24:23.1 23:54.0 7:42 378 324 Ann Arbo MI
20 Secord,Jeff 7358 24:23.7 24:02.3 7:44 399 334 Jackson MI
21 Ni,Lisong 6703 24:21.6 24:05.9 7:45 409 340 Ypsilanti MI
22 Girbach,Kevin 5364 24:40.1 24:13.5 7:48 428 353 Novi MI
23 Ternes,John 7729 24:40.9 24:17.3 7:49 437 359 Ann Arbor MI
24 Smith,Tom 7507 24:54.9 24:32.0 7:54 476 386 Mount Pleasant MI
25 Reid,Rick 7059 25:09.6 24:33.9 7:54 481 389 Ann Arbor MI
26 Kennard,Stan 5921 25:01.6 24:45.9 7:58 515 413 Monroe MI
27 Trese,Brennan 7784 25:42.8 25:01.4 8:03 557 442 Farmington Hills MI
28 Mazzotta,David 6391 26:26.3 25:35.1 8:14 659 501 Dexter MI
29 Collins,Steve 8918 26:11.4 25:36.0 8:14 661 503 Ypsilanti MI
30 Bruder,Peter 4472 26:19.3 25:38.0 8:15 668 508 Howell MI
31 Valenti,Dennis 9033 26:17.9 25:50.4 8:19 705 532 Ann Arbor MI
32 Cataldo,Chris 8318 28:13.9 26:12.7 8:26 782 582 W. Bloomfield MI
33 Simon,Charles 7434 26:40.6 26:15.6 8:27 792 591 Plymouth MI
34 Coffey,Michael 4683 27:19.1 26:28.3 8:31 823 608 Ann Arbor MI
35 Wilbur,Georic 9298 28:26.7 26:52.7 8:39 901 646
36 O'connor,Geoff 6752 26:57.4 26:55.3 8:40 916 654 Ann Arbor MI
37 Fellows,Mark 5160 28:25.2 27:02.6 8:42 945 668 Jenison MI
38 Krawczyk,Frank 6050 27:59.1 27:03.4 8:43 948 670 Brooklyn MI
39 Nelligan,Mike 6681 27:33.6 27:11.0 8:45 970 680 Monroe Monroe
40 Ewing,Dale 5124 29:29.4 27:14.4 8:46 977 685 Dexter MI
41 Mckay,Michael 6439 29:15.1 27:15.3 8:46 980 687 Canton MI
42 Cicala,William 4666 30:14.1 27:31.7 8:52 1033 713 Dearborn Heights MI
43 Turin,Raymond 9032 30:15.4 27:32.7 8:52 1039 717 Grosse Pointe Park MI
44 Dolan,Chris 4951 32:39.7 27:35.7 8:53 1052 726 Birmingham MI
45 Robertson,Duane 8733 29:04.6 27:54.9 8:59 1114 752 Saginaw MI
46 Bowman,Douglas 4388 30:01.4 28:03.7 9:02 1154 768 Livonia MI
47 Cprek,Clay 4754 29:46.6 28:10.1 9:04 1173 777 Troy MI
48 Harris,Mark 9052 29:05.9 28:13.8 9:05 1191 789
49 Guise,Tom 5472 29:15.7 28:18.3 9:07 1208 795 Dexter United States
50 Leduc,John 6149 30:47.4 28:23.4 9:08 1223 802 Ann Arbor MI
51 Davis,Jon 9197 29:25.2 28:27.7 9:10 1234 805
52 Baran,Donald 4168 28:50.9 28:32.3 9:11 1256 815 Troy MI
53 Kupa,Mike 6087 30:16.3 28:40.6 9:14 1303 836 Petersburg MI
54 Golze,Daniel 5383 35:06.9 28:41.3 9:14 1308 837 Ann Arbor U.S.A.
55 Love,Dirk 8570 31:45.2 28:48.4 9:16 1335 851 Midland MI
56 Heslip,Daniel 5618 30:16.6 28:53.4 9:18 1362 862 Manchester United States
57 Kwok,Roland 6088 34:53.0 28:53.4 9:18 1363 863 Ann Arbor MI
58 Flannery,Michael 5206 30:30.1 28:55.0 9:18 1372 868 Livonia MI
59 Mills,Timothy 6540 29:38.2 29:03.9 9:21 1401 882 Ann Arbor United States
60 Drier,Marvin 4997 31:48.4 29:17.7 9:26 1442 907 Decatur IN
61 Lymburner,Daniel 8580 30:08.8 29:20.7 9:27 1454 914 Ann Arbor United States
62 Lahaie,Matthew 6107 30:58.2 29:42.9 9:34 1560 961 Midland MI
63 Zammit,Jay 8883 30:41.5 29:43.5 9:34 1565 964 Lathrup Village United States
64 Cicala,John 4663 31:30.1 30:10.9 9:43 1681 1016 Livonia MI
65 Romans,Kirk 7161 34:20.3 30:12.5 9:43 1688 1018 Brighton MI
66 Cusatis,Tim 8354 32:43.6 30:15.2 9:44 1706 1022 Grand Blanc MI
67 Shipe,Dennis 7405 33:47.6 30:16.7 9:45 1712 1024 Battle Creek MI
68 Sier,Rob 7428 32:09.6 30:31.7 9:50 1787 1057 Ann Arbor MI
69 Dwornick,David 8930 32:25.9 30:57.8 9:58 1868 1086 Brownstown MI
70 Brodie,Arnold 4440 36:47.5 30:58.9 9:58 1874 1088 Saline United States
71 Borton,Allen 4370 32:22.0 31:00.8 9:59 1886 1092 Ann Arbor MI
72 Paul,Terry 6858 31:57.1 31:04.1 10:00 1895 1097 Macomb U.S.
73 Goodsell,Robert 5395 35:57.1 31:18.3 10:05 1958 1128 Ann Arbor MI
74 Pfiester,David 8694 35:45.8 31:42.0 10:12 2067 1158 Ypsilanti MI
75 Mcguire,Jim 6433 35:35.6 32:13.3 10:22 2210 1208 Southfield MI
76 Johnston,Dan 5838 34:02.7 32:13.8 10:22 2213 1210 Pinckney MI
77 Clark,William 4676 33:35.4 32:22.8 10:25 2249 1224 Belding United States
78 Mancini,Gary 8589 34:39.6 32:42.0 10:31 2336 1256 Canton MI
79 Cosgrove,Patrick 4745 36:07.0 33:18.3 10:43 2471 1299 Gaylord MI
80 Ouellette,Daniel 6808 39:29.2 33:36.0 10:49 2538 1325 Saline MI
81 Devitt,Matt 4918 37:23.7 33:50.2 10:53 2592 1345 Hartland MI
82 Zick,Andrew 8237 38:46.5 33:51.3 10:54 2599 1349 Durand MI
83 Warner,Kevin 7961 34:30.9 33:52.3 10:54 2606 1351 Holt MI
84 White,Patrick 8045 36:41.0 34:53.1 11:14 2809 1407 Grand Blanc MI
85 Lavasseur,David 8555 40:53.8 35:05.2 11:18 2843 1416 Saline MI
86 Hale,Richard 5497 38:07.0 35:18.7 11:22 2872 1426 ST. Johns MI
87 Faivor,Frank 5133 38:07.2 35:19.0 11:22 2874 1427 Howell MI
88 Miles,Mark 6512 38:06.8 35:19.3 11:22 2876 1429 Pompeii MI
89 Rollet,Jim 8743 39:47.6 35:30.9 11:26 2916 1444 Southgate MI
90 Litzler,Tom 6222 37:37.6 35:35.4 11:27 2934 1448 Ann Arbor MI
91 Merica,Paul 6484 37:09.1 35:42.4 11:30 2967 1458 Ann Arbor U.S.A.
92 Davidson,Randy 4838 36:22.3 35:51.1 11:32 2993 1464 Ann Arbor United States
93 Walterhouse,Tom 7951 40:03.8 35:52.2 11:33 2996 1465 Ann Arbor MI
94 Bergum,Paul 4279 40:12.9 36:00.4 11:35 3019 1472 White Lake MI
95 Vale,David 7836 38:24.0 36:07.5 11:38 3034 1475 Ann Arbor MI
96 Artt,Douglas 4098 42:16.3 37:00.7 11:55 3154 1522 White Lake MI
97 Jackson,Mike 5771 39:12.8 37:21.7 12:02 3206 1538 Howell MI
98 Miller,Gerald 6518 39:15.9 37:39.6 12:07 3239 1553 Manchester United States
99 Stein,Steve 9211 40:27.8 37:50.4 12:11 3265 1560
100 Kallas,Greg 9203 40:31.0 38:05.7 12:16 3291 1569
101 Penrice,John 6877 44:49.5 38:25.5 12:22 3353 1591 Livonia MI
102 Lacroix,Douglas 6097 43:49.3 38:26.9 12:23 3358 1592 Ypsilanti MI
103 Black,Terry 4319 39:52.0 38:26.9 12:23 3360 1593 Ann Arbor MI
104 Bundesen,Brian 4494 43:49.4 41:03.7 13:13 3617 1671 Ann Arbor MI
105 Baca,John 4120 47:57.9 43:02.5 13:51 3746 1708 South Lyon United States
106 Shaver,Chuck 7381 48:30.6 43:28.6 14:00 3765 1713 Ann Arbor MI
107 King,Bill 5952 48:02.1 43:48.6 14:06 3796 1718 Ann Arbor MI
108 Gruszczynski,Tim 5459 48:12.6 45:16.5 14:34 3862 1740 Plymouth MI
109 Reilly,John 9354 51:09.0 46:01.6 14:49 3917 1752
110 Sidebottom,David 7416 52:27.0 47:19.2 15:14 3997 1770 Lake Orion MI
111 Keedy,John 5895 51:57.5 47:25.1 15:16 4008 1774 Ypsilanti MI
112 Quinnin,Tim 7000 54:31.1 47:45.7 15:22 4030 1778 Ann Arbor MI
113 Canvassar,Marc 4569 48:45.1 48:31.0 15:37 4077 1792 West Bloomfield MI
114 Bedore,Rick 4227 55:21.6 48:31.2 15:37 4078 1793 Jackson MI
115 Castorena,Joe 4605 54:34.8 48:54.4 15:44 4100 1798 Pinckney MI
116 Flessland,Eric 5209 53:55.1 49:11.4 15:50 4116 1802 Grosse Ile MI
117 Kennedy,Bill 8522 50:16.2 49:21.8 15:53 4130 1807 South Lyon U.S.
118 La Pan,Morgan 6092 54:18.3 51:42.2 16:38 4244 1837 Ann Arbor MI
119 Patterson,Howard 6851 58:37.7 52:00.2 16:44 4262 1844 Horton MI
120 Sidebottom,Peter-john 7418 58:16.4 53:07.7 17:06 4312 1857 Toronto Canada
121 Kumbier,Tim 6084 58:22.0 53:58.9 17:22 4347 1871 Ann Arbor MI
122 Flynn,Dan 5217 1:01:02.4 54:14.8 17:28 4364 1876 Riverview MI
123 Couper,Mick 4749 57:14.3 54:48.0 17:38 4382 1883 Ann Arbor MI
124 Koepfle,Jim 5998 1:02:42.5 58:04.0 18:41 4502 1913 Ann Arbor MI
125 Whaley,James 8031 1:04:43.7 58:18.8 18:46 4517 1918 Grayslake IL
126 Stevick,Tom 1479 1:01:59.6 59:45.4 19:14 4566 1930 Ann Arbor MI
127 O'brien,John 6746 1:03:45.9 59:55.1 19:17 4573 1932 Bloomfield Hills MI
128 Stout,Charlie 7623 1:06:26.2 1:00:20.0 19:25 4590 1938 Ann Arbor MI
129 Alcini,William 4039 1:06:29.1 1:03:01.6 20:17 4625 1947 Ann Arbor MI
130 Sorensen,Brian 7529 1:08:54.6 1:03:16.3 20:22 4631 1949 Canton MI
131 Judson,Roger 5861 1:10:44.4 1:10:44.4 22:46 4725 1976 Ann Arbor MI
Go To Top
55-59 Male
Overall Overall State/
Place Name Bib Gun Tag Pace Place by Sex City County
1 Hayes,Wally 5576 20:20.5 20:17.1 6:32 99 89 Ann Arbor MI
2 Bearden,James 4209 21:24.0 21:16.8 6:51 151 135 Livonia MI
3 Mulvihill,Thomas 6625 22:19.5 22:12.7 7:09 220 198 Livonia MI
4 Ringo,Thomas 8731 23:00.8 22:54.0 7:22 267 238 Northville MI
5 Clark,David 4672 24:01.4 23:36.4 7:36 337 292 Ypsilanti MI
6 Wood,Stewart 8145 23:59.7 23:42.2 7:38 348 302 Ann Arbor MI
7 Haack,Larry 8943 25:03.9 24:28.3 7:53 467 378 Ann Arbor MI
8 Hasegawa,Doug 5556 24:59.3 24:29.4 7:53 469 380 Evanston IL
9 Yeatts,Don 8182 26:33.7 24:35.7 7:55 486 394 Ann Arbor MI
10 Greene,Arthur 8441 25:21.2 24:44.8 7:58 514 412 Ann Arbor MI
11 Martin,Tim 6342 25:32.5 25:04.0 8:04 568 451 Ann Arbor MI
12 Zeimet,Thomas 8231 30:52.9 25:30.9 8:13 639 493 Ann Arbor MI
13 Valenti,Paul 9174 26:05.6 25:39.8 8:16 675 512
14 Arsen,David 4096 26:37.7 25:48.5 8:18 700 530 Ann Arbor MI
15 Benaglio,James 4249 26:28.1 26:01.2 8:22 746 563 Livonia MI
16 Brackett,Wayne 4400 26:27.9 26:12.0 8:26 781 581 Taylor MI
17 Catalan,Albert 4606 27:21.9 26:48.5 8:38 888 639 Plymouth MI
18 Schmich,Blane 9333 28:18.0 27:02.4 8:42 944 667
19 Williams,Darrell 8090 28:45.0 27:14.3 8:46 976 684 Stockbridge MI
20 Nixon,Kenneth 6720 28:49.0 27:17.2 8:47 988 691 Chelsea MI
21 Fellows,Gordon 5157 29:28.4 27:20.2 8:48 995 695 Dexter MI
22 Mendez,Rudy 6473 27:41.3 27:41.3 8:55 1062 732 Dexter MI
23 Day,Clyde 4865 29:56.0 27:45.0 8:56 1072 737 Commerce Oakland
24 Maxfield,Steve 6379 29:42.1 27:59.8 9:01 1137 762 Linden MI
25 Kosteniuk,William 6023 32:03.4 28:11.7 9:05 1184 784 Troy MI
26 Zdeba,Tom 8228 30:21.9 28:16.5 9:06 1200 791 Ann Arbor MI
27 Brooks,John 9128 30:19.1 28:35.5 9:12 1283 828
28 Boynton,Daniel 4394 30:30.5 28:54.6 9:18 1370 867 Troy MI
29 Gwisdala,Jack 5481 30:50.1 29:08.1 9:23 1411 891 Standish U.S.A.
30 Musch,David 6645 32:00.3 29:12.1 9:24 1426 900 Ypsilanti United States
31 Welch,William 8006 33:31.8 29:47.1 9:35 1578 972 Livonia MI
32 Heberling,Michael 5582 31:30.7 29:50.7 9:36 1603 986 Grand Blanc MI
33 Jasman,Chuck 9435 36:13.6 31:13.2 10:03 1937 1116 Saline MI
34 Dates,Bob 4829 32:02.4 31:13.3 10:03 1938 1117 Canton MI
35 Veit,Anthony 7883 36:43.8 31:17.3 10:04 1950 1123 Ann Arbor MI
36 Weisman,David 7998 34:14.0 31:20.1 10:05 1971 1133 Ann Arbor MI
37 Desloover,Larry 4909 31:59.9 31:24.1 10:06 1989 1135 Dundee MI
38 Davis,Dave 4846 35:55.5 31:35.1 10:10 2040 1152 Ann Arbor United States
39 Frimenko,Jacob 5265 33:40.0 32:09.5 10:21 2189 1198 Northville MI
40 Hanlon,Phil 8455 36:45.4 32:40.1 10:31 2326 1250 Ann Arbor MI
41 Johnson,Frank 8499 34:09.9 33:04.7 10:39 2429 1284 Ann Arbor MI
42 Cherven,Larry 8915 37:04.5 33:11.4 10:41 2452 1288 Ann Arbor MI
43 Cooper,James 8344 36:35.7 33:16.6 10:43 2465 1294 Toledo United States
44 Rudnick,Robert 7203 35:20.6 33:18.6 10:43 2474 1301 Farmington Hills MI
45 Burek,Greg 4505 38:28.5 33:24.4 10:45 2495 1309 Canton United States
46 Perrin,Stephen 8690 37:15.0 33:24.8 10:45 2498 1311 Ann Arbor U.S.A.
47 Doescher,James 4949 37:31.9 33:38.0 10:50 2550 1332 Metamora MI
48 Serrell,William 7374 40:39.6 34:55.0 11:14 2820 1410 Ypsilanti MI
49 Vandermarkt,Dale 7856 38:42.6 35:18.2 11:22 2871 1425 Jenison MI
50 Telfer,James 7722 40:59.0 35:46.5 11:31 2980 1461 Dexter MI
51 Spangler,Craig 7538 39:47.0 35:57.0 11:34 3010 1467 Bloomfield Hills MI
52 Demember,Robert 8362 37:53.6 35:59.3 11:35 3016 1470 Northville MI
53 Weir,Andy 9361 40:04.6 36:31.1 11:45 3086 1498
54 Tanguay,Donald 7706 40:42.3 36:53.5 11:52 3135 1515 Jackson MI
55 Desai,Bipin 4903 39:14.3 37:22.8 12:02 3208 1539 Brighton MI
56 Loney,Stephen 6230 38:51.7 37:43.0 12:08 3251 1556 Ann Arbor MI
57 Harrison,Michael 5551 42:17.5 37:52.2 12:11 3269 1562 Allen Park MI
58 William,Law 8085 40:02.8 38:27.3 12:23 3365 1595 Farmington Hills MI
59 Roedel,Martin 7153 40:44.5 38:35.2 12:25 3380 1599 Livonia MI
60 Wakefield,Thomas 9470 39:11.2 38:37.6 12:26 3384 1602 Ann Arbor MI
61 Whitehead,Alan 8050 41:14.5 38:40.4 12:27 3390 1605 Novi MI
62 Moeller,Mark 8640 41:07.8 39:14.7 12:38 3444 1617 Boulder CO
63 Woodall,Michael 8150 41:14.6 40:05.4 12:54 3532 1645 Attica United States
64 Asam,Robert 4100 46:47.6 41:50.3 13:28 3675 1690 Belleville United States
65 Rivet,Randall 7117 48:01.5 43:16.2 13:56 3755 1710 Ann Arbor MI
66 Welty,Max 8014 50:02.3 43:53.5 14:08 3801 1721 Saline MI
67 Cullip,Robert 4790 48:42.3 44:01.0 14:10 3811 1724 Ann Arbor MI
68 Connors,Tim 9142 51:13.7 45:37.3 14:41 3893 1746
69 Dunnigan,David 5020 49:13.6 45:38.0 14:41 3897 1748 Milan MI
70 Ryan,Greg 8755 48:58.8 46:16.5 14:54 3939 1755 Martinez GA
71 Stallard,Timothy 1468 50:58.7 46:49.3 15:04 3973 1765 South Lyon MI
72 Wilcox,William 8073 1:00:36.0 47:50.4 15:24 4035 1780 Waterford MI
73 Rutter,Craig 7238 50:25.3 48:00.5 15:27 4043 1782 Defiance OH
74 Spalding,David 7537 53:57.0 48:29.6 15:36 4071 1790 Jackson MI
75 Weber,Tom 7982 50:55.4 49:49.7 16:02 4160 1814 Ann Arbor U.S.
76 Russell,Randy 7227 55:44.9 50:16.0 16:11 4184 1821 Windsor Canada
77 Sarns,Steve 8764 53:58.9 50:59.4 16:25 4212 1829 Dexter MI
78 Teeple,Jim 7719 54:17.4 51:30.1 16:35 4234 1833 Milan MI
79 Elyakin,Neal 5083 54:39.6 51:46.4 16:40 4250 1840 Ann Arbor MI
80 Barkume,Tim 4176 57:35.4 52:15.6 16:49 4269 1846 Farmington Hills MI
81 Stankov,Marc 7561 59:58.3 53:18.6 17:09 4326 1863 Fowlerville United States
82 Zonts,Steve 8249 59:41.5 53:39.7 17:16 4337 1865 Jackson MI
83 Eisenhardt,John 5054 59:48.1 53:58.0 17:22 4345 1869 Dexter MI
84 Lagory,Michael 6105 57:42.4 53:59.0 17:22 4348 1872 Livonia MI
85 Burns,Scott 4523 58:58.0 54:14.8 17:28 4365 1877 Grosse Pointe Woods MI
86 Debono,Maggie 2139 59:29.9 56:10.7 18:05 4429 1893
87 Twichell,Jerry 7816 1:05:06.6 58:17.6 18:46 4514 1916 Saline MI
88 Valasek,Mike 7833 1:09:21.8 1:03:28.6 20:26 4646 1953 Owosso MI
89 Deloria,Wayne 4889 1:04:44.8 1:04:44.8 20:50 4659 1955 Whitmore Lake MI
90 Sanders,Lee 7273 1:04:46.2 1:04:46.2 20:51 4661 1956 Shelby Township MI
Go To Top
60-64 Male
Overall Overall State/
Place Name Bib Gun Tag Pace Place by Sex City County
1 Slack,Steve 7463 22:13.1 21:59.1 7:05 205 184 Ann Arbor MI
2 Bayer,Chuck 4203 22:33.9 22:25.2 7:13 229 205 Farmington Hills MI
3 Garner,Mitchell 8938 23:09.8 22:53.1 7:22 265 236 Ann Arbor MI
4 Pardon,Mark 6829 24:05.9 23:57.4 7:43 387 328 Ann Arbor MI
5 Wink,Bob 8118 26:13.9 25:31.4 8:13 642 495 South Lyon MI
6 Goodenow,Lawrence 5390 26:51.3 25:51.8 8:19 707 534 Lapeer MI
7 Martinec,Richard 6343 27:46.8 26:03.9 8:23 757 568 Livonia MI
8 Crowley,Dennis 4778 28:11.8 26:41.8 8:36 869 628 Ypsilanti MI
9 Mell,Dennis 6468 28:37.3 26:49.6 8:38 891 641 Monroe MI
10 Johnson,James 5824 29:26.6 28:00.4 9:01 1141 765 Muskegon MI
11 Mosher,Dan 6601 30:13.6 28:11.6 9:04 1181 782 Farmington Hills MI
12 Weber,Michael 7981 29:44.4 28:29.7 9:10 1245 811 Ann Arbor MI
13 Phillips,Tj 6919 32:54.0 29:22.0 9:27 1458 916 Traverse City United States
14 Galea,Mike 5287 33:10.1 30:09.6 9:42 1674 1014 Ann Arbor United States
15 Mccartney,Tom 6401 32:45.7 30:22.9 9:47 1745 1038 Saline MI
16 Thomas,Michael 7743 32:12.9 30:23.6 9:47 1750 1040 Novi United States
17 Johnson,Richard 5833 32:25.0 30:32.0 9:50 1789 1059 South Lyon MI
18 Gurtowsky,Larry 5477 34:17.5 31:17.4 10:04 1951 1124 Ann Arbor MI
19 Mulder,Ray 6618 32:57.7 31:19.2 10:05 1961 1130 Wyoming United States
20 Gillis,Richard 5360 35:32.1 31:28.3 10:08 2012 1139 Whitmore LK. MI
21 Williams,Douglas 8091 32:16.5 31:32.8 10:09 2033 1148 Livonia MI
22 Leenhouts,John 6158 37:15.9 31:49.3 10:15 2093 1163 Spring Lake MI
23 Jackson,Shaun 5774 33:51.0 31:53.4 10:16 2120 1172 Ann Arbor MI
24 Kirkwood,Dennis 5971 36:41.5 32:07.2 10:20 2182 1196 Ann Arbor MI
25 Bell,Ron 4247 38:49.9 32:17.0 10:23 2226 1213 Ypsilanti MI
26 O'neill,Rick 6786 36:54.1 33:03.7 10:38 2424 1282 Ann Arbor MI
27 Marentette,Wayne 6323 38:52.5 35:33.9 11:27 2928 1446 Wyandotte MI
28 Boedeker,Gregory 4344 40:15.8 35:36.4 11:28 2941 1450 Clinton Township MI
29 Siskosky,James 7445 40:09.1 35:52.3 11:33 2997 1466 Novi MI
30 Addonizio,Mike 8893 38:52.0 36:28.0 11:44 3074 1492 Ann Arbor MI
31 Sweeton,Jim 9459 37:51.5 36:30.1 11:45 3079 1494
32 Henry,Donald 5607 44:15.6 36:55.2 11:53 3140 1518 Whitmore Lake MI
33 Atkins,James 4103 41:47.7 37:20.4 12:01 3201 1537 Sault StE. Marie MI
34 Heinz,Wolfgang 5595 41:49.7 37:28.7 12:04 3222 1545 Ypsilanti MI
35 Bauer,Bob 4198 43:26.9 37:39.6 12:07 3240 1554 Milan MI
36 Loney,Neil 6229 38:51.5 37:42.5 12:08 3250 1555 Ann Arbor MI
37 Mcdannel,Gary 6419 39:59.2 38:25.4 12:22 3352 1590 Southgate MI
38 Dorcey,John 4965 52:21.9 38:35.9 12:25 3382 1601 Brighton MI
39 Higgins,Roger 5636 41:32.9 38:47.1 12:29 3408 1609 Ypsilanti MI
40 Ramesh,Swaminathan 7013 41:09.4 39:03.3 12:34 3429 1615 Canton MI
41 Flood,William 9165 43:27.8 39:41.1 12:46 3494 1634
42 Prygoski,Phil 6980 42:58.4 39:48.8 12:49 3510 1639 Okemos MI
43 Samborn,James 7270 46:54.7 40:37.2 13:04 3571 1654 Ann Arbor MI
44 Craig,David 4760 48:55.3 45:06.1 14:31 3856 1738 Grass Lake MI
45 Ochmanski,Richard 6749 49:48.8 46:31.3 14:58 3951 1760 Plymouth United States
46 Hawkins,Ian 5565 51:12.0 47:20.3 15:14 4003 1772 Ypsilanti MI
47 Newman,Frank 6697 48:44.8 48:30.4 15:37 4074 1791 West Bloomfield MI
48 King,Lawrence 5955 51:40.8 48:49.6 15:43 4092 1796 Ann Arbor MI
49 Julien,Thomas 5863 51:41.2 48:50.2 15:43 4094 1797 Lansing MI
50 Prince,Russell 6974 55:47.0 49:03.0 15:47 4108 1800 Ypsilanti MI
51 Mccready,Ron 6413 55:54.4 50:34.4 16:17 4198 1826 Ann Arbor MI
52 Welch,Daniel 8003 54:42.8 50:57.4 16:24 4209 1828 Ann Arbor MI
53 Facey,Bill 5126 58:43.4 52:22.9 16:52 4276 1848 Lasalle MI
54 Weid,James 7989 58:46.9 53:14.1 17:08 4319 1860 Jackson MI
55 Mudge,Trevor 2136 56:27.0 53:54.6 17:21 4342 1868
56 Osburn,Philip 6798 59:43.9 54:23.8 17:30 4370 1878 Grosse Pointe Park MI
57 Pelton,George 6873 57:55.3 54:54.0 17:40 4388 1885 Fenton MI
58 Khalaf,Tahseen 5937 57:58.4 55:00.1 17:42 4390 1886 Westland Use
59 Mieczkowski,Richard 6505 1:01:54.6 55:16.0 17:47 4401 1888 Temperance MI
60 Gonzales,D'arcy 5385 55:31.6 55:31.6 17:52 4407 1891 Clarkston MI
61 Annelin,Thomas 4084 1:01:47.4 57:25.2 18:29 4475 1906 Traverse City MI
62 Bylsma,Kenneth 4549 1:02:31.7 57:56.9 18:39 4498 1912 Pinckney MI
63 Hall,Peter 577 1:04:06.1 58:05.1 18:42 4503 1914 Pinckney MI
64 Twichell,Fred 7814 1:04:54.2 58:05.3 18:42 4504 1915 Saline MI
65 Robertson,Jim 8734 58:36.6 58:36.6 18:52 4534 1924 Plymouth MI
66 Brogdon,James 8305 1:07:35.5 1:01:17.4 19:44 4604 1943 Tipton MI
67 Pray,David 6961 1:09:07.9 1:02:01.9 19:58 4613 1945 Clinton MI
68 Hoffman,Jeffrey 5676 1:04:57.0 1:04:57.0 20:54 4664 1957 ST. Clair Shores MI
69 Green,Harold 5433 1:08:43.0 1:08:43.0 22:07 4707 1972 Ypsilanti MI
70 Meyer,Richhard 6492 1:13:11.4 1:10:09.4 22:35 4719 1974 Novi MI
Go To Top
65-69 Male
Overall Overall State/
Place Name Bib Gun Tag Pace Place by Sex City County
1 Herrala,Wally 8469 20:26.7 20:23.6 6:34 106 95 Ann Arbor MI
2 Santoro JR.,Tom 7283 23:10.4 22:58.1 7:24 273 244 Gregory MI
3 Halter,Jeffrey 5516 24:53.5 24:42.4 7:57 503 406 Ann Arbor MI
4 Vile,Richard 8840 34:07.4 29:22.2 9:27 1459 917 Dexter MI
5 Gamble,Dan 5294 30:25.0 30:07.6 9:42 1665 1011 Ann Arbor MI
6 Knieper,Wayne 5988 32:46.9 30:18.8 9:45 1724 1029 Frankenmuth United States
7 Jansson,Owen 5791 32:48.9 30:21.9 9:46 1739 1036 Ann Arbor U.S.
8 Martin,Bill 6336 32:48.9 30:32.5 9:50 1791 1060 Ann Arbor MI
9 Comazzi,Anthony 4703 35:42.3 32:04.5 10:19 2174 1192 Ypsilanti MI
10 Whitman,James 8055 33:45.0 32:21.1 10:25 2240 1220 ST. Clair Shores MI
11 Banning,Al 4167 36:46.4 35:01.0 11:16 2838 1415 Ann Arbor MI
12 Elser,Doug 5081 41:11.1 35:48.1 11:31 2985 1463 Ann Arbor MI
13 Cherry,Donald 4640 39:16.5 36:34.5 11:46 3096 1501 Grosse Pointe MI
14 Arizala,Andy 4091 42:33.1 36:49.8 11:51 3130 1513 Ann Arbor MI
15 Sweeney,David O. 7693 38:43.2 37:29.6 12:04 3224 1546 Northville MI
16 Timm,DR. Terry 8817 42:22.7 39:59.3 12:52 3526 1643 Ann Arbor MI
17 Grams,William 5419 45:28.0 40:29.0 13:02 3560 1651 Ann Arbor MI
18 Gareiss,Roger 5297 45:16.5 40:46.1 13:07 3587 1659 Charlotte MI
19 Lex Sr,Dennis 6206 45:12.0 42:26.6 13:40 3708 1698 Grosse Pointe Woods United States
20 Saulter,Ken 8766 44:05.5 42:29.1 13:40 3710 1700 Ann Arbor MI
21 Brown,Frederick 4453 49:07.7 43:08.7 13:53 3751 1709 Sparta MI
22 Cherry,Donald 4641 47:49.8 45:07.5 14:31 3858 1739 Grosse Pointe MI
23 ST. Germain,Gerald 7550 53:06.4 46:35.2 15:00 3957 1763 Ann Arbor MI
24 Maguire,Robert 6293 55:47.3 49:04.4 15:48 4109 1801 Ypsilanti MI
25 Albertson,Donald 9284 49:40.9 49:40.9 15:59 4152 1813
26 Chandler,Bill 4618 53:06.5 50:31.4 16:16 4196 1825 Ann Arbor MI
27 Stosuy,Gregory 7622 1:02:27.6 55:47.1 17:57 4422 1892 Medford NJ
28 Maxwell,Robert 6381 1:03:30.1 57:19.5 18:27 4468 1904 Ypsilanti MI
29 Sharp,Richard 7377 59:27.1 57:45.7 18:35 4488 1908 Jackson United States
30 Wagner,Douglas 7924 1:03:38.3 57:56.3 18:39 4497 1911 Brighton Livingston
31 Macqueen,Donald 6286 1:10:58.5 1:08:27.9 22:02 4697 1969 Ann Arbor MI
Go To Top
70-74 Male
Overall Overall State/
Place Name Bib Gun Tag Pace Place by Sex City County
1 Gorlewski,Roger 5403 25:08.5 25:01.4 8:03 556 441 Ann Arbor MI
2 Riegger,Otto 7105 32:56.9 31:55.6 10:17 2137 1181 Ann Arbor MI
3 Matuszak,Jerry 6364 32:35.1 32:12.7 10:22 2206 1205 Ann Arbor MI
4 Burns,Peter 4522 36:42.7 32:48.6 10:34 2371 1268 Sharpsburg GA
5 Shannon,Gary 8780 46:59.9 41:35.6 13:23 3651 1683 Lexington KY
6 Smith,Garvin 7483 47:08.4 42:02.7 13:32 3689 1694 Ann Arbor MI
7 Croissant,Paul 8351 49:46.3 46:10.8 14:52 3929 1753 Rochester Hills MI
8 Peters,Robert 6900 52:44.8 47:13.3 15:12 3989 1769 Commerce Township MI
9 Beernink,John 4233 58:29.3 54:30.2 17:33 4376 1880 Grand Rapids MI
10 Sumerton,William 7669 1:03:56.4 56:31.9 18:12 4441 1895 Novi MI
11 Rotzien,Lee 7191 1:03:49.3 58:39.9 18:53 4537 1925 Niles MI
Go To Top
75-79 Male
Overall Overall State/
Place Name Bib Gun Tag Pace Place by Sex City County
1 Desenberg,Jon 4905 36:02.9 31:35.1 10:10 2041 1153 Ann Arbor MI
2 Ettenson,Mel 5110 37:55.0 34:27.2 11:05 2720 1384 Bingham Farms MI
3 Schrader,Al 8771 39:13.0 35:00.1 11:16 2833 1412 Ann Arbor MI
4 Whalen,Tom 8030 40:44.8 36:52.7 11:52 3132 1514 Ann Arbor MI
Go To Top
80-84 Male
Overall Overall State/
Place Name Bib Gun Tag Pace Place by Sex City County
1 Forshee,Jim 5220 34:34.6 34:12.0 11:00 2675 1368 Ann Arbor MI
2 Sarns,Dick 8760 48:00.9 42:27.7 13:40 3709 1699 Ann Arbor MI
Go To Top
85-89 Male
Overall Overall State/
Place Name Bib Gun Tag Pace Place by Sex City County
1 Smith,Haldon 9230 1:08:43.0 1:03:25.1 20:25 4643 1952
Go To Top
90-94 Male
Overall Overall State/
Place Name Bib Gun Tag Pace Place by Sex City County
1 Devine,Edmond 4916 50:09.9 49:52.8 16:03 4166 1816 Ann Arbor MI
Go To Top
Age Unknown - Female
Overall Overall State/
Place Name Bib Gun Tag Pace Place by Sex City County
1 Ellis,Holli 9123 26:20.7 25:36.6 8:15 662 159
2 Wittenbach,Kristin 9121 36:12.4 30:16.9 9:45 1713 689
3 Horntz,Stephanie 9194 34:41.1 31:05.5 10:00 1901 800
4 Rogers,Hallie 9092 35:16.2 31:37.9 10:11 2046 893
5 Mathis,Jacqueline 9280 33:21.7 31:42.1 10:12 2069 911
6 Hoyle,Sally 9060 36:20.4 31:43.9 10:13 2076 915
7 Maguire,Kathy 9059 34:21.4 31:53.6 10:16 2123 951
8 Souweidane,Sara 9100 34:43.8 31:57.4 10:17 2144 962
9 Lavery,Laurel 9345 33:53.4 32:51.3 10:34 2385 1115
10 Issel,Cathy 9476 43:45.1 33:29.0 10:47 2516 1199
11 Welton,Shelly 9102 38:29.7 33:30.6 10:47 2520 1201
12 Salamanca,Camila 9329 34:40.7 33:32.6 10:48 2526 1207
13 Mcdonald,Jamie 9287 38:51.5 35:37.4 11:28 2949 1497
14 Boren,Jillian 9256 37:56.6 35:59.4 11:35 3018 1547
15 Baughman,Linda 2153 42:36.9 36:45.8 11:50 3125 1614
16 Chumpitasi,Sue 9146 42:26.2 38:09.0 12:17 3301 1730
17 Mccourtie,Shannon 6410 53:36.6 47:50.9 15:24 4036 2256 Brooklyn MI
18 Koran,Kathleen 9347 59:16.6 55:14.3 17:47 4400 2513
19 Doyle,Sandi 9367 1:13:37.4 1:06:46.2 21:29 4686 2722
20 Cook,Ann 9368 1:13:40.8 1:06:48.4 21:30 4687 2723
Go To Top
1-4 Female
Overall Overall State/
Place Name Bib Gun Tag Pace Place by Sex City County
1 Lemerond,Laura 6174 54:38.6 47:43.1 15:22 4026 2250 Clarkston MI
2 Lemerond,Charlotte 6172 54:37.8 47:43.4 15:22 4027 2251 Clarkston MI
3 Scott,Esm� 9012 1:09:34.3 1:09:34.3 22:24 4712 2739 Novi MI
Go To Top
5-9 Female
Overall Overall State/
Place Name Bib Gun Tag Pace Place by Sex City County
1 Crumm,Isabelle 4780 27:42.7 27:18.7 8:47 991 300 Ann Arbor MI
2 Mueting,Mara 6611 28:48.7 27:45.6 8:56 1074 337 Dexter MI
3 Anderson,Kirsten 4070 29:13.9 27:50.5 8:58 1092 344 Novi MI
4 Gitlin,Emily 9234 28:24.8 28:00.1 9:01 1138 376
5 Kass,Sam 5888 29:22.3 28:32.9 9:11 1264 445 Ann Arbor United States
6 Miller,Katie 6525 30:12.9 28:33.2 9:11 1265 446 Ann Arbor MI
7 Anderson,Sydney 4076 30:04.8 28:41.2 9:14 1307 471 Novi MI
8 Phair,Eva 8998 29:25.9 28:42.4 9:14 1313 475 Ann Arbor MI
9 Thorburn,Riley 7757 31:40.6 29:36.2 9:32 1518 568 Chelsea MI
10 Kwasniewicz,Bailey 8545 32:13.1 29:47.8 9:35 1580 607 Novi MI
11 Hall,Lauren 5506 30:49.9 29:50.2 9:36 1599 617 Swartz Creek MI
12 Scott,Lucy 7346 33:23.2 30:18.8 9:45 1725 696 Ann Arbor MI
13 Watson,Ashley 9079 36:06.0 30:31.1 9:49 1786 730
14 Hawn,Samantha 5572 35:02.0 30:33.2 9:50 1794 734 Portage United States
15 Donevan,Maeve 8378 31:34.8 30:49.4 9:55 1844 770 Dexter MI
16 Brasher,Isobelle 4415 34:41.8 31:25.1 10:07 1994 858 Ann Arbor MI
17 Nkansah-andoh,Afua 8660 32:22.4 31:57.6 10:17 2145 963 Ann Arbor MI
18 Kwok,Sofia 6090 34:22.1 32:03.1 10:19 2165 976 Ann Arbor MI
19 Sieler,Samantha 9143 32:24.7 32:07.9 10:21 2184 987
20 Schmidt,Maggie 7309 34:59.3 32:41.4 10:31 2332 1078 Ann Arbor MI
21 Stroud,Leah 8806 34:25.6 32:42.3 10:32 2341 1084 Ann Arbor MI
22 Carvette,Grace 4597 32:49.5 32:45.5 10:33 2354 1095 Ann Arbor MI
23 Strauss,Mira 7632 35:48.2 33:49.6 10:53 2589 1246 Ann Arbor MI
24 Steglitz,Allison 7578 38:45.0 34:01.0 10:57 2633 1276 Ann Arbor MI
25 Duck,Elinor 5001 39:20.2 34:10.1 11:00 2669 1304 Ann Arbor MI
26 Freiman,Meryl 5256 40:51.4 34:48.5 11:12 2797 1394 Ann Arbor MI
27 Carlson,Katherine 4579 38:42.4 35:16.3 11:21 2866 1442 Holland MI
28 Stehouwer,Emilia 7583 40:17.3 36:28.9 11:45 3076 1583 Ann Arbor U.S.
29 Waddington,Marin 7919 42:52.2 37:11.7 11:58 3183 1652 Dexter United States
30 Waddington,Skylar 7921 42:52.9 37:12.2 11:58 3185 1654 Dexter United States
31 Steglitz,Charlotte 7580 41:58.2 37:14.1 11:59 3189 1658 Ann Arbor MI
32 Waddington,Gabriella 7917 43:21.9 37:40.1 12:07 3241 1687 Dexter United States
33 Kallas,Mekenna 9184 40:30.9 38:06.0 12:16 3292 1723
34 Halberstam,Hannah 8449 39:48.4 38:13.1 12:18 3316 1738 Ann Arbor MI
35 Rosati,Sarah 8751 43:49.8 38:35.1 12:25 3379 1781 Ann Arbor United States
36 Lubetkin,Sierra 8972 43:23.5 39:02.2 12:34 3427 1813 Ann Arbor MI
37 Gallagher,Elizabeth 5289 42:57.1 39:28.5 12:42 3465 1841 Whitmore Lake MI
38 Buck,Margaret 4483 40:45.9 39:32.0 12:43 3473 1847 Canton MI
39 Doan,Payton 8375 44:10.8 40:07.3 12:55 3534 1888 Gregory MI
40 Basch,Rose 8281 41:29.3 40:34.3 13:04 3566 1914 Ann Arbor MI
41 Flanders,May 8403 44:24.3 41:29.0 13:21 3633 1960 Ann Arbor MI
42 Dowling,Sydney 4981 46:34.2 41:31.6 13:22 3637 1962 Ann Arbor MI
43 Salvatore,Lucie 7267 47:18.6 41:55.7 13:30 3678 1988 South Lyon MI
44 Behen,Isabel 4237 47:45.9 42:25.0 13:39 3705 2008 Ypsilanti MI
45 Craig,Haley 4761 46:45.7 42:51.2 13:48 3734 2028 Dexter MI
46 Krushelnick,Katie 6066 48:33.4 43:16.7 13:56 3756 2046 Ann Arbor MI
47 Simons,Jillian 8787 46:15.1 43:43.1 14:04 3783 2067 Belleville MI
48 Lusk,Mary 6260 48:56.5 44:27.6 14:19 3820 2095 Woodhaven United States
49 Zurbuchen,Maria 9157 51:06.2 45:24.8 14:37 3874 2132
50 Wirebaugh,Payton 8124 52:10.0 46:06.6 14:50 3925 2173 Holland MI
51 Mehraban,Abigail 6458 49:36.1 46:12.3 14:52 3932 2179 Ann Arbor MI
52 Gilbert,Meredith 8428 51:00.9 46:27.6 14:57 3948 2190 Ann Arbor MI
53 Mehraban,Lucy 6460 50:06.2 46:41.7 15:02 3966 2202 Ann Arbor MI
54 Flessland,Ellise 5208 53:55.7 49:12.0 15:50 4117 2315 Grosse Ile MI
55 Majer,Mara 6300 56:35.7 52:21.2 16:51 4273 2426 Saline MI
56 Sidebottom,Cassie 7415 58:05.1 52:56.9 17:03 4297 2444 Toronto Canada
57 Pohlman,Riley 8704 1:03:16.0 56:21.8 18:08 4434 2541 Ann Arbor United States
Go To Top
10-14 Female
Overall Overall State/
Place Name Bib Gun Tag Pace Place by Sex City County
1 Cell,Alexandria 9178 20:35.9 20:24.4 6:34 107 12
2 Harris,Hailey 5541 20:30.0 20:26.2 6:35 110 13 Canton MI
3 Nicholas,Madeleine 9089 21:59.9 21:56.6 7:04 202 21
4 Siegler,Jessica 7423 22:15.6 22:00.2 7:05 206 22 Canton MI
5 Weinberg,Lauren 9181 24:31.6 23:15.8 7:29 302 35
6 Waltrr,Gillian 7954 24:36.6 23:33.8 7:35 332 43 Ann Arbor MI
7 Zawacki,Lindsey 8226 23:48.4 23:45.3 7:39 353 47 Monroe MI
8 Clark,Charlotte 9118 23:53.4 23:49.9 7:40 364 52
9 Goodson,Madeline 5396 24:10.5 23:55.6 7:42 381 56 Ann Arbor MI
10 Digiovanni,Anna 4935 24:21.5 24:09.9 7:47 417 72 Ann Arbor MI
11 Kanji,Laura 8516 25:15.2 24:46.1 7:58 517 103 Ann Arbor MI
12 Hunter,Lauren 5742 25:06.3 24:55.6 8:01 538 108 Saline MI
13 Schultz,Maggie 7336 25:33.0 24:59.0 8:02 551 114 Whitmore Lake MI
14 Hunter,Marguerite 5743 25:14.3 25:03.8 8:04 567 117 Saline MI
15 Matuszewski,Rachel 6371 26:12.9 25:31.0 8:13 640 147 Brighton MI
16 Yeatts,Katie 8183 27:31.9 25:33.0 8:13 647 150 Ann Arbor MI
17 Young,Julia 9134 27:03.6 25:35.0 8:14 657 157
18 Wittig,Amelia 8132 26:34.8 25:35.0 8:14 658 158 Ann Arbor MI
19 Aldrich,Keaton 4043 26:46.9 25:42.6 8:17 681 165 Stockbridge MI
20 Oldani,Kaelan 6768 26:25.1 26:08.1 8:25 767 194 Ann Arbor MI
21 Kroll,Dani 6059 30:07.6 26:17.8 8:28 800 206 Brighton MI
22 Rosati,Rachel 8750 26:45.7 26:28.5 8:31 824 216 Ann Arbor United States
23 Elizabeth,Schmidt 5067 27:57.9 26:28.9 8:31 825 217 Ann Arbor MI
24 Sovitch,Olivia 7535 29:44.4 26:40.6 8:35 864 238 Saline MI
25 Benedict,Valerie 4258 27:18.6 26:44.3 8:36 877 247 Ann Arbor MI
26 Sunahara,Zoe 7672 28:17.2 26:44.8 8:37 879 248 Ann Arbor United States
27 Mcintyre,Masha 6435 26:54.1 26:50.4 8:38 894 253 Newport MI
28 Kent,Grace 8525 28:49.7 26:59.5 8:41 935 273 Ann Arbor MI
29 Bunker,Madison 4495 28:49.9 27:00.0 8:41 936 274 Ann Arbor MI
30 Arsen,Celia 4095 27:50.1 27:01.3 8:42 940 275 Ann Arbor MI
31 Petersen,Jane 8996 27:27.7 27:08.9 8:44 965 287 Ann Arbor MI
32 Forman,Alexandra 8407 29:40.4 27:18.3 8:47 990 299 Ann Arbor MI
33 Karabakal,Suzan 5879 28:03.6 27:21.5 8:48 1001 302 Ann Arbor MI
34 Jong,Casey 5845 28:16.7 27:53.5 8:59 1105 356 Ann Arbor Washtenaw
35 Erkkinen,Elizabeth 5099 34:06.6 27:54.2 8:59 1111 361 Ann Arbor MI
36 Ethridge,Haley 5108 30:14.0 27:58.6 9:00 1132 372 Dearborn Heights U.S.
37 Torres,Samantha 8819 28:19.2 28:11.6 9:04 1182 400 Ann Arbor MI
38 Heidorn,Grace 5587 33:11.6 28:13.9 9:05 1193 403 Ann Arbor U.S.A.
39 Schoeni,Maddie 7320 30:09.7 28:15.9 9:06 1197 407 Ann Arbor MI
40 Labadie,Samantha 6093 29:07.7 28:32.7 9:11 1260 442 Dexter MI
41 Romero,Juliana 7167 30:12.4 28:32.8 9:11 1263 444 Ann Arbor MI
42 Bell,Julia 4245 29:08.3 28:33.4 9:11 1268 447 Dexter United States
43 Young,Elizabeth 8196 29:48.8 28:33.7 9:12 1269 448 Ypsilanti MI
44 Stites,Sydney 7609 33:29.2 28:34.0 9:12 1273 451 Ann Arbor MI
45 Fulcher,Courtney 5275 29:31.8 28:44.8 9:15 1322 479 Ann Arbor MI
46 Sondakh-dorantes,Shaina 7528 30:13.9 29:09.8 9:23 1417 524 Saline MI
47 Northern,Amelia 6734 29:18.9 29:12.7 9:24 1427 527 Kalamazoo MI
48 Miner,Alison 6547 30:40.0 29:20.9 9:27 1455 541 West Bloomfield MI
49 Theodorsdottir,Arnbjorg 9029 29:36.7 29:23.9 9:28 1466 545 Ann Arbor MI
50 Clark,Grace 8337 30:49.2 29:37.5 9:32 1532 578 Lowell MI
51 Dixon,Kyla 8371 30:49.6 29:37.6 9:32 1534 580 Lowell MI
52 Roumel,Olivia 7194 30:34.4 29:55.0 9:38 1625 629 Ann Arbo MI
53 Kwasniewicz,Mackenzie 8546 32:31.1 30:06.5 9:41 1660 652 Novi MI
54 Perpich,Annie 6888 32:04.9 30:15.0 9:44 1705 684 Ann Arbor United States
55 Day,Lexie 8357 32:05.6 30:15.7 9:44 1708 686 Ann Arbor MI
56 Bacolor,Madeline 4126 31:06.0 30:17.9 9:45 1721 693 Ann Arbor MI
57 Moss,Madison 6290 31:49.4 30:24.2 9:47 1759 717 Dexter United States
58 Mcallister,Sara 6394 31:53.2 30:25.2 9:47 1765 720 Dexter MI
59 Tworek,Eleana 7819 32:17.9 30:27.6 9:48 1778 725 Ann Arbor MI
60 Warner,Hannah 7959 31:06.6 30:28.4 9:48 1780 726 Holt MI
61 Wonnacott,Caitlin 8142 33:07.4 30:33.6 9:50 1796 736 Ypsilanti MI
62 Rigley,Mickey 7112 31:27.7 30:50.3 9:56 1845 771 Livonia U.S.
63 Dunietz,Liana 8927 32:34.9 30:59.4 9:58 1878 789 Ann Arbor MI
64 Kerska,Katerina 8526 33:42.3 30:59.9 9:59 1882 792 Ann Arbor MI
65 Oswald,Olivia 8677 35:34.8 31:00.7 9:59 1885 794 Ann Arbor U.S.A.
66 Siller,Lauren 8785 35:34.9 31:01.4 9:59 1889 795 Ann Arbor United States
67 Evans,Erin 5113 32:08.1 31:16.6 10:04 1947 826 Ann Arbor United States
68 Gerathy,Chloe 5329 35:41.3 31:22.5 10:06 1977 844 Highland MI
69 Dalton,Cammie 9171 33:45.6 31:24.5 10:07 1990 855
70 Forman,Gabrielle 8409 33:45.5 31:26.3 10:07 2002 866 Ann Arbor MI
71 Smotrich-barr,Dani 9152 32:33.6 31:26.6 10:07 2004 868
72 Smotrich-barr,Avital 9153 32:35.8 31:28.0 10:08 2009 872
73 Hallstrom,Anneka 8944 32:30.3 31:30.4 10:08 2019 876 Ann Arbor MI
74 Gajar,Alyssa 8415 35:16.2 31:38.0 10:11 2047 894 Ann Arbor United States Of Ame
75 Rogers,Lindsie 9091 35:17.1 31:38.7 10:11 2050 896
76 Milske,Maria 6544 34:42.9 31:39.1 10:11 2051 897 Ann Arbor MI
77 Whittington,Alexandria 8058 36:15.8 31:39.3 10:11 2053 899 Temperance MI
78 Duerst,Marley 5010 33:31.3 31:41.6 10:12 2059 904 Ann Arbor United States
79 Roedel,Brooklynn 7150 33:45.9 31:41.7 10:12 2061 906 Livonia MI
80 Chang,Emma 4621 33:32.0 31:41.7 10:12 2063 908 Ann Arbor United States
81 Willatt,Lily 8082 33:14.6 31:42.1 10:12 2068 910 Ann Arbor MI
82 Tzalel,Elena 8827 33:18.2 31:45.6 10:13 2079 918 Ann Arbor MI
83 Halberstam,Alexandra 8447 33:18.0 31:45.7 10:13 2080 919 Ann Arbor MI
84 Otero,Morgan 6805 34:55.4 31:50.3 10:15 2101 936 Grand Blanc MI
85 Flanders,Tess 8405 34:43.6 31:57.4 10:17 2143 961 Ann Arbor MI
86 Gucwa,Emily 5460 37:09.9 32:03.8 10:19 2169 980 Ann Arbor MI
87 Munzel,Callan 6632 37:10.3 32:03.8 10:19 2170 981 Ann Arbor MI
88 Livingston,Madeleine 8567 33:20.9 32:08.9 10:21 2188 991 Ann Arbor MI
89 Mandel,Hailey 6314 33:59.8 32:09.9 10:21 2192 993 Ann Arbor MI
90 Duda,Molly 5005 36:08.8 32:10.0 10:21 2194 995 Northville MI
91 Schenk,Rachel 7306 37:14.8 32:26.8 10:27 2264 1036 Ann Arbor MI
92 Burgard,Maya 8909 37:15.1 32:27.3 10:27 2268 1040 Ann Arbor MI
93 Paretti,Rose 6830 37:04.6 32:31.8 10:28 2279 1044 Ann Arbor MI
94 Swanson,Jacilyn 7682 35:03.4 32:32.5 10:28 2284 1048 Oswego United States
95 Charpie,Christine 8323 34:03.9 32:32.5 10:28 2285 1049 Ann Arbor MI
96 Ross,Katy 7181 34:39.7 32:44.2 10:32 2345 1087 Ann Arbor MI
97 Underwood,Jacqueline 7824 36:21.3 32:47.1 10:33 2363 1099 Ann Arbor MI
98 Whitcomb,Madeline 8035 36:21.8 32:47.6 10:33 2365 1100 Ann Arbor MI
99 Burns,Kate 4520 36:43.8 32:49.6 10:34 2377 1108 Ann Arbor MI
100 Cornelius,Mariah 4735 34:29.7 32:51.8 10:35 2387 1116 Pinckney MI
101 Crause,Elise 4769 35:56.1 32:52.3 10:35 2390 1118 Ann Arbor MI
102 Szalay,Kari 7701 33:31.4 33:07.7 10:40 2441 1157 Saline MI
103 Stidham,Elizabeth 7596 36:36.4 33:18.4 10:43 2473 1173 Ann Arbor MI
104 Paul-parsons,Muriel 6859 34:29.5 33:18.7 10:43 2475 1174 Ann Arbor MI
105 Rieger,Alexis 7100 34:33.2 33:22.3 10:44 2489 1183 Allendale MI
106 Conlin,Catherine 9247 38:49.0 33:37.2 10:49 2546 1217
107 Le Pottier,Sophie 8557 34:42.6 33:39.7 10:50 2553 1221 Ann Arbor MI
108 Miller,Vivienne 6538 35:32.4 33:42.1 10:51 2559 1224 Saline MI
109 Taub,Caroline 7710 36:29.4 33:42.5 10:51 2563 1227 Ann Arbor MI
110 Ayers,Celia 4113 36:29.0 33:42.6 10:51 2564 1228 Ann Arbor United States
111 White,Marie 8043 38:00.1 33:58.4 10:56 2625 1268 Ann Arbor MI
112 Lectka,Anna 6146 38:40.1 34:08.7 10:59 2658 1297 Livonia United States
113 Webber,Leah 7978 36:27.6 34:08.7 10:59 2659 1298 Ann Arbor United States
114 Dorman,Josie 4967 35:56.0 34:21.0 11:03 2700 1326 Scotts MI
115 Dorman,Rylie 4968 35:55.6 34:22.6 11:04 2704 1328 Scotts MI
116 Aronow,Hannah 8895 36:03.3 34:38.7 11:09 2764 1372 Ann Arbor MI
117 Gallagher,Mary 5290 38:12.7 34:43.9 11:11 2781 1383 Whitmore Lake MI
118 Hilditch,Jana 5638 37:03.1 34:59.9 11:16 2832 1421 Canton MI
119 Mateo,Carmen 6354 39:28.4 35:36.0 11:27 2939 1490 Ann Arbor MI
120 Demember,Alexandra 8361 37:53.5 35:59.3 11:35 3015 1546 Northville United States
121 Stilber,Allie 7599 37:29.8 36:04.4 11:37 3030 1556 Dexter United States
122 Howe,Devyn 5712 39:08.1 36:15.0 11:40 3048 1568 Saline MI
123 Howe,Shea 5713 39:10.1 36:17.2 11:41 3054 1571 Saline MI
124 Foster,Meghan 5226 42:10.1 36:22.0 11:42 3066 1577 Ann Arbor MI
125 Pinhey,Shay 6926 40:09.3 36:25.7 11:43 3070 1580 Ann Arbor MI
126 Bradley,Claire 4403 40:17.5 36:29.1 11:45 3077 1584 Ann Arbor MI
127 Williams,Alyssa 8086 40:52.1 37:04.2 11:56 3161 1636 Saline MI
128 Niemiec,Gabrielle 6712 40:55.2 37:06.6 11:57 3172 1644 Taylor MI
129 Burk,Madison 4510 41:16.7 37:19.2 12:01 3200 1664 Canton MI
130 Tumbarello,Holly 7804 38:46.5 37:24.2 12:02 3213 1674 Ypsilanti MI
131 Wagner,Lyndsay 8844 38:08.5 37:48.9 12:10 3260 1702 Temperance MI
132 Buck,Audrey 4481 39:21.7 38:06.2 12:16 3293 1724 Canton MI
133 Siller,Katherine 8784 43:09.9 38:12.8 12:18 3314 1736 Ann Arbor United States
134 Duck,Magda 5003 43:09.6 38:13.1 12:18 3315 1737 Ann Arbor MI
135 Schreiner,Abby 7325 45:10.6 38:17.1 12:19 3326 1744 Kalamazoo MI
136 Stricklen,Anna 7634 39:45.2 38:21.9 12:21 3340 1754 Ann Arbor U.S.
137 Lacroix,Rebecca 6098 43:47.5 38:25.0 12:22 3349 1761 Ypsilanti MI
138 Ladd,Haylee 6099 39:59.4 38:27.6 12:23 3366 1771 Onsted MI
139 Pollock,Ayelet 6946 39:49.5 38:40.9 12:27 3394 1789 Huntington Woods MI
140 Pacernick,Rachel 6812 39:49.8 38:41.0 12:27 3395 1790 Ann Arbor MI
141 Hines,Julia 5649 41:18.4 39:23.0 12:41 3455 1833 Ann Arbor MI
142 Flood,Emma 9164 43:28.0 39:40.9 12:46 3493 1860
143 Verklan,Caroline 7888 42:44.2 40:07.9 12:55 3537 1890 Plymouth MI
144 Boote,Grace 4365 44:11.6 40:08.1 12:55 3539 1892 Gregory MI
145 Overbeek,Kaleigh 6809 43:43.3 40:18.5 12:58 3550 1900 Jenison MI
146 Pollock,Hadas 6947 41:36.2 40:24.2 13:00 3554 1904 Huntington Woods MI
147 Doyle,Grace 4983 44:08.9 40:41.1 13:06 3578 1923 Northville MI
148 Mullins,Cassidy 8648 43:51.5 40:45.0 13:07 3585 1928 Monroe MI
149 Goodin,Madelaine 5392 43:32.8 40:48.5 13:08 3595 1933 Chelsea MI
150 Asam,Lauren 4099 46:46.2 41:49.0 13:28 3670 1981 Canton United States
151 Butcher,Brittney 4539 47:36.5 42:02.7 13:32 3688 1995 Owosso MI
152 Hannah,Rachel 9313 47:36.6 42:02.7 13:32 3690 1996
153 Gilbert,Lydia 8426 47:38.0 43:05.1 13:52 3749 2041 Ann Arbor MI
154 Douglas,Morgan 4975 49:42.7 43:55.0 14:08 3804 2083 Ann Arbor MI
155 Meister,Alyssa 8617 48:13.0 44:48.9 14:25 3838 2108 Saline MI
156 Theodorsdottir,Lina 9030 45:49.4 45:36.8 14:41 3891 2147 Ann Arbor MI
157 Zeimet,Veronica 8232 51:07.4 45:46.8 14:44 3909 2160 Ann Arbor MI
158 Keedy,Margaret 5896 51:56.8 47:25.3 15:16 4009 2235 Ypsilanti MI
159 Perrin,Laurie 8689 51:03.0 47:26.4 15:16 4013 2239 Ann Arbor U.S.A.
160 Moore,Michelle 6580 51:03.7 47:27.2 15:16 4015 2241 Ann Arbor MI
161 Kirby,Hannah 5962 48:40.7 48:05.8 15:29 4045 2263 Jackson MI
162 Kyle,Marissa 9290 55:45.4 49:29.4 15:56 4145 2336
163 Rogosch,Kaitlyn 8741 50:46.9 49:48.0 16:02 4157 2344 Westland MI
164 Wassermann,Emilie 7966 53:46.2 50:02.3 16:06 4173 2356 Livonia MI
165 Welch,Emily 8004 53:46.2 50:02.4 16:06 4174 2357 Livonia MI
166 Wilson,Domnique 9041 54:14.4 51:45.2 16:39 4247 2409 Ypsilanti MI
167 Sarns,Megan 8763 53:55.3 51:50.5 16:41 4253 2412 Dexter MI
168 Ramsay,Chloe 7017 59:03.5 52:32.6 16:55 4281 2433 Livonia MI
169 Stilber,Katie 7601 56:43.1 52:55.2 17:02 4295 2443 Pinckney United States
170 Davis,Hannah 4847 1:02:45.2 1:00:09.3 19:22 4581 2647 Ann Arbor MI
171 Mathers,Natalie 6357 1:01:50.5 1:01:50.5 19:54 4610 2666 South Lyon MI
172 Murphy,Myranda 6639 1:09:48.0 1:04:38.9 20:48 4654 2701 Ann Arbor MI
173 Jones,Ashley 8504 1:11:09.7 1:04:56.0 20:54 4663 2707 Clio MI
174 Perry,Elizabeth 6895 1:07:23.8 1:05:43.7 21:09 4680 2718 Oxford MI
175 Siroky,Isabella 7442 1:07:23.2 1:06:07.0 21:17 4683 2721 Clawson Oakland
Go To Top
15-19 Female
Overall Overall State/
Place Name Bib Gun Tag Pace Place by Sex City County
1 Keyser,Alexandra 8529 19:26.0 19:23.8 6:15 59 3 Ann Arbor MI
2 Brish,Samantha 4439 19:34.4 19:29.6 6:16 63 4 Milford MI
3 Robinson,Ellen 7141 19:50.7 19:45.9 6:22 76 5 Novi United States
4 Keyser,Kelsey 8532 20:19.9 20:16.6 6:32 98 10 Sturgis MI
5 Dowling,Ellen 4979 20:31.8 20:28.6 6:35 112 14 Ann Arbor MI
6 Koselka,Elizabeth 9226 21:51.9 21:38.8 6:58 185 18
7 Reid,Allison 7058 24:47.1 22:51.5 7:21 260 29 Ann Arbor MI
8 Lew,Kailey 6199 23:14.6 23:07.2 7:27 285 30 Wyoming United States
9 Marshall,Sarah 6330 24:02.6 23:52.3 7:41 373 54 Saline MI
10 Carter,Annie 4590 24:58.9 23:56.7 7:42 383 57 Ann Arbor MI
11 Chen,Sarah 9326 24:47.2 24:03.0 7:44 401 66
12 Seigerman,Cydney 7369 24:46.9 24:21.4 7:50 446 82 West Bloomfield MI
13 Warfield,Morgan 7957 29:21.1 24:25.5 7:52 459 88 Hillsdale MI
14 Mcintosh,Tiffany 9222 25:08.2 24:48.3 7:59 523 106
15 Robbins,Emily 7118 25:25.4 24:55.9 8:01 539 109 Ann Arbor MI
16 Ammerman,Casie 9410 26:55.6 24:56.6 8:02 540 110 Ann Arbor MI
17 Gradwohl,Kelsey 5414 26:55.1 24:56.7 8:02 542 111 Ann Arbor United States
18 O'donnell,Keely 6757 26:58.1 24:58.9 8:02 549 113 Ann Arbor MI
19 O'donnell,Devin 6756 27:03.6 25:04.8 8:04 570 119 Ann Arbor MI
20 Garg,Neha 5300 25:30.8 25:16.5 8:08 589 126 Ann Arbor MI
21 O'donnell,Brienne 6755 27:30.7 25:30.9 8:13 638 146 Ann Arbor MI
22 Collins,Alexis 9427 27:30.5 25:31.9 8:13 643 148 Ann Arbor MI
23 Bouzit,Lilia 4384 27:32.5 25:33.4 8:14 649 151 Ann Arbor MI
24 Marsack,Emma 8593 28:12.9 25:37.7 8:15 667 160 New Boston United States
25 Hiyama,Clare 5658 27:37.1 25:38.2 8:15 669 161 Ann Arbor MI
26 Lovell,Ellie 9129 28:01.7 25:41.4 8:16 678 164
27 Hall,Kelly 5503 27:03.2 25:56.3 8:21 727 177 Ann Arbor MI
28 Lymburner,Courtney 8579 26:49.7 26:01.7 8:23 748 185 Ann Arbor United States
29 Decaluwe,Ashley 4875 28:59.5 26:11.0 8:26 777 198 New Baltimore MI
30 Cares,Olivia 4571 26:25.5 26:12.9 8:26 783 201 Ann Arbor U.S.
31 Reid,Meredith 9006 28:16.7 26:19.7 8:28 805 209 Ann Arbor MI
32 Newkold,Lena 9407 26:54.5 26:20.5 8:29 807 210 Saint Joseph MI
33 Rasmussen,Lorri 7028 27:37.9 26:32.3 8:33 833 221 Ann Arbor MI
34 Bowers,Nicole 8295 27:50.9 26:33.2 8:33 840 224 Pinckney MI
35 Sovitch,Abbey 7533 29:44.5 26:40.9 8:35 865 239 Saline MI
36 Hargarten,Leah 5533 27:50.3 26:41.1 8:35 867 241 Ann Arbor United States
37 Morelli,Kenz 6585 29:34.7 26:50.6 8:38 895 254 Monroe MI
38 Bell,Mckinley 4246 28:00.1 26:54.0 8:39 906 258 Ann Arbor MI
39 Hertz,Elizabeth 5617 27:04.9 26:55.1 8:40 913 262 Toledo OH
40 Kozlowski,Kimberly 6039 27:38.9 26:57.8 8:41 925 269 Saline United States
41 Morse,Taylor 6596 29:09.0 26:59.5 8:41 934 272 Brooklyn MI
42 Przybylski,Megan 6984 27:54.2 27:07.8 8:44 960 283 Grand Blanc MI
43 Knight,Elizabeth 5990 28:14.9 27:15.6 8:46 981 294 Saline MI
44 Chronister,Sarah 8331 29:19.4 27:27.5 8:50 1023 314 Ann Arbor MI
45 Portnoy,Danielle 6953 35:36.6 27:32.9 8:52 1040 323 Ann Arbor United States
46 Verklan,Madeline 7889 28:58.8 27:34.5 8:53 1045 324 Plymouth MI
47 Paxton,Rachel 6861 28:22.3 27:37.9 8:54 1054 327 Saline United States
48 Proehl,Alyssa 8711 28:26.0 27:41.8 8:55 1064 331 Whitmore Lake United States Of Ame
49 Luttrell,Kayleigh 8577 28:47.5 27:48.1 8:57 1082 341 Saline Washtenaw
50 White,Kate 8040 29:41.1 27:54.0 8:59 1109 359 Ann Arbor MI
51 Kozak,Caitlin 6035 30:52.7 27:55.6 8:59 1116 363 Ann Arbor, United States
52 Dumbrigue,Rose 5012 28:29.4 27:55.9 8:59 1118 365 Dearborn MI
53 Burdgick,Mary 4503 30:13.6 27:56.4 9:00 1123 366 Highland MI
54 Gueli,Megan 5461 29:44.3 27:57.5 9:00 1129 369 Ann Arbor United States
55 Lewis,Ashley 6200 30:33.3 27:58.3 9:00 1130 370 Canton United States
56 Westhead,Victoria 8027 28:45.4 27:58.6 9:00 1133 373 Ann Arbor United States
57 Guss,Danielle 9237 29:18.0 28:02.9 9:02 1150 383
58 Schade,Vanessa 7295 34:03.1 28:05.5 9:02 1161 389 Ann Arbor MI
59 Demeuse,Shelby 4891 33:02.4 28:10.0 9:04 1172 396 Howell MI
60 Rockwell,Hannah 7145 29:03.3 28:10.4 9:04 1175 398 Marshall MI
61 Cosgrove,Jacquelyn 4744 30:47.6 28:11.4 9:04 1179 399 Gaylord MI
62 Fendrick,Alison 5164 29:58.3 28:14.2 9:05 1194 404 Ann Arbor MI
63 Arnett,Chelsey 4094 28:59.1 28:14.5 9:05 1196 406 Toledo OH
64 Singh,Bianca 9338 29:27.9 28:18.2 9:07 1207 413
65 Davis,Amelia 9196 29:25.7 28:28.1 9:10 1236 430
66 Noble,Bub 8662 33:09.7 28:32.8 9:11 1262 443 Saline MI
67 Singer,Lauren 7439 29:30.5 28:50.4 9:17 1343 490 Plainview NY
68 Opipari,Annemarie 6789 29:50.9 28:51.0 9:17 1345 491 Dexter MI
69 Schneider,Rebecca 7315 31:29.1 28:53.0 9:18 1357 497 Fowler United States
70 Hoban,Eileen 5664 32:18.9 28:54.6 9:18 1371 504 Ann Arbor MI
71 Lekas,Annalise 6167 32:31.5 28:55.6 9:19 1374 505 Birmingham United States
72 Marlette,Abbey 8592 29:34.5 28:56.6 9:19 1377 506 Ann Arbor United States Of Ame
73 Olszewski,Veronika 6783 30:29.9 28:56.9 9:19 1379 508 Ann Arbor MI
74 Stites,Mackenzie 7607 29:36.1 28:58.3 9:19 1385 511 Ann Arbor MI
75 Ver Kuilen,Nicole 7886 33:46.6 29:16.5 9:25 1439 534 Ann Arbor MI
76 Kaczynski,Katrina 9207 34:36.2 29:31.8 9:30 1503 561
77 Robertson,Tessa 7138 34:36.8 29:32.2 9:30 1505 562 Ann Arbor MI
78 Upton,Annie 9208 34:36.7 29:32.2 9:30 1506 563
79 Derderian,Nicole 4901 30:32.8 29:36.8 9:32 1527 574 Ann Arbor MI
80 Eyre,Meredith 9250 34:55.0 29:39.5 9:33 1546 589
81 Miller,Sara 8633 31:31.6 29:39.5 9:33 1547 590 Ann Arbor MI
82 Connolly,Caroline 4711 32:19.2 29:41.8 9:34 1557 597 Sudbury VT
83 Koviak,Kathleen 6033 32:20.1 29:42.1 9:34 1558 598 Ann Arbor MI
84 Burnside,Amanda 4525 31:20.3 29:52.6 9:37 1610 620 Ann Arbor MI
85 Thornton,Rachel 7759 33:34.4 29:59.3 9:39 1643 642 Ypsilanti MI
86 Krach,Blaine 6040 32:39.2 30:01.8 9:40 1650 645 Beverly Hills MI
87 Wetzel,Devan 8028 31:09.5 30:07.6 9:42 1666 655 Saline MI
88 Doner,Annika 4959 34:27.2 30:09.9 9:43 1675 661 Ann Arbor United States
89 Rosol,Samantha 7179 31:24.8 30:10.5 9:43 1678 663 Milford MI
90 Herron,Olivia 5614 33:09.5 30:14.1 9:44 1700 680 Brighton MI
91 Levinger,Amy 6197 33:56.1 30:20.3 9:46 1736 703 Omaha United States
92 Mccoy,Maggie 8607 32:22.8 30:24.2 9:47 1758 716 Ann Arbor MI
93 Wright,Jamie 8163 32:28.1 30:33.2 9:50 1793 733 Tecumseh MI
94 Mckarns,Katherine 9249 36:07.4 30:52.7 9:56 1857 776
95 Gordon,Kendall 5400 32:51.2 30:59.1 9:58 1876 787 Chicago IL
96 Brown,Megan 4464 35:40.7 31:10.1 10:02 1925 815 Ann Arbor United States
97 Woodby,Wendy 8151 32:36.1 31:23.0 10:06 1982 848 Fenton MI
98 Wilde,Emma 8074 38:23.1 31:25.9 10:07 1998 862 Plymouth MI
99 Cobb,Amanda 8339 32:11.4 31:26.8 10:07 2005 869 Ypsilanti MI
100 Zacharias,Carly 8215 35:57.5 31:32.5 10:09 2031 884 Sterling Heights United States
101 Atkinson,Paige 8269 33:25.3 31:32.5 10:09 2032 885 West Bloomfield MI
102 Hammond,Katelyn 5523 36:17.4 31:47.0 10:14 2083 922 Alma United States Of Ame
103 Schultz,Callie 7335 32:24.2 31:50.4 10:15 2102 937 Whitmore Lake MI
104 Elwart,Marissa 8392 35:19.9 31:52.1 10:15 2112 943 Gregory MI
105 Matson,Brittany 6361 33:35.7 31:57.0 10:17 2142 960 Troy MI
106 Kreinbrink,Lauren 6054 33:33.9 31:59.7 10:18 2153 968 Ludington United States
107 Talsma,Isabel 9055 32:50.7 32:07.1 10:20 2181 986
108 Marcano,Blanca 6320 33:19.9 32:12.4 10:22 2204 1001 Stevensville MI
109 Martin,Alexis 8596 33:40.3 32:21.0 10:25 2238 1019 Oakland Twp MI
110 Pangborn,Annie 6821 32:59.5 32:35.3 10:29 2300 1060 Three Rivers United States Of Ame
111 Wolfe,Grace 8872 37:24.9 32:35.8 10:29 2301 1061 Saline MI
112 Sweigart,Michelle 7696 37:04.9 32:36.2 10:30 2304 1064 Saline United States
113 Adams,Devon 4017 35:24.5 32:41.3 10:31 2331 1077 Ann Arbor MI
114 Branski,Jessica 4413 36:05.2 32:44.8 10:32 2347 1089 Ann Arbor United States
115 Crause,Claire 4768 35:56.0 32:52.1 10:35 2388 1117 Ann Arbor MI
116 Kissel,Amber 5975 34:52.0 32:53.7 10:35 2393 1120 Allen Park United States
117 Woodcock,Ellen 8152 37:34.5 33:06.4 10:39 2437 1153 Muskegon United States
118 Imperiale,Amanda 5757 37:56.5 33:19.5 10:44 2478 1176 Ann Arbor MI
119 Hanania,Jennifer 9335 35:59.8 33:38.7 10:50 2552 1220
120 Rooker,Emily Lynn 7169 36:46.0 33:43.1 10:51 2571 1235 Linden MI
121 Springgate,Madison 8799 35:42.9 33:51.8 10:54 2603 1253 Ann Arbor MI
122 Smith,Madeline 7498 35:59.3 33:56.5 10:55 2618 1263 Ann Arbor MI
123 Mcgregor,Ashley 8983 35:04.9 34:00.4 10:57 2631 1274 Southgate MI
124 Kotsogiannis,Vana 6027 40:28.2 34:01.5 10:57 2638 1281 Southgate United States
125 Hines,Elizabeth 5648 35:57.8 34:01.9 10:57 2640 1283 Ann Arbor MI
126 Buzinkai,Zoe 4547 37:35.2 34:11.2 11:00 2674 1307
127 Steffes,Megan 7576 36:56.0 34:18.4 11:03 2688 1315 Grandville U.S.A.
128 Peitz,Tori 6872 37:35.6 34:28.1 11:06 2724 1340 Petersburg MI
129 Brown,Katie 9064 39:34.6 34:32.2 11:07 2738 1352
130 Katie,Bergmann 5889 37:35.7 34:53.3 11:14 2811 1403 Cadillac MI
131 Johnson,Kristen 5829 36:35.6 35:13.0 11:20 2854 1435 Muskegon MI
132 Bailey,Angela 4133 40:24.1 35:29.9 11:26 2911 1469 Ann Arbor MI
133 Smiley,Michelle 9018 38:34.9 35:45.1 11:30 2973 1513 Ann Arbor MI
134 Harris,Jackie 5542 38:34.5 35:45.1 11:30 2974 1514 Ann Arbor United States
135 Nairn,Emily 6660 38:35.6 35:45.7 11:31 2976 1516 Plymouth United States
136 Greenstein,Victoria 5436 37:38.4 35:49.3 11:32 2991 1528 West Bloomfield MI
137 Tang,Sherry 8813 40:26.2 35:55.4 11:34 3003 1537 Ann Arbor MI
138 Murphy,Lauren 6637 37:03.9 36:18.7 11:41 3057 1573 Livonia United States
139 Secor,Melyssa 8777 40:35.6 36:34.6 11:46 3097 1596 Bay City MI
140 Lameti,Katie 6109 40:53.4 38:22.6 12:21 3341 1755 Owosso MI
141 Meister,Kaitlyn 8618 41:46.4 38:28.3 12:23 3367 1772 Saline MI
142 Pinkhasova,Sofia 6928 43:24.3 38:53.4 12:31 3414 1804 Ann Arbor United States
143 Cornellier,Christine 4739 40:41.1 39:04.0 12:34 3430 1815 Novi U.S.A.
144 Styles,Stephanie 8807 39:23.6 39:23.6 12:41 3456 1834 Ann Arbor U.S.A
145 Colbert,Sarah 4694 43:44.1 39:44.3 12:47 3500 1864 Shelby TwP. MI
146 Simon,Rachel 9337 42:05.2 39:44.4 12:47 3501 1865
147 Baiardi,Hannah 4131 45:28.8 40:07.5 12:55 3535 1889 South Lyon MI
148 Loose,Megan 6234 48:14.6 43:29.1 14:00 3766 2053 Dearborn Heights MI
149 Bedich,Jenna 4223 46:47.9 43:29.6 14:00 3767 2054 South Lyon MI
150 Evans,Kayla 5116 46:49.8 43:31.3 14:00 3771 2057 New Hudson MI
151 Sitarski,Kelsey 7447 48:13.7 43:39.4 14:03 3779 2063 Livonia MI
152 Ramsey,Gwen 7021 48:48.7 43:46.1 14:05 3790 2073 Commerce MI
153 Montague,Jessica 6565 47:53.1 43:55.4 14:08 3806 2084 Brighton United States
154 Bleitz,Alyssa 4329 47:43.1 45:02.8 14:30 3851 2116 Milan MI
155 Bernstein,Shari 4285 50:02.1 45:28.0 14:38 3877 2135 Ann Arbor MI
156 Randel,Jessica 7024 50:02.2 45:28.5 14:38 3878 2136 Merion Station United States
157 Stroud,Stephanie 7641 49:45.1 46:43.7 15:02 3967 2203 Saline MI
158 Clements,Mac Kenzie 4678 49:44.8 46:43.8 15:02 3968 2204 Ann Arbor MI
159 Buchholz,Amber 4480 49:05.9 47:14.4 15:12 3991 2222 Deaborn Heights MI
160 Bailey,Kate 4134 52:27.0 47:18.7 15:14 3995 2226 Oxford MI
161 Castorena,Haley 4600 54:34.9 48:54.5 15:45 4101 2303 Pinckney MI
162 Peterman,Amanda 6898 53:39.0 49:04.9 15:48 4112 2311 West Bloomfield United States
163 Campbell,Madeline 4562 53:38.9 49:05.5 15:48 4113 2312 Loudonville United States
164 Wolfe,Elizabeth 8140 54:12.6 49:22.2 15:53 4131 2324 Highland United States
165 Davis,Katherine 4851 53:41.1 49:25.2 15:54 4138 2330 Grand Rapids United States
166 Chodzkaite,Ieva 4646 50:00.6 50:00.6 16:06 4172 2355 Ann Arbor MI
167 Lemmen,Samantha 6179 55:54.9 50:28.2 16:15 4192 2368 Holland MI
168 Erdman,Breckan 5093 58:08.4 51:33.1 16:36 4235 2402 Lansing MI
169 Sullivan,Katie 7666 54:17.6 52:20.8 16:51 4272 2425 Whitehouse OH
170 Plocek,Brittany 6935 54:18.3 52:21.8 16:51 4275 2428 Monclova OH
171 Lavi,Nina 6128 58:03.7 55:46.3 17:57 4421 2530 Ann Arbor MI
172 Koepfle,Taylor 6000 1:01:43.3 57:04.6 18:22 4456 2555 Ann Arbor MI
173 Mukavitz,Rachel 6615 59:11.1 57:24.0 18:28 4474 2569 Eastpointe MI
174 Brogdon,Elyse 8304 1:04:28.8 58:10.8 18:44 4510 2595 Tipton MI
175 Kiriazis,Samantha 5967 1:01:41.2 59:22.9 19:07 4552 2626 Grosse Pointe Woods MI
176 Clark,Kyra 8338 1:07:32.8 1:05:20.5 21:02 4671 2710 Ypsilanti MI
177 Wilson,Sydney 8114 1:15:56.6 1:08:40.3 22:06 4704 2733 Pontiac United States
178 Verville,Rachel 7895 1:09:42.0 1:09:42.0 22:26 4714 2741 Ortonville MI
179 Goddard,Mary-catherine 5373 1:10:28.8 1:10:28.8 22:41 4723 2748 Oakland MI
Go To Top
20-24 Female
Overall Overall State/
Place Name Bib Gun Tag Pace Place by Sex City County
1 Schork,Madeline 8770 19:12.4 19:06.3 6:09 46 2 Ann Arbor U.S.
2 Elcock,Beverly 9140 19:52.2 19:51.3 6:23 82 6
3 Vanskyock,Nicole 9314 19:59.1 19:54.7 6:25 85 7
4 Erb,Natalie 5091 22:37.0 22:24.2 7:13 227 24 Ann Arbor MI
5 Korkuch,Beth 6019 23:00.0 22:51.2 7:21 258 27 Ann Arbor MI
6 Beach,Katelyn 8283 23:36.6 23:10.1 7:27 291 32 Howell MI
7 Weiss,Jaclyn 8001 23:46.3 23:25.9 7:33 319 37 Ann Arbor MI
8 Moeke,Emilee 6560 23:54.0 23:30.2 7:34 322 39 Ann Arbor United States
9 Hines,Kara 5650 23:54.3 23:30.5 7:34 324 40 Ann Arbor United States
10 Navarre,Courtney 8654 24:04.7 23:34.6 7:35 335 44 Luna Pier United States
11 Breedveld,Alexa 8303 24:07.8 23:35.2 7:36 336 45 Saline United States
12 Weaver,Kristina 9311 24:08.1 23:46.4 7:39 358 49
13 Scott,Stephanie 7347 25:00.3 23:58.2 7:43 390 61 Carleton MI
14 Browning,Keely 4469 25:15.6 24:02.3 7:44 398 65 Ann Arbor United States
15 Gentner,Rachelle 5326 24:34.6 24:09.9 7:47 416 71 Brooklyn MI
16 Waite,Amanda 7933 24:35.1 24:13.9 7:48 430 77 Plymouth United States
17 Trese,Andrea 7783 24:58.4 24:18.8 7:50 439 79 Ann Arbor United States
18 Noble,Catherine 6722 24:46.8 24:19.1 7:50 440 80 Saline MI
19 Grob,Carly 5448 24:45.8 24:23.5 7:51 452 84 Ann Arbor MI
20 Bertram,Katherine 4290 32:06.0 24:23.6 7:51 453 85 Livonia United States
21 Vojcek,Trinea 7910 32:05.9 24:24.2 7:51 456 86 Ypsilanti United States
22 Smith,Sara 7504 24:49.2 24:27.3 7:52 462 89 Ann Arbor MI
23 Zillioux,Jacqueline 8240 24:57.8 24:36.9 7:55 488 93 Ann Arbor MI
24 Dolle,Johanna 4953 29:48.0 24:38.7 7:56 491 96 Ann Arbor MI
25 Solochek,Andrea 8796 26:34.0 24:41.6 7:57 500 97 Ann Arbor MI
26 Fahl,Samantha 5130 25:16.2 24:43.9 7:58 510 99 Kalamazoo MI
27 Fahl,Danielle 5129 25:17.0 24:44.4 7:58 512 101 Ann Arbor MI
28 Keno,Hilary 5930 27:02.6 25:09.9 8:06 578 122 Ann Arbor United States
29 Breidenstein,Abagail 4420 25:30.5 25:10.0 8:06 579 123 Ann Arbor MI
30 Yarrington,Dorothy 8177 28:43.5 25:16.8 8:08 590 127 Ann Arbor United States
31 Gorton,Kayla 5406 25:55.4 25:18.3 8:09 597 130 Ann Arbor MI
32 Tishberg,Lindsay 8818 27:13.1 25:20.1 8:09 604 132 Westfield NJ
33 Lindblad,Chelsea 8969 27:08.4 25:22.0 8:10 608 133 Ann Arbor United States
34 Chang,Vicki 9109 26:31.1 25:24.4 8:11 615 136
35 Henrickson,Anna 9405 26:20.2 25:28.4 8:12 628 141 Ann Arbor MI
36 Douthat,Hannah 8380 26:38.8 25:28.8 8:12 629 142 Saline U.S.
37 Reed,Arden 8725 26:50.4 25:29.7 8:12 632 143 Ann Arbor United States
38 Sheahan,Elizabeth 7389 26:50.8 25:34.5 8:14 654 155 Macomb United States
39 Mygrants,Marjorie 6658 28:21.5 25:38.5 8:15 671 163 Ann Arbor MI
40 Hunter,Meghan 9281 26:13.6 25:48.3 8:18 699 170
41 Southworth,Samantba 9324 26:38.9 25:48.9 8:19 701 171
42 Alderson,Grace 4041 26:23.2 25:49.8 8:19 703 172 Ann Arbor MI
43 Gordon,Danielle 5399 29:27.9 25:53.3 8:20 714 175 Hartland MI
44 Donovan,Kate 4963 28:34.8 26:01.9 8:23 749 186 Ann Arbor MI
45 Kilbourn,Courtney 5943 27:17.9 26:03.3 8:23 754 189 Ann Arbor MI
46 Altman,Bailey 4056 26:54.0 26:24.8 8:30 818 213 Royal Oak Oakland
47 Grove,Lauren 5454 26:47.0 26:25.3 8:30 819 214 Ann Arbor MI
48 Braun,Kristin 8302 27:00.2 26:31.8 8:32 830 220 Canton MI
49 Opaskar,Amanda 6788 27:52.9 26:34.9 8:33 845 227 Ann Arbor MI
50 Patek,Laura 6843 27:32.5 26:35.9 8:34 852 230 Ann Arbor United States
51 Le,Maple 6138 27:04.4 26:37.6 8:34 857 233 Ann Arbor United States
52 Reichlmayr,Jaime 7056 29:06.5 26:42.9 8:36 872 243 Ann Arbor MI
53 Verhaeghe,Sophie 7887 28:31.9 26:43.7 8:36 876 246 Ann Arbor MI
54 Valeri,Lindsay 7841 28:40.1 26:50.0 8:38 892 251 Ann Arbor United States
55 Pett,Kelly 8693 28:38.6 26:54.3 8:40 908 260 Romulus MI
56 Maron,Allie 9195 31:21.3 26:55.7 8:40 919 265
57 Johnson,Arwen 5817 27:56.3 26:56.8 8:40 920 266 Ann Arbor United States
58 Foucher,Julie 5230 27:38.9 26:57.7 8:41 924 268 Ann Arbor United States
59 Riggle,Beth 7110 28:04.0 27:02.4 8:42 943 277 Ann Arbor United States
60 Fellows,Marissa 5159 28:25.2 27:02.8 8:42 946 278 Jenison MI
61 Dieter,Kimberly 4934 27:26.3 27:08.2 8:44 961 284 Saline MI
62 Sutter,Malorie 7677 27:38.1 27:08.3 8:44 962 285 Ann Arbor United States
63 Fleming,Kristina 5207 27:36.4 27:09.3 8:44 966 288 Ann Arbor United States
64 Boman,Kristen 4357 28:30.4 27:10.5 8:45 969 290 Ada MI
65 Moore,Meghan 6577 28:39.9 27:21.8 8:48 1002 303 Ann Arbor MI
66 Bentley,Kristen 8286 29:58.0 27:25.0 8:49 1015 310 Waterford MI
67 Kingma,Kristin 5960 28:49.7 27:27.5 8:50 1024 315 Ann Arbor United States
68 Reizian,Margeaux 7065 28:59.1 27:35.2 8:53 1050 326 Ann Arbor MI
69 Barr,Elaine 4180 29:22.5 27:42.1 8:55 1065 332 Jackson MI
70 Feijoo,Carla 5153 28:22.6 27:42.8 8:55 1068 334 Berrien Springs MI
71 Gross,Elise 5452 29:16.7 27:48.2 8:57 1084 343 Ann Arbor United States
72 Troxell,Ashley 7792 31:33.3 27:51.9 8:58 1096 348 Freeland MI
73 Ray,Cheryl 9439 29:02.1 27:53.4 8:59 1103 354 Grand Blanc MI
74 Split,Bethany 9020 29:09.3 27:54.1 8:59 1110 360 Ann Arbor MI
75 Price,Blair 8708 29:14.5 28:01.8 9:01 1146 379 Ann Arbor United States Of Ame
76 O'shea,Bailey 8671 29:14.7 28:02.2 9:01 1148 381 Brooklyn MI
77 Taylor,Lauren 7714 29:31.9 28:03.1 9:02 1151 384 Ann Arbor United States
78 Hart,Ashley 9236 29:18.0 28:03.5 9:02 1153 386
79 Shirley,Annabeth 7407 33:28.7 28:06.1 9:03 1162 390 Ann Arbor United States
80 Berlucchi,Ellen 4280 28:43.7 28:07.2 9:03 1167 393 Grand Rapids United States
81 Errer,Emily 5102 31:14.9 28:08.2 9:03 1170 394 Caseville MI
82 Hedges,Stephanie 8465 32:15.9 28:14.4 9:05 1195 405 Ypsilanti MI
83 Hudson,Rebekah 9180 31:50.5 28:17.1 9:06 1203 411
84 Crookston,Shelby 4775 29:46.0 28:17.4 9:06 1206 412 Ann Arbor United States
85 Mazur,Amanda 6388 29:47.6 28:18.6 9:07 1209 414 Ann Arbor United States
86 Textor,Kasey 7731 29:10.7 28:19.1 9:07 1212 416 Ann Arbor MI
87 Bellazaire,Amber 4248 29:43.4 28:20.2 9:07 1215 417 Ann Arbor U.S.S
88 Carter,Becky 4591 28:52.0 28:24.8 9:09 1226 423 Owosso United States
89 Cprek,Julie 4755 30:06.3 28:29.5 9:10 1243 433 Troy MI
90 ST. Clair,Carley 9021 31:23.6 28:30.0 9:10 1246 435 Ann Arbor MI
91 Vandusen,Katie 7861 30:21.1 28:33.8 9:12 1271 450 Ann Arbor United States
92 Brooks,Emily 9416 30:19.0 28:35.8 9:12 1286 456 Ypsilanti MI
93 Enos,Emily 5090 32:22.8 28:39.0 9:13 1299 465 Ann Arbor United States
94 Bierlein,Lacey 8901 30:38.2 28:48.2 9:16 1333 483 Columbus United States
95 Banas,Deana 4162 29:22.6 28:49.0 9:16 1339 486 Dorr MI
96 Daly,Leighanne 4820 29:31.6 28:51.6 9:17 1350 493 Ann Arbor MI
97 Judge,Jordan 8512 32:49.9 28:53.8 9:18 1367 502 Riverview United States
98 Atkinson,Kylie 8268 29:43.6 28:53.9 9:18 1368 503 Carleton MI
99 Harper,Krystin 8947 30:42.6 29:00.1 9:20 1390 515 Ann Arbor MI
100 Johnston,Courtney 5837 30:54.6 29:05.4 9:22 1407 520 Dexter MI
101 Merritt,Meredith 6485 30:06.7 29:08.3 9:23 1413 521 Perrinton MI
102 Whipple,Carolyn 8034 32:33.5 29:15.3 9:25 1432 530 Ann Arbor MI
103 Reynolds,Jessica 7080 33:23.3 29:19.0 9:26 1447 539 Jackson MI
104 Huang,Grace 5718 34:36.1 29:25.0 9:28 1471 547 Ann Arbor MI
105 Budnick,Kaley 4486 31:03.5 29:26.7 9:29 1478 551 Ann Arbor MI
106 Johnson,Megan 5831 31:04.8 29:28.1 9:29 1488 554 Whitmore Lake MI
107 Mikula,Kristin 6509 30:14.0 29:28.2 9:29 1489 555 Warren MI
108 Thompson,Elise 7750 32:41.8 29:28.5 9:29 1490 556 Ann Arbor MI
109 Williams,Audra 8089 32:43.7 29:30.5 9:30 1495 559 Ann Arbor MI
110 Petro,Kirsten 8692 32:15.0 29:37.3 9:32 1530 576 Ann Arbor MI
111 Donahue,Christine 4958 32:14.8 29:37.5 9:32 1533 579 Chelsea MI
112 Carey,Amanda 4572 32:28.6 29:39.9 9:33 1549 592 Ann Arbor MI
113 Zammit,Meredith 8884 30:41.4 29:43.1 9:34 1563 601 Lathrup Village United States
114 Paans,Alex 8680 34:32.5 29:43.7 9:34 1567 602 Ann Arbor MI
115 Anderson,Ashley 8263 34:32.5 29:43.9 9:34 1569 603 Ann Arbor MI
116 Harris,Claire 5540 31:00.5 29:46.9 9:35 1577 606 Ann Arbor MI
117 Phillips,Emily 8695 32:25.9 29:48.1 9:36 1582 609 Ann Arbor MI
118 Moehle,Andrea 8637 32:26.3 29:48.4 9:36 1585 611 Ann Arbor United States
119 Candy,Molly 4567 31:48.9 29:48.9 9:36 1590 613 Ypsilanti United States
120 Jedele,Chelsea 5801 31:09.8 29:49.0 9:36 1591 614 Ann Arbor MI
121 Merenda,Helen 6482 31:11.6 29:51.1 9:36 1607 619 Canton United States
122 Church,Syndel 4660 31:52.4 29:52.7 9:37 1612 621 Ypsilanti United States
123 Ellsworth,Ashlee 5078 32:37.2 29:55.6 9:38 1627 631 E. Lansing MI
124 Paterson,Kirby 6846 32:37.5 29:56.2 9:38 1632 635 Ann Arbor MI
125 Miller,Jillian 8631 31:12.7 29:59.4 9:39 1644 643 Eastpointe MI
126 Craddick,Christa 4759 33:21.5 30:04.2 9:41 1658 650 Belleville MI
127 Burkhart,Katir 4513 33:02.4 30:10.2 9:43 1677 662 Whitmore Lake MI
128 Willette-green,Molly 8084 34:45.1 30:12.8 9:43 1690 672 Interlochen MI
129 Reichlmayr,Julie 7057 32:36.9 30:13.7 9:44 1697 677 Ann Arbor MI
130 Mickevicius,Jenni 6501 32:07.3 30:19.0 9:45 1727 698 Ypsilanti MI
131 Miller,Breanna 8629 30:40.5 30:19.7 9:46 1732 701 Ann Arbor MI
132 Milgrom,Tedi 6513 34:48.9 30:22.9 9:47 1746 708 Ann Arbor MI
133 Keener,Alix 5900 34:49.2 30:22.9 9:47 1747 709 Ann Arbor MI
134 Meldrum,Amy 6467 31:43.1 30:24.0 9:47 1754 713 Ann Arbor MI
135 Kalish,Molly 5871 33:26.3 30:24.5 9:47 1762 718 Royal Oak MI
136 Bravo,Daniela 4417 34:58.9 30:26.1 9:48 1768 721 Ann Arbor MI
137 Zacharias,Katie 8216 34:53.1 30:28.4 9:48 1781 727 Sterling Heights United States
138 Gwozdek,Ellen 5482 33:30.8 30:28.9 9:49 1783 729 Plymouth United States
139 Mccaslin,Erin 6402 34:51.6 30:33.6 9:50 1795 735 Battle Creek MI
140 Saitta,Emily 7260 33:35.2 30:38.9 9:52 1811 745 Ann Arbor MI
141 Chakarova,Larissa 9460 32:51.3 30:41.0 9:53 1816 749 Ann Arbor MI
142 Sabo,Debi 7252 32:42.8 30:41.3 9:53 1819 751 Ann Arbor MI
143 Latva,Rosa 6123 32:42.6 30:42.2 9:53 1821 753 Ann Arbor MI
144 Forster,Kaitlin 5221 34:41.3 30:47.3 9:55 1838 765 Plymouth U.S.A
145 Montgomery,Kelly 6567 34:44.3 30:49.4 9:55 1843 769 Ann Arbor United States
146 Pankoff,Cassandra 6825 35:53.9 30:51.2 9:56 1851 774 Plymouth United States
147 Schlagenhart,Amanda 9465 32:50.1 30:57.8 9:58 1869 783 Ann Arbor MI
148 Voeks,Jenna 7908 33:41.8 30:58.2 9:58 1871 784 Ann Arbor United States
149 Leopold,Kay 6190 37:08.8 31:06.0 10:01 1903 802 Ann Arbor U.S.
150 Cap,Samantha 4570 33:36.4 31:07.8 10:01 1914 809 East Lansing United States
151 Campbell,Amanda 9267 34:14.0 31:11.7 10:02 1931 819
152 Freedman,Brianna 9111 32:19.4 31:13.3 10:03 1939 822
153 O'toole,Emily 9133 34:13.8 31:13.4 10:03 1940 823
154 Irwin,Jessica 5760 34:06.1 31:17.9 10:04 1954 829 Chesterfield MI
155 Specter,Lindsay 7542 34:18.6 31:22.8 10:06 1980 846 Ann Arbor MI
156 Paez,Anabel 6815 34:55.9 31:24.0 10:06 1987 853 Ann Arbor MI
157 Bradford,Kelly 4401 33:34.9 31:25.5 10:07 1995 859 Ann Arbor United States
158 Dobski,Jeanise 4948 33:35.4 31:26.0 10:07 1999 863 Ann Arbor United States
159 Rodgers,Maggie 9130 34:30.1 31:30.0 10:08 2017 875
160 Atkinson,Sarah 8270 33:24.7 31:32.2 10:09 2028 881 Ann Arbor MI
161 Jackson,Shannon 5773 33:26.4 31:37.2 10:11 2044 891 Howell MI
162 Breaugh,Melissa 4419 32:45.6 31:39.2 10:11 2052 898 Ann Arbor United States
163 Neely,Brittany 6677 34:36.0 31:40.4 10:12 2055 900 Ann Arbor MI
164 Martz,Adrienne 8979 36:08.6 31:42.3 10:12 2073 912 Farmington Hills MI
165 Moak,Lauren 6557 36:59.8 31:47.8 10:14 2086 925 Ann Arbor United States
166 Nawrocki,Heather 6676 32:23.0 31:48.1 10:14 2088 927 Ann Arbor MI
167 Benson,Molly 4267 34:51.4 31:48.6 10:14 2090 929 Ypsilanti MI
168 Garg,Anjali 5299 33:05.4 31:49.5 10:15 2095 932 Wyandotte MI
169 Flood,Megan 5216 33:51.8 31:49.6 10:15 2097 934 Sturgis MI
170 Sanford,Amy 7278 35:59.2 31:50.7 10:15 2104 938 Novi United States
171 Woodhull,Whitney 8153 37:02.2 31:50.8 10:15 2106 939 Ann Arbor MI
172 Carey,Kimberly 4573 35:19.8 31:52.5 10:16 2114 945 Ann Arbor MI
173 Cook,Jody 4722 33:58.2 31:58.4 10:17 2147 964 Howell MI
174 Stark,Tate 7568 36:32.6 32:00.9 10:18 2158 971 Dexter MI
175 Frimenko,Hilary 5264 33:38.9 32:08.2 10:21 2186 989 Northville MI
176 Mooreville,Mira 6582 34:19.7 32:09.7 10:21 2191 992 Ann Arbor MI
177 Berman,Stephanie 4283 34:19.8 32:09.9 10:21 2193 994 West Bloomfield MI
178 Fedorowicz,Martha 5150 36:43.8 32:11.5 10:22 2201 999 Ann Arbor MI
179 Wernette,Alexandra 8019 36:32.0 32:13.5 10:22 2211 1003 Ann Arbor MI
180 Lemmen,Lindsey 6177 33:05.2 32:14.8 10:23 2217 1007 Holland MI
181 Pruner,Jenn 8712 34:22.4 32:15.6 10:23 2218 1008 Melvindale MI
182 Lawrence,Jane 6130 36:01.1 32:16.3 10:23 2222 1010 Ann Arbor MI
183 Huang,Alison 5717 35:58.6 32:23.4 10:25 2250 1026 Ann Arbor United States Of Ame
184 Zand,Roya 8885 33:30.1 32:23.7 10:26 2253 1029 Ann Arbor MI
185 Koval,Rachel 8541 35:44.1 32:30.9 10:28 2276 1041 Ann Arbor MI
186 Knoff,Jayne 8537 35:44.1 32:31.2 10:28 2277 1042 Ann Arbor U.S.
187 Barry,Stephanie 4186 35:12.4 32:37.4 10:30 2310 1068 Ann Arbor MI
188 Rodriguez,Karen 9328 33:39.4 32:38.4 10:30 2317 1070
189 Lulko,Danielle 6254 34:38.5 32:38.8 10:30 2320 1073 Canton MI
190 Mancini,Amanda 8587 34:39.7 32:41.8 10:31 2335 1080 Canton MI
191 Moeller,Hannah Hunt 8638 34:35.5 32:42.2 10:32 2340 1083 Boulder CO
192 Dauch,Jacqueline 4830 35:53.7 32:42.7 10:32 2342 1085 Ann Arbor MI
193 Besk,Danielle 4296 36:56.6 32:49.7 10:34 2378 1109 Ann Arbor MI
194 Honik,Grace 5690 36:08.6 32:50.8 10:34 2382 1112 Ann Arbor United States
195 Kollar,Becky 6005 36:34.2 32:52.6 10:35 2392 1119 Ann Arbor MI
196 Pierson,Joy 9449 38:07.1 32:54.5 10:36 2394 1121 Saline MI
197 Hogan,Leanne 5679 33:46.5 33:00.3 10:37 2412 1133 Ann Arbor United States
198 Laforest,Jennifer 6103 35:47.4 33:04.6 10:39 2428 1145 Ann Arbor United States
199 Wainright,Megan 7930 34:34.6 33:22.1 10:44 2487 1181 Ypsilanti United States
200 Wainright,Stephanie 7931 34:34.6 33:22.2 10:44 2488 1182 Ypsilanti United States
201 Mcclellan,Ashley 6404 36:33.2 33:27.4 10:46 2508 1193 Ann Arbor MI
202 Gray,Kristen 5425 39:06.2 33:33.1 10:48 2528 1208 Saline MI
203 Ouellette,Claire 6807 39:29.3 33:36.4 10:49 2540 1214 Saline MI
204 Collins,Taylor 8342 34:36.6 33:38.1 10:50 2551 1219 Ann Arbor United States
205 Wolf,Jamie 8137 38:16.9 33:47.5 10:53 2583 1241 Rothbury MI
206 Murawski,Kelly 6633 39:47.2 34:01.2 10:57 2637 1280 Canton MI
207 Kaplan,Marissa 5877 37:19.3 34:01.5 10:57 2639 1282 Ann Arbor MI
208 Gonzalez,Chelsea 5388 38:05.6 34:08.8 10:59 2660 1299 Livonia MI
209 Dolan,Jennifer 9183 39:10.4 34:18.6 11:03 2689 1316
210 Walker,Sarah 7943 35:35.3 34:18.9 11:03 2690 1317 Southfield United States
211 Kulwicki,Amanda 6080 38:43.6 34:32.8 11:07 2746 1358 Ann Arbor MI
212 Hicks,Taylor 5633 38:57.8 34:34.0 11:08 2752 1362 Ann Arbor MI
213 Tamm,Elissa 8812 39:43.4 34:40.2 11:10 2768 1374 Northville MI
214 Feldkamp,Carolyn 5156 35:43.0 34:46.0 11:11 2790 1389 Northville MI
215 Koch,Melissa 5993 38:46.1 34:46.3 11:11 2791 1390 Jackson, United States
216 Khan,Syma 5938 40:33.6 34:47.7 11:12 2796 1393 Canton MI
217 Munslow,Amy 8649 35:44.7 34:54.2 11:14 2817 1408 Ann Arbor, MI
218 Wood,Jenny 9240 35:44.8 34:54.4 11:14 2818 1409
219 Yates,Andrea 8876 35:44.9 34:54.6 11:14 2819 1410 Ann Arbor MI
220 Richards,Lyndsey 7089 37:16.5 35:04.6 11:17 2841 1426 Belleville MI
221 Dean,Courtney 4870 35:52.6 35:04.7 11:17 2842 1427 Westland MI
222 Willits,Sarah 8106 39:53.3 35:20.8 11:23 2883 1452 Ann Arbor MI
223 Dennis,Meredith 4895 39:50.6 35:21.3 11:23 2887 1455 Ann Arbor MI
224 Kopec,Jourdon 6017 39:50.8 35:21.4 11:23 2888 1456 Ann Arbor, United States
225 Debeau,Jennifer 4872 39:02.0 35:23.3 11:23 2892 1459 Plymouth United States
226 Thompson,Kelly 7751 40:38.9 35:33.1 11:27 2924 1479 Ann Arbor MI
227 Levine,Sarah 6196 36:12.3 35:33.9 11:27 2929 1483 Ann Arbor MI
228 Williams,Jessie 8097 38:09.7 35:34.2 11:27 2930 1484 Ann Arbor United States
229 Gibson,Gabrielle 5345 37:36.8 35:35.1 11:27 2932 1485 Ann Arbor MI
230 Baca,Jessica 4119 40:22.4 35:35.3 11:27 2933 1486 South Lyon MI
231 Ingram,Angel 5759 39:54.6 35:36.0 11:27 2940 1491 Southfield MI
232 Dyas,Kristina 5025 38:07.6 35:38.1 11:28 2957 1502 Plymouth MI
233 Miller,Gretchen 6519 37:07.6 35:42.4 11:30 2966 1509 Ann Arbor MI
234 Blaylock,Janille 4326 38:02.4 35:48.2 11:31 2986 1523 Canton MI
235 Dovitz,Melanie 4976 37:37.6 35:48.4 11:31 2987 1524 Farmington Hills United States
236 Edwards,Leandra 5041 47:44.7 35:56.2 11:34 3007 1541 Novi United States
237 Mcgonegal,Maureen 6431 38:17.6 36:10.8 11:39 3042 1564 Brighton MI
238 Goe,Ashley 5374 36:14.2 36:14.2 11:40 3047 1567 Ann Arbor U.S.
239 Debus,Vanessa 4874 41:36.5 36:35.8 11:47 3101 1598 Ypsilanti MI
240 Bergum,Katie 4278 37:58.0 36:42.2 11:49 3111 1603 White Lake MI
241 Mercado,Jessica 6480 39:53.1 36:43.8 11:49 3118 1608 Grand Blanc MI
242 Urteaga,Anabel 7827 38:34.1 36:54.7 11:53 3139 1622 Ann Arbor MI
243 Truesdell,Melaney 7795 41:19.8 36:57.4 11:54 3148 1629 Chelsea MI
244 Muilenburg,Justine 9205 41:01.6 37:01.5 11:55 3156 1633
245 Reath,Arie 9429 41:33.8 37:06.6 11:57 3171 1643 Ann Arbor United States
246 Chi,Emily 8329 41:53.2 37:16.5 12:00 3195 1660 Ann Arbor MI
247 Cummins,Emily 4794 39:09.0 37:23.5 12:02 3210 1671 Rochester Hills MI
248 Wing,Hannah 8116 42:25.5 37:24.9 12:03 3215 1675 Ypsilanti MI
249 Wallace,Monica 7342 40:43.5 37:32.4 12:05 3226 1680 Adrian United States
250 Saldana,Julia 7262 39:33.7 37:32.5 12:05 3227 1681 Ann Arbor MI
251 Alvarez,Cristina 4059 40:45.0 37:34.1 12:06 3229 1683 Adrian United States
252 Stallard,Chelsea 1465 41:56.9 37:47.6 12:10 3257 1700 South Lyon MI
253 Deford,Ashley 4877 44:01.7 37:52.0 12:11 3268 1707 Ann Arbor MI
254 Horvath,Cristina 8472 40:10.0 37:59.2 12:14 3276 1712 Southgate MI
255 Davis,Sarah 4856 40:41.6 38:02.8 12:15 3284 1718 Grand Rapids MI
256 Meintel,Lisa 6464 43:00.3 38:03.0 12:15 3285 1719 Ann Arbor MI
257 Cullip,Valerie 4791 43:03.1 38:21.2 12:21 3337 1752 Ann Arbor MI
258 Rock,Elizabeth 7144 39:50.7 38:29.3 12:23 3369 1774 Ypsilanti MI
259 Rollet,Jamie 8742 42:56.7 38:41.3 12:27 3397 1792 Southgate MI
260 Naab,Kelsey 6659 46:01.0 39:30.3 12:43 3468 1844 Kalamazoo United States
261 Faulkner,Margaret 9199 44:21.9 39:32.2 12:44 3474 1848
262 Davis,Jennifer 4849 42:26.2 39:46.8 12:48 3502 1866 Grand Rapids United States
263 Mcandrew,Laura 6396 43:33.5 39:48.7 12:49 3509 1871 Ann Arbor MI
264 Woodall,April 8147 41:19.0 40:10.1 12:56 3541 1893 Davison United States
265 Montenegro,Mayela 6566 45:27.9 40:29.0 13:02 3561 1910 Ann Arbor MI
266 Mcgee,Ryann 8609 44:22.3 40:45.0 13:07 3584 1927 Farmington Hills MI
267 Yates,Rebekah 8877 45:00.7 40:58.0 13:11 3610 1943 Belleville United States
268 Illson,Rebecca 8483 43:20.8 41:07.0 13:14 3622 1951 Beverly Hills United States
269 Inglot,Rachel 689 44:33.8 41:12.6 13:16 3624 1953 Grand Rapids MI
270 Lowe,Kristen 920 44:33.7 41:12.6 13:16 3625 1954 Farmington Hills U.S.
271 Jazwinski,Zoe 5800 44:17.8 41:25.7 13:20 3630 1957 Redford MI
272 Mulligan,Katie 6621 45:29.3 42:00.9 13:31 3683 1992 South Lyon MI
273 Newman,Rebecca 6698 46:22.2 42:41.9 13:45 3722 2017 Ypsilanti United States
274 Varrone,Melanie 9035 46:17.1 42:53.2 13:48 3735 2029 Perrysburg OH
275 Connelly,Christina 4708 46:17.0 42:53.5 13:48 3736 2030 Lambertville MI
276 Cooper,Jennifer 4729 44:20.5 42:55.2 13:49 3737 2031 Ann Arbor MI
277 Baca,Lynn 4121 47:52.4 42:57.7 13:50 3740 2034 South Lyon MI
278 Haller,Becky 5514 45:10.0 43:00.7 13:51 3743 2036 Ann Arbor MI
279 Barkakati,Emily 4172 47:54.7 43:26.5 13:59 3762 2051 Ann Arbor MI
280 Rehn,Dianna 7054 49:25.7 43:29.9 14:00 3768 2055 Western Springs United States
281 Mangisto,Liora 6315 49:51.0 44:25.6 14:18 3819 2094 Ann Arbor MI
282 Mathews,Mary 8598 48:29.4 44:41.2 14:23 3830 2102 Ann Arbor MI
283 Forsyth,Danielle 9422 48:29.6 44:41.6 14:23 3831 2103 Garden City MI
284 Everett,Kathy 5120 50:06.2 44:43.1 14:24 3834 2106 Chelsea MI
285 Constantine,Hannah 9370 56:48.4 45:00.0 14:29 3850 2115 Redford MI
286 Mann,Amy 8590 49:56.2 45:05.7 14:31 3854 2118 Ypsilanti MI
287 Petz,Dana 6910 48:31.4 45:19.9 14:35 3870 2128 Madison Heights MI
288 Bender Mckenzie,Nicole 4255 46:47.9 45:30.0 14:39 3881 2139 Sylvania OH
289 Evans,Tricia 5119 49:21.7 46:04.1 14:50 3921 2169 Ann Arbor MI
290 Hermsen,Jenny 8468 48:57.2 46:15.0 14:53 3938 2184 Norwalk CT
291 Roberts,Meghan 7127 52:45.4 46:40.4 15:01 3963 2199 Ann Arbor MI
292 Welyhorskyj,Tiffany 8016 49:06.2 47:14.8 15:12 3992 2223 Dearborn Heights United States
293 Al-amin,Sakina 4032 52:26.0 47:25.4 15:16 4010 2236 Ann Arbor MI
294 Little,Alissa 9242 53:45.6 47:29.7 15:17 4016 2242
295 Fisher,Amanda 5189 52:47.5 47:51.4 15:24 4039 2259 Blissfield MI
296 Berridge,Danielle 4286 53:43.8 48:37.1 15:39 4080 2287 Ann Arbor
297 Kilyanek,Stephanie 5946 53:44.1 48:37.4 15:39 4081 2288
298 Charow,Victoria 4635 52:54.1 49:13.8 15:51 4121 2319 Saint Clair Shores MI
299 Kuckuck,Calla 6069 54:12.8 49:22.5 15:54 4133 2326 Highland MI
300 Stoll,Carrie 7616 51:41.3 49:24.5 15:54 4136 2328 Ann Arbor MI
301 Snyder,Courtney 7520 51:22.0 49:55.2 16:04 4168 2352 Pinckney MI
302 Graebner,Brittney 8439 56:18.6 50:11.5 16:09 4179 2361 Saginaw MI
303 Jamrog,Julia 8955 52:21.7 50:32.8 16:16 4197 2372 Birch Run United States
304 Dale,Emily 4818 56:31.4 51:23.1 16:32 4228 2396 Ann Arbor MI
305 Findley,Jessica 5186 54:41.2 51:56.3 16:43 4258 2416 Troy MI
306 Stanichuk,Jessica 7559 54:41.3 51:56.6 16:43 4259 2417 Royal Oak United States
307 Mbala-nkanga,Olivia Mateso 6392 59:07.9 52:05.9 16:46 4264 2420 Ypsilanti United States
308 Wood,Tabi 8146 59:15.9 52:53.7 17:01 4293 2441 Ypsilanti MI
309 Brigham,Sarah 4436 57:44.8 53:10.2 17:07 4316 2457 Chelsea MI
310 Jaworski,Marisa 5799 58:35.3 54:12.0 17:27 4357 2485 Monore MI
311 Delao,Judy 4883 1:01:14.8 55:32.5 17:53 4409 2518 Ann Arbor MI
312 Curtis,Marianne 4803 1:02:06.5 55:44.7 17:57 4417 2526 Ypsilanti MI
313 Evans,Andrea 5111 1:03:56.1 56:52.8 18:18 4451 2552 Ann Arbor MI
314 Reck,Allison 7041 1:04:04.7 58:09.3 18:43 4507 2592 Whitmore Lake MI
315 Brogdon,Kristen 4441 1:04:27.8 58:10.6 18:43 4509 2594 Tipton United States
316 Kennedy,Carrie 9232 1:03:43.0 58:25.6 18:48 4527 2606
317 Navvab,Minna 6675 1:06:17.7 59:12.4 19:03 4548 2623 Ann Arbor MI
318 Gillesppe,Jennifer 9350 1:02:29.4 59:19.5 19:06 4550 2625
319 Laswell,Eve 8553 1:00:55.4 59:27.4 19:08 4557 2629 Ann Arbor MI
320 Farquhar,Kathryn 9467 1:04:04.9 1:02:35.7 20:09 4616 2671 Ann Arbor MI
321 Vasquez,Adrienne 7878 1:10:32.4 1:05:00.3 20:55 4666 2708 Walled Lake United States
Go To Top
25-29 Female
Overall Overall State/
Place Name Bib Gun Tag Pace Place by Sex City County
1 Jarchow,Christine 5793 20:26.9 20:22.8 6:34 104 11 Grass Lake United States
2 Ernst,Heidi 9316 22:26.7 22:22.1 7:12 226 23
3 Holleman,Amy 5684 23:03.4 22:51.3 7:21 259 28 Ann Arbor U.S.
4 Buggs,Michelle 9308 23:26.3 23:09.7 7:27 290 31
5 Sheridan,Kate 8783 25:22.6 23:15.2 7:29 301 34 Cleveland Heights OH
6 Moore,Erin 6572 24:00.3 23:39.1 7:37 342 46 Ann Arbor MI
7 Marsonek,Steffanie 8595 25:22.9 23:49.2 7:40 363 51 Canton MI
8 Toteff,Courtney 7778 24:14.5 23:56.9 7:42 385 58 Grass Lake United States
9 Keller,Elizabeth 5904 24:25.7 23:58.5 7:43 391 62 Ann Arbor United States
10 Poole,Julie 8706 24:24.7 24:03.1 7:44 402 67 Canton United States
11 Amburgey,Kimberly 4060 24:12.8 24:04.7 7:45 404 68 Ann Arbor MI
12 Demars,Sara 4890 24:18.4 24:04.7 7:45 405 69 Grosse Pointe Shores MI
13 Hayes,Melanie 5574 26:59.6 24:21.2 7:50 445 81 Ann Arbor MI
14 Kelly,Brenna 8959 30:07.5 24:23.5 7:51 450 83 Ann Arbor MI
15 Krawczyk,Meagan 6051 24:47.9 24:29.8 7:53 472 90 Philadelphia PA
16 Kalaida,Natasha 5870 24:51.9 24:33.3 7:54 479 92 Ann Arbor MI
17 Zwicke,Christy 8253 25:06.3 24:38.5 7:56 490 95 Ann Arbor MI
18 Kissel,Angela 5976 26:32.8 24:44.6 7:58 513 102 Allen Park United States
19 Cooke,Ann-li 4727 25:36.3 24:47.2 7:59 519 105 Ann Arbor United States
20 Ley,Katharina 6207 25:54.2 24:48.7 7:59 525 107 Ann Arbor MI
21 Hengesbach,Heather 5604 25:44.3 25:03.7 8:04 566 116 Ypsilanti MI
22 Robertson,Leah 7136 26:20.6 25:09.9 8:06 577 121 Ann Arbor MI
23 Muzza,Amy 6654 25:45.9 25:17.0 8:08 592 128 Morral United States
24 Kuipers,Kaitlin 6072 25:46.9 25:20.1 8:09 602 131 Holland United States
25 Glissman,Julie 5370 25:57.1 25:26.0 8:11 620 139 Walled Lake MI
26 Barnes,Jessica 4179 26:17.1 25:27.1 8:12 622 140 Grand Rapids MI
27 Mcdowell,Kim Da Jung 6428 30:40.5 25:29.9 8:12 634 144 Ann Arbor MI
28 Maddox,Carrie 6289 26:22.0 25:32.7 8:13 646 149 Canton MI
29 Gershenson,Lily 5339 27:29.1 25:53.2 8:20 713 174 Ann Arbor MI
30 Weller,Chilah 8007 29:02.3 25:55.7 8:21 726 176 Saline MI
31 Bostian-kentes,Ariana 8292 26:36.4 25:59.6 8:22 738 179 Ann Arbor MI
32 Richard,Denise 7084 27:11.8 25:59.9 8:22 739 180 Grass Lake U.S.
33 Moody,Krista 6568 27:11.7 26:01.5 8:23 747 184 Saginaw MI
34 Schmidt,Megan 7310 26:36.4 26:04.1 8:23 758 190 Adrian United States
35 Webb,Taylor 7976 28:36.7 26:04.1 8:23 759 191 Flint MI
36 Flewelling,Tiara 5214 26:20.6 26:04.4 8:24 761 192 Northville MI
37 Russell,Renee 7228 29:21.6 26:11.9 8:26 780 200 Monroe MI
38 Rogers,Emily 7159 30:08.0 26:16.8 8:28 794 202 Saline MI
39 Salazar,Selena 7261 27:48.5 26:34.5 8:33 842 225 Ann Arbor MI
40 Nisse,Melissa 8992 28:49.2 26:35.4 8:34 848 229 Ann Arbor MI
41 Yesko,Emily 8878 30:42.9 26:36.2 8:34 853 231 Ypsilanti United States
42 Remy,Courtney 7066 26:55.6 26:37.8 8:34 858 234 Ann Arbor MI
43 Kirk,Keri 5969 31:04.4 26:40.3 8:35 863 237 Ypsilanti MI
44 Neese,Erica 6678 28:38.7 26:54.4 8:40 909 261 Newport MI
45 Bowen,Diana 9288 28:05.2 26:55.6 8:40 918 264
46 Hirschman,Barbara 9071 28:07.1 26:57.1 8:40 922 267
47 Falconer,Susan 5135 27:59.6 27:06.6 8:44 954 280 Ann Arbor MI
48 Kompoltowicz,Renee 6009 32:17.1 27:13.6 8:46 973 291 Canton United States
49 Hasegawa,Nika 5557 27:54.2 27:22.8 8:49 1005 305 Ann Arbor MI
50 Buquicchio,Jeana 4497 27:55.1 27:23.3 8:49 1007 306 Ann Arbor MI
51 Bezak,Reta 4302 27:55.8 27:24.3 8:49 1009 308 Ann Arbor MI
52 Wong,Audrey 8141 31:23.3 27:27.2 8:50 1021 312 Ann Arbor MI
53 Bergkoetter,Lisa 4277 28:45.6 27:31.8 8:52 1035 322 Milford MI
54 Tsang,Tiffany 7798 28:14.6 27:35.1 8:53 1048 325 Ann Arbor MI
55 Jacobson,Raelyn 5781 28:58.2 27:46.3 8:56 1076 339 Ann Arbor MI
56 Lu,Katherine 6244 30:43.3 27:53.0 8:58 1100 352 Ann Arbor U.S.
57 Anderson,Meg 8265 28:17.1 27:53.3 8:59 1102 353 Ann Arbor United States
58 Ray,Karen 9440 29:02.1 27:53.4 8:59 1104 355 Grand Blanc MI
59 Beaubien,Jessica 4213 29:39.1 27:56.6 9:00 1124 367 Carleton Monroe
60 Seligman,Eva 8778 30:55.0 27:56.7 9:00 1125 368 Ann Arbor MI
61 Attee,Ami 8271 31:54.2 27:58.9 9:00 1135 375 Ypsilanti MI
62 Hoover,Jacette 5695 30:23.4 28:01.2 9:01 1144 378 Howell MI
63 Higdon-sudow,Sarah 8470 30:36.6 28:02.8 9:02 1149 382 Ann Arbor United States
64 Curry,Courtney 4800 31:12.5 28:03.7 9:02 1155 387 Ann Arbor MI
65 Parris,Erin 6837 31:12.8 28:03.9 9:02 1156 388 Northville MI
66 Farnum,Katie 8398 29:07.5 28:06.3 9:03 1164 392 Brighton MI
67 Berlucchi,Maureen 4281 28:47.1 28:09.3 9:04 1171 395 Ann Arbor United States
68 Wasik,Alexis 8850 29:29.6 28:16.9 9:06 1202 410 Ypsilanti MI
69 Degroff,Kimberly 4879 29:38.6 28:22.5 9:08 1219 419 Dexter MI
70 Woodyatt,Diana 8157 29:27.8 28:25.2 9:09 1228 425 Ann Arbor MI
71 Stewart,Lauren 7592 32:29.0 28:26.8 9:09 1231 428 Ann Arbor MI
72 Ruhe,Adrienne 7204 33:48.6 28:31.5 9:11 1254 440 Mansfield United States
73 Tucker,Brittanie 7801 30:30.7 28:34.7 9:12 1282 455 Ida MI
74 Mazur,Magan 6389 31:01.5 28:36.6 9:13 1288 457 Shelby Twp MI
75 Thornton,Cathy 7758 29:44.8 28:37.2 9:13 1293 461 Milan MI
76 Musch,Janelle 6646 35:34.7 28:37.4 9:13 1294 462 Byron Center United States
77 Kuchapsky,Kara 6068 29:26.7 28:41.6 9:14 1309 472 Ann Arbor MI
78 Waisanen,Ellen 7932 30:26.9 28:42.3 9:14 1312 474 Farmington MI
79 Glass,Talia 5366 32:35.4 28:43.7 9:15 1318 477 Ann Arbor MI
80 Nowygrod,Ashley 6738 36:30.2 28:45.0 9:15 1324 480 Ann Arbor MI
81 Hada,Manila 5484 34:52.9 28:52.6 9:18 1354 495 Ann Arbor MI
82 Pettit,Rebecca 6909 30:56.1 28:52.8 9:18 1355 496 Ann Arbor United States
83 Hersberger,Katie 5615 30:45.8 28:56.9 9:19 1378 507 Ann Arbor MI
84 Gulbransen,Erin 5474 30:59.3 28:57.8 9:19 1382 509 Ann Arbor MI
85 Quigg,Janice 6995 29:27.4 28:58.0 9:19 1383 510 Clawson MI
86 Wilkins,Katie 8080 32:02.1 28:59.1 9:20 1387 513 Ypsilanti MI
87 Lee,Sheryl 6157 30:12.6 28:59.6 9:20 1388 514 Ann Arbor MI
88 Sreniawski,Sara 7549 30:09.9 29:03.5 9:21 1400 519 Flat Rock MI
89 Puskar,Leah 6991 30:15.9 29:09.4 9:23 1415 522 Freeland MI
90 Steudle,Allison 9454 30:15.7 29:09.6 9:23 1416 523 Ann Arbor MI
91 Matz,Becky 6372 32:31.7 29:16.8 9:25 1440 535 Ann Arbor MI
92 Searing,Sara 7351 31:54.6 29:23.0 9:27 1462 543 Plymouth United States
93 Schaefer,Anne 7296 30:45.2 29:23.3 9:28 1464 544 Lansing United States
94 Carner,Sarah 4582 31:20.3 29:24.3 9:28 1468 546 Lambertville MI
95 Richards,Annette 7086 34:33.6 29:36.2 9:32 1517 567 Ann Arbor
96 Sitarski,Kristina 7448 34:12.5 29:36.9 9:32 1529 575 Ann Arbor MI
97 Sarringhaus,Lauren 8765 34:04.8 29:38.0 9:32 1536 582 Ann Arbor MI
98 Barr,Kate 4182 33:42.2 29:39.2 9:33 1544 588 Ann Arbor MI
99 Delaney,Kelly 4882 32:18.7 29:44.1 9:34 1570 604 Ann Arbor MI
100 Schwegler,Lyndsey 7341 33:16.0 29:49.7 9:36 1594 615 South Lyon MI
101 Burek,Laura 4506 34:48.6 29:50.2 9:36 1598 616 Canton United States
102 Sims,Jennifer 9445 35:06.3 29:53.0 9:37 1614 623 Newport MI
103 Bunn,Jessica 4496 30:31.9 29:54.3 9:38 1621 627 Ypsilanti MI
104 Roy,Kristen 7200 32:50.4 29:56.0 9:38 1630 633 Ferndale United States
105 Chiano,Kara 8916 32:45.6 29:58.8 9:39 1639 639 Grand Blanc MI
106 Hernandez,Ann 5611 33:14.3 29:58.9 9:39 1640 640 Ann Arbor MI
107 Hunt,Melissa 8951 32:46.1 29:59.1 9:39 1642 641 Grand Blanc MI
108 Kim,Jenny 9448 34:43.7 30:03.4 9:40 1656 649 Ann Arbor United States
109 Ungrodt,Laura 7826 33:02.4 30:10.7 9:43 1680 665 Dexter MI
110 Miller,Holly 6520 31:21.9 30:12.6 9:43 1689 671 Maybee MI
111 Inuzuka,Kyoko 8487 31:26.4 30:16.9 9:45 1714 690 Canton United States
112 Proctor,Julia 6977 33:59.3 30:17.0 9:45 1717 692 Ann Arbor U.S.A
113 Nowitzke,Janelle 6737 32:02.0 30:19.0 9:45 1726 697 Monroe MI
114 Hines,Lindsey 5651 33:10.1 30:24.0 9:47 1755 714 Ann Arbor MI
115 Lengyel,Candice 6182 32:25.0 30:24.0 9:47 1756 715 Ypsilanti MI
116 Smead,Stacy 7473 34:09.0 30:32.0 9:50 1790 731 Holland MI
117 Throesch,Deanna 7763 34:08.7 30:32.7 9:50 1792 732 Zeeland MI
118 Abella,Isabel 4002 34:33.0 30:36.2 9:51 1801 738 Northville MI
119 Nigro,Autumn 6716 31:59.1 30:37.6 9:51 1806 741 Ann Arbor MI
120 Patnoude,Chelsea 6847 32:35.8 30:44.0 9:54 1826 756 Apt 207 Mi
121 Kraus,Ingrid 6049 32:53.5 30:46.4 9:54 1831 759 Ann Arbor MI
122 Cunningham,Arielle 4797 32:03.0 30:46.5 9:54 1832 760 Ann Arbor MI
123 Brummett,Sara 4474 32:53.5 30:46.6 9:54 1833 761 Ann Arbor MI
124 Leyton,Aimee 6208 32:53.1 30:46.6 9:54 1834 762 Ann Arbor MI
125 Seeley,Andrea 7359 32:53.3 30:46.6 9:54 1835 763 Ann Arbor MI
126 Bouladian,Teren 4380 34:12.9 30:51.0 9:56 1850 773 Novi MI
127 Spangler,Karen 7539 34:43.9 30:53.7 9:57 1859 778 Ann Arbor MI
128 Lance,Audrey 6110 31:25.1 30:54.0 9:57 1860 779 Ann Arbor MI
129 Kasper,Nicole 5885 33:48.1 31:01.9 9:59 1891 797 Ann Arbor MI
130 Berman,Tracy 4284 37:28.2 31:06.9 10:01 1908 803 Ann Arbor MI
131 Coleman,Nicole 8340 34:38.2 31:07.3 10:01 1911 806 Holly MI
132 Shelley,Vanessa 7392 32:16.4 31:08.2 10:01 1917 810 Berrien Springs MI
133 Knauff,Allison 5983 35:34.1 31:09.6 10:02 1923 814 Ann Arbor MI
134 Kaiser,Kristine 9169 34:17.8 31:11.0 10:02 1927 817
135 Bandfield,Katie 4164 33:01.1 31:15.6 10:04 1944 825 Jackson MI
136 Olszowy,Christina 6784 36:42.0 31:16.6 10:04 1948 827 Plymouth MI
137 Suazo,Dayana 7656 32:40.3 31:18.2 10:05 1957 830 Ypsilanti MI
138 Cinder,Rae Anne 4669 32:07.9 31:19.2 10:05 1960 831 Whitmore Lake MI
139 Paxton,Theresa 6862 34:50.1 31:20.5 10:05 1974 841 Clio United States
140 Rush,Andrea 7218 32:15.6 31:23.4 10:06 1984 850 Lansing MI
141 Brubaker,Sherry 4470 34:04.2 31:25.7 10:07 1996 860 Ypsilanti MI
142 Russell,Sarah 7229 36:27.6 31:26.4 10:07 2003 867 Jerome MI
143 Koman,Patricia 6007 32:32.9 31:27.5 10:08 2008 871 Ann Arbor MI
144 Myers,Elissa 6657 35:36.4 31:32.2 10:09 2027 880 South Lyon MI
145 Dempsey,Melissa 8363 31:33.2 31:33.2 10:09 2035 887 Sylvania OH
146 Johnson,Jonetta 5826 36:57.3 31:52.3 10:15 2113 944 Ann Arbor United States
147 Riske,Jennifer 7116 37:01.0 31:53.8 10:16 2125 953 Shelby Twp MI
148 Babion,Kathryn 4115 36:25.6 32:00.6 10:18 2156 969 Farmington Hills United States
149 Coffin,Sarah 4684 33:55.0 32:03.7 10:19 2168 979 Ypsilanti U.S.A
150 Sarmir,Karen 7287 36:12.7 32:04.1 10:19 2172 982 Ann Arbor United States
151 Maun,Heather 6375 36:26.6 32:08.1 10:21 2185 988 Ann Arbor MI
152 Last,Sally 8552 34:16.7 32:10.5 10:21 2196 996 Ann Arbor MI
153 Kristiansen,Pia 6058 34:16.7 32:11.0 10:22 2198 997 Ann Arbor MI
154 Huaringa,Maria 5719 33:19.9 32:12.1 10:22 2202 1000 Berrien Springs MI
155 Yau,Tiffany 8181 36:14.9 32:18.4 10:24 2229 1014 Ann Arbor MI
156 Beard,Rebecca 4208 35:23.1 32:18.4 10:24 2230 1015 Belleville MI
157 Villalba,Serena 7901 37:21.6 32:22.6 10:25 2247 1024 Ann Arbor MI
158 Sochacki,Kate 8794 36:06.9 32:23.7 10:26 2252 1028 Ann Arbor MI
159 Fiedler,Tiffany 5175 36:15.1 32:24.8 10:26 2257 1032 Belleville MI
160 Yu,Olivia 8209 36:31.8 32:32.2 10:28 2281 1046 Ann Arbor MI
161 Beechuk,Robyn 4228 36:23.3 32:34.3 10:29 2293 1054 Plymouth MI
162 Skinner,Ellen 7457 36:52.8 32:34.8 10:29 2296 1056 Westland MI
163 Gilbert,Jessica 5347 34:18.9 32:34.8 10:29 2297 1057 ST. Clair United States
164 Vides,Wanda 8837 33:58.6 32:35.1 10:29 2298 1058 Ann Arbor MI
165 Neill,Sara 6680 33:38.5 32:36.7 10:30 2306 1065 Ann Arbor MI
166 Littleton,Jennifer 8564 36:34.1 32:37.1 10:30 2308 1066 Belleville MI
167 Leduc,Lauren 6150 35:05.7 32:41.7 10:31 2334 1079 Ann Arbor MI
168 Al-Kharsa,Safia 9173 33:12.3 32:42.2 10:32 2338 1082
169 Vidusic,Kara 7898 37:31.3 32:42.8 10:32 2343 1086 Whitmore Lake United States
170 Smith,Rachel 7502 35:19.2 32:45.1 10:32 2350 1091 Ann Arbor MI
171 Webster,Lindsey 7985 35:54.1 32:45.4 10:33 2353 1094 Northville MI
172 Welty,Denise 8013 37:14.7 32:47.7 10:33 2367 1101 Saline MI
173 Henry,Kara 5608 35:14.9 32:49.2 10:34 2372 1104 Royal Oak MI
174 Mcnair,Sarah 6450 33:44.9 32:49.8 10:34 2379 1110 Portland United States
175 Cunningham,Andrea 4796 34:09.2 32:56.4 10:36 2400 1126 Ann Arbor MI
176 Nikanowicz,Kelli 6717 37:19.3 32:59.8 10:37 2410 1132 Pinckney MI
177 Osman,Danielle 6801 36:15.9 33:00.8 10:38 2413 1134 Ann Arbor MI
178 Greeley,Amber 5431 38:39.1 33:01.3 10:38 2415 1135 Ann Arbor MI
179 Unrath,Lindsey 9176 34:24.3 33:01.6 10:38 2416 1136
180 Kerns,Ashley 5933 38:39.4 33:01.7 10:38 2417 1137 Ann Arbor MI
181 Storick,Sarah 9175 34:24.2 33:01.7 10:38 2418 1138
182 Alamdari,Jessica 4031 36:22.8 33:03.3 10:38 2421 1140 Manchester MI
183 Gonzales,Anna 8434 35:51.4 33:04.6 10:39 2427 1144 Holly United States Of Ame
184 Cushman,Dawn 4805 36:53.3 33:07.0 10:40 2439 1155 Ann Arbor MI
185 Phelps,Laura 6913 37:58.6 33:10.3 10:41 2448 1161 Ann Arbor MI
186 Patterson,Christa 6850 34:11.4 33:15.3 10:42 2458 1168 Ann Arbor MI
187 Ressler,Emily 7072 34:13.3 33:16.6 10:43 2464 1171 Ann Arbor MI
188 Moret,Jessica 6586 36:24.9 33:20.1 10:44 2482 1178 Southgate MI
189 Grady,Jennifer 5415 36:39.5 33:24.7 10:45 2496 1187 Canton MI
190 Hines,Paige 5652 37:15.2 33:26.6 10:46 2506 1192 Toledo OH
191 Kwiatkowski,Bethany 9227 37:52.2 33:30.2 10:47 2518 1200
192 Zemer,Amber 8234 39:14.0 33:30.7 10:47 2522 1203 Jackson MI
193 Berends,Stefhanie 4273 36:48.1 33:33.4 10:48 2530 1210 Hudsonville MI
194 Restrepo,Vivian 7075 35:00.5 33:37.8 10:49 2549 1218 Ann Arbor MI
195 Mach,Mandy 6279 37:21.6 33:49.3 10:53 2587 1244 Linden MI
196 Kozanecki,Sarah 6037 36:57.4 33:50.5 10:54 2593 1248 Canton MI
197 Picardat,Beth 9105 38:07.1 33:52.0 10:54 2604 1254
198 Beauvais,Angie 4214 36:26.1 33:52.7 10:54 2610 1258 Grand Blanc MI
199 Balogh,Jennifer 8900 35:05.0 34:01.2 10:57 2636 1279 Lincoln Park MI
200 Mycek,Katherine 6655 39:08.6 34:12.1 11:00 2676 1308 Ann Arbor MI
201 Gillon,Kristen 5361 34:40.6 34:12.2 11:01 2677 1309 Perrysburg OH
202 Papachristou,Kate 6826 35:56.9 34:18.0 11:02 2686 1314 Ann Arbor MI
203 Jaruzel,Karen 5794 39:02.8 34:19.9 11:03 2696 1322 Ann Arbor MI
204 Fardig,Amy 5141 39:03.1 34:20.4 11:03 2698 1324 Ann Arbor MI
205 Valasek,Katie 7831 40:16.6 34:23.8 11:04 2710 1330 Owosso MI
206 Johns,Amanda 5815 38:38.6 34:25.0 11:05 2712 1332 Dearborn MI
207 Stanifer,Kristin 7560 37:50.7 34:27.0 11:05 2718 1335 Tecumseh MI
208 Lawton,Jennifer 6134 39:13.0 34:32.6 11:07 2741 1355 Ypsilanti MI
209 Lawrenchuk,Mallory 6132 40:21.4 34:32.8 11:07 2744 1357 Ann Arbor MI
210 Rippe,Lindsay 7115 38:18.8 34:33.7 11:07 2751 1361 Chicago United States
211 Estep,Susan 5105 36:23.7 34:43.1 11:10 2777 1379 Saline MI
212 Williams,Terri 8104 39:50.6 34:45.4 11:11 2787 1387 Ann Arbor MI
213 Keller,Jenell 9443 40:58.2 34:49.9 11:13 2803 1398 Holly MI
214 Schrotenboer,Sara 8772 40:58.3 34:50.7 11:13 2804 1399 Saginaw United States
215 Diviney,Kathryn 4944 37:40.3 34:50.8 11:13 2805 1400 Oak Park MI
216 Fick,Sarah 5174 39:52.8 34:53.8 11:14 2814 1406 Ann Arbor MI
217 House,Emily 5707 39:52.8 34:53.9 11:14 2816 1407 Ann Arbor MI
218 Bednarz,Leslie 4224 41:24.6 34:58.1 11:15 2827 1417 Northville MI
219 Shook,Christine 9138 38:20.0 34:58.7 11:15 2828 1418
220 Cripps,Katherine 4774 37:29.6 35:02.0 11:17 2839 1424 Linden MI
221 Kingery,Jamie 5959 40:38.3 35:11.7 11:20 2853 1434 Ypsilanti United States
222 Turowski,Kelly 7811 37:11.2 35:20.4 11:22 2881 1451 Canton MI
223 Tripple,Katherine 7788 37:46.7 35:21.1 11:23 2886 1454 Ann Arbor MI
224 Stram,Lisa 7627 38:57.4 35:23.6 11:24 2894 1460 Brighton MI
225 Richards,Staci 7090 38:59.7 35:25.6 11:24 2897 1462 Ypsilanti MI
226 Fensch,Jessica 5165 39:51.7 35:32.2 11:26 2920 1476 Jackson MI
227 Swank,Emily 7681 37:33.9 35:32.3 11:26 2922 1478 Chicago IL
228 Nguyen,Teresa 6702 36:24.3 35:36.4 11:28 2943 1492 Ann Arbor MI
229 Maslowsky,Julie 6349 39:31.1 36:00.9 11:36 3020 1548 Ann Arbor MI
230 Walker,Sara 7942 40:03.0 36:01.7 11:36 3022 1549 Ann Arbor United States
231 Jones,Rebecca 8507 36:40.6 36:04.0 11:36 3029 1555 Parma MI
232 Vale,Sarah 7837 38:22.6 36:06.5 11:37 3033 1559 Ann Arbor MI
233 Brown,Vicki 4466 40:35.1 36:08.8 11:38 3037 1561 Ann Arbor MI
234 Mcgonegal,Margaret 6430 38:18.4 36:12.9 11:39 3046 1566 Ann Arbor MI
235 Lehman,Victoria 6165 39:21.1 36:15.9 11:40 3051 1569 Huntington Woods MI
236 Lieffers,Cary 6213 39:30.9 36:16.8 11:41 3052 1570 Milan MI
237 Burdette,Tara 4500 40:24.6 36:31.2 11:45 3088 1590 Milan MI
238 Huhn,Rebecca 8480 38:42.3 36:43.2 11:49 3114 1605 Fowlerville United States
239 Grabell,Alison 8438 38:42.8 36:44.1 11:49 3119 1609 Ann Arbor MI
240 O'leary,Jillian 8667 38:53.9 36:44.7 11:50 3121 1611 Westland MI
241 Mcveigh,Mary 6456 41:15.5 36:53.1 11:52 3133 1619 Ann Arbor MI
242 Sherman,Jamie 7399 40:34.4 36:53.6 11:52 3136 1621 Lansing MI
243 Engelter,Krystin 8393 43:29.2 36:56.1 11:53 3143 1624 Ypsilanti MI
244 Williamson,Jennifer 8867 42:36.1 36:56.9 11:54 3145 1626 Ann Arbor MI
245 Krause,Ashley 8962 43:29.9 36:57.3 11:54 3147 1628 Plymouth United States
246 Cordts,Sara 4733 38:35.8 36:57.5 11:54 3149 1630 Garden City MI
247 Bondy,Renee' 4358 38:36.2 37:04.0 11:56 3159 1634 Taylor Wayne
248 Behrenwald,Tara 4240 41:53.7 37:04.9 11:56 3163 1638 Midland United States
249 Rodriguez,Marisa 9009 40:17.6 37:05.3 11:56 3166 1639 Ann Arbor MI
250 Burch,Jacqueline 9424 41:34.2 37:06.9 11:57 3174 1645 Plymouth MI
251 Nibert,Nicole 6704 40:55.9 37:07.3 11:57 3175 1646 Taylor MI
252 Farwig,Brandi 5147 43:06.7 37:07.9 11:57 3177 1647 Canton MI
253 Matson,Laura 6362 41:51.9 37:14.9 11:59 3191 1659 Ann Arbor MI
254 Rutz,Erin 7241 42:27.1 37:20.6 12:01 3203 1666 Ypsilanti United States
255 Dusseau,Jacque 5023 42:25.6 37:25.6 12:03 3217 1676 Temperance MI
256 Cyr,Mandy 4807 42:28.0 37:40.2 12:07 3243 1689 Ann Arbor MI
257 Harris,Lindsay 593 41:57.4 37:48.3 12:10 3258 1701 Howell MI
258 Silver,Alyson 7431 41:41.7 37:49.7 12:11 3263 1704 Apt 8k NE
259 Lukaszewski,Denise 6251 40:28.2 37:52.8 12:12 3270 1708 Ann Arbor MI
260 Dickerson,Pamela 4929 40:40.7 38:01.0 12:14 3279 1715 Ypsilanti MI
261 Gilliland,Natlaie 5357 43:59.6 38:03.7 12:15 3287 1720 Holland OH
262 Vontom,Emily 7914 40:05.8 38:04.5 12:15 3288 1721 Ypsilanti MI
263 Boerkoel,Elizabeth 4346 43:31.1 38:12.3 12:18 3311 1734 Ann Arbor MI
264 Clark,Kimberly 4673 42:38.4 38:18.4 12:20 3331 1748 Plymouth MI
265 Sleziak,Aleksandra 7467 45:33.4 38:23.2 12:21 3343 1757 Ypsilanti MI
266 Asher,Brandi 8267 40:33.0 38:25.7 12:22 3355 1764 Northville MI
267 Stewart,Melissa 7593 44:49.6 38:26.3 12:22 3357 1766 Bloomfield Hills MI
268 Bourlier,Jeanet 4381 40:27.1 38:42.9 12:28 3402 1796 Algonac United States
269 Mawhirter,Orianne 6377 40:27.1 38:44.1 12:28 3403 1797 Algonac MI
270 Hiner,Jamie 5647 43:39.6 38:45.0 12:28 3405 1798 Ferndale MI
271 Reinecke,Sandra 7062 42:13.3 38:46.4 12:29 3407 1799 Jackson MI
272 Dean,Danielle 4871 43:46.7 38:48.5 12:29 3410 1801
273 Rzeppa,Emily 7251 42:01.3 38:55.6 12:32 3416 1805 Pinckney MI
274 Freeman,Monica 5250 44:29.0 38:59.5 12:33 3421 1810 London Canada
275 Day,Anya 4864 44:02.8 39:12.3 12:37 3440 1824 Ypsilanti MI
276 Patterson,Jody 6853 43:43.3 39:12.4 12:37 3441 1825 Horton MI
277 Sandstrom,Lacie 8758 41:48.2 39:15.3 12:38 3445 1828 Ann Arbor MI
278 Sharrow,Gabrielle 7378 43:17.6 39:27.2 12:42 3461 1838 Port Huron MI
279 Mcdiarmid,Brenda 9200 44:21.0 39:31.4 12:43 3470 1845
280 Thompson,Alexis 7747 43:52.4 39:32.5 12:44 3475 1849 Chelsea MI
281 Lafollette,Dana 6101 46:02.5 39:34.3 12:44 3480 1851 Union U.S.
282 Cassman,Gabrielle 4601 43:02.8 39:37.3 12:45 3486 1855 Ottawa Lake MI
283 Sumrall,Tara 7670 44:10.5 39:37.7 12:45 3487 1856 Ypsilanti MI
284 Greyson,Courtney 5442 44:10.7 39:40.6 12:46 3492 1859 Farmington Hills MI
285 Visco,Elizabeth 7903 44:11.4 39:41.5 12:47 3495 1861 Hudsonville MI
286 Janci,Elizabeth 5785 43:58.8 39:44.1 12:47 3498 1863 Pittsburgh United States
287 Weiland,Teri 8856 43:21.7 39:47.4 12:48 3504 1868 Hartland MI
288 Keene,Brittany 5899 45:12.8 39:47.6 12:48 3505 1869 Willis MI
289 Thompson,Carol 7748 42:29.2 39:54.1 12:51 3515 1875 Ann Arbor MI
290 Kolesar,Sara 6004 44:43.8 39:57.0 12:51 3518 1877 Belleville MI
291 Higdon,Stephanie 5635 42:26.9 39:57.5 12:52 3520 1879 Northville MI
292 Hough,Lindsey 8477 41:55.3 39:58.5 12:52 3524 1882 Ann Arbor MI
293 Koenes,Joy 5995 42:39.6 40:00.7 12:53 3529 1885 Wyoming MI
294 Anton,Megan 4086 45:43.3 40:34.6 13:04 3567 1915 Chicago IL
295 Lavi,Maya 6127 42:52.6 40:35.6 13:04 3569 1916 Ann Arbor MI
296 Prasad,Shikha 9474 42:56.3 40:40.5 13:05 3576 1921 Ann Arbor MI
297 Mccollum,Jamie 8606 44:59.1 40:56.1 13:11 3608 1942 Ann Arbor MI
298 Straub,Leslie 7629 45:20.3 41:05.3 13:13 3621 1950 Petersburg MI
299 Donnelly,Lana 4961 42:05.7 41:08.9 13:15 3623 1952 Ferndale United States
300 Nault,Christine 6671 47:04.3 41:21.5 13:19 3627 1955 Grass Lake MI
301 Braun,Casey 4416 46:07.4 41:29.5 13:21 3634 1961 South Lyon MI
302 Crabill,Alex 4756 46:19.4 41:32.9 13:22 3639 1963 East Lansing MI
303 Caverly,Alisa 4613 46:18.7 41:33.3 13:22 3640 1964 Brownstown MI
304 Ingles,Cynthia 5758 46:47.1 41:33.5 13:23 3642 1965 Port Huron MI
305 Nati,Diana 6670 46:04.5 41:43.0 13:26 3661 1975 Ann Arbor MI
306 Meyer,Kate 8623 47:17.4 41:43.4 13:26 3662 1976 Tecumseh MI
307 Reiber,Emily 7055 46:28.9 41:48.4 13:27 3668 1979 Ypsilanti MI
308 Weilnau,Ginette 7993 45:26.8 41:49.3 13:28 3671 1982 Garden City Wayne
309 Ketchman,Yasminah 5934 46:44.8 41:53.4 13:29 3677 1987 Ypsilanti MI
310 Culver,Darcie 4792 47:11.3 42:23.8 13:39 3703 2006 Howell United States
311 Collins,Kira 4697 46:22.4 42:41.9 13:45 3723 2018 Ypsilanti MI
312 Harris,Kathryn 5543 48:33.7 42:48.0 13:47 3732 2026 Ann Arbor MI
313 Craig,Kathleen 4762 46:46.0 42:51.0 13:48 3733 2027 Dexter MI
314 Nephew,Amanda 6686 47:43.0 43:07.2 13:53 3750 2042 Ann Arbor MI
315 Weidmayer,Elissa 7991 49:34.0 43:48.0 14:06 3794 2077 Ann Arbor MI
316 Cooper,Sarah 8346 47:23.5 44:00.7 14:10 3809 2086 Toledo United States
317 Peterson,Colleen 6901 46:56.1 44:28.1 14:19 3821 2096 Grand Blanc MI
318 Woodall,Lavonne 8149 45:46.8 44:37.5 14:22 3826 2099 Washington TwP., United States
319 Emmons,Abbey 5086 46:21.0 44:40.5 14:23 3829 2101 Troy MI
320 Hubbard,Jessica 5723 49:26.0 44:41.7 14:23 3832 2104 Dexter MI
321 Murray-mcgue,Tracy 8650 49:13.5 44:56.5 14:28 3844 2110 South Lyon MI
322 Banks,Aimee 4166 48:14.7 45:09.2 14:32 3859 2120 Flat Rock MI
323 Oslin,Alyson 6800 48:34.3 45:18.2 14:35 3868 2126 Ann Arbor MI
324 Wyngarden,Alyson 8170 48:34.2 45:18.4 14:35 3869 2127 Northville MI
325 Kjerrumgaard,Stacy 5977 48:32.4 45:21.0 14:36 3871 2129 Harrison Township MI
326 Thiesmeyer,Sara 9031 51:22.1 45:35.5 14:40 3888 2144 Redford MI
327 Campbell,Elizabeth 4560 45:40.2 45:40.2 14:42 3899 2151 Ann Arbor MI
328 Jarzembowski,Sarah 5796 45:40.9 45:40.9 14:42 3901 2152 Ann Arbor MI
329 Hill,Jennifer 5642 49:11.2 45:42.8 14:43 3905 2156 Detroit MI
330 Deleonard,Morgan 4884 47:42.7 45:48.1 14:44 3910 2161 Ann Arbor United States
331 Allen,Allison 4050 51:26.9 46:01.0 14:49 3916 2165 Hazel Park MI
332 Bray,Lindsay 4418 49:21.4 46:03.5 14:49 3920 2168 Novi MI
333 Uchtorff,Renee 7822 49:09.2 46:20.5 14:55 3944 2187 New Boston United States
334 Frania,Kathryn 5243 53:13.4 47:13.8 15:12 3990 2221 Belleville MI
335 Miller,Danielle 6517 51:04.9 47:39.9 15:20 4024 2248 Charlotte MI
336 Williams,Amy 8087 54:46.4 47:51.0 15:24 4037 2257 Swartz Creek MI
337 Romer,Tracie 9352 52:20.6 48:09.9 15:30 4051 2267
338 Heys,Katie 5625 54:01.0 48:33.8 15:38 4079 2286 Ann Arbor MI
339 Heys,Liz 5627 54:10.3 48:43.0 15:41 4088 2293 Ann Arbor MI
340 Dresch,Danille 4996 55:08.3 49:06.9 15:48 4115 2314 Dexter MI
341 Hayden,Sarah 5573 54:12.3 49:17.1 15:52 4122 2320 Flint United States Of Ame
342 Burns,Grace 4517 54:25.9 49:41.6 16:00 4153 2340 Rochester Hills United States
343 Klima,Julie 5979 52:43.4 49:51.1 16:03 4164 2350 Ann Arbor MI
344 Hendee,Karly 8466 55:27.4 50:26.9 16:14 4190 2367 Ann Arbor MI
345 Buageila,Aneesa 4479 57:01.6 50:34.7 16:17 4199 2373 Ann Arbor MI
346 Arft,Ashley 4089 56:50.0 51:17.6 16:31 4223 2392 Ann Arbor MI
347 Metzger,Courtney 6490 54:40.9 51:55.8 16:43 4257 2415 Commerce MI
348 Contreras,Jessica 8343 57:24.2 51:58.1 16:44 4261 2418 Dearborn Hts MI
349 Chapp,Sharon 4631 58:37.4 53:16.6 17:09 4322 2461 Wolverine Lake MI
350 Houghton,Ginger 5706 58:37.5 53:17.7 17:09 4325 2463 Livonia Wayne
351 Neuman,Jodi 6692 59:13.7 53:23.8 17:11 4330 2467 Brooklyn MI
352 Russell,Ashleigh 7222 59:27.5 53:38.3 17:16 4334 2470 Mclean VA
353 Cudworth,Meghan 9158 59:55.1 53:52.5 17:20 4339 2473
354 Olson,Jessica 6776 59:55.1 53:54.5 17:21 4341 2474 Jackson MI
355 Doll,Sarah 8377 59:24.6 54:09.5 17:26 4355 2483 Ann Arbor MI
356 Booker,Nicole 4361 59:54.6 55:31.7 17:52 4408 2517 Saline MI
357 Allen,Han Na 4052 55:49.7 55:44.8 17:57 4418 2527 Ypsilanti MI
358 Quinlan,Heather 6997 1:01:39.2 55:52.5 17:59 4424 2532 Sterling Heights MI
359 Hoener,Kyle 5673 59:37.6 56:43.2 18:15 4448 2549 Canton MI
360 Border,Jessica 4368 1:00:57.3 57:34.0 18:32 4480 2574 Westland MI
361 Webb,Crystal 7975 1:01:01.4 57:37.1 18:33 4481 2575 Canton MI
362 Bruck,Lisa 4471 1:01:36.2 57:46.6 18:36 4489 2581 Ann Arbor United States
363 Galea,Sarah 8417 1:01:12.9 58:17.2 18:46 4512 2597 Ann Arbor MI
364 Ableson,Katie 4007 1:04:39.6 58:45.3 18:55 4541 2616 Northville MI
365 Cameron,Lindsay 4556 1:02:25.0 59:08.5 19:02 4545 2620 Howell MI
366 Cunningham,Rebecca 8353 1:00:55.6 59:27.3 19:08 4556 2628 Ann Arbor MI
367 Roberts,Lisa 7126 1:10:21.1 1:00:05.4 19:20 4578 2644 Britton MI
368 Sutton,Lisa 7679 1:07:07.0 1:00:10.1 19:22 4582 2648 White Lake MI
369 Jones,Melissa 5844 1:06:33.2 1:00:23.3 19:26 4595 2655 ST. Clair MI
370 Mcpherson,Jackie 6454 1:07:55.4 1:01:21.1 19:45 4606 2662 Livonia MI
371 Bakshi,Nandini 4155 1:08:34.9 1:02:44.6 20:12 4619 2674 Ann Arbor MI
372 Cleary,Jessica 4677 1:08:45.5 1:03:08.6 20:19 4627 2679 Wixom MI
373 Schroeder,Amber 7328 1:09:00.1 1:03:22.3 20:24 4638 2688 Belleville MI
374 Bridson,Eman 4432 1:09:00.1 1:03:23.9 20:24 4641 2690 South Lyon Oakland
375 Gutowski,Sarah 5479 1:04:04.2 1:04:04.2 20:37 4647 2694 Northville United States
376 Mirelez,Christina 8635 1:07:34.8 1:05:23.0 21:03 4672 2711 Ann Arbor MI
377 Elders,Laura 5062 1:14:39.9 1:07:57.6 21:52 4692 2727 Grandville MI
378 Boahene,Betsy 4339 1:16:50.3 1:10:06.2 22:34 4717 2744 Grand Rapids MI
379 Hubbard,Brittany 5720 1:13:43.0 1:13:43.0 23:44 4730 2752 Belleville United States
Go To Top
30-34 Female
Overall Overall State/
Place Name Bib Gun Tag Pace Place by Sex City County
1 Andrews,Ariel 4078 20:05.4 20:01.7 6:27 92 8 Ann Arbor MI
2 Greenland,Fiona 5434 22:22.4 21:53.3 7:03 200 20 Ann Arbor MI
3 Slotnick,Melissa 7470 23:32.2 23:14.6 7:29 300 33 Ann Arbor MI
4 Brink,Lindsay 4437 24:25.6 23:57.1 7:43 386 59 Farmington Hills MI
5 Zinn,Nichole 9257 25:13.7 24:37.3 7:55 489 94
6 Martin,Kristina 6339 25:07.9 24:43.2 7:57 504 98 Gregory MI
7 Salgia,Reena 7263 25:38.3 24:46.5 7:58 518 104 Ann Arbor MI
8 Eswaran,Shanti 5107 25:50.5 24:58.6 8:02 548 112 Ann Arbor MI
9 Kelly-shaieb,Jessica 5916 25:52.6 25:12.4 8:07 584 124 Ann Arbor MI
10 Runyan,Danielle 9321 25:54.9 25:22.0 8:10 609 134
11 Ferguson,Kristin 8399 25:48.6 25:33.9 8:14 651 153 Grandville MI
12 Neugut,Tova 6689 26:17.7 25:49.9 8:19 704 173 Ann Arbor MI
13 Paris,Rachel 8684 30:47.9 25:57.0 8:21 730 178 Charlotte United States
14 Young,Julie 8199 28:27.8 26:08.4 8:25 768 195 Tecumseh MI
15 Nienhuis,Nichole 6714 27:51.7 26:09.7 8:25 771 196 Allendale United States
16 Johnston,Carrie 5836 27:17.2 26:11.5 8:26 778 199 Flat Rock MI
17 Pitsch,Rosemarie 6933 26:56.4 26:18.9 8:28 803 208 Ann Arbor MI
18 Snyder,Mary Beth 7521 26:52.1 26:22.1 8:29 811 211 Birmingham MI
19 Stoev,Emily 7615 27:09.5 26:32.7 8:33 837 222 Ann Arbor MI
20 Miller,Angela 6514 27:33.6 26:34.8 8:33 843 226 Pinckney MI
21 Fielder,Amanda 5176 28:16.4 26:35.2 8:33 847 228 Byron Center MI
22 Clark,Cassondra 4671 27:52.7 26:41.0 8:35 866 240 Lowell United States
23 Roberts,Katharine 7123 27:27.7 26:48.8 8:38 889 250 Chelsea MI
24 Gorga,Caryn 9244 27:28.7 26:53.0 8:39 903 256
25 Thomas,Megan 8816 27:46.2 26:54.0 8:39 907 259 Ann Arbor Washtenaw
26 Ewald,Abbey 5122 27:13.3 26:58.4 8:41 930 271 South Lyon MI
27 Matuszak,Argenta 6363 27:57.9 27:01.6 8:42 942 276 Brighton United States
28 Savage,Heidi 7290 27:49.0 27:04.0 8:43 949 279 Ypsilanti MI
29 Ender-brien,Rebecca 5088 30:31.8 27:10.0 8:45 968 289 Canton MI
30 Vogt,Michelle 7909 28:13.6 27:14.7 8:46 978 293 Ypsilanti MI
31 Payne,Anja 6863 29:21.2 27:16.2 8:47 983 296 Monroe MI
32 Johnson,Michelle 9215 28:23.2 27:18.3 8:47 989 298
33 Zuiderveen,Cristin 9047 28:09.1 27:23.4 8:49 1008 307 Jenison MI
34 Harder,Erika 5529 29:55.8 27:29.5 8:51 1028 318 Ann Arbor United States
35 Rae,Rebecca 8719 33:59.9 27:30.0 8:51 1030 319 Ann Arbor MI
36 Gresh,Rena 9136 28:29.8 27:31.1 8:51 1031 320
37 Roddy,Lori 8737 28:09.8 27:31.7 8:52 1034 321 Ann Arbor United States
38 Borys,Beth 4371 31:25.1 27:45.3 8:56 1073 336 Plymouth MI
39 Bush,Hannah 4531 29:33.3 27:58.5 9:00 1131 371 Clawson MI
40 Huber,Julie 5727 29:27.5 27:58.8 9:00 1134 374 Toledo OH
41 Olson,Karly 6778 28:56.9 28:02.2 9:01 1147 380 Westland MI
42 Van Kampen,Casey Hoye 7848 29:11.7 28:06.1 9:03 1163 391 Saline MI
43 Yoder,Katherine 8190 29:03.2 28:10.4 9:04 1174 397 Marshall MI
44 Blank,Marisa 4324 28:49.3 28:18.7 9:07 1210 415 Clarkston MI
45 Thomas,Marjorie 7742 30:13.5 28:24.0 9:08 1225 422 Monroe MI
46 Krajewski,Shelly 6042 32:26.5 28:25.9 9:09 1230 427 Sterling Heights MI
47 Cornell,Jennifer 4738 30:24.8 28:29.0 9:10 1240 431 Tecumseh MI
48 Rieman,Julie 7106 32:29.4 28:29.1 9:10 1242 432 Canton United States
49 Zwica,Lynn 8252 32:09.3 28:29.7 9:10 1244 434 Ann Arbor MI
50 Shever,Leah 7401 29:23.6 28:30.5 9:11 1250 438 Chelsea MI
51 Bleckman,Johanna 4327 33:38.9 28:33.7 9:12 1270 449 Ann Arbor MI
52 Law,Jen 6129 29:28.0 28:37.1 9:13 1292 460 West Lafayette IN
53 Silva,Selina 7430 30:49.7 28:40.8 9:14 1304 468 Ann Arbor United States
54 Hadden,Laura 5489 30:22.3 28:41.0 9:14 1306 470 Allendale MI
55 Cornelius,Melissa 4736 30:23.0 28:45.4 9:15 1327 481 Pinckney MI
56 Dever,Sara 4915 30:02.0 28:48.5 9:16 1337 485 Ann Arbor MI
57 Matley,Gina 6360 29:48.1 28:53.1 9:18 1360 499 Milan MI
58 Bueno,Barbara 4489 28:53.3 28:53.3 9:18 1361 500 Ann Arbor MI
59 Adamson,Mandy 4024 31:40.0 29:03.0 9:21 1396 517 Whitmore Lake MI
60 Kaufman,Amy 5891 29:54.9 29:10.0 9:23 1418 525 Ypsilanti MI
61 Cook,Natalia 4724 31:51.6 29:13.3 9:24 1428 528 Ann Arbor MI
62 Hudson,Margaret 5730 31:13.1 29:14.2 9:25 1430 529 Williamston MI
63 Lowther,Abigail 9356 32:01.2 29:16.0 9:25 1434 532
64 Ettenson,Kara 5109 32:46.6 29:18.6 9:26 1445 538 Ann Arbor MI
65 Johnson,Eva 5823 30:12.1 29:28.9 9:29 1491 557 Ypsilanti MI
66 Ray,Anna 7035 35:16.1 29:31.7 9:30 1502 560 Ann Arbor MI
67 Luckett,Amelia 8573 33:34.5 29:36.3 9:32 1521 570 Ann Arbor MI
68 Brandon,Jamie 4410 32:06.6 29:37.3 9:32 1531 577 Chelsea U.S.A
69 Lee,Cynthia 6152 32:03.5 29:37.9 9:32 1535 581 Ann Arbor MI
70 Radovcic,Davorka 8718 34:04.7 29:38.6 9:32 1540 585 Ann Arbor MI
71 Inman,Patty 8952 32:32.7 29:39.0 9:33 1542 586 Grand Blanc MI
72 Foley,Jessica 5219 33:41.9 29:39.2 9:33 1543 587 Ann Arbor MI
73 Pepper,Catherine 6881 32:28.6 29:39.8 9:33 1548 591 Ann Arbor United States
74 Pschigoda,Sara 8713 32:50.8 29:43.0 9:34 1561 600 Ann Arbor MI
75 Wicksall,Bethany 8065 31:04.5 29:53.4 9:37 1617 625 Lansing MI
76 Chong,Khrizna 4650 31:50.1 29:54.4 9:38 1623 628 Ann Arbor United States
77 Sanderson,Jenn 8757 32:22.7 29:56.4 9:38 1633 636 Saline MI
78 Schwartz,Jenny 7339 33:00.8 30:02.0 9:40 1651 646 West Bloomfield MI
79 Soenen,Sherry 7526 32:26.4 30:08.7 9:42 1672 659 Canton MI
80 Fisher,Kelly 5192 32:40.6 30:10.7 9:43 1679 664 Macomb MI
81 Fritts,Kathleen 5266 32:32.4 30:11.0 9:43 1683 667 Ann Arbor MI
82 Haley,Kristina 5498 32:32.5 30:11.3 9:43 1685 669 Dexter MI
83 Durussel-jones,Heather 5022 34:07.2 30:14.4 9:44 1702 681 Manchester United States
84 Gingras,Allison 8430 34:06.9 30:14.8 9:44 1704 683 Ann Arbor MI
85 Lammers,Michelle 8549 32:43.4 30:15.3 9:44 1707 685 Canton MI
86 Przygodski,Jenny 6985 32:43.8 30:16.0 9:45 1709 687 Ann Arbor MI
87 Zablocki,Kara 8211 31:09.3 30:16.6 9:45 1711 688 Ypsilanti MI
88 Mckanna,Trudy 6437 33:22.3 30:17.0 9:45 1716 691 Rockford MI
89 Becker,Carol 4217 30:54.1 30:18.0 9:45 1722 694 South Lyon MI
90 Felosak,Cara 5161 31:11.9 30:19.1 9:46 1730 700 Macomb MI
91 Brabbs,Cassie 4396 35:10.4 30:21.9 9:46 1740 704 Ann Arbor United States
92 Macdonald,Lisa 6277 32:50.4 30:22.4 9:47 1742 706 Livonia MI
93 Goerlitz,Lisa 8939 32:58.1 30:28.5 9:49 1782 728 Saline United States
94 Riedlinger,Jennifer 7099 32:05.2 30:35.1 9:51 1800 737 Ypsilanti MI
95 Jasey,Najette 5797 35:37.4 30:43.3 9:53 1823 754 Farmington Hills MI
96 Fisher,Lisa 5193 32:50.1 30:43.8 9:53 1825 755 Plymouth MI
97 Hudson,Tara 5732 34:14.0 30:45.4 9:54 1828 757 Temperance MI
98 Taulbee,Jessica 7711 34:13.9 30:45.4 9:54 1829 758 Temperance MI
99 Choi,Danielle 4648 35:05.4 30:58.8 9:58 1873 786 Chelsea MI
100 Robinson,Christina 7140 33:27.2 30:59.7 9:59 1881 791 Ann Arbor MI
101 Glaza,Jane 5367 34:59.3 31:05.7 10:00 1902 801 Canton MI
102 Fisher,Holly 5190 35:04.1 31:09.2 10:02 1921 813 Holt Ingham
103 Stander,Taryn 7558 34:17.6 31:19.4 10:05 1963 832 Troy MI
104 Dionne,Jennifer 4943 35:00.8 31:19.4 10:05 1964 833 Berkley MI
105 Momeni,Jessica 6562 34:17.6 31:19.6 10:05 1967 836 Novi United States
106 Mcallister,Sarah 6395 36:02.5 31:19.7 10:05 1968 837 Saline United States
107 Perrin,Kelli 6890 34:50.3 31:20.4 10:05 1973 840 Flushing MI
108 Harlan,Mary 5535 34:04.1 31:22.6 10:06 1978 845 Ann Arbor United States
109 Mcfarland,Beth 8981 37:25.4 31:23.7 10:06 1986 852 Clinton Twp MI
110 Scott,Ginny 7345 37:47.9 31:25.7 10:07 1997 861 Tampa FL
111 Jensen,Megan 8494 37:48.1 31:26.0 10:07 2000 864 Ann Arbor United States
112 Brunwasser,Kaite 4476 33:18.3 31:29.4 10:08 2015 874 Ann Arbor MI
113 Andrews,Laura 4079 31:48.2 31:30.4 10:08 2021 877 Dearborn MI
114 Beard,Ashley 4206 35:27.9 31:32.2 10:09 2029 882 Ann Arbor MI
115 Held,Lindsay 5597 33:55.7 31:40.6 10:12 2056 901 Dearborn Heights U.S.
116 Ruttkofsky,Vicki 7240 33:12.3 31:44.8 10:13 2078 917 Adrian MI
117 Camp,Allison 4559 35:43.3 31:45.8 10:13 2081 920 Grand Rapids MI
118 Miller,Sharon 6533 36:50.0 31:53.2 10:16 2118 948 Ann Arbor MI
119 Russell,Carrie 7224 33:50.9 31:53.4 10:16 2121 949 Loveland OH
120 Shaw,Alicia 7382 33:37.2 31:58.7 10:18 2148 965 Commerce Twp MI
121 Walter,Kim 7948 35:26.9 32:00.9 10:18 2157 970 West Bloomfield MI
122 Van Pelt,Chastity 7850 38:08.9 32:02.5 10:19 2162 974 Ypsilanti United States
123 Miner,Amanda 6549 35:37.2 32:03.2 10:19 2166 977 Webberville MI
124 Eiler,Beth 5049 35:37.4 32:03.3 10:19 2167 978 Williamston MI
125 Barrett,Lauren 4184 35:44.8 32:04.9 10:20 2176 983 Woodhaven MI
126 Baker,Aimee 4141 35:13.8 32:06.0 10:20 2178 984 Hartland MI
127 Garrett,Nicole 5305 35:37.1 32:14.0 10:22 2214 1004 Cincinnati OH
128 Bell,Jill 4244 38:48.9 32:16.1 10:23 2219 1009 Ann Arbor MI
129 Begley,Lesa 4235 37:32.1 32:22.7 10:25 2248 1025 Ann Arbor MI
130 Underwood,Shelley 7825 33:24.1 32:24.3 10:26 2255 1030 Northville MI
131 Vanwormer,Sarah 7870 36:57.3 32:26.4 10:26 2260 1033 Birch Run United States
132 Kafke-eager,Heather 9210 36:05.0 32:32.8 10:29 2287 1050
133 Elliott,Danielle 5072 33:05.0 32:33.8 10:29 2291 1052 Williamsville United States
134 Maroudis,Rebecca 6328 33:00.7 32:35.9 10:30 2302 1062 Waterford MI
135 Baird,Trisha 4140 36:51.0 32:37.2 10:30 2309 1067 Howell MI
136 Bottini,Elvia 8294 34:37.7 32:39.7 10:31 2323 1074 Brownstown MI
137 Leonard,Michelle 6187 34:55.9 32:40.0 10:31 2324 1075 Dearborn MI
138 Arkwright,Jessi 8266 36:54.0 32:48.2 10:33 2368 1102 Ypsilanti MI
139 Auth,Barb 4109 35:49.6 32:51.2 10:34 2384 1114 Livonia MI
140 Hunter,Erika 8481 37:57.6 32:56.3 10:36 2399 1125 Ann Arbor MI
141 Beck,Angela 4216 34:05.7 32:56.8 10:36 2401 1127 Ypsilanti MI
142 Travis,Jennifer 7781 34:56.9 33:02.6 10:38 2420 1139 Ann Arbor MI
143 Morrow,Elisabeth 6592 36:44.6 33:03.4 10:38 2422 1141 Ann Arbor MI
144 Blake,Amber 4321 36:18.7 33:03.8 10:39 2425 1143 Ann Arbor MI
145 Frye,Latasha 5272 37:27.6 33:05.8 10:39 2434 1150 Ypsilanti MI
146 Laverty,Kristy 6125 36:22.3 33:07.3 10:40 2440 1156 Dexter MI
147 Conaway,Tiffany 4707 35:04.5 33:08.3 10:40 2444 1159 Napoleon MI
148 Desai,Kavita 4904 35:24.0 33:13.6 10:42 2455 1166 Ann Arbor MI
149 Drake,Elizabeth 4993 40:08.3 33:15.9 10:42 2460 1169 Ann Arbor MI
150 Rieder,Elizabeth 7098 34:57.4 33:18.0 10:43 2470 1172 Westland MI
151 Testani,Megan 7730 36:32.8 33:20.3 10:44 2484 1179 Northville MI
152 Sintobin,Holly 7440 35:53.3 33:23.5 10:45 2491 1184 Delta OH
153 Stone,Krysta 9027 37:12.4 33:24.9 10:45 2499 1188 Ann Arbor MI
154 Czarnecki,Melissa 4808 36:47.4 33:28.8 10:47 2515 1198 Jenison MI
155 Sprauer,Leigh 7547 34:41.6 33:32.4 10:48 2524 1205 Ann Arbor MI
156 Holshoe,Heather 5689 37:16.9 33:42.2 10:51 2560 1225 Ypsilanti MI
157 Falko,Denelle 5138 39:05.2 33:42.8 10:51 2568 1232 West Bloomfield MI
158 Jaruzel,Cathy 5795 38:25.6 33:42.9 10:51 2569 1233 Flint MI
159 Miller,Rasa 6531 35:34.7 33:44.2 10:52 2574 1237 Saline MI
160 Kennel,Maggi 5927 38:59.6 33:45.6 10:52 2578 1238 Ann Arbor MI
161 Farrell,Melissa 5144 38:18.6 33:45.9 10:52 2580 1239 Adrian MI
162 Hilling,Jessica 5645 36:19.6 33:50.9 10:54 2595 1249 Livonia United States
163 Lentine,Janel 6183 36:00.8 33:56.2 10:55 2617 1262 Chesterfield MI
164 Sieb,Autumn 7420 38:02.3 33:56.6 10:55 2619 1264 Monroe MI
165 Vandermarkt,Kim 7858 37:17.8 33:57.5 10:56 2622 1266 Jenison MI
166 Mueller,Tina 8647 36:26.3 33:57.7 10:56 2623 1267 Davison MI
167 Lee,Kimberly 6154 35:38.2 33:59.4 10:56 2628 1271 Westland MI
168 Spence,Rachel 8797 35:53.4 34:01.1 10:57 2634 1277 Ypsilanti MI
169 Keck,Elizabeth 5893 38:10.4 34:05.1 10:58 2645 1287 Monroe MI
170 Renner,Jennifer 7069 37:25.6 34:05.7 10:58 2648 1290 South Lyon MI
171 King,Jody 5954 35:43.8 34:10.0 11:00 2668 1303 Royal Oak MI
172 Smith,Tracy 7508 39:04.6 34:15.5 11:02 2680 1311 Ann Arbor MI
173 Schott,Amanda 7324 38:03.2 34:16.4 11:02 2683 1312 Ann Arbor MI
174 Buchstaller,Johanna 8907 39:18.2 34:22.7 11:04 2705 1329 Ann Arbor United States
175 Bierlein,Maggie 4306 40:04.5 34:24.0 11:04 2711 1331 Lansing MI
176 Gold,Heather 5377 41:51.2 34:26.0 11:05 2715 1334 Ann Arbor MI
177 Reaume,Alice 7040 38:31.9 34:27.5 11:05 2722 1338 Monroe MI
178 Heinrich,Amanda 5593 36:08.1 34:29.3 11:06 2727 1343 Plymouth MI
179 Basham,Christian 4188 39:48.1 34:31.7 11:07 2735 1350 Whitmore Lake United States
180 Schroeder,Andrea 7329 36:54.3 34:32.6 11:07 2740 1354 Ypsilanti MI
181 Ventura,Holly 9413 39:41.1 34:34.1 11:08 2754 1363 Canton MI
182 Jacobs,Lisa 5776 38:11.7 34:36.3 11:08 2759 1368 Novi MI
183 Bush,Meagan 4532 35:58.6 34:38.4 11:09 2763 1371 Ypsilanti MI
184 Mell,Amy 8621 35:47.0 34:42.4 11:10 2774 1377 Ann Arbor MI
185 Harrigan,Steph 8459 35:48.3 34:44.6 11:11 2782 1384 Ann Arbor MI
186 Miller,Kim 8632 40:05.6 34:46.3 11:12 2792 1391 Canton MI
187 Foster,Leah 5224 36:38.5 34:47.5 11:12 2795 1392 Evanston IL
188 Deboer,Shannon 4873 39:43.7 34:55.8 11:15 2823 1413 Belding MI
189 Smith,Laura 8793 39:14.2 34:57.4 11:15 2826 1416 Lansing MI
190 Peet,Amy 6869 38:23.1 35:00.3 11:16 2834 1422 Burlington MI
191 Priest,Rebecca 6968 40:36.9 35:07.3 11:18 2847 1429 Ann Arbor United States
192 Ferebee,Christina 5166 40:38.5 35:10.9 11:19 2852 1433 Winterville NC
193 Samborn,Alison 7269 38:47.5 35:13.0 11:20 2855 1436 Ann Arbor MI
194 Hadley,Diana 5490 39:42.0 35:14.6 11:21 2860 1439 Ann Arbor MI
195 Allen,Catherine 8260 41:40.0 35:18.9 11:22 2873 1447 Ann Arbor MI
196 Sweeton,Rebecca 7695 39:22.3 35:19.6 11:22 2877 1448 Livonia MI
197 Harrington,Michele 8460 40:37.7 35:21.1 11:23 2885 1453 Ann Arbor MI
198 Weaver,Stephanie 7974 42:21.7 35:27.2 11:25 2900 1463 Whitmore Lake MI
199 Morgan,Jennifer 6587 40:45.5 35:27.3 11:25 2901 1464 Byron Center MI
200 Johnson,Ellen 5822 39:19.0 35:27.3 11:25 2902 1465 Ann Arbor MI
201 Bradley,Tristen 4405 41:30.1 35:33.7 11:27 2926 1481 Ann Arbor MI
202 Dale-riddle,Allison 9296 42:12.1 35:35.6 11:27 2936 1487
203 Mozena,Kimberly 8645 38:50.9 35:37.3 11:28 2947 1495 Onsted U.S.
204 Lynn-zavicar,Lorrie 8582 38:51.0 35:37.8 11:28 2953 1500 Onsted MI
205 Wu,Grace 8169 40:16.1 35:44.5 11:30 2971 1511 Ann Arbor MI
206 Mccreight,Amanda 6415 39:52.6 35:45.0 11:30 2972 1512 Pinckney United States
207 Mckenzie,Arynne 6441 39:38.6 35:46.1 11:31 2977 1517 Ann Arbor MI
208 Linzner,Josona 6218 37:09.7 35:48.7 11:32 2988 1525 Unionville United States
209 Gordon,Maribeth 5401 37:09.7 35:48.8 11:32 2989 1526 Cassopolis United States
210 Stipes,Whitney 7606 41:20.7 35:56.6 11:34 3008 1542 Grand Blanc United States
211 Mccready-maynes,Jennifer 6414 40:47.2 35:57.1 11:34 3011 1544 Dexter MI
212 Sanders,Monica 7274 41:05.6 36:02.9 11:36 3024 1551 Mason MI
213 Gale,Anastasia 5286 40:02.5 36:05.8 11:37 3032 1558 Berkley MI
214 Bach,Megan 4122 40:53.2 36:08.0 11:38 3035 1560 Ypsilanti MI
215 Stewart,Rhiannon 7594 39:33.5 36:10.5 11:39 3041 1563 Ann Arbor Washtenaw
216 Sumerton,Amy 7667 40:12.0 36:10.8 11:39 3043 1565 Ann Arbor MI
217 Kurowski,Rachel 9428 41:56.1 36:20.2 11:42 3063 1575
218 Hurst,Laura 9300 36:50.7 36:26.2 11:44 3073 1582
219 Weir,Alicia 9360 40:04.3 36:31.1 11:45 3087 1589
220 El-asri,Ashley 5056 41:22.7 36:31.4 11:45 3091 1593 Ann Arbor MI
221 Rodgers,Cindy 7146 43:38.6 36:38.2 11:48 3106 1600 Shelby Twp MI
222 Taylor,Laura 7713 42:28.7 36:41.3 11:49 3109 1601 Dexter MI
223 Galloway,Alicia 5293 41:41.8 36:43.6 11:49 3116 1606 Reading MI
224 Gast,Terri 5313 41:13.7 36:43.6 11:49 3117 1607 Saginaw MI
225 Anton,Katie 4085 41:35.6 36:49.8 11:51 3129 1617 Lansing MI
226 Guinn,Jill 5466 42:00.8 36:58.8 11:54 3152 1632 Dearborn MI
227 Anderson,Sarah 4073 43:08.0 37:06.4 11:57 3170 1642 Grand Ledge United States
228 Mccullough,Jackie 6417 42:29.2 37:08.6 11:57 3178 1648 Brownstown MI
229 Sisco,Brooke 7444 40:43.7 37:20.5 12:01 3202 1665 Burlington MI
230 Johnson,Stacey 5834 40:43.6 37:21.3 12:01 3205 1668 Marshall United States
231 Brent,Laura 9253 41:40.4 37:27.2 12:03 3220 1677
232 Allen,Justina 4053 41:42.9 37:29.9 12:04 3225 1679 Canton MI
233 Boedeker,Stephanie 4345 40:03.5 37:33.5 12:05 3228 1682 Clinton Township MI
234 Dai,Hanyi 4815 38:57.1 37:38.4 12:07 3237 1686 Kalamazoo MI
235 Morrow-pringle,Amber 6594 41:49.2 37:40.5 12:08 3245 1691 Muskegon United States
236 Ziewacz,Jenny 8887 42:27.8 37:40.9 12:08 3246 1692 Ann Arbor United States
237 Osborne,Jaime 6796 42:27.9 37:41.0 12:08 3247 1693 Ann Arbor MI
238 Waters,Elizabeth 8851 42:43.5 37:45.9 12:09 3256 1699 Adrian MI
239 Williams,Shannon 8103 39:23.9 37:53.2 12:12 3271 1709 Farmington MI
240 Mcnish,Dena 6453 40:40.6 38:00.8 12:14 3278 1714 Howell MI
241 Kronsbein,Gretchen 6063 44:08.1 38:12.3 12:18 3312 1735 Novi MI
242 Robertson,Tracy 7139 42:02.3 38:15.2 12:19 3321 1741 Ann Arbor MI
243 Searles,Leanne 7353 40:54.1 38:18.9 12:20 3332 1749 Muskegon MI
244 Volk,Teresa 7913 45:33.7 38:23.2 12:21 3345 1759 Ann Arbor MI
245 Odigie,Claire 6754 42:15.3 38:26.9 12:23 3359 1767 Farmington Hills MI
246 Bottom,Lauralyn 4378 44:36.9 38:28.4 12:23 3368 1773 Ann Arbor MI
247 Tasch,Andrea 7709 44:26.7 38:32.0 12:24 3372 1776 Dundee MI
248 Smith,Colleen 7475 43:16.3 38:40.7 12:27 3393 1788 Petersburg U S
249 Simon,Alicia 7432 42:18.3 38:56.2 12:32 3417 1806 Grass Lake MI
250 Landau,Tammy 6113 42:18.8 38:56.3 12:32 3418 1807 Canton MI
251 Krall,Kelli 6043 44:32.2 38:56.8 12:32 3419 1808 Manchester MI
252 Abrams,Jennifer 8257 44:01.0 39:10.9 12:37 3436 1821 Owosso MI
253 Matta,Nicole 9317 43:33.2 39:13.9 12:38 3442 1826
254 Desselles,Christy 4910 43:17.7 39:25.8 12:41 3459 1836 Belleville MI
255 Bohms,Cicely 4350 43:17.9 39:26.3 12:42 3460 1837 Ypsilanti MI
256 Dalaly,Mimi 9248 39:46.8 39:46.8 12:48 3503 1867
257 Mackson,Megan 6283 44:43.3 39:57.0 12:51 3519 1878 Ypsilanti MI
258 Torrez,Nicole 7777 43:30.1 39:58.1 12:52 3521 1880 Northville MI
259 Gorzen,Becky 5407 43:51.6 39:59.1 12:52 3525 1883 Plymouth United States Of Ame
260 Meyer,Michelle 6491 44:24.7 40:07.9 12:55 3538 1891 Saline MI
261 Bott,Michelle 4376 46:28.7 40:10.8 12:56 3542 1894 Carleton MI
262 Merchant,Emily 6481 45:21.2 40:24.7 13:00 3555 1905 Ann Arbor MI
263 Austin,Jennifer 4107 45:17.0 40:38.5 13:05 3572 1918 ST. Louis MI
264 Mullins,Emilie 6623 43:51.4 40:44.4 13:07 3583 1926 Monroe MI
265 Czelada,Stefanie 4810 43:05.9 40:46.2 13:07 3590 1931 Fairgrove MI
266 Hunt,Liz 5740 43:13.9 40:54.7 13:10 3606 1940 Saginaw MI
267 Wisniewski,Jamie 8128 47:23.1 40:58.5 13:11 3611 1944 South Lyon MI
268 Iles,Arika 5751 46:02.0 40:59.0 13:11 3613 1946 Jackson MI
269 Chun,Erin 4658 43:54.9 41:05.0 13:13 3619 1948 Canton MI
270 Bennett,Billie Jo 4260 45:20.1 41:05.1 13:13 3620 1949 Petersburg MI
271 Resko,Stella 7070 47:13.9 41:33.8 13:23 3643 1966 Ann Arbor MI
272 West,Andrea 8022 46:27.6 41:33.8 13:23 3644 1967 Tecumseh MI
273 Kenney,Christine 5928 45:09.3 41:47.6 13:27 3666 1977 Walled Lake MI
274 Matt,Haneen 8601 45:09.3 41:48.2 13:27 3667 1978 Canton MI
275 Thompson,Cindy 7749 46:44.5 41:48.7 13:27 3669 1980 Ann Arbor MI
276 Asam,Susan 4101 46:46.6 41:49.6 13:28 3673 1984 Plymouth United States
277 Peters,Katrina 6899 45:33.6 41:55.8 13:30 3679 1989 Monroe Monroe
278 Marchese,Kari 8978 45:40.4 42:02.9 13:32 3691 1997 Monroe Usd
279 Walker,Angela 7937 48:02.2 42:24.6 13:39 3704 2007 Ann Arbor United States
280 Darling,Katie 8922 44:45.7 42:34.0 13:42 3711 2011 South Lyon United States
281 Lytle Lutovsky,Jessica 6275 45:13.0 42:42.7 13:45 3724 2019 Pinckney MI
282 Viola,Carrie 7902 47:00.3 42:43.2 13:45 3727 2021 Plymouth United States
283 Holdgreve-resender,Katie 9312 48:56.1 42:46.4 13:46 3729 2023
284 Lloyd,Stormy 6225 43:56.4 43:01.0 13:51 3745 2038 Canton United States
285 Flaherty,Katie 5202 46:43.8 43:17.7 13:56 3757 2047 Troy MI
286 Manning,Rayanne 6317 49:10.8 43:20.2 13:57 3760 2049 Ann Arbor United States
287 Avink,Sarah 4112 50:37.4 43:31.8 14:01 3772 2058 Richland MI
288 Roberts,Melissa 7128 43:34.1 43:34.1 14:01 3774 2060 Clinton United States
289 Simpson,Aimee 7437 50:37.1 43:36.7 14:02 3775 2061 Richland MI
290 Maley,Robin 6306 46:47.7 43:39.6 14:03 3780 2064 Ann Arbor MI
291 Martin,Jennifer 8597 46:15.0 43:41.0 14:04 3782 2066 Belleville MI
292 Rorie,Kecia 8746 47:53.9 43:44.6 14:05 3789 2072 Ann Arbor MI
293 Heath,Rebecca 5580 48:10.0 43:47.1 14:06 3792 2075 Milan United States
294 Guenther,Rebecca 8444 48:11.6 43:48.1 14:06 3795 2078 Milan MI
295 Walter,Natalie 9206 48:01.0 43:59.8 14:10 3807 2085
296 Bedore,Christine 4226 45:57.8 44:07.6 14:12 3813 2089 Delray Beach FL
297 Woodward,Jennifer 8155 49:04.9 44:20.8 14:16 3815 2091 Oak Park MI
298 Budres,Mary 4488 49:05.5 44:22.7 14:17 3816 2092 Grosse Ile MI
299 George,Meghan 5328 47:04.7 44:36.8 14:22 3825 2098 Swartz Creek MI
300 Emmons,Sheri 5087 46:19.9 44:40.1 14:23 3828 2100 Sterling Heights MI
301 Steger,Jennifer 7577 49:25.4 44:46.5 14:25 3837 2107 Livonia MI
302 Shauver,Melissa 7380 49:49.7 44:59.1 14:29 3848 2114 Ann Arbor MI
303 Webber,Alicia 7977 51:20.0 45:16.9 14:34 3863 2123 Brighton MI
304 Colter,Christeen 4700 49:10.2 45:17.3 14:35 3867 2125 Manchester MI
305 Choi,Jennifer 4649 53:05.1 45:36.2 14:41 3890 2146 Ann Arbor MI
306 O'brien,Becky 6744 49:58.4 45:41.2 14:42 3902 2153 Canton MI
307 Hiranuma,Yoko 5655 53:06.1 45:42.1 14:43 3903 2154 Ann Arbor MI
308 Croissant,Megan 8350 49:46.0 46:11.2 14:52 3930 2177 Birmingham MI
309 Shemwell,Aubree 7396 48:20.9 46:13.0 14:53 3934 2181 Chelsea MI
310 Hickey,Andrea 5628 52:28.0 46:14.2 14:53 3937 2183 Dundee MI
311 Dunkerley,Zeena 9160 50:58.9 46:21.1 14:55 3945 2188
312 Aikey,Esther 4029 47:55.2 46:25.4 14:57 3947 2189 Trenton MI
313 Pinsky,Melissa 9002 53:02.2 46:39.2 15:01 3962 2198 Ann Arbor MI
314 Barksdale,Lisa 4173 52:20.7 46:46.5 15:03 3971 2207 Ann Arbor MI
315 Roebuck,Ivana 7148 53:51.3 46:56.0 15:06 3978 2211 Northville Wayne
316 D'angelo,Melissa 9434 53:51.6 46:56.4 15:06 3979 2212 Dexter MI
317 Sirineo,Josephine 8788 50:11.6 46:56.8 15:07 3980 2213 Ann Arbor MI
318 May,Jill 6383 49:58.3 47:07.1 15:10 3985 2217 Ann Arbor MI
319 Fisher,Robyn 5194 52:47.3 47:51.2 15:24 4038 2258 Tecumseh MI
320 Miller,Beth 8628 51:42.3 48:12.4 15:31 4056 2271 Birmingham MI
321 Hoover,Leanne 5696 54:13.1 48:18.8 15:33 4061 2275 Pinckney MI
322 Flagel,Shelly 5201 49:56.6 48:22.8 15:34 4065 2277 Ann Arbor MI
323 Stuart,Deborah 7642 54:16.5 48:40.6 15:40 4084 2290 Pleasant Lake MI
324 Heys,Lisa 5626 54:10.2 48:42.6 15:41 4086 2291 Ann Arbor MI
325 Mcnicol,Yvonne 8613 52:43.6 48:43.0 15:41 4087 2292 Britton MI
326 Sosnowski,Sarah 7532 51:04.5 48:49.7 15:43 4093 2297 Belleville MI
327 Grimm,Alicia 5446 50:03.3 50:03.3 16:07 4175 2358 Chelsea United States
328 Zinn,Kara 9363 54:54.1 50:11.1 16:09 4178 2360
329 Spencer,Tara 8798 54:42.9 50:58.4 16:24 4211 2383 West Bloomfield MI
330 Haessler,Kathryn 5491 56:35.2 51:00.6 16:25 4213 2384 Ann Arbor MI
331 Patriacca,Yulia 6849 57:18.6 51:03.8 16:26 4215 2385 Carleton MI
332 West,Michelle 8026 56:02.2 51:10.2 16:28 4219 2388 Grand Blanc MI
333 Orlando,Patrizia 8993 57:36.3 51:14.9 16:30 4220 2389 Ann Arbor United States
334 Cappelli,Stacey 8913 57:35.9 51:15.8 16:30 4221 2390 Dexter United States
335 Jeruzal,Erin 5808 56:50.3 51:19.4 16:31 4224 2393 Chelsea MI
336 Brichta,Rachel 4431 58:45.7 52:25.5 16:52 4277 2429 Ann Arbor MI
337 Chrzanowski,Teryn 4657 56:31.1 52:40.6 16:57 4285 2435 Northville MI
338 Willoughby,Sara 8108 58:55.0 53:02.7 17:04 4306 2451 Allen Park United States
339 Zerka,Jamie 9269 55:55.9 53:09.2 17:06 4314 2456
340 Nofs,Julie 6726 59:28.9 53:13.0 17:08 4318 2459 Battle Creek MI
341 Lincoln,Kim 8561 55:25.8 53:22.7 17:11 4328 2465 Wayne United States
342 Chaudhary,Cecilia 4636 59:58.2 53:28.8 17:13 4332 2468 Ann Arbor Washtenaw
343 Fair,Allaina 5131 59:27.6 53:38.7 17:16 4336 2472 Taylor MI
344 Prince,Caira 6971 59:06.7 54:55.9 17:41 4389 2504 Ann Arbor MI
345 Berry,Kelli 4288 59:13.7 55:03.3 17:43 4391 2505 Ann Arbor MI
346 Mieczkowski,Alison 6503 1:01:55.9 55:17.5 17:48 4403 2515 Ann Arbor MI
347 Beymer,Lisa 4300 1:02:23.5 55:21.8 17:49 4405 2516 Ypsilanti MI
348 Cook,Colleen 4719 1:00:44.3 55:34.0 17:53 4410 2519 Ypsilanti MI
349 Snyder,Rebecca 7523 1:00:44.4 55:34.6 17:53 4411 2520 Ann Arbor MI
350 Valley,Marnee 7842 1:04:35.6 55:44.7 17:57 4416 2525 Holly MI
351 Lynch,Debbie 9094 1:01:40.1 55:53.5 17:59 4425 2533
352 Studley,Andrea 7645 57:57.5 56:11.8 18:05 4431 2538 New Baltimore MI
353 King,Amy 5951 1:03:38.5 57:56.0 18:39 4495 2585 West Bloomfield MI
354 Butcher,Jennifer 4540 1:04:52.1 57:56.1 18:39 4496 2586 Owosso MI
355 Twichell,Jody 7817 1:04:55.1 58:07.1 18:42 4506 2591 Saline MI
356 Romero,Sarah 9456 1:03:58.3 58:14.1 18:45 4511 2596 Canton United States
357 Elfline,Megan 8390 1:05:35.0 58:20.6 18:47 4518 2600 Howell MI
358 Milam,Lindsey 6510 1:02:47.7 58:24.6 18:48 4524 2604 Ida MI
359 Yatzek,Tiffany 8180 1:04:10.5 59:24.0 19:07 4554 2627 Adrian MI
360 Graf,Jenny 5416 1:05:40.6 59:34.3 19:10 4559 2631 South Lyon MI
361 Normann,Stephanie 6732 1:05:40.7 59:35.6 19:11 4561 2633 Whitmore Lake MI
362 Rayno,Sara 7038 1:05:31.1 59:47.1 19:15 4569 2639 Redford MI
363 Jahnke,Krista 5783 1:06:10.1 1:00:00.7 19:19 4574 2642 Royal Oak Mi
364 Esterline,Sarah 7285 1:10:37.3 1:00:21.8 19:26 4592 2653 Tecumseh MI
365 Bruner,Tammy 4475 1:06:33.4 1:00:23.3 19:26 4594 2654 Saint Clair Shores MI
366 Pray,Lauren 8707 1:09:07.9 1:02:00.5 19:57 4612 2668 Plymouth MI
367 Duncan,Katy 5016 1:10:31.8 1:03:20.9 20:23 4634 2685 Dexter MI
368 Tomalia,Victoria 7774 1:10:45.7 1:03:22.6 20:24 4639 2689 Ann Arbor MI
369 Doughty,Erica 4973 1:10:22.6 1:04:19.9 20:42 4653 2700 Jackson MI
370 Eggertsen,Jean 5045 1:11:51.8 1:04:41.7 20:49 4658 2704 Ann Arbor MI
371 Deruyver,Robyn 8367 1:11:39.0 1:05:25.5 21:03 4675 2713 Ann Arbor MI
372 Sparling,Brooke 7540 1:12:39.0 1:05:25.7 21:04 4676 2714 Ann Arbor United States
373 Overlander,Grace 8994 1:11:38.8 1:05:30.3 21:05 4677 2715 Ann Arbor United States
374 Cowan,Jennifer 9450 1:08:54.6 1:08:54.6 22:11 4709 2737 Garden City MI
375 Brown,Mary 4463 1:10:27.2 1:10:27.2 22:41 4722 2747 Royal Oak MI
376 Drayton,Amy 4995 1:11:36.9 1:11:36.9 23:03 4727 2751 Ypsilanti MI
Go To Top
35-39 Female
Overall Overall State/
Place Name Bib Gun Tag Pace Place by Sex City County
1 Brown,Lisa 4462 21:07.2 20:57.0 6:45 136 15 Dexter MI
2 Mcdannel,Stephanie 6421 23:55.1 23:23.3 7:32 314 36 Livonia MI
3 Anderson,Cathi 4069 24:33.2 23:45.3 7:39 354 48 Livonia MI
4 Sapp,Laura 7284 24:05.2 23:49.0 7:40 362 50 Dexter MI
5 Chea,Angela 4637 24:18.9 23:58.1 7:43 388 60 Dexter MI
6 Mullis,Merrill 6624 24:17.6 24:01.0 7:44 396 64 Ann Arbor MI
7 Brewer,Christine 4426 25:20.5 24:11.2 7:47 422 74 Newport U.S
8 Beeman,Charity 4230 24:38.6 24:12.4 7:47 425 75 Stockbridge MI
9 Jha,Poonam 5811 26:34.6 24:14.6 7:48 435 78 Chicago IL
10 Peiter,Christine 6870 25:09.9 24:43.9 7:58 511 100 Chelsea MI
11 Maclean,Sarah 6285 27:28.2 25:18.0 8:09 596 129 Ann Arbor MI
12 Overgaard,Christie 6810 26:18.2 25:24.4 8:11 616 137 Ypsilanti MI
13 Culbertson,Mary 4787 26:36.9 25:25.8 8:11 619 138 Saline MI
14 Lazarz,Kim 9161 26:05.1 25:30.3 8:13 636 145
15 Malek,Amy 6304 26:07.1 25:33.7 8:14 650 152 Sylvania OH
16 Moceri,Oksana 6558 28:56.3 25:38.4 8:15 670 162 South Lyon MI
17 Pirrwitz,Dayna 6929 28:42.5 25:48.0 8:18 698 169 Delta OH
18 Geary,Felicity 5320 27:19.2 26:02.3 8:23 751 187 Plymouth MI
19 Schoemann,Kim 8769 26:20.4 26:10.3 8:25 776 197 Grand Blanc U.S.
20 Wittkopp,Patricia 8135 26:36.0 26:17.1 8:28 796 203 Dexter MI
21 Lotz,Amanda 6238 28:44.0 26:17.6 8:28 799 205 Ann Arbor MI
22 Wortman,Krista 8161 27:17.6 26:22.6 8:29 812 212 Grosse Pointe Farms MI
23 Nilson,Lorna 6718 27:57.0 26:31.1 8:32 827 219 Highland MI
24 Fields,Tina 5181 27:32.2 26:43.5 8:36 875 245 Ann Arbor MI
25 Richards-schuster,Katie 7092 27:28.7 26:53.6 8:39 905 257 Ann Arbor MI
26 Mikonczyk,Michele 6508 28:56.9 26:55.6 8:40 917 263 Dearborn Heights MI
27 Watler,Katherine 7968 27:14.9 26:58.3 8:41 929 270 Ann Arbor MI
28 Smalheer,Sarah 7471 28:39.2 27:24.6 8:49 1013 309 Chelsea MI
29 Vezina,Jennifer 7897 28:07.4 27:26.6 8:50 1019 311 Dundee MI
30 Daniels,Sheila 4823 28:26.2 27:27.4 8:50 1022 313 Sterling Heights MI
31 Lussier,Christie 6261 29:48.3 27:43.0 8:55 1069 335 Monroe MI
32 Smith,Dana 8792 31:55.8 27:45.8 8:56 1075 338 Ypsilanti MI
33 Pinkerton,Joy 6927 28:17.8 27:47.8 8:57 1081 340 Ann Arbor MI
34 Salvatore,Jen 7265 31:57.4 27:51.8 8:58 1095 347 South Lyon MI
35 Schmenk,Dawn 7308 29:57.2 27:52.3 8:58 1098 350 Ottawa OH
36 Crumm,Michelle 4781 28:18.3 27:54.4 8:59 1112 362 Ann Arbor MI
37 Staton,Mercedes 7570 32:19.8 28:00.9 9:01 1142 377 Ann Arbor MI
38 Rosati,Anne 8747 28:30.3 28:12.3 9:05 1186 401 Ann Arbor United States
39 Hulsing,Wendy 5736 28:25.1 28:25.1 9:09 1227 424 Dexter MI
40 Mcnaney,Davina 6452 29:50.3 28:31.5 9:11 1255 441 Pinckney MI
41 Jourden,Danielle 5852 28:47.9 28:34.6 9:12 1278 452 Ann Arbor MI
42 Krassa,Jacqueline 6048 28:56.6 28:36.8 9:13 1290 458 Chesterfield MI
43 Brown,Kimberly 4459 29:51.7 28:38.3 9:13 1298 464 Fairgrove MI
44 Pangborn,Misty 6823 29:13.5 28:40.4 9:14 1302 467 Parma MI
45 Bourns,Holly 4382 29:50.4 28:45.5 9:15 1328 482 Ann Arbor MI
46 Driskell,Beth 5000 29:41.1 28:52.0 9:17 1352 494 Ypsilanti MI
47 Melnick,Andrea 6469 34:30.9 29:01.1 9:20 1394 516 Ann Arbor United States
48 Lyden,Angela 6265 31:22.8 29:11.2 9:24 1423 526 Ann Arbor MI
49 Wrenbeck,Kathy 8873 30:00.9 29:21.6 9:27 1457 542 Grass Lake MI
50 Van Becelaere,Keri 7844 30:57.5 29:25.2 9:28 1473 548 Canton MI
51 Van Doren,Alexandra 7846 33:52.2 29:26.6 9:29 1475 549 Ann Arbor MI
52 Handy,Becky 5526 35:36.2 29:26.8 9:29 1480 552 Rockford MI
53 Marentette,Tammy 6322 30:39.2 29:29.6 9:30 1493 558 Allen Park MI
54 Wasielewski,Diane 7963 31:06.8 29:34.8 9:31 1512 564 Ann Arbor United States
55 Hampton,Elizabeth 5524 31:04.0 29:35.5 9:31 1514 565 Jackson MI
56 Spinelli,Sherry 7544 29:58.4 29:36.2 9:32 1516 566 Pinckney United States
57 Ryan,Brandy 7244 32:58.5 29:36.6 9:32 1524 571 Sheridan MI
58 Goble,Huy 9209 31:11.4 29:38.5 9:32 1538 584
59 Salamy JR.,Paul 9223 30:56.9 29:39.9 9:33 1550 593
60 Nerdrum,Alexa 6687 30:29.4 29:40.3 9:33 1551 594 Ann Arbor MI
61 Davis,Shalaka 4857 34:23.5 29:40.4 9:33 1552 595 Ypsilanti MI
62 Sletten-farjo,Karin 7466 30:42.9 29:48.8 9:36 1588 612 Ann Arbor MI
63 Flanders,Brooke 5205 33:49.3 29:53.1 9:37 1615 624 Paw Paw MI
64 Zimmerman,Devony 9451 31:41.6 29:55.3 9:38 1626 630 Pinckney MI
65 Peterson,Lisa 8691 37:28.3 29:56.1 9:38 1631 634 Canton MI
66 Richard,Tara 9471 33:03.2 29:57.0 9:38 1635 637 Ann Arbor United States
67 Crane,Nicole 4767 31:40.8 30:08.2 9:42 1669 656 Fraser MI
68 Kuhlmann,Erika 6070 31:41.0 30:08.5 9:42 1671 658 Madison Heights MI
69 Soda,Lisa 7525 33:16.3 30:11.0 9:43 1682 666 Rockford MI
70 Hess,Ann 9414 33:31.4 30:13.9 9:44 1698 678 Ann Arbor MI
71 Devee,Abigail 4913 35:10.0 30:14.1 9:44 1699 679 Ann Arbor MI
72 Bacolor,Jenna 4125 31:07.7 30:19.9 9:46 1734 702 Ann Arbor MI
73 Cadena,Lydia 9117 33:43.9 30:23.7 9:47 1751 711
74 Frontier,Amy 5269 32:33.6 30:38.7 9:52 1810 744 Ann Arbor MI
75 Bachynski,Jennifer 4124 33:19.4 30:40.8 9:52 1815 748 Troy MI
76 Osworth,Jennifer 6802 35:06.5 30:41.2 9:53 1818 750 Tecumseh MI
77 Cramer,Johanna 4764 36:35.9 30:42.0 9:53 1820 752 Ann Arbor MI
78 Gerych,Christina 5341 34:03.6 30:47.6 9:55 1840 767 Brighton MI
79 Byker,Tanya 8912 33:25.4 30:50.9 9:56 1848 772 Ann Arbor MI
80 Van Deren,Shannon 8831 32:31.0 30:59.5 9:58 1880 790 Plymouth MI
81 Mayer,Sylvique 9086 32:27.8 31:07.6 10:01 1912 807
82 Reed,Shelley 7049 36:40.0 31:08.7 10:01 1920 812 High Ridge MO
83 Kuhr,Kim 6071 33:40.0 31:12.0 10:03 1932 820 Lambertville MI
84 Johnson,Ann 8497 32:59.4 31:12.3 10:03 1933 821 Dearborn MI
85 Boxeth,April 4389 36:28.9 31:17.8 10:04 1953 828 Ann Arbor MI
86 Baker,Lynn 4150 37:17.1 31:19.6 10:05 1965 834 Hudson OH
87 Harper,Heather 5536 35:37.1 31:21.6 10:06 1976 843 Saline MI
88 Grubbs,Lisa 5455 35:18.8 31:23.0 10:06 1981 847 Adrian MI
89 Sladick,Jeanette 7464 35:43.0 31:23.6 10:06 1985 851 Detroit MI
90 Binge,Kristine 4310 38:24.8 31:27.3 10:07 2006 870 Plymouth MI
91 Gerdes,Christine 5335 34:36.3 31:28.0 10:08 2010 873 Saline MI
92 Koch,Heather 8538 32:57.8 31:36.3 10:10 2042 889 Ypsilanti MI
93 Dimarco,Jody 4940 32:10.9 31:41.8 10:12 2065 909 Blissfield United States
94 Knuth,Cynthia 9279 33:21.9 31:42.7 10:12 2074 913
95 Deak,Dawn 4868 35:20.0 31:46.9 10:14 2082 921 Northville MI
96 Morris,Marianne 6591 35:38.1 31:47.5 10:14 2084 923 New Hudson MI
97 Lubeck-hofer,Julie 6245 35:08.8 31:48.6 10:14 2091 930 Ann Arbor MI
98 Leenhouts,Laura 6159 37:16.3 31:49.4 10:15 2094 931 Grand Haven MI
99 Carson,Cassandra 4589 36:07.8 31:50.0 10:15 2099 935 Milan MI
100 Fox,Tera 5237 39:19.6 31:51.5 10:15 2109 941 Ypsilanti MI
101 Pease,Sheryl 6865 33:38.9 31:51.6 10:15 2110 942 Whitmore Lake MI
102 Frait,Kirsten 5239 35:27.7 31:53.1 10:16 2117 947 Milan MI
103 O'brien,Hope 6745 35:47.0 31:53.6 10:16 2122 950 Plymouth MI
104 Smith,Evelyn 7482 36:10.9 31:55.6 10:17 2136 956 Canton U.S.A.
105 Malik,Alana 6307 35:25.9 32:01.4 10:18 2159 972 Maumee OH
106 Lindblade,Kim 8562 34:42.8 32:02.2 10:19 2161 973 Ann Arbor MI
107 Meija-ham,Ilze 6463 33:54.8 32:03.1 10:19 2164 975 Ann Arbor U.S.A.
108 Hill,Christy 5640 35:29.5 32:13.2 10:22 2209 1002 Swartz Creek MI
109 Lee,Meghan 6156 36:28.5 32:16.6 10:23 2223 1011 Ann Arbor MI
110 Doud,Jennifer 4972 34:46.9 32:19.1 10:24 2232 1016 Plymouth United States
111 Delorenzo,Dawn 4888 33:58.3 32:20.0 10:24 2235 1018 Livonia MI
112 Morgan,Anna 9075 33:49.1 32:22.4 10:25 2246 1023
113 Kostovski,Jacqueline 6024 35:38.6 32:26.7 10:27 2261 1034 Dearborn U.S.A.
114 Rouech,Tiffany 7192 35:05.2 32:27.2 10:27 2266 1038 Gregory MI
115 Freeman,Rachel 5251 35:05.4 32:27.3 10:27 2267 1039 East Lansing MI
116 Burrows,Heather 4527 37:04.3 32:32.2 10:28 2282 1047 Ann Arbor MI
117 Swanson,Jennifer 7687 35:03.7 32:33.2 10:29 2288 1051 Oswego United States
118 Mckaig,Heather 6436 36:05.8 32:45.7 10:33 2359 1097 Brighton MI
119 Perryman,Emily 6897 36:52.3 32:46.2 10:33 2360 1098 Ann Arbor MI
120 Reyna,Dawn 7078 34:44.6 32:48.4 10:34 2369 1103 Ypsilanti MI
121 Smith,Lisa 7497 33:44.5 32:49.9 10:34 2380 1111 Owosso MI
122 Wasilewski,Holly 7964 35:49.7 32:50.9 10:34 2383 1113 Commerce Township MI
123 Adams,Niki 4022 33:30.8 32:57.8 10:37 2406 1130 Parma MI
124 Styrna,Kasey 7654 36:59.6 33:03.6 10:38 2423 1142 Ann Arbor United States
125 Schaffer,Katie 7299 34:50.7 33:05.2 10:39 2432 1148 Chelsea Washtenaw
126 Kent,Mara 9273 36:47.0 33:06.4 10:39 2435 1151
127 Gross,Kate 5453 38:04.4 33:08.9 10:40 2446 1160 Flushing United States
128 Olk,Melanie 6772 38:23.4 33:10.9 10:41 2450 1163 Saginaw U.S.
129 Maier,Karin 6296 33:42.4 33:11.2 10:41 2451 1164 Macomb MI
130 Cox,Michelle 8921 35:33.5 33:11.8 10:41 2453 1165 Jackson MI
131 Mclean,Nahida 6447 34:45.9 33:14.8 10:42 2456 1167 Woodhaven MI
132 Williams,Molly 8099 35:45.6 33:16.2 10:42 2462 1170 Stockbridge MI
133 Iacofano,Dawn 5746 34:45.9 33:19.8 10:44 2480 1177 Ypsilanti Washtenaw
134 Testani,Carla 8815 36:32.6 33:20.9 10:44 2486 1180 Northville MI
135 Saunders,Tara 7289 38:51.8 33:27.5 10:46 2509 1194 Ann Arbor MI
136 Reese,Shannon 7053 34:23.9 33:27.5 10:46 2510 1195 Brighton MI
137 Williams,Kristy 9477 43:44.7 33:28.6 10:46 2514 1197
138 Ptasznik,Heather 6987 36:56.6 33:31.5 10:47 2523 1204 Plymouth MI
139 Carter,Tammy 4594 37:38.6 33:32.6 10:48 2525 1206 Ann Arbor MI
140 Chang,Susan 4628 38:26.0 33:33.6 10:48 2532 1211 West Bloomfield United States
141 Elliott,Amy 5071 39:22.0 33:40.9 10:50 2554 1222 Westland MI
142 Budzinski,Katherine 180 36:51.9 33:41.8 10:51 2558 1223 Rochester Hills MI
143 Blackwell,Jennifer 4320 39:38.3 33:42.5 10:51 2562 1226 Ann Arbor MI
144 Chelune,Jennifer 4639 38:16.0 33:43.2 10:51 2572 1236 Cincinnati OH
145 Fischer,Melissa 5188 37:26.6 33:48.4 10:53 2585 1243 Howell MI
146 Tomac,Angel 7772 36:31.2 33:51.7 10:54 2601 1251 Caledonia MI
147 Pender,Lorie 6875 39:49.7 33:51.8 10:54 2602 1252 West Bloomfield United States
148 Johnson,Temuulen 8503 37:20.3 33:53.1 10:54 2611 1259 Ann Arbor MI
149 Laursen,Shannon 6124 37:44.1 33:56.1 10:55 2615 1260 Ypsilanti MI
150 Saylor,Renee 7292 35:34.4 33:56.1 10:55 2616 1261 Grand Blanc MI
151 Warthman,Stacy 8848 36:13.1 33:59.2 10:56 2627 1270 South Lyon MI
152 Medford,Daniella 8984 41:10.7 34:00.2 10:57 2630 1273 Waterford MI
153 ?,Laura 9342 36:14.1 34:00.8 10:57 2632 1275
154 Swisher,Jackie 7697 37:54.3 34:03.1 10:58 2642 1285 Dundee MI
155 Budd,Edith 4485 35:33.3 34:03.5 10:58 2643 1286 Highland MI
156 Rieger,Kristy 7101 35:17.6 34:06.0 10:59 2649 1291 Allendale MI
157 Williams,Jessica 8096 36:33.8 34:06.6 10:59 2651 1292 Fenton MI
158 Carlson,Jennifer 4577 37:10.3 34:08.0 10:59 2655 1294 Ypsilanti MI
159 Fisk,Vanessa 5195 37:56.0 34:09.4 11:00 2666 1302 Gregory United States
160 O'neal,Pam 6785 39:12.2 34:10.7 11:00 2673 1306 Ann Arbor MI
161 Burnett,Kelly 8310 38:52.6 34:19.0 11:03 2691 1318 Britton MI
162 Carrier,Kelly 8315 38:52.6 34:19.1 11:03 2693 1319 Adrian MI
163 Wade,Heather 7922 38:53.6 34:19.6 11:03 2694 1320 Ann Arbor MI
164 Jucha,Dawn 5854 36:41.9 34:20.2 11:03 2697 1323 Canton MI
165 Peteyk,Taryn 9150 38:30.5 34:20.6 11:03 2699 1325
166 Newsom,Cheryl 8989 38:25.3 34:27.2 11:05 2719 1336 Sylvania United States
167 Manor,Nichole 9263 38:31.5 34:27.4 11:05 2721 1337
168 Peitz,Kelly 6871 37:35.7 34:28.6 11:06 2725 1341 Petersburg MI
169 King,Tammie 8535 37:21.1 34:28.6 11:06 2726 1342 Saline MI
170 Fagerlin,Angie 5128 36:43.9 34:29.8 11:06 2728 1344 Ann Arbor MI
171 Johnson,Joanna 8500 35:34.1 34:33.2 11:07 2748 1359 Battle Creek MI
172 Smith,Heather 7486 36:55.8 34:33.6 11:07 2750 1360 Ypsilanti MI
173 Hoeft,Sheila 8471 39:12.9 34:37.3 11:09 2761 1369 Dexter United States
174 Aronow,Stefanie 8897 36:03.3 34:39.6 11:09 2766 1373 Ann Arbor MI
175 Das,Aneesa 4827 37:22.7 34:41.4 11:10 2770 1376 Dublin OH
176 Vanhaaften,Valerie 7862 37:24.6 34:43.0 11:10 2776 1378 Ann Arbor MI
177 Park,Nguyen 6834 39:38.0 34:45.2 11:11 2786 1386 Brownstown United States
178 Stevens,Carly 7587 39:05.7 34:48.6 11:12 2800 1396 Ypsilanti MI
179 Norris,Annaka 6733 38:10.1 35:00.8 11:16 2837 1423 Ferndale MI
180 Jamrog,Cynthia 5784 37:34.8 35:03.6 11:17 2840 1425 Holland MI
181 Carlson,Jodi 4578 38:42.6 35:16.4 11:21 2867 1443 Holland MI
182 Vansyckle,Jamie 7868 38:57.0 35:17.6 11:22 2869 1445 Greenville MI
183 Beach,Katharine 8284 39:20.1 35:20.3 11:22 2879 1449 Ypsilanti MI
184 Bush,Rachel 4533 42:21.6 35:27.7 11:25 2904 1466 Whitmore Lake MI
185 Judge,Karen 5855 38:32.3 35:30.4 11:26 2914 1471 Livonia MI
186 Evans,Lisa 5117 38:25.4 35:32.3 11:26 2921 1477 Ann Arbor MI
187 Fairbanks,Mindy 5132 39:16.2 35:37.3 11:28 2948 1496 Milan MI
188 Sladick,Michelle 7465 39:57.4 35:38.2 11:28 2958 1503 Fowlerville MI
189 Barbara,Torzewski 4169 39:16.6 35:38.3 11:28 2959 1504 Milan MI
190 Reedy,Stephanie 7050 38:34.1 35:39.2 11:29 2962 1505 Pincnkey MI
191 Tuller,Kelli 8825 40:01.8 35:40.9 11:29 2965 1508 Ida MI
192 Yeh,Frances 8184 40:36.8 35:42.8 11:30 2968 1510 Ann Arbor MI
193 Christiansen,Angela 4656 36:36.7 35:47.3 11:31 2983 1522 Ypsilanti MI
194 Smay,Michelle 7472 40:03.6 35:52.6 11:33 2998 1532 Ann Arbor MI
195 Bukowski,Bella 4490 41:28.7 35:54.1 11:33 3000 1534 Ann Arbor MI
196 Bukowski,Claudine 4491 41:30.0 35:55.0 11:34 3002 1536 Rockford MI
197 Burmeister Loera,Catherine 9331 37:13.8 35:55.8 11:34 3004 1538
198 Hawn,Kristen 5569 40:25.1 35:56.2 11:34 3006 1540 Portage United States
199 Lynn,Leslie 6271 41:21.8 35:59.2 11:35 3014 1545 Northville MI
200 Welter,Stacia 8011 38:44.6 36:03.5 11:36 3025 1552 Portland MI
201 Oliver,Julie 8668 36:41.0 36:03.8 11:36 3027 1553 Spring Arbor MI
202 Elly,Erin 5080 39:04.5 36:09.2 11:38 3039 1562 Ann Arbor MI
203 Kelley,Tracy 5910 40:03.2 36:17.8 11:41 3055 1572 Coldwater MI
204 Stehouwer,Elizabeth 7582 40:19.7 36:30.2 11:45 3080 1586 Ann Arbor U.S.
205 Brewster,Melissa 4427 38:13.9 36:31.0 11:45 3085 1588 Howell MI
206 Mendez,Janet 6472 40:55.6 36:31.3 11:45 3089 1591 Mason MI
207 Cobb,Jen 4681 38:14.1 36:31.4 11:45 3090 1592 Howell MI
208 Keefauver,Lisa 5897 41:35.1 36:42.1 11:49 3110 1602 Ann Arbor MI
209 Mcculloch,Jennifer 6416 41:35.7 36:42.7 11:49 3112 1604 Ypsilanti MI
210 Gervasone,Carrie 5340 37:21.8 36:50.9 11:52 3131 1618 Fraser MI
211 Leflar,Paula 6163 40:47.8 37:10.0 11:58 3179 1649 Clinton Township United States
212 Alexander,Jennifer 4047 41:36.4 37:11.6 11:58 3182 1651 Battle Creek MI
213 Lawrence-jacobson,Abbie 6131 42:28.1 37:12.8 11:59 3186 1655 Ann Arbor U.S.
214 Trester,Rebecca 9404 42:11.2 37:13.1 11:59 3187 1656 Chelsea MI
215 Bingham,Aimee 4311 41:16.0 37:13.8 11:59 3188 1657 Manchester MI
216 Colvig,Anna 4701 42:19.5 37:17.1 12:00 3196 1661 Ypsilanti MI
217 Dunham,Stephanie 5017 43:26.6 37:40.2 12:07 3242 1688 Ann Arbor MI
218 Mergler,Kristin 6483 43:26.6 37:40.3 12:08 3244 1690 Ann Arbor MI
219 Cox,Hollie 9054 43:27.4 37:41.4 12:08 3248 1694
220 Johnson,Stephanie 9458 38:55.9 37:45.5 12:09 3255 1698 Owosso MI
221 Henderson-zaner,Jennifer 5602 42:14.0 37:49.7 12:11 3264 1705 Troy MI
222 Arnaboldi,Michela 4093 42:07.9 38:06.8 12:16 3294 1725 Ann Arbor MI
223 Taylor,Jen 7712 38:33.3 38:08.9 12:17 3299 1729 Battle Creek MI
224 Duff,Tammy 5011 38:33.5 38:09.1 12:17 3302 1731 Battle Creek MI
225 Johnson,Valerie 5835 42:53.9 38:10.7 12:17 3307 1733 Plymouth MI
226 Carlson,Frances 8313 45:28.1 38:15.9 12:19 3324 1742 Ann Arbor MI
227 Reingold,Alison 7063 43:10.2 38:24.8 12:22 3348 1760 Ann Arbor MI
228 Hurst,Laura 5744 45:04.0 38:25.1 12:22 3350 1762 Ypsilanti MI
229 Horn,Christina 9433 40:32.9 38:25.6 12:22 3354 1763 Plymouth United States
230 Heyn,Lorie 5624 42:08.6 38:26.3 12:22 3356 1765 Milan United States
231 Alexander,Laurie 4048 43:00.4 38:30.7 12:24 3370 1775 Ann Arbor MI
232 Stidham,Laura 7597 41:50.3 38:34.3 12:25 3376 1779 Ann Arbor MI
233 Vann,Amelia 7864 42:56.1 38:38.7 12:26 3387 1784 Canton United States
234 Willford,Wendy 8864 45:27.0 38:40.4 12:27 3389 1785 Dexter MI
235 Kocibelli,Etleva 5994 43:17.1 38:40.6 12:27 3392 1787 Saline MI
236 Smith,Michelle 7500 43:17.2 38:41.0 12:27 3396 1791 Temperance MI
237 Pollock,Allison 6944 39:50.2 38:42.0 12:27 3399 1794 Huntington Woods MI
238 Renaud,Charlotte 7067 43:17.5 38:42.3 12:27 3401 1795 Dexter MI
239 Dew,Thena 4919 39:50.3 38:53.1 12:31 3413 1803 Royal Oak MI
240 Lubetkin,Andrea 8572 43:23.5 39:02.6 12:34 3428 1814 Ann Arbor MI
241 Okronley,Julee 6765 43:33.3 39:19.0 12:39 3450 1831 Howell MI
242 Abler,Jennifer 4005 49:48.3 39:23.7 12:41 3458 1835 Novi MI
243 Smith,Deana 7479 44:53.1 39:28.7 12:42 3466 1842 Ypsilanti MI
244 Jahn,Elizabeth 5782 43:05.8 39:33.6 12:44 3477 1850 Ann Arbor MI
245 Mackenzie,Wendy 6282 44:26.8 39:34.3 12:44 3481 1852 Beverly Hills MI
246 Rowe,Caitlin 7198 43:41.3 39:35.1 12:44 3483 1853 Ann Arbor MI
247 Fain,Kim 9189 43:20.4 39:40.3 12:46 3491 1858
248 Marquez,Dana 6329 45:18.4 40:12.8 12:57 3544 1895 Ferndale MI
249 Itchon,Joyce 5765 45:18.7 40:12.8 12:57 3545 1896 Clinton Township MI
250 Lim,Ann 6215 45:14.2 40:20.6 12:59 3552 1902 Ann Arbor MI
251 Ortwein,Lana 6794 44:39.7 40:27.8 13:01 3558 1908 Chesterfield MI
252 Myrick,Theresa 8652 45:30.8 40:29.1 13:02 3562 1911 Lansing MI
253 Odtohan,Catherine 6758 45:08.2 40:29.7 13:02 3563 1912 Chicago United States
254 Trombley,Natalie 7791 40:37.2 40:37.2 13:04 3570 1917 Rochester Hills MI
255 Mcbee,Heather 8604 45:15.0 40:40.3 13:05 3575 1920 Petersburg MI
256 Phillips,Carrie 6915 45:12.4 40:42.2 13:06 3581 1925 Battle Creek United States
257 Zimmer,Emily 8242 43:33.1 40:49.5 13:08 3596 1934 Chelsea MI
258 Alford,Darcy 4049 46:42.0 40:51.3 13:09 3601 1936 Dexter MI
259 Joseph,Courtney 5851 43:43.3 40:58.5 13:11 3612 1945 Royal Oak United States
260 Pettit,Marcia 6908 45:52.9 41:27.3 13:21 3631 1958 Westland MI
261 Mayher,Jean 6385 45:52.8 41:27.4 13:21 3632 1959 Ann Arbor MI
262 Robbins,Jacqui 7119 46:37.3 41:34.4 13:23 3648 1968 Ann Arbor MI
263 Gilling,Earnee 5359 45:32.9 41:36.3 13:23 3654 1970 Ypsilanti MI
264 Patterson,Shelley 6856 44:43.1 42:10.7 13:35 3693 1998 Allen Park MI
265 Rousse-bettendorf,Laurie 7195 44:43.3 42:11.2 13:35 3694 1999 Newport MI
266 Ranville,Erin 7026 45:38.5 42:17.9 13:37 3699 2003 Ann Arbor MI
267 Kegebein,Shannon 5901 45:34.5 42:18.0 13:37 3700 2004 Brighton MI
268 Fotis,Katie 5229 47:27.2 42:25.2 13:39 3706 2009 Kalamazoo United States
269 Munson,Christine 6629 48:32.4 42:34.6 13:42 3712 2012 Howell MI
270 Miller,Laura 6526 43:58.3 42:37.9 13:43 3717 2015 Saline MI
271 Ahmed,Sara 4027 47:30.1 42:38.0 13:43 3719 2016 Royal Oak MI
272 Erickson,Anne 5096 48:07.0 42:44.0 13:45 3728 2022 Ann Arbor MI
273 Sherman,Christine 7398 47:25.0 43:30.2 14:00 3769 2056 Tecumseh United States
274 Bentley,Jennifer 4268 49:43.0 43:37.9 14:03 3776 2062 Ann Arbor MI
275 Botica,Emily 4374 48:58.3 43:40.2 14:03 3781 2065 Ypsilanti United States
276 Pritchett,Bernice 9466 49:45.3 43:47.0 14:06 3791 2074 Dexter MI
277 Moon,Mitzi 6569 48:11.7 43:47.8 14:06 3793 2076 Ypsilanit United States
278 Chapman,Kiersten 4630 45:54.6 44:35.1 14:21 3824 2097 Ypsilanti MI
279 Zurbuchen,Erin 9154 51:06.2 45:24.6 14:37 3873 2131
280 Austin,Heather 8899 51:25.6 45:38.0 14:41 3896 2149 Walled Lake MI
281 Brabbs-grenesko,Kimberly 4398 50:51.6 46:01.9 14:49 3919 2167 Midland MI
282 Wirebaugh,Jayne 8123 52:10.1 46:06.6 14:50 3924 2172 Holland MI
283 Bordeau,Debra 4366 52:09.6 46:31.1 14:58 3950 2191 Lasalle MI
284 ST. Germain,Linda 7551 53:09.2 46:38.2 15:01 3961 2197 Ann Arbor MI
285 Brugar,Kristy 4473 50:14.0 46:44.6 15:03 3969 2205 Royal Oak MI
286 Yesta,Suzanne 8187 50:14.2 46:45.1 15:03 3970 2206 Canton MI
287 Pfister,Amy 6912 50:46.5 47:27.0 15:16 4014 2240 Adrian United States
288 Heemsoth,Miranda 5585 54:38.0 47:41.9 15:21 4025 2249 Grand Blanc MI
289 Graydon,Carolyn 5426 52:07.6 47:45.5 15:22 4029 2252 Jackson United States Of Ame
290 Wilcox,Tracey 8072 1:00:35.1 47:50.0 15:24 4033 2254 Waterford MI
291 Lemerond,Elizabeth 6173 54:46.9 47:52.3 15:24 4040 2260 Clarkston MI
292 Abbott,Gwyn 4001 51:03.4 48:10.0 15:30 4052 2268 Howell MI
293 Thornton,Stephanie 7760 51:33.4 48:28.8 15:36 4069 2280 Monroe United States
294 Early,Jennifer 8386 55:07.6 48:37.8 15:39 4083 2289 East Lansing MI
295 Mccarley,Tonya 8605 52:43.7 48:43.4 15:41 4089 2294 Britton MI
296 Garner,Jill 5301 52:41.9 48:52.7 15:44 4098 2301 New Boston MI
297 Nguyen,Jennifer 6701 54:11.6 49:04.4 15:48 4110 2309 Ann Arbor MI
298 Dibartolo,Lea 4925 56:05.2 49:17.6 15:52 4124 2321 Ashland OH
299 Snedeker,Christine 9019 53:42.2 49:26.4 15:55 4139 2331 Rockford MI
300 Ryder,Corey 7249 55:04.3 49:27.0 15:55 4140 2332 Ann Arbor MI
301 Wright,Lisa 8164 56:02.6 49:28.4 15:55 4144 2335 Huntington Woods MI
302 Bassett,Liz 4191 56:04.4 50:34.7 16:17 4200 2374 Ann Arbor United States
303 Lacey,Heidi 6095 53:11.6 50:47.5 16:21 4205 2379 Fort Wayne IN
304 Morell,Toni 6583 56:39.0 51:25.9 16:33 4229 2397 Ann Arbor MI
305 Helquist,Julie 5599 57:35.1 51:27.4 16:34 4231 2399 Grass Lake United States
306 Lucas-bell,Regina 6247 53:54.6 51:48.6 16:41 4251 2411 Dexter United States
307 Majer,Anissa 6299 56:35.9 52:21.5 16:51 4274 2427 Saline MI
308 Adams,Cindy 4016 59:06.0 52:39.1 16:57 4284 2434 South Lyon MI
309 House,Judy 5708 59:00.4 52:45.5 16:59 4289 2439 Bath MI
310 Olson,Robyn 6780 1:00:11.1 53:06.1 17:05 4310 2455 Livonia MI
311 Poucher,Heather 6958 59:29.1 53:19.0 17:10 4327 2464 Ypsilanti MI
312 Deyoung,Laurie 4923 55:26.1 53:23.2 17:11 4329 2466 Grand Rapids MI
313 Nelson,Katherine 9292 1:00:28.3 54:13.9 17:27 4362 2488
314 Fraker,Elizabeth 5240 1:01:25.5 54:34.4 17:34 4379 2499 Tecumseh MI
315 Reiser,Amy 8730 1:01:10.0 55:35.0 17:53 4413 2522 Ypsilanti MI
316 Studley,Jo 7646 57:57.5 56:11.1 18:05 4430 2537 East Tawas MI
317 Zabriskie,Michelle 8214 1:03:08.2 56:25.8 18:10 4437 2543 Ypsilanti MI
318 Bandyk,Jennifer (jenny) 4165 1:09:34.5 56:41.9 18:15 4443 2548 Ypsilanti MI
319 Desentz,Sharla 4908 1:05:15.9 56:49.5 18:17 4449 2550 Medina OH
320 Walker,Jennifer 7938 1:03:37.2 57:10.7 18:24 4462 2560 Canton United States
321 Bradley,Christine 8296 1:03:37.3 57:10.7 18:24 4463 2561 Canton MI
322 Filimon,Christi 5183 57:40.2 57:12.7 18:25 4466 2563 Monroe MI
323 Chowdhury,Eve 4652 1:07:00.0 57:23.0 18:28 4472 2567 Brownstown MI
324 Kisell,Stephanie 5974 59:16.5 57:30.7 18:31 4478 2572 Eastpointe MI
325 Davis,Christy 4845 59:27.2 57:45.3 18:35 4487 2580 Jackson United States
326 Brown,Tami 4465 1:00:43.1 57:46.8 18:36 4490 2582 Westland MI
327 Chitty,Dawn 4644 1:04:43.1 58:17.5 18:46 4513 2598 Kalamazoo MI
328 Vanderwal,Bonnie 8833 1:05:02.1 58:22.0 18:47 4521 2602 Grand Rapids MI
329 King,Abigail 5950 1:02:49.9 58:26.4 18:49 4530 2607 Martin United States Of Ame
330 Aldridge,Melanie 4044 1:02:29.4 59:12.2 19:03 4547 2622 Whitmore Lake MI
331 Red Cloud,Shawna 8723 1:07:44.4 59:16.0 19:05 4549 2624 Ann Arbor MI
332 Gilliland,Beth 5356 1:05:40.1 59:34.3 19:10 4558 2630 Ann Arbor MI
333 Desentz,Erica 4906 1:08:32.5 59:41.2 19:13 4565 2636 Livonia MI
334 Robertson,Jen 7133 1:05:54.6 1:00:17.0 19:24 4586 2651 Ypsilanti MI
335 Baumann,Kristin 4200 1:07:30.3 1:00:23.4 19:26 4596 2656 Clinton MI
336 Wisniske,Kristi 8130 1:04:46.7 1:01:49.4 19:54 4608 2664 Westland MI
337 Gavin,Kathryn 5315 1:09:23.0 1:02:18.5 20:03 4614 2669 Plymouth MI
338 Cervi,Jennifer 8321 1:04:03.8 1:02:34.5 20:08 4615 2670 Ann Arbor MI
339 Knieper,Sharon 5987 1:07:20.7 1:02:36.2 20:09 4617 2672 Birch Run United States
340 Reyes,Monica 7077 1:10:29.0 1:03:19.6 20:23 4632 2683 Ypsilanti MI
341 Danbert,Jill 4822 1:07:45.5 1:04:17.7 20:42 4652 2699 Ann Arbor United States
342 Possley,Michelle 6954 1:11:52.3 1:04:46.3 20:51 4662 2706 Canton MI
343 Sirois,Teresa 7441 1:07:24.2 1:05:45.0 21:10 4681 2719 Oxford MI
344 Copp,Elizabeth 4730 1:09:02.6 1:09:02.6 22:13 4710 2738 Pinckney MI
345 Schultenover,Leigh 9011 1:09:34.3 1:09:34.3 22:24 4713 2740 Novi MI
Go To Top
40-44 Female
Overall Overall State/
Place Name Bib Gun Tag Pace Place by Sex City County
1 Oconnor,Michelle 6751 21:20.7 21:16.9 6:51 152 17 Ann Arbor MI
2 Waidley,Monica 7929 21:57.3 21:40.5 6:59 187 19 Dexter MI
3 Wankel,Sandra 9081 23:13.3 22:48.4 7:20 254 26
4 Rosen,Leisa 7175 23:53.9 23:32.8 7:35 328 42 Ann Arbor MI
5 Chatman,Dawn 8326 24:28.6 23:54.6 7:42 379 55 Ann Arbor MI
6 Stimac,Stacy 7604 24:25.1 24:13.8 7:48 429 76 Dexter MI
7 Roberts,Julie 7122 24:50.0 24:24.6 7:51 457 87 Ann Arbor United States
8 Lande-Keeling,Joanne 9418 25:10.3 24:32.8 7:54 478 91 Ann Arbor MI
9 Sheng,Cynthia 7397 25:29.2 25:07.4 8:05 574 120 Ann Arbor MI
10 Segawa,Megumi 7362 26:49.1 25:22.5 8:10 611 135 Ann Arbor U.S.A.
11 Mitchell,Marcia 6556 26:01.6 25:34.1 8:14 652 154 Dexter MI
12 Taylor,Jennifer 9074 25:53.6 25:44.4 8:17 690 166
13 Buck,Greta 4482 27:12.0 26:00.4 8:22 742 182 Canton MI
14 Burger,Vicki 4509 31:01.2 26:05.6 8:24 764 193 Coldwater United States
15 Hockstad,Gina 5668 27:39.4 26:38.8 8:35 859 235 Milford MI
16 Turner,Deb 7809 28:33.3 26:39.9 8:35 861 236 Kalamazoo United States
17 Webb,Paula 8854 26:52.7 26:43.0 8:36 873 244 Parma MI
18 Lester,Donna 6191 27:24.0 26:50.0 8:38 893 252 Chesterfield MI
19 Brown,Kristen M 4460 27:18.9 27:13.7 8:46 974 292 East Woodstock CT
20 Suliman,Christina 7664 27:59.2 27:17.2 8:47 987 297 Ypsilanti MI
21 Cueter,Kris 4784 28:04.4 27:22.0 8:49 1003 304 Troy MI
22 Dempsey,Amanda 4893 28:22.8 27:38.7 8:54 1055 328 Ann Arbor MI
23 Horan,Shana 5700 31:38.8 27:39.9 8:54 1057 329 Ann Arbor MI
24 Harris,Kimberly 5544 28:23.0 27:40.3 8:54 1058 330 Canton MI
25 Hendricks,Barb 5603 31:15.6 28:22.8 9:08 1221 420 Sterling Heights MI
26 Vanisacker,Lisa 7863 31:54.1 28:25.6 9:09 1229 426 Monroe MI
27 Aldrich,Courtney 4042 31:28.6 28:27.6 9:10 1233 429 Stockbridge MI
28 Seifert,Laura 7368 31:33.2 28:30.2 9:10 1247 436 Lambertville United States
29 Winiarski,Cynthia 8117 30:10.2 28:30.9 9:11 1252 439 Ann Arbor MI
30 Heinlein,Lori 5591 29:34.0 28:39.9 9:14 1301 466 Ann Arbor United States
31 Smyte,Karen 7512 29:30.8 28:41.0 9:14 1305 469 Ann Arbor United States
32 Fulcher,Nancy 5276 29:31.3 28:44.0 9:15 1320 478 Ann Arbor MI
33 Arnett,Marni 8894 31:07.5 28:49.2 9:17 1340 487 Ann Arbor MI
34 Behm,Denise 4239 29:22.9 28:49.2 9:17 1341 488 Dorr MI
35 Girard,Nicole 5363 29:59.3 28:53.0 9:18 1359 498 Saline MI
36 Van Stone,Cathy 7851 29:38.0 29:17.8 9:26 1443 536 Monroe Usa`
37 Petroff,Lisa 6904 32:02.6 29:18.0 9:26 1444 537 Ann Arbor United States
38 Gignac,Kristen 5346 30:24.6 29:19.0 9:26 1448 540 Ann Arbor MI
39 Lindstrom,Lori 6216 32:34.9 29:26.7 9:29 1477 550 Southfield MI
40 Ballien,Lisa 4161 32:46.0 29:36.7 9:32 1525 572 Ferndale MI
41 Sadler,Anya 7256 32:41.2 29:36.8 9:32 1526 573 Ann Arbor MI
42 Argiero,Catherine 4090 31:00.7 29:46.6 9:35 1576 605 Chelsea MI
43 Day,Cheryl 8356 31:38.7 29:48.2 9:36 1583 610 Ann Arbor MI
44 Plaunt,Sandra 6934 34:49.7 29:51.0 9:36 1605 618 Farmington Hills MI
45 Muessig,Rebecca 9431 30:27.7 29:53.5 9:37 1618 626 Clinton United States
46 Root,Angie 8745 31:15.3 29:58.5 9:39 1638 638 Grass Lake MI
47 Rupp,Jenna 7217 33:16.2 30:01.7 9:40 1649 644 Ypsilanti MI
48 Shaw,Lori 7384 31:24.6 30:02.5 9:40 1653 647 Canton MI
49 Kwasniewicz,Suzanne 8547 32:31.4 30:06.0 9:41 1659 651 Novi MI
50 Snuverink,Laura 7519 33:15.6 30:07.1 9:42 1663 653 Ann Arbor United State
51 Romans,Tracey 7163 34:20.3 30:12.3 9:43 1687 670 Brighton MI
52 Hsu,Jenny 5716 33:31.2 30:13.5 9:44 1694 674 Ann Arbor MI
53 Mcnally,Patty 6451 35:45.2 30:13.5 9:44 1695 675 Ann Arbor MI
54 Geusens,Petra 5342 33:31.1 30:13.6 9:44 1696 676 Ann Arbor MI
55 Stites,Stacey 7608 35:09.8 30:14.7 9:44 1703 682 Ann Arbor MI
56 Manu,Erika 6318 31:09.7 30:19.1 9:45 1729 699 Ann Arbor MI
57 Savalian,Kelly 9344 34:15.5 30:22.2 9:47 1741 705
58 Penski,Cindi 6878 33:13.6 30:22.5 9:47 1744 707 Holt United States
59 Rolla,Elizabeth 7160 31:47.4 30:23.8 9:47 1752 712 Ann Arbor MI
60 Bankey,Jill 8275 31:01.5 30:25.0 9:47 1764 719 Berkley MI
61 Kramer,Marnie 6044 31:55.6 30:37.3 9:51 1804 740 Wixom MI
62 Stoner,Jamie 7620 33:52.1 30:37.7 9:51 1807 742 Onsted MI
63 Simon,Beth 7433 32:33.8 30:39.1 9:52 1812 746 Ann Arbor MI
64 Martin,Susan 6341 35:39.2 30:46.7 9:54 1837 764 Ann Arbor MI
65 Gordon,Martha 5402 33:55.0 30:47.3 9:55 1839 766 Ann Arbor MI
66 Smith,Judith 7491 35:06.2 30:53.0 9:56 1858 777 Ann Arbor MI
67 Deromedi,Lori 4902 31:55.8 30:56.2 9:57 1866 781 Ann Arbor MI
68 Wisniewski,Meera 8129 34:26.9 30:57.1 9:58 1867 782 Ypsilanti United States
69 Kerska,Stefanie 8527 33:42.9 31:00.5 9:59 1884 793 Ann Arbor MI
70 Gentles,Angelin 5323 36:22.5 31:07.1 10:01 1909 804 Ypsilanti MI
71 Ritzel,Kerstin 9085 32:27.8 31:08.2 10:01 1918 811
72 O'brien,Margaret 8663 33:01.8 31:14.5 10:03 1941 824 Pinckney MI
73 Rawak,Chrissi 7034 34:00.2 31:19.8 10:05 1969 838 Ann Arbor MI
74 Stoner,Cathy 8802 33:30.9 31:21.0 10:05 1975 842 Ann Arbor Washtenaw
75 Swedlow,Deborah 7690 32:05.8 31:23.4 10:06 1983 849 Ann Arbor United States
76 Burdgick,Jennifer 4501 33:40.7 31:24.1 10:06 1988 854 Highland MI
77 Kop,Deborah 6014 36:22.7 31:24.6 10:07 1991 856 Ann Arbor U.S.A.
78 Perez,Lisa 6884 33:12.6 31:25.0 10:07 1993 857 Pinckney MI
79 Harrel-king,Tricia 8457 33:30.0 31:26.2 10:07 2001 865 Norwalk OH
80 Hallstrom,Kirsten 8945 32:30.9 31:30.7 10:09 2022 878 Ann Arbor MI
81 Langerman,Marlene 6116 34:36.6 31:32.0 10:09 2026 879 Monroe MI
82 Hoag,Meredith 5661 36:32.9 31:32.9 10:09 2034 886 Pinckney MI
83 Whaley,Shari 8032 35:05.7 31:40.8 10:12 2057 902 Grayslake IL
84 Koning-randall,Kimberly 6012 33:40.1 31:41.7 10:12 2062 907 Whitmore Lake MI
85 Lechner,Heather 6145 35:38.7 31:48.1 10:14 2089 928 Novi United States
86 Brooks,Jeanette 4442 35:49.9 31:51.0 10:15 2107 940 Dexter MI
87 Wegryn,Helena 7987 34:54.3 31:52.9 10:16 2116 946 Ann Arbor MI
88 Markham,Cathy 6325 33:23.6 31:53.8 10:16 2124 952 Brighton MI
89 Mandel,Caroline 6313 33:46.9 31:54.7 10:16 2132 954 Ann Arbor MI
90 Baird,Jean 4138 33:17.2 31:56.6 10:17 2140 958 Dexter MI
91 Nkansah-andoh,Ama 8661 32:22.2 31:56.9 10:17 2141 959 Ann Arbor MI
92 Patterson,Karyn 6854 33:36.8 31:59.3 10:18 2151 967 Farmington MI
93 Livingston,Laura 8566 33:20.9 32:08.7 10:21 2187 990 Ann Arbor MI
94 Wernette,Sherry 8020 36:32.7 32:14.7 10:23 2215 1005 Roseville MI
95 Gretkierewicz,Christina 5437 36:50.1 32:21.1 10:25 2239 1020 Ann Arbor MI
96 Rathjen,Darcy 7030 33:48.3 32:21.2 10:25 2243 1021 Ann Arbor MI
97 Gengler,Charolette 5322 35:36.0 32:21.9 10:25 2245 1022 Ann Arbor MI
98 Davis,Betsy 4841 35:32.3 32:27.2 10:27 2265 1037 Ann Arbor MI
99 Kracht,Patricia 6041 37:08.4 32:32.0 10:28 2280 1045 Ann Arbor MI
100 Agranoff,Julie 4026 36:45.5 32:34.7 10:29 2295 1055 Ann Arbor MI
101 Crowfoot,Dara 4777 36:46.4 32:36.0 10:30 2303 1063 Chicago IL
102 Olson,Denise 6775 33:47.0 32:38.6 10:30 2319 1072 Ypsilanti MI
103 Young-schmidt,Susan 8207 35:03.0 32:44.8 10:32 2348 1090 Ann Arbor MI
104 Sconochia,Stephanie 7344 37:27.7 32:45.2 10:33 2351 1092 Monroe MI
105 Taft,Christina 7704 37:27.7 32:45.3 10:33 2352 1093 Monroe MI
106 Iwashyna,Stefanie 5766 36:43.1 32:49.4 10:34 2373 1105 Ann Arbor MI
107 Dutta,Carolyn 5024 36:43.0 32:49.4 10:34 2374 1106 Ann Arbor MI
108 Gerathy,Sonya 5332 37:08.0 32:49.5 10:34 2375 1107 Highland MI
109 Bova,Gina 4385 38:41.7 33:24.1 10:45 2493 1185 Clinton Township MI
110 Piccirilli,Angela 1222 38:43.7 33:25.4 10:45 2500 1189 Macomb MI
111 Shaw,Kathy 7383 38:05.1 33:27.8 10:46 2511 1196 Ann Arbor MI
112 Brown,Lisa 4461 37:27.8 33:33.2 10:48 2529 1209 Manchester MI
113 Kubek,Anne 6067 37:28.4 33:34.0 10:48 2533 1212 Ann Arbor United States Of Ame
114 Provalenko,Christine 6978 37:11.9 33:37.1 10:49 2543 1216 Livonia MI
115 Heams,Stacey 5578 37:17.7 33:42.7 10:51 2565 1229 Saline MI
116 Galardi,Staci 8416 37:46.0 33:42.7 10:51 2566 1230 South Lyon MI
117 Hughes,Kimberly 5734 33:51.0 33:51.0 10:54 2597 1250 Ann Arbor United States
118 Huehn,Maria 9166 38:20.0 33:52.5 10:54 2608 1256
119 Wicklund,Jocelyne 8063 38:34.9 33:59.0 10:56 2626 1269 Ann Arbor MI
120 Redeker,Caroline 7045 36:14.1 34:01.2 10:57 2635 1278 South Lyon MI
121 Miles,Kelly 6511 36:16.6 34:05.6 10:58 2647 1289 Ann Arbor MI
122 Schroeder,Jill 7330 37:39.5 34:08.9 10:59 2661 1300 Ida MI
123 Whitmarsh,Susan 8056 38:01.7 34:15.2 11:01 2679 1310 Chelsea United States
124 Siegler,Cathie 7422 40:04.2 34:22.2 11:04 2701 1327 Canton MI
125 Martin,Kimberly 9093 35:37.3 34:28.0 11:06 2723 1339
126 Gronda,Yvette 5450 35:31.3 34:30.6 11:06 2732 1347 Rockwood MI
127 Buzinkai,Lora 4545 37:55.2 34:31.2 11:07 2734 1349
128 Korona,Kelley 6021 37:51.5 34:31.9 11:07 2737 1351 Canton MI
129 Goins,Nina 5376 38:03.7 34:34.9 11:08 2756 1365 Monroe MI
130 Vitale,Sue 7906 34:54.3 34:35.2 11:08 2757 1366 Monroe MI
131 Ladd,Jennifer 6100 36:05.3 34:37.6 11:09 2762 1370 Onsted MI
132 Seidleck,Marianne 7366 40:05.2 34:44.9 11:11 2785 1385 Dexter United States
133 Mcguire,Kristin 8611 36:27.4 34:45.8 11:11 2789 1388 Ann Arbor MI
134 Kulpa,Deanna 6077 38:33.4 34:48.5 11:12 2799 1395 Ann Arbor MI
135 Freiman,Catherine 5255 40:51.4 34:48.9 11:12 2801 1397 Ann Arbor MI
136 Schafer,Kim 7298 40:31.0 34:52.1 11:13 2806 1401 Jackson MI
137 Garner,Lori 5302 38:43.4 34:52.8 11:14 2808 1402 Ann Arbor MI
138 Loughman,Colleen 6239 37:04.8 34:53.6 11:14 2813 1405 Saline MI
139 Turner,Darcy 7808 37:14.1 34:55.3 11:14 2821 1411 Whitmore Lake MI
140 Fifer,Carly 5182 41:33.8 34:57.3 11:15 2825 1415 Ann Arbor MI
141 Hilditch,Gina 5637 37:02.4 34:59.3 11:16 2829 1419 Canton MI
142 Kim,Cathy 5947 37:59.7 34:59.8 11:16 2831 1420 Ann Arbor MI
143 Zieske,Sue 8239 36:56.4 35:05.2 11:18 2844 1428 Linden MI
144 Vanneste,Karen 7866 38:58.0 35:07.8 11:18 2848 1430 Chelsea MI
145 Derosia,Maria 8925 37:59.9 35:09.6 11:19 2850 1431 Grass Lake MI
146 Vetor,Karen 7896 39:42.1 35:14.9 11:21 2861 1440 Ypsilanti MI
147 Goh,Keow Mei 5375 40:26.8 35:21.6 11:23 2889 1457 Ann Arbor MI
148 Judge,Kathryn 5856 38:30.8 35:29.2 11:25 2908 1468 Bloomfield Hills MI
149 Lee,Nguk 9420 37:50.8 35:30.5 11:26 2915 1472 Ann Arbor MI
150 Stocking,Alena 7610 38:22.2 35:31.9 11:26 2919 1475 Ann Arbor MI
151 Doyle,Kerry 4985 39:03.5 35:33.7 11:27 2927 1482 Northville MI
152 Ludema,Karen 6249 42:33.9 35:38.0 11:28 2956 1501 Ann Arbor MI
153 Chisnell,Lani 8917 38:53.2 35:40.5 11:29 2964 1507 Ypsilanti MI
154 Thomas,Gina 7741 36:36.7 35:46.7 11:31 2981 1520 Ypsilanti MI
155 Platt,Heather 9003 40:50.7 35:51.9 11:33 2995 1531 Chelsea MI
156 Sneyd,Joy 9275 38:54.7 35:52.7 11:33 2999 1533
157 Nordin,Jennifer 6729 39:08.9 35:54.3 11:33 3001 1535 Plymouth United States
158 Dorman,Shellie 4969 35:55.9 35:55.9 11:34 3005 1539 Scotts MI
159 Simon,Lisa 7435 41:31.2 36:02.3 11:36 3023 1550 Ann Arbor MI
160 Davidson,Eileen 4836 41:02.3 36:05.0 11:37 3031 1557 Dexter MI
161 Otero,Danielle 6804 39:27.5 36:21.7 11:42 3065 1576 Grand Blanc MI
162 Foster,Katie 5223 42:10.1 36:22.7 11:43 3067 1578 Ann Arbor MI
163 Frei,Nicole 5254 40:19.9 36:30.8 11:45 3083 1587 Ann Arbor MI
164 Paster,Jodie 6842 37:13.8 36:44.2 11:49 3120 1610 Adrian MI
165 Van Buren,Beth 7845 37:14.2 36:44.8 11:50 3122 1612 Blissfield MI
166 Graham,Christine 5417 42:04.1 36:45.0 11:50 3123 1613 Brighton MI
167 Woodward,Sherri 8156 42:41.2 36:53.2 11:52 3134 1620 Brighton MI
168 Stilber,Julie 7600 40:40.6 37:04.2 11:56 3162 1637 Dexter United States
169 Carreon,Carrie 9412 42:12.2 37:05.6 11:56 3168 1641 Ann Arbor MI
170 Cowan,Anne 4750 41:58.2 37:12.0 11:58 3184 1653 Ann Arbor MI
171 Cavanaugh,Angela 4610 40:38.0 37:20.6 12:01 3204 1667 Chelsea Washtenaw
172 Hempel,Amy 5600 42:10.5 37:22.7 12:02 3207 1669 Ida MI
173 Tumbarello,Julie 7805 38:46.5 37:24.0 12:02 3212 1673 Ypsilanti MI
174 Waddington,Kari 7918 43:22.1 37:41.7 12:08 3249 1695 Dexter United States
175 Beuckelaere,Jacqueline 4298 42:50.7 37:44.7 12:09 3252 1696 Dearborn MI
176 Smith,Leslie Lynn 7496 45:10.7 37:57.4 12:13 3274 1710 Linden MI
177 Lynch,Julie 6268 39:32.8 38:01.4 12:14 3280 1716 Whitmore Lake MI
178 Wolf,Darlene 8136 40:51.4 38:05.2 12:16 3289 1722 Richland MI
179 Kallas,Kimberly 9185 40:32.5 38:08.3 12:17 3295 1726
180 Yallop,Wendy 8172 39:36.9 38:09.1 12:17 3303 1732 Ann Arbor MI
181 Buszka,Shelly 4537 39:51.9 38:14.4 12:18 3319 1740 Farmington Hills MI
182 Haight,Michelle 5496 39:26.1 38:26.9 12:23 3361 1768 Troy MI
183 Korona,Jennie 6020 41:47.9 38:27.3 12:23 3364 1770 Canton MI
184 Cerimele,Wendy 4614 41:29.6 38:37.7 12:26 3385 1783 Saline MI
185 Zambeck,Laura 8222 43:16.6 38:40.5 12:27 3391 1786 Ypsilanti MI
186 Weinstein,Elisabeth 7994 39:50.2 38:41.9 12:27 3398 1793 Ann Arbor MI
187 Davis,Carol 4843 44:01.5 38:59.8 12:33 3422 1811 Ann Arbor MI
188 Tucker,Jamie 7802 43:41.5 39:12.0 12:37 3439 1823 Chelsea MI
189 Osterman,Wendy 8674 43:45.9 39:30.2 12:43 3467 1843 Clarkston MI
190 Gallagher,Christine 5288 43:00.5 39:31.7 12:43 3472 1846 Whitmore Lake MI
191 Smith,Katharine 7494 44:21.8 39:43.9 12:47 3497 1862 Birmingham United States
192 Stanley,Sunday 7563 43:34.2 39:48.1 12:49 3508 1870 Oakland CA
193 Piekman,Susanne 9359 40:29.6 39:52.0 12:50 3511 1872
194 Reyes,Kimberly 7076 45:44.3 39:54.1 12:51 3514 1874 Cincinnati OH
195 Holcombe,Stacie 5681 42:33.0 40:00.8 12:53 3530 1886 Ypsilanti MI
196 Katz,Ellen 8521 41:50.2 40:15.2 12:57 3549 1899 Ann Arbor MI
197 Jordan,Julie 5849 45:37.6 40:40.9 13:06 3577 1922 Newberry MI
198 Millunchick,Joanna 6541 45:20.4 40:42.1 13:06 3579 1924 Ann Arbor MI
199 Campbell,Karen 8312 44:19.4 40:46.1 13:07 3589 1930 Pinckney United States
200 Walter,Sandy 7950 41:53.7 40:49.7 13:08 3597 1935 Ann Arbor MI
201 Glahn,Peggy 5365 45:00.3 40:52.4 13:09 3603 1938 Ann Arbor MI
202 Cohn,Amy 4688 47:42.0 41:03.8 13:13 3618 1947 Ann Arbor MI
203 Shannon,Lara 8781 46:59.8 41:35.6 13:23 3652 1969 Ann Arbor MI
204 Vonwihl,Jodi 7915 45:27.4 41:50.2 13:28 3674 1985 West Bloomfield MI
205 Cekola,Kim 8320 47:45.2 41:50.7 13:28 3676 1986 Ann Arbor MI
206 Rust,Beth 7231 46:19.7 42:00.1 13:31 3682 1991 Ypsilanti MI
207 Crane,Nancy 8348 47:11.6 42:15.7 13:36 3696 2001 West Bloomfield MI
208 Burk,Maricris 4511 46:12.6 42:15.9 13:36 3697 2002 Canton MI
209 Behen,Rosalie 4238 47:46.3 42:25.6 13:39 3707 2010 Ypsilanti MI
210 Isken,Nancy 5762 46:22.1 42:43.1 13:45 3726 2020 Rochester Hills United States
211 Haddas,Karen 5487 46:12.0 42:57.8 13:50 3741 2035 Saline MI
212 Alberto,Sandra 4036 46:20.8 43:03.6 13:52 3747 2039 Swartz Creek MI
213 Boote,Beth 4363 47:13.2 43:09.7 13:54 3752 2043 Gregory MI
214 Doan,Miki 8373 47:13.1 43:10.1 13:54 3753 2044 Gregory MI
215 Brennan,Ann 4422 48:34.8 43:18.3 13:56 3759 2048 Ann Arbor MI
216 Loose,Cathy 6233 48:13.9 43:28.2 13:59 3764 2052 Dearborn Heights MI
217 Delles,Tammie 4885 47:52.9 43:43.8 14:04 3785 2069 Ann Arbor MI
218 Roeser-nordling,Kathy 7156 48:21.3 43:51.1 14:07 3798 2079 Ann Arbor MI
219 Chang,Louise 4623 48:22.6 43:52.3 14:07 3799 2080 Ann Arbor United States
220 Pebley,Cristey 6866 49:36.0 43:53.9 14:08 3802 2081 Howell MI
221 Douglas,Jodi 4974 49:43.1 43:54.8 14:08 3803 2082 Ann Arbor MI
222 Flanders,Juliet 8402 44:23.7 44:23.7 14:17 3817 2093 Ann Arbor MI
223 Monica,Kimberly 6563 47:21.4 44:52.4 14:27 3841 2109 Grass Lake United States
224 Wilkie,Kelly 9104 48:46.1 44:58.9 14:29 3847 2113
225 Dawn,Paula 4863 49:45.6 45:10.2 14:32 3861 2122 Monroe MI
226 Babo,Angie 4117 46:49.0 45:30.0 14:39 3882 2140 Ypsilanti MI
227 Vanzant,Caren 8834 51:27.1 45:31.1 14:39 3884 2141 Commerce TwP. MI
228 Furlong,Annmarie 5279 50:42.4 45:31.6 14:39 3886 2143 Ann Arbor United States
229 Magnusdottir,Geirlang 8976 45:49.2 45:35.7 14:40 3889 2145 Ann Arbor MI
230 Odtohan,Lea 6759 50:17.0 45:38.3 14:41 3898 2150 Royal Oak MI
231 Fischer,Mary Jo 5187 50:34.2 45:43.6 14:43 3906 2157 Metamora OH
232 Harris,Michelle 5546 51:09.2 46:07.5 14:51 3926 2174 Ypsilanti MI
233 Chung,Chonghui 8332 49:59.4 46:13.6 14:53 3936 2182 Canton MI
234 Davidson,Beverly 4834 51:44.0 46:34.0 14:59 3955 2193 Ann Arbor MI
235 Stupple,Kelly 7653 51:43.9 46:34.1 14:59 3956 2194 Ann Arbor United States
236 Pienta,Amy 6922 50:06.5 46:41.6 15:02 3965 2201 Ann Arbor MI
237 Straub,Rita 7630 49:23.5 46:48.4 15:04 3972 2208 New Boston Wayne
238 Werner,Rebecca 8018 49:23.6 46:49.4 15:04 3975 2209 Wixom MI
239 Young,Jennifer 8198 48:35.2 46:51.0 15:05 3976 2210 Ypsilanti MI
240 Mahmud,Kelly 6294 54:58.3 47:01.2 15:08 3983 2215 Saline MI
241 Bawardi,Rula 4202 49:56.0 47:05.0 15:09 3984 2216 Ann Arbor MI
242 Smith,Aimee 7474 51:54.9 47:09.1 15:11 3987 2219 Ann Arbor MI
243 Lemmen,Jane 6175 52:48.5 47:19.9 15:14 4000 2230 Holland MI
244 Butler,Stacie 4543 51:26.2 47:20.1 15:14 4002 2231 Ann Arbor MI
245 Sutch,Laurie 7675 51:26.4 47:20.5 15:14 4004 2232 Ann Arbor MI
246 Gunn,Valerie 5475 53:49.7 47:30.9 15:18 4019 2243 Ida United States
247 Kennedy-ashe,Jodi 5926 49:54.7 47:32.0 15:18 4020 2244 Chelsea MI
248 Simonelli,Tabatha 7436 49:54.9 47:32.1 15:18 4021 2245 Brighton MI
249 Kummet,Kari 6085 52:45.9 48:06.0 15:29 4046 2264 Ypsilanti MI
250 Kirby,Heidi 5963 48:47.5 48:12.6 15:31 4058 2272 Jackson MI
251 Niess May,Barbara 9107 52:57.4 48:18.0 15:33 4060 2274
252 Kroll,Jeri Lea 6062 52:41.6 48:52.2 15:44 4096 2299 Brighton MI
253 Brenny,Amy 4424 55:05.4 49:01.5 15:47 4107 2308 Forest Lake MN
254 Charow,Lynda 4634 52:54.1 49:12.8 15:50 4118 2316 Saint Clair Shores MI
255 Hoeft,Leslie 5672 51:37.6 49:12.9 15:50 4119 2317 Whitmore Lake United States
256 Leonard,Julie 6185 54:21.8 49:19.6 15:53 4126 2322 Ann Arbor MI
257 Henstock,Jennifer 8467 50:16.4 49:22.2 15:53 4132 2325 South Lyon U. S.
258 Ramsay,Lisa 7020 56:09.5 49:39.6 15:59 4150 2339 Livonia MI
259 Rogosch,Danielle 8739 50:57.4 49:58.7 16:05 4170 2354 Westland MI
260 Zonderman,Jennifer 8248 53:04.4 50:18.6 16:12 4186 2365 Westwood United States
261 Woodby,Tammy 9303 52:14.0 50:54.2 16:23 4206 2380
262 Jenkins,Simone 8493 57:31.4 51:20.9 16:32 4227 2395 Ann Arbor MI
263 Barnes,Darla 4178 56:40.1 51:29.0 16:34 4232 2400 Dexter MI
264 Wilson,Althea 9040 54:20.3 51:51.6 16:42 4254 2413 Ypsilanti MI
265 Thomas,Andrea 7738 1:03:28.8 52:16.7 16:50 4271 2424 Ann Arbor MI
266 Frost,April 8412 54:25.5 52:31.1 16:54 4279 2431 Pinckney MI
267 Hoffman,Jill 8950 55:57.5 53:03.1 17:05 4307 2452 Davison MI
268 Schumer,Alison 9339 55:57.1 53:03.2 17:05 4308 2453
269 Sidebottom,Patricia 7417 58:12.4 53:03.3 17:05 4309 2454 Toronto Canada
270 Zale,Karen 8221 57:42.1 54:00.4 17:23 4349 2477 Livonia MI
271 Rau,Kelly 8722 1:01:19.3 54:33.1 17:33 4377 2497 Pinckney MI
272 Alton,Denise 4057 1:01:22.2 54:49.3 17:39 4385 2502 Ypsilanti MI
273 Adams,Susan 4023 1:00:38.5 55:08.1 17:45 4396 2510 Lincoln Park MI
274 Laginess,Elizabeth 8968 1:01:38.7 55:52.1 17:59 4423 2531 Rochester Hills MI
275 Aiken,Naomi 4028 59:16.3 57:30.3 18:31 4477 2571 Eastpointe MI
276 Hall,Amber 5499 1:04:36.5 57:42.8 18:35 4483 2577 Swartz Creek MI
277 Hartley,Annette 5553 1:00:43.2 57:47.2 18:36 4491 2583 Westland MI
278 Luke,Cathy 6252 1:05:34.7 58:20.6 18:47 4519 2601 Howell MI
279 Gengler,Karen 8420 1:05:08.6 58:28.2 18:49 4531 2608 Wyoming MI
280 Belbeck,Lisa 4242 1:02:25.0 59:12.1 19:03 4546 2621 Milan MI
281 Janssen,Andrea 5789 1:00:03.0 1:00:03.0 19:20 4575 2643 Ann Arbor MI
282 Vecziedins,Kerrie 7882 1:05:45.3 1:00:15.8 19:24 4585 2650 Caledonia MI
283 Sefton,Robin 7360 1:06:26.3 1:00:19.3 19:25 4589 2652 Ann Arbor MI
284 Champion,Lynley 9358 1:04:37.7 1:01:15.0 19:43 4602 2660
285 Guillou,Karin 5464 1:07:26.5 1:01:43.4 19:52 4607 2663 Canton MI
286 Mathers,Laurel 6356 1:01:50.4 1:01:50.4 19:54 4609 2665 South Lyon MI
287 Barnaby,Jennifer 8276 1:09:51.2 1:02:51.8 20:14 4621 2676 Jackson MI
288 Lovejoy,Julia 6241 1:06:28.1 1:03:00.5 20:17 4623 2677 Ypsilanti MI
289 Hardimon,Michele 5530 1:04:25.7 1:03:01.5 20:17 4624 2678 Swartz Creek MI
290 Perry,Cassandra 6894 1:07:23.1 1:05:43.6 21:09 4679 2717 Oxford MI
291 Hall,Ida 5501 1:13:31.0 1:07:19.7 21:40 4688 2724 Saint Louis MI
292 Jefferson,Valerie 5802 1:15:54.3 1:08:38.0 22:05 4701 2730 Auburn Hills Oakland
293 Todd,Cewanda 7770 1:15:54.9 1:08:39.3 22:06 4702 2731 Pontiac United States
Go To Top
45-49 Female
Overall Overall State/
Place Name Bib Gun Tag Pace Place by Sex City County
1 Vidovic,Wendy 8839 23:38.9 23:29.0 7:33 321 38 Whitmore Lake MI
2 Schemanski,Mikkie 7304 23:49.0 23:30.8 7:34 325 41 Petoskey MI
3 Gleichman,Hillary 5369 24:28.1 24:07.4 7:46 412 70 Saline MI
4 Ammerman,Marci 4062 25:24.2 25:04.2 8:04 569 118 Ann Arbor MI
5 Bashshur,Noura 4189 26:25.5 25:34.8 8:14 656 156 Ann Arbor MI
6 Sauter,Cecilia 8767 28:11.3 25:46.0 8:18 692 167 Ann Arbor MI
7 Guilbault,Dianne 5463 26:24.1 26:00.1 8:22 741 181 Ann Arbor MI
8 Reid,Janet 9005 27:57.2 26:00.4 8:22 743 183 Ann Arbor MI
9 Martin,Donna 6337 27:58.0 26:27.3 8:31 821 215 Ann Arbor MI
10 Davidson,Maryl 4837 26:52.2 26:30.0 8:32 826 218 Saint Clair Shores MI
11 Hewett,Jan 5622 28:22.2 26:32.9 8:33 838 223 Dexter MI
12 Koerschner,Michelle 6003 27:49.7 26:48.2 8:38 887 249 Ann Arbor MI
13 Zawadzki,Lisa 8227 27:56.9 27:16.0 8:47 982 295 Saline MI
14 Zestos,Maria 8235 28:31.7 27:27.7 8:50 1025 316 Northville MI
15 Guindon,Arlene 5465 28:32.2 27:42.2 8:55 1066 333 Ann Arbor MI
16 Pool,Jennifer 6949 28:48.3 27:50.9 8:58 1093 345 Ann Arbor MI
17 White,Christie 8037 29:41.2 27:53.6 8:59 1106 357 Grand Blanc MI
18 Mueting,Mary 6613 28:56.1 27:53.7 8:59 1107 358 Dexter MI
19 Stults,Cathy 7650 29:11.9 28:16.0 9:06 1198 408 Richland United States
20 Keiles,Stephanie 5902 29:59.9 28:16.1 9:06 1199 409 Ann Arbor MI
21 Smith,Gloria ( Lita) 7484 30:50.3 28:21.4 9:08 1217 418 Monroe MI
22 Lymburner,Sandra 8581 29:11.9 28:23.1 9:08 1222 421 Ann Arbor United States
23 Walker,Kristina 7940 29:49.9 28:30.4 9:11 1249 437 Ypsilanti MI
24 Cotner,Allyson 4747 31:32.3 28:34.7 9:12 1279 453 Ann Arbor MI
25 Mackenzie,Jan 6281 31:32.7 28:34.7 9:12 1281 454 Ann Arbor MI
26 Olsen,Linda 6773 29:40.5 28:36.8 9:13 1291 459 Ann Arbor MI
27 Miller,Lisa 6527 32:16.1 28:43.1 9:15 1316 476 Saline MI
28 Pizzo,Debbie 1963 29:54.3 28:49.7 9:17 1342 489 Tipton MI
29 Corcoran,Susan 8347 29:56.9 28:53.5 9:18 1364 501 Saline MI
30 Hornyak,Annamaria 5703 33:14.0 28:58.5 9:20 1386 512 Ann Arbor MI
31 Cicala,Teresa 4665 29:55.1 29:16.0 9:25 1433 531 Livonia MI
32 Kemeter,Julie 5918 30:41.2 29:27.2 9:29 1483 553 Brighton MI
33 Talsma,Fran 9058 30:24.4 29:40.4 9:33 1553 596
34 Nicoli,Sarah 6710 30:50.6 29:52.9 9:37 1613 622 Ann Arbor MI
35 Hagedorn,Katrina 5493 33:14.8 29:55.8 9:38 1629 632 Ann Arbor MI
36 Hubbard,Deb 9452 33:31.2 30:03.1 9:40 1655 648 Chelsea MI
37 Moffitt,Rosalind 6561 34:04.8 30:07.4 9:42 1664 654 Ypsilanti MI
38 Rosen,Gayle 7174 32:22.6 30:08.2 9:42 1670 657 Ann Arbor MI
39 Chaivre,Eileen 4617 30:38.8 30:12.8 9:43 1691 673 Belleville MI
40 Peitsch,Barbara 8687 31:50.7 30:18.0 9:45 1723 695 Ann Arbor MI
41 Przybylski,Beth 6982 31:14.4 30:27.1 9:48 1774 722 Grand Blanc MI
42 Dettling,Renee 4912 32:31.6 30:38.6 9:52 1809 743 Manchester MI
43 Mooney,Carol 6571 32:35.7 30:48.7 9:55 1842 768 Toledo OH
44 Guise,Jamie 5471 32:01.5 31:01.8 9:59 1890 796 Dexter United States
45 Oswald,Julia 8676 35:42.4 31:07.7 10:01 1913 808 Ann Arbor U.S.A.
46 Telgen,Diane 7724 34:26.5 31:10.6 10:02 1926 816 Canton United States
47 Baker,Dreama 4146 32:19.8 31:19.6 10:05 1966 835 Dexter MI
48 Fitch,Julie 5198 37:17.7 31:20.3 10:05 1972 839 Ann Arbor MI
49 Thurn,Kathleen 7766 33:30.7 31:37.0 10:11 2043 890 Plymouth MI
50 Furney,Starla 5283 35:58.6 31:41.0 10:12 2058 903 Battle Creek MI
51 Wachtell,Jill 7916 34:46.1 31:43.1 10:13 2075 914 Lambertville MI
52 Hage,Gloria 5492 34:51.8 31:44.7 10:13 2077 916 Northville MI
53 Muzik,Jessica 6652 32:23.0 31:47.6 10:14 2085 924 Ann Arbor MI
54 Dixon,Marjorie 4946 34:50.9 31:49.6 10:15 2096 933 Ann Arbor MI
55 Perpich,Liz 6889 33:47.0 31:54.7 10:16 2134 955 Ann Arbor United States
56 Milske,Kathy 6543 34:59.7 31:55.9 10:17 2138 957 Ann Arbor MI
57 Siegel,Karen 9159 35:36.2 31:59.0 10:18 2150 966
58 Coral,Sharon 4731 33:33.4 32:16.7 10:23 2224 1012 South Lyon MI
59 Caulfield,Sueann 4609 33:07.0 32:23.6 10:26 2251 1027 Ann Arbor MI
60 Moore,Michelle 6579 36:53.4 32:35.2 10:29 2299 1059 Lansing MI
61 Cornelius,Debbie 4734 34:15.6 32:38.2 10:30 2314 1069 Pinckney MI
62 Lulko,Shelly 6255 34:38.8 32:38.6 10:30 2318 1071 Canton MI
63 Koester,Robin 8539 36:44.8 32:57.1 10:36 2404 1128 Center Line MI
64 Hall,Lori 5507 34:13.6 32:59.5 10:37 2408 1131 Ann Arbor MI
65 Johnson,Lisa 8501 34:09.7 33:05.1 10:39 2430 1146 Ann Arbor MI
66 Schrot,Annabel 7333 34:25.2 33:07.9 10:40 2443 1158 Jackson MI
67 Colbert,Laura 4693 37:26.2 33:26.4 10:46 2505 1191 Shelby TwP. MI
68 Strickler,Kristine 7636 36:48.6 33:35.4 10:49 2537 1213 Lapeer MI
69 Melampy,Elizabeth 6466 36:52.6 33:36.9 10:49 2542 1215 Ann Arbor MI
70 Hough,Karolee 8476 35:39.3 33:43.1 10:51 2570 1234 Ann Arbor MI
71 Sovitch,Patricia 7536 36:52.9 33:49.3 10:53 2588 1245 Saline MI
72 Schroeder,Kathy 7331 34:30.8 33:52.0 10:54 2605 1255 Holt MI
73 Smith,Leslie 7495 35:59.8 33:56.9 10:56 2621 1265 Ann Arbor MI
74 White,Kit 8041 38:01.8 34:00.0 10:57 2629 1272 Ann Arbor MI
75 Campbell,Robin 4565 36:36.2 34:05.4 10:58 2646 1288 Addison United States
76 Nichols,Fran 6705 37:38.7 34:08.0 10:59 2654 1293 Petersburg MI
77 Drier,Shirley 4999 36:58.8 34:18.0 11:02 2685 1313 Decatur IN
78 Bez,Ilene 4301 38:46.0 34:19.8 11:03 2695 1321 Farmington Hills MI
79 Goldberg,Caren 8432 36:52.5 34:30.0 11:06 2729 1345 Ann Arbor MI
80 Langan,Therese 6114 36:25.6 34:30.5 11:06 2731 1346 Ann Arbor MI
81 Freeman,Stefany 5252 38:57.8 34:31.0 11:07 2733 1348 Bloomfield Hills MI
82 Hicks,D'anne 5631 38:57.8 34:34.3 11:08 2755 1364 Fraser United States
83 Hunt,Oneita 5741 37:49.6 34:36.0 11:08 2758 1367 Belleville MI
84 Shull,Sandy 7410 36:23.7 34:43.3 11:11 2780 1382 Ligonier IN
85 Miel,Rhoda 6506 39:05.9 34:53.4 11:14 2812 1404 Ann Arbor MI
86 Olszewski,Amy 6782 38:11.1 34:55.3 11:14 2822 1412 Ann Arbor MI
87 Heumann,Lynn 5621 39:37.3 35:10.1 11:19 2851 1432 Ann Arbor MI
88 Cataldo,Sheri 8319 37:16.4 35:14.5 11:21 2859 1438 W. Bloomfield MI
89 Sniegowski,Linda 7518 38:11.6 35:29.2 11:25 2907 1467 Cadillac MI
90 Jackson,Anne 8953 38:15.7 35:30.0 11:26 2912 1470 Ann Arbor MI
91 Batchelor,Karin 8282 37:33.9 35:31.8 11:26 2918 1474 Hillsdale MI
92 Albano,Nancy 4035 38:42.0 35:36.9 11:28 2946 1494 Monroe MI
93 Hurley,Ann 8482 39:42.7 35:39.8 11:29 2963 1506 South Lyon MI
94 Smith,Sherry 7506 40:43.4 35:49.1 11:32 2990 1527 Willis MI
95 Rosol,Susan 7180 40:52.8 35:49.3 11:32 2992 1529 Milford MI
96 Sutter,Denise 7676 36:22.4 35:51.5 11:32 2994 1530 Ann Arbor United States
97 Wolfe,Beverly 8871 40:54.5 36:03.9 11:36 3028 1554 Saline MI
98 Begeman,Kate 4234 40:09.4 36:26.2 11:44 3072 1581 Ann Arbor MI
99 Gonzalez,Madeline 9462 37:51.5 36:29.9 11:45 3078 1585
100 Hodges,Patricia 5671 41:25.6 36:49.1 11:51 3127 1616 Ann Arbor MI
101 Rusher,Kelly 7220 38:22.7 36:56.9 11:54 3144 1625 Ann Arbor MI
102 Demeuse,Vicki 4892 41:51.3 36:57.9 11:54 3150 1631 Howell MI
103 Swanson,Sherri 7688 40:41.5 37:05.6 11:56 3167 1640 Saline MI
104 Bridges,Susan 8904 41:35.0 37:17.3 12:00 3197 1662 Chesaning MI
105 Massoudi,Roya 8980 39:20.4 37:23.7 12:02 3211 1672 Dexter United States
106 Davis-kean,Pam 4860 43:10.4 37:45.3 12:09 3253 1697 Ann Arbor MI
107 Levenstein,Margaret 6193 41:00.7 37:49.4 12:10 3262 1703 Ann Arbor MI
108 Michels,Kallie 6498 42:17.5 37:51.9 12:11 3267 1706 Plymouth MI
109 Herring- Kittelberge,Tammy 5613 39:36.9 38:08.4 12:17 3296 1727 ST. Thomas Canada
110 Siegel,Sandra 9016 39:35.9 38:08.8 12:17 3298 1728 Woodhaven MI
111 Christensen,Katherine 4654 43:42.1 38:14.1 12:18 3318 1739 North Baltimore OH
112 Mozdzierz,Trish 6606 42:24.7 38:17.6 12:20 3329 1746 Brighton MI
113 King,Nancy 5956 42:47.1 38:33.2 12:25 3374 1777 Ann Arbor MI
114 Perry-mason,Gail 8995 45:49.9 38:51.8 12:31 3411 1802 Grosse Pointe Park MI
115 Cornellier,Maria 4740 40:42.2 39:05.0 12:35 3431 1816 Novi U.S.A.
116 Petronio,Diane 6905 43:22.4 39:06.5 12:35 3433 1818 Brighton MI
117 Yamamoto,Yoshiko 8173 43:54.1 39:16.0 12:38 3447 1830 Novi Oakland
118 Dominguez,Kathryn 4956 41:17.8 39:22.4 12:40 3453 1832 Ann Arbor MI
119 Ellsworth,Jennifer 5079 42:33.6 39:27.6 12:42 3464 1840 Saline MI
120 Romero,Jan 7166 41:17.5 39:36.4 12:45 3485 1854 Ann Arbor MI
121 Duda,Erin 9442 43:21.4 39:38.5 12:46 3488 1857 Commerce United States
122 Verklan,Shannon 7891 42:48.9 40:12.9 12:57 3546 1897 Plymouth MI
123 Dombi,Laurie 4954 44:41.8 40:13.1 12:57 3547 1898 Oregon OH
124 Castle,Sandy 4603 43:27.1 40:23.1 13:00 3553 1903 Ypsilanti MI
125 Moss,Elizabeth 6604 45:21.4 40:25.0 13:01 3556 1906 Ann Arbor MI
126 Mosher,Karen 6602 44:03.1 40:26.0 13:01 3557 1907 Ann Arbor MI
127 Jodoin,Christine 5813 46:09.5 40:28.2 13:02 3559 1909 Lansing United States Of Ame
128 Basch,Rena 8280 41:29.8 40:34.2 13:03 3565 1913 Ann Arbor MI
129 Morelli,Christine 6584 45:15.1 40:39.9 13:05 3573 1919 Monroe MI
130 Stoops,Lucy 7621 45:51.2 40:52.8 13:09 3604 1939 Ann Arbor MI
131 Hayes,Tally 5575 44:15.2 41:36.4 13:24 3655 1971 Ann Arbor MI
132 Truesdell,Denise 7794 46:01.4 41:38.7 13:24 3658 1973 Chelsea MI
133 Emmert,Patty 5085 43:18.9 41:42.0 13:25 3659 1974 Detroit MI
134 Converso-baran,Kimber 4716 46:57.1 42:36.8 13:43 3714 2013 Ypsilanti MI
135 Deloach,Sherry 4886 46:57.2 42:37.0 13:43 3716 2014 Ypsilanti U.S.
136 Trapp,Beth 8820 48:04.9 42:47.1 13:46 3730 2024 O MI
137 Theobald,Candy 7737 47:57.7 43:03.9 13:52 3748 2040 Linden MI
138 Yang,Karen 8174 48:55.1 43:43.2 14:04 3784 2068 Ann Arbor MI
139 Williams,Elaine 8093 48:45.8 44:57.6 14:28 3845 2111 Saline MI
140 Gruszczynski,Phyllis 5458 48:13.0 45:17.1 14:35 3866 2124 Plymouth MI
141 Kohrman,Amy 8540 48:17.7 45:27.9 14:38 3876 2134 Ann Arbor MI
142 Elka,Patricia 5068 46:50.0 45:31.5 14:39 3885 2142 Willis MI
143 Carter,Nancy 4593 50:33.4 45:42.3 14:43 3904 2155 Ann Arbor MI
144 Lundy,Veronica 6258 47:10.5 45:45.5 14:44 3907 2158 Pinckney MI
145 Browne,Antoinette 4468 47:10.5 45:45.9 14:44 3908 2159 Pinckney MI
146 Seidl,Stephannie 7363 48:26.5 45:52.8 14:46 3912 2162 Dexter MI
147 Wenner,Beth 8858 51:00.2 45:59.2 14:48 3913 2163 Saline MI
148 Tokuno,Sadako 9309 51:19.3 46:07.6 14:51 3927 2175
149 Brown,Carol 4451 51:30.5 46:35.5 15:00 3958 2195 Saline MI
150 Swan,Deanna 7680 51:02.9 46:57.3 15:07 3981 2214 Saline MI
151 Scott,Karen 9265 49:00.8 47:07.3 15:10 3986 2218
152 Donham,Marilyn 4960 51:56.9 47:11.0 15:11 3988 2220 Ann Arbor MI
153 Lemmen,Jane 6176 52:48.5 47:19.6 15:14 3999 2229 Holland MI
154 Bertram,Sherrie 4291 50:46.7 47:26.2 15:16 4012 2238 Onsted United States
155 Bradshaw,Carol 4406 50:11.3 47:37.5 15:20 4023 2247 Dexter United States
156 Wheeler,Tracy 8033 51:13.3 47:48.2 15:23 4032 2253 Springport MI
157 Kemeter,Sharon 5919 49:54.4 47:53.3 15:25 4042 2261 Manchester MI
158 Leblanc,M.J. 6144 50:05.3 48:01.4 15:27 4044 2262 Dexter MI
159 Bort,Sue 4369 52:52.3 48:10.8 15:30 4053 2269 Lansing United States
160 Schnorberger,Valerie 7318 51:33.5 48:29.4 15:36 4070 2281 Monroe MI
161 Sitterly,Julianne 7449 51:34.1 48:30.7 15:37 4075 2284 Monroe MI
162 Shipp,Carolyn 7406 51:34.4 48:30.8 15:37 4076 2285 Monroe MI
163 Miller,Joan 6524 54:43.9 48:51.9 15:44 4095 2298 Ann Arbor MI
164 Roberts,Kathy 7124 51:22.1 48:57.9 15:46 4102 2304 Guelph Canada
165 Lake,Michele 6108 54:11.3 49:04.7 15:48 4111 2310 Ann Arbor MI
166 Flessland,Stephanie 5212 53:56.7 49:13.2 15:51 4120 2318 Grosse Ile MI
167 Flake,Paula 5204 54:22.0 49:19.8 15:53 4127 2323 Ann Arbor MI
168 Kennedy,Diane 8523 50:16.6 49:23.0 15:54 4134 2327 South Lyon U.S.
169 ?,Elisa 9341 51:25.0 49:43.6 16:00 4155 2342
170 Hocter,Karen 5669 56:19.6 49:45.7 16:01 4156 2343 Clarklake MI
171 Whitfield,Lynne 8053 54:42.1 49:49.5 16:02 4159 2346 Niles MI
172 Sultana,Kathy 9095 52:43.3 49:50.8 16:03 4163 2349
173 Graham,Marian 5418 53:03.8 50:16.0 16:11 4183 2363 Westwood United States
174 Jamrog,Shelly 8956 52:08.5 50:19.6 16:12 4187 2366 Birch Run United States
175 Fechik,Kate 9302 52:13.9 50:54.3 16:23 4207 2381
176 Welch,Mary Ann 8005 54:43.1 50:58.3 16:24 4210 2382 Livonia MI
177 Lemmmen,Jackie 6180 56:33.5 51:05.1 16:27 4216 2386 Zeeland MI
178 Zamberlan,Mary 8882 57:31.7 51:20.8 16:32 4226 2394 Ann Arbor MI
179 May,Karen 6384 54:16.6 51:29.4 16:34 4233 2401 Milan MI
180 Radin,Marianne 8716 57:36.6 51:46.1 16:40 4249 2410 Waterford MI
181 Patterson,Nola 6855 58:38.0 52:00.4 16:44 4263 2419 Horton MI
182 Bakkenbowers,Karen 8273 54:25.5 52:31.2 16:54 4280 2432 Pinckney MI
183 Clark,Paula 4675 52:49.3 52:49.3 17:00 4291 2440 Farmington Oakland
184 Knight,Toni 5991 59:16.1 52:53.8 17:02 4294 2442 Saline MI
185 Bailey,Kathriene 4135 58:12.7 53:02.4 17:04 4305 2450 Oxford MI
186 Hanson,Mary 5528 1:00:47.3 54:02.6 17:24 4352 2480 Pinckney U.S.A.
187 Graves,Jean 5423 1:01:19.0 54:33.2 17:34 4378 2498 Pinckney MI
188 Ofstedal,Mary Beth 6762 57:14.6 54:48.3 17:38 4383 2500 Ann Arbor MI
189 Alton,Karen 4058 1:01:22.1 54:48.4 17:38 4384 2501 Ypsilanti MI
190 Merritt,Norma 6487 1:00:39.2 55:07.1 17:44 4394 2508 Ann Arbor U.S.A.
191 Steuwe,Kathy 8801 1:00:32.9 55:09.6 17:45 4397 2511 Tecumseh MI
192 Newman,Lisa 8659 1:00:34.3 55:10.5 17:46 4398 2512 Adrian MI
193 Field,Karen 8400 1:01:10.3 55:34.7 17:53 4412 2521 Ann Arbor MI
194 Lavi,Amy 6126 58:01.9 55:44.4 17:56 4414 2523 Ann Arbor MI
195 Buczek,Cyndi 8908 1:05:16.2 56:25.8 18:10 4438 2544 Brighton United States
196 Evans,Mara 5118 1:03:55.4 56:52.7 18:18 4450 2551 Chelsea MI
197 Cassman,Judy 4602 1:00:26.6 57:01.7 18:21 4452 2553 Ottawa Lake United States
198 Freedman,Vicki 5248 57:13.3 57:13.3 18:25 4467 2564 Dresher PA
199 Mukavitz,Maria 6614 59:16.2 57:29.4 18:30 4476 2570 Eastpointe MI
200 Wrobleski,Shirley 8168 1:04:49.8 57:31.8 18:31 4479 2573 Ann Arbor MI
201 Boglarsky,Cheryl 4349 1:02:49.0 57:44.2 18:35 4486 2579 Brighton MI
202 Judge-gonzalez,Ellen 5859 1:02:36.7 58:01.9 18:41 4501 2589 Livonia MI
203 Garrett,Suzanne 5306 1:00:41.9 58:40.2 18:53 4539 2614 Ypsilanti MI
204 Moore,Jennifer 6576 1:01:17.2 58:57.9 18:59 4543 2618 Ann Arbor MI
205 Garrett,Andrea 5303 1:01:37.5 59:34.7 19:11 4560 2632 Stockbridge MI
206 Kiriazis,Jill 5965 1:02:05.3 59:45.9 19:14 4568 2638 Grosse Pointe Woods MI
207 Zacharias,Lisa 8217 1:07:05.7 1:00:09.0 19:22 4580 2646 Sterling Heights United States
208 Davis,Nancy 4853 1:02:50.0 1:00:14.5 19:23 4584 2649 Ann Arbor MI
209 Keyser,Holly 8530 1:04:37.8 1:01:14.9 19:43 4601 2659 Sturgis MI
210 Sytsma,Maureen 7700 1:04:45.7 1:01:50.9 19:54 4611 2667 Canton MI
211 Knieper,Anita 5986 1:07:20.7 1:02:36.4 20:09 4618 2673 Frankenmuth United States
212 Mandalari,Marita 6311 1:10:29.8 1:08:42.2 22:07 4705 2734 Lake Orion MI
213 Dykhouse,Sandy 5031 1:16:49.8 1:10:05.9 22:34 4716 2743 Caledonia United States
Go To Top
50-54 Female
Overall Overall State/
Place Name Bib Gun Tag Pace Place by Sex City County
1 Price,Rebecca 6967 20:18.3 20:14.2 6:31 97 9 Ann Arbor MI
2 Parks,Sue 9139 20:58.9 20:57.2 6:45 138 16
3 Wittig,Lynda 8134 22:51.7 22:45.5 7:20 249 25 Ann Arbor MI
4 Weiss,Lisa 8002 24:31.7 24:10.9 7:47 421 73 Ann Arbor MI
5 Ross,Patty 7184 25:28.7 25:01.3 8:03 555 115 Boulder United States
6 Pierfelice,Catherine 8697 25:35.9 25:14.1 8:07 586 125 Belleville MI
7 Brush,Barbara 4477 26:28.1 25:46.4 8:18 693 168 Ann Arbor United States
8 Ternes,Deborah 7728 26:26.3 26:03.0 8:23 753 188 Ann Arbor MI
9 Canterbury,Patricia 4568 31:27.2 26:36.6 8:34 854 232 Amsterdam NY
10 Reeber,Sandy 7047 27:33.7 26:51.7 8:39 898 255 Ypsilanti MI
11 Lareau,Kathy 6120 28:37.4 27:07.0 8:44 957 281 Dimondale MI
12 Woodward,Sue 9042 28:37.5 27:07.2 8:44 959 282 Mason MI
13 Jackson,Kathy 9065 29:26.4 27:27.9 8:50 1026 317
14 Trese,Carolyn 7785 28:29.0 27:48.1 8:57 1083 342 Farmington Hills MI
15 Sanger,Margaret 7279 29:03.9 27:51.2 8:58 1094 346 Ann Arbor MI
16 Ryan,Patricia 7247 29:04.2 27:52.0 8:58 1097 349 Ann Arbor MI
17 Carrithers,Lynn 4585 29:05.4 27:55.7 8:59 1117 364 Metamora MI
18 Noble,Joyce 6723 29:40.4 28:37.6 9:13 1296 463 Saline MI
19 Smith,Karen 7493 30:22.7 28:48.3 9:16 1334 484 Bronson United States
20 Wilkins,Karen 8079 29:37.3 28:51.2 9:17 1348 492 Ann Arbor MI
21 Nixon,Mary 6721 30:35.0 29:03.3 9:21 1399 518 Chelsea MI
22 Garfinkle,Jan 5298 33:31.9 29:16.1 9:25 1435 533 Ann Arbor MI
23 Michael,Barbara 6493 30:32.4 29:36.2 9:32 1519 569 Ann Arbor MI
24 Lahaie,Denise 6106 30:58.1 29:42.7 9:34 1559 599 Midland MI
25 Sheppard,Cindy 8782 32:13.1 29:48.1 9:36 1581 608 Novi MI
26 Romans,Lois 8744 34:17.3 30:09.1 9:42 1673 660 South Lyon MI
27 Moore,Melanie 6578 34:31.6 30:11.1 9:43 1684 668 Ypsilanti MI
28 Petrillo,Hulya 6902 30:54.3 30:23.6 9:47 1749 710 Plymouth MI
29 Beer,Deborah 4231 31:56.8 30:27.4 9:48 1776 723 Chelsea MI
30 Halloran,Jude 5515 32:36.9 30:27.5 9:48 1777 724 Ann Arbor U.S.
31 Crower,Melissa 4776 35:05.6 30:40.4 9:52 1814 747 Midland U.S.
32 Armstrong,Peggy 4092 31:55.8 30:55.7 9:57 1862 780 Superior Township MI
33 Sullivan,Cheryl 7665 32:43.6 30:58.6 9:58 1872 785 Northville MI
34 Doescher,Kelly 4950 34:58.3 31:03.6 10:00 1894 798 Metamora MI
35 Ryan,Gretchen 7246 34:52.2 31:05.3 10:00 1898 799 Gurnee IL
36 Lowe-jackson,Patricia 6243 33:27.2 31:37.7 10:11 2045 892 Howell MI
37 Jessop,Carol 9114 35:45.3 31:38.1 10:11 2048 895
38 Macy,Madeleine 6288 36:09.2 32:14.7 10:23 2216 1006 Clarkston U.S.A.
39 Harr,Sharon 5537 36:38.7 32:20.0 10:24 2234 1017 Ann Arbor MI
40 Strange-laetsch,Cheryl 7628 33:57.6 32:24.5 10:26 2256 1031 Grass Lake MI
41 Shields,Teri 7402 34:52.6 32:31.3 10:28 2278 1043 Ann Arbor MI
42 Moeller,Lou 8639 34:35.8 32:42.2 10:32 2337 1081 Boulder CO
43 Kollar,Tracy 6006 36:36.7 32:54.5 10:36 2395 1122 Ada MI
44 Alexander,Ellen 4046 37:12.2 33:05.2 10:39 2431 1147 Houston TX
45 Throesch,Karen 7765 36:43.6 33:06.4 10:39 2436 1152 Holland MI
46 Lazenby,Susan 6136 36:02.8 33:06.8 10:39 2438 1154 Livonia MI
47 Hendershot,Sally 5601 36:13.6 33:10.6 10:41 2449 1162 Jackson MI
48 Miller,Tina 6536 37:08.7 33:30.6 10:47 2521 1202 Grand Blanc MI
49 Devitt,Anna 8368 37:23.5 33:50.0 10:53 2591 1247 Hartland MI
50 Nethers,Christine 6688 38:20.2 33:52.6 10:54 2609 1257 Ypsilanti MI
51 Jackson,Susan 5775 36:25.6 34:08.2 10:59 2656 1295 Saline MI
52 Eder,Sally 5037 38:04.8 34:09.1 11:00 2665 1301 Ann Arbor MI
53 Rodgers,Tammi 9131 37:11.1 34:10.5 11:00 2671 1305
54 Kulwicki,Mary 6081 38:43.4 34:32.4 11:07 2739 1353 Ann Arbor MI
55 Heumann,Katherine 5620 39:57.8 34:32.7 11:07 2742 1356 Manchester MI
56 Eipperle-smith,Debra 5051 38:45.9 34:41.2 11:10 2769 1375 Monroe MI
57 Swarbrick,Donna 7689 38:59.0 35:13.2 11:20 2856 1437 Bloomfield Hills MI
58 Yerace,Barbara 8186 38:36.9 35:16.7 11:21 2868 1444 Saline MI
59 Cottrell,Lesa 8920 40:19.9 35:20.4 11:22 2880 1450 Chelsea MI
60 Artt,Diane 4097 40:49.1 35:33.2 11:27 2925 1480 White Lake MI
61 Baca,Ann 4118 40:22.9 35:35.7 11:27 2937 1488 South Lyon MI
62 Beatty,Lucy 4212 39:46.4 35:35.9 11:27 2938 1489 Oak Park MI
63 Munkacsy,Mary 6628 40:45.5 35:37.4 11:28 2951 1498 Okemos MI
64 Dyas,Laura 5026 38:07.6 35:37.7 11:28 2952 1499 Plymouth MI
65 Siroky,Susan 7443 37:01.8 35:45.5 11:31 2975 1515 Clawson Oakland
66 Catalfio,Jo Ann 4608 40:58.7 35:46.2 11:31 2978 1518 Dexter MI
67 Langley,Lisa 6117 37:01.8 35:46.3 11:31 2979 1519 Ann Arbor MI
68 Snyder,Michelle 7522 37:45.9 36:19.3 11:41 3059 1574 Pinckney MI
69 Opipari,Valerie 6790 37:23.3 36:22.7 11:43 3068 1579 Dexter MI
70 Krawczyk,Patricia 6052 42:07.0 36:47.8 11:51 3126 1615 Brooklyn MI
71 Mead,Cathy 8616 39:51.2 37:11.4 11:58 3181 1650 Marshall MI
72 Fields,Kristina 5180 43:22.1 37:18.3 12:00 3198 1663 Ann Arbor MI
73 Lowe,Pamela 6242 39:13.3 37:23.0 12:02 3209 1670 Brighton MI
74 Lucchesi,Mary 6248 40:00.7 37:37.3 12:07 3235 1685 Westlake OH
75 Warner,Kathleen 7960 42:23.2 37:59.2 12:14 3275 1711 Prairie Du Chien WI
76 Smith,Debbie 9148 41:55.7 38:00.3 12:14 3277 1713
77 Dastmalchi,Yekta 4828 40:59.9 38:01.6 12:14 3281 1717 Novi MI
78 Kozanecki,Pam 6036 44:06.7 38:20.0 12:20 3333 1750 Farmington Hills MI
79 Cullip,Jo Anne 4788 43:03.0 38:21.0 12:21 3336 1751 Ann Arbor MI
80 Richards,Deborah 7088 40:35.5 38:21.6 12:21 3339 1753 Belleville MI
81 Curry,Connie 4799 39:52.3 38:27.0 12:23 3362 1769 Ann Arbor MI
82 Stevens,Debra 7589 43:51.1 38:34.8 12:25 3378 1780 Ann Arbor MI
83 Whitehead,Jill 8051 41:41.3 39:06.4 12:35 3432 1817 Novi MI
84 Jastrzembowski,Ann 5798 44:09.7 39:06.7 12:35 3434 1819 Pinckney MI
85 Benakovich,Marti 4250 42:19.8 39:11.7 12:37 3438 1822 Grand Blanc MI
86 Dziubek,Constantine 8385 40:40.2 39:14.6 12:38 3443 1827 Canton MI
87 Stahle,Diane 7556 43:58.1 39:52.4 12:50 3512 1873 Canton MI
88 Groshko Timm,Constance 8442 42:19.5 39:56.7 12:51 3517 1876 Ann Arbor MI
89 Vermevlen,Nancy 7892 45:06.2 40:00.4 12:53 3527 1884 Ann Arbor MI
90 Patton,Sandra 6857 45:27.1 41:49.5 13:28 3672 1983 Canton MI
91 Khalaf,Lois 5936 44:41.4 42:13.5 13:35 3695 2000 Westland MI
92 Roedel,Karen 7152 45:09.9 43:00.8 13:51 3744 2037 Livonia MI
93 Redies,Karen 8724 48:35.5 43:11.9 13:54 3754 2045 Adrian MI
94 Mulligan,Marci 6622 46:50.3 43:23.0 13:58 3761 2050 South Lyon MI
95 Briggs,Linda 4434 45:48.9 43:44.4 14:05 3788 2071 Freeland MI
96 Cooper,Kimberly 8345 47:23.5 44:00.7 14:10 3810 2087 Toledo United States
97 Cain,Denise 4551 50:24.1 45:24.5 14:37 3872 2130 Manchester MI
98 Davies,Tricia 4839 48:00.8 45:26.2 14:37 3875 2133 Ann Arbor United States
99 Mulhern,Ann 6619 48:01.8 45:28.8 14:38 3879 2137 Ann Arbor MI
100 Bender,Vicki 4254 46:47.7 45:29.8 14:39 3880 2138 Sylvania OH
101 Reilly,Rosemarie 7061 51:08.4 46:01.6 14:49 3918 2166 Bloomfield Hills MI
102 Perkins,Sherry 6886 51:09.4 46:08.0 14:51 3928 2176 Ypsilanti MI
103 Crawford,Kathy 4772 48:26.4 46:36.3 15:00 3959 2196 Dexter MI
104 Knauss,Carol 5984 52:46.1 46:41.4 15:02 3964 2200 Ann Arbor MI
105 Keedy,Deb 5894 51:57.2 47:25.7 15:16 4011 2237 Ypsilanti MI
106 Quinnin,Maria 6998 54:35.1 47:50.2 15:24 4034 2255 Ann Arbor MI
107 Jones,Debbie 5841 52:45.6 48:06.0 15:29 4047 2265 Ann Arbor MI
108 Quebbeman,Marsha 6993 52:52.4 48:11.7 15:31 4054 2270 Lansing United States
109 Burns,Jan 4518 54:11.7 48:20.0 15:33 4063 2276 Maricopa AZ
110 Fransisco,Debby 8411 54:22.8 48:28.6 15:36 4068 2279 Novi MI
111 Newman,Andrea 6696 48:45.2 48:30.4 15:37 4073 2283 Ann Arbor
112 Ewing,Alice 5123 51:17.1 48:53.6 15:44 4099 2302 Dexter MI
113 Hamilton,Susan 5521 55:41.7 48:59.5 15:46 4103 2305 Ann Arbor MI
114 Davis,Cheri 4844 53:43.6 49:27.3 15:55 4141 2333 Grand Rapids MI
115 Rotzien,Laura 7190 54:42.2 49:49.8 16:02 4161 2347 Inkster MI
116 Mccormick,Kelli 6409 53:05.3 50:18.3 16:11 4185 2364 White Lake United States
117 Weisman,Jacqueline 7999 54:34.0 51:39.5 16:38 4241 2406 Ann Arbor MI
118 Juno,Julie 5866 54:18.2 51:42.1 16:38 4243 2407 Flushing MI
119 Sarns,Lori 8762 53:58.6 51:53.8 16:42 4255 2414 Dexter MI
120 Stallard,Karol 1466 56:17.1 52:07.1 16:46 4266 2421 South Lyon MI
121 Fox,Kathy 5236 56:31.6 52:41.5 16:58 4286 2436 Northville MI
122 Camilleri,Diane 9110 56:33.3 52:42.2 16:58 4287 2437
123 Koviak,Karen 6032 58:50.5 52:57.2 17:03 4298 2445 Clarkston MI
124 Van Sumeren,Kate 7852 58:52.3 52:58.2 17:03 4299 2446 Richmond VA
125 Luther,Karen 6262 58:51.6 52:58.5 17:03 4300 2447 Novi MI
126 Richiert,Diane 7094 59:12.3 52:59.6 17:03 4302 2448 ST. Louis MI
127 Albin,Pam 9106 58:52.5 53:00.1 17:04 4303 2449
128 Peoples,Alice 6880 59:27.5 53:38.7 17:16 4335 2471 Ypsilanti MI
129 Lewis,Karen 6203 57:33.7 54:11.1 17:26 4356 2484 Brighton MI
130 Kumbier,Mary 6083 58:35.0 54:12.5 17:27 4358 2486 Ann Arbor MI
131 Santeufemia,Margaret 9010 59:49.4 54:27.8 17:32 4375 2496 Washington U.S.
132 Smith,Wendy 7509 1:00:38.9 55:05.8 17:44 4393 2507 Mialn MI
133 Farrell,Katherine 5143 1:02:06.3 55:07.7 17:45 4395 2509 Ann Arbor MI
134 Palmer,Karen 6816 58:51.2 57:10.4 18:24 4460 2559 Chelsea United States
135 Kreiner,Eileen 6055 1:02:00.8 57:38.9 18:33 4482 2576 Ann Arbor MI
136 Mccormick,Colleen 6407 1:00:29.4 57:44.0 18:35 4485 2578 West Bloomfield United States
137 Bylsma,Cindy 4548 1:02:32.4 57:57.8 18:39 4499 2587 Pinckney MI
138 Judge,Vanessa 5858 1:02:36.4 58:01.5 18:41 4500 2588 Riverview United States
139 Stevens,Anna 7586 1:04:05.5 58:09.8 18:43 4508 2593 Pinckney MI
140 Leduc,Mary 6151 1:01:03.6 58:29.7 18:50 4532 2609 Ann Arbor MI
141 Kinsler,Candace 5961 1:01:17.4 58:58.3 18:59 4544 2619 Ann Arbor MI
142 Navarre,Joanne 6674 1:05:39.9 59:40.7 19:12 4564 2635 Dexter MI
143 Helewa Stevick,Grace 617 1:01:59.6 59:45.8 19:14 4567 2637 Ann Arbor MI
144 Mccormick,Joan 6408 1:03:34.7 1:00:46.0 19:34 4599 2657 White Bear Lake United States
145 Wiktorzak,Denise 8863 1:07:35.5 1:01:17.1 19:43 4603 2661 Tipton MI
146 Klute,Jan 5982 1:08:35.3 1:02:45.4 20:12 4620 2675 Ann Arbor MI
147 Sorensen,Linda 7530 1:08:52.1 1:03:12.7 20:21 4628 2680 Canton MI
148 Lathrop,Cheryl 8554 1:07:19.9 1:04:07.6 20:38 4650 2697 Saline MI
149 Wiles,Kathleen 8076 1:09:51.1 1:04:41.6 20:49 4656 2702 Ann Arbor MI
150 Murphy,Anne 6634 1:09:51.6 1:04:41.6 20:49 4657 2703 Ann Arbor MI
151 Van Gent,Wendy 7847 1:09:59.9 1:05:47.3 21:10 4682 2720 Ypsilanti M
152 Roslund,Melody 7178 1:13:39.3 1:07:29.0 21:43 4691 2726 ST. Louis MI
153 Hall,Patricia 5509 1:08:42.8 1:08:42.8 22:07 4706 2735 Ann Arbor MI
154 Wilson,Patricia 8870 1:11:09.6 1:11:09.6 22:54 4726 2750 Milwaukie OR
Go To Top
55-59 Female
Overall Overall State/
Place Name Bib Gun Tag Pace Place by Sex City County
1 Pray,Pamela 6962 24:13.8 24:00.8 7:44 395 63 Clinton MI
2 Dadgar,Nahid 4812 26:57.1 26:17.5 8:28 798 204 Ann Arbor MI
3 Holmes,Jan 5687 27:08.9 26:42.7 8:36 871 242 Dearborn U.S.A.
4 Taylor,Priscilla 8814 31:02.6 27:52.5 8:58 1099 351 Brighton United States
5 Ulrey,Sue 7823 29:04.3 28:13.4 9:05 1188 402 Ann Arbor MI
6 Heinz,Irene 5594 30:08.9 28:42.1 9:14 1310 473 Ypsilanti MI
7 Johnson,Jane 5825 31:03.9 29:38.1 9:32 1537 583 Muskegon MI
8 Quiroga,Martha 7002 32:36.8 30:36.9 9:51 1802 739 Temperance MI
9 Snyder,Rhonda 7524 35:54.2 30:51.4 9:56 1853 775 Livonia MI
10 Johnson,Brenda 5818 32:31.6 30:59.3 9:58 1877 788 Bloomington IN
11 Lyon,Jill 6273 35:27.9 31:32.4 10:09 2030 883 Ann Arbor United States Of Ame
12 Williams,Kathy 8098 32:17.2 31:33.4 10:09 2037 888 Livonia MI
13 Pomerance,Sheryl 6948 32:35.4 31:48.1 10:14 2087 926 West Bloomfield MI
14 Smith,Maggie 7499 34:40.6 32:06.2 10:20 2179 985 Ann Arbor MI
15 Switalski,Carol 7698 33:33.6 32:16.9 10:23 2225 1013 Grosse Pointe Park MI
16 Suarez,Carol 7655 35:38.6 32:26.7 10:27 2263 1035 Dearborn Wayne
17 Gentes,Gail 8421 36:45.4 32:40.0 10:31 2325 1076 Ann Arbor MI
18 Pierson,Judy 6924 38:07.6 32:54.9 10:36 2396 1123 Saline MI
19 Para,Kathy 8682 38:12.0 33:05.4 10:39 2433 1149 Ypsilanti Washtenaw
20 Burek,Dorothy 4504 38:28.3 33:24.2 10:45 2494 1186 Canton United States
21 Fellows,Karen 5158 36:52.7 33:25.6 10:46 2501 1190 Dexter MI
22 Edginton,Nancy 9132 37:09.7 34:08.6 10:59 2657 1296
23 Devins,Michele 4917 38:48.1 34:25.1 11:05 2713 1333 Southgate MI
24 Kooy,Patti 9318 37:28.5 34:43.3 11:11 2779 1381
25 Edmunds,Marie 5039 39:09.8 35:15.4 11:21 2863 1441 West Bloomfield MI
26 Creager,Jackie 8349 40:16.3 35:22.8 11:23 2891 1458 Ann Arbor MI
27 Skadsen,Janice 7453 38:15.8 35:31.7 11:26 2917 1473 Ann Arbor MI
28 Heldsinger,Andrea 5598 39:08.8 35:36.7 11:28 2944 1493 Ann Arbor MI
29 Devee,Wendy 4914 40:52.6 35:56.6 11:34 3009 1543 Ann Arbor MI
30 Henry,Marlene 5609 44:15.6 36:55.3 11:53 3141 1623 Whitmore Lake MI
31 Hallberg,Jan 5513 38:23.1 36:57.0 11:54 3146 1627 Ann Arbor MI
32 Mooney,Ann 6570 39:34.7 37:04.0 11:56 3160 1635 Ann Arbor MI
33 Bollman,Anna 4354 41:43.1 37:36.8 12:06 3234 1684 Ypsilanti MI
34 Elliott,Lynn 5074 44:16.6 38:17.3 12:19 3327 1745 Manchester MI
35 Walsh,Margaret 7946 40:18.9 38:18.3 12:20 3330 1747 Ann Arbor MI
36 Dennisuk,Debbie 4896 42:19.5 38:23.2 12:21 3344 1758 Trenton United States
37 Shubow,Jenny 9015 41:24.1 38:34.1 12:25 3375 1778 Ann Arbor MI
38 Wakefield,Mary 9469 39:11.5 38:37.3 12:26 3383 1782 Ann Arbor MI
39 Maxfield,Doris 6378 43:53.9 38:47.4 12:29 3409 1800 Linden MI
40 Mccartney,Sue 6400 43:36.5 38:57.6 12:32 3420 1809 Saline MI
41 Jacobs,Margaret 5777 41:24.6 39:08.3 12:36 3435 1820 Whitmore Lake MI
42 Hyzy,Julie 5745 42:23.5 40:01.6 12:53 3531 1887 Ann Arbor United States
43 Mosley,Linda 6603 44:41.2 40:19.2 12:59 3551 1901 Allen Park MI
44 Teague,Ladonnah 7716 43:14.2 40:55.8 13:10 3607 1941 Bay City Use
45 Kett,Laura 5935 45:54.8 41:38.5 13:24 3657 1972 Ann Arbor MI
46 Narayanan,Lakshmi 6667 48:01.3 42:01.1 13:31 3685 1993 Ann Arbor MI
47 Harris,Lynn 5545 48:33.3 42:47.4 13:46 3731 2025 Manhattan Beach CA
48 Murphy,Claudia 6635 47:25.1 42:56.8 13:49 3738 2032 Plymouth MI
49 Fermoyle,Maureen 5171 47:25.5 42:57.5 13:50 3739 2033 Royal Oak MI
50 Vanpelt,Demetrices 7867 49:41.0 43:33.1 14:01 3773 2059 Canton MI
51 Welty,Anne 8012 49:52.1 43:43.8 14:05 3786 2070 Saline MI
52 Liebert,Monica 6210 50:15.4 44:01.1 14:10 3812 2088 Ann Arbor MI
53 Vandermarkt,Kathy 7857 47:39.5 44:14.4 14:14 3814 2090 Jenison MI
54 Bennett,Pamela 4262 50:04.8 44:57.6 14:28 3846 2112 Ann Arbor MI
55 Koyle,Karen 6034 48:01.1 46:05.1 14:50 3923 2171 Bloomfield Hills MI
56 Grant-yopko,Barbara 5421 48:21.1 46:12.8 14:52 3933 2180 Chelsea MI
57 Wietzke,Karen 8068 50:22.3 46:17.3 14:54 3941 2185 Hudsonville MI
58 Niedzielski,Sharon 6711 52:36.5 47:17.4 15:13 3993 2224 Whitmore Lake United States
59 Roberts,Debra 8732 53:25.6 47:19.2 15:14 3998 2228 Superior Township MI
60 Stalker,Sue 7557 50:11.1 47:36.9 15:20 4022 2246 Ann Arbor MI
61 Elder,Violet 5058 54:33.7 48:18.0 15:33 4059 2273 Ann Arbor MI
62 Lehnert,Eileen 6166 53:56.7 48:30.0 15:37 4072 2282 Jackson MI
63 Hubbard,Dianne 5722 53:31.8 48:47.2 15:42 4090 2295 Temperance MI
64 Boxhorn,Mary 4391 53:31.8 48:47.7 15:42 4091 2296 Temperance MI
65 Maclean,Ann 8584 54:44.4 48:52.5 15:44 4097 2300 Canton MI
66 Bigelow,Victoria 4307 54:14.7 48:59.8 15:46 4104 2306 Ann Arbor MI
67 Prince,Monica 6973 55:41.9 49:00.2 15:46 4106 2307 Ypsilanti MI
68 Dorsey,Laura 9441 52:48.7 49:06.0 15:48 4114 2313 Brighton MI
69 Troisi,Cathy 7790 51:42.4 49:24.8 15:54 4137 2329 Ann Arbor MI
70 Racz,Darlene 7007 55:45.3 49:38.3 15:59 4148 2337 Pinckney MI
71 Weber,Kathy 7980 50:55.4 49:49.3 16:02 4158 2345 Ann Arbor U.S.
72 Dieter,Julie 4933 53:33.5 49:50.5 16:03 4162 2348 Saline MI
73 Hill,Wendy 5644 56:27.2 49:53.3 16:03 4167 2351 Windsor Canada
74 Gross,Beverly 5451 53:02.9 50:15.5 16:11 4182 2362 Bloomfield Hills MI
75 Miller,Jennifer 6523 55:11.9 50:30.8 16:15 4195 2371 Manchester United States
76 Blank,Laurie 4323 54:53.0 50:46.3 16:20 4201 2375 White Lake MI
77 Kelly,Barbara 5913 57:04.3 50:47.4 16:21 4203 2377 Ann Arbor MI
78 Rutter,Gayle 7239 53:11.8 50:47.4 16:21 4204 2378 Defiance OH
79 Carson,Barbara 4588 54:34.6 51:08.6 16:28 4218 2387 Ann Arbor MI
80 Montgomery,Barb 8642 56:50.3 51:16.7 16:30 4222 2391 Chelsea MI
81 Crabtree,Suzette 4758 52:52.4 51:38.4 16:37 4238 2404 Monroe Monroe
82 Dupuy,Dorothy 5021 54:36.1 51:39.4 16:38 4240 2405 Ann Arbor MI
83 Julien,Deborah 5862 54:37.3 51:44.8 16:39 4246 2408 Lansing MI
84 Barkume,Aileen 4174 57:34.3 52:14.5 16:49 4268 2423 Royal Oak MI
85 Diedo,Karen 8370 53:52.3 52:45.3 16:59 4288 2438 Ann Arbor MI
86 Brigham,Kathleen 4435 57:45.3 53:10.5 17:07 4317 2458 Chelsea MI
87 Stankov,Mary Anne 7562 59:58.7 53:17.7 17:09 4324 2462 Fowlerville United States
88 Bolgos,Doreen 4353 59:47.4 53:57.5 17:22 4344 2476 Ann Arbor MI
89 Lagory,Ellen 6104 57:41.5 54:01.4 17:23 4350 2478 Livonia MI
90 Young,Patricia 8203 57:05.9 54:08.6 17:26 4353 2481 Tecumseh MI
91 Burns,Nancy 4521 58:57.0 54:12.5 17:27 4359 2487 Grosse Pointe Woods MI
92 Tuttle,Cherry 9190 57:58.7 54:19.3 17:29 4366 2489
93 Smith,Pj 7501 1:00:26.6 54:26.1 17:31 4372 2493 Pinckney MI
94 Fabiilli,Franca 8397 59:48.2 54:27.5 17:32 4374 2495 Eastpointe MI
95 Feeman,Debbie 5151 1:00:18.1 55:03.7 17:43 4392 2506 Ypsilanti MI
96 Mckeon Stosuy,Mary 6444 1:02:27.0 55:44.9 17:57 4419 2528 Medford NJ
97 Osier,Shirley 6799 59:29.9 56:10.4 18:05 4428 2536 Clarkston MI
98 Pohlman,Cindy 8702 1:03:16.1 56:21.5 18:08 4433 2540 Ann Arbor United States
99 Judson,Karen 8513 1:02:35.3 56:23.8 18:09 4435 2542 Ann Arbor MI
100 Koepfle,Lorraine 5999 1:01:42.8 57:04.3 18:22 4455 2554 Ann Arbor MI
101 Neall,Donna 8655 1:04:50.1 57:53.5 18:38 4494 2584 Flint United States
102 Twichell,Karen 7818 1:04:54.1 58:06.2 18:42 4505 2590 Saline MI
103 Twichell,Gloria 7815 1:05:06.6 58:18.5 18:46 4516 2599 Saline MI
104 Hurst,Amy 9061 1:04:48.7 58:52.2 18:57 4542 2617
105 Raymo,Elaine 7037 1:05:31.2 59:47.6 19:15 4570 2640 Dearborn Heights MI
106 Fuhrman,Janet 5274 1:03:37.3 1:00:48.7 19:34 4600 2658 Troy MI
107 Duncan,Diane 5015 1:10:33.1 1:03:20.9 20:23 4635 2686 Westland MI
108 West,Judith 8024 1:09:18.3 1:03:24.9 20:25 4642 2691 Onsted MI
109 Valasek,Susan 7834 1:09:18.2 1:03:25.5 20:25 4644 2692 Owosso MI
110 Halstead,Roxanne 8451 1:07:18.3 1:04:06.6 20:38 4649 2696 Ypsilanti MI
111 Spiegelberg,Shawn 7543 1:10:20.3 1:04:15.4 20:41 4651 2698 Fort Wayne IN
112 Sanders,Kathy 7272 1:04:46.2 1:04:46.2 20:51 4660 2705 Shelby Township MI
113 Frommel,Debbie 5268 1:12:59.8 1:05:43.1 21:09 4678 2716 Newport KY
114 Calabro,Laura 4553 1:13:01.8 1:10:13.9 22:36 4720 2746 Dryden MI
115 Judson,Merita 5860 1:10:42.3 1:10:42.3 22:45 4724 2749 Ann Arbor MI
Go To Top
60-64 Female
Overall Overall State/
Place Name Bib Gun Tag Pace Place by Sex City County
1 Harrison,Grace 5549 23:56.4 23:50.4 7:40 367 53 Ann Arbor MI
2 Santoro,Carol 7281 26:31.1 26:18.7 8:28 802 207 Gregory MI
3 Bovio,Nina 4386 27:20.9 27:08.8 8:44 964 286 Ann Arbor MI
4 Torno,Janet 9127 28:19.8 28:03.4 9:02 1152 385
5 Mulder,Dawn 6617 32:45.5 31:07.2 10:01 1910 805 Wyoming United States
6 Oemke,Kathleen 6760 32:55.1 31:11.6 10:02 1930 818 Howell MI
7 Schneider,Christine 7311 32:26.0 31:41.7 10:12 2060 905 Warren MI
8 Burrows,Denise 8910 37:06.2 32:34.0 10:29 2292 1053 Plymouth MI
9 Stark-nemon,Barbara 7569 33:16.0 32:45.6 10:33 2356 1096 Ann Arbor United States
10 Abraham,Jean 4009 36:49.9 32:56.0 10:36 2398 1124 West Bloomfield MI
11 Schrock,Betsey 7327 37:48.7 33:18.7 10:43 2476 1175 Farmington Hills MI
12 Loso,Mary 6236 38:47.3 33:46.5 10:52 2581 1240 Pinckney MI
13 Shipe,Ayn 7404 33:48.1 33:48.1 10:53 2584 1242 Battle Creek MI
14 Hayes,Kathleen 8464 37:20.1 34:02.1 10:57 2641 1284 Grand Blanc MI
15 Potthoff,M Robin 6957 37:07.2 34:57.2 11:15 2824 1414 Ann Arbor MI
16 Wink,Linda 8119 38:37.0 35:17.6 11:22 2870 1446 South Lyon MI
17 Weber,Deborah 7979 36:38.3 35:24.0 11:24 2895 1461 Ann Arbor MI
18 Lyden,Mary Lou 6266 38:44.6 36:32.3 11:46 3092 1594 Washington DC
19 Austin,Stephany 4108 39:16.4 36:34.6 11:46 3098 1597 Bloomfield Hills United States
20 Tucker,Barbara 7799 38:42.1 36:37.0 11:47 3104 1599 Ann Arbor MI
21 Lloyd,Ginger 6224 39:27.7 38:16.0 12:19 3325 1743 Tecumseh MI
22 Murphy,Hedwig 6636 43:47.1 38:23.0 12:21 3342 1756 Ann Arbor MI
23 Reilly,Jane 7060 43:19.5 39:00.4 12:33 3426 1812 New Haven VT
24 Rose,Kathleen 7172 41:32.6 39:15.9 12:38 3446 1829 Ann Arbor MI
25 Gomez,Sheila 5384 41:16.0 39:27.5 12:42 3462 1839 Ann Arbor MI
26 Riemenschneider,Jeanene 7107 42:26.6 39:58.3 12:52 3522 1881 Gregory MI
27 Young,Kathleen 8201 44:46.4 40:48.2 13:08 3594 1932 Ann Arbor MI
28 Streit,Bettylou 7633 46:14.2 41:21.8 13:19 3628 1956 Farmington MI
29 Sorini Elser,Sandra 7531 47:18.2 41:56.3 13:30 3680 1990 Ann Arbor MI
30 Gaynor,Gloria 5318 47:45.4 42:20.6 13:38 3702 2005 Ypsilanti United States
31 Walker,Sandra 7941 50:19.1 44:42.1 14:23 3833 2105 Lansing MI
32 Lum,Ruth 8576 47:48.8 45:06.7 14:31 3857 2119 Ann Arbor MI
33 Kibler,Jeanette 5940 50:12.2 45:09.5 14:32 3860 2121 Ann Arbor MI
34 Connors,Margaret 9141 51:13.6 45:37.8 14:41 3895 2148
35 Brabbs,Cindy 4397 50:51.9 46:04.3 14:50 3922 2170 Midland MI
36 Ryan,Betty 8754 49:00.4 46:18.7 14:54 3942 2186 Martinez GA
37 Ochmanski,M. Kathleen 6748 49:49.0 46:32.0 14:59 3952 2192 Plymouth United States
38 Burkhart,Kitty 4514 53:16.3 47:18.8 15:14 3996 2227 Whitmore Lake MI
39 Hawkins,Barbara 5564 51:12.1 47:20.6 15:14 4005 2233 Ypsilanti MI
40 Palmeri,Judi 6817 49:44.1 47:21.3 15:14 4006 2234 Saline MI
41 Krijnen,Anneke 6056 52:13.3 48:09.3 15:30 4050 2266 Milan MI
42 Quackenbush,Susan 8714 55:04.7 49:28.0 15:55 4142 2334 Ann Arbor MI
43 Spencer,Beth 1456 55:44.8 49:39.3 15:59 4149 2338 Ann Arbor MI
44 Anderson,Barbara 4068 53:26.9 49:58.0 16:05 4169 2353 Ann Arbor MI
45 Brennock,Grace 4423 52:25.6 50:29.1 16:15 4193 2369 Ypsilanti Washtenaw
46 Murphy,Mary 6638 57:04.5 50:47.2 16:21 4202 2376 Ann Arbor MI
47 Bullard,Mary 4492 52:48.5 51:35.3 16:36 4237 2403 Monroe MI
48 Fox,Colby 5234 52:12.8 52:12.8 16:48 4267 2422 Aa MI
49 Facey,Brenda 5127 58:46.4 52:25.7 16:52 4278 2430 Lasalle MI
50 Weid,Rebecca 7990 58:47.3 53:15.2 17:08 4321 2460 Jackson MI
51 Sieler,Beverly 7424 55:15.7 53:31.7 17:14 4333 2469 Monroe MI
52 Smith,Judy 7492 1:00:47.4 54:02.3 17:24 4351 2479 Ypsilanti MI
53 Checkoway,Marjorie 8327 59:23.8 54:08.9 17:26 4354 2482 Ann Arbor MI
54 Ananda,Layla 4066 58:34.7 54:20.6 17:29 4367 2490 Ann Arbor MI
55 Osburn,Alice 6797 59:43.7 54:23.6 17:30 4369 2492 Grosse Pointe Park MI
56 Keller,Janet 5905 55:19.9 54:26.9 17:31 4373 2494 Ann Arbor MI
57 Folk,Mary Ann 9444 57:48.5 54:49.3 17:39 4386 2503
58 Mieczkowski,Janet 6504 1:01:56.3 55:17.5 17:48 4402 2514 Temperance MI
59 Koon,Pam 6013 1:04:35.7 55:44.5 17:56 4415 2524 Atlas MI
60 Karvonen,Donna 5883 1:00:45.4 55:44.9 17:57 4420 2529 Ann Arbor MI
61 Allen,Connie 4051 55:59.1 55:54.3 18:00 4426 2534 Ypsilanti MI
62 Elliott,Dorothy 5073 1:00:24.2 56:08.0 18:04 4427 2535 Ann Arbor MI
63 Studley,Sharon 7648 57:58.9 56:13.4 18:06 4432 2539 Tawas MI
64 Butcher,Kandi 4541 1:04:00.3 57:05.8 18:23 4457 2556 Owosso U.S.A.
65 Kellmann,Mary 5911 1:03:37.2 57:10.0 18:24 4458 2557 Dearborn MI
66 Woods,Bonnie 8154 58:52.0 57:12.1 18:25 4464 2562 Saline MI
67 Pasquarella,Judith 6840 1:03:39.1 57:19.5 18:27 4469 2565 Ann Arbor MI
68 Annelin,Catherine M 4083 1:01:44.5 57:23.7 18:28 4473 2568 Traverse City MI
69 Wagner,Cheryl 7923 1:04:13.3 58:24.0 18:48 4523 2603 Brighton Livingston
70 Bulmer,Joan 4493 1:05:13.3 58:25.2 18:48 4526 2605 Ann Arbor MI
71 Velazquez,Mae 8836 1:01:03.8 58:30.9 18:50 4533 2610 Ypsilanti Washtenaw
72 Robertson,Pat 7137 58:36.7 58:36.7 18:52 4535 2611 Plymouth MI
73 Ableson,Janice 4006 1:04:39.1 58:45.1 18:55 4540 2615 Oak Park MI
74 Ressler,Susan 7073 59:36.2 59:36.2 19:11 4562 2634 Ann Arbor MI
75 Ramesh,Sumati 7012 1:01:58.0 59:51.6 19:16 4571 2641 Canton MI
76 Kominek,Randi 6008 1:10:13.9 1:03:14.6 20:21 4629 2681 Ida MI
77 Walasinski,Marge 9402 1:10:15.8 1:03:15.5 20:22 4630 2682 Milan MI
78 Horkey,Sharon 5702 1:10:20.3 1:03:19.9 20:23 4633 2684 Dundee MI
79 Plumb,Linda 6936 1:10:21.4 1:03:22.1 20:24 4636 2687 Dundee MI
80 Nicks,Joanne 6707 1:07:20.3 1:04:05.0 20:38 4648 2695 Tecumseh MI
81 Sparling,Susan 7541 1:12:35.9 1:05:20.3 21:02 4670 2709 Ann Arbor MI
82 Yarges,Katherine 8176 1:12:42.7 1:05:25.1 21:03 4674 2712 Newport United States
83 Evans,Dianna 5112 1:15:57.5 1:08:40.0 22:06 4703 2732 Pontiac MI
84 Hoover,Sharon 5698 1:13:07.2 1:10:05.0 22:33 4715 2742 Dearborn MI
85 Prince,Helena 6972 1:10:06.7 1:10:06.7 22:34 4718 2745 Ann Arbor MI
Go To Top
65-69 Female
Overall Overall State/
Place Name Bib Gun Tag Pace Place by Sex City County
1 Guisinger,Helen 5473 28:32.2 27:21.1 8:48 999 301 Coldwater MI
2 Matuszak,Rosie 6367 33:01.7 32:11.0 10:22 2199 998 Ann Arbor MI
3 Kull,Charlene 8965 36:24.8 32:44.7 10:32 2346 1088 Brighton MI
4 Rucker,Joan 7202 37:52.7 32:57.1 10:36 2405 1129 Northville United States
5 Chelune,Doris 4638 38:15.7 33:42.7 10:51 2567 1231 Saline United States
6 Mayer,Mary 8603 38:16.0 34:43.2 11:11 2778 1380 Ann Arbor MI
7 Boughton,Dorothy 4379 38:16.9 35:47.1 11:31 2982 1521 Gregory MI
8 Findlay,Patricia 5185 39:35.5 36:33.4 11:46 3093 1595 Ann Arbor MI
9 Sweeney,Carol A 7692 38:41.4 37:29.1 12:04 3223 1678 Northville MI
10 Comazzi,Lynne 4704 43:43.9 40:46.1 13:07 3588 1929 Ypsilanti MI
11 Temple,Patricia 7725 45:30.2 40:52.4 13:09 3602 1937 Canton MI
12 Rose,Marcia 7173 44:32.1 42:02.6 13:32 3687 1994 Ann Arbor MI
13 Siler,Kathleen 7429 48:28.1 45:04.3 14:30 3853 2117 Manchester MI
14 Collica,Judi 4695 52:36.4 47:17.7 15:13 3994 2225 Whitmore Lake MI
15 Eisenbrey,Karen 5053 48:27.6 48:27.6 15:36 4067 2278 Ypsilanti MI
16 Mccaffrey,Carol 6399 56:39.6 50:07.7 16:08 4177 2359 Ann Arbor MI
17 Chandler,Susan 4619 53:06.0 50:30.6 16:15 4194 2370 Ann Arbor MI
18 Greve,Sally 5441 57:34.7 51:26.7 16:33 4230 2398 Ann Arbor United States
19 Vanvalkenburg,Janet 2238 56:27.2 53:54.8 17:21 4343 2475
20 Beernink,Carol 4232 58:20.3 54:21.9 17:30 4368 2491 Grand Rapids MI
21 Edwards,Sally 9468 1:02:35.0 56:27.3 18:10 4440 2546 Ann Arbor MI
22 Sumerton,Linda 7668 1:03:57.8 56:34.3 18:12 4442 2547 Novi MI
23 Bradley,Carol 4402 1:03:37.5 57:10.1 18:24 4459 2558 Dearborn MI
24 Maxwell,Betsy 6380 1:03:30.1 57:20.9 18:27 4471 2566 Ypsilanti MI
25 Nightingale,Janet 6715 1:00:41.6 58:39.9 18:53 4538 2613 Grass Lake MI
26 Sauers,Judith 7288 1:02:09.4 1:00:06.7 19:21 4579 2645 Stockbridge MI
27 Love,Betty 6240 1:13:39.9 1:07:26.2 21:42 4690 2725 Ithaca MI
28 Macqueen,Jane 6287 1:10:59.1 1:08:29.1 22:03 4698 2729 Ann Arbor MI
29 Dworkin,Carol 8384 1:10:04.6 1:08:51.1 22:10 4708 2736 Ann Arbor MI
Go To Top
70-74 Female
Overall Overall State/
Place Name Bib Gun Tag Pace Place by Sex City County
1 Katz,Jacqueline 9320 51:00.1 45:59.6 14:48 3914 2164
2 Read,Carol 7039 50:16.5 46:11.4 14:52 3931 2178 Grass Lake MI
3 Mccabe,Maria-rosa 6398 51:24.8 49:43.4 16:00 4154 2341 Annarbor MI
4 Stanley,Nancy 9099 1:02:34.6 56:26.8 18:10 4439 2545
5 Rotzien,Geoleen 7189 1:03:48.9 58:39.7 18:53 4536 2612 Niles MI
6 Dykhouse,Nancy 5030 1:14:47.6 1:08:06.0 21:55 4694 2728 Grand Rapids MI
Go To Top
80-84 Female
Overall Overall State/
Place Name Bib Gun Tag Pace Place by Sex City County
1 Smith,Tina 9229 1:08:43.8 1:03:25.9 20:25 4645 2693




Big House Big Heart - 10k Overall Results
Ann Arbor, MI
October 3, 2010

Results by RF Timing
Software by ChuckScore

State/
Place Name Bib Gun Tag Pace Sex Age City County
1 Perrin,Josh 1961 31:57.5 31:57.5 5:09 M 24 Hamburg MI
2 Waterson,Mike 1663 35:29.3 35:28.5 5:43 M 23 Ann Arbor United States
3 Mccarthy,Ted 989 35:38.3 35:37.7 5:44 M 25 Ann Arbor MI
4 Weis,Brian 1680 35:51.4 35:50.8 5:46 M 18 Maumee U.S.A
5 Ikeda,Hiroshi 686 36:04.3 36:03.9 5:48 M 32 Ann Arbor United States
6 Rivamonte,Ryan 1296 36:45.2 36:43.4 5:55 M 19 Ann Arbor United States
7 Greene,Penn 549 36:55.1 36:52.9 5:56 M 22 Ann Arbor MI
8 Wightman,Beth 2188 36:59.8 36:59.0 5:57 F 29
9 Bates,Bob 2211 37:19.8 37:19.7 6:00 M 38
10 Macdonald,Brennan 932 37:29.2 37:27.4 6:02 M 21 Ann Arbor MI
11 Dhamrat,Hamshivraj 343 37:37.4 37:37.3 6:03 M 32 Milan MI
12 Steggerda,Justin 2009 37:44.6 37:43.2 6:04 M 23 Ann Arbor MI
13 Cotts,Timothy 285 38:09.9 38:09.4 6:08 M 38 Ann Arbor MI
14 Skampo,Joshua 1424 38:15.3 38:14.6 6:09 M 28 Monroe MI
15 Thomas,Brad 2023 38:35.2 38:34.5 6:12 M 35 Fort Wayne IN
16 Wisniewski,Anthony 1714 38:46.0 38:40.8 6:13 M 42 Ypsilanti United States
17 Tucker,Ron 1576 38:51.7 38:49.5 6:15 M 39 Highland MI
18 Azari,Dave 47 38:57.1 38:55.8 6:16 M 28 Ann Arbor MI
19 Knape,Ryan 800 38:59.5 38:59.1 6:16 M 36 Tecumseh MI
20 Kroll,Spence 829 39:07.5 39:01.9 6:17 M 23 Ann Arbor MI
21 Peters,Larry 2169 39:09.7 39:08.1 6:18 M 27
22 Mooney,Timothy 1067 39:32.0 39:29.4 6:21 M 50 Toledo OH
23 Brish,Krys 158 39:35.0 39:32.1 6:22 F 47 Milford MI
24 Kazyak,Jonathan 2179 39:41.3 39:38.6 6:23 M 21
25 Yamauchi,Hiroshi 1736 39:44.0 39:39.9 6:23 M 42 Ann Arbor MI
26 Nicita,Dominic 1130 39:47.2 39:45.9 6:24 M 46 Brighton MI
27 Rademacher,Nicholas 1969 39:50.1 39:44.8 6:24 M 25 Ann Arbor MI
28 Ketchmark,Tony 772 39:51.7 39:50.5 6:25 M 48 Davison MI
29 Vitale,Brian 1617 39:52.8 39:44.6 6:24 M 29 Ann Arbor MI
30 Sanborn,Phillip 1342 39:54.1 39:48.4 6:24 M 39 Ann Arbor, Mi MI
31 Matuszewski,Tim 976 39:58.1 39:56.8 6:26 M 38 Brighton MI
32 Chan,Chester 231 39:59.3 39:53.8 6:25 M 24 Ann Arbor MI
33 Hoekstra,Louis 1872 40:12.2 40:11.3 6:28 M 53 Kalamazoo MI
34 Matuszewski,Kristi 975 40:14.3 40:12.5 6:28 F 38 Brighton MI
35 Koselka,John 2145 40:18.7 40:17.0 6:29 M 44
36 Fong,Raymond 457 40:23.1 40:22.0 6:30 M 23 Ann Arbor MI
37 Mazel,Adam 980 40:26.1 40:25.1 6:30 M 34 Ann Arbor United States
38 Garton,Andrew 498 40:34.3 40:30.8 6:31 M 17 Ann Arbor MI
39 Dalle,Derek 305 40:34.5 40:23.4 6:30 M 24 Ann Arbor United States
40 Hunter,James 677 40:35.9 40:31.8 6:31 M 46 Saline U.S.
41 Anderson,David 29 40:43.2 40:38.4 6:32 M 26 Ann Arbor MI
42 Thompson,Ben 1545 40:51.7 40:49.9 6:34 M 23 Ann Arbor MI
43 Smith,Christopher 2000 40:52.2 40:48.8 6:34 M 27 Ann Arbor United States
44 Jamie,Aaron 1885 41:06.4 41:02.2 6:36 M 24 Riverview MI
45 Stephens,Trent 2010 41:06.4 41:00.2 6:36 M 25 Ypsilanti MI
46 Leach,Tyler 868 41:09.1 41:07.1 6:37 M 15 Ann Arbor United States
47 Burrell,Galen 1793 41:09.7 41:07.6 6:37 M 15 Ann Arbor United States
48 Liuzzi,Nicholas 910 41:14.6 41:05.2 6:37 M 22 Tecumseh MI
49 Ono,Masahiro 1175 41:23.1 41:18.2 6:39 M 31 Ann Arbor MI
50 Bradley,David 145 41:26.8 41:26.2 6:40 M 43 Ann Arbor MI
51 Mueller,Nicholas 1093 41:27.7 41:23.5 6:40 M 23 Ann Arbor United States
52 Snelling,Thomas 1444 41:29.6 41:28.1 6:40 M 41 Ypsilanti MI
53 Leu,John 888 41:31.0 41:29.4 6:41 M 28 Ann Arbor MI
54 Darr,Alexander 312 41:33.4 6:41 M 13 Brighton MI
55 Cain,Scott 198 41:39.4 41:33.2 6:41 M 24 Ann Arbor United States
56 Pilz,Bryce 1231 41:42.2 41:36.3 6:42 M 35 Ann Arbor United States
57 Zubatch,Brian 2141 41:42.9 41:38.5 6:42 M 44
58 Mateo,Emilio 970 41:43.7 41:41.2 6:43 M 18 Ann Arbor MI
59 Walrath,Andrea 1644 41:44.2 41:41.9 6:43 F 30 Ann Arbor United States
60 Mckenzie,Amanda 1940 41:44.5 41:33.8 6:41 F 21 Ann Arbor United States
61 Young,Jim 2046 41:45.0 41:41.3 6:43 M 45 Ann Arbor MI
62 Yamada,Takeshi 2150 41:52.3 41:47.3 6:44 M 37
63 Ito,Shogo 695 41:52.4 41:43.4 6:43 M 36 Farmington Hills MI
64 Frost,Patrick 480 41:54.4 41:52.3 6:44 M 26 Shelby Township MI
65 Scott,Glen 1377 41:59.5 41:55.3 6:45 M 15 Carleton MI
66 Scott,Chris 1376 41:59.8 41:55.3 6:45 M 15 Carleton MI
67 Morris,Sean 1080 42:01.9 41:56.1 6:45 M 22 Frankfort United States
68 Mooney,Colin 1066 42:04.1 41:51.6 6:44 M 31 Ann Arbor MI
69 Johansson,Tyler 715 42:10.1 41:44.4 6:43 M 30 Ann Arbor MI
70 Mattox,Amy 973 42:17.5 42:00.6 6:46 F 38 Marysville MI
71 Skujins,Torstens 1998 42:24.1 42:12.6 6:48 M 26 Ann Arbor MI
72 Robey,Daniel 1300 42:25.3 42:21.2 6:49 M 25 Jackson MI
73 Buck,Jeff 176 42:26.4 42:21.7 6:49 M 44 Canton MI
74 Rosenberg,Daniel 1311 42:27.7 42:18.7 6:49 M 40 Novi MI
75 Degutis,Bob 331 42:28.1 42:23.1 6:49 M 46 Ann Arbor MI
76 Perry,Jim 2149 42:30.6 42:21.5 6:49 M 42
77 Mulvihill,Brian 1952 42:30.6 42:23.9 6:49 M 49 Brighton MI
78 Hyssong,Levi 684 42:33.7 42:28.3 6:50 M 26 Ann Arbor MI
79 Larin,John 856 42:37.8 42:34.3 6:51 M 51 Ann Arbor MI
80 Kohrman,David 1897 42:39.9 42:29.5 6:50 M 48 Ann Arbor MI
81 Suchyta,Greg 1490 42:40.5 42:21.6 6:49 M 25 Trenton MI
82 Detjen,Bradley 2240 42:40.7 42:30.7 6:50 M 21
83 Riggs,Dave 2172 42:40.9 42:38.2 6:52 M 0
84 Smith,Jordan 1437 42:41.2 42:30.2 6:50 M 24 Ann Arbor United States
85 Powell,Dustin 1964 42:42.4 42:32.3 6:51 M 21 Ann Arbor United States
86 Cook,Logan 277 42:44.2 42:39.4 6:52 M 27 Ann Arbor MI
87 Esparza,Alec 408 42:45.1 42:40.2 6:52 M 14 Saginaw United States Of Ame
88 Selenko,John 1386 42:45.2 42:37.1 6:52 M 48 Tecumseh MI
89 Cofran,Zachary 1814 42:57.3 42:37.6 6:52 M 25 Ann Arbor MI
90 Adang,Chris 1768 42:57.5 42:55.5 6:54 M 35 Ann Arbor MI
91 Moran,Paul 1072 42:58.8 42:33.1 6:51 M 26 Ann Arbor MI
92 Rubin,Julie 1985 42:59.5 42:50.2 6:54 F 37 Kent OH
93 Nalli,Natli 1112 43:00.5 42:57.0 6:55 F 24 Canton MI
94 Stoyanov,Stefan 1485 43:01.1 42:55.7 6:54 M 27 Ann Arbor MI
95 Feldt,Christopher 2213 43:02.7 42:59.0 6:55 M 21
96 Budzinski,Joseph 179 43:04.8 43:01.8 6:55 M 46 Rochester Hills MI
97 German,Rachel 513 43:05.7 42:55.3 6:54 F 21 Ann Arbor MI
98 Azari,Emily 48 43:06.0 43:01.6 6:55 F 28 Ann Arbor MI
99 Leff,Todd 1915 43:08.7 43:01.6 6:55 M 56 Ann Arbor MI
100 Paupore,Matthew 1199 43:12.3 43:06.1 6:56 M 34 Plymouth MI
101 Mayrand,Bruce 979 43:18.4 43:09.5 6:57 M 31 Brighton MI
102 Cohen,Aliza 255 43:19.0 43:14.6 6:58 F 28 Ann Arbor MI
103 Dresch,Dane 368 43:20.6 43:11.6 6:57 M 33 Dexter MI
104 Lehman,Alice 1916 43:20.9 43:09.7 6:57 F 21 Ann Arbor MI
105 Brown,James 2185 43:23.1 43:18.8 6:58 M 31
106 Reiser,Andy 1976 43:24.5 43:12.2 6:57 M 46 Ypsilanti MI
107 Hogle,Bryan 646 43:25.1 43:11.9 6:57 M 30 Ann Arbor MI
108 Anderson,Jocelyn 31 43:25.6 43:21.9 6:59 F 30 Ann Arbor MI
109 Moody,Ric 1065 43:26.6 43:13.5 6:57 M 30 Saginaw MI
110 Phillips,Tom 1962 43:27.6 43:24.8 6:59 M 36 Ann Arbor MI
111 Robinson,Bruce 2178 43:35.9 43:30.2 7:00 M 42
112 Mcpherson,Jennifer 1941 43:38.8 43:32.9 7:00 F 42 Ann Arbor United States
113 Manz,Mike 1930 43:40.2 43:36.2 7:01 M 56 Ann Arbor MI
114 Hipp,Michael 637 43:41.7 43:36.2 7:01 M 27 Dearborn Heights MI
115 Dyke,Brad 384 43:42.0 43:34.1 7:01 M 42 Ann Arbor MI
116 Van Valkenburg,Trevor 1599 43:45.4 43:35.8 7:01 M 25 Adrian United States
117 Johnson,Matt 725 43:46.3 43:40.2 7:02 M 37 Plymouth MI
118 Carpenter,Ron 1797 43:51.5 43:48.7 7:03 M 61 Hudson MI
119 Rolston,Aimee 1310 43:53.9 43:42.4 7:02 F 24 Ann Arbor MI
120 Newmeyer,Alan 1953 43:54.5 43:44.6 7:02 M 25 Ann Arbor MI
121 Smith,Garret 1434 43:57.2 43:46.2 7:03 M 24 Ann Arbor MI
122 Weinberg,Stephen 1678 43:58.8 43:50.1 7:03 M 35 Ann Arbor MI
123 Shipley,Joseph 2196 43:58.8 43:53.9 7:04 M 0
124 Johnson,Kris 723 44:01.1 43:52.1 7:04 M 31 Ann Arbor MI
125 Johnson,Nathan 726 44:02.3 43:53.7 7:04 M 35 Belleville United States
126 Ingram,Daniel 690 44:02.5 43:27.3 7:00 M 21 Ann Arbor Washtenaw
127 Swan,Sandra 1502 44:04.6 43:58.5 7:05 F 32 Ypsilanti MI
128 Swan,Alan 1501 44:04.8 43:58.4 7:05 M 34 Ypsilanti MI
129 Klein,Mark 797 44:07.6 44:00.6 7:05 M 38 Milan MI
130 Skodack,Joshua 1426 44:10.8 44:05.4 7:06 M 27 Ann Arbor MI
131 Day,Sharlene 323 44:15.0 44:07.1 7:06 F 41 Ann Arbor MI
132 Sapp,Andrew 1347 44:17.2 44:09.5 7:06 M 39 Dexter MI
133 Tietseman?,Donnie 2218 44:20.8 44:00.9 7:05 M 25
134 Russell,Mark 1986 44:22.4 44:14.1 7:07 M 47 Ann Arbor MI
135 Russell,Jonathan 2292 44:22.7 44:14.5 7:07 M 13 Ann Arbor MI
136 Dennisuk,Lauren 336 44:24.5 44:12.7 7:07 F 24 Ann Arbor MI
137 Allen,Jake 16 44:26.1 44:05.6 7:06 M 15 Tecumseh MI
138 Johnson,Linnea 724 44:30.6 44:28.5 7:09 F 19 Ann Arbor MI
139 Moore,John 1070 44:42.0 44:21.7 7:08 M 28 Ann Arbor MI
140 Ault,Amanda 44 44:43.9 44:29.1 7:10 F 33 Ann Arbor MI
141 Beale,Simon 72 44:44.7 44:36.1 7:11 M 45 Ann Arbor MI
142 Semaan,Andrea 1388 44:47.5 44:42.6 7:12 F 24 Ann Arbor MI
143 Bergmann,Brett 2187 44:51.4 44:41.5 7:12 M 28
144 Murphy,Donald 1101 44:52.7 44:44.9 7:12 M 39 Dearborn MI
145 Ahmed,Nawaaz 9 44:54.9 44:47.1 7:12 M 38 Ann Arbor MI
146 Lukela,Michael 924 44:56.2 44:50.9 7:13 M 38 Ann Arbor MI
147 Greenberg,Seth 548 44:56.8 44:36.8 7:11 M 26 Ann Arbor MI
148 Deaven,Jerome 1824 44:58.4 44:50.5 7:13 M 46 Brighton MI
149 Perron,Brian 2177 44:58.5 44:46.9 7:12 M 38
150 Struck,Miranda 1486 44:59.1 44:52.0 7:13 F 24 Ann Arbor United States
151 Frederick,Brent 473 45:00.6 44:52.0 7:13 M 38 Grass Lake MI
152 Baiza,Tomas 54 45:02.4 44:44.7 7:12 M 43 Saline United States
153 Hwangbo,Young 681 45:04.2 44:58.4 7:14 M 56 Ann Arbor MI
154 Smith,Andrew 1431 45:04.7 44:38.6 7:11 M 33 Ann Arbor MI
155 Nummikoski,Kevin 1149 45:08.5 44:37.9 7:11 M 46 Webberville MI
156 Walsh,John 1645 45:12.9 44:48.2 7:13 M 27 Ann Arbor MI
157 Hill,Marleigh 635 45:13.7 44:51.7 7:13 F 20 Ann Arbor United States
158 Ferraro,Samantha 437 45:14.6 45:06.4 7:16 F 18 Ann Arbor United States
159 Potrykus,Michael 2097 45:17.0 44:59.5 7:14 M 18 Deford MI
160 Miron,Benjamin 1054 45:18.3 45:14.0 7:17 M 32 Ann Arbor MI
161 Bratton,Lei 1782 45:18.8 45:07.1 7:16 F 21 Ann Arbor United States
162 Byersdorfer,Lori 193 45:20.7 45:17.0 7:17 F 35 Ann Arbor MI
163 Treadwell,Robert 2027 45:22.6 45:08.5 7:16 M 26 Canton MI
164 Briggs,Vanessa 154 45:22.7 45:00.1 7:15 F 23 Freeland MI
165 Ryan,Kevin 1330 45:25.4 45:02.3 7:15 M 31 Dearborn MI
166 Rossmeissl,Joseph 1316 45:26.7 44:55.8 7:14 M 27 Ann Arbor MI
167 Chopp,Jennifer 1806 45:32.0 45:17.0 7:17 F 29 Ypsilanti MI
168 Chopp,Evan 1805 45:32.0 45:17.0 7:17 M 28 Ypsilanti MI
169 Cipriano,Robert 1811 45:33.7 45:27.5 7:19 M 50 Farmington Hills MI
170 Jensen,Russell 709 45:34.8 45:27.4 7:19 M 30 Ypsilanti MI
171 Mcgarry,Kathleen 1937 45:36.9 45:30.7 7:19 F 46 Los Angeles CA
172 Buckhave,Eric 1789 45:37.1 45:29.7 7:19 M 40 Ypsilanti MI
173 Bortz,Jason 128 45:39.2 45:33.5 7:20 M 27 Ann Arbor MI
174 Pollman,Shawn 2096 45:39.7 45:30.6 7:19 F 40 Howell MI
175 Barthelemy,Valerie 1771 45:41.3 45:39.2 7:21 F 19 Ann Arbor MI
176 Lang,Melissa 1906 45:41.3 45:39.3 7:21 F 19 Edison United States
177 Kwan,Raymond 843 45:42.9 45:34.9 7:20 M 39 Ann Arbor MI
178 Yauch,Brian 1738 45:43.4 45:31.2 7:20 M 25 Clarkston United States
179 Hish,Gerry 638 45:44.8 45:38.2 7:21 M 37 Ann Arbor MI
180 Benaglio,Jessie 85 45:46.2 45:30.5 7:19 F 21 Livonia MI
181 Tang,Nathan 2019 45:48.8 45:23.9 7:18 M 25 Ann Arbor MI
182 Pini,May 1232 45:49.5 45:36.9 7:20 F 34 Ann Arbor MI
183 Hall,Jennifer 2163 45:51.0 45:47.2 7:22 F 36
184 Schaar,Matt 1351 45:54.6 45:45.6 7:22 M 29 Detroit MI
185 Staudt,Gillian 1471 45:54.7 45:44.7 7:22 F 19 Bingham Farms MI
186 Miller,Jonathan 2091 45:56.3 45:49.4 7:22 M 28 Ann Arbor MI
187 Clinton,Eric 2064 45:57.9 45:47.3 7:22 M 33 Farmington Hills United States
188 Smith,Jeremy 1436 45:59.1 45:02.8 7:15 M 21 East Lansing United States
189 Smith,Mckenzie 1442 46:00.9 45:40.9 7:21 F 28 Rossford OH
190 Mcmanamy,Mark 2146 46:03.7 45:53.2 7:23 M 41
191 Forbord,Erik 458 46:07.7 45:53.2 7:23 M 33 Howell MI
192 Ramsey,Aric 1273 46:07.7 45:51.8 7:23 M 22 Commerce MI
193 O'sullivan,Larry 1956 46:08.1 46:04.4 7:25 M 46 Ypsilanti MI
194 Silverman,Saree 1419 46:08.4 45:59.2 7:24 F 24 Ann Arbor United States
195 Miller,Michelle 1045 46:09.2 45:34.8 7:20 F 30 Ann Arbor MI
196 Tattan,Anna 1520 46:09.9 45:59.1 7:24 F 26 Zeeland MI
197 Johnson,Rosalind 729 46:09.9 45:54.3 7:23 F 46 Ann Arbor MI
198 Liu,Haiyong 909 46:10.6 46:03.0 7:25 M 38 Ann Arbor MI
199 Voss,Luke 2034 46:10.8 45:18.5 7:17 M 24 Remus United States
200 Hesselkrave,Pail 2202 46:12.0 45:57.0 7:24 M 30
201 Pena,Juan 1208 46:14.2 45:59.1 7:24 M 21 Ann Arbor United States
202 Grekin,Joe 555 46:14.3 46:00.2 7:24 M 41 Farmington MI
203 Schulz,Jeff 1372 46:15.1 46:07.4 7:25 M 43 Ypsilanti MI
204 Chapo,Kevin 2062 46:15.3 46:06.4 7:25 M 30 Grosse Pointe Park MI
205 Jacobsen,Douglas 1884 46:18.2 46:07.8 7:25 M 31 Ann Arbor MI
206 Aherne,Melissa 2205 46:19.3 46:16.0 7:27 F 33
207 Kendall,Tom 762 46:19.7 46:14.2 7:26 M 43 Canton United States
208 Fox,Joshua 2294 46:19.8 46:08.4 7:26 M 34 Ann Arbor United States
209 Jackson,Dana 696 46:20.3 46:12.1 7:26 F 31 Morton Grove United States
210 Dubey,Keith 1830 46:23.2 46:11.5 7:26 M 35 Sterling Heights MI
211 Barber,Jeffrey 59 46:25.8 46:21.9 7:28 M 44 Superior Twp MI
212 Gajar,Dan 1848 46:31.1 46:20.9 7:28 M 40 Ann Arbor United States Of Ame
213 Schutte,Amanda 1374 46:31.7 46:10.5 7:26 F 21 Ann Arbor MI
214 Wickerham,Erin 1693 46:31.8 46:13.9 7:26 F 23 Ann Arbor United States
215 Prygoski,Jeff 1258 46:35.7 45:42.5 7:21 M 21 Okemos MI
216 Bender,Gunes 88 46:37.9 46:15.6 7:27 M 29 Ann Arbor MI
217 Arconado,Dale 1769 46:39.1 46:24.1 7:28 M 28 Ann Arbor MI
218 Vlasic,Jeff 1621 46:40.3 46:20.0 7:27 M 24 Ann Arbor United States
219 Thompson,Lauren 2118 46:42.1 46:36.9 7:30 F 18
220 Benkarski,Lisa 89 46:42.5 46:24.1 7:28 F 45 Novi MI
221 Griffin,Matt 559 46:43.9 46:19.9 7:27 M 39 Saline United States
222 Ambroselli,Anthony 21 46:44.6 46:22.3 7:28 M 22 Ann Arbor MI
223 Spangelo,Sara 1455 46:45.0 46:33.8 7:30 F 24 Ann Arbor MI
224 Wojcik,Peter 2044 46:45.1 46:15.5 7:27 M 39 Plymouth MI
225 Cramer,Kristine 1817 46:45.2 46:28.8 7:29 F 24 Ypsilanti MI
226 Leska,Katie 885 46:45.8 46:23.8 7:28 F 21 Ann Arbor MI
227 Pedlow,Matt 1202 46:46.5 46:24.1 7:28 M 38 Chelsea MI
228 Alford,Jennifer 13 46:46.6 46:19.5 7:27 F 35 Chelsea MI
229 Licari,Tracy 893 46:48.1 46:38.8 7:30 F 38 Farmington Hills MI
230 Grossman,Shannon 2222 46:49.3 46:37.6 7:30 F 21
231 Press,Aaron 1965 46:49.3 46:38.0 7:30 M 21 Ann Arbor MI
232 Tanifuji,Osamu 1517 46:50.2 46:32.3 7:29 M 34 Ann Arbor United States
233 Gallagher,Mary 492 46:50.2 46:37.0 7:30 F 41 Ann Arbor MI
234 Grochowski,Justin 563 46:55.6 46:40.1 7:31 M 30 Lambertville United States
235 Silvester,Ryan 1420 46:55.9 46:37.4 7:30 M 15 Ann Arbor MI
236 Calderon,Luis 202 46:58.8 46:43.5 7:31 M 23 Livonia MI
237 Massie,Dawn 969 46:59.2 46:49.8 7:32 F 47 Ypsilanti MI
238 Burghardt,Jill 183 46:59.6 45:58.7 7:24 F 29 Ann Arbor MI
239 Galard,Ron 490 47:02.6 46:53.0 7:33 M 45 Brighton Livingston
240 Kise,Jenny 791 47:03.7 47:01.6 7:34 F 14 Saline MI
241 Vander Veen,Gina 1602 47:04.0 46:40.2 7:31 F 22 Ann Arbor United States
242 Yost,Jeffrey 1744 47:04.8 46:47.2 7:32 M 37 Rossford OH
243 Maemura,Kenichiro 1928 47:07.4 46:57.1 7:33 M 50 Novi Ua
244 Carpenter,Craig 214 47:11.0 46:39.7 7:31 M 32 Midland MI
245 Obringer,Ray 2180 47:11.7 46:28.9 7:29 M 18
246 Schuck,Damien 1367 47:12.1 46:54.8 7:33 M 20 Erie U.S.
247 Toth,Lauren 1560 47:13.0 47:00.3 7:34 F 27 Westland MI
248 Hayes,Patrick 610 47:16.6 47:04.4 7:35 M 25 Ann Arbor MI
249 Weessies,Michael 1675 47:20.3 47:05.0 7:35 M 24 Ann Arbor MI
250 Huffstutter,Wesley 672 47:21.0 47:08.1 7:35 M 35 Ann Arbor MI
251 Peitz,Tim 1204 47:21.1 47:17.2 7:37 M 46 Petersburg MI
252 Dibraccio,Gina 344 47:23.0 47:07.2 7:35 F 24 Ann Arbor MI
253 Robertson,Bill 1979 47:23.2 47:10.6 7:36 M 49 Ann Arbor MI
254 Smith,Michael 1443 47:23.5 47:07.2 7:35 M 22 Grosse Pointe United States
255 Thiel,Michael 1538 47:25.7 47:03.6 7:34 M 32 Northville United States
256 Apollo,Eric 37 47:27.0 47:20.4 7:37 M 42 Ann Arbor MI
257 Little,Sahoko 908 47:27.9 47:10.3 7:35 F 47 South Lyon MI
258 Chenoweth,James 1804 47:29.1 46:20.5 7:27 M 57 Ann Arbor MI
259 Gdowski,Sara 507 47:32.0 47:17.3 7:37 F 24 Wyandotte MI
260 Riggs,Elizabeth 1291 47:32.3 47:13.3 7:36 F 38 Ann Arbor MI
261 Jaros,Cecily 705 47:33.3 47:23.2 7:38 F 22 Ann Arbor United States
262 Anderson,Lauren 32 47:35.1 47:04.0 7:34 F 28 Bloomfield Hills MI
263 Day,Dave 322 47:35.9 47:19.2 7:37 M 29 Ann Arbor MI
264 Reynolds,Mark 1288 47:36.1 47:14.8 7:36 M 29 Ann Arbor MI
265 Sytch,Maxim 1507 47:36.9 47:23.4 7:38 M 32 Ann Arbor MI
266 Haskins,Curtiss 601 47:37.2 47:06.6 7:35 M 29 Royal Oak MI
267 Step,Kathleen 2053 47:38.1 47:29.2 7:39 F 52
268 Ward,Joseph 1652 47:38.2 47:25.2 7:38 M 27 Ann Arbor U.S.
269 Hood,Christopher 655 47:39.3 47:10.0 7:35 M 30 Northville MI
270 Meng,Jeffrey 1020 47:39.3 47:15.9 7:36 M 25 Rochester Hills MI
271 Yalch,Matthew 1735 47:39.9 47:10.8 7:36 M 30 Northville MI
272 Abrahamse,Paul 2 47:40.7 47:13.3 7:36 M 41 Ypsilanti MI
273 Royer,Stephanie 1320 47:41.5 47:15.0 7:36 F 24 Ann Arbor MI
274 Morton,Jennifer 1084 47:44.4 47:20.1 7:37 F 37 Pinckney United States
275 Fernandes,Rodrigo 436 47:44.6 47:16.5 7:36 M 33 Ann Arbor MI
276 Lemmen,Ben 1917 47:46.5 46:59.0 7:34 M 18 Holland MI
277 Schauss,Wolfgang 1353 47:46.6 47:07.7 7:35 M 37 Ypsilanti MI
278 Kucinski,Ashlee 1903 47:46.7 47:25.8 7:38 F 20 Ann Arbor MI
279 Eckman,John 1831 47:46.8 47:26.6 7:38 M 21 Ann Arbor MI
280 D'annunzio,Fernando 308 47:48.4 47:28.6 7:38 M 41 Ann Arbor MI
281 Schroeder,Lydia 1362 47:49.7 47:34.5 7:39 F 24 Ann Arbor MI
282 Hawkins,David 1866 47:53.4 47:17.1 7:37 M 23 Ann Arbor MI
283 Santiago,Angel 1988 47:53.9 47:38.9 7:40 M 25 Ann Arbor MI
284 Aaronson,Kyle 2171 47:54.9 47:36.6 7:40 M 17
285 Upton,Henry 1589 47:54.9 47:36.2 7:40 M 17 Ann Arbor MI
286 Cookinham,Sarah 2189 47:55.0 47:44.3 7:41 F 35
287 Walters,Amy 1648 47:56.4 47:21.5 7:37 F 24 Ann Arbor MI
288 Tyler,Claire 1582 47:56.5 47:39.7 7:40 F 22 Rochester United States
289 Gamberg,Peter 495 47:56.7 47:40.1 7:40 M 24 Ann Arbor MI
290 Knape,Wendy 801 47:58.0 47:38.6 7:40 F 36 Tecumseh MI
291 Davenport,Larry 314 47:58.4 46:56.4 7:33 M 37 Ann Arbor United States
292 Falletich,Eric 422 47:59.6 47:36.6 7:40 M 24 Southgate United States
293 O'rourke,Nicholas 1179 47:59.7 47:13.3 7:36 M 26 Ann Arbor United States
294 Tyler,Emily 1583 48:00.1 47:43.5 7:41 F 26 Rochester MI
295 Ono,Shimpei 1176 48:03.6 47:46.1 7:41 M 31 Ann Arbor MI
296 Koval,Tom 821 48:04.7 47:44.5 7:41 M 31 Manchester MI
297 Johnson,Oliver 727 48:05.2 47:49.6 7:42 M 48 Ann Arbor United States
298 Robertson,Trevor 1980 48:07.8 47:42.0 7:41 M 15 Saginaw MI
299 Wascha,Thomas 1660 48:08.1 47:59.3 7:43 M 67 Burton MI
300 Corden,Katherine 280 48:08.9 47:48.4 7:42 F 19 Ann Arbor United States Of Ame
301 Heslop,Fred 630 48:09.3 47:45.8 7:41 M 49 Park City UT
302 Nelson,Kelly 1119 48:09.6 47:36.8 7:40 F 27 Ann Arbor United States
303 Le Pottier,Yves 1914 48:10.3 47:43.4 7:41 M 44 Ann Arbor MI
304 Le Pottier,Luc 1913 48:10.5 47:43.8 7:41 M 12 Ann Arbor MI
305 Boruszok,Natasha 129 48:13.9 47:52.8 7:42 F 17 Troy United States
306 Morell,Ross 1073 48:14.0 47:54.1 7:43 M 57 Brighton MI
307 Roedel,Shane 1306 48:15.9 47:39.5 7:40 M 23 Livonia MI
308 Murabito,David 1100 48:17.8 47:56.3 7:43 M 25 Ann Arbor MI
309 Brown,David Kyle 163 48:18.6 47:49.0 7:42 M 21 Livonia MI
310 Caird,Andrew 199 48:19.1 47:41.8 7:41 M 39 Ann Arbor MI
311 Caird,Margaret 200 48:19.2 47:42.1 7:41 F 34 Ann Arbor MI
312 Kennel,Ryan 763 48:22.2 48:00.6 7:44 M 31 Ann Arbor MI
313 Fairchild,Dwight 420 48:23.8 47:53.7 7:42 M 51 Saline MI
314 Anderle,Doug 27 48:23.9 48:15.0 7:46 M 48 Lamont MI
315 Dorsey,Alexa 2237 48:24.6 48:01.2 7:44 F 0
316 Burch,Tonya 2290 48:25.6 47:18.2 7:37 F 35 Flint MI
317 German,Chris 512 48:25.7 48:12.3 7:45 M 18 Ann Arbor United States
318 Inuzuka,Takeshi 1880 48:25.8 48:15.5 7:46 M 31 Canton United States
319 Bauer,Christopher 71 48:26.6 48:14.6 7:46 M 36 Ann Arbor MI
320 Bergenske,Jacob 94 48:27.8 48:02.9 7:44 M 28 Belleville MI
321 Pituch,Tim 2239 48:29.4 47:25.9 7:38 M 20
322 Evers,Rebecca 1836 48:33.7 47:50.7 7:42 F 24 South Lyon MI
323 Duan,Kevin 370 48:35.0 46:06.1 7:25 M 24 Ann Arbor MI
324 Brzoznowski,Kathy 173 48:35.8 48:18.7 7:46 F 33 Ann Arbor MI
325 Burns,Russell 188 48:36.3 48:20.5 7:47 M 50 Plymouth MI
326 Taguchi,Kazunobu 1509 48:36.8 47:20.7 7:37 M 30 Novi MI
327 Vansumeren,Jason 2033 48:38.8 48:24.1 7:47 M 38 Whitmore Lake United States
328 Hasvold,Jennifer 2293 48:41.1 47:55.1 7:43 F 27 Ann Arbor MI
329 Monty,Ryan 1064 48:42.6 48:28.1 7:48 M 25 Chelsea MI
330 Valtadoros,Tassos 1596 48:43.1 47:54.2 7:43 M 44 Ann Arbor MI
331 Heinz,Dennis 614 48:43.3 48:07.4 7:45 M 30 Ypsilanti MI
332 Manofsky,Laura 950 48:45.3 48:12.2 7:45 F 25 Ann Arbor MI
333 Montas,Jane 2121 48:47.1 48:33.8 7:49 F 27
334 Pond,Amy 1243 48:47.2 48:27.3 7:48 F 26 Ann Arbor MI
335 Martin,Kristine 963 48:47.5 48:34.2 7:49 F 33 Ann Arbor United States
336 Owens,Oliver 2122 48:48.6 48:29.3 7:48 M 17
337 Keedy,Rob 753 48:48.7 48:29.5 7:48 M 17 Ypsilanti MI
338 Shugart,Brad 1414 48:48.8 48:22.1 7:47 M 49 Dexter MI
339 Grahovac,Ivana 540 48:50.4 48:39.9 7:50 F 33 Austin TX
340 Zamberlan,Jim 2048 48:50.7 48:26.1 7:48 M 46 Ann Arbor MI
341 Obringer,Joseph 1154 48:50.9 48:07.8 7:45 M 45 Decatur IN
342 Perez,James 1209 48:50.9 48:35.4 7:49 M 19 Monroe Monroe
343 Helman,Marcus 618 48:51.2 48:06.2 7:44 M 50 Huntington Woods MI
344 Beidler,Courtney 1775 48:53.8 48:51.3 7:52 F 18 Richboro United States
345 Shinzaki,Satoru 1409 48:54.2 48:27.6 7:48 M 41 Southfield U.S.A.
346 Clous,Adam 253 48:55.1 48:32.1 7:49 M 33 Berkley MI
347 Goldman,Robert 530 48:55.8 48:28.5 7:48 M 50 Ann Arbor MI
348 Hoeft,Jared 640 48:57.3 48:15.6 7:46 M 27 Brighton U.S.
349 Step,Randal 2054 48:57.8 48:32.4 7:49 M 53
350 Jackson,Jeff 697 49:00.9 47:52.0 7:42 M 48 Ann Arbor MI
351 Feng,Fred 2228 49:00.9 48:59.6 7:53 M 26
352 Traub,Taylor 2186 49:01.9 48:57.7 7:53 M 23
353 Duke,Travis 376 49:02.6 48:41.8 7:50 M 29 Ann Arbor MI
354 Jin,Manbok 711 49:02.9 44:51.9 7:13 M 41 Troy MI
355 Monti,Emily 1061 49:06.9 48:26.1 7:48 F 26 Brighton U.S.
356 Marcus,Sheila 952 49:07.9 48:52.3 7:52 F 53 Ann Arbor MI
357 Mervak,Timothy 1022 49:08.0 48:51.6 7:52 M 54 Ann Arbor MI
358 Pellegrini,Eric 1205 49:09.2 48:48.7 7:51 M 30 Ann Arbor MI
359 Taylor,Jen 2190 49:09.3 48:32.5 7:49 F 23
360 Allet,Lara 2129 49:10.8 49:06.3 7:54 F 33
361 Head,Elizabeth 611 49:10.9 48:58.9 7:53 F 33 Superior Township MI
362 Candela,James 1795 49:12.3 48:53.7 7:52 M 33 Sterling Heights United States
363 Pruitt,Dave 1256 49:13.4 48:55.9 7:52 M 54 Canton MI
364 Wilson,Douglas 1706 49:13.6 48:56.5 7:53 M 52 Dearborn United States
365 Sullivan,Hank 1493 49:14.0 49:04.6 7:54 M 53 Northville MI
366 Hall,Linda 2151 49:15.0 48:45.3 7:51 F 46
367 Jasso,Francisco 1888 49:15.8 49:05.0 7:54 M 30 Auburn Hills MI
368 Faulkner,Susan 2077 49:16.5 48:52.5 7:52 F 41 Saline MI
369 Herrera-durr,Brent 628 49:18.0 48:56.5 7:53 M 23 Ann Arbor MI
370 Hsu,Michael 669 49:19.3 49:04.3 7:54 M 31 Portland OR
371 Mcilroy,Maxwell 1939 49:20.0 49:07.3 7:54 M 20 Ann Arbor MI
372 Campbell,Marie 2272 49:20.3 49:16.9 7:56 F 47 Ann Arbor MI
373 Duncan,Allen 2282 49:21.2 49:09.0 7:55 M 54 Dearborn MI
374 Van Sickle,Paul 2031 49:23.5 49:04.4 7:54 M 33 Sterling Heights MI
375 Widmann,David 1696 49:23.7 48:44.9 7:51 M 48 Fox Point WI
376 Tesmer,John 1536 49:24.8 49:05.5 7:54 M 42 Ann Arbor MI
377 Wooster,Julie 1731 49:25.9 48:47.1 7:51 F 24 Hernando Beach FL
378 Dorzey,Megan 2236 49:27.4 49:03.3 7:54 F 26
379 Warner,Jeffrey 1655 49:29.1 49:08.6 7:55 M 51 Temperance MI
380 Duvall,Jason 383 49:29.4 48:28.3 7:48 M 34 Ann Arbor MI
381 Mostek,Mark 1087 49:33.0 48:58.8 7:53 M 40 Livonia United States
382 Lubershane,Andrew 921 49:33.6 49:05.5 7:54 M 26 Ann Arbor U.S.A.
383 Servin Barrientos,J Jesus 2165 49:33.7 49:08.6 7:55 M 43
384 Helfers,Dillon 1868 49:33.9 49:09.5 7:55 M 20 Ann Arbor United States
385 Hein,Barrett 1867 49:34.1 49:16.3 7:56 F 36 Ann Arbor MI
386 Franklin,Wes 1842 49:35.2 48:39.5 7:50 M 42 Wheaton IL
387 Semifero,Jay 1389 49:35.7 49:01.9 7:53 M 19 Dexter MI
388 Miller,Jim 1044 49:36.3 49:20.6 7:56 M 28 Plymouth MI
389 Kirby,Marcus 786 49:37.3 48:57.8 7:53 M 43 Jackson MI
390 Gabriel,Alana 486 49:39.4 49:15.1 7:56 F 32 Northville United States
391 Harless,Anita 588 49:41.8 49:16.5 7:56 F 36 Holly MI
392 Harless,Andrew 587 49:41.9 49:16.7 7:56 M 36 Holly MI
393 Held,Tommy 616 49:44.3 49:01.0 7:53 M 21 Ann Arbor United States
394 Harrell,Sheri 591 49:45.3 49:16.0 7:56 F 43 Niles MI
395 Morton,Neal 1085 49:45.9 49:21.3 7:57 M 37 Pinckney United States
396 Kean,Adam 750 49:45.9 49:38.8 7:59 M 33 Ann Arbor MI
397 Blain,Michelle 2057 49:46.2 48:44.6 7:51 F 19 Shelby Township United States
398 Sorscher,Nick 1451 49:48.6 49:30.3 7:58 M 16 Ann Arbor MI
399 Bednarz,Bryan 77 49:50.3 49:18.4 7:56 M 28 Cohoes United States
400 Folk,Michael 456 49:50.5 48:58.7 7:53 M 28 Ann Arbor MI
401 Harkins,Lauren 586 49:50.6 49:18.3 7:56 F 27 Cohoes United States
402 Chang,Peter 2256 49:51.1 49:47.3 8:01 M 34 Novi MI
403 Napier,Sarah 1114 49:52.1 49:29.0 7:58 F 24 Clarkston MI
404 Marr,Brian 957 49:54.5 49:40.6 8:00 M 36 Saline United States
405 Brown,Graham 164 49:55.4 49:18.1 7:56 M 28 Ann Arbor MI
406 Brown,Kendall 166 49:55.7 49:18.4 7:56 F 27 Ann Arbor MI
407 Johnson,Darren 2233 49:55.9 49:44.8 8:00 M 40
408 Engling,Jason 1835 49:58.3 49:22.1 7:57 M 32 Ann Arbor MI
409 Keenan,Caelan 754 49:58.4 49:24.0 7:57 F 20 Ann Arbor MI
410 Doenitz,Amy 351 49:58.7 49:36.9 7:59 F 21 Plymouth United States
411 Roedel,Hunter 1304 50:00.1 49:24.5 7:57 M 12 Livonia MI
412 Witthoff,Stacy 2043 50:01.0 49:22.4 7:57 F 35 Canton MI
413 Poppens,Tiapko 2140 50:01.1 49:35.2 7:59 M 0
414 Jacques,Josh 699 50:02.1 49:41.1 8:00 M 27 Ann Arbor MI
415 Zych,Tim 2052 50:03.1 49:20.7 7:56 M 49 Alto MI
416 Watson,Margaret 1665 50:03.2 49:39.3 7:59 F 41 Chelsea MI
417 Stoel,Jim 1482 50:04.1 49:55.3 8:02 M 63 Demotte IN
418 Furey,Michael 1847 50:04.6 49:47.1 8:01 M 46 Ann Arbor United States
419 O'brien,Donald 2197 50:05.1 49:16.8 7:56 M 38
420 Zakerski,Andrew 1749 50:05.2 49:14.8 7:56 M 27 Ypsilanti U.S.
421 Kornacki,Kenneth 812 50:05.7 49:55.5 8:02 M 51 Lake Orion United States
422 Mullonkal,George 1098 50:06.4 49:52.6 8:02 M 25 Fraser MI
423 Harbaugh,Calista 584 50:06.8 49:16.4 7:56 F 23 South Lyon MI
424 Garton,Catherine 499 50:07.9 50:04.8 8:04 F 11 Ann Arbor MI
425 Garton,Hugh 500 50:08.0 50:04.1 8:03 M 43 Ann Arbor MI
426 Brodick,Mindy 2058 50:08.6 49:59.1 8:03 F 21 Grand Blanc MI
427 Buquet,Jason 181 50:09.1 49:31.5 7:58 M 37 Ann Arbor United States Of Ame
428 Fraumann,Robert 2216 50:11.1 49:43.5 8:00 M 32
429 Chen,Chelsea 237 50:11.1 49:43.3 8:00 F 27 Ann Arbor MI
430 Ward,Claire 1651 50:15.2 50:02.1 8:03 F 26 Ann Arbor U.S.
431 Day,Todd 1822 50:15.9 49:31.1 7:58 M 44 Ann Arbor MI
432 Davis,Michael 1821 50:17.4 49:36.2 7:59 M 34 Berkley MI
433 Snyder,Matt 1446 50:18.5 49:52.3 8:02 M 26 Huntersville NC
434 Sheuerman,Karen 1404 50:19.8 49:26.5 7:57 F 33 Dexter MI
435 Braid,David 149 50:21.5 50:07.5 8:04 M 20 Ann Arbor MI
436 Brown,Josh 165 50:21.8 49:53.7 8:02 M 33 Midland United States
437 Dismondy,Maria 347 50:24.7 50:15.6 8:05 F 32 Novi MI
438 Boedeker,Matthew 118 50:27.1 50:23.4 8:07 M 33 Clinton Township MI
439 Ruthenberg,Joe 1328 50:27.4 49:43.0 8:00 M 32 Ann Arbor MI
440 Goetz,Mindy 527 50:28.2 49:47.1 8:01 F 36 Blissfield United States
441 Evans,Julie 413 50:29.0 50:08.9 8:04 F 43 Ann Arbor United States
442 Nicholls,Lauren 1129 50:30.2 50:09.3 8:04 F 29 Ann Arbor MI
443 Van Houten,Allison 2183 50:31.7 49:42.8 8:00 F 26
444 Crist,Michael 294 50:34.3 50:10.6 8:04 M 46 Royal Oak United States
445 Richert,John 1977 50:37.4 50:32.2 8:08 M 43 Ann Arbor MI
446 Osetek,Anna 1955 50:39.1 50:14.6 8:05 F 27 Ann Arbor United States
447 Pai,Gopal 1957 50:40.1 49:01.6 7:53 M 25 Ann Arbor MI
448 Quinn,Tim 1265 50:40.5 49:59.3 8:03 M 35 Ann Arbor MI
449 Lemmen,Brian 1918 50:41.0 49:52.8 8:02 M 49 Holland MI
450 Walgreen,Drew 1641 50:42.1 50:18.9 8:06 M 24 Evanston IL
451 Guo,Kimberly 1857 50:42.9 50:01.0 8:03 F 28 Ann Arbor United States
452 Sood,Vik 2003 50:45.4 49:06.9 7:54 M 24 Ann Arbor MI
453 Chittle,Jane 240 50:46.1 50:29.8 8:08 F 41 Ann Arbor MI
454 Gilchrist,Patrick 518 50:46.1 50:27.3 8:07 M 16 Ann Arbor MI
455 Mclaughlin,Carly 2164 50:47.6 50:23.2 8:07 F 22
456 Weiler,Ashtyn 2113 50:47.7 50:29.8 8:08 F 14 Cass City MI
457 Takami,Mimi 2018 50:47.7 50:36.4 8:09 F 51 Ann Arbor MI
458 Churchhill,Eric 2063 50:47.8 50:29.7 8:08 M 15 Cass City MI
459 Prieskorn,Jessa 2098 50:47.9 50:29.8 8:08 F 16 Cass City MI
460 Goldberger,Zachary 529 50:49.3 50:04.1 8:03 M 33 Ann Arbor MI
461 Miklosovic,John 1034 50:50.3 50:16.6 8:05 M 32 Saline MI
462 Geva,Eitan 515 50:51.1 49:57.4 8:02 M 45 Ann Arbor MI
463 Lines,Emily 902 50:51.3 50:19.7 8:06 F 29 Ann Arbor MI
464 Lines,Samuel 903 50:51.5 50:19.9 8:06 M 29 Ann Arbor MI
465 Snyder,Renee 1447 50:54.0 50:27.8 8:07 F 26 Huntersville NC
466 Mione,John 1052 50:55.4 50:30.5 8:08 M 31 Sterling Heights United States
467 Lindstrom,Eric 901 50:55.6 50:28.4 8:07 M 41 Ann Arbor MI
468 Wiseman,Liz 1712 50:56.8 50:48.6 8:11 F 53 Nasville United States
469 Taylor,John 1527 50:56.8 47:33.9 7:39 M 30 Lansing MI
470 Benda,Hannah 87 50:57.8 50:03.9 8:03 F 21 Ann Arbor MI
471 Cherwinski,Jill 239 50:58.7 50:46.1 8:10 F 32 Montrose United States
472 Morlock,Rob 1076 51:01.2 50:35.9 8:09 M 41 White Lake MI
473 Hugel,Luke 673 51:01.5 50:21.6 8:06 M 33 West Bloomfield MI
474 Broniak,Brian 1785 51:02.7 50:11.6 8:05 M 33 Taylor United States
475 Crause,Ingrid 2263 51:02.9 50:44.2 8:10 F 47 Ann Arbor MI
476 Gudek,Elizabeth 2119 51:03.3 50:43.9 8:10 F 28
477 Orsini,Caitlin 1180 51:03.4 50:21.2 8:06 F 25 Ann Arbor United States Of Ame
478 Lequesne,Remy 884 51:03.6 50:46.9 8:10 M 26 Ann Arbor MI
479 Mcbride,Jason 984 51:03.7 50:02.0 8:03 M 32 Flushing MI
480 Mackley,Connie 933 51:04.2 50:52.9 8:11 F 43 Canton MI
481 Jacobs,Sarah 698 51:05.2 50:20.7 8:06 F 30 Monroe United States
482 Buchanan,Fred 174 51:06.6 50:31.6 8:08 M 31 Ann Arbor United States
483 Kosuth,Sara 815 51:06.9 50:23.8 8:07 F 21 Ann Arbor MI
484 Bracken,George 143 51:07.3 49:18.8 7:56 M 37 South Lyon MI
485 Buckley,Mary 177 51:08.9 50:37.0 8:09 F 19 Durham United States
486 Hall,Adam 573 51:09.2 50:51.6 8:11 M 21 Ann Arbor United States
487 Seidman,Jessica 1385 51:09.2 50:50.6 8:11 F 21 Ann Arbor MI
488 Holloway,Niall 1875 51:11.3 50:44.6 8:10 M 44 Ann Arbor MI
489 Turner,Samuel 1580 51:11.4 50:27.1 8:07 M 26 Ann Arbor MI
490 Hyde,Neal 682 51:13.7 50:51.1 8:11 M 30 Ann Arbor MI
491 Singleton,Jennifer 1423 51:14.6 50:46.0 8:10 F 23 Ann Arbor MI
492 Harrison,Dana 597 51:15.0 50:46.9 8:10 F 25 Ann Arbor MI
493 Castle,Kenneth 1799 51:16.5 50:40.0 8:09 M 52 Ypsilanti MI
494 Riester,Christoph 1978 51:16.7 50:40.9 8:09 M 41 Greer SC
495 Holtzman,Lisa 654 51:17.0 50:54.3 8:12 F 27 Ann Arbor United States
496 King,Angel 2204 51:17.6 50:54.0 8:11 F 27
497 Wiggins,Heather 1700 51:18.0 50:41.7 8:10 F 32 Ann Arbor MI
498 Upmeyer,Steven 2030 51:19.7 50:35.7 8:09 M 52 Northville MI
499 O'malley,Brendan 1171 51:21.3 50:47.0 8:10 M 28 Canton United States
500 Cran,Karl 288 51:21.5 50:12.6 8:05 M 20 Ann Arbor MI
501 Holland,Benjamin 1874 51:23.7 49:41.7 8:00 M 27 Jackson MI
502 Harris,Susan 596 51:25.3 50:56.1 8:12 F 45 Ann Arbor United States
503 Cagle,Jody 197 51:25.5 50:36.1 8:09 M 32 Royal Oak MI
504 Lentine,Joseph 883 51:25.6 50:37.0 8:09 M 31 Chesterfield MI
505 Reinke,Ashley 1281 51:26.4 50:56.0 8:12 F 26 Ann Arbor MI
506 Hutto,Glenn 679 51:27.4 51:13.8 8:15 M 35 Royal Oak U.S.
507 Mikula,Gordon 1037 51:28.6 50:47.5 8:10 M 59 Warren MI
508 Phelps,Karen 1220 51:28.6 50:49.9 8:11 F 41 Saline MI
509 Quinn,Mike 1264 51:28.8 50:50.3 8:11 M 47 Trenton MI
510 Shiraishi,Kenji 1410 51:29.4 50:37.8 8:09 M 33 Ann Arbor MI
511 Aribarg,Anocha 39 51:30.0 50:34.7 8:08 F 36 Ann Arbor MI
512 Callaghan,Daniel 207 51:31.7 50:50.0 8:11 M 22 Eastpointe MI
513 Brown,Nathan 168 51:32.8 50:56.2 8:12 M 32 Fayetteville NC
514 Szydlowski,David 2017 51:36.5 51:22.2 8:16 M 40 Dexter MI
515 Kubert,Art 1902 51:37.2 50:55.8 8:12 M 49 Novi MI
516 Carson,Dave 220 51:38.3 51:12.8 8:15 M 54 Ann Arbor MI
517 Eiler,Jerrett 393 51:38.6 50:35.9 8:09 M 34 Ypsilanti MI
518 Ring,Daniel 1293 51:38.7 51:14.5 8:15 M 21 Bethel CT
519 Mizumoto,Toshihiro 1948 51:38.8 50:32.1 8:08 M 36 Ann Arbor Washtenaw
520 Kuzia,Kirk 2084 51:39.0 48:24.9 7:47 M 25 South Lyon United States
521 Cicotte,Michael 244 51:40.0 51:09.7 8:14 M 46 Westland MI
522 Nosal,Catherine 1146 51:41.1 51:24.5 8:16 F 22 Ann Arbor MI
523 Farner,Annie 424 51:44.1 51:11.2 8:14 F 20 Kalamazoo United States
524 Farner,Mary 425 51:44.2 51:10.5 8:14 F 16 Kalamazoo United States
525 Kaper,Heather 739 51:44.5 51:11.7 8:14 F 37 Ypsilanti MI
526 West,Dan 1686 51:45.0 51:17.0 8:15 M 37 Livonia United States
527 Heffelfinger,Tammy 613 51:47.8 51:26.5 8:17 F 38 Pinckney United States
528 Dargis,Pascale 1820 51:48.8 51:21.3 8:16 F 22 Ann Arbor MI
529 Moore,Carrie 1068 51:48.8 51:13.5 8:15 F 27 Ann Arbor MI
530 Zick,Benjamin 1754 51:49.7 50:16.8 8:05 M 32 Jackson MI
531 Treder,Marcy 1566 51:49.8 51:28.0 8:17 F 39 Belleville United States
532 Gorski,Kathleen 1854 51:51.9 51:01.5 8:13 F 21 Ann Arbor MI
533 Reed,Frank 1277 51:52.9 51:06.9 8:14 M 25 Ann Arbor United States
534 Pope,Scott 1245 51:53.1 51:07.4 8:14 M 27 Holland MI
535 Fukumoto,Makoto 1845 51:53.7 51:27.5 8:17 M 55 Woodhaven MI
536 Rumley,David 1323 51:57.0 51:34.2 8:18 M 47 Westland MI
537 Adkins,Kevin 5 51:57.1 51:09.8 8:14 M 39 Dexter MI
538 Crower,Laura 296 51:57.9 51:31.3 8:17 F 25 Midland U.S.
539 Miller Jr,Jeremy 1946 51:57.9 50:49.3 8:11 M 16 New Boston MI
540 Wolf,Kristy 1725 51:58.0 51:24.1 8:16 F 31 Clinton Township MI
541 Cavanaugh,Sarah 225 51:59.1 51:43.4 8:19 F 36 Ypsilanti MI
542 Michalik,Michele 1029 51:59.3 51:09.8 8:14 F 40 Plymouth MI
543 Bollenbacher,Jenni 2155 51:59.6 51:36.3 8:18 F 20
544 Slaats,Paul 1427 52:00.4 51:21.6 8:16 M 44 Ann Arbor MI
545 Hendricks,Richard 622 52:03.0 51:43.4 8:19 M 59 Saline MI
546 Ross,Kristin 1314 52:03.3 51:19.4 8:16 F 36 Onsted MI
547 Mckanna,Brian 1000 52:03.6 51:04.1 8:13 M 35 Rockford MI
548 Kickland,Erich 776 52:07.7 50:48.4 8:11 M 37 Midland United States
549 Jordan,Jane 734 52:09.4 51:47.6 8:20 F 44 Saginaw MI
550 Wiseman,Shannon 1713 52:11.0 51:25.6 8:17 F 53 Ypsilanti MI
551 Moede,Doug 2157 52:11.5 51:47.1 8:20 M 0
552 Gleit,Rebecca 524 52:12.1 51:51.0 8:21 F 19 Ann Arbor MI
553 Church,Samantha 242 52:12.1 51:31.3 8:17 F 25 Ypsilanti United States
554 Eliassen,Anna 396 52:12.5 51:44.6 8:20 F 24 Ann Arbor United States
555 Mendez,Heladio 1018 52:13.4 51:49.3 8:20 M 48 Ann Arbor MI
556 Bryan,Alexander 171 52:15.3 52:02.0 8:22 M 24 Ann Arbor MI
557 Sexton,Matthew 1396 52:15.4 51:08.3 8:14 M 26 Ann Arbor MI
558 Trudeau,Jason 2111 52:20.7 52:06.4 8:23 M 29 Washington MI
559 Warolin,Carrie 1657 52:24.3 51:35.7 8:18 F 43 Jackson MI
560 Walsh,Theresa 1647 52:24.9 51:34.0 8:18 F 20 Jackson MI
561 Setter,Amy 2105 52:25.8 52:15.9 8:25 F 20 Grand Blanc MI
562 Hackmann,John 1858 52:26.1 51:50.1 8:21 M 44 Ypsilanti MI
563 Pope,Ryanne 1244 52:27.0 51:41.0 8:19 F 27 Holland MI
564 Mccarthy,Pearse 988 52:27.3 51:55.7 8:21 M 22 Plymouth United States
565 Scott,Greg 1378 52:30.1 51:20.3 8:16 M 50 Carleton MI
566 Wiersema,Mn 2116 52:30.3 51:53.1 8:21 F 39 Ann Arbor United States
567 Ortiz,Carlos 1181 52:32.3 50:59.5 8:12 M 31 Ann Arbor MI
568 Tobias,Damon 1551 52:32.6 52:12.0 8:24 M 42 MT. Morris Genesee
569 Schu,Josh 1363 52:32.9 51:31.1 8:17 M 31 Gaines MI
570 Bruell,Daniel 170 52:33.1 51:41.6 8:19 M 52 Ann Arbor MI
571 Melnarik,Lisa 1016 52:33.7 51:54.3 8:21 F 24 Ann Arbor United States
572 Smith,Haley 1435 52:34.5 51:32.7 8:18 F 22 Bronson United States
573 Wade,Ron 2035 52:34.6 51:42.8 8:19 M 39 Plymouth, United States
574 Kerr,Jeffrey 770 52:35.1 51:53.4 8:21 M 51 Belleville MI
575 Leach,David 867 52:36.4 52:22.1 8:26 M 46 Ann Arbor United States
576 Lister,Tracy 906 52:37.6 51:59.7 8:22 F 42 Ann Arbor MI
577 Kupras,James 838 52:38.2 52:03.8 8:23 M 31 Farmington MI
578 Miura,Hidefumi 1058 52:38.9 51:54.8 8:21 M 48 Northville MI
579 Aldrich,Kennedy 12 52:39.5 51:57.5 8:22 F 15 Stockbridge MI
580 Osentoski,Avery 1183 52:40.1 51:57.8 8:22 M 15 Chelsea U.S.A.
581 Lister,David 905 52:40.4 52:03.1 8:23 M 42 Ann Arbor MI
582 Mayer,Kenneth 978 52:40.5 52:26.9 8:26 M 36 Ypsilanti MI
583 Trenkle,Jim 1569 52:41.0 52:20.3 8:25 M 44 Davison MI
584 Greenstein,Alexander 551 52:41.5 52:35.4 8:28 M 21 West Bloomfield United States
585 Dolan,Chris 354 52:42.1 51:35.6 8:18 M 18 Sterling Heights United States
586 Hsia,Grace 668 52:42.2 52:22.4 8:26 F 20 Ann Arbor MI
587 Korycinski,Steven 814 52:42.6 52:15.6 8:25 M 20 Ann Arbor United States
588 Baker,Stan 2161 52:43.7 51:55.9 8:21 M 50
589 Duchateau,Julie 373 52:44.6 52:21.0 8:25 F 35 Ann Arbor United States
590 Chehebar,Benjamin 236 52:45.7 51:35.1 8:18 M 21 Ann Arbor MI
591 Mccarthy,Michael 987 52:48.9 52:17.7 8:25 M 50 Plymouth United States
592 Long,Rich 2158 52:49.7 52:09.8 8:24 M 0
593 Amerman,Tom 22 52:50.4 52:17.0 8:25 M 56 Saline MI
594 Lubig,John 1922 52:50.5 52:11.2 8:24 M 45 Livonia MI
595 Beckers,Holly 76 52:51.2 52:01.7 8:22 F 27 Ypsilanti MI
596 Jenisto,Rohina 2124 52:52.5 51:52.7 8:21 F 20
597 Decker,Aaron 327 52:54.4 51:41.4 8:19 M 29 Coldwater MI
598 Nguyen,Daniel 1128 52:54.8 52:01.2 8:22 M 17 Rochester Hills United States Of Ame
599 Holmes,Ann Marie 652 52:57.1 52:25.0 8:26 F 36 Riverview MI
600 Melton,Marc 1942 52:57.7 52:18.1 8:25 M 36 Northville United States
601 Sullivan,Daniel 1492 52:58.5 52:31.6 8:27 M 26 West Bloomfield MI
602 Thompson,Nicole 1549 52:59.8 52:04.2 8:23 F 30 Livonia United States
603 London,Manette 35 53:01.2 52:46.8 8:30 F 54 Chelsea MI
604 Hatlem,Blake 2079 53:02.0 51:56.8 8:22 M 38 Saline United States
605 Ruel,Gabe 2101 53:02.3 52:43.6 8:29 M 17 Ann Arbor MI
606 Weiler,Dave 2114 53:02.5 52:44.0 8:29 M 40 Cass City MI
607 Hall,Jon 1859 53:03.8 52:38.3 8:28 M 43 Ann Arbor MI
608 Batts,Amy 69 53:04.8 52:38.6 8:28 F 28 Grand Haven MI
609 Salisbury,Mike 1336 53:05.5 52:39.2 8:28 M 28 Grandville Kent
610 Desjarlais,Eric 340 53:05.8 51:37.7 8:19 M 17 Plymouth MI
611 Greenwood,Bryan 553 53:06.0 51:44.9 8:20 M 26 Ann Arbor MI
612 Sorscher,Sam 1452 53:06.1 52:46.2 8:30 M 14 Ann Arbor MI
613 Setty,Rohit 1392 53:06.4 52:31.4 8:27 M 33 Ann Arbor MI
614 Miller,Bob 1039 53:06.6 52:31.7 8:27 M 46 Ann Arbor United States
615 Mayer,David 977 53:06.8 52:53.6 8:31 M 33 Ann Arbor MI
616 Wickware,Mary 1695 53:06.9 51:06.2 8:13 F 54 Fraser MI
617 Smith,Chelsea 1432 53:10.2 52:39.0 8:28 F 22 Frankenmuth MI
618 Bednarz,Kenton 78 53:10.9 52:39.8 8:29 M 30 Northville MI
619 Page,Jared 1188 53:10.9 52:40.3 8:29 M 30 Ann Arbor MI
620 Thompson,Brittany 1547 53:11.1 52:44.4 8:29 F 26 Chicago IL
621 Salo,Rick 1337 53:11.4 52:01.9 8:22 M 44 Carleton MI
622 Lauer,Patrick 861 53:12.6 52:27.1 8:26 M 35 Ypsilanti MI
623 Buti,Rob 2210 53:12.6 53:01.5 8:32 M 47
624 Kimberly,Nathan 780 53:14.1 52:32.4 8:27 M 23 Mansfield OH
625 Stegmeier,Nicole 1474 53:15.7 52:42.9 8:29 F 19 Rockford United States
626 Bourne,Keith 134 53:17.2 53:00.9 8:32 M 34 Ann Arbor MI
627 Irwin,Meredith 693 53:21.0 52:42.6 8:29 F 27 Ann Arbor MI
628 Start,Lauren 1469 53:23.1 52:44.8 8:29 F 27 Ann Arbor MI
629 Schembri,Jenny 1355 53:26.4 51:57.0 8:22 F 38 Northville MI
630 Moneypenny,Scott 1060 53:27.5 52:53.6 8:31 M 42 Ann Arbor MI
631 Waslawski,Sheila 1662 53:30.2 52:57.5 8:31 F 19 Ann Arbor MI
632 Bieberich,Kent 101 53:30.6 52:48.2 8:30 M 48 Battle Creek MI
633 Schroeder,Amanda 1361 53:31.3 52:35.8 8:28 F 27 Pinckney United States
634 Pink-baker,Laura 2162 53:31.7 52:43.6 8:29 F 44
635 Steiner,Jennifer 1475 53:32.1 52:56.4 8:31 F 38 Chicago IL
636 Kueck,Angela 1904 53:33.0 52:47.8 8:30 F 37 Ann Arbor MI
637 Korenchuk,David 811 53:33.5 52:45.5 8:29 M 38 Royal Oak MI
638 Greenberg,Samantha 1855 53:35.3 53:01.7 8:32 F 21 Ann Arbor MI
639 Markey,Jim 954 53:35.5 52:37.2 8:28 M 48 Ann Arbor MI
640 Maturo,Raymond 974 53:36.7 53:01.1 8:32 M 54 Ann Arbor MI
641 Raad,Matthew 1266 53:37.3 53:25.0 8:36 M 26 Ann Arbor United States
642 Gillett,Bob 520 53:37.5 52:46.6 8:30 M 61 Ann Arbor MI
643 Lee,Joy 871 53:37.5 52:01.6 8:22 F 28 Ann Arbor MI
644 Terman,Matt 1535 53:38.7 52:46.2 8:30 M 24 Clinton Township U.S.A.
645 Lassaline,Heidi 1907 53:38.8 53:02.6 8:32 F 50 Ann Arbor United States
646 Kuschinsky,Nancy 841 53:39.8 53:10.5 8:33 F 33 Plymouth MI
647 Jedele,Emily 708 53:39.9 52:38.3 8:28 F 21 East Lansing MI
648 Charow,Mike 235 53:39.9 53:11.2 8:34 M 42 Saint Clair Shores MI
649 Zych,Maddie 2051 53:40.3 52:41.9 8:29 F 19 Alto MI
650 Wagenhauser,Lisa 2112 53:40.5 53:04.7 8:33 F 31 Temperance MI
651 Carson,Arvin 219 53:40.9 53:19.5 8:35 M 29 Taylor MI
652 Vinekar,Kavita 1614 53:41.5 52:48.5 8:30 F 23 Ann Arbor MI
653 Oates,John 1153 53:41.6 52:40.2 8:29 M 45 Commerce Twp MI
654 Lauer,Heather 860 53:42.0 52:56.5 8:31 F 36 Ypsilanti MI
655 Duong,Kevin 382 53:43.2 52:50.5 8:30 M 23 Plymouth MI
656 Pollack,Melanie 1241 53:43.3 53:40.1 8:38 F 20 Ann Arbor MI
657 Zych,Michelle 2279 53:43.3 52:44.8 8:29 F 45 Alto MI
658 Engler,Adam 402 53:43.6 51:47.2 8:20 M 25 Clarkston MI
659 Demeester,James 334 53:44.0 52:23.4 8:26 M 34 Ann Arbor MI
660 Herrera,Eugene 627 53:44.1 52:31.2 8:27 M 61 Ann Arbor MI
661 Veling,Anne 1609 53:45.0 53:28.1 8:36 F 30 Ann Arbor MI
662 Serrano,Gustavo 1390 53:45.2 53:18.5 8:35 M 33 Ann Arbor MI
663 Fernandes,Andre 435 53:46.5 53:18.7 8:35 M 29 Ann Arbor MI
664 Webber,Sean 1672 53:47.1 52:57.5 8:31 M 32 Brighton MI
665 Zimmer,Erin 1756 53:47.4 52:42.0 8:29 F 30 Ann Arbor MI
666 Gielczyk,Ben 517 53:48.7 53:23.2 8:35 M 29 Lansing United States
667 Larson,David 859 53:51.3 53:12.9 8:34 M 58 Birmingham MI
668 Peard,Thomas 2094 53:52.9 52:42.6 8:29 M 43 Birmingham MI
669 Treharne,Daniel 1568 53:55.1 52:59.6 8:32 M 27 Novi MI
670 Ellis,Holly 2261 53:55.1 53:00.3 8:32 F 46 Ann Arbor MI
671 Armstrong,Jennifer 40 53:55.1 53:00.0 8:32 F 46 Manchester MI
672 Kloehn,Alex 799 53:55.6 53:25.2 8:36 M 25 Ann Arbor MI
673 Whitfield,Terry 1691 53:56.9 52:58.8 8:32 M 48 Novi MI
674 Burek,Karen 2134 53:58.6 53:14.1 8:34 F 57
675 Faraoni,Tracy 2075 53:59.9 53:14.2 8:34 F 44 Westland MI
676 Zarinnia,Christina 2127 54:00.0 53:12.2 8:34 F 39
677 Carroll,Thad 218 54:00.2 51:49.6 8:20 M 35 Ypsilanti MI
678 Berkowitz,Julie 98 54:00.5 53:15.1 8:34 F 22 Ann Arbor MI
679 Watson,Dennis 2175 54:00.7 53:01.6 8:32 M 56
680 Effron,Morgan 392 54:00.8 53:58.0 8:41 F 20 Ann Arbor MI
681 Stewart,Dan 1480 54:01.5 53:15.2 8:34 M 47 Ann Arbor MI
682 Allen,Richard 18 54:02.6 53:19.2 8:35 M 45 Ann Arbor MI
683 Borders,Angie 125 54:06.1 53:22.4 8:35 F 33 Adrian MI
684 Parzen,David 1197 54:06.8 53:03.2 8:32 M 32 Ann Arbor MI
685 Ciechanowski,Ata 245 54:07.2 53:03.6 8:32 M 40 Ypsilanti MI
686 Dreyer,Rachael 369 54:07.4 53:46.4 8:39 F 29 Ann Arbor MI
687 Mosher,Amy 1086 54:07.4 53:00.5 8:32 F 40 Ypsilanti MI
688 Madias,John 1926 54:08.8 52:33.2 8:27 M 31 Novi United States
689 Umeda,Mitsunobu 1587 54:09.2 53:05.5 8:33 M 31 Ann Arbor MI
690 Wright,Carrie 1732 54:09.5 53:48.8 8:40 F 39 Elmhurst IL
691 Barretta,Jami 63 54:09.6 53:06.9 8:33 F 21 Ann Arbor MI
692 Maslowsky,Jennifer 967 54:10.9 53:06.4 8:33 F 25 Leonard MI
693 Pierson,Mary Margaret 1229 54:11.8 53:39.3 8:38 F 24 Saline MI
694 White,Megan 1690 54:11.9 53:54.2 8:40 F 14 Marysville MI
695 Lapedis,Marissa 855 54:12.3 53:22.8 8:35 F 21 Ann Arbor MI
696 Sanford,Jason 1987 54:12.7 53:56.1 8:41 M 35 Bloomfield Hills MI
697 Ruvinsky,Nina 1329 54:13.9 52:54.5 8:31 F 24 Ann Arbor MI
698 Beatty,Erin 73 54:14.0 53:06.5 8:33 F 27 Brownstown MI
699 Davis,Craig 316 54:15.1 53:31.4 8:37 M 33 Arlington Heights IL
700 Pistone,Amy 1233 54:15.2 53:53.7 8:40 F 24 Ann Arbor MI
701 Soule,Scott 1453 54:15.5 52:57.4 8:31 M 45 Three Rivers ST. Joseph
702 Moore,Karen 1950 54:17.0 53:29.7 8:37 F 41 Northville United States
703 Moore,Jay 1949 54:17.1 53:29.3 8:36 M 41 Northville United States
704 Behlow,Curt 79 54:18.7 52:56.2 8:31 M 38 Ann Arbor MI
705 Walworth,Kari 1649 54:23.0 53:24.1 8:36 F 38 Ann Arbor MI
706 Ervin,Melissa 405 54:23.7 54:01.0 8:42 F 28 Warren United States
707 Taut,Andrei 1523 54:23.9 53:40.7 8:38 M 23 Ann Arbor MI
708 Carr,Diane 215 54:26.0 53:46.3 8:39 F 50 Ann Arbor MI
709 Lavalard,Pierre 863 54:27.6 54:04.7 8:42 M 59 Ann Arbor MI
710 Lypen,Kate 2259 54:28.0 53:44.5 8:39 F 20 Ann Arbor MI
711 Levins,Ashley 1919 54:28.0 53:49.9 8:40 F 20 Rochester United States
712 Bishop,Allison 107 54:29.2 53:26.6 8:36 F 34 Ann Arbor MI
713 Gardner,Kate 497 54:29.7 53:52.3 8:40 F 21 Farmington Hills United States
714 Lee,Michael 872 54:30.0 54:03.9 8:42 M 36 Millford MI
715 Sadur,Melanie 1332 54:30.1 53:41.7 8:38 F 20 Ann Arbor MI
716 Griffin,Suzanne 561 54:30.7 54:06.0 8:42 F 46 Raleigh NC
717 Griffin,Michael 560 54:30.8 54:06.2 8:42 M 44 Pinckneyville IL
718 Stines,Terry 1481 54:32.0 53:34.5 8:37 F 24 Lansing MI
719 Lemmen,Alex 877 54:32.0 53:44.7 8:39 M 20 Holland MI
720 Desandre,David 1827 54:32.3 53:49.2 8:40 M 48 Northville United States
721 Millar,Mary 2286 54:33.0 53:44.6 8:39 F 45 Rockford MI
722 Schmitt,Brittany 1359 54:33.3 53:44.9 8:39 F 20 Ann Arbor MI
723 Tighe,Lauren 2024 54:33.5 54:00.8 8:42 F 22 Ann Arbor MI
724 Danziger,Jacob 309 54:34.1 54:05.2 8:42 M 29 Ann Arbor United States
725 Harvey,Kaitlin 600 54:34.4 53:15.7 8:34 F 25 Tekonsha MI
726 Mallette,Douglas 942 54:35.2 53:46.3 8:39 M 32 Toledo OH
727 Krishnan,Naroo 826 54:35.6 49:00.2 7:53 M 33 Ann Arbor MI
728 Kirk,Josh 789 54:37.3 53:47.1 8:39 M 33 Livonia MI
729 Kirk,Maria 790 54:37.4 53:47.4 8:39 F 32 Livonia MI
730 Matteson,David 972 54:38.9 53:44.8 8:39 M 32 Ann Arbor MI
731 Iliev,Simeon 687 54:38.9 54:30.9 8:46 M 61 Ann Arbor MI
732 Naab,Adam 1107 54:39.4 53:45.2 8:39 M 25 Kalamazoo United States
733 Peron,Therese 1210 54:39.7 54:06.2 8:42 F 25 Bloomfield Hills MI
734 Tarantino,Matthew 2020 54:40.2 54:08.7 8:43 M 26 Ann Arbor MI
735 Ladue,Tyler 847 54:40.7 54:01.4 8:42 M 23 Ann Arbor United States
736 Son,Andrea 1450 54:40.9 53:48.2 8:40 F 21 Ann Arbor MI
737 Sabatowich,Dennis 1331 54:40.9 54:28.4 8:46 M 56 Detroit MI
738 Kleeman,Kellianne 796 54:41.1 53:51.8 8:40 F 23 Ann Arbor MI
739 Scheidler,Bill 1354 54:41.4 54:02.3 8:42 M 23 Ann Arbor MI
740 Seltz,Emily 1387 54:41.6 53:52.7 8:40 F 37 Ypsilanti MI
741 Marzolf,Lauren 965 54:41.9 53:43.0 8:39 F 26 Livonia MI
742 Farmer,Brie 423 54:43.2 54:21.1 8:45 F 21 Ann Arbor MI
743 Winn,Erica 1711 54:44.2 54:14.1 8:44 F 30 Ann Arbor MI
744 Neagle,Matthew 1115 54:44.4 54:14.1 8:44 M 32 Ann Arbor MI
745 Lukela,Jennifer 923 54:45.3 54:05.6 8:42 F 38 Ann Arbor MI
746 Smith,Liz 1438 54:45.5 53:39.4 8:38 F 24 Ann Arbor Washtenaw
747 Werth,Cordell 1685 54:45.9 54:07.5 8:43 M 60 Brighton MI
748 Heinze,Justin 615 54:46.4 53:51.1 8:40 M 29 Ann Arbor MI
749 Stead,Aidan 1472 54:47.8 54:19.2 8:45 M 10 Ann Arbor MI
750 Webber,Jocelyn 1671 54:48.1 53:28.5 8:36 F 28 Chelsea MI
751 Stead,Christine 1473 54:48.1 54:19.6 8:45 F 38 Ann Arbor MI
752 Danziger,Phoebe 310 54:48.6 54:19.6 8:45 F 27 Ann Arbor United States
753 Sullivan,Joe 1494 54:50.7 53:50.6 8:40 M 36 Pinckney MI
754 Foster,Jeffrey 464 54:51.8 54:15.2 8:44 M 42 Commerce Township MI
755 Light,Kristen 899 54:52.5 53:26.6 8:36 F 31 Ann Arbor MI
756 Loding,Katie 914 54:53.3 53:49.7 8:40 F 28 Ann Arbor MI
757 Kirchoff,Brad 787 54:53.5 53:50.5 8:40 M 47 Canton MI
758 Abell,Shelby 2055 54:54.6 54:36.6 8:47 F 16 Cass City MI
759 Smirnov,Katie 1430 54:54.9 53:58.6 8:41 F 28 Ann Arbor MI
760 Goff,David 528 54:55.2 53:19.8 8:35 M 42 Ypsilanti United States
761 Van Oostenburg,Dana 1597 54:55.8 54:29.5 8:46 F 19 Grand Rapids United States
762 Schaff,Riley 2288 54:55.9 54:29.4 8:46 M 19 Ann Arbor United States
763 Mihelick,David 1031 54:56.1 54:10.1 8:43 M 49 Canton MI
764 Sattler,Janine 1350 54:56.2 53:57.1 8:41 F 33 Commerce Twp MI
765 Hoffmann,Jens 641 54:56.4 53:57.5 8:41 M 31 Commerce Twp MI
766 Terman,Donna 1534 54:58.3 54:05.8 8:42 F 24 Clinton Township U.S.A.
767 Foster,Brenda 2281 54:59.6 54:15.3 8:44 F 57 Ann Arbor MI
768 Wares,Emily 1653 54:59.8 54:27.5 8:46 F 29 South Lyon United States
769 Hamzik,Tricia 580 55:00.3 54:08.0 8:43 F 44 New Baltimore MI
770 Taylor,Stephan 1529 55:01.4 54:23.5 8:45 M 52 Ann Arbor United States
771 Dolliver,Melissa 2230 55:01.8 54:18.1 8:44 F 38
772 Brinkerhoff,William 156 55:02.7 54:01.2 8:42 M 45 Ann Arbor MI
773 Dargis,Genevieve 1819 55:03.5 54:35.6 8:47 F 47 Ann Arbor MI
774 Kruse,Jim 833 55:04.9 54:37.6 8:47 M 67 Port Huron MI
775 Mizumoto,Satoe 1947 55:05.0 53:58.2 8:41 F 36 Ann Arbor Washtenaw
776 Frankel,Robert 1841 55:05.1 54:35.3 8:47 M 27 Farmington Hills United States
777 Goldberg,Alison 1853 55:05.2 54:35.6 8:47 F 26 Farmington Hills MI
778 Zink,Dennie Jo 2050 55:05.2 54:03.9 8:42 F 37 Commerce Twp MI
779 Berkowitz,Ira 97 55:05.3 54:03.6 8:42 M 49 West Bloomfield MI
780 Reindel,Stephanie 1279 55:05.4 54:02.3 8:42 F 39 Canton MI
781 Gwisdala,Matt 568 55:05.7 54:33.1 8:47 M 25 Midland MI
782 Gwisdala,Hilary 567 55:05.7 54:33.1 8:47 F 26 Midland MI
783 Johnson,Sarah 730 55:06.8 54:03.8 8:42 F 29 South Lyon MI
784 Howe,Gregory 665 55:08.6 52:32.8 8:27 M 49 Saline MI
785 Munteanu,Magda 1099 55:08.9 53:42.5 8:39 F 30 Ann Arbor MI
786 Green,Jim 547 55:09.2 54:17.2 8:44 M 48 South Lyon MI
787 Jackson,Laura 2120 55:09.9 54:57.2 8:51 F 21
788 Willaert,Steve 1702 55:11.0 54:21.5 8:45 M 47 Ann Arbor MI
789 Jorgensen,Johnathon 736 55:11.1 54:10.7 8:43 M 20 Berrien Springs MI
790 Feijoo,Trisha 431 55:11.2 54:11.0 8:43 F 20 Berrien Springs MI
791 Raskin,Lutgarde 1275 55:11.4 54:45.9 8:49 F 45 Ann Arbor MI
792 Meyer,Erica 1025 55:13.1 54:41.7 8:48 F 20 Frankenmuth United States
793 Derbinsky,Nate 337 55:13.3 54:33.2 8:47 M 26 Ann Arbor MI
794 Waller,Thomas 1643 55:13.8 54:12.2 8:43 M 33 Farmington Hills MI
795 Kroggel,Daniel 828 55:15.0 55:02.0 8:51 M 28 Toledo Lucas
796 Evans,Matthew 414 55:15.1 54:07.4 8:43 M 27 Flint MI
797 Kriscunas,Katherine 825 55:15.4 54:33.0 8:47 F 27 Ann Arbor MI
798 Sylvester,Tracy 2270 55:15.7 54:04.4 8:42 M 43 Presto PA
799 Peirce,Alysa 1203 55:16.8 54:08.9 8:43 F 27 Ann Arbor MI
800 Silcox,Zachary 1418 55:16.9 54:09.1 8:43 M 12 Carleton MI
801 Wohl,Myles 1719 55:21.2 54:13.3 8:44 M 34 Clarkston MI
802 Huffman,Raquel 671 55:22.3 54:49.7 8:49 F 29 Ypsilanti MI
803 Huber,Nick 670 55:25.7 54:11.8 8:43 M 29 Perrysburg OH
804 Mabley,Sarah 931 55:26.0 55:06.9 8:52 F 27 Ann Arbor MI
805 Mccurrach,Catherine 993 55:26.2 55:06.5 8:52 F 42 Ann Arbor MI
806 Webb,Kevin 1668 55:28.2 54:51.4 8:50 M 54 Jackson MI
807 Lobert,Alyson 912 55:28.4 54:12.7 8:43 F 28 Walled Lake MI
808 King,Kaitlin 784 55:31.9 54:45.9 8:49 F 30 Ann Arbor MI
809 Radant,Cari 1268 55:31.9 54:47.4 8:49 F 30 Adrian MI
810 Kinzel,Dave 785 55:33.9 55:11.4 8:53 M 34 Hudson OH
811 Fisher,Sylvia 445 55:35.5 54:54.2 8:50 F 18 Palmyra United States
812 Strack,Heather 2014 55:35.8 54:51.7 8:50 F 35 Adrian MI
813 Meyer,Carin 1024 55:35.9 54:14.0 8:44 F 36 Farmington Hills MI
814 Carrick,Randi 1798 55:37.5 54:37.3 8:47 F 38 West Bloomfield MI
815 Whitworth,Jennifer 1692 55:37.7 55:03.5 8:52 F 22 Adrian United States
816 Campbell,Brandon 210 55:38.3 55:04.6 8:52 M 32 Carleton MI
817 Baker,James 56 55:38.7 54:38.6 8:48 M 64 Clinton MI
818 Fanelli,Emily 2246 55:39.2 52:29.7 8:27 F 31
819 Norris,Kevin 1143 55:39.6 54:36.1 8:47 M 50 Ann Arbor MI
820 Moy,Alvin 1089 55:39.7 55:12.0 8:53 M 29 Ann Arbor United States
821 Restum,Ghada 1284 55:40.9 54:56.3 8:50 F 40 Dearborn MI
822 Kimberly,Ryan 781 55:42.3 55:00.8 8:51 M 31 Parkersburg WV
823 Yopko,Bob 1741 55:44.2 55:14.9 8:53 M 50 Chelsea MI
824 Tudor,Rob 1577 55:44.6 53:58.1 8:41 M 47 South Lyon MI
825 Johnson,Emilie 716 55:45.9 54:51.2 8:50 F 30 Ann Arbor MI
826 Kehn,Thomas 2128 55:46.3 54:10.6 8:43 M 45
827 Elliott,Scott 398 55:47.0 55:11.9 8:53 M 61 Ypsilanti MI
828 Xia,Gary 1734 55:47.4 54:53.9 8:50 M 20 Ann Arbor United States
829 Hoke,Melodie 647 55:48.3 55:08.1 8:52 F 19 Ann Arbor United States
830 Li,Amy 892 55:48.5 54:56.2 8:50 F 26 Ann Arbor MI
831 Fabry,Michael 419 55:49.0 54:14.7 8:44 M 34 Brighton MI
832 Ouellette,Vickie 1184 55:50.0 55:06.5 8:52 F 36 Manitou Beach United States
833 Mchugh,Walker 999 55:51.8 54:48.3 8:49 M 20 Ann Arbor MI
834 Fortier,Michelle 462 55:51.9 55:16.6 8:54 F 39 Wixom MI
835 Bartlett,Brandon 64 55:52.6 54:41.3 8:48 M 30 Royal Oak United States
836 Mackenzie,Robert 1924 55:55.0 54:35.9 8:47 M 63 Ann Arbor MI
837 Burns,April 187 55:56.3 55:38.1 8:57 F 39 Ann Arbor MI
838 Wojtkowski,Walter 1722 55:56.6 55:21.1 8:54 M 28 Clawson MI
839 Masi,Kathryn 966 55:56.9 55:21.0 8:54 F 24 Ann Arbor MI
840 Whetstone,Zachary 2115 55:57.1 55:20.7 8:54 M 27 Ann Arbor MI
841 Stowell,Brianne 1484 55:57.9 54:35.2 8:47 F 22 Ann Arbor MI
842 Floros,Demetra 1840 55:57.9 55:27.5 8:55 F 31 Lasalle Canada
843 Pantaleo,Rick 1191 55:59.0 55:24.6 8:55 M 57 Novi MI
844 Axe,Michelle 46 55:59.1 55:25.0 8:55 F 32 Farmington Hills MI
845 Nusbaum,Douglas 1151 55:59.6 55:41.3 8:58 M 40 Rossford OH
846 Haubert,Mark 603 56:00.7 54:43.5 8:48 M 62 Eaton Rapids MI
847 Takahashi,Keiji 1512 56:00.8 54:32.4 8:47 M 31 Novi MI
848 Reed,Joseph 1278 56:02.0 55:08.5 8:52 M 20 Ann Arbor MI
849 Ruschak,Amy 1325 56:02.2 54:09.9 8:43 F 39 South Lyon MI
850 Rosenberg,Lawrence 1312 56:02.3 54:59.6 8:51 M 47 Farmington Hills MI
851 Rothman,Kevin 2274 56:04.1 55:18.4 8:54 M 42 Monroe MI
852 Curri,Christina 299 56:04.2 55:12.3 8:53 F 23 Ann Arbor MI
853 Wakenell,Chris 1637 56:04.6 55:13.2 8:53 M 28 Livonia MI
854 Walden,Patrick 1640 56:04.8 54:04.5 8:42 M 25 Brighton MI
855 Chadek-walker,Cynthia 1802 56:05.2 54:56.8 8:51 F 39 Clark Lake MI
856 Warner,Sally 1656 56:05.2 55:21.3 8:55 F 23 Lansing MI
857 Pierson,Michael 1230 56:05.7 55:32.9 8:56 M 56 Saline MI
858 Swanson,Brian 1503 56:09.3 54:37.0 8:47 M 30 Novi MI
859 Swanson,Jeanne 1504 56:09.5 54:37.0 8:47 F 30 Novi MI
860 Burnell,Thomas 186 56:10.8 55:07.1 8:52 M 28 Ypsilanti MI
861 Newton,Stacey 1126 56:11.1 55:06.6 8:52 F 33 Jackson MI
862 Jefferies,Paul 1889 56:11.3 55:12.2 8:53 M 43 Ypsilanti U.S.A.
863 Sobb,Erin 1448 56:13.3 55:17.4 8:54 F 28 Milan MI
864 Sullivan,Pam 1496 56:15.7 55:24.6 8:55 F 45 Whitehouse OH
865 Donnelly,Kristen 358 56:16.9 55:00.5 8:51 F 12 Ottawa Lake United States
866 Dozauer,Elke 366 56:17.1 55:38.6 8:57 F 59 Ann Arbor MI
867 Kearns,Sheree 751 56:18.1 53:49.9 8:40 F 46 Dexter MI
868 Shuberg,Justin 1413 56:18.2 55:29.0 8:56 M 27 Clark Lake MI
869 Kibbey,Tony 775 56:18.9 55:28.3 8:56 M 44 Northville MI
870 Altenburg,Michael 2276 56:19.0 55:09.5 8:53 M 37 Berkley MI
871 Solan,Terrance 2001 56:20.6 55:18.0 8:54 M 56 Saline MI
872 Kargol,Diane 743 56:20.7 55:19.7 8:54 F 23 Wheeling IL
873 Brittain,John 1783 56:20.9 54:46.1 8:49 M 51 Mason MI
874 Teasdale,Scott 1530 56:21.1 55:02.5 8:51 M 29 Novi MI
875 Rosenberg,Jennifer 1983 56:23.7 54:38.6 8:48 F 30 Ypsilanti MI
876 Brahaney,Michalea 147 56:26.6 55:10.0 8:53 F 13 Ottawa Lake MI
877 Milligan,Elisabeth 2092 56:27.9 56:10.8 9:02 F 14 Cass City MI
878 Leslie,Becca 2086 56:28.2 56:10.3 9:02 F 17 Decker MI
879 Schoeni,Sophia 1360 56:31.1 56:01.9 9:01 F 10 Ann Arbor MI
880 Redeker,Dave 2280 56:32.3 54:36.3 8:47 M 38 South Lyon MI
881 Berger,Kevin 95 56:33.8 56:19.1 9:04 M 39 Troy MI
882 O'neill,Kyle 1174 56:34.4 55:36.5 8:57 M 28 Arlington United States
883 Kaplan,Kelsey 2220 56:34.9 56:06.4 9:02 F 20
884 Pickett,Ashley 1225 56:35.2 55:38.5 8:57 F 21 Ann Arbor United States
885 Dolson,Joe 355 56:35.3 55:39.1 8:57 M 29 Waterford MI
886 Cooper,Nicole 2066 56:37.3 55:47.6 8:59 F 34 Linden United States
887 Fouch,Erin 465 56:38.0 55:15.7 8:54 F 33 Ann Arbor MI
888 Spence,Jeff 2008 56:38.4 55:47.7 8:59 M 33 Ypsilanti MI
889 Sefcovic,Paul 1382 56:39.1 55:47.8 8:59 M 21 Ann Arbor United States
890 Talbott,Jodi 1513 56:39.9 55:42.8 8:58 F 40 Whitemore Lake MI
891 Critchfield,Frank 1818 56:39.9 55:02.6 8:51 M 35 Chelsea United States
892 Eckman,Kris 389 56:40.1 55:43.4 8:58 F 40 Pinckney Livingston
893 Benaske,Heather 86 56:40.9 56:08.4 9:02 F 40 Livonia MI
894 Conklin,Heather 268 56:41.4 55:55.8 9:00 F 38 Ann Arbor MI
895 Kellmann,Laura 756 56:42.3 55:50.4 8:59 F 30 Dearborn MI
896 Morlock,Amy 1075 56:43.0 55:28.0 8:56 F 39 White Lake MI
897 Tai,Andrew 1511 56:43.3 55:51.0 8:59 M 37 Ann Arbor MI
898 Klinke,Amy 1895 56:43.5 55:53.4 9:00 F 39 Ann Arbor MI
899 Chang,Connie 232 56:43.7 55:50.8 8:59 F 38 Ann Arbor MI
900 Sushynski,Mary 1500 56:44.1 55:41.6 8:58 F 28 Saline United States
901 Hall,Davie 575 56:44.1 56:03.7 9:01 M 62 Ann Arbor MI
902 Sushynski,John 1499 56:45.2 55:43.3 8:58 M 28 Saline United States
903 Mcgivern,Terrance 998 56:46.9 55:50.9 8:59 M 42 Clarkston MI
904 Schulcz,Julie 1369 56:48.2 55:50.6 8:59 F 21 Ann Arbor United States
905 Haley,Tracey 572 56:48.4 55:47.0 8:59 F 40 Novi MI
906 Nagurka,Nancy 1110 56:49.6 56:10.8 9:02 F 56 Harbor Springs MI
907 Nagurka,Tom 1111 56:49.7 56:10.7 9:02 M 57 Harbor Springs MI
908 Lyden,Thomas 926 56:51.3 56:17.3 9:03 M 60 Washington DC
909 Robison,Amie 1301 56:52.9 55:43.5 8:58 F 33 Dexter MI
910 Mester,Anna 1023 56:54.2 55:35.0 8:57 F 22 Ann Arbor MI
911 Krankel,Mary 823 56:54.4 56:21.7 9:04 F 60 Ann Arbor MI
912 Holtz,Alex 1876 56:54.7 55:25.8 8:55 M 24 Ann Arbor MI
913 Maloney,Kelle 946 56:55.2 56:07.6 9:02 F 43 Chelsea MI
914 Zacks,David 1748 56:55.7 56:26.4 9:05 M 41 Ann Arbor United States
915 Duerr,John 375 56:55.9 56:03.6 9:01 M 63 Ann Arbor MI
916 Vanairsdale,Brian 1600 56:57.4 55:19.4 8:54 M 33 Canton MI
917 Szurek,Ed 2016 56:57.6 55:41.7 8:58 M 24 Brighton MI
918 Whelan,Sean 2040 56:58.5 56:28.1 9:05 M 39 Canton MI
919 Carroll,Christine 4586 56:58.9 56:09.4 9:02 F 36 Ypsilanti MI
920 Young,Mary 1746 56:59.5 56:27.5 9:05 F 59 Brighton MI
921 Garton,Thomas 501 56:59.8 56:56.8 9:10 M 14 Ann Arbor MI
922 Will,Shannon 2042 56:59.9 55:30.7 8:56 F 29 Canton MI
923 Mcnulty,Crissy 1008 57:00.0 56:08.7 9:02 F 36 Garden City MI
924 Pennings,Ani 1960 57:01.5 56:20.1 9:04 F 27 Ann Arbor MI
925 Gast,Will 503 57:02.2 56:15.2 9:03 M 31 Saginaw MI
926 Stypula,Elaine 2015 57:02.4 55:50.2 8:59 F 45 Farmington Hills MI
927 Torres,Maria 2026 57:03.1 55:25.9 8:55 F 27 Toledo OH
928 Kime,Steve 782 57:04.2 55:49.5 8:59 M 41 Ann Arbor United States
929 Rosenberg,Darren 1982 57:04.9 55:20.4 8:54 M 39 Ypsilanti MI
930 Weinman,Andrea 2037 57:07.2 55:38.4 8:57 F 29 Livonia United States
931 Burzynski,Melanie 2251 57:08.5 56:09.0 9:02 F 38 Canton MI
932 Liebbe,Valerie 894 57:08.6 56:12.5 9:03 F 42 Northville MI
933 Weber,Kathleen 1673 57:09.4 55:46.7 8:59 F 23 Bloomfield Hills United States
934 Berger,Laura 2198 57:09.4 56:37.7 9:07 F 32
935 Greashaber,Nicholas 545 57:12.5 56:09.7 9:02 M 30 Ann Arbor MI
936 Ritz,Mark 1295 57:12.5 56:07.6 9:02 M 59 Ann Arbor MI
937 PerkinS. Jr,Ronald 2212 57:13.0 56:00.9 9:01 M 23
938 Nagayoshi,Daiji 1109 57:14.4 55:46.3 8:59 M 30 Firmington Hills MI
939 Kruse,Bob 832 57:16.0 56:48.4 9:09 M 67 Warren MI
940 Huffman,Meena 2080 57:17.6 55:09.5 8:53 F 20 Garden City MI
941 Weinrick,Stacey 1679 57:17.8 56:13.8 9:03 F 37 Ann Arbor MI
942 Treglia,Annmarie 1567 57:17.9 56:24.4 9:05 F 41 Chelsea MI
943 Stone,Michelle 2254 57:18.8 55:47.5 8:59 F 32 Ann Arbor MI
944 Conrad,Frederick 1815 57:20.2 55:27.2 8:55 M 55 Ann Arbor MI
945 Vandewiele,Mary 1603 57:21.4 56:34.5 9:06 F 53 Ann Arbor MI
946 Favr,Dan 2203 57:21.6 56:13.0 9:03 M 30
947 Montry,Lindsay 1063 57:22.2 55:36.1 8:57 F 29 Pittsfield Township MI
948 Kerr,John 771 57:22.5 56:27.9 9:05 M 42 Plymouth MI
949 Florida,David 452 57:22.7 56:28.1 9:05 M 45 Kalamazoo MI
950 Yauch,Alicia 1737 57:24.2 57:09.1 9:12 F 24 Clarkston United States
951 Coultrap-bagg,Charlotte 286 57:25.0 56:38.2 9:07 F 29 Ann Arbor MI
952 Snyder,Jeffrey 1445 57:26.7 56:59.6 9:10 M 28 Chicago IL
953 Lake,Kelly 1905 57:31.4 56:56.8 9:10 F 32 Lambertville MI
954 Celeste,Steve 1801 57:32.7 9:16 M 35 Superior Township United States
955 Hall,Laura 1860 57:33.0 56:27.9 9:05 F 25 ST. Clair Shores MI
956 Kindt,Megan 783 57:33.2 56:35.3 9:06 F 36 Royal Oak MI
957 Sample,Kathy 1340 57:34.6 56:32.3 9:06 F 49 Ann Arbor MI
958 Boldon,Stephanie 121 57:35.0 56:41.6 9:07 F 22 Adrian MI
959 Ellinger,Travis 1832 57:35.0 56:51.9 9:09 M 33 Canton MI
960 Grziwotz,Sabine 565 57:35.6 56:54.6 9:10 F 32 Farmington Hills MI
961 Dinger,Kevin 346 57:35.7 56:29.3 9:05 M 47 West Bloomfield MI
962 Mcclellan,Brandon 991 57:36.7 56:22.0 9:04 M 26 Westland MI
963 Haubert,Matt 604 57:37.3 56:19.9 9:04 M 36 Brownstown MI
964 Hulbert,Lara 675 57:37.3 56:25.9 9:05 F 22 Dexter MI
965 Pizzo,Hunter 8698 57:38.2 56:17.0 9:03 M 15 Tipton MI
966 Pike,Gina 2182 57:38.4 56:18.1 9:04 F 14
967 Anderson,Dayna 30 57:38.5 55:07.4 8:52 F 27 Plymouth United States
968 Van Sickle,Nicole 1598 57:38.6 55:07.7 8:52 F 31 Ann Arbor MI
969 Sebring,Debbie 1381 57:39.1 56:54.8 9:10 F 40 Ann Arbor MI
970 Degroot,Jessica 1825 57:40.1 56:34.1 9:06 F 31 Royal Oak MI
971 Jacobs,Mike 1883 57:40.2 56:33.8 9:06 M 37 Royal Oak MI
972 Borowski,Sara 1778 57:40.7 57:11.6 9:12 F 26 Ann Arbor MI
973 Hale,Ralph 571 57:42.7 56:38.7 9:07 M 36 Ann Arbor MI
974 Allen,Jeff 17 57:43.3 57:06.8 9:11 M 50 Ypsilanti MI
975 Saenz,Josh 1333 57:43.8 56:48.0 9:08 M 15 Canton United States
976 Wilson,Jonathan 1707 57:44.2 57:01.4 9:11 M 26 Ypsilanti MI
977 Perros,Christy 1211 57:44.3 56:08.8 9:02 F 42 Ann Arbor MI
978 Ankeney,Rebecca 2253 57:44.5 56:09.1 9:02 F 32 Ann Arbor MI
979 Loszewski,Michael 2232 57:45.3 55:52.2 8:59 M 38
980 Zulcosky,Lisa 1762 57:46.2 55:57.7 9:00 F 42 Northville MI
981 Krall,Ron 2199 57:46.5 57:16.4 9:13 M 51
982 Lobert,Lauren 913 57:47.5 56:29.6 9:05 F 24 Walled Lake MI
983 Smith,Lori 1439 57:47.9 56:43.5 9:08 F 49 Ceresco MI
984 Robinson,Ed 2184 57:48.1 57:15.0 9:13 M 38
985 Ash,Scott 42 57:48.4 56:24.5 9:05 M 34 Ypsilanti United States
986 Chu-blough,Millie 1808 57:48.6 56:25.2 9:05 F 33 Ann Arbor MI
987 Dodd,Darcy 350 57:48.8 56:17.8 9:04 F 26 Ann Arbor MI
988 Laughlin,Casey 862 57:49.3 56:51.4 9:09 F 24 Lincoln Park United States
989 Miller,Shawn 1046 57:50.4 56:25.9 9:05 F 40 Fenton
990 Ploucha,Rodney 1237 57:50.6 57:00.3 9:10 M 33 Troy MI
991 Sharp,Jeremy 1398 57:51.0 57:11.3 9:12 M 28 Adrian MI
992 Sharp,Meg 1399 57:51.1 57:11.1 9:12 F 26 Adrian MI
993 Hayashi,Ryojiro 609 57:51.6 56:23.1 9:04 M 28 Ann Arbor MI
994 Tavalieri,Peter 1525 57:51.7 55:59.0 9:01 M 13 Saint Clair Shores United States Of Ame
995 Hernandez,Steve 625 57:53.3 57:18.4 9:13 M 55 Ann Arbor MI
996 Sugar,Samantha 1491 57:54.1 56:41.7 9:07 F 26 Ann Arbor United States
997 Tavalieri,Jody 1524 57:54.7 56:01.8 9:01 M 46 Saint Clair Shores United States Of Ame
998 Macneill,Bob 2224 57:58.3 56:44.6 9:08 M 58
999 Zulcosky,John 1761 57:58.6 56:10.0 9:02 M 44 Northville MI
1000 Edge,Mark 390 57:59.0 56:05.9 9:02 M 54 South Lyon MI
1001 Beck,Heather 74 58:00.3 57:19.0 9:13 F 33 Ypsilanti United States
1002 Duchateau,Don 372 58:02.0 57:38.3 9:17 M 35 Ann Arbor United States
1003 Meisel,Keith 1013 58:02.4 56:54.8 9:10 M 43 Grass Lake United States Of Ame
1004 Kaemming,Marcus 1894 58:02.9 57:14.5 9:13 M 40 Chelsea MI
1005 Erskine,Beth 404 58:03.4 9:21 F 60 Ann Arbor MI
1006 Wagner,Monica 2036 58:07.3 57:32.6 9:16 F 32 Monroe MI
1007 Benson,Brittany 90 58:08.1 57:39.7 9:17 F 23 Ann Arbor MI
1008 Gehrke,Gretchen 1852 58:08.4 57:04.2 9:11 F 27 Ann Arbor MI
1009 Bush,Katie 189 58:08.5 57:04.5 9:11 F 26 Ann Arbor MI
1010 Megyesi,Alexis 1012 58:08.9 57:26.8 9:15 F 41 Novi MI
1011 Davis,Melanie 319 58:08.9 57:26.6 9:15 F 39 Novi MI
1012 Grabowski,Cliff 538 58:09.0 58:02.5 9:20 M 42 Grosse Pointe Farms MI
1013 Pollock,Caitlin 1242 58:09.1 56:51.1 9:09 F 21 Ann Arbor U.S
1014 Prough,David 1253 58:09.7 58:03.1 9:21 M 49 Jackson MI
1015 Morey,Aaron 1074 58:09.9 57:55.6 9:19 M 24 Ypsilanti MI
1016 Persha,Eva 1212 58:11.5 57:33.3 9:16 F 44 Howell MI
1017 Vlasic,Shari 1622 58:12.0 57:38.6 9:17 F 50 Bloomfield Hill MI
1018 Manning,Sophie 947 58:13.1 57:26.5 9:15 F 31 Ann Arbor MI
1019 Spreitzer,Gretchen 1460 58:15.4 57:45.5 9:18 F 45 Ann Arbor MI
1020 Toh,Bao En 1552 58:15.7 56:51.1 9:09 F 23 Ann Arbor MI
1021 Liebner,Bernd 896 58:16.5 58:10.8 9:22 M 71 Ann Arbor MI
1022 Kelly,Shelley 759 58:18.2 57:40.0 9:17 F 37 Livonia United States
1023 Liederman,Elizabeth 897 58:18.2 57:16.6 9:13 F 44 Brighton MI
1024 Bonnee,Drew 2137 58:19.2 57:59.3 9:20 M 15
1025 Bumgardner,Kenneth 1790 58:19.6 56:22.6 9:04 M 31 Dearborn Wayne
1026 Emke,John 1834 58:20.9 57:56.8 9:20 M 48 South Lyon MI
1027 Gilles,Tara 519 58:22.3 57:04.4 9:11 F 36 Ann Arbor MI
1028 Doughty,Constance 362 58:22.8 57:26.1 9:15 F 57 Farmington Hills MI
1029 Medlen,Sylvia 1011 58:23.0 57:26.4 9:15 F 53 Ortonville U.S.A.
1030 Pelzen,Justin 2234 58:23.1 57:19.1 9:13 M 0
1031 Wagner,Lisa 1632 58:23.7 57:19.7 9:14 F 36 Toledo OH
1032 Morton,Chris 1083 58:24.5 56:55.3 9:10 M 36 Ann Arbor MI
1033 Wilson,Megan 1709 58:24.7 57:42.2 9:17 F 29 Ypsilanti MI
1034 Mccosky,Ryan 992 58:25.2 56:33.0 9:06 M 25 Livonia MI
1035 Hogikyan,Emily 643 58:26.4 57:00.2 9:10 F 18 Ann Arbor United States
1036 Hogikyan,Norman 645 58:26.6 57:00.7 9:10 M 49 Ann Arbor United States
1037 Nutt,Craig 1152 58:27.1 57:17.2 9:13 M 42 Ann Arbor MI
1038 Hemberg,Jennifer 621 58:28.4 57:38.8 9:17 F 22 Ann Arbor United States
1039 Marra,Jeremy 1931 58:29.4 57:35.9 9:16 M 26 New Boston MI
1040 Belke,Michelle 82 58:30.3 57:40.4 9:17 F 26 Northville MI
1041 Teats,Mike 1531 58:31.1 57:34.9 9:16 M 41 Rochester Hills MI
1042 Pelzer,Reginald 2235 58:31.2 57:25.2 9:14 M 53
1043 Spencer-strong,Traci 2108 58:31.3 57:35.0 9:16 F 41 Warren MI
1044 Jessup,David 710 58:32.9 57:03.9 9:11 M 32 Dewitt United States
1045 Smith,Margaret 1440 58:33.3 57:53.9 9:19 F 25 Ann Arbor United States
1046 Mckinney,Becky 1005 58:34.3 57:48.9 9:18 F 50 Canton MI
1047 Mihelick,Kathleen 1032 58:34.5 57:48.9 9:18 F 49 Canton MI
1048 Mcgowan,Josephine 2088 58:36.1 57:19.4 9:13 F 29 West Bloomfield U.S.A
1049 Shelby,Rebecca 1402 58:39.7 57:53.4 9:19 F 33 Plymouth MI
1050 Callaghan,Alison 206 58:39.8 57:52.7 9:19 F 35 Dearborn MI
1051 Michael,Alice 1027 58:40.7 57:25.4 9:14 F 41 Ann Arbor MI
1052 Huang-saad,Aileen 1878 58:41.4 57:51.1 9:19 F 40 Ann Arbor MI
1053 Sharp,Brian 1994 58:42.1 57:39.4 9:17 M 28 Ann Arbor MI
1054 Sharp,Kristen 1995 58:42.1 57:39.8 9:17 F 28 Ann Arbor MI
1055 Olson,Scott 1170 58:42.6 57:27.2 9:15 M 46 Ann Arbor MI
1056 Olson,David 1166 58:43.5 57:27.5 9:15 M 45 Ann Arbor MI
1057 Kang,Leanne 737 58:43.6 57:11.8 9:12 F 30 Ann Arbor United States
1058 Rougee,Annick 1318 58:43.6 57:11.6 9:12 F 30 Ann Arbor MI
1059 Prabhakar,Varun 1250 58:43.9 57:08.3 9:12 M 28 Ann Arbor MI
1060 Crim,Julianna 293 58:44.1 57:12.4 9:12 F 20 Ann Arbor MI
1061 Rodriguez,Ana 1302 58:44.5 57:12.6 9:12 F 20 Ann Arbor United States
1062 Haverstick,David 606 58:45.2 58:01.2 9:20 M 30 Lake Orion MI
1063 Fredericks,Emily 474 58:46.6 56:52.0 9:09 F 35 Ann Arbor MI
1064 Davis,Ross 320 58:47.3 57:35.1 9:16 M 25 Novi United States
1065 Hill,Amy 633 58:47.5 58:03.4 9:21 F 30 Onsted MI
1066 Gersh,Maris 514 58:48.1 57:06.3 9:11 F 28 Apt 1824 48104
1067 Perry,Matthew 2095 58:49.4 57:41.5 9:17 M 29 Wyandotte MI
1068 Stocker,Deana 2011 58:49.4 57:28.6 9:15 F 43 Tipton MI
1069 Pike,Shelly 2181 58:49.6 57:28.5 9:15 F 43
1070 Dewaele,Tim 2283 58:49.9 57:23.7 9:14 M 47 Whitmore Lake United States
1071 Tam,Robert 1516 58:50.1 57:43.5 9:17 M 25 Ann Arbor MI
1072 Han,Sarah 581 58:50.2 57:43.6 9:17 F 26 Canton MI
1073 Gawel,Marissa 504 58:52.4 57:46.3 9:18 F 20 Grosse Pointe United States
1074 Mcalary,James 982 58:52.5 56:53.6 9:09 M 43 Jackson United States
1075 Brown,Michele 1786 58:52.7 57:59.9 9:20 F 41 Saline MI
1076 Larin,Linda 857 58:52.9 58:20.9 9:23 F 50 Ann Arbor MI
1077 Czerniak,Ethan 303 58:53.3 57:17.0 9:13 M 9 Northville MI
1078 Gawne,Michelle 505 58:54.1 57:57.2 9:20 F 40 South Lyon MI
1079 Gentry,Susan 509 58:54.5 58:01.6 9:20 F 24 Ann Arbor MI
1080 Crawford,Dustin 2067 58:55.1 57:38.6 9:17 M 29 West Bloomfield U.S.A
1081 Eleby,Michelle 2166 58:55.6 57:19.2 9:13 F 32
1082 Bloch,Timothy 115 58:56.5 58:18.5 9:23 M 41 Brighton MI
1083 Olesky,Samuel 1163 58:57.9 57:55.8 9:19 M 25 Ann Arbor MI
1084 Hiram,Amanda 2215 58:58.4 58:14.9 9:22 F 34
1085 Abbey,Minda 2200 58:59.4 57:28.9 9:15 F 31
1086 Woods,Laura 2045 58:59.6 57:29.1 9:15 F 34 Manchester MI
1087 Evoe,Justin 415 58:59.7 57:28.6 9:15 M 27 Birmingham MI
1088 Schurrer,John 1373 58:59.9 57:08.4 9:12 M 34 Ann Arbor MI
1089 Joiner,Danese 732 59:00.2 57:28.0 9:15 F 28 Grand Rapids MI
1090 Kaske,Leo 747 59:00.2 57:44.0 9:17 M 36 Westland United States
1091 Keren,David 768 59:00.5 57:55.2 9:19 M 63 Ann Arbor MI
1092 Dietrich,Crystal 2214 59:00.8 58:16.8 9:23 F 39
1093 Keren,Phil 769 59:01.0 9:30 M 38 Mogadore OH
1094 Hill,Chet 634 59:01.5 57:52.3 9:19 M 62 Dexter MI
1095 Uremek,Nazli 1590 59:01.6 58:28.7 9:25 F 21 Ann Arbor MI
1096 Kripfgams,Oliver 2173 59:04.6 57:21.1 9:14 M 41
1097 Twu,Cathy 2029 59:04.8 57:51.6 9:19 F 22 Ann Arbor MI
1098 Lance,Jeff 851 59:05.2 58:09.2 9:22 M 28 Ann Arbor MI
1099 Mcconnell,Kerry 2087 59:05.5 58:16.8 9:23 F 37 Ypsilanti MI
1100 Murray,Sarah 1105 59:06.4 58:20.1 9:23 F 39 Ann Arbor U.S.
1101 Fisher,Jean 443 59:06.8 58:23.9 9:24 F 45 Palmyra United States
1102 Mackrain-skwirsk,Tanya 934 59:08.0 57:52.8 9:19 F 41 Canton MI
1103 Song,Jean 2002 59:09.6 57:49.3 9:18 F 37 Ann Arbor MI
1104 Javornisky,Marty 707 59:10.8 57:58.8 9:20 M 58 Ann Arbor MI
1105 Yen,Kylene 1740 59:11.2 57:28.1 9:15 F 24 Rochester Hills MI
1106 Klevering,Kristin 798 59:11.4 58:05.3 9:21 F 41 Ann Arbor MI
1107 Lyons,Hannah 929 59:12.2 57:58.2 9:20 F 27 Ann Arbor MI
1108 Lyons,Derek 928 59:12.4 57:57.1 9:20 M 25 Ann Arbor MI
1109 Schukow,Marie 1368 59:13.1 58:51.2 9:28 F 23 Saline MI
1110 Montie,Tammy 1062 59:14.3 58:39.0 9:26 F 23 Tecumseh United States Of Ame
1111 Caruthers,Reggie 221 59:14.7 58:33.9 9:25 M 56 Ann Arbor MI
1112 Cezat,Lisa 229 59:15.3 57:49.2 9:18 F 20 Livonia MI
1113 Cezat,Kari 228 59:15.3 57:49.4 9:18 F 26 Cape Canaveral FL
1114 Mcilroy,Gary 1938 59:15.9 59:03.5 9:30 M 59 Ann Arbor MI
1115 Carroll,Phil 2176 59:16.6 58:41.1 9:27 M 76
1116 Lehnis,Michael 876 59:16.9 58:26.8 9:24 M 31 Canton MI
1117 Volk,Sarah 1623 59:17.4 57:47.1 9:18 F 30 Blissfield MI
1118 Zimmer,Heidi 1757 59:17.5 57:23.5 9:14 F 39 Northville MI
1119 Kornak,Rachel 813 59:17.5 58:24.1 9:24 F 29 Plymouth MI
1120 Thomas,Hillary 1540 59:17.7 58:11.1 9:22 F 20 Ann Arbor MI
1121 Huyenh-cho,Tiffany 680 59:18.8 58:44.4 9:27 F 23 Ann Arbor MI
1122 Szalay,Scott 1508 59:18.9 58:23.2 9:24 M 50 Brighton MI
1123 Partridge,Katherine 1196 59:21.4 57:36.9 9:16 F 28 Ann Arbor MI
1124 Kargol,James 744 59:22.1 58:21.6 9:24 M 63 Farmington Hills MI
1125 Maisano,Amy 939 59:23.8 57:56.2 9:19 F 23 Manchester U.S
1126 Kargol,Loretta 5880 59:23.8 58:22.5 9:24 F 59 Farmington Hills MI
1127 Newton,Regen 1125 59:24.6 58:35.8 9:26 F 34 Ypsilanti MI
1128 Schulze,Michelle 1993 59:25.4 57:57.8 9:20 F 23 Manchester MI
1129 Sacks,Jonathan 2147 59:25.9 58:38.6 9:26 M 39
1130 Herrington,Kristen 629 59:26.1 58:45.4 9:27 F 31 Manitou Beach MI
1131 Meng,Jason 1019 59:26.3 57:03.7 9:11 M 19 Rochester Hills MI
1132 Hinterman,Michael 636 59:26.8 58:26.1 9:24 M 56 Grand Blanc United States
1133 Sage,Martin 1334 59:27.0 57:36.5 9:16 M 38 Pinckney MI
1134 Martin,Donald 1932 59:27.5 59:05.1 9:31 M 44 Dearborn United States
1135 Fabiilli,Mario 417 59:28.1 57:42.6 9:17 M 29 Ann Arbor MI
1136 Caruthers,Regine 222 59:30.9 58:49.3 9:28 F 30 Ann Arbor MI
1137 Batyashe,Zinzile 70 59:32.4 58:22.4 9:24 F 24 Carleton MI
1138 Mills,Cheryl 1049 59:33.4 58:01.9 9:20 F 27 Northville U.S.
1139 Rietz,Melissa 1290 59:35.0 58:11.9 9:22 F 33 Ann Arbor United States
1140 Webb,Delores 1667 59:35.7 58:58.8 9:29 F 52 Jackson MI
1141 Fitzgibbons,Casey 450 59:36.0 57:42.0 9:17 M 33 Jackson United States
1142 Kittendorf,Anne 793 59:36.3 58:58.5 9:29 F 35 Dexter MI
1143 Kittendorf,Jeff 794 59:36.4 58:59.1 9:30 M 36 Dexter MI
1144 Townsend,Katie 1562 59:36.8 58:41.2 9:27 F 28 Saginaw MI
1145 Parson,Chad 1194 59:36.9 58:22.0 9:24 M 34 Ypsilanti MI
1146 Dowd,Evan 363 59:36.9 59:04.8 9:30 M 13 Lake Orion MI
1147 Vondracek,Joe 1625 59:37.1 58:24.6 9:24 M 37 Novi MI
1148 Martin,Beth 960 59:37.3 58:32.4 9:25 F 34 Royal Oak MI
1149 Martin,Scott 964 59:38.1 58:33.4 9:25 M 29 Royal Oak MI
1150 Grosteffon,Lorelei 564 59:40.4 57:49.4 9:18 F 25 Battle Creek MI
1151 Mabry,Deanna 2252 59:41.1 58:35.2 9:26 F 42
1152 Degutis,Arlene 330 59:41.5 58:13.1 9:22 F 45 Ann Arbor MI
1153 Walsh,Martha 1646 59:41.6 57:39.9 9:17 F 39 Chicago IL
1154 Harju,Linda 585 59:43.1 58:43.1 9:27 F 57 Ypsilanti MI
1155 Tallio,Jacob 1514 59:44.1 59:25.0 9:34 M 14 Saline MI
1156 Scheinerman,Naomi 1990 59:44.6 58:27.9 9:25 F 21 Ann Arbor MI
1157 Benzie,Steve 92 59:44.8 59:07.7 9:31 M 42 Brighton MI
1158 Holman,Cynthia 650 59:45.0 58:05.4 9:21 F 56 Brighton MI
1159 Yeager,Matt 1739 59:45.3 58:31.5 9:25 M 37 Adrian MI
1160 Liegghio,James 898 59:46.1 59:12.4 9:32 M 32 Washington Township MI
1161 Lyons-leagon,Eileen 930 59:47.2 58:04.5 9:21 F 37 Canton MI
1162 Emery,Lisa 1833 59:48.3 58:39.4 9:26 F 33 Ann Arbor MI
1163 Tully,Barbara 1578 59:51.7 59:17.3 9:32 F 49 Indianapolis IN
1164 Miller,Carrie 2090 59:52.0 59:01.8 9:30 F 35 Montrose United States
1165 Strohl,Karen 2271 59:52.1 59:06.8 9:31 F 44 Ann Arbor MI
1166 Neubauer,Trey 1121 59:53.3 58:37.5 9:26 M 39 Dearborn MI
1167 Peters Arnold,Jane 1214 59:53.8 58:26.7 9:24 F 58 Ann Arbor U.S.
1168 Stinehart,Rich 2284 59:54.8 58:29.7 9:25 M 53 Spring Lake MI
1169 Concha,David 2223 59:55.3 59:37.7 9:36 M 21
1170 Vansickle,Kim 1604 59:55.9 58:43.8 9:27 F 40 West Bloomfield MI
1171 Clancy,Tara 249 59:57.0 58:12.6 9:22 F 23 Ann Arbor MI
1172 Hyun,Baro 685 59:57.9 58:00.7 9:20 M 26 Ann Arbor MI
1173 Monash,Kenneth 764 59:59.1 59:25.9 9:34 M 60 Ann Arbor United States
1174 Monash,Jill 1059 59:59.3 59:26.1 9:34 F 42 Ann Arbor United States
1175 Burns,Michael 1792 1:00:00.9 58:11.0 9:22 M 44 Ann Arbor MI
1176 Law,Jimmy 864 1:00:01.0 58:34.4 9:26 M 23 Ann Arbor MI
1177 Gordy,Tom 535 1:00:01.6 58:40.3 9:27 M 50 Beverly Hills MI
1178 Parenteau,Chad 1192 1:00:01.8 59:07.7 9:31 M 31 Swartz Creek MI
1179 Gordy,Marguerite (meg) 534 1:00:02.0 58:41.9 9:27 F 43 Beverly Hills MI
1180 Orfield,Cara 1177 1:00:02.6 58:53.8 9:29 F 27 Ann Arbor MI
1181 Headley,Amber 612 1:00:02.6 58:24.7 9:24 F 28 Pinckney MI
1182 Orfield,Nolan 1178 1:00:02.7 58:53.6 9:29 M 30 Ann Arbor MI
1183 Mills,Jeremy 1050 1:00:04.0 58:32.4 9:25 M 33 Northville U.S.
1184 Colby,Andrew 256 1:00:04.1 58:19.4 9:23 M 24 Ann Arbor United States Of Ame
1185 Murray,Heather 1104 1:00:05.1 59:00.1 9:30 F 27 Streetsboro OH
1186 Dowd,Ken 364 1:00:06.4 59:34.2 9:35 M 42 Lake Orion MI
1187 Borr,Lindsey 126 1:00:06.6 58:37.0 9:26 F 21 Mattawan United States
1188 Piechocki,April 1226 1:00:07.6 58:45.6 9:27 F 24 Livonia MI
1189 Chapel,Karen 234 1:00:09.9 58:52.4 9:28 F 41 Northville MI
1190 Bielecki,Jake 102 1:00:10.1 58:07.0 9:21 M 26 Ann Arbor MI
1191 Almeida,Tais 2170 1:00:10.1 58:06.9 9:21 F 30
1192 Mannor,Dana 948 1:00:10.3 58:19.6 9:23 F 36 Howell MI
1193 Mannor,Scott 949 1:00:10.4 58:19.0 9:23 M 40 Howell MI
1194 Ellis,Robert 2130 1:00:10.8 59:14.0 9:32 M 0
1195 Runarsdottir,Hildur 2103 1:00:11.0 59:07.3 9:31 F 34 Saline, Mi 48176 MI
1196 Hepner,Myron 624 1:00:11.4 58:32.4 9:25 M 44 Ann Arbor MI
1197 Curley,Cathleen 298 1:00:11.5 58:32.6 9:25 F 36 Ann Arbor MI
1198 Cornack,Lisa 282 1:00:13.3 59:26.8 9:34 F 53 Ann Arbor MI
1199 Frenkel,Chaim 477 1:00:13.6 59:29.2 9:34 M 21 Ann Arbor MI
1200 Truesdell,Katie 1574 1:00:13.8 58:50.2 9:28 F 34 Dexter MI
1201 Campbell,Jamina 211 1:00:16.1 59:28.2 9:34 F 31 Ypsilanti MI
1202 Muveigh,Kevin 2133 1:00:16.2 59:19.7 9:33 M 48
1203 Hessesltine,Ed 2138 1:00:16.4 59:19.2 9:33 M 42
1204 Hesseltine,Beth 2132 1:00:16.6 59:21.3 9:33 F 41
1205 Waligora,Jennifer 1642 1:00:18.4 58:56.1 9:29 F 38 Canton MI
1206 Medina,Maria 1010 1:00:18.7 59:32.2 9:35 F 39 Ann Arbor MI
1207 Fabiili,Marta 416 1:00:20.0 58:34.5 9:26 F 28 Ann Arbor MI
1208 Gadok,Avinash 488 1:00:20.3 59:49.3 9:38 F 21 Ann Arbor MI
1209 Fishman,Rachel 447 1:00:23.1 58:56.2 9:29 F 29 Ann Arbor MI
1210 Gordon,Zack 533 1:00:24.4 58:56.7 9:29 M 27 Ann Arbor MI
1211 Block,Alyson 116 1:00:27.2 58:48.8 9:28 F 34 Flat Rock United States
1212 Grewe,Eugene 557 1:00:27.4 58:35.8 9:26 M 61 Livonia MI
1213 Sylvester,Mariann 1506 1:00:27.6 59:04.8 9:30 F 30 Ann Arbor MI
1214 Eckles,Erin 388 1:00:29.8 59:03.5 9:30 F 22 Ann Arbor MI
1215 Venen,Renee 1610 1:00:30.0 59:15.5 9:32 F 49 Bloomfield Hills MI
1216 Saito,Yuko 1335 1:00:30.2 59:25.4 9:34 F 36 Ann Arbor U.S.A.
1217 Boldon,Jessica 120 1:00:30.2 59:36.7 9:36 F 24 Ypsilanti United States
1218 Freeland,Darren 475 1:00:30.5 59:33.5 9:35 M 31 Ann Arbor MI
1219 Zylstra,Emily 1765 1:00:32.1 59:14.0 9:32 F 20 Ann Arbor MI
1220 Andaloro,Catherine 25 1:00:32.2 58:40.6 9:27 F 23 Grass Lake MI
1221 Houghton,Katie 1877 1:00:32.4 1:00:01.3 9:40 F 26 Ann Arbor MI
1222 Valle,Katherine 1595 1:00:35.0 59:24.2 9:34 F 25 Ann Arbor United States Of Ame
1223 Baty,Linda 1774 1:00:36.2 1:00:05.4 9:40 F 51 Dexter MI
1224 Kifer,Jordan 778 1:00:38.0 59:13.5 9:32 F 20 Ann Arbor United States
1225 Hughes,Margaret 674 1:00:40.8 59:27.1 9:34 F 27 Ann Arbor MI
1226 Ashby,Samantha 43 1:00:41.1 59:27.5 9:34 F 23 Chelsea United States
1227 Doersch,Russ 352 1:00:41.8 59:41.2 9:36 M 39 Pinckney MI
1228 Schubert,Alyx 1364 1:00:42.1 59:23.7 9:34 F 23 Ann Arbor MI
1229 Gray,Alexander 543 1:00:42.5 58:59.1 9:30 M 27 Ann Arbor MI
1230 Bache,Ashlea 2268 1:00:42.5 58:58.9 9:30 F 28 Huron OH
1231 Fay,Daniel 429 1:00:45.3 59:12.3 9:32 M 37 Royal Oak MI
1232 Harvey,Starla 1865 1:00:46.3 59:14.1 9:32 F 47 Novi MI
1233 Hartwell,Arin 1864 1:00:47.8 1:00:04.6 9:40 M 35 Waterford MI
1234 Rutledge,Meg 2277 1:00:48.0 59:50.9 9:38 F 32 Birmingham MI
1235 J�hin,L�a 1890 1:00:48.3 59:15.2 9:32 F 28 Ann Arbor MI
1236 Wauldron,Rebecca 2156 1:00:48.7 59:57.5 9:39 F 38
1237 Gibson,Kristen 516 1:00:49.1 59:30.1 9:35 F 40 Sylvania OH
1238 Bradford,Carol 144 1:00:50.2 1:00:03.0 9:40 F 50 Ann Arbor MI
1239 Fuerst,Pamela 1844 1:00:50.3 59:38.7 9:36 F 37 Novi MI
1240 Pichler,Julie 1224 1:00:52.5 1:00:12.4 9:41 F 35 Northville MI
1241 Theis,Becky 2285 1:00:55.6 59:24.3 9:34 F 28 Grand Ledge United States
1242 Winebrenner,Patricia 2117 1:00:56.9 1:00:17.5 9:42 F 45 Dexter MI
1243 Kolasa,Genevieve 805 1:00:57.0 59:18.9 9:33 F 30 Northville MI
1244 Israels,Aaron 694 1:00:57.5 59:10.0 9:31 M 29 Ann Arbor MI
1245 Fitzgibbons,Casey 449 1:00:58.5 59:04.9 9:30 F 33 Jackson United States
1246 Tomlinson,Jessica 1554 1:00:59.3 1:00:19.3 9:42 F 27 Dearborn Heights MI
1247 Dix,Rene 348 1:01:00.1 59:30.4 9:35 F 31 Wixom MI
1248 Wheat,Jeffery 2038 1:01:00.5 59:20.4 9:33 M 31 Ypsilanti United States
1249 Anchor,Nancy 24 1:01:01.9 59:56.5 9:39 F 47 Canton MI
1250 Chenevey,Laurie 238 1:01:02.7 1:00:05.5 9:40 F 37 Tecumseh U.S.A.
1251 Lucot,Linda 1923 1:01:02.9 59:31.8 9:35 F 57 Ann Arbort MI
1252 Mikula,Marcia 1038 1:01:03.5 1:00:04.5 9:40 F 59 Warren MI
1253 Donnelly,Anne 357 1:01:03.7 59:45.7 9:37 F 38 Ottawa Lake United States
1254 Pitts,Lisa 1235 1:01:04.1 59:58.1 9:39 F 41 Dexter MI
1255 Arnedt,Caroline 1770 1:01:04.7 59:58.4 9:39 F 34 Dexter MI
1256 Morris,Paul 1079 1:01:05.6 1:00:16.4 9:42 M 49 Ann Arbor MI
1257 Gerber,Ann 510 1:01:05.8 1:00:16.6 9:42 F 38 Ypsilanti MI
1258 Adler,Melina 7 1:01:07.6 59:41.8 9:36 F 38 Ann Arbor MI
1259 Brahaney,Michelle 148 1:01:08.8 59:50.8 9:38 F 39 Ottawa Lake MI
1260 Larkin,Lisa 858 1:01:09.1 59:26.2 9:34 F 50 Ann Arbor MI
1261 Early,Susana 385 1:01:09.3 59:26.1 9:34 F 31 Superior Twp MI
1262 Bryker,Ryan 1788 1:01:10.1 59:53.7 9:38 M 25 Grand Rapids MI
1263 Paquin,T.J. 2267 1:01:11.4 1:00:28.5 9:44 M 40 Ann Arbor U.S.
1264 Imperiale,Michael 688 1:01:12.4 59:45.5 9:37 M 53 Ann Arbor MI
1265 Lax,Liza 866 1:01:12.5 59:46.4 9:37 F 27 Ann Arbor MI
1266 Zausmer,Lindsay 2049 1:01:12.8 59:46.3 9:37 F 23 Ann Arbor MI
1267 Maier,Anne 938 1:01:13.2 1:00:13.7 9:42 F 51 Ann Arbor MI
1268 Critchfield,Amanda 295 1:01:14.3 59:37.2 9:36 F 34 Chelsea United States
1269 Barker,Michael 60 1:01:14.6 59:39.7 9:36 M 38 Redford United States
1270 Meloche,Beverley 1017 1:01:14.6 59:45.8 9:37 F 41 Windsor Canada
1271 Takarai,Junichi 2194 1:01:14.9 1:00:18.7 9:42 M 41
1272 Middleton,Tony 1030 1:01:15.0 59:39.9 9:36 M 39 Milan U.S.
1273 Haggerty,James 569 1:01:15.1 59:20.3 9:33 M 47 Redford MI
1274 Stone,Cheryl 2012 1:01:15.8 1:00:18.4 9:42 F 37 South Lyon MI
1275 Hardy,Michael 1863 1:01:16.1 59:40.1 9:36 M 31 Ann Arbor MI
1276 Mason,Nancy 968 1:01:17.2 1:00:17.4 9:42 F 57 Saline MI
1277 Forster,Michele 460 1:01:18.4 59:47.7 9:37 F 31 Ann Arbor MI
1278 Lopez-geiman,Monique 918 1:01:18.9 59:48.2 9:37 F 35 Ann Arbor United States
1279 Pfeifer,Julie 1219 1:01:19.2 59:57.8 9:39 F 24 Ann Arbor MI
1280 Tattan,Julia 1522 1:01:21.3 59:35.1 9:35 F 23 Zeeland MI
1281 Tattan,David 1521 1:01:21.7 59:35.0 9:35 M 58 Zeeland MI
1282 Cutright,Chelsea 302 1:01:24.3 59:38.4 9:36 F 25 Ypsilanti MI
1283 Krupp-smith,Tracy 831 1:01:24.6 59:50.5 9:38 F 40 Durand MI
1284 Smith,Don 1433 1:01:24.8 59:51.5 9:38 M 42 Durand MI
1285 Prygoski,Mary 1259 1:01:25.2 1:00:29.1 9:44 F 53 Okemos MI
1286 Prygoski,Alicia 1257 1:01:25.3 1:00:29.9 9:44 F 20 Okemos MI
1287 Shubeck,Stacey 1412 1:01:28.9 59:59.6 9:39 F 37 Waterford MI
1288 Marquette,Christopher 955 1:01:29.0 1:00:22.1 9:43 M 26 Detroit MI
1289 Engel,Stephanie 401 1:01:29.3 1:00:00.2 9:39 F 41 Grand Haven United States
1290 James,Eric 700 1:01:30.0 1:00:21.8 9:43 M 14 Commerce Twp United States
1291 Goodrich,Sharon 532 1:01:30.1 1:00:14.9 9:42 F 38 Dexter MI
1292 Marquette,Nicholas 956 1:01:31.4 1:00:25.5 9:43 M 23 Detroit MI
1293 Madias,Angela 1925 1:01:31.7 59:56.3 9:39 F 29 Novi United States
1294 Noveroske,Doug 1147 1:01:32.1 1:00:41.0 9:46 M 21 Ann Arbor United States
1295 Corle,Tyacie 281 1:01:32.6 1:00:16.2 9:42 F 26 Ann Arbor MI
1296 Comerford,Ciara 266 1:01:33.1 1:00:26.7 9:44 F 39 Plymouth MI
1297 Carrithers,Ryan 217 1:01:35.5 59:52.0 9:38 M 26 Northville MI
1298 Kulpa,Tiffany 836 1:01:36.8 59:53.4 9:38 F 27 Novi MI
1299 Garcia,Erica 496 1:01:37.0 59:14.2 9:32 F 20 Rochester Hills United States
1300 Kurleto,Joe 839 1:01:37.2 59:14.3 9:32 M 20 Rochester Hills MI
1301 Sanborn,Amy 1341 1:01:38.6 1:00:29.3 9:44 F 34 Commerce Twp United States
1302 Goldstein,Amy 531 1:01:41.0 1:00:16.0 9:42 F 27 Ann Arbor MI
1303 Candela,Danielle 1794 1:01:42.3 1:00:44.4 9:46 F 32 Sterling Heights United States
1304 Martin,Joel 1933 1:01:42.4 1:00:06.3 9:40 M 15 Canton MI
1305 Moy,Jessica 1090 1:01:42.6 1:00:33.7 9:45 F 38 Okemos MI
1306 Blakemore,Dan 110 1:01:42.8 1:00:06.5 9:40 M 54 Ann Arbor MI
1307 Cattier,Celine 224 1:01:43.7 1:00:18.1 9:42 F 27 Ann Arbor MI
1308 Zimmer,Josh 1758 1:01:44.1 1:00:33.1 9:45 M 34 Carleton MI
1309 Lothamer,Falina 919 1:01:45.2 1:00:19.6 9:42 F 21 Ann Arbor MI
1310 Newton Rosenow,Mandy 1127 1:01:46.1 1:00:16.0 9:42 F 34 Saline MI
1311 Witter,Craig 1717 1:01:46.1 1:00:33.7 9:45 M 26 New Hudson United States
1312 Dejesus,Anna 332 1:01:48.1 1:00:23.6 9:43 F 27 Ypsilanti MI
1313 Tio,Rosaline 2295 1:01:50.0 59:27.0 9:34 F 21 Ann Arbor MI
1314 Lukiewski,Ryan 925 1:01:50.0 1:00:44.3 9:46 M 36 Canton U.S.A.
1315 Stuckey,Linda 1487 1:01:50.6 1:00:45.2 9:47 F 30 Ann Arbor MI
1316 White,Kyla 2041 1:01:51.9 57:47.5 9:18 F 23 Ann Arbor MI
1317 Silcox,Eric 1416 1:01:54.8 1:00:43.0 9:46 M 41 Carleton MI
1318 Henry,Lynn 1869 1:01:56.6 1:00:57.8 9:49 F 39 Ypsilanti U.S.A.
1319 Benzie,Melissa 91 1:02:00.0 1:01:22.7 9:53 F 42 Brighton MI
1320 Shaw,Alicia 1400 1:02:00.5 1:01:19.9 9:52 F 30 Milan United States
1321 Shaw,Theodore 1401 1:02:00.5 1:01:19.8 9:52 M 33 Milan United States
1322 Escamilla,Adrienne 406 1:02:02.4 1:00:05.4 9:40 F 25 Ypsilanti MI
1323 Marshall,Lisa 958 1:02:02.9 1:01:14.1 9:51 F 52 Holt MI
1324 Harper,Alan 589 1:02:04.7 1:00:46.4 9:47 M 56 Brooklyn MI
1325 Timinski,Erica 2025 1:02:06.3 1:00:44.7 9:47 F 20 Ann Arbor United States
1326 Rodriguez,April 1303 1:02:09.7 1:00:30.8 9:44 F 23 Ann Arbor United States
1327 Hawley,Angela 607 1:02:09.8 1:00:31.1 9:44 F 36 Ypsilanti MI
1328 Radel,Carrie 1269 1:02:09.9 1:00:54.2 9:48 F 32 Lyons OH
1329 Fleszar,Andy 1839 1:02:10.3 1:01:07.7 9:50 M 22 Ann Arbor MI
1330 Fabry,Melinda 418 1:02:10.4 1:00:35.9 9:45 F 32 Brighton MI
1331 Potts,Amy 1248 1:02:10.6 1:00:28.6 9:44 F 49 Rives Junction MI
1332 Mykolenko,Orest 2266 1:02:11.6 1:00:27.8 9:44 M 50 Ann Arbor MI
1333 Koldys,Christie 806 1:02:11.9 1:00:14.5 9:42 F 33 Chesterfield MI
1334 Wilson,Matthew 1708 1:02:12.1 1:01:26.5 9:53 M 29 Ann Arbor United States
1335 Mallory,Chris 2201 1:02:12.4 1:00:40.8 9:46 M 26
1336 Weidenbach,Lisa 1677 1:02:14.0 1:01:15.3 9:51 F 48 Ann Arbor MI
1337 Brittain,Michelle 1784 1:02:14.6 1:00:40.8 9:46 F 20 Ann Arbor MI
1338 Ragnes,Carrie 1270 1:02:16.1 1:01:23.4 9:53 F 36 Dexter MI
1339 Ragnes,Peter 1271 1:02:16.3 1:01:24.1 9:53 M 36 Dexter MI
1340 Dorner,Kate 360 1:02:17.0 1:01:00.8 9:49 F 22 Richland United States
1341 Flynn,Kaitlin 454 1:02:17.2 1:00:50.3 9:47 F 21 Ann Arbor MI
1342 Barlow,Katherine 62 1:02:18.8 1:00:56.4 9:48 F 37 Farmington Hills MI
1343 Conlin,Sarah 272 1:02:20.2 1:00:19.1 9:42 F 39 Ann Arbor MI
1344 Schultz,Kristen 1371 1:02:21.4 1:01:52.3 9:57 F 27 Ann Arbor MI
1345 Ellis,Elizabeth 399 1:02:21.4 1:00:45.2 9:47 F 35 Ann Arbor MI
1346 Tong,Bethany 1555 1:02:21.8 1:01:53.5 9:58 F 27 Ann Arbor MI
1347 Round,Rebecca 1319 1:02:22.3 1:01:28.0 9:54 F 32 Saline MI
1348 Vladu,Christine 1618 1:02:23.3 1:01:00.8 9:49 F 37 Canton MI
1349 Dennisuk,Mike 1826 1:02:24.1 1:00:47.7 9:47 M 58 Trenton United States
1350 Hyduke-rundall,Becky 683 1:02:27.6 1:01:17.7 9:52 F 36 Monroe MI
1351 Bednarz,Patricia 2291 1:02:29.6 1:01:42.9 9:56 F 56 Lansing MI
1352 Baiza,Jennifer 53 1:02:30.0 1:00:18.1 9:42 F 38 Saline United States
1353 Warner,Allison 1654 1:02:30.7 1:00:46.8 9:47 F 26 Maumee U.S.
1354 Galloway,Rob 493 1:02:31.5 1:01:22.1 9:53 M 42 Brighton MI
1355 Overfield,Gregg 1185 1:02:32.9 1:01:23.2 9:53 M 34 Canton MI
1356 Vuocolo,Caitlin 1629 1:02:34.0 1:00:45.3 9:47 F 32 Ypsilanti MI
1357 Kanthi,Yogen 738 1:02:34.1 1:00:47.2 9:47 M 31 Ann Arbor MI
1358 Blixt,Mollie 113 1:02:34.9 1:00:48.5 9:47 F 33 Fowlerville Livingston
1359 Fisher,Jeannie 444 1:02:36.6 1:01:23.9 9:53 F 57 Ann Arbor MI
1360 Spiker,Amy 1458 1:02:36.7 1:00:50.1 9:47 F 31 Howell MI
1361 Maclean,Estelle 2260 1:02:38.1 1:02:10.9 10:00 F 48 Grosse Pointe Park MI
1362 Dashner,Denise 313 1:02:39.5 1:01:02.7 9:49 F 40 Temperance MI
1363 Valadez,Domingo 1593 1:02:39.5 1:01:02.8 9:49 M 51 Temperance MI
1364 Hall,Bradley 574 1:02:41.5 1:01:10.8 9:51 M 27 Monroe United States
1365 Blatt,Neal 111 1:02:43.2 1:01:39.8 9:55 M 40 Ann Arbor MI
1366 Latini,Eileen 1908 1:02:44.9 1:02:05.6 10:00 F 54 Ypsilanti MI
1367 Dunn,William 380 1:02:49.1 1:00:54.8 9:48 M 43 Ann Arbor United States
1368 Francis,Melissa 470 1:02:50.8 1:01:47.5 9:57 F 34 Ann Arbor MI
1369 Tortoriello,Renee 1559 1:02:52.4 1:00:58.5 9:49 F 28 Novi U.S.
1370 Vondracek,Anne 1624 1:02:52.5 1:01:41.3 9:56 F 33 Novi MI
1371 Holden,Carol 648 1:02:54.8 1:01:25.9 9:53 F 50 Ann Arbor MI
1372 Finch,Chelsea 440 1:02:55.6 1:02:01.0 9:59 F 25 Ann Arbor MI
1373 Wellman,Ned 1684 1:02:55.6 1:02:01.0 9:59 M 27 Ann Arbor MI
1374 Hall,Paul 1861 1:02:57.1 1:01:51.7 9:57 M 62 Troy MI
1375 Pierce,Marc 1227 1:02:57.9 1:01:37.8 9:55 M 49 Athens MI
1376 Brown,Lorray 167 1:02:58.5 1:01:28.9 9:54 F 50 Ypsilanti MI
1377 Obringer,Noah 1155 1:02:59.1 1:02:16.1 10:01 M 13 Decatur IN
1378 Tantillo,Anthony 1519 1:02:59.7 1:01:45.2 9:56 M 51 Dearborn MI
1379 Campain,Lynn 209 1:03:00.3 1:01:17.0 9:52 F 43 Ann Arbor MI
1380 Ulfig,Lindsay 1584 1:03:00.9 1:02:19.8 10:02 F 14 Saline MI
1381 Han-markey,Theresa 583 1:03:01.6 1:02:02.7 9:59 F 48 Ann Arbor MI
1382 Mrozek,Lisa 1091 1:03:01.6 1:02:21.0 10:02 F 48 Saline MI
1383 Bielis-smolinski,Susan 103 1:03:01.9 1:01:12.4 9:51 F 45 Troy Unites States
1384 Hunsberger,Katie 676 1:03:02.0 1:01:17.9 9:52 F 22 Ann Arbor MI
1385 Grant,Darryl 542 1:03:02.5 1:01:54.0 9:58 M 49 Bloomfield Hills MI
1386 Albinger,Suzanne 11 1:03:04.4 1:01:33.7 9:54 F 30 Livonia MI
1387 Chang,Priscilla 233 1:03:04.7 1:01:29.3 9:54 F 28 Ann Arbor MI
1388 Tran,Lucy 1565 1:03:05.5 1:01:48.8 9:57 F 25 Ann Arbor MI
1389 Fryer,Lisa 1843 1:03:06.9 1:01:49.0 9:57 F 29 Whitmore Lake MI
1390 Kaplan,Helen 740 1:03:08.1 1:01:13.6 9:51 F 35 Ann Arbor MI
1391 Mostek,Michele 1088 1:03:08.2 1:01:49.9 9:57 F 30 Livonia United States
1392 Mitchell,Amy 1055 1:03:08.4 1:02:20.0 10:02 F 36 Chelsea MI
1393 Parson,Lynda 1195 1:03:09.5 1:01:55.4 9:58 F 38 Ypsilanti MI
1394 Swanson,Steve 1505 1:03:10.0 1:01:34.5 9:55 M 27 Novi MI
1395 Mueller,Melissa 1092 1:03:14.7 1:01:24.8 9:53 F 31 Brighton MI
1396 Dornbusch,Krista 359 1:03:16.1 1:01:59.3 9:59 F 23 Ann Arbor United States
1397 Herrema,Daniel 626 1:03:16.1 1:01:49.4 9:57 M 40 Dexter MI
1398 Hart,Christina 599 1:03:16.5 1:02:29.0 10:03 F 20 Ann Arbor MI
1399 Lansu,Lucia 854 1:03:16.9 1:01:57.1 9:58 F 32 Westland U.S
1400 Fluger,Kimberly 453 1:03:16.9 1:02:26.7 10:03 F 20 Ann Arbor United States
1401 Dean,Christina 326 1:03:17.2 1:01:57.5 9:58 F 31 Ypsilanti U.S.A
1402 Zurek,Katharine 1764 1:03:18.9 1:02:28.4 10:03 F 20 Ann Arbor United States
1403 Laverty,Anne 1912 1:03:18.9 1:02:28.3 10:03 F 20 Ann Arbor MI
1404 Brickman,Katie 153 1:03:21.1 1:02:04.2 9:59 F 30 Ann Arbor MI
1405 Thomas,Charles 1539 1:03:21.2 1:02:03.0 9:59 M 39 Three Rivers MI
1406 Kowaguchi,Keiko 2192 1:03:21.8 1:01:51.8 9:57 M 0
1407 Takihana,Shoji 2191 1:03:21.9 1:01:52.1 9:57 M 0
1408 Daniels,Ann 307 1:03:23.0 1:01:30.2 9:54 F 53 Dexter Washtenaw
1409 Higgins,Barbara 632 1:03:23.4 1:01:58.7 9:58 F 39 Dexter MI
1410 Pichineru,Dan 1223 1:03:23.5 1:01:26.6 9:53 M 26 Ypsilanti MI
1411 Colwell,Brittany 262 1:03:23.6 1:01:27.8 9:53 F 23 Canton MI
1412 Goldman,Jason 2219 1:03:25.4 1:02:57.7 10:08 M 23
1413 Kenaan,Cesar 761 1:03:26.2 1:02:11.1 10:00 M 25 Ann Arbor MI
1414 Duncan,Birute 378 1:03:26.6 1:02:14.1 10:01 F 51 Carleton MI
1415 Bourne,Kyla 135 1:03:26.9 1:02:48.6 10:06 F 34 Ann Arbor MI
1416 Khateeb,Rafina 774 1:03:26.9 1:02:31.7 10:04 F 31 Brighton MI
1417 Morris,Melanie 1078 1:03:27.2 1:01:35.6 9:55 F 33 Livonia MI
1418 Brant,Racheal 150 1:03:29.4 1:02:05.6 10:00 F 34 Maybee MI
1419 Greenwood,Becca 552 1:03:32.1 1:02:10.3 10:00 F 24 Ann Arbor MI
1420 Serras,Ellie 1391 1:03:33.1 1:01:42.4 9:56 F 61 Ann Arbor MI
1421 Young,Kristy 2047 1:03:33.9 1:02:01.7 9:59 F 31 Ann Arbor MI
1422 Silvis,William 2107 1:03:34.0 1:02:06.8 10:00 M 62 Ann Arbor MI
1423 Fairchild,Jessica 421 1:03:35.4 1:02:23.2 10:02 F 24 New Hudson United States
1424 Santimauro,Lauren 1346 1:03:35.5 1:03:12.9 10:10 F 21 Ann Arbor MI
1425 Bigelon,Mary Lynn 2221 1:03:36.3 1:01:42.6 9:56 M 57
1426 Sordyl,John 2004 1:03:37.6 53:32.3 8:37 M 31 Northville MI
1427 Fenton,Karla 434 1:03:37.8 53:33.1 8:37 F 30 Lansing MI
1428 Rubin,Marc 1322 1:03:40.8 1:01:45.8 9:56 M 55 Ann Arbor MI
1429 Prout,Martha 1255 1:03:44.6 1:02:34.1 10:04 F 27 Shepherd MI
1430 Zditosky,Kristen 1752 1:03:45.6 1:01:53.5 9:58 F 25 Mattawan MI
1431 Sato,Takumi 1349 1:03:49.4 1:02:23.1 10:02 M 36 East Lansing MI
1432 Roan,Jennifer 1298 1:03:49.7 1:02:30.7 10:04 F 38 Midland MI
1433 Morse,Kelsey 1951 1:03:51.5 1:02:00.0 9:59 F 25 Battle Creek United States
1434 Harper,Connie 590 1:03:52.5 1:02:37.0 10:05 F 55 Brooklyn MI
1435 Kirk,Ginny 788 1:03:55.3 1:02:40.0 10:05 F 61 Dublin OH
1436 Howell,Linda 666 1:03:56.7 1:02:08.0 10:00 F 52 Howell MI
1437 Cutler,Nancy 301 1:03:56.8 1:01:55.4 9:58 F 46 West Bloomfield MI
1438 Newport,Scott 1123 1:03:57.1 1:01:55.9 9:58 M 52 Royal Oak MI
1439 Land,Kent 853 1:04:00.1 1:02:34.8 10:04 M 48 Waterford MI
1440 Land,Barb 852 1:04:00.5 1:02:35.1 10:04 F 47 Waterford MI
1441 Noren,Rebecca 1139 1:04:01.1 1:02:18.4 10:02 F 19 Ann Arbor United States
1442 Brewington,Lacey 152 1:04:02.5 1:02:35.6 10:04 F 19 Grass Lake United States
1443 Nelson,Brian 1118 1:04:03.1 1:02:06.8 10:00 M 44 Taylor MI
1444 Williams,Sarah 1705 1:04:03.2 1:02:50.1 10:07 F 32 Ann Arbor MI
1445 Calderon,Erica 201 1:04:04.0 1:02:42.1 10:05 F 24 Livonia MI
1446 Fowler,Christine 467 1:04:06.8 1:02:36.8 10:05 F 25 Ann Arbor MI
1447 Emmert,Larry 400 1:04:10.3 1:02:32.2 10:04 M 42 Detroit MI
1448 Hoover,Alex 656 1:04:10.6 1:03:05.3 10:09 M 24 Ypsilanti MI
1449 Lloyd,Jenna 911 1:04:10.6 1:03:06.0 10:09 F 25 Ypsilanti MI
1450 Miknis,Steve 1035 1:04:12.9 1:02:21.6 10:02 M 25 Battle Creek United States
1451 Deleruyelle,Ellen 333 1:04:14.3 1:02:22.0 10:02 F 39 Dexter MI
1452 Townsend,Devonie 1561 1:04:14.6 1:03:01.9 10:09 F 32 Ann Arbor MI
1453 Jordan,Katherine 735 1:04:15.2 1:03:02.3 10:09 F 31 Saline MI
1454 Tawarada,Emiko 2021 1:04:15.4 1:02:29.8 10:03 F 47 Ann Arbor U.S.A.
1455 Saperstein,Chad 1989 1:04:15.9 1:03:40.4 10:15 M 36 Farmington Hills MI
1456 Labarr,Kellie 845 1:04:18.3 1:02:48.8 10:07 F 37 Ypsilanti MI
1457 Antle,Katie 36 1:04:19.5 1:02:54.2 10:07 F 27 Ann Arbor MI
1458 Borchardt,Donald 123 1:04:24.7 1:02:54.7 10:07 M 31 Canton MI
1459 Rouditchenko,Olga 1317 1:04:25.1 1:03:59.4 10:18 F 22 Center Line MI
1460 Kokotovich,Catherine 1898 1:04:28.7 1:03:15.4 10:11 F 32 Ferndale MI
1461 Borchardt,Shavonne 124 1:04:28.7 1:02:58.8 10:08 F 29 Canton MI
1462 Burkhart,Shannon 1791 1:04:30.8 1:03:08.8 10:10 F 24 Holly Ridge United States
1463 Boman,Kelly 122 1:04:31.2 1:02:33.7 10:04 F 34 Grosse Pointe Woods MI
1464 Funkhouser,Chloe 485 1:04:33.4 1:02:39.1 10:05 F 26 Ann Arbor MI
1465 Tallio,Nancy 1515 1:04:37.1 1:03:20.6 10:12 F 50 Saline MI
1466 Sasaki,Lisa 1348 1:04:40.1 1:03:14.4 10:11 F 45 Canton MI
1467 Auner,David 2056 1:04:42.8 1:03:10.6 10:10 M 50 South Lyon MI
1468 Boshoven,Robert 131 1:04:44.2 1:03:19.3 10:11 M 48 Northville MI
1469 Boshoven,Lorie 130 1:04:44.5 1:03:19.0 10:11 F 46 Northville MI
1470 Gallagher,Maureen 1849 1:04:45.9 1:03:40.9 10:15 F 54 Troy MI
1471 Lehnis,Katie 875 1:04:47.2 1:03:58.2 10:18 F 31 Canton MI
1472 Grochowski,Heather 562 1:04:50.7 1:02:56.6 10:08 F 30 Lambertville United States
1473 Kolanowski,Mary 804 1:04:51.5 1:03:31.6 10:13 F 28 Wolverine Lake MI
1474 Ramesh,Sheela 1272 1:04:52.1 1:03:50.9 10:17 F 23 Canton MI
1475 Kovacs,April 819 1:04:52.7 1:03:25.5 10:12 F 32 Wyandotte MI
1476 Feldman,Steven 432 1:04:54.3 1:03:42.6 10:15 M 56 Birmingham MI
1477 Ross,Tammy 1315 1:04:54.5 1:02:58.3 10:08 F 39 Wyandotte United States
1478 Angell,Debbie 33 1:04:54.6 1:03:32.5 10:14 F 49 Oxford MI
1479 Krueger,Nick 830 1:04:55.3 1:04:15.1 10:20 M 32 Haslett United States
1480 Rimer,Jessica 1292 1:04:55.5 1:04:05.0 10:19 F 27 Plymouth MI
1481 Brady,Lisa 146 1:04:57.9 1:03:36.0 10:14 F 49 Waterford MI
1482 Thompson,Scott 1550 1:04:58.6 1:03:41.1 10:15 M 36 Ann Arbor MI
1483 Mclean,Alexandra 1006 1:05:00.0 1:03:11.0 10:10 F 26 Ann Arbor MI
1484 Nohr,Kathy 1135 1:05:00.5 1:03:15.1 10:11 F 59 Dexter MI
1485 Shiltz,Laura 1407 1:05:00.7 1:03:14.6 10:11 F 38 Ypsilanti MI
1486 Brym,Maria 172 1:05:01.0 1:03:19.3 10:11 F 23 Ypsilanti MI
1487 Seaver,Colette 1380 1:05:01.2 1:03:16.2 10:11 F 38 Whitmore Lake MI
1488 Mclean,Timothy 1007 1:05:01.9 1:03:12.6 10:10 M 48 Ann Arbor MI
1489 Susalla,Peter 1498 1:05:01.9 1:03:17.7 10:11 M 30 Ann Arbor MI
1490 Kostielney,Kristen 1900 1:05:03.9 1:03:51.3 10:17 F 36 Canton MI
1491 Northrop,Kristin 1145 1:05:04.5 1:03:24.7 10:12 F 39 Ann Arbor MI
1492 Blitz,Lauren 112 1:05:04.5 1:03:24.7 10:12 F 32 Ann Arbor MI
1493 Weiss,Michael 1681 1:05:07.2 1:03:36.7 10:14 M 35 Zeeland MI
1494 Frye,Stacy 481 1:05:07.4 1:03:36.7 10:14 M 36 Holland MI
1495 Cicotte,Melony 243 1:05:08.2 1:03:30.2 10:13 F 35 Carleton MI
1496 Garcia,Do 349 1:05:09.2 1:03:18.6 10:11 F 60 Ann Arbor United States
1497 Peacock,Jennifer 1959 1:05:09.6 1:03:23.2 10:12 F 30 Ann Arbor MI
1498 Nowak,Gina 1148 1:05:09.9 1:03:38.8 10:15 F 40 Tecumseh MI
1499 Portelli,Joe 1246 1:05:10.5 1:04:04.8 10:19 M 48 Sterling Hts MI
1500 Paras,Mary Sharon 1958 1:05:10.9 1:03:43.4 10:15 F 35 Howell MI
1501 Platte,Rachel 1236 1:05:12.8 1:04:00.1 10:18 F 26 Ann Arbor MI
1502 Mcfarland,Manda 997 1:05:12.9 1:04:00.0 10:18 F 33 Milan MI
1503 Petkus,Shylah 1217 1:05:15.0 1:03:52.6 10:17 F 31 Wixom MI
1504 Bibik,Anne 1776 1:05:16.0 1:03:36.2 10:14 F 54 Brighton MI
1505 Vaughan,Katherine 1607 1:05:16.0 1:03:36.3 10:14 F 21 Ann Arbor MI
1506 Truesdell,Lynn 1575 1:05:17.6 1:03:32.8 10:14 F 36 Ann Arbor United States
1507 Gaynier,Beth 506 1:05:18.1 1:04:02.5 10:18 F 30 Ypsilanti United States
1508 Vanhouten,Jenny 2032 1:05:20.0 1:04:02.5 10:18 F 43 Dexter MI
1509 Milner,Stacie 1051 1:05:20.2 1:03:39.1 10:15 F 39 Ann Arbor MI
1510 Horky,Allison 659 1:05:21.4 1:03:53.8 10:17 F 23 Ann Arbor MI
1511 Psychas,Timothy 1261 1:05:28.4 1:05:03.2 10:28 M 48 Ann Arbor Washtenaw
1512 Derheim,Michele 338 1:05:28.9 1:03:47.4 10:16 F 42 Manchester MI
1513 Schubert,Marilyn 1366 1:05:29.8 1:03:49.2 10:16 F 47 Bay City MI
1514 Schubert,David 1365 1:05:30.1 1:03:49.2 10:16 M 48 Bay City MI
1515 Wright,Jason 1733 1:05:30.6 1:05:09.8 10:29 M 41 Elmhurst IL
1516 Colwell,Jennifer 264 1:05:30.9 1:03:32.1 10:13 F 26 Canton MI
1517 Bihn,Carolyn 104 1:05:32.3 1:04:12.6 10:20 F 40 Oregon OH
1518 Dedrick,Ellen 2269 1:05:34.0 1:04:20.5 10:21 F 41 Canton MI
1519 Karsch,Susan 746 1:05:42.8 1:04:01.0 10:18 F 40 Ann Arbor Washtenaw
1520 Archer,Kathy 38 1:05:43.9 1:04:15.8 10:21 F 45 Dundee MI
1521 Lipke,Crystal 1921 1:05:43.9 1:03:58.0 10:18 F 31 Ann Arbor MI
1522 Squire,Crystal 1461 1:05:44.9 1:04:45.2 10:25 F 25 Livonia MI
1523 Wood,Annalee 1729 1:05:45.8 1:04:12.5 10:20 F 23 Flushing MI
1524 Kondogiani,Christy 1899 1:05:46.1 1:04:35.3 10:24 F 38 Novi MI
1525 Cranson,Cheryl 289 1:05:47.3 1:04:56.0 10:27 F 31 Dundee MI
1526 Byron,Lori 194 1:05:48.7 1:04:48.6 10:26 F 40 Saline MI
1527 Bowns,Erin 1781 1:05:48.9 1:04:20.7 10:21 F 23 Columbus OH
1528 Lafever,John 850 1:05:49.1 1:03:50.7 10:16 M 33 Fraser MI
1529 Linsley,Susanna 1920 1:05:50.7 1:04:04.3 10:19 F 29 Ann Arbor MI
1530 Mcbride,Faith 983 1:05:51.9 1:04:18.2 10:21 F 30 Flushing MI
1531 Hendrickson,Lynne 623 1:05:53.0 1:04:58.7 10:27 F 40 Ann Arbor MI
1532 Hoffman,Hayley 1873 1:05:56.2 1:04:22.1 10:22 F 19 Ann Arbor MI
1533 Bartlett,Kimberly 65 1:05:56.4 1:04:42.8 10:25 F 26 Ypsilanti United States
1534 Skilton,David 1425 1:05:56.6 1:04:42.5 10:25 M 55 Farmington Hills MI
1535 Spayd,Ann Marie 2007 1:05:57.2 1:04:44.8 10:25 F 43 Livonia MI
1536 Grenier,Andrea 556 1:05:58.9 1:04:59.9 10:28 F 24 Macomb MI
1537 De Martin,Michael 1823 1:05:59.1 1:04:59.9 10:28 M 26 ST. Clair Shores MI
1538 Eshenroder,Lori 407 1:06:06.7 1:04:42.3 10:25 F 39 Monroe MI
1539 Piereson,Mary 1228 1:06:07.4 1:04:37.9 10:24 F 20 Ann Arbor MI
1540 Hankus,Rachel 582 1:06:07.6 1:05:23.8 10:31 F 20 Troy MI
1541 Wolf,Jennifer 1724 1:06:07.6 1:04:21.0 10:21 F 34 Ann Arbor MI
1542 Singel,Wenona 1422 1:06:08.5 1:04:45.1 10:25 F 37 East Lansing MI
1543 Zimmer,Denise 1755 1:06:09.3 1:04:58.9 10:27 F 39 Carleton MI
1544 Principi,Michelle 1252 1:06:09.3 1:04:41.4 10:25 F 42 Pinckney MI
1545 Fletcher,Matthew 451 1:06:09.6 1:04:46.4 10:25 M 38 East Lansing MI
1546 Schneidewind,Sara 2255 1:06:12.4 1:04:17.8 10:21 F 36 Ann Arbor MI
1547 Pittenger,Brent 1234 1:06:13.8 1:04:42.1 10:25 M 30 Flint United States
1548 Faulds,Travis 427 1:06:14.0 1:04:42.6 10:25 M 41 Holt MI
1549 Faulds,Nicole 426 1:06:14.0 1:04:42.8 10:25 F 39 Holt MI
1550 Keenan,Marney 2081 1:06:14.7 1:05:02.6 10:28 F 56 Bloomfield Hills MI
1551 Arnold,Natasha 41 1:06:15.8 1:04:25.8 10:22 F 37 Ypsilanti MI
1552 Acker,Steven 1766 1:06:15.8 1:05:11.4 10:29 M 56 Ann Arbor Unite States
1553 Holland,Michael 649 1:06:20.3 59:24.9 9:34 M 28 Ann Arbor MI
1554 Howard,Michael 664 1:06:20.6 59:25.0 9:34 M 37 Northville MI
1555 Seger,Stephen 1384 1:06:21.3 1:05:20.2 10:31 M 24 Okemos MI
1556 Ladziak,Ronald 849 1:06:25.1 1:04:46.8 10:25 M 45 Whitmore Lake MI
1557 Ladziak,Robin 848 1:06:25.3 1:04:46.4 10:25 F 36 Whitmore Lake MI
1558 Russ,Jay 1326 1:06:27.1 1:05:17.4 10:30 M 31 Rochester MI
1559 Evans,Jamie 412 1:06:27.6 1:05:18.5 10:31 F 25 Flint MI
1560 Seger,Mary 1383 1:06:28.7 1:05:27.5 10:32 F 51 Gaylord MI
1561 Troia,Ronald 2273 1:06:30.0 1:05:30.4 10:33 M 34 Livonia MI
1562 Fine,Nancy 442 1:06:30.1 1:04:56.6 10:27 F 38 Portland OR
1563 Shih,Kendra 1406 1:06:30.4 1:04:56.8 10:27 F 35 Ann Arbor MI
1564 Lemmen,Justin 879 1:06:34.4 1:05:46.1 10:35 M 17 Zeeland MI
1565 Ver Beek,Laura 1612 1:06:34.5 1:04:37.3 10:24 F 51 Grosse Pointe Park MI
1566 Lemmen,Doug 878 1:06:35.7 1:05:48.4 10:35 M 48 Zeeland MI
1567 Beier,Nicolas 80 1:06:36.0 1:04:48.8 10:26 M 22 Ann Arbor MI
1568 Vaduva,Tim 1592 1:06:36.1 1:04:49.0 10:26 M 28 Ann Arbor MI
1569 Li,Jieran 2174 1:06:36.5 1:06:16.9 10:40 M 15
1570 Dulic,Melissa 377 1:06:39.4 1:05:59.9 10:37 F 21 Ann Arbor MI
1571 Thibault,David 2109 1:06:41.1 1:05:25.5 10:32 M 36 Ypsilanti MI
1572 Wolfe,Megan 1728 1:06:46.8 1:04:55.3 10:27 F 25 Chicago United States
1573 Davis,Stephanie 321 1:06:47.0 1:06:02.1 10:38 F 26 Clinton MI
1574 Johnson,Lorraine 394 1:06:48.2 1:05:37.8 10:34 F 30 Ann Arbor United States
1575 Naasko,Rachel 1108 1:06:50.1 1:05:15.4 10:30 F 35 Ann Arbor MI
1576 Fuentes,Melina 482 1:06:51.0 1:05:15.5 10:30 F 29 Ypsilanti MI
1577 Banks,Sarah 58 1:06:51.2 1:05:20.7 10:31 F 39 Plymouth MI
1578 Bartscht,Jennifer 1772 1:06:51.3 1:05:21.3 10:31 F 39 Dexter MI
1579 Galea,Carole 491 1:06:51.4 1:05:13.0 10:30 F 58 Ann Arbor United States
1580 Mikolajczak,Christine 1036 1:06:51.9 1:05:17.1 10:30 F 30 Ypsilanti MI
1581 Bassett,Jeff 66 1:06:52.4 1:05:15.3 10:30 M 49 Saline MI
1582 Fitch,Jason 448 1:06:52.4 1:05:15.4 10:30 M 49 Saline MI
1583 Severance,Keith 1394 1:06:53.8 1:05:12.0 10:30 M 45 Ann Arbor MI
1584 Marske,Melodie 959 1:06:57.6 1:05:02.6 10:28 F 44 Ann Arbor U.S.
1585 Sexton,Ashley 1395 1:07:00.3 1:05:34.2 10:33 F 26 Ann Arbor MI
1586 Willer,Emily 1703 1:07:05.3 1:05:57.9 10:37 F 18 Canton United States
1587 Blain,Heather 109 1:07:05.6 1:05:55.2 10:36 F 35 Stratford Canada
1588 Blain,Brady 108 1:07:05.7 1:05:54.8 10:36 M 35 Stratford Canada
1589 Dubin,Howard 371 1:07:07.9 1:05:51.1 10:36 M 70 West Bloomfield MI
1590 Lee,Sunghee 874 1:07:09.5 1:05:10.7 10:29 F 36 Ann Arbor MI
1591 Wascha,Joann 1659 1:07:10.9 1:05:52.8 10:36 F 66 Burton MI
1592 Mirabitur,Sandy 1053 1:07:19.0 1:06:01.8 10:38 F 36 Livonia MI
1593 Pullen,Kyle 1262 1:07:19.3 54:00.7 8:42 M 39 Ann Arbor MI
1594 Rohl,Jenn 1309 1:07:19.8 1:05:59.3 10:37 F 37 Ann Arbor MI
1595 Wohl,Nicole 1720 1:07:20.0 1:05:59.3 10:37 F 33 Clarkston MI
1596 Zuccarini,Sharon 1760 1:07:21.0 1:06:03.9 10:38 F 52 Livonia MI
1597 Fuqua-smith,Anna 1846 1:07:24.0 1:06:39.5 10:44 F 25 Ann Arbor MI
1598 Quinlivan,Pamela 1967 1:07:25.3 1:05:43.2 10:35 F 39 Howell MI
1599 Waite,Sara 1634 1:07:25.5 1:05:42.9 10:35 F 37 Ypsilanti MI
1600 Greashaber,Laura 544 1:07:27.4 1:05:35.7 10:33 F 30 Ann Arbor MI
1601 Flatley,Nicole 2209 1:07:28.5 1:05:47.7 10:35 F 30
1602 Manno,Erin 1929 1:07:31.7 1:06:10.5 10:39 F 31 Superior Township United States
1603 Greig,Hillary 554 1:07:41.8 1:06:15.4 10:40 F 23 Ann Arbor MI
1604 Woodman,Heather 1730 1:07:47.7 1:06:19.8 10:40 F 37 Ypsilanti MI
1605 Michalak,Michelle 2262 1:07:49.1 1:06:44.7 10:44 F 39 Sylvania OH
1606 Kelly,Elizabeth 757 1:07:49.4 1:06:28.1 10:42 F 23 Ann Arbor United States
1607 Ohare,Kullan 1160 1:07:54.7 1:06:40.2 10:44 M 28 Gahanna OH
1608 Cosgrove,Jenny 284 1:07:55.0 1:06:40.4 10:44 F 28 Columbus OH
1609 Hogan,Stacy 642 1:07:55.9 1:06:12.3 10:39 F 46 Canton MI
1610 Young,Dinah 1745 1:07:59.9 1:06:35.3 10:43 F 42 Ypsilanti MI
1611 Garrett,Reina 1850 1:08:00.7 1:06:43.2 10:44 F 23 Ann Arbor MI
1612 Kickland,Mindy 777 1:08:03.0 1:06:43.1 10:44 F 37 Midland United States
1613 Bekemeier,Kelly 81 1:08:07.0 1:07:35.3 10:53 F 26 Birch Run Saginaw
1614 Nicodemus,Kelly 1132 1:08:09.1 1:06:22.3 10:41 F 53 Piqua OH
1615 Nicodemus,Dave 1131 1:08:10.3 1:06:23.5 10:41 M 54 Piqua OH
1616 Johnson,Ian 718 1:08:19.2 1:06:19.6 10:40 M 16 Clinton Township United States
1617 Mihora Jr,Michael 1033 1:08:19.6 1:06:38.3 10:43 M 27 Ann Arbor MI
1618 Boyea,Melissa 142 1:08:20.7 1:06:39.8 10:44 F 27 Burns Street MI
1619 Elder,Millard 395 1:08:25.6 1:07:01.5 10:47 M 59 Ann Arbor MI
1620 Burgoyne,Adrienne 184 1:08:27.2 1:01:42.1 9:56 F 21 Ann Arbor MI
1621 Burgoyne,Cyntha 185 1:08:27.3 1:01:40.6 9:56 F 51 Ann Arbor MI
1622 Bosley,Tara 133 1:08:31.2 1:05:51.5 10:36 F 35 Howell MI
1623 Bosley,Matt 132 1:08:31.3 1:05:52.2 10:36 M 33 Howell MI
1624 Tran,Julia 1564 1:08:32.8 1:06:06.2 10:38 F 26 Ann Arbor MI
1625 Radtke,Dana 1970 1:08:35.0 1:06:42.6 10:44 F 31 Ann Arbor MI
1626 Long,Tori 2264 1:08:35.0 1:07:41.6 10:54 F 46
1627 Anderson,Carrie 28 1:08:39.2 1:06:48.9 10:45 F 32 Trenton MI
1628 Zolenski,Tara 1759 1:08:42.6 1:06:58.2 10:47 F 36 Whitmore Lake MI
1629 Poglits,Sarah 1240 1:08:46.4 1:07:34.5 10:52 F 30 Canton MI
1630 Hopper,John 658 1:08:46.8 1:07:02.9 10:47 M 46 Canton MI
1631 Hopper,Ethan 657 1:08:48.3 1:07:04.5 10:48 M 13 Canton MI
1632 Neary,Colleen 1117 1:08:49.5 1:07:16.8 10:50 F 42 South Lyon MI
1633 Darnbrook,Emily 311 1:08:52.0 1:07:16.2 10:50 F 26 Northville MI
1634 Edwards,Kalee 391 1:08:52.5 1:07:16.7 10:50 F 21 Ann Arbor United States
1635 Collino,Brian 259 1:08:53.1 1:07:27.6 10:51 M 42 Ida MI
1636 Reisman,Rachel 1282 1:08:55.6 1:07:16.7 10:50 F 29 Ann Arbor MI
1637 Howell,Paul 667 1:08:55.7 1:07:15.4 10:49 M 54 Ann Arbor MI
1638 Mccammon,Rhonda 986 1:08:56.6 1:07:16.3 10:50 F 39 Ann Arbor MI
1639 Norman,Lorena 1140 1:08:58.2 1:07:06.0 10:48 F 26 Pinckney United States
1640 Shevnock,Colleen 1405 1:08:59.3 1:07:04.4 10:48 F 45 Ann Arbor MI
1641 Daberko,Megan 304 1:08:59.8 1:07:07.8 10:48 F 27 Pinckney MI
1642 Malmquist,Andrew 943 1:09:02.7 1:07:53.8 10:56 M 20 Tecumseh United States
1643 Randolph,Mary 1274 1:09:05.0 1:08:24.8 11:01 F 62 Chelsea MI
1644 Worthington,Kristin 2275 1:09:05.7 1:07:09.0 10:48 F 40 Howell MI
1645 Masing,Tricia 1934 1:09:10.2 1:07:46.5 10:54 F 40 Ann Arbor MI
1646 Kielbaso,Jim 2083 1:09:16.3 1:07:33.0 10:52 M 38 Plymouth MI
1647 Kielbaso,Elaina 2082 1:09:16.4 1:07:33.8 10:52 F 38 Plymouth MI
1648 Bodmer,Cheryl 117 1:09:17.2 1:07:25.8 10:51 F 38 Kirtland OH
1649 Lynch,Lisa 927 1:09:20.6 1:07:55.6 10:56 F 39 Rochester Hills United States
1650 Calevro,Tiffany 205 1:09:21.5 1:08:07.1 10:58 F 23 Perrysburg United States
1651 Smith,Amy 2225 1:09:22.2 1:07:29.3 10:52 F 31
1652 Smith,Bizet 2226 1:09:22.2 1:07:29.4 10:52 M 0
1653 Turner,Sarah 1581 1:09:22.5 1:07:51.4 10:55 F 26 Royal Oak MI
1654 Borr,Subrina 127 1:09:22.5 1:07:52.8 10:55 F 27 Mattawan United States
1655 Daly,Mark 2069 1:09:26.1 1:07:52.1 10:55 M 45 Novi MI
1656 Siegel,Margaret 1996 1:09:28.9 1:08:27.9 11:01 F 48 Royal Oak MI
1657 Dozauer,Wolfgang 367 1:09:31.2 1:08:21.3 11:00 M 77 Ann Arbor MI
1658 Zurawski,Bailey 1763 1:09:37.1 1:09:06.0 11:07 F 20 Ann Arbor MI
1659 Abbatt,Candyce 1 1:09:37.4 1:09:05.3 11:07 F 51 Dearborn MI
1660 Pozios,Patty 1249 1:09:38.1 1:07:51.0 10:55 F 38 Dearborn MI
1661 Kilijanczyk,Eric 779 1:09:38.3 1:08:37.8 11:03 M 23 Ann Arbor MI
1662 Thomey,Jessica 1544 1:09:41.4 1:08:27.4 11:01 F 27 Plymouth MI
1663 Sloboda,Dawn 1999 1:09:43.7 1:08:45.1 11:04 F 46 Valparaiso IN
1664 Dubey,Katryna 1829 1:09:45.1 1:08:47.7 11:04 F 35 Sterling Heights MI
1665 Frarer,Jennifer 471 1:09:45.6 1:07:26.8 10:51 F 31 New Boston MI
1666 Frarer,Timothy 472 1:09:47.1 1:07:28.3 10:51 M 33 New Boston MI
1667 Gottschalk,Peter 2206 1:09:47.4 1:07:51.7 10:55 M 16
1668 Dilsizian,Sarah 345 1:09:48.3 1:08:30.0 11:01 F 31 S Rockwood MI
1669 Connelly,Amy 273 1:09:48.4 1:08:30.4 11:01 F 39 Canton MI
1670 Roedel,Jennifer 1305 1:09:49.9 1:09:13.5 11:08 F 29 Ann Arbor MI
1671 Glamann,Jordan 522 1:09:49.9 1:09:13.4 11:08 M 28 Ann Arbor MI
1672 Bacon,Gina 51 1:09:50.4 1:08:06.7 10:58 F 40 Carleton MI
1673 Gawecki,Elizabeth 2152 1:09:51.2 1:08:03.8 10:57 F 21
1674 Kumke,Karoline 837 1:09:51.8 1:08:04.8 10:57 F 22 Brighton MI
1675 Januszka,Racheal 704 1:09:53.1 1:08:05.2 10:57 F 27 Lansing Ingham
1676 Januszka,Megan 703 1:09:54.1 1:08:06.4 10:58 F 29 Coldwater United States
1677 Devore,Shea 342 1:09:59.3 1:08:19.0 11:00 F 19 Temperance MI
1678 Clifford,Dan 252 1:09:59.3 1:08:19.1 11:00 M 20 Temperance MI
1679 Wheat,Kari 2039 1:10:01.0 1:08:20.9 11:00 F 30 Ypsilanti United States
1680 Allison,Vicki 19 1:10:04.1 1:09:27.4 11:11 F 38 Lansing MI
1681 Novince,Chad 2148 1:10:06.1 59:08.1 9:31 M 32
1682 Salazar,Daisy 2104 1:10:06.4 56:47.9 9:08 F 30 Ann Arbor United States
1683 Caldwell,Dottie 203 1:10:09.5 1:09:03.8 11:07 F 37 Saline MI
1684 Glennie,Cindy 525 1:10:09.5 1:09:03.9 11:07 F 40 Saline United States
1685 Greene,Scott 1856 1:10:10.2 1:08:57.6 11:06 M 34 Farmington Hills MI
1686 Gajos,Russell 489 1:10:11.6 1:08:49.3 11:05 M 27 Ann Arbor MI
1687 Dunlap,Kate 379 1:10:15.4 1:08:32.5 11:02 F 29 Plymouth MI
1688 Peltier,Jennifer 1206 1:10:15.5 1:08:32.5 11:02 F 29 Plymouth MI
1689 Coffey,Tracy 254 1:10:17.4 1:09:36.4 11:12 F 26 Chelsea MI
1690 Mccalla,Terri 985 1:10:17.9 1:09:37.4 11:12 F 54 Chelsea MI
1691 Adams,Andrea 1767 1:10:21.7 1:09:14.7 11:09 F 18 Carleton United States
1692 Haggerty,Judith 570 1:10:23.3 1:08:28.3 11:01 F 56 Redford MI
1693 Cox,Carolyn 1816 1:10:23.5 1:09:16.7 11:09 F 37 Southgate MI
1694 Reynolds,Diane 1287 1:10:27.9 1:08:28.7 11:01 F 52 Ann Arbor MI
1695 Johnson,Kelly 722 1:10:30.2 1:09:07.6 11:07 F 29 Berkley MI
1696 Mitchell,Theresa 1056 1:10:34.8 1:08:37.9 11:03 F 46 Howell MI
1697 Oneill,Megan 1172 1:10:38.3 1:09:01.3 11:06 F 30 Chicago IL
1698 O'neill,Erin 1173 1:10:38.5 1:09:02.4 11:07 F 33 Niskayuna NY
1699 Carbeck,Robert 213 1:10:38.9 1:09:10.9 11:08 M 50 Ann Arbor MI
1700 Puser,Hollee 1263 1:10:39.6 1:09:15.7 11:09 F 34 Chicago IL
1701 Hautamaki,Karyn 605 1:10:43.6 1:08:45.7 11:04 F 57 Ann Arbor U.S.A.
1702 Wolf,Denise 1723 1:10:43.6 1:08:45.5 11:04 F 56 Saline MI
1703 Klann,Diane 795 1:10:47.8 1:09:12.3 11:08 F 45 Canton United States
1704 Maemura,Hiroko 1927 1:10:49.4 1:09:14.7 11:09 F 47 Novi Ua
1705 Koval,Liz 820 1:10:58.4 1:09:11.0 11:08 F 32 Manchester MI
1706 Spickard,Shanna 1457 1:11:09.9 1:09:10.5 11:08 F 37 Saline MI
1707 Neal,Latonia 1116 1:11:11.0 1:10:35.4 11:22 F 44 Carleton MI
1708 Graber,Jennifer 537 1:11:20.6 1:09:17.4 11:09 F 37 Three Rivers MI
1709 Davis,Jennifer 317 1:11:22.3 1:09:59.0 11:16 F 25 Ypsilanti MI
1710 Mcferrin,Robin 1936 1:11:26.7 1:09:27.9 11:11 F 44 Lathrup Village United States
1711 Torrice,Mary 1558 1:11:36.4 1:09:43.3 11:13 F 28 Chelsea MI




Big House Big Heart - 10k Age Group Results
Ann Arbor, MI
October 3, 2010

Results by RF Timing
Software by ChuckScore

Male Unknown 5-9 10-14 15-19 20-24 25-29 30-34 35-39 40-44 45-49 50-54 55-59 60-64 65-69 70-74 75-79
Female Unknown 10-14 15-19 20-24 25-29 30-34 35-39 40-44 45-49 50-54 55-59 60-64 65-69 85-89
Top Male
Overall Overall State/
Place Name Bib Gun Tag Pace Place by Sex City County
1 Perrin,Josh 1961 31:57.5 31:57.5 5:09 1 1 Hamburg MI
Go To Top
Top Female
Overall Overall State/
Place Name Bib Gun Tag Pace Place by Sex City County
1 Wightman,Beth 2188 36:59.8 36:59.0 5:57 8 1
Go To Top
Age Unknown - Male
Overall Overall State/
Place Name Bib Gun Tag Pace Place by Sex City County
1 Riggs,Dave 2172 42:40.9 42:38.2 6:52 88 82
2 Shipley,Joseph 2196 43:58.8 43:53.9 7:04 126 111
3 Poppens,Tiapko 2140 50:01.1 49:35.2 7:59 421 309
4 Moede,Doug 2157 52:11.5 51:47.1 8:20 569 394
5 Long,Rich 2158 52:49.7 52:09.8 8:24 597 411
6 Pelzen,Justin 2234 58:23.1 57:19.1 9:13 1031 625
7 Ellis,Robert 2130 1:00:10.8 59:14.0 9:32 1214 696
8 Kowaguchi,Keiko 2192 1:03:21.8 1:01:51.8 9:57 1400 756
9 Takihana,Shoji 2191 1:03:21.9 1:01:52.1 9:57 1401 757
10 Smith,Bizet 2226 1:09:22.2 1:07:29.4 10:52 1649 822
Go To Top
5-9 Male
Overall Overall State/
Place Name Bib Gun Tag Pace Place by Sex City County
1 Czerniak,Ethan 303 58:53.3 57:17.0 9:13 1027 622 Northville MI
2 Maclin,Christian 935 1:20:32.4 1:19:08.0 12:44 1838 865 Monroe MI
Go To Top
10-14 Male
Overall Overall State/
Place Name Bib Gun Tag Pace Place by Sex City County
1 Darr,Alexander 312 41:33.4 41:33.4 6:41 55 52 Brighton MI
2 Esparza,Alec 408 42:45.1 42:40.2 6:52 90 84 Saginaw United States Of Ame
3 Russell,Jonathan 2292 44:22.7 44:14.5 7:07 137 119 Ann Arbor MI
4 Le Pottier,Luc 1913 48:10.5 47:43.8 7:41 306 229 Ann Arbor MI
5 Roedel,Hunter 1304 50:00.1 49:24.5 7:57 415 305 Livonia MI
6 Sorscher,Sam 1452 53:06.1 52:46.2 8:30 644 441 Ann Arbor MI
7 Silcox,Zachary 1418 55:16.9 54:09.1 8:43 773 501 Carleton MI
8 Stead,Aidan 1472 54:47.8 54:19.2 8:45 791 512 Ann Arbor MI
9 Tavalieri,Peter 1525 57:51.7 55:59.0 9:01 923 573 Saint Clair Shores United States Of Ame
10 Garton,Thomas 501 56:59.8 56:56.8 9:10 999 608 Ann Arbor MI
11 Dowd,Evan 363 59:36.9 59:04.8 9:30 1201 688 Lake Orion MI
12 Tallio,Jacob 1514 59:44.1 59:25.0 9:34 1231 703 Saline MI
13 James,Eric 700 1:01:30.0 1:00:21.8 9:43 1312 724 Commerce Twp United States
14 Obringer,Noah 1155 1:02:59.1 1:02:16.1 10:01 1429 765 Decatur IN
15 Hopper,Ethan 657 1:08:48.3 1:07:04.5 10:48 1634 818 Canton MI
16 Silcox,Jackson 1417 1:19:40.1 1:18:31.7 12:38 1835 863 Carleton MI
17 Dennison,Michael 2073 1:29:14.2 1:27:50.3 14:08 1879 872 Troy MI
18 Miller,Kurtis 1945 1:33:18.4 1:32:10.1 14:50 1892 875 New Boston MI
Go To Top
15-19 Male
Overall Overall State/
Place Name Bib Gun Tag Pace Place by Sex City County
1 Weis,Brian 1680 35:51.4 35:50.8 5:46 4 4 Maumee U.S.A
2 Rivamonte,Ryan 1296 36:45.2 36:43.4 5:55 6 6 Ann Arbor United States
3 Garton,Andrew 498 40:34.3 40:30.8 6:31 39 36 Ann Arbor MI
4 Leach,Tyler 868 41:09.1 41:07.1 6:37 47 44 Ann Arbor United States
5 Burrell,Galen 1793 41:09.7 41:07.6 6:37 48 45 Ann Arbor United States
6 Mateo,Emilio 970 41:43.7 41:41.2 6:43 59 55 Ann Arbor MI
7 Scott,Chris 1376 41:59.8 41:55.3 6:45 67 62 Carleton MI
8 Scott,Glen 1377 41:59.5 41:55.3 6:45 68 63 Carleton MI
9 Allen,Jake 16 44:26.1 44:05.6 7:06 132 116 Tecumseh MI
10 Potrykus,Michael 2097 45:17.0 44:59.5 7:14 160 137 Deford MI
11 Obringer,Ray 2180 47:11.7 46:28.9 7:29 231 181
12 Silvester,Ryan 1420 46:55.9 46:37.4 7:30 236 183 Ann Arbor MI
13 Lemmen,Ben 1917 47:46.5 46:59.0 7:34 250 193 Holland MI
14 Upton,Henry 1589 47:54.9 47:36.2 7:40 292 220 Ann Arbor MI
15 Aaronson,Kyle 2171 47:54.9 47:36.6 7:40 294 222
16 Robertson,Trevor 1980 48:07.8 47:42.0 7:41 302 227 Saginaw MI
17 German,Chris 512 48:25.7 48:12.3 7:45 330 246 Ann Arbor United States
18 Owens,Oliver 2122 48:48.6 48:29.3 7:48 347 260
19 Keedy,Rob 753 48:48.7 48:29.5 7:48 348 261 Ypsilanti MI
20 Perez,James 1209 48:50.9 48:35.4 7:49 354 264 Monroe Monroe
21 Semifero,Jay 1389 49:35.7 49:01.9 7:53 380 282 Dexter MI
22 Sorscher,Nick 1451 49:48.6 49:30.3 7:58 418 306 Ann Arbor MI
23 Gilchrist,Patrick 518 50:46.1 50:27.3 8:07 473 342 Ann Arbor MI
24 Churchhill,Eric 2063 50:47.8 50:29.7 8:08 476 344 Cass City MI
25 Miller Jr,Jeremy 1946 51:57.9 50:49.3 8:11 507 362 New Boston MI
26 Dolan,Chris 354 52:42.1 51:35.6 8:18 557 387 Sterling Heights United States
27 Desjarlais,Eric 340 53:05.8 51:37.7 8:19 560 388 Plymouth MI
28 Osentoski,Avery 1183 52:40.1 51:57.8 8:22 586 404 Chelsea U.S.A.
29 Nguyen,Daniel 1128 52:54.8 52:01.2 8:22 588 405 Rochester Hills United States Of Ame
30 Ruel,Gabe 2101 53:02.3 52:43.6 8:29 637 438 Ann Arbor MI
31 Schaff,Riley 2288 54:55.9 54:29.4 8:46 799 516 Ann Arbor United States
32 Pizzo,Hunter 8698 57:38.2 56:17.0 9:03 949 585 Tipton MI
33 Saenz,Josh 1333 57:43.8 56:48.0 9:08 987 602 Canton United States
34 Meng,Jason 1019 59:26.3 57:03.7 9:11 1006 613 Rochester Hills MI
35 Bonnee,Drew 2137 58:19.2 57:59.3 9:20 1107 652
36 Martin,Joel 1933 1:01:42.4 1:00:06.3 9:40 1292 720 Canton MI
37 Lemmen,Justin 879 1:06:34.4 1:05:46.1 10:35 1593 806 Zeeland MI
38 Li,Jieran 2174 1:06:36.5 1:06:16.9 10:40 1613 811
39 Johnson,Ian 718 1:08:19.2 1:06:19.6 10:40 1614 812 Clinton Township United States
40 Gottschalk,Peter 2206 1:09:47.4 1:07:51.7 10:55 1658 824
41 Raddatz,Wade 1968 1:20:41.4 1:18:41.1 12:40 1836 864 Milan United States
42 Dennison,Jd 2072 1:29:30.6 1:28:07.9 14:11 1882 874 Troy MI
43 Buczek,Jacob 2061 1:51:54.1 1:49:34.4 17:38 1937 887 Brighton United States
Go To Top
20-24 Male
Overall Overall State/
Place Name Bib Gun Tag Pace Place by Sex City County
1 Waterson,Mike 1663 35:29.3 35:28.5 5:43 2 2 Ann Arbor United States
2 Greene,Penn 549 36:55.1 36:52.9 5:56 7 7 Ann Arbor MI
3 Macdonald,Brennan 932 37:29.2 37:27.4 6:02 10 9 Ann Arbor MI
4 Steggerda,Justin 2009 37:44.6 37:43.2 6:04 12 11 Ann Arbor MI
5 Kroll,Spence 829 39:07.5 39:01.9 6:17 20 19 Ann Arbor MI
6 Kazyak,Jonathan 2179 39:41.3 39:38.6 6:23 24 22
7 Chan,Chester 231 39:59.3 39:53.8 6:25 31 29 Ann Arbor MI
8 Fong,Raymond 457 40:23.1 40:22.0 6:30 36 33 Ann Arbor MI
9 Dalle,Derek 305 40:34.5 40:23.4 6:30 37 34 Ann Arbor United States
10 Thompson,Ben 1545 40:51.7 40:49.9 6:34 43 40 Ann Arbor MI
11 Jamie,Aaron 1885 41:06.4 41:02.2 6:36 45 42 Riverview MI
12 Liuzzi,Nicholas 910 41:14.6 41:05.2 6:37 46 43 Tecumseh MI
13 Mueller,Nicholas 1093 41:27.7 41:23.5 6:40 50 47 Ann Arbor United States
14 Cain,Scott 198 41:39.4 41:33.2 6:41 54 51 Ann Arbor United States
15 Morris,Sean 1080 42:01.9 41:56.1 6:45 69 64 Frankfort United States
16 Smith,Jordan 1437 42:41.2 42:30.2 6:50 81 75 Ann Arbor United States
17 Detjen,Bradley 2240 42:40.7 42:30.7 6:50 82 76
18 Powell,Dustin 1964 42:42.4 42:32.3 6:51 83 77 Ann Arbor United States
19 Feldt,Christopher 2213 43:02.7 42:59.0 6:55 96 87
20 Ingram,Daniel 690 44:02.5 43:27.3 7:00 111 98 Ann Arbor Washtenaw
21 Smith,Garret 1434 43:57.2 43:46.2 7:03 121 106 Ann Arbor MI
22 Smith,Jeremy 1436 45:59.1 45:02.8 7:15 163 139 East Lansing United States
23 Voss,Luke 2034 46:10.8 45:18.5 7:17 171 143 Remus United States
24 Prygoski,Jeff 1258 46:35.7 45:42.5 7:21 188 152 Okemos MI
25 Ramsey,Aric 1273 46:07.7 45:51.8 7:23 194 156 Commerce MI
26 Pena,Juan 1208 46:14.2 45:59.1 7:24 200 160 Ann Arbor United States
27 Duan,Kevin 370 48:35.0 46:06.1 7:25 206 164 Ann Arbor MI
28 Vlasic,Jeff 1621 46:40.3 46:20.0 7:27 221 174 Ann Arbor United States
29 Ambroselli,Anthony 21 46:44.6 46:22.3 7:28 225 178 Ann Arbor MI
30 Press,Aaron 1965 46:49.3 46:38.0 7:30 238 184 Ann Arbor MI
31 Calderon,Luis 202 46:58.8 46:43.5 7:31 243 187 Livonia MI
32 Schuck,Damien 1367 47:12.1 46:54.8 7:33 247 190 Erie U.S.
33 Weessies,Michael 1675 47:20.3 47:05.0 7:35 256 196 Ann Arbor MI
34 Smith,Michael 1443 47:23.5 47:07.2 7:35 259 198 Grosse Pointe United States
35 Hawkins,David 1866 47:53.4 47:17.1 7:37 273 209 Ann Arbor MI
36 Pituch,Tim 2239 48:29.4 47:25.9 7:38 286 216
37 Eckman,John 1831 47:46.8 47:26.6 7:38 287 217 Ann Arbor MI
38 Falletich,Eric 422 47:59.6 47:36.6 7:40 293 221 Southgate United States
39 Roedel,Shane 1306 48:15.9 47:39.5 7:40 298 224 Livonia MI
40 Gamberg,Peter 495 47:56.7 47:40.1 7:40 300 225 Ann Arbor MI
41 Brown,David Kyle 163 48:18.6 47:49.0 7:42 312 233 Livonia MI
42 Herrera-durr,Brent 628 49:18.0 48:56.5 7:53 369 272 Ann Arbor MI
43 Traub,Taylor 2186 49:01.9 48:57.7 7:53 371 274
44 Held,Tommy 616 49:44.3 49:01.0 7:53 378 280 Ann Arbor United States
45 Sood,Vik 2003 50:45.4 49:06.9 7:54 389 289 Ann Arbor MI
46 Mcilroy,Maxwell 1939 49:20.0 49:07.3 7:54 390 290 Ann Arbor MI
47 Helfers,Dillon 1868 49:33.9 49:09.5 7:55 394 294 Ann Arbor United States
48 Braid,David 149 50:21.5 50:07.5 8:04 453 331 Ann Arbor MI
49 Cran,Karl 288 51:21.5 50:12.6 8:05 458 334 Ann Arbor MI
50 Walgreen,Drew 1641 50:42.1 50:18.9 8:06 463 337 Evanston IL
51 Callaghan,Daniel 207 51:31.7 50:50.0 8:11 509 363 Eastpointe MI
52 Hall,Adam 573 51:09.2 50:51.6 8:11 513 366 Ann Arbor United States
53 Ring,Daniel 1293 51:38.7 51:14.5 8:15 537 378 Bethel CT
54 Chehebar,Benjamin 236 52:45.7 51:35.1 8:18 556 386 Ann Arbor MI
55 Mccarthy,Pearse 988 52:27.3 51:55.7 8:21 581 401 Plymouth United States
56 Bryan,Alexander 171 52:15.3 52:02.0 8:22 592 407 Ann Arbor MI
57 Korycinski,Steven 814 52:42.6 52:15.6 8:25 600 414 Ann Arbor United States
58 Kimberly,Nathan 780 53:14.1 52:32.4 8:27 618 427 Mansfield OH
59 Greenstein,Alexander 551 52:41.5 52:35.4 8:28 621 430 West Bloomfield United States
60 Terman,Matt 1535 53:38.7 52:46.2 8:30 645 442 Clinton Township U.S.A.
61 Duong,Kevin 382 53:43.2 52:50.5 8:30 651 445 Plymouth MI
62 Taut,Andrei 1523 54:23.9 53:40.7 8:38 712 474 Ann Arbor MI
63 Lemmen,Alex 877 54:32.0 53:44.7 8:39 718 475 Holland MI
64 Ladue,Tyler 847 54:40.7 54:01.4 8:42 752 489 Ann Arbor United States
65 Scheidler,Bill 1354 54:41.4 54:02.3 8:42 754 490 Ann Arbor MI
66 Jorgensen,Johnathon 736 55:11.1 54:10.7 8:43 777 504 Berrien Springs MI
67 Mchugh,Walker 999 55:51.8 54:48.3 8:49 828 531 Ann Arbor MI
68 Xia,Gary 1734 55:47.4 54:53.9 8:50 833 533 Ann Arbor United States
69 Reed,Joseph 1278 56:02.0 55:08.5 8:52 855 541 Ann Arbor MI
70 Holtz,Alex 1876 56:54.7 55:25.8 8:55 881 556 Ann Arbor MI
71 Szurek,Ed 2016 56:57.6 55:41.7 8:58 900 564 Brighton MI
72 Sefcovic,Paul 1382 56:39.1 55:47.8 8:59 911 568 Ann Arbor United States
73 PerkinS. Jr,Ronald 2212 57:13.0 56:00.9 9:01 924 574
74 Morey,Aaron 1074 58:09.9 57:55.6 9:19 1098 647 Ypsilanti MI
75 Colby,Andrew 256 1:00:04.1 58:19.4 9:23 1134 663 Ann Arbor United States Of Ame
76 Law,Jimmy 864 1:00:01.0 58:34.4 9:26 1160 676 Ann Arbor MI
77 Kurleto,Joe 839 1:01:37.2 59:14.3 9:32 1217 697 Rochester Hills MI
78 Frenkel,Chaim 477 1:00:13.6 59:29.2 9:34 1243 706 Ann Arbor MI
79 Concha,David 2223 59:55.3 59:37.7 9:36 1254 710
80 Marquette,Nicholas 956 1:01:31.4 1:00:25.5 9:43 1315 726 Detroit MI
81 Noveroske,Doug 1147 1:01:32.1 1:00:41.0 9:46 1331 732 Ann Arbor United States
82 Fleszar,Andy 1839 1:02:10.3 1:01:07.7 9:50 1355 740 Ann Arbor MI
83 Goldman,Jason 2219 1:03:25.4 1:02:57.7 10:08 1462 771
84 Hoover,Alex 656 1:04:10.6 1:03:05.3 10:09 1467 772 Ypsilanti MI
85 Beier,Nicolas 80 1:06:36.0 1:04:48.8 10:26 1554 791 Ann Arbor MI
86 Seger,Stephen 1384 1:06:21.3 1:05:20.2 10:31 1579 801 Okemos MI
87 Malmquist,Andrew 943 1:09:02.7 1:07:53.8 10:56 1661 826 Tecumseh United States
88 Clifford,Dan 252 1:09:59.3 1:08:19.1 11:00 1670 827 Temperance MI
89 Kilijanczyk,Eric 779 1:09:38.3 1:08:37.8 11:03 1682 829 Ann Arbor MI
90 Pruett,Kevin 1966 1:13:33.7 1:12:33.5 11:41 1758 844 Canton MI
91 Dennison,Andrew 2070 1:29:14.7 1:27:51.1 14:08 1880 873 Troy MI
Go To Top
25-29 Male
Overall Overall State/
Place Name Bib Gun Tag Pace Place by Sex City County
1 Mccarthy,Ted 989 35:38.3 35:37.7 5:44 3 3 Ann Arbor MI
2 Skampo,Joshua 1424 38:15.3 38:14.6 6:09 14 13 Monroe MI
3 Azari,Dave 47 38:57.1 38:55.8 6:16 18 17 Ann Arbor MI
4 Peters,Larry 2169 39:09.7 39:08.1 6:18 21 20
5 Vitale,Brian 1617 39:52.8 39:44.6 6:24 26 24 Ann Arbor MI
6 Rademacher,Nicholas 1969 39:50.1 39:44.8 6:24 27 25 Ann Arbor MI
7 Anderson,David 29 40:43.2 40:38.4 6:32 41 38 Ann Arbor MI
8 Smith,Christopher 2000 40:52.2 40:48.8 6:34 42 39 Ann Arbor United States
9 Stephens,Trent 2010 41:06.4 41:00.2 6:36 44 41 Ypsilanti MI
10 Leu,John 888 41:31.0 41:29.4 6:41 53 50 Ann Arbor MI
11 Frost,Patrick 480 41:54.4 41:52.3 6:44 66 61 Shelby Township MI
12 Skujins,Torstens 1998 42:24.1 42:12.6 6:48 71 65 Ann Arbor MI
13 Robey,Daniel 1300 42:25.3 42:21.2 6:49 73 67 Jackson MI
14 Suchyta,Greg 1490 42:40.5 42:21.6 6:49 75 69 Trenton MI
15 Hyssong,Levi 684 42:33.7 42:28.3 6:50 79 73 Ann Arbor MI
16 Moran,Paul 1072 42:58.8 42:33.1 6:51 84 78 Ann Arbor MI
17 Cofran,Zachary 1814 42:57.3 42:37.6 6:52 87 81 Ann Arbor MI
18 Cook,Logan 277 42:44.2 42:39.4 6:52 89 83 Ann Arbor MI
19 Stoyanov,Stefan 1485 43:01.1 42:55.7 6:54 94 86 Ann Arbor MI
20 Van Valkenburg,Trevor 1599 43:45.4 43:35.8 7:01 115 101 Adrian United States
21 Hipp,Michael 637 43:41.7 43:36.2 7:01 117 103 Dearborn Heights MI
22 Newmeyer,Alan 1953 43:54.5 43:44.6 7:02 120 105 Ann Arbor MI
23 Tietseman?,Donnie 2218 44:20.8 44:00.9 7:05 130 114
24 Skodack,Joshua 1426 44:10.8 44:05.4 7:06 131 115 Ann Arbor MI
25 Moore,John 1070 44:42.0 44:21.7 7:08 138 120 Ann Arbor MI
26 Greenberg,Seth 548 44:56.8 44:36.8 7:11 142 122 Ann Arbor MI
27 Bergmann,Brett 2187 44:51.4 44:41.5 7:12 145 125
28 Walsh,John 1645 45:12.9 44:48.2 7:13 151 130 Ann Arbor MI
29 Rossmeissl,Joseph 1316 45:26.7 44:55.8 7:14 158 135 Ann Arbor MI
30 Treadwell,Robert 2027 45:22.6 45:08.5 7:16 166 140 Canton MI
31 Chopp,Evan 1805 45:32.0 45:17.0 7:17 169 142 Ypsilanti MI
32 Tang,Nathan 2019 45:48.8 45:23.9 7:18 172 144 Ann Arbor MI
33 Yauch,Brian 1738 45:43.4 45:31.2 7:20 179 148 Clarkston United States
34 Bortz,Jason 128 45:39.2 45:33.5 7:20 180 149 Ann Arbor MI
35 Schaar,Matt 1351 45:54.6 45:45.6 7:22 190 153 Detroit MI
36 Miller,Jonathan 2091 45:56.3 45:49.4 7:22 193 155 Ann Arbor MI
37 Bender,Gunes 88 46:37.9 46:15.6 7:27 217 172 Ann Arbor MI
38 Arconado,Dale 1769 46:39.1 46:24.1 7:28 228 179 Ann Arbor MI
39 Hayes,Patrick 610 47:16.6 47:04.4 7:35 255 195 Ann Arbor MI
40 Haskins,Curtiss 601 47:37.2 47:06.6 7:35 257 197 Royal Oak MI
41 O'rourke,Nicholas 1179 47:59.7 47:13.3 7:36 267 205 Ann Arbor United States
42 Reynolds,Mark 1288 47:36.1 47:14.8 7:36 269 206 Ann Arbor MI
43 Meng,Jeffrey 1020 47:39.3 47:15.9 7:36 271 207 Rochester Hills MI
44 Day,Dave 322 47:35.9 47:19.2 7:37 277 211 Ann Arbor MI
45 Ward,Joseph 1652 47:38.2 47:25.2 7:38 284 215 Ann Arbor U.S.
46 Santiago,Angel 1988 47:53.9 47:38.9 7:40 297 223 Ann Arbor MI
47 Murabito,David 1100 48:17.8 47:56.3 7:43 321 239 Ann Arbor MI
48 Bergenske,Jacob 94 48:27.8 48:02.9 7:44 325 242 Belleville MI
49 Hoeft,Jared 640 48:57.3 48:15.6 7:46 334 250 Brighton U.S.
50 Kuzia,Kirk 2084 51:39.0 48:24.9 7:47 339 254 South Lyon United States
51 Monty,Ryan 1064 48:42.6 48:28.1 7:48 344 257 Chelsea MI
52 Duke,Travis 376 49:02.6 48:41.8 7:50 357 266 Ann Arbor MI
53 Folk,Michael 456 49:50.5 48:58.7 7:53 373 276 Ann Arbor MI
54 Feng,Fred 2228 49:00.9 48:59.6 7:53 376 278
55 Pai,Gopal 1957 50:40.1 49:01.6 7:53 379 281 Ann Arbor MI
56 Lubershane,Andrew 921 49:33.6 49:05.5 7:54 386 287 Ann Arbor U.S.A.
57 Zakerski,Andrew 1749 50:05.2 49:14.8 7:56 395 295 Ypsilanti U.S.
58 Brown,Graham 164 49:55.4 49:18.1 7:56 404 298 Ann Arbor MI
59 Bednarz,Bryan 77 49:50.3 49:18.4 7:56 407 299 Cohoes United States
60 Miller,Jim 1044 49:36.3 49:20.6 7:56 409 301 Plymouth MI
61 Jacques,Josh 699 50:02.1 49:41.1 8:00 427 313 Ann Arbor MI
62 Holland,Benjamin 1874 51:23.7 49:41.7 8:00 428 314 Jackson MI
63 Snyder,Matt 1446 50:18.5 49:52.3 8:02 437 320 Huntersville NC
64 Mullonkal,George 1098 50:06.4 49:52.6 8:02 438 321 Fraser MI
65 Lines,Samuel 903 50:51.5 50:19.9 8:06 465 338 Ann Arbor MI
66 Turner,Samuel 1580 51:11.4 50:27.1 8:07 472 341 Ann Arbor MI
67 Lequesne,Remy 884 51:03.6 50:46.9 8:10 502 358 Ann Arbor MI
68 O'malley,Brendan 1171 51:21.3 50:47.0 8:10 503 359 Canton United States
69 Reed,Frank 1277 51:52.9 51:06.9 8:14 525 371 Ann Arbor United States
70 Pope,Scott 1245 51:53.1 51:07.4 8:14 526 372 Holland MI
71 Sexton,Matthew 1396 52:15.4 51:08.3 8:14 527 373 Ann Arbor MI
72 Decker,Aaron 327 52:54.4 51:41.4 8:19 562 389 Coldwater MI
73 Greenwood,Bryan 553 53:06.0 51:44.9 8:20 568 393 Ann Arbor MI
74 Engler,Adam 402 53:43.6 51:47.2 8:20 570 395 Clarkston MI
75 Trudeau,Jason 2111 52:20.7 52:06.4 8:23 596 410 Washington MI
76 Sullivan,Daniel 1492 52:58.5 52:31.6 8:27 616 425 West Bloomfield MI
77 Salisbury,Mike 1336 53:05.5 52:39.2 8:28 628 433 Grandville Kent
78 Treharne,Daniel 1568 53:55.1 52:59.6 8:32 662 452 Novi MI
79 Fernandes,Andre 435 53:46.5 53:18.7 8:35 689 464 Ann Arbor MI
80 Carson,Arvin 219 53:40.9 53:19.5 8:35 691 466 Taylor MI
81 Gielczyk,Ben 517 53:48.7 53:23.2 8:35 695 468 Lansing United States
82 Raad,Matthew 1266 53:37.3 53:25.0 8:36 697 469 Ann Arbor United States
83 Kloehn,Alex 799 53:55.6 53:25.2 8:36 698 470 Ann Arbor MI
84 Naab,Adam 1107 54:39.4 53:45.2 8:39 721 477 Kalamazoo United States
85 Heinze,Justin 615 54:46.4 53:51.1 8:40 735 483 Ann Arbor MI
86 Walden,Patrick 1640 56:04.8 54:04.5 8:42 760 494 Brighton MI
87 Danziger,Jacob 309 54:34.1 54:05.2 8:42 762 496 Ann Arbor United States
88 Evans,Matthew 414 55:15.1 54:07.4 8:43 768 498 Flint MI
89 Tarantino,Matthew 2020 54:40.2 54:08.7 8:43 771 500 Ann Arbor MI
90 Huber,Nick 670 55:25.7 54:11.8 8:43 779 505 Perrysburg OH
91 Gwisdala,Matt 568 55:05.7 54:33.1 8:47 805 519 Midland MI
92 Derbinsky,Nate 337 55:13.3 54:33.2 8:47 806 520 Ann Arbor MI
93 Frankel,Robert 1841 55:05.1 54:35.3 8:47 808 521 Farmington Hills United States
94 Kroggel,Daniel 828 55:15.0 55:02.0 8:51 842 536 Toledo Lucas
95 Teasdale,Scott 1530 56:21.1 55:02.5 8:51 843 537 Novi MI
96 Burnell,Thomas 186 56:10.8 55:07.1 8:52 851 540 Ypsilanti MI
97 Moy,Alvin 1089 55:39.7 55:12.0 8:53 861 545 Ann Arbor United States
98 Wakenell,Chris 1637 56:04.6 55:13.2 8:53 864 547 Livonia MI
99 Whetstone,Zachary 2115 55:57.1 55:20.7 8:54 874 553 Ann Arbor MI
100 Wojtkowski,Walter 1722 55:56.6 55:21.1 8:54 876 554 Clawson MI
101 Shuberg,Justin 1413 56:18.2 55:29.0 8:56 887 559 Clark Lake MI
102 O'neill,Kyle 1174 56:34.4 55:36.5 8:57 892 561 Arlington United States
103 Dolson,Joe 355 56:35.3 55:39.1 8:57 897 562 Waterford MI
104 Sushynski,John 1499 56:45.2 55:43.3 8:58 902 565 Saline United States
105 Mcclellan,Brandon 991 57:36.7 56:22.0 9:04 957 589 Westland MI
106 Hayashi,Ryojiro 609 57:51.6 56:23.1 9:04 959 591 Ann Arbor MI
107 Mccosky,Ryan 992 58:25.2 56:33.0 9:06 974 598 Livonia MI
108 Snyder,Jeffrey 1445 57:26.7 56:59.6 9:10 1001 609 Chicago IL
109 Wilson,Jonathan 1707 57:44.2 57:01.4 9:11 1005 612 Ypsilanti MI
110 Prabhakar,Varun 1250 58:43.9 57:08.3 9:12 1013 616 Ann Arbor MI
111 Sharp,Jeremy 1398 57:51.0 57:11.3 9:12 1017 618 Adrian MI
112 Evoe,Justin 415 58:59.7 57:28.6 9:15 1050 631 Birmingham MI
113 Davis,Ross 320 58:47.3 57:35.1 9:16 1059 634 Novi United States
114 Marra,Jeremy 1931 58:29.4 57:35.9 9:16 1060 635 New Boston MI
115 Crawford,Dustin 2067 58:55.1 57:38.6 9:17 1065 638 West Bloomfield U.S.A
116 Sharp,Brian 1994 58:42.1 57:39.4 9:17 1067 639 Ann Arbor MI
117 Perry,Matthew 2095 58:49.4 57:41.5 9:17 1073 640 Wyandotte MI
118 Fabiilli,Mario 417 59:28.1 57:42.6 9:17 1076 642 Ann Arbor MI
119 Tam,Robert 1516 58:50.1 57:43.5 9:17 1077 643 Ann Arbor MI
120 Olesky,Samuel 1163 58:57.9 57:55.8 9:19 1099 648 Ann Arbor MI
121 Lyons,Derek 928 59:12.4 57:57.1 9:20 1102 650 Ann Arbor MI
122 Hyun,Baro 685 59:57.9 58:00.7 9:20 1109 653 Ann Arbor MI
123 Bielecki,Jake 102 1:00:10.1 58:07.0 9:21 1121 657 Ann Arbor MI
124 Lance,Jeff 851 59:05.2 58:09.2 9:22 1122 658 Ann Arbor MI
125 Martin,Scott 964 59:38.1 58:33.4 9:25 1158 674 Royal Oak MI
126 Gordon,Zack 533 1:00:24.4 58:56.7 9:29 1189 683 Ann Arbor MI
127 Gray,Alexander 543 1:00:42.5 58:59.1 9:30 1194 685 Ann Arbor MI
128 Israels,Aaron 694 1:00:57.5 59:10.0 9:31 1209 693 Ann Arbor MI
129 Holland,Michael 649 1:06:20.3 59:24.9 9:34 1230 702 Ann Arbor MI
130 Carrithers,Ryan 217 1:01:35.5 59:52.0 9:38 1274 717 Northville MI
131 Bryker,Ryan 1788 1:01:10.1 59:53.7 9:38 1276 718 Grand Rapids MI
132 Marquette,Christopher 955 1:01:29.0 1:00:22.1 9:43 1313 725 Detroit MI
133 Witter,Craig 1717 1:01:46.1 1:00:33.7 9:45 1327 730 New Hudson United States
134 Mallory,Chris 2201 1:02:12.4 1:00:40.8 9:46 1330 731
135 Hall,Bradley 574 1:02:41.5 1:01:10.8 9:51 1356 741 Monroe United States
136 Wilson,Matthew 1708 1:02:12.1 1:01:26.5 9:53 1374 746 Ann Arbor United States
137 Pichineru,Dan 1223 1:03:23.5 1:01:26.6 9:53 1375 747 Ypsilanti MI
138 Swanson,Steve 1505 1:03:10.0 1:01:34.5 9:55 1382 748 Novi MI
139 Wellman,Ned 1684 1:02:55.6 1:02:01.0 9:59 1414 760 Ann Arbor MI
140 Kenaan,Cesar 761 1:03:26.2 1:02:11.1 10:00 1427 764 Ann Arbor MI
141 Miknis,Steve 1035 1:04:12.9 1:02:21.6 10:02 1434 766 Battle Creek United States
142 Vaduva,Tim 1592 1:06:36.1 1:04:49.0 10:26 1555 792 Ann Arbor MI
143 De Martin,Michael 1823 1:05:59.1 1:04:59.9 10:28 1562 793 ST. Clair Shores MI
144 Vandenbosch,Evan 1601 1:11:56.4 1:05:39.0 10:34 1589 804
145 Washington,Brady 1661 1:12:03.1 1:05:45.2 10:35 1592 805 Ann Arbor
146 Mihora Jr,Michael 1033 1:08:19.6 1:06:38.3 10:43 1620 814 Ann Arbor MI
147 Ohare,Kullan 1160 1:07:54.7 1:06:40.2 10:44 1623 815 Gahanna OH
148 Gajos,Russell 489 1:10:11.6 1:08:49.3 11:05 1688 830 Ann Arbor MI
149 Glamann,Jordan 522 1:09:49.9 1:09:13.4 11:08 1701 833 Ann Arbor MI
150 Malone,Michael 945 1:13:00.5 1:11:06.5 11:27 1732 838 Petersburg MI
151 Dorset-palmateer,Reid 2126 1:12:45.9 1:11:28.2 11:30 1737 840
152 ST.Vincent,Stephen 1463 1:14:34.5 1:13:10.4 11:47 1772 848 Ann Arbor MI
153 Lau,Irwin 1910 1:15:51.7 1:13:48.6 11:53 1780 850 Ann Arbor MI
154 Campos,Michael 212 1:36:57.3 1:14:47.6 12:02 1799 854 Berrien Springs MI
155 Bembas,David 84 1:18:51.5 1:17:10.6 12:25 1824 859 Auburn Hills MI
156 Coleman,Joshua 257 1:19:31.4 1:17:56.7 12:33 1828 862 Lakewood United States
157 Higaki,Takashi 1871 1:21:08.5 1:19:12.2 12:45 1841 866 Canton United States
158 Hall,Jason 576 1:23:48.6 1:21:50.3 13:10 1852 869 Royal Oak U.S.
159 Eaton,Derek 386 1:35:14.7 1:33:07.8 14:59 1898 876 Brighton MI
160 Render,Josh 1283 1:36:49.2 1:36:49.2 15:35 1912 880 Northville United States
Go To Top
30-34 Male
Overall Overall State/
Place Name Bib Gun Tag Pace Place by Sex City County
1 Ikeda,Hiroshi 686 36:04.3 36:03.9 5:48 5 5 Ann Arbor United States
2 Dhamrat,Hamshivraj 343 37:37.4 37:37.3 6:03 11 10 Milan MI
3 Mazel,Adam 980 40:26.1 40:25.1 6:30 38 35 Ann Arbor United States
4 Ono,Masahiro 1175 41:23.1 41:18.2 6:39 49 46 Ann Arbor MI
5 Johansson,Tyler 715 42:10.1 41:44.4 6:43 63 58 Ann Arbor MI
6 Mooney,Colin 1066 42:04.1 41:51.6 6:44 65 60 Ann Arbor MI
7 Paupore,Matthew 1199 43:12.3 43:06.1 6:56 100 90 Plymouth MI
8 Mayrand,Bruce 979 43:18.4 43:09.5 6:57 101 91 Brighton MI
9 Dresch,Dane 368 43:20.6 43:11.6 6:57 103 92 Dexter MI
10 Hogle,Bryan 646 43:25.1 43:11.9 6:57 104 93 Ann Arbor MI
11 Moody,Ric 1065 43:26.6 43:13.5 6:57 106 95 Saginaw MI
12 Brown,James 2185 43:23.1 43:18.8 6:58 108 96
13 Johnson,Kris 723 44:01.1 43:52.1 7:04 124 109 Ann Arbor MI
14 Swan,Alan 1501 44:04.8 43:58.4 7:05 127 112 Ypsilanti MI
15 Smith,Andrew 1431 45:04.7 44:38.6 7:11 144 124 Ann Arbor MI
16 Ryan,Kevin 1330 45:25.4 45:02.3 7:15 162 138 Dearborn MI
17 Miron,Benjamin 1054 45:18.3 45:14.0 7:17 167 141 Ann Arbor MI
18 Jensen,Russell 709 45:34.8 45:27.4 7:19 173 145 Ypsilanti MI
19 Clinton,Eric 2064 45:57.9 45:47.3 7:22 192 154 Farmington Hills United States
20 Forbord,Erik 458 46:07.7 45:53.2 7:23 195 157 Howell MI
21 Hesselkrave,Pail 2202 46:12.0 45:57.0 7:24 198 159
22 Chapo,Kevin 2062 46:15.3 46:06.4 7:25 207 165 Grosse Pointe Park MI
23 Jacobsen,Douglas 1884 46:18.2 46:07.8 7:25 209 167 Ann Arbor MI
24 Fox,Joshua 2294 46:19.8 46:08.4 7:26 210 168 Ann Arbor United States
25 Tanifuji,Osamu 1517 46:50.2 46:32.3 7:29 232 182 Ann Arbor United States
26 Carpenter,Craig 214 47:11.0 46:39.7 7:31 240 185 Midland MI
27 Grochowski,Justin 563 46:55.6 46:40.1 7:31 241 186 Lambertville United States
28 Thiel,Michael 1538 47:25.7 47:03.6 7:34 253 194 Northville United States
29 Hood,Christopher 655 47:39.3 47:10.0 7:35 262 201 Northville MI
30 Yalch,Matthew 1735 47:39.9 47:10.8 7:36 265 203 Northville MI
31 Fernandes,Rodrigo 436 47:44.6 47:16.5 7:36 272 208 Ann Arbor MI
32 Taguchi,Kazunobu 1509 48:36.8 47:20.7 7:37 280 213 Novi MI
33 Sytch,Maxim 1507 47:36.9 47:23.4 7:38 283 214 Ann Arbor MI
34 Taylor,John 1527 50:56.8 47:33.9 7:39 290 219 Lansing MI
35 Koval,Tom 821 48:04.7 47:44.5 7:41 308 230 Manchester MI
36 Ono,Shimpei 1176 48:03.6 47:46.1 7:41 310 232 Ann Arbor MI
37 Kennel,Ryan 763 48:22.2 48:00.6 7:44 323 241 Ann Arbor MI
38 Heinz,Dennis 614 48:43.3 48:07.4 7:45 327 244 Ypsilanti MI
39 Inuzuka,Takeshi 1880 48:25.8 48:15.5 7:46 333 249 Canton United States
40 Duvall,Jason 383 49:29.4 48:28.3 7:48 345 258 Ann Arbor MI
41 Clous,Adam 253 48:55.1 48:32.1 7:49 349 262 Berkley MI
42 Pellegrini,Eric 1205 49:09.2 48:48.7 7:51 362 268 Ann Arbor MI
43 Candela,James 1795 49:12.3 48:53.7 7:52 367 270 Sterling Heights United States
44 Krishnan,Naroo 826 54:35.6 49:00.2 7:53 377 279 Ann Arbor MI
45 Hsu,Michael 669 49:19.3 49:04.3 7:54 382 283 Portland OR
46 Van Sickle,Paul 2031 49:23.5 49:04.4 7:54 383 284 Sterling Heights MI
47 Jasso,Francisco 1888 49:15.8 49:05.0 7:54 385 286 Auburn Hills MI
48 Engling,Jason 1835 49:58.3 49:22.1 7:57 412 304 Ann Arbor MI
49 Davis,Michael 1821 50:17.4 49:36.2 7:59 422 310 Berkley MI
50 Kean,Adam 750 49:45.9 49:38.8 7:59 424 311 Ann Arbor MI
51 Ruthenberg,Joe 1328 50:27.4 49:43.0 8:00 430 315 Ann Arbor MI
52 Fraumann,Robert 2216 50:11.1 49:43.5 8:00 432 316
53 Chang,Peter 2256 49:51.1 49:47.3 8:01 436 319 Novi MI
54 Brown,Josh 165 50:21.8 49:53.7 8:02 440 323 Midland United States
55 Mcbride,Jason 984 51:03.7 50:02.0 8:03 447 328 Flushing MI
56 Goldberger,Zachary 529 50:49.3 50:04.1 8:03 451 330 Ann Arbor MI
57 Broniak,Brian 1785 51:02.7 50:11.6 8:05 457 333 Taylor United States
58 Miklosovic,John 1034 50:50.3 50:16.6 8:05 461 335 Saline MI
59 Zick,Benjamin 1754 51:49.7 50:16.8 8:05 462 336 Jackson MI
60 Hugel,Luke 673 51:01.5 50:21.6 8:06 468 339 West Bloomfield MI
61 Boedeker,Matthew 118 50:27.1 50:23.4 8:07 470 340 Clinton Township MI
62 Mione,John 1052 50:55.4 50:30.5 8:08 480 345 Sterling Heights United States
63 Buchanan,Fred 174 51:06.6 50:31.6 8:08 481 346 Ann Arbor United States
64 Eiler,Jerrett 393 51:38.6 50:35.9 8:09 487 351 Ypsilanti MI
65 Cagle,Jody 197 51:25.5 50:36.1 8:09 488 352 Royal Oak MI
66 Lentine,Joseph 883 51:25.6 50:37.0 8:09 491 353 Chesterfield MI
67 Shiraishi,Kenji 1410 51:29.4 50:37.8 8:09 492 354 Ann Arbor MI
68 Hyde,Neal 682 51:13.7 50:51.1 8:11 512 365 Ann Arbor MI
69 Brown,Nathan 168 51:32.8 50:56.2 8:12 520 368 Fayetteville NC
70 Ortiz,Carlos 1181 52:32.3 50:59.5 8:12 521 369 Ann Arbor MI
71 Schu,Josh 1363 52:32.9 51:31.1 8:17 550 384 Gaines MI
72 Kupras,James 838 52:38.2 52:03.8 8:23 594 409 Farmington MI
73 Demeester,James 334 53:44.0 52:23.4 8:26 609 420 Ann Arbor MI
74 Setty,Rohit 1392 53:06.4 52:31.4 8:27 615 424 Ann Arbor MI
75 Madias,John 1926 54:08.8 52:33.2 8:27 620 429 Novi United States
76 Bednarz,Kenton 78 53:10.9 52:39.8 8:29 629 434 Northville MI
77 Page,Jared 1188 53:10.9 52:40.3 8:29 631 436 Ann Arbor MI
78 Mayer,David 977 53:06.8 52:53.6 8:31 653 447 Ann Arbor MI
79 Webber,Sean 1672 53:47.1 52:57.5 8:31 660 450 Brighton MI
80 Bourne,Keith 134 53:17.2 53:00.9 8:32 666 453 Ann Arbor MI
81 Parzen,David 1197 54:06.8 53:03.2 8:32 672 457 Ann Arbor MI
82 Umeda,Mitsunobu 1587 54:09.2 53:05.5 8:33 675 459 Ann Arbor MI
83 Serrano,Gustavo 1390 53:45.2 53:18.5 8:35 688 463 Ann Arbor MI
84 Davis,Craig 316 54:15.1 53:31.4 8:37 705 472 Arlington Heights IL
85 Sordyl,John 2004 1:03:37.6 53:32.3 8:37 706 473 Northville MI
86 Matteson,David 972 54:38.9 53:44.8 8:39 719 476 Ann Arbor MI
87 Mallette,Douglas 942 54:35.2 53:46.3 8:39 722 478 Toledo OH
88 Kirk,Josh 789 54:37.3 53:47.1 8:39 725 479 Livonia MI
89 Hoffmann,Jens 641 54:56.4 53:57.5 8:41 743 485 Commerce Twp MI
90 Waller,Thomas 1643 55:13.8 54:12.2 8:43 780 506 Farmington Hills MI
91 Wohl,Myles 1719 55:21.2 54:13.3 8:44 782 507 Clarkston MI
92 Neagle,Matthew 1115 54:44.4 54:14.1 8:44 784 508 Ann Arbor MI
93 Fabry,Michael 419 55:49.0 54:14.7 8:44 786 509 Brighton MI
94 Takahashi,Keiji 1512 56:00.8 54:32.4 8:47 802 518 Novi MI
95 Swanson,Brian 1503 56:09.3 54:37.0 8:47 816 525 Novi MI
96 Bartlett,Brandon 64 55:52.6 54:41.3 8:48 821 528 Royal Oak United States
97 Kimberly,Ryan 781 55:42.3 55:00.8 8:51 841 535 Parkersburg WV
98 Campbell,Brandon 210 55:38.3 55:04.6 8:52 846 539 Carleton MI
99 Kinzel,Dave 785 55:33.9 55:11.4 8:53 859 543 Hudson OH
100 Vanairsdale,Brian 1600 56:57.4 55:19.4 8:54 871 551 Canton MI
101 Nagayoshi,Daiji 1109 57:14.4 55:46.3 8:59 905 566 Firmington Hills MI
102 Spence,Jeff 2008 56:38.4 55:47.7 8:59 910 567 Ypsilanti MI
103 Greashaber,Nicholas 545 57:12.5 56:09.7 9:02 939 580 Ann Arbor MI
104 Favr,Dan 2203 57:21.6 56:13.0 9:03 946 583
105 Gast,Will 503 57:02.2 56:15.2 9:03 948 584 Saginaw MI
106 Bumgardner,Kenneth 1790 58:19.6 56:22.6 9:04 958 590 Dearborn Wayne
107 Ash,Scott 42 57:48.4 56:24.5 9:05 961 592 Ypsilanti United States
108 Ellinger,Travis 1832 57:35.0 56:51.9 9:09 992 604 Canton MI
109 Ploucha,Rodney 1237 57:50.6 57:00.3 9:10 1003 610 Troy MI
110 Jessup,David 710 58:32.9 57:03.9 9:11 1007 614 Dewitt United States
111 Schurrer,John 1373 58:59.9 57:08.4 9:12 1014 617 Ann Arbor MI
112 Fitzgibbons,Casey 450 59:36.0 57:42.0 9:17 1074 641 Jackson United States
113 Haverstick,David 606 58:45.2 58:01.2 9:20 1110 654 Lake Orion MI
114 Parson,Chad 1194 59:36.9 58:22.0 9:24 1139 665 Ypsilanti MI
115 Lehnis,Michael 876 59:16.9 58:26.8 9:24 1149 669 Canton MI
116 Mills,Jeremy 1050 1:00:04.0 58:32.4 9:25 1156 673 Northville U.S.
117 Orfield,Nolan 1178 1:00:02.7 58:53.6 9:29 1185 682 Ann Arbor MI
118 Parenteau,Chad 1192 1:00:01.8 59:07.7 9:31 1207 691 Swartz Creek MI
119 Novince,Chad 2148 1:10:06.1 59:08.1 9:31 1208 692
120 Liegghio,James 898 59:46.1 59:12.4 9:32 1211 695 Washington Township MI
121 Wheat,Jeffery 2038 1:01:00.5 59:20.4 9:33 1225 701 Ypsilanti United States
122 Freeland,Darren 475 1:00:30.5 59:33.5 9:35 1248 707 Ann Arbor MI
123 Hardy,Michael 1863 1:01:16.1 59:40.1 9:36 1259 713 Ann Arbor MI
124 Zimmer,Josh 1758 1:01:44.1 1:00:33.1 9:45 1325 729 Carleton MI
125 Kanthi,Yogen 738 1:02:34.1 1:00:47.2 9:47 1341 736 Ann Arbor MI
126 Shaw,Theodore 1401 1:02:00.5 1:01:19.8 9:52 1364 742 Milan United States
127 Overfield,Gregg 1185 1:02:32.9 1:01:23.2 9:53 1368 744 Canton MI
128 Borchardt,Donald 123 1:04:24.7 1:02:54.7 10:07 1460 770 Canton MI
129 Susalla,Peter 1498 1:05:01.9 1:03:17.7 10:11 1479 775 Ann Arbor MI
130 Lafever,John 850 1:05:49.1 1:03:50.7 10:16 1509 783 Fraser MI
131 Krueger,Nick 830 1:04:55.3 1:04:15.1 10:20 1527 785 Haslett United States
132 Pittenger,Brent 1234 1:06:13.8 1:04:42.1 10:25 1540 786 Flint United States
133 Russ,Jay 1326 1:06:27.1 1:05:17.4 10:30 1577 800 Rochester MI
134 Troia,Ronald 2273 1:06:30.0 1:05:30.4 10:33 1585 803 Livonia MI
135 Bosley,Matt 132 1:08:31.3 1:05:52.2 10:36 1598 809 Howell MI
136 Frarer,Timothy 472 1:09:47.1 1:07:28.3 10:51 1647 821 New Boston MI
137 Greene,Scott 1856 1:10:10.2 1:08:57.6 11:06 1689 831 Farmington Hills MI
138 Tew,Daniel 1537 1:13:29.8 1:11:20.5 11:29 1734 839 Tipton MI
139 Konrad,Ryan 810 1:14:11.4 1:12:13.8 11:37 1749 842 Holland OH
140 Mcewen,Dyke 995 1:15:18.3 1:13:04.6 11:46 1766 846 Ann Arbor MI
141 Brownfield,Brendon 1787 1:18:19.7 1:17:21.7 12:27 1826 861 Dexter MI
142 Irvine,Adam 691 1:36:59.8 1:34:43.5 15:15 1910 879 Ann Arbor MI
Go To Top
35-39 Male
Overall Overall State/
Place Name Bib Gun Tag Pace Place by Sex City County
1 Bates,Bob 2211 37:19.8 37:19.7 6:00 9 8
2 Cotts,Timothy 285 38:09.9 38:09.4 6:08 13 12 Ann Arbor MI
3 Thomas,Brad 2023 38:35.2 38:34.5 6:12 15 14 Fort Wayne IN
4 Tucker,Ron 1576 38:51.7 38:49.5 6:15 17 16 Highland MI
5 Knape,Ryan 800 38:59.5 38:59.1 6:16 19 18 Tecumseh MI
6 Sanborn,Phillip 1342 39:54.1 39:48.4 6:24 29 27 Ann Arbor, Mi MI
7 Matuszewski,Tim 976 39:58.1 39:56.8 6:26 32 30 Brighton MI
8 Pilz,Bryce 1231 41:42.2 41:36.3 6:42 57 53 Ann Arbor United States
9 Ito,Shogo 695 41:52.4 41:43.4 6:43 62 57 Farmington Hills MI
10 Yamada,Takeshi 2150 41:52.3 41:47.3 6:44 64 59
11 Adang,Chris 1768 42:57.5 42:55.5 6:54 93 85 Ann Arbor MI
12 Phillips,Tom 1962 43:27.6 43:24.8 6:59 110 97 Ann Arbor MI
13 Johnson,Matt 725 43:46.3 43:40.2 7:02 118 104 Plymouth MI
14 Weinberg,Stephen 1678 43:58.8 43:50.1 7:03 123 108 Ann Arbor MI
15 Johnson,Nathan 726 44:02.3 43:53.7 7:04 125 110 Belleville United States
16 Klein,Mark 797 44:07.6 44:00.6 7:05 129 113 Milan MI
17 Sapp,Andrew 1347 44:17.2 44:09.5 7:06 134 117 Dexter MI
18 Murphy,Donald 1101 44:52.7 44:44.9 7:12 148 127 Dearborn MI
19 Perron,Brian 2177 44:58.5 44:46.9 7:12 149 128
20 Ahmed,Nawaaz 9 44:54.9 44:47.1 7:12 150 129 Ann Arbor MI
21 Lukela,Michael 924 44:56.2 44:50.9 7:13 153 132 Ann Arbor MI
22 Frederick,Brent 473 45:00.6 44:52.0 7:13 157 134 Grass Lake MI
23 Kwan,Raymond 843 45:42.9 45:34.9 7:20 182 150 Ann Arbor MI
24 Hish,Gerry 638 45:44.8 45:38.2 7:21 184 151 Ann Arbor MI
25 Liu,Haiyong 909 46:10.6 46:03.0 7:25 204 162 Ann Arbor MI
26 Dubey,Keith 1830 46:23.2 46:11.5 7:26 212 169 Sterling Heights MI
27 Wojcik,Peter 2044 46:45.1 46:15.5 7:27 216 171 Plymouth MI
28 Griffin,Matt 559 46:43.9 46:19.9 7:27 220 173 Saline United States
29 Pedlow,Matt 1202 46:46.5 46:24.1 7:28 229 180 Chelsea MI
30 Yost,Jeffrey 1744 47:04.8 46:47.2 7:32 244 188 Rossford OH
31 Davenport,Larry 314 47:58.4 46:56.4 7:33 248 191 Ann Arbor United States
32 Schauss,Wolfgang 1353 47:46.6 47:07.7 7:35 260 199 Ypsilanti MI
33 Huffstutter,Wesley 672 47:21.0 47:08.1 7:35 261 200 Ann Arbor MI
34 Caird,Andrew 199 48:19.1 47:41.8 7:41 301 226 Ann Arbor MI
35 Bauer,Christopher 71 48:26.6 48:14.6 7:46 331 247 Ann Arbor MI
36 Vansumeren,Jason 2033 48:38.8 48:24.1 7:47 338 253 Whitmore Lake United States
37 Harless,Andrew 587 49:41.9 49:16.7 7:56 401 296 Holly MI
38 O'brien,Donald 2197 50:05.1 49:16.8 7:56 402 297
39 Bracken,George 143 51:07.3 49:18.8 7:56 408 300 South Lyon MI
40 Morton,Neal 1085 49:45.9 49:21.3 7:57 411 303 Pinckney United States
41 Buquet,Jason 181 50:09.1 49:31.5 7:58 420 308 Ann Arbor United States Of Ame
42 Marr,Brian 957 49:54.5 49:40.6 8:00 426 312 Saline United States
43 Quinn,Tim 1265 50:40.5 49:59.3 8:03 445 327 Ann Arbor MI
44 Mizumoto,Toshihiro 1948 51:38.8 50:32.1 8:08 482 347 Ann Arbor Washtenaw
45 Kickland,Erich 776 52:07.7 50:48.4 8:11 505 361 Midland United States
46 Mckanna,Brian 1000 52:03.6 51:04.1 8:13 523 370 Rockford MI
47 Adkins,Kevin 5 51:57.1 51:09.8 8:14 530 375 Dexter MI
48 Hutto,Glenn 679 51:27.4 51:13.8 8:15 536 377 Royal Oak U.S.
49 West,Dan 1686 51:45.0 51:17.0 8:15 538 379 Livonia United States
50 Wade,Ron 2035 52:34.6 51:42.8 8:19 564 391 Plymouth, United States
51 Carroll,Thad 218 54:00.2 51:49.6 8:20 573 397 Ypsilanti MI
52 Hatlem,Blake 2079 53:02.0 51:56.8 8:22 583 403 Saline United States
53 Melton,Marc 1942 52:57.7 52:18.1 8:25 604 417 Northville United States
54 Mayer,Kenneth 978 52:40.5 52:26.9 8:26 611 421 Ypsilanti MI
55 Lauer,Patrick 861 53:12.6 52:27.1 8:26 612 422 Ypsilanti MI
56 Korenchuk,David 811 53:33.5 52:45.5 8:29 643 440 Royal Oak MI
57 Behlow,Curt 79 54:18.7 52:56.2 8:31 655 448 Ann Arbor MI
58 Sullivan,Joe 1494 54:50.7 53:50.6 8:40 734 482 Pinckney MI
59 Sanford,Jason 1987 54:12.7 53:56.1 8:41 741 484 Bloomfield Hills MI
60 Pullen,Kyle 1262 1:07:19.3 54:00.7 8:42 748 487 Ann Arbor MI
61 Lee,Michael 872 54:30.0 54:03.9 8:42 757 492 Millford MI
62 Redeker,Dave 2280 56:32.3 54:36.3 8:47 813 524 South Lyon MI
63 Critchfield,Frank 1818 56:39.9 55:02.6 8:51 844 538 Chelsea United States
64 Altenburg,Michael 2276 56:19.0 55:09.5 8:53 856 542 Berkley MI
65 Rosenberg,Darren 1982 57:04.9 55:20.4 8:54 873 552 Ypsilanti MI
66 Tai,Andrew 1511 56:43.3 55:51.0 8:59 918 571 Ann Arbor MI
67 Loszewski,Michael 2232 57:45.3 55:52.2 8:59 919 572
68 Berger,Kevin 95 56:33.8 56:19.1 9:04 953 587 Troy MI
69 Haubert,Matt 604 57:37.3 56:19.9 9:04 954 588 Brownstown MI
70 Whelan,Sean 2040 56:58.5 56:28.1 9:05 969 595 Canton MI
71 Jacobs,Mike 1883 57:40.2 56:33.8 9:06 975 599 Royal Oak MI
72 Hale,Ralph 571 57:42.7 56:38.7 9:07 981 600 Ann Arbor MI
73 Morton,Chris 1083 58:24.5 56:55.3 9:10 998 607 Ann Arbor MI
74 Robinson,Ed 2184 57:48.1 57:15.0 9:13 1024 620
75 Celeste,Steve 1801 57:32.7 57:32.7 9:16 1055 632 Superior Township United States
76 Sage,Martin 1334 59:27.0 57:36.5 9:16 1061 636 Pinckney MI
77 Duchateau,Don 372 58:02.0 57:38.3 9:17 1063 637 Ann Arbor United States
78 Kaske,Leo 747 59:00.2 57:44.0 9:17 1079 644 Westland United States
79 Vondracek,Joe 1625 59:37.1 58:24.6 9:24 1145 667 Novi MI
80 Yeager,Matt 1739 59:45.3 58:31.5 9:25 1153 671 Adrian MI
81 Neubauer,Trey 1121 59:53.3 58:37.5 9:26 1166 678 Dearborn MI
82 Sacks,Jonathan 2147 59:25.9 58:38.6 9:26 1167 679
83 Kittendorf,Jeff 794 59:36.4 58:59.1 9:30 1193 684 Dexter MI
84 Keren,Phil 769 59:01.0 59:01.0 9:30 1196 686 Mogadore OH
85 Fay,Daniel 429 1:00:45.3 59:12.3 9:32 1210 694 Royal Oak MI
86 Howard,Michael 664 1:06:20.6 59:25.0 9:34 1232 704 Northville MI
87 Barker,Michael 60 1:01:14.6 59:39.7 9:36 1257 711 Redford United States
88 Middleton,Tony 1030 1:01:15.0 59:39.9 9:36 1258 712 Milan U.S.
89 Doersch,Russ 352 1:00:41.8 59:41.2 9:36 1260 714 Pinckney MI
90 Hartwell,Arin 1864 1:00:47.8 1:00:04.6 9:40 1288 719 Waterford MI
91 Lukiewski,Ryan 925 1:01:50.0 1:00:44.3 9:46 1333 734 Canton U.S.A.
92 Ragnes,Peter 1271 1:02:16.3 1:01:24.1 9:53 1371 745 Dexter MI
93 Thomas,Charles 1539 1:03:21.2 1:02:03.0 9:59 1418 761 Three Rivers MI
94 Sato,Takumi 1349 1:03:49.4 1:02:23.1 10:02 1436 767 East Lansing MI
95 Weiss,Michael 1681 1:05:07.2 1:03:36.7 10:14 1497 777 Zeeland MI
96 Frye,Stacy 481 1:05:07.4 1:03:36.7 10:14 1498 778 Holland MI
97 Saperstein,Chad 1989 1:04:15.9 1:03:40.4 10:15 1501 779 Farmington Hills MI
98 Thompson,Scott 1550 1:04:58.6 1:03:41.1 10:15 1503 780 Ann Arbor MI
99 Fletcher,Matthew 451 1:06:09.6 1:04:46.4 10:25 1551 789 East Lansing MI
100 Thibault,David 2109 1:06:41.1 1:05:25.5 10:32 1583 802 Ypsilanti MI
101 Blain,Brady 108 1:07:05.7 1:05:54.8 10:36 1600 810 Stratford Canada
102 Kielbaso,Jim 2083 1:09:16.3 1:07:33.0 10:52 1650 823 Plymouth MI
103 Jodon,Brian 714 1:15:09.4 1:13:14.0 11:47 1773 849 Ypsilanti MI
104 Wietfeld,Brian 1697 1:16:02.9 1:14:31.5 12:00 1792 852 Canton MI
105 De Groot,Bill 324 1:21:33.9 1:19:57.9 12:52 1845 868 Ypsilanti MI
106 Norris,Matt 1144 1:39:34.3 1:37:33.5 15:42 1916 882 Lansing MI
Go To Top
40-44 Male
Overall Overall State/
Place Name Bib Gun Tag Pace Place by Sex City County
1 Wisniewski,Anthony 1714 38:46.0 38:40.8 6:13 16 15 Ypsilanti United States
2 Yamauchi,Hiroshi 1736 39:44.0 39:39.9 6:23 25 23 Ann Arbor MI
3 Koselka,John 2145 40:18.7 40:17.0 6:29 35 32
4 Bradley,David 145 41:26.8 41:26.2 6:40 51 48 Ann Arbor MI
5 Snelling,Thomas 1444 41:29.6 41:28.1 6:40 52 49 Ypsilanti MI
6 Zubatch,Brian 2141 41:42.9 41:38.5 6:42 58 54
7 Rosenberg,Daniel 1311 42:27.7 42:18.7 6:49 72 66 Novi MI
8 Perry,Jim 2149 42:30.6 42:21.5 6:49 74 68
9 Buck,Jeff 176 42:26.4 42:21.7 6:49 76 70 Canton MI
10 Robinson,Bruce 2178 43:35.9 43:30.2 7:00 112 99
11 Dyke,Brad 384 43:42.0 43:34.1 7:01 114 100 Ann Arbor MI
12 Baiza,Tomas 54 45:02.4 44:44.7 7:12 147 126 Saline United States
13 Jin,Manbok 711 49:02.9 44:51.9 7:13 155 133 Troy MI
14 Buckhave,Eric 1789 45:37.1 45:29.7 7:19 175 147 Ypsilanti MI
15 Mcmanamy,Mark 2146 46:03.7 45:53.2 7:23 196 158
16 Grekin,Joe 555 46:14.3 46:00.2 7:24 203 161 Farmington MI
17 Schulz,Jeff 1372 46:15.1 46:07.4 7:25 208 166 Ypsilanti MI
18 Kendall,Tom 762 46:19.7 46:14.2 7:26 215 170 Canton United States
19 Gajar,Dan 1848 46:31.1 46:20.9 7:28 223 176 Ann Arbor United States Of Ame
20 Barber,Jeffrey 59 46:25.8 46:21.9 7:28 224 177 Superior Twp MI
21 Abrahamse,Paul 2 47:40.7 47:13.3 7:36 266 204 Ypsilanti MI
22 Apollo,Eric 37 47:27.0 47:20.4 7:37 279 212 Ann Arbor MI
23 D'annunzio,Fernando 308 47:48.4 47:28.6 7:38 288 218 Ann Arbor MI
24 Le Pottier,Yves 1914 48:10.3 47:43.4 7:41 304 228 Ann Arbor MI
25 Valtadoros,Tassos 1596 48:43.1 47:54.2 7:43 319 238 Ann Arbor MI
26 Shinzaki,Satoru 1409 48:54.2 48:27.6 7:48 343 256 Southfield U.S.A.
27 Franklin,Wes 1842 49:35.2 48:39.5 7:50 355 265 Wheaton IL
28 Kirby,Marcus 786 49:37.3 48:57.8 7:53 372 275 Jackson MI
29 Mostek,Mark 1087 49:33.0 48:58.8 7:53 374 277 Livonia United States
30 Tesmer,John 1536 49:24.8 49:05.5 7:54 387 288 Ann Arbor MI
31 Servin Barrientos,J Jesus 2165 49:33.7 49:08.6 7:55 391 291
32 Day,Todd 1822 50:15.9 49:31.1 7:58 419 307 Ann Arbor MI
33 Johnson,Darren 2233 49:55.9 49:44.8 8:00 433 317
34 Garton,Hugh 500 50:08.0 50:04.1 8:03 450 329 Ann Arbor MI
35 Lindstrom,Eric 901 50:55.6 50:28.4 8:07 475 343 Ann Arbor MI
36 Richert,John 1977 50:37.4 50:32.2 8:08 483 348 Ann Arbor MI
37 Morlock,Rob 1076 51:01.2 50:35.9 8:09 486 350 White Lake MI
38 Riester,Christoph 1978 51:16.7 50:40.9 8:09 494 356 Greer SC
39 Holloway,Niall 1875 51:11.3 50:44.6 8:10 498 357 Ann Arbor MI
40 Slaats,Paul 1427 52:00.4 51:21.6 8:16 542 381 Ann Arbor MI
41 Szydlowski,David 2017 51:36.5 51:22.2 8:16 543 382 Dexter MI
42 Hackmann,John 1858 52:26.1 51:50.1 8:21 574 398 Ypsilanti MI
43 Salo,Rick 1337 53:11.4 52:01.9 8:22 591 406 Carleton MI
44 Lister,David 905 52:40.4 52:03.1 8:23 593 408 Ann Arbor MI
45 Tobias,Damon 1551 52:32.6 52:12.0 8:24 599 413 MT. Morris Genesee
46 Trenkle,Jim 1569 52:41.0 52:20.3 8:25 605 418 Davison MI
47 Hall,Jon 1859 53:03.8 52:38.3 8:28 625 432 Ann Arbor MI
48 Peard,Thomas 2094 53:52.9 52:42.6 8:29 634 437 Birmingham MI
49 Weiler,Dave 2114 53:02.5 52:44.0 8:29 639 439 Cass City MI
50 Moneypenny,Scott 1060 53:27.5 52:53.6 8:31 652 446 Ann Arbor MI
51 Ciechanowski,Ata 245 54:07.2 53:03.6 8:32 673 458 Ypsilanti MI
52 Charow,Mike 235 53:39.9 53:11.2 8:34 680 460 Saint Clair Shores MI
53 Goff,David 528 54:55.2 53:19.8 8:35 692 467 Ypsilanti United States
54 Moore,Jay 1949 54:17.1 53:29.3 8:36 703 471 Northville United States
55 Sylvester,Tracy 2270 55:15.7 54:04.4 8:42 759 493 Presto PA
56 Griffin,Michael 560 54:30.8 54:06.2 8:42 766 497 Pinckneyville IL
57 Foster,Jeffrey 464 54:51.8 54:15.2 8:44 787 510 Commerce Township MI
58 Jefferies,Paul 1889 56:11.3 55:12.2 8:53 862 546 Ypsilanti U.S.A.
59 Rothman,Kevin 2274 56:04.1 55:18.4 8:54 870 550 Monroe MI
60 Kibbey,Tony 775 56:18.9 55:28.3 8:56 886 558 Northville MI
61 Nusbaum,Douglas 1151 55:59.6 55:41.3 8:58 898 563 Rossford OH
62 Kime,Steve 782 57:04.2 55:49.5 8:59 912 569 Ann Arbor United States
63 Mcgivern,Terrance 998 56:46.9 55:50.9 8:59 917 570 Clarkston MI
64 Zulcosky,John 1761 57:58.6 56:10.0 9:02 940 581 Northville MI
65 Zacks,David 1748 56:55.7 56:26.4 9:05 965 593 Ann Arbor United States
66 Kerr,John 771 57:22.5 56:27.9 9:05 968 594 Plymouth MI
67 Mcalary,James 982 58:52.5 56:53.6 9:09 994 605 Jackson United States
68 Meisel,Keith 1013 58:02.4 56:54.8 9:10 997 606 Grass Lake United States Of Ame
69 Kaemming,Marcus 1894 58:02.9 57:14.5 9:13 1023 619 Chelsea MI
70 Nutt,Craig 1152 58:27.1 57:17.2 9:13 1028 623 Ann Arbor MI
71 Kripfgams,Oliver 2173 59:04.6 57:21.1 9:14 1035 626
72 Teats,Mike 1531 58:31.1 57:34.9 9:16 1057 633 Rochester Hills MI
73 Grabowski,Cliff 538 58:09.0 58:02.5 9:20 1113 655 Grosse Pointe Farms MI
74 Burns,Michael 1792 1:00:00.9 58:11.0 9:22 1124 660 Ann Arbor MI
75 Bloch,Timothy 115 58:56.5 58:18.5 9:23 1132 661 Brighton MI
76 Mannor,Scott 949 1:00:10.4 58:19.0 9:23 1133 662 Howell MI
77 Hepner,Myron 624 1:00:11.4 58:32.4 9:25 1154 672 Ann Arbor MI
78 Martin,Donald 1932 59:27.5 59:05.1 9:31 1203 689 Dearborn United States
79 Benzie,Steve 92 59:44.8 59:07.7 9:31 1206 690 Brighton MI
80 Hessesltine,Ed 2138 1:00:16.4 59:19.2 9:33 1222 698
81 Dowd,Ken 364 1:00:06.4 59:34.2 9:35 1249 708 Lake Orion MI
82 Smith,Don 1433 1:01:24.8 59:51.5 9:38 1273 716 Durand MI
83 Takarai,Junichi 2194 1:01:14.9 1:00:18.7 9:42 1308 723
84 Paquin,T.J. 2267 1:01:11.4 1:00:28.5 9:44 1318 728 Ann Arbor U.S.
85 Silcox,Eric 1416 1:01:54.8 1:00:43.0 9:46 1332 733 Carleton MI
86 Dunn,William 380 1:02:49.1 1:00:54.8 9:48 1347 738 Ann Arbor United States
87 Galloway,Rob 493 1:02:31.5 1:01:22.1 9:53 1366 743 Brighton MI
88 Blatt,Neal 111 1:02:43.2 1:01:39.8 9:55 1385 750 Ann Arbor MI
89 Herrema,Daniel 626 1:03:16.1 1:01:49.4 9:57 1397 754 Dexter MI
90 Nelson,Brian 1118 1:04:03.1 1:02:06.8 10:00 1423 763 Taylor MI
91 Emmert,Larry 400 1:04:10.3 1:02:32.2 10:04 1445 768 Detroit MI
92 Faulds,Travis 427 1:06:14.0 1:04:42.6 10:25 1543 788 Holt MI
93 Wright,Jason 1733 1:05:30.6 1:05:09.8 10:29 1567 795 Elmhurst IL
94 Collino,Brian 259 1:08:53.1 1:07:27.6 10:51 1646 820 Ida MI
95 Mello,Chris 1014 1:11:48.9 1:10:06.6 11:17 1716 834 Dexter MI
96 Lent,Michiael 882 1:12:07.5 1:10:18.1 11:19 1719 835 Noblesville IN
97 Inman,Andrew 2159 1:11:38.0 1:10:20.9 11:19 1721 836
98 Vladu,Dave 1619 1:12:15.9 1:10:42.8 11:23 1723 837 Canton MI
99 Cook,Bryon 276 1:13:55.0 1:11:57.2 11:35 1745 841 Flat Rock MI
100 Olson,Marc 1169 1:16:17.2 1:14:31.8 12:00 1793 853 Dexter MI
101 Johnson,Keith 721 1:25:25.5 1:19:15.9 12:45 1843 867 Clinton Township United States
102 Fluckes,Lorenzo 2278 1:39:30.0 1:37:22.0 15:40 1913 881 Garden City MI
103 Spiker,Ron 1459 1:51:54.2 1:49:38.2 17:39 1938 888 Howell MI
104 Weiszhaar,Curt 1682 2:02:37.5 2:02:37.5 19:44 1952 891 Ann Arbor MI
Go To Top
45-49 Male
Overall Overall State/
Place Name Bib Gun Tag Pace Place by Sex City County
1 Nicita,Dominic 1130 39:47.2 39:45.9 6:24 28 26 Brighton MI
2 Ketchmark,Tony 772 39:51.7 39:50.5 6:25 30 28 Davison MI
3 Hunter,James 677 40:35.9 40:31.8 6:31 40 37 Saline U.S.
4 Young,Jim 2046 41:45.0 41:41.3 6:43 60 56 Ann Arbor MI
5 Degutis,Bob 331 42:28.1 42:23.1 6:49 77 71 Ann Arbor MI
6 Mulvihill,Brian 1952 42:30.6 42:23.9 6:49 78 72 Brighton MI
7 Kohrman,David 1897 42:39.9 42:29.5 6:50 80 74 Ann Arbor MI
8 Selenko,John 1386 42:45.2 42:37.1 6:52 86 80 Tecumseh MI
9 Budzinski,Joseph 179 43:04.8 43:01.8 6:55 99 89 Rochester Hills MI
10 Reiser,Andy 1976 43:24.5 43:12.2 6:57 105 94 Ypsilanti MI
11 Russell,Mark 1986 44:22.4 44:14.1 7:07 136 118 Ann Arbor MI
12 Beale,Simon 72 44:44.7 44:36.1 7:11 141 121 Ann Arbor MI
13 Nummikoski,Kevin 1149 45:08.5 44:37.9 7:11 143 123 Webberville MI
14 Deaven,Jerome 1824 44:58.4 44:50.5 7:13 152 131 Brighton MI
15 O'sullivan,Larry 1956 46:08.1 46:04.4 7:25 205 163 Ypsilanti MI
16 Galard,Ron 490 47:02.6 46:53.0 7:33 246 189 Brighton Livingston
17 Robertson,Bill 1979 47:23.2 47:10.6 7:36 264 202 Ann Arbor MI
18 Peitz,Tim 1204 47:21.1 47:17.2 7:37 274 210 Petersburg MI
19 Heslop,Fred 630 48:09.3 47:45.8 7:41 309 231 Park City UT
20 Johnson,Oliver 727 48:05.2 47:49.6 7:42 313 234 Ann Arbor United States
21 Jackson,Jeff 697 49:00.9 47:52.0 7:42 315 235 Ann Arbor MI
22 Obringer,Joseph 1154 48:50.9 48:07.8 7:45 328 245 Decatur IN
23 Anderle,Doug 27 48:23.9 48:15.0 7:46 332 248 Lamont MI
24 Shugart,Brad 1414 48:48.8 48:22.1 7:47 337 252 Dexter MI
25 Zamberlan,Jim 2048 48:50.7 48:26.1 7:48 340 255 Ann Arbor MI
26 Widmann,David 1696 49:23.7 48:44.9 7:51 359 267 Fox Point WI
27 Zych,Tim 2052 50:03.1 49:20.7 7:56 410 302 Alto MI
28 Furey,Michael 1847 50:04.6 49:47.1 8:01 434 318 Ann Arbor United States
29 Lemmen,Brian 1918 50:41.0 49:52.8 8:02 439 322 Holland MI
30 Geva,Eitan 515 50:51.1 49:57.4 8:02 443 326 Ann Arbor MI
31 Crist,Michael 294 50:34.3 50:10.6 8:04 456 332 Royal Oak United States
32 Quinn,Mike 1264 51:28.8 50:50.3 8:11 510 364 Trenton MI
33 Kubert,Art 1902 51:37.2 50:55.8 8:12 517 367 Novi MI
34 Cicotte,Michael 244 51:40.0 51:09.7 8:14 528 374 Westland MI
35 Rumley,David 1323 51:57.0 51:34.2 8:18 555 385 Westland MI
36 Mendez,Heladio 1018 52:13.4 51:49.3 8:20 572 396 Ann Arbor MI
37 Miura,Hidefumi 1058 52:38.9 51:54.8 8:21 580 400 Northville MI
38 Lubig,John 1922 52:50.5 52:11.2 8:24 598 412 Livonia MI
39 Leach,David 867 52:36.4 52:22.1 8:26 607 419 Ann Arbor United States
40 Miller,Bob 1039 53:06.6 52:31.7 8:27 617 426 Ann Arbor United States
41 Howe,Gregory 665 55:08.6 52:32.8 8:27 619 428 Saline MI
42 Markey,Jim 954 53:35.5 52:37.2 8:28 623 431 Ann Arbor MI
43 Oates,John 1153 53:41.6 52:40.2 8:29 630 435 Commerce Twp MI
44 Bieberich,Kent 101 53:30.6 52:48.2 8:30 649 444 Battle Creek MI
45 Soule,Scott 1453 54:15.5 52:57.4 8:31 658 449 Three Rivers ST. Joseph
46 Whitfield,Terry 1691 53:56.9 52:58.8 8:32 661 451 Novi MI
47 Buti,Rob 2210 53:12.6 53:01.5 8:32 668 455
48 Stewart,Dan 1480 54:01.5 53:15.2 8:34 686 462 Ann Arbor MI
49 Allen,Richard 18 54:02.6 53:19.2 8:35 690 465 Ann Arbor MI
50 Desandre,David 1827 54:32.3 53:49.2 8:40 729 480 Northville United States
51 Kirchoff,Brad 787 54:53.5 53:50.5 8:40 733 481 Canton MI
52 Tudor,Rob 1577 55:44.6 53:58.1 8:41 745 486 South Lyon MI
53 Brinkerhoff,William 156 55:02.7 54:01.2 8:42 751 488 Ann Arbor MI
54 Berkowitz,Ira 97 55:05.3 54:03.6 8:42 755 491 West Bloomfield MI
55 Mihelick,David 1031 54:56.1 54:10.1 8:43 775 502 Canton MI
56 Kehn,Thomas 2128 55:46.3 54:10.6 8:43 776 503
57 Green,Jim 547 55:09.2 54:17.2 8:44 789 511 South Lyon MI
58 Willaert,Steve 1702 55:11.0 54:21.5 8:45 795 513 Ann Arbor MI
59 Rosenberg,Lawrence 1312 56:02.3 54:59.6 8:51 839 534 Farmington Hills MI
60 Tavalieri,Jody 1524 57:54.7 56:01.8 9:01 925 575 Saint Clair Shores United States Of Ame
61 Florida,David 452 57:22.7 56:28.1 9:05 970 596 Kalamazoo MI
62 Dinger,Kevin 346 57:35.7 56:29.3 9:05 971 597 West Bloomfield MI
63 Hogikyan,Norman 645 58:26.6 57:00.7 9:10 1004 611 Ann Arbor United States
64 Dewaele,Tim 2283 58:49.9 57:23.7 9:14 1037 627 Whitmore Lake United States
65 Olson,Scott 1170 58:42.6 57:27.2 9:15 1045 629 Ann Arbor MI
66 Olson,David 1166 58:43.5 57:27.5 9:15 1046 630 Ann Arbor MI
67 Emke,John 1834 58:20.9 57:56.8 9:20 1101 649 South Lyon MI
68 Prough,David 1253 58:09.7 58:03.1 9:21 1114 656 Jackson MI
69 Muveigh,Kevin 2133 1:00:16.2 59:19.7 9:33 1223 699
70 Haggerty,James 569 1:01:15.1 59:20.3 9:33 1224 700 Redford MI
71 Morris,Paul 1079 1:01:05.6 1:00:16.4 9:42 1301 722 Ann Arbor MI
72 Pierce,Marc 1227 1:02:57.9 1:01:37.8 9:55 1384 749 Athens MI
73 Grant,Darryl 542 1:03:02.5 1:01:54.0 9:58 1405 758 Bloomfield Hills MI
74 Land,Kent 853 1:04:00.1 1:02:34.8 10:04 1448 769 Waterford MI
75 Mclean,Timothy 1007 1:05:01.9 1:03:12.6 10:10 1472 774 Ann Arbor MI
76 Boshoven,Robert 131 1:04:44.2 1:03:19.3 10:11 1482 776 Northville MI
77 Schubert,David 1365 1:05:30.1 1:03:49.2 10:16 1508 782 Bay City MI
78 Portelli,Joe 1246 1:05:10.5 1:04:04.8 10:19 1523 784 Sterling Hts MI
79 Ladziak,Ronald 849 1:06:25.1 1:04:46.8 10:25 1552 790 Whitmore Lake MI
80 Psychas,Timothy 1261 1:05:28.4 1:05:03.2 10:28 1566 794 Ann Arbor Washtenaw
81 Severance,Keith 1394 1:06:53.8 1:05:12.0 10:30 1570 797 Ann Arbor MI
82 Bassett,Jeff 66 1:06:52.4 1:05:15.3 10:30 1572 798 Saline MI
83 Fitch,Jason 448 1:06:52.4 1:05:15.4 10:30 1574 799 Saline MI
84 Lemmen,Doug 878 1:06:35.7 1:05:48.4 10:35 1595 807 Zeeland MI
85 Hopper,John 658 1:08:46.8 1:07:02.9 10:47 1632 817 Canton MI
86 Daly,Mark 2069 1:09:26.1 1:07:52.1 10:55 1659 825 Novi MI
87 Sanchez,Paul 1344 1:17:02.9 1:15:36.0 12:10 1807 856 Port Clinton United States
88 Trent,Eric 2028 1:18:11.0 1:16:49.8 12:22 1822 858 Inkster Wayne
89 Rajan,Uday 1971 1:28:01.5 1:26:02.8 13:51 1873 871 Ann Arbor MI
90 Owen-cruise,David 1186 1:46:57.7 1:44:45.9 16:52 1929 885 Ypsilanti MI
Go To Top
50-54 Male
Overall Overall State/
Place Name Bib Gun Tag Pace Place by Sex City County
1 Mooney,Timothy 1067 39:32.0 39:29.4 6:21 22 21 Toledo OH
2 Hoekstra,Louis 1872 40:12.2 40:11.3 6:28 33 31 Kalamazoo MI
3 Larin,John 856 42:37.8 42:34.3 6:51 85 79 Ann Arbor MI
4 Cipriano,Robert 1811 45:33.7 45:27.5 7:19 174 146 Farmington Hills MI
5 Maemura,Kenichiro 1928 47:07.4 46:57.1 7:33 249 192 Novi Ua
6 Fairchild,Dwight 420 48:23.8 47:53.7 7:42 317 236 Saline MI
7 Helman,Marcus 618 48:51.2 48:06.2 7:44 326 243 Huntington Woods MI
8 Burns,Russell 188 48:36.3 48:20.5 7:47 336 251 Plymouth MI
9 Goldman,Robert 530 48:55.8 48:28.5 7:48 346 259 Ann Arbor MI
10 Step,Randal 2054 48:57.8 48:32.4 7:49 350 263
11 Mervak,Timothy 1022 49:08.0 48:51.6 7:52 364 269 Ann Arbor MI
12 Pruitt,Dave 1256 49:13.4 48:55.9 7:52 368 271 Canton MI
13 Wilson,Douglas 1706 49:13.6 48:56.5 7:53 370 273 Dearborn United States
14 Sullivan,Hank 1493 49:14.0 49:04.6 7:54 384 285 Northville MI
15 Warner,Jeffrey 1655 49:29.1 49:08.6 7:55 392 292 Temperance MI
16 Duncan,Allen 2282 49:21.2 49:09.0 7:55 393 293 Dearborn MI
17 Kornacki,Kenneth 812 50:05.7 49:55.5 8:02 442 325 Lake Orion United States
18 Upmeyer,Steven 2030 51:19.7 50:35.7 8:09 485 349 Northville MI
19 Castle,Kenneth 1799 51:16.5 50:40.0 8:09 493 355 Ypsilanti MI
20 Carson,Dave 220 51:38.3 51:12.8 8:15 534 376 Ann Arbor MI
21 Scott,Greg 1378 52:30.1 51:20.3 8:16 540 380 Carleton MI
22 Bruell,Daniel 170 52:33.1 51:41.6 8:19 563 390 Ann Arbor MI
23 Kerr,Jeffrey 770 52:35.1 51:53.4 8:21 578 399 Belleville MI
24 Baker,Stan 2161 52:43.7 51:55.9 8:21 582 402
25 Mccarthy,Michael 987 52:48.9 52:17.7 8:25 603 416 Plymouth United States
26 Maturo,Raymond 974 53:36.7 53:01.1 8:32 667 454 Ann Arbor MI
27 Taylor,Stephan 1529 55:01.4 54:23.5 8:45 796 514 Ann Arbor United States
28 Norris,Kevin 1143 55:39.6 54:36.1 8:47 812 523 Ann Arbor MI
29 Brittain,John 1783 56:20.9 54:46.1 8:49 826 530 Mason MI
30 Webb,Kevin 1668 55:28.2 54:51.4 8:50 831 532 Jackson MI
31 Yopko,Bob 1741 55:44.2 55:14.9 8:53 865 548 Chelsea MI
32 Edge,Mark 390 57:59.0 56:05.9 9:02 929 578 South Lyon MI
33 Allen,Jeff 17 57:43.3 57:06.8 9:11 1012 615 Ypsilanti MI
34 Krall,Ron 2199 57:46.5 57:16.4 9:13 1025 621
35 Pelzer,Reginald 2235 58:31.2 57:25.2 9:14 1038 628
36 Szalay,Scott 1508 59:18.9 58:23.2 9:24 1142 666 Brighton MI
37 Stinehart,Rich 2284 59:54.8 58:29.7 9:25 1152 670 Spring Lake MI
38 Gordy,Tom 535 1:00:01.6 58:40.3 9:27 1170 680 Beverly Hills MI
39 Imperiale,Michael 688 1:01:12.4 59:45.5 9:37 1262 715 Ann Arbor MI
40 Blakemore,Dan 110 1:01:42.8 1:00:06.5 9:40 1293 721 Ann Arbor MI
41 Mykolenko,Orest 2266 1:02:11.6 1:00:27.8 9:44 1317 727 Ann Arbor MI
42 Valadez,Domingo 1593 1:02:39.5 1:01:02.8 9:49 1354 739 Temperance MI
43 Tantillo,Anthony 1519 1:02:59.7 1:01:45.2 9:56 1392 752 Dearborn MI
44 Newport,Scott 1123 1:03:57.1 1:01:55.9 9:58 1408 759 Royal Oak MI
45 Auner,David 2056 1:04:42.8 1:03:10.6 10:10 1470 773 South Lyon MI
46 Nicodemus,Dave 1131 1:08:10.3 1:06:23.5 10:41 1617 813 Piqua OH
47 Howell,Paul 667 1:08:55.7 1:07:15.4 10:49 1638 819 Ann Arbor MI
48 Carbeck,Robert 213 1:10:38.9 1:09:10.9 11:08 1698 832 Ann Arbor MI
49 Myers,Gene 1106 1:14:20.9 1:12:22.8 11:39 1755 843 Canton United States
50 Loehr,Allen 915 1:14:43.2 1:12:35.4 11:41 1760 845 Ann Arbor MI
51 Slowins,Dan 1429 1:17:57.9 1:15:42.4 12:11 1809 857 Walled Lake MI
52 Vukich,Michael 1628 1:39:31.4 1:34:10.4 15:09 1906 877 Shelby Township United States
53 Buczek,Bern 2060 1:51:55.1 1:49:39.4 17:39 1939 889 Brighton United States
Go To Top
55-59 Male
Overall Overall State/
Place Name Bib Gun Tag Pace Place by Sex City County
1 Leff,Todd 1915 43:08.7 43:01.6 6:55 97 88 Ann Arbor MI
2 Manz,Mike 1930 43:40.2 43:36.2 7:01 116 102 Ann Arbor MI
3 Hwangbo,Young 681 45:04.2 44:58.4 7:14 159 136 Ann Arbor MI
4 Chenoweth,James 1804 47:29.1 46:20.5 7:27 222 175 Ann Arbor MI
5 Morell,Ross 1073 48:14.0 47:54.1 7:43 318 237 Brighton MI
6 Mikula,Gordon 1037 51:28.6 50:47.5 8:10 504 360 Warren MI
7 Fukumoto,Makoto 1845 51:53.7 51:27.5 8:17 548 383 Woodhaven MI
8 Hendricks,Richard 622 52:03.0 51:43.4 8:19 565 392 Saline MI
9 Amerman,Tom 22 52:50.4 52:17.0 8:25 602 415 Saline MI
10 Watson,Dennis 2175 54:00.7 53:01.6 8:32 669 456
11 Larson,David 859 53:51.3 53:12.9 8:34 682 461 Birmingham MI
12 Lavalard,Pierre 863 54:27.6 54:04.7 8:42 761 495 Ann Arbor MI
13 Sabatowich,Dennis 1331 54:40.9 54:28.4 8:46 798 515 Detroit MI
14 Solan,Terrance 2001 56:20.6 55:18.0 8:54 869 549 Saline MI
15 Pantaleo,Rick 1191 55:59.0 55:24.6 8:55 878 555 Novi MI
16 Conrad,Frederick 1815 57:20.2 55:27.2 8:55 883 557 Ann Arbor MI
17 Pierson,Michael 1230 56:05.7 55:32.9 8:56 889 560 Saline MI
18 Ritz,Mark 1295 57:12.5 56:07.6 9:02 932 579 Ann Arbor MI
19 Nagurka,Tom 1111 56:49.7 56:10.7 9:02 942 582 Harbor Springs MI
20 Macneill,Bob 2224 57:58.3 56:44.6 9:08 985 601
21 Hernandez,Steve 625 57:53.3 57:18.4 9:13 1029 624 Ann Arbor MI
22 Javornisky,Marty 707 59:10.8 57:58.8 9:20 1106 651 Ann Arbor MI
23 Hinterman,Michael 636 59:26.8 58:26.1 9:24 1147 668 Grand Blanc United States
24 Caruthers,Reggie 221 59:14.7 58:33.9 9:25 1159 675 Ann Arbor MI
25 Mcilroy,Gary 1938 59:15.9 59:03.5 9:30 1198 687 Ann Arbor MI
26 Tattan,David 1521 1:01:21.7 59:35.0 9:35 1250 709 Zeeland MI
27 Harper,Alan 589 1:02:04.7 1:00:46.4 9:47 1339 735 Brooklyn MI
28 Dennisuk,Mike 1826 1:02:24.1 1:00:47.7 9:47 1342 737 Trenton United States
29 Bigelon,Mary Lynn 2221 1:03:36.3 1:01:42.6 9:56 1390 751
30 Rubin,Marc 1322 1:03:40.8 1:01:45.8 9:56 1393 753 Ann Arbor MI
31 Feldman,Steven 432 1:04:54.3 1:03:42.6 10:15 1504 781 Birmingham MI
32 Skilton,David 1425 1:05:56.6 1:04:42.5 10:25 1542 787 Farmington Hills MI
33 Acker,Steven 1766 1:06:15.8 1:05:11.4 10:29 1569 796 Ann Arbor Unite States
34 Elder,Millard 395 1:08:25.6 1:07:01.5 10:47 1631 816 Ann Arbor MI
35 Holman,Richard 651 1:18:57.5 1:17:17.5 12:26 1825 860 Brighton MI
36 Ciaramitaro,Jerome 1809 1:39:31.6 1:34:11.9 15:10 1907 878 Rochester Oakland
37 Irvine,Thomas 1882 1:45:46.7 1:43:30.0 16:39 1926 884 Dyer IN
38 Baliko,Herbert 4158 1:50:30.5 1:48:23.9 17:27 1935 886 Howell MI
Go To Top
60-64 Male
Overall Overall State/
Place Name Bib Gun Tag Pace Place by Sex City County
1 Carpenter,Ron 1797 43:51.5 43:48.7 7:03 122 107 Hudson MI
2 Stoel,Jim 1482 50:04.1 49:55.3 8:02 441 324 Demotte IN
3 Herrera,Eugene 627 53:44.1 52:31.2 8:27 614 423 Ann Arbor MI
4 Gillett,Bob 520 53:37.5 52:46.6 8:30 646 443 Ann Arbor MI
5 Werth,Cordell 1685 54:45.9 54:07.5 8:43 769 499 Brighton MI
6 Iliev,Simeon 687 54:38.9 54:30.9 8:46 801 517 Ann Arbor MI
7 Mackenzie,Robert 1924 55:55.0 54:35.9 8:47 811 522 Ann Arbor MI
8 Baker,James 56 55:38.7 54:38.6 8:48 819 527 Clinton MI
9 Haubert,Mark 603 56:00.7 54:43.5 8:48 823 529 Eaton Rapids MI
10 Elliott,Scott 398 55:47.0 55:11.9 8:53 860 544 Ypsilanti MI
11 Duerr,John 375 56:55.9 56:03.6 9:01 927 576 Ann Arbor MI
12 Hall,Davie 575 56:44.1 56:03.7 9:01 928 577 Ann Arbor MI
13 Lyden,Thomas 926 56:51.3 56:17.3 9:03 950 586 Washington DC
14 Hill,Chet 634 59:01.5 57:52.3 9:19 1092 645 Dexter MI
15 Keren,David 768 59:00.5 57:55.2 9:19 1097 646 Ann Arbor MI
16 Kargol,James 744 59:22.1 58:21.6 9:24 1138 664 Farmington Hills MI
17 Grewe,Eugene 557 1:00:27.4 58:35.8 9:26 1164 677 Livonia MI
18 Monash,Kenneth 764 59:59.1 59:25.9 9:34 1234 705 Ann Arbor United States
19 Hall,Paul 1861 1:02:57.1 1:01:51.7 9:57 1399 755 Troy MI
20 Silvis,William 2107 1:03:34.0 1:02:06.8 10:00 1422 762 Ann Arbor MI
21 ST.Vincent,Victor 1464 1:14:34.7 1:13:09.9 11:46 1770 847 Newville PA
22 Sterling,Thomas 1477 1:16:28.4 1:14:30.7 11:59 1791 851 Manchester United States
23 Cooper,Gary 278 1:55:12.1 1:53:00.6 18:11 1945 890 Bridgeport MI
Go To Top
65-69 Male
Overall Overall State/
Place Name Bib Gun Tag Pace Place by Sex City County
1 Wascha,Thomas 1660 48:08.1 47:59.3 7:43 322 240 Burton MI
2 Kruse,Jim 833 55:04.9 54:37.6 8:47 818 526 Port Huron MI
3 Kruse,Bob 832 57:16.0 56:48.4 9:09 988 603 Warren MI
4 Joaquin,Ray 712 1:17:18.5 1:15:30.1 12:09 1803 855 Southgate MI
5 Cerny,Tom 227 1:45:30.6 1:43:23.1 16:38 1925 883 Grand Blanc MI
Go To Top
70-74 Male
Overall Overall State/
Place Name Bib Gun Tag Pace Place by Sex City County
1 Liebner,Bernd 896 58:16.5 58:10.8 9:22 1123 659 Ann Arbor MI
2 Dubin,Howard 371 1:07:07.9 1:05:51.1 10:36 1596 808 West Bloomfield MI
3 Farley,Ren 2076 1:27:23.8 1:25:34.2 13:46 1872 870 Ann Arbor MI
Go To Top
75-79 Male
Overall Overall State/
Place Name Bib Gun Tag Pace Place by Sex City County
1 Carroll,Phil 2176 59:16.6 58:41.1 9:27 1172 681
2 Dozauer,Wolfgang 367 1:09:31.2 1:08:21.3 11:00 1672 828 Ann Arbor MI
Go To Top
Age Unknown - Female
Overall Overall State/
Place Name Bib Gun Tag Pace Place by Sex City County
1 Dorsey,Alexa 2237 48:24.6 48:01.2 7:44 324 83
2 Wanke,Meggan 2131 1:14:10.4 1:12:40.0 11:42 1762 917
Go To Top
10-14 Female
Overall Overall State/
Place Name Bib Gun Tag Pace Place by Sex City County
1 Kise,Jenny 791 47:03.7 47:01.6 7:34 252 59 Saline MI
2 Garton,Catherine 499 50:07.9 50:04.8 8:04 452 122 Ann Arbor MI
3 Weiler,Ashtyn 2113 50:47.7 50:29.8 8:08 478 134 Cass City MI
4 White,Megan 1690 54:11.9 53:54.2 8:40 740 257 Marysville MI
5 Donnelly,Kristen 358 56:16.9 55:00.5 8:51 840 306 Ottawa Lake United States
6 Brahaney,Michalea 147 56:26.6 55:10.0 8:53 858 316 Ottawa Lake MI
7 Schoeni,Sophia 1360 56:31.1 56:01.9 9:01 926 351 Ann Arbor MI
8 Milligan,Elisabeth 2092 56:27.9 56:10.8 9:02 944 362 Cass City MI
9 Pike,Gina 2182 57:38.4 56:18.1 9:04 952 366
10 Ulfig,Lindsay 1584 1:03:00.9 1:02:19.8 10:02 1431 666 Saline MI
Go To Top
15-19 Female
Overall Overall State/
Place Name Bib Gun Tag Pace Place by Sex City County
1 Johnson,Linnea 724 44:30.6 44:28.5 7:09 139 19 Ann Arbor MI
2 Ferraro,Samantha 437 45:14.6 45:06.4 7:16 164 25 Ann Arbor United States
3 Barthelemy,Valerie 1771 45:41.3 45:39.2 7:21 185 34 Ann Arbor MI
4 Lang,Melissa 1906 45:41.3 45:39.3 7:21 186 35 Edison United States
5 Staudt,Gillian 1471 45:54.7 45:44.7 7:22 189 37 Bingham Farms MI
6 Thompson,Lauren 2118 46:42.1 46:36.9 7:30 234 52
7 Corden,Katherine 280 48:08.9 47:48.4 7:42 311 79 Ann Arbor United States Of Ame
8 Boruszok,Natasha 129 48:13.9 47:52.8 7:42 316 81 Troy United States
9 Blain,Michelle 2057 49:46.2 48:44.6 7:51 358 92 Shelby Township United States
10 Beidler,Courtney 1775 48:53.8 48:51.3 7:52 363 95 Richboro United States
11 Prieskorn,Jessa 2098 50:47.9 50:29.8 8:08 477 133 Cass City MI
12 Buckley,Mary 177 51:08.9 50:37.0 8:09 490 138 Durham United States
13 Farner,Mary 425 51:44.2 51:10.5 8:14 531 156 Kalamazoo United States
14 Gleit,Rebecca 524 52:12.1 51:51.0 8:21 575 177 Ann Arbor MI
15 Aldrich,Kennedy 12 52:39.5 51:57.5 8:22 585 182 Stockbridge MI
16 Zych,Maddie 2051 53:40.3 52:41.9 8:29 632 196 Alto MI
17 Stegmeier,Nicole 1474 53:15.7 52:42.9 8:29 636 199 Rockford United States
18 Waslawski,Sheila 1662 53:30.2 52:57.5 8:31 659 210 Ann Arbor MI
19 Van Oostenburg,Dana 1597 54:55.8 54:29.5 8:46 800 284 Grand Rapids United States
20 Abell,Shelby 2055 54:54.6 54:36.6 8:47 814 290 Cass City MI
21 Fisher,Sylvia 445 55:35.5 54:54.2 8:50 834 301 Palmyra United States
22 Hoke,Melodie 647 55:48.3 55:08.1 8:52 854 314 Ann Arbor United States
23 Leslie,Becca 2086 56:28.2 56:10.3 9:02 941 360 Decker MI
24 Hogikyan,Emily 643 58:26.4 57:00.2 9:10 1002 393 Ann Arbor United States
25 Noren,Rebecca 1139 1:04:01.1 1:02:18.4 10:02 1430 665 Ann Arbor United States
26 Brewington,Lacey 152 1:04:02.5 1:02:35.6 10:04 1450 681 Grass Lake United States
27 Hoffman,Hayley 1873 1:05:56.2 1:04:22.1 10:22 1534 749 Ann Arbor MI
28 Willer,Emily 1703 1:07:05.3 1:05:57.9 10:37 1602 792 Canton United States
29 Devore,Shea 342 1:09:59.3 1:08:19.0 11:00 1669 843 Temperance MI
30 Adams,Andrea 1767 1:10:21.7 1:09:14.7 11:09 1703 870 Carleton United States
31 Defever,Kalynne 2257 1:15:14.4 1:13:27.6 11:49 1777 928 Brighton United States
32 Buczek,Kayleigh 178 1:15:39.7 1:13:53.3 11:53 1783 933 Brighton United States
33 Olson,Madeleine 1168 1:16:17.2 1:14:32.4 12:00 1794 941 Dexter MI
34 Norris,Emily 1142 1:39:34.4 1:37:33.4 15:42 1915 1034 Lansing MI
Go To Top
20-24 Female
Overall Overall State/
Place Name Bib Gun Tag Pace Place by Sex City County
1 Mckenzie,Amanda 1940 41:44.5 41:33.8 6:41 56 4 Ann Arbor United States
2 German,Rachel 513 43:05.7 42:55.3 6:54 92 8 Ann Arbor MI
3 Nalli,Natli 1112 43:00.5 42:57.0 6:55 95 9 Canton MI
4 Lehman,Alice 1916 43:20.9 43:09.7 6:57 102 11 Ann Arbor MI
5 Rolston,Aimee 1310 43:53.9 43:42.4 7:02 119 15 Ann Arbor MI
6 Dennisuk,Lauren 336 44:24.5 44:12.7 7:07 135 18 Ann Arbor MI
7 Semaan,Andrea 1388 44:47.5 44:42.6 7:12 146 21 Ann Arbor MI
8 Hill,Marleigh 635 45:13.7 44:51.7 7:13 154 22 Ann Arbor United States
9 Struck,Miranda 1486 44:59.1 44:52.0 7:13 156 23 Ann Arbor United States
10 Briggs,Vanessa 154 45:22.7 45:00.1 7:15 161 24 Freeland MI
11 Bratton,Lei 1782 45:18.8 45:07.1 7:16 165 26 Ann Arbor United States
12 Benaglio,Jessie 85 45:46.2 45:30.5 7:19 176 29 Livonia MI
13 Silverman,Saree 1419 46:08.4 45:59.2 7:24 202 42 Ann Arbor United States
14 Schutte,Amanda 1374 46:31.7 46:10.5 7:26 211 43 Ann Arbor MI
15 Wickerham,Erin 1693 46:31.8 46:13.9 7:26 214 45 Ann Arbor United States
16 Leska,Katie 885 46:45.8 46:23.8 7:28 226 48 Ann Arbor MI
17 Cramer,Kristine 1817 46:45.2 46:28.8 7:29 230 50 Ypsilanti MI
18 Spangelo,Sara 1455 46:45.0 46:33.8 7:30 233 51 Ann Arbor MI
19 Grossman,Shannon 2222 46:49.3 46:37.6 7:30 237 54
20 Vander Veen,Gina 1602 47:04.0 46:40.2 7:31 242 56 Ann Arbor United States
21 Dibraccio,Gina 344 47:23.0 47:07.2 7:35 258 61 Ann Arbor MI
22 Royer,Stephanie 1320 47:41.5 47:15.0 7:36 270 64 Ann Arbor MI
23 Gdowski,Sara 507 47:32.0 47:17.3 7:37 275 65 Wyandotte MI
24 Walters,Amy 1648 47:56.4 47:21.5 7:37 281 68 Ann Arbor MI
25 Jaros,Cecily 705 47:33.3 47:23.2 7:38 282 69 Ann Arbor United States
26 Kucinski,Ashlee 1903 47:46.7 47:25.8 7:38 285 70 Ann Arbor MI
27 Schroeder,Lydia 1362 47:49.7 47:34.5 7:39 291 72 Ann Arbor MI
28 Tyler,Claire 1582 47:56.5 47:39.7 7:40 299 75 Rochester United States
29 Evers,Rebecca 1836 48:33.7 47:50.7 7:42 314 80 South Lyon MI
30 Taylor,Jen 2190 49:09.3 48:32.5 7:49 351 88
31 Wooster,Julie 1731 49:25.9 48:47.1 7:51 361 94 Hernando Beach FL
32 Harbaugh,Calista 584 50:06.8 49:16.4 7:56 399 104 South Lyon MI
33 Keenan,Caelan 754 49:58.4 49:24.0 7:57 414 110 Ann Arbor MI
34 Napier,Sarah 1114 49:52.1 49:29.0 7:58 417 112 Clarkston MI
35 Doenitz,Amy 351 49:58.7 49:36.9 7:59 423 113 Plymouth United States
36 Brodick,Mindy 2058 50:08.6 49:59.1 8:03 444 118 Grand Blanc MI
37 Benda,Hannah 87 50:57.8 50:03.9 8:03 449 121 Ann Arbor MI
38 Mclaughlin,Carly 2164 50:47.6 50:23.2 8:07 469 130
39 Kosuth,Sara 815 51:06.9 50:23.8 8:07 471 131 Ann Arbor MI
40 Singleton,Jennifer 1423 51:14.6 50:46.0 8:10 499 142 Ann Arbor MI
41 Seidman,Jessica 1385 51:09.2 50:50.6 8:11 511 147 Ann Arbor MI
42 Gorski,Kathleen 1854 51:51.9 51:01.5 8:13 522 153 Ann Arbor MI
43 Farner,Annie 424 51:44.1 51:11.2 8:14 532 157 Kalamazoo United States
44 Dargis,Pascale 1820 51:48.8 51:21.3 8:16 541 161 Ann Arbor MI
45 Nosal,Catherine 1146 51:41.1 51:24.5 8:16 545 163 Ann Arbor MI
46 Smith,Haley 1435 52:34.5 51:32.7 8:18 553 169 Bronson United States
47 Walsh,Theresa 1647 52:24.9 51:34.0 8:18 554 170 Jackson MI
48 Bollenbacher,Jenni 2155 51:59.6 51:36.3 8:18 559 172
49 Eliassen,Anna 396 52:12.5 51:44.6 8:20 567 175 Ann Arbor United States
50 Jenisto,Rohina 2124 52:52.5 51:52.7 8:21 576 178
51 Melnarik,Lisa 1016 52:33.7 51:54.3 8:21 579 180 Ann Arbor United States
52 Setter,Amy 2105 52:25.8 52:15.9 8:25 601 187 Grand Blanc MI
53 Hsia,Grace 668 52:42.2 52:22.4 8:26 608 189 Ann Arbor MI
54 Jedele,Emily 708 53:39.9 52:38.3 8:28 624 193 East Lansing MI
55 Smith,Chelsea 1432 53:10.2 52:39.0 8:28 627 195 Frankenmuth MI
56 Vinekar,Kavita 1614 53:41.5 52:48.5 8:30 650 206 Ann Arbor MI
57 Ruvinsky,Nina 1329 54:13.9 52:54.5 8:31 654 207 Ann Arbor MI
58 Greenberg,Samantha 1855 53:35.3 53:01.7 8:32 670 214 Ann Arbor MI
59 Barretta,Jami 63 54:09.6 53:06.9 8:33 678 219 Ann Arbor MI
60 Berkowitz,Julie 98 54:00.5 53:15.1 8:34 685 224 Ann Arbor MI
61 Lapedis,Marissa 855 54:12.3 53:22.8 8:35 694 227 Ann Arbor MI
62 Stines,Terry 1481 54:32.0 53:34.5 8:37 708 235 Lansing MI
63 Pierson,Mary Margaret 1229 54:11.8 53:39.3 8:38 709 236 Saline MI
64 Smith,Liz 1438 54:45.5 53:39.4 8:38 710 237 Ann Arbor Washtenaw
65 Pollack,Melanie 1241 53:43.3 53:40.1 8:38 711 238 Ann Arbor MI
66 Sadur,Melanie 1332 54:30.1 53:41.7 8:38 713 239 Ann Arbor MI
67 Lypen,Kate 2259 54:28.0 53:44.5 8:39 716 242 Ann Arbor MI
68 Schmitt,Brittany 1359 54:33.3 53:44.9 8:39 720 244 Ann Arbor MI
69 Son,Andrea 1450 54:40.9 53:48.2 8:40 727 248 Ann Arbor MI
70 Levins,Ashley 1919 54:28.0 53:49.9 8:40 732 252 Rochester United States
71 Kleeman,Kellianne 796 54:41.1 53:51.8 8:40 736 253 Ann Arbor MI
72 Gardner,Kate 497 54:29.7 53:52.3 8:40 737 254 Farmington Hills United States
73 Pistone,Amy 1233 54:15.2 53:53.7 8:40 739 256 Ann Arbor MI
74 Effron,Morgan 392 54:00.8 53:58.0 8:41 744 259 Ann Arbor MI
75 Tighe,Lauren 2024 54:33.5 54:00.8 8:42 749 262 Ann Arbor MI
76 Terman,Donna 1534 54:58.3 54:05.8 8:42 764 268 Clinton Township U.S.A.
77 Feijoo,Trisha 431 55:11.2 54:11.0 8:43 778 274 Berrien Springs MI
78 Farmer,Brie 423 54:43.2 54:21.1 8:45 794 282 Ann Arbor MI
79 Stowell,Brianne 1484 55:57.9 54:35.2 8:47 807 287 Ann Arbor MI
80 Meyer,Erica 1025 55:13.1 54:41.7 8:48 822 294 Frankenmuth United States
81 Jackson,Laura 2120 55:09.9 54:57.2 8:51 838 305
82 Whitworth,Jennifer 1692 55:37.7 55:03.5 8:52 845 307 Adrian United States
83 Huffman,Meena 2080 57:17.6 55:09.5 8:53 857 315 Garden City MI
84 Curri,Christina 299 56:04.2 55:12.3 8:53 863 317 Ann Arbor MI
85 Kargol,Diane 743 56:20.7 55:19.7 8:54 872 321 Wheeling IL
86 Masi,Kathryn 966 55:56.9 55:21.0 8:54 875 322 Ann Arbor MI
87 Warner,Sally 1656 56:05.2 55:21.3 8:55 877 323 Lansing MI
88 Mester,Anna 1023 56:54.2 55:35.0 8:57 890 330 Ann Arbor MI
89 Pickett,Ashley 1225 56:35.2 55:38.5 8:57 895 334 Ann Arbor United States
90 Weber,Kathleen 1673 57:09.4 55:46.7 8:59 906 340 Bloomfield Hills United States
91 Schulcz,Julie 1369 56:48.2 55:50.6 8:59 915 346 Ann Arbor United States
92 Kaplan,Kelsey 2220 56:34.9 56:06.4 9:02 930 352
93 Hulbert,Lara 675 57:37.3 56:25.9 9:05 964 372 Dexter MI
94 Lobert,Lauren 913 57:47.5 56:29.6 9:05 972 375 Walled Lake MI
95 Boldon,Stephanie 121 57:35.0 56:41.6 9:07 982 382 Adrian MI
96 Pollock,Caitlin 1242 58:09.1 56:51.1 9:09 989 386 Ann Arbor U.S
97 Toh,Bao En 1552 58:15.7 56:51.1 9:09 990 387 Ann Arbor MI
98 Laughlin,Casey 862 57:49.3 56:51.4 9:09 991 388 Lincoln Park United States
99 Yauch,Alicia 1737 57:24.2 57:09.1 9:12 1015 398 Clarkston United States
100 Crim,Julianna 293 58:44.1 57:12.4 9:12 1021 403 Ann Arbor MI
101 Rodriguez,Ana 1302 58:44.5 57:12.6 9:12 1022 404 Ann Arbor United States
102 Yen,Kylene 1740 59:11.2 57:28.1 9:15 1048 418 Rochester Hills MI
103 Hemberg,Jennifer 621 58:28.4 57:38.8 9:17 1066 428 Ann Arbor United States
104 Benson,Brittany 90 58:08.1 57:39.7 9:17 1068 429 Ann Arbor MI
105 Gawel,Marissa 504 58:52.4 57:46.3 9:18 1081 437 Grosse Pointe United States
106 White,Kyla 2041 1:01:51.9 57:47.5 9:18 1083 439 Ann Arbor MI
107 Cezat,Lisa 229 59:15.3 57:49.2 9:18 1086 442 Livonia MI
108 Twu,Cathy 2029 59:04.8 57:51.6 9:19 1091 447 Ann Arbor MI
109 Maisano,Amy 939 59:23.8 57:56.2 9:19 1100 452 Manchester U.S
110 Schulze,Michelle 1993 59:25.4 57:57.8 9:20 1104 454 Manchester MI
111 Gentry,Susan 509 58:54.5 58:01.6 9:20 1111 457 Ann Arbor MI
112 Thomas,Hillary 1540 59:17.7 58:11.1 9:22 1125 465 Ann Arbor MI
113 Clancy,Tara 249 59:57.0 58:12.6 9:22 1127 467 Ann Arbor MI
114 Batyashe,Zinzile 70 59:32.4 58:22.4 9:24 1140 475 Carleton MI
115 Scheinerman,Naomi 1990 59:44.6 58:27.9 9:25 1150 481 Ann Arbor MI
116 Uremek,Nazli 1590 59:01.6 58:28.7 9:25 1151 482 Ann Arbor MI
117 Borr,Lindsey 126 1:00:06.6 58:37.0 9:26 1165 488 Mattawan United States
118 Montie,Tammy 1062 59:14.3 58:39.0 9:26 1168 489 Tecumseh United States Of Ame
119 Andaloro,Catherine 25 1:00:32.2 58:40.6 9:27 1171 491 Grass Lake MI
120 Huyenh-cho,Tiffany 680 59:18.8 58:44.4 9:27 1177 496 Ann Arbor MI
121 Piechocki,April 1226 1:00:07.6 58:45.6 9:27 1179 498 Livonia MI
122 Schukow,Marie 1368 59:13.1 58:51.2 9:28 1183 502 Saline MI
123 Eckles,Erin 388 1:00:29.8 59:03.5 9:30 1199 512 Ann Arbor MI
124 Kifer,Jordan 778 1:00:38.0 59:13.5 9:32 1212 517 Ann Arbor United States
125 Zylstra,Emily 1765 1:00:32.1 59:14.0 9:32 1213 518 Ann Arbor MI
126 Garcia,Erica 496 1:01:37.0 59:14.2 9:32 1216 520 Rochester Hills United States
127 Schubert,Alyx 1364 1:00:42.1 59:23.7 9:34 1227 526 Ann Arbor MI
128 Tio,Rosaline 2295 1:01:50.0 59:27.0 9:34 1239 534 Ann Arbor MI
129 Ashby,Samantha 43 1:00:41.1 59:27.5 9:34 1241 536 Chelsea United States
130 Tattan,Julia 1522 1:01:21.3 59:35.1 9:35 1251 542 Zeeland MI
131 Boldon,Jessica 120 1:00:30.2 59:36.7 9:36 1252 543 Ypsilanti United States
132 Zausmer,Lindsay 2049 1:01:12.8 59:46.3 9:37 1265 550 Ann Arbor MI
133 Gadok,Avinash 488 1:00:20.3 59:49.3 9:38 1269 554 Ann Arbor MI
134 Pfeifer,Julie 1219 1:01:19.2 59:57.8 9:39 1280 562 Ann Arbor MI
135 Lothamer,Falina 919 1:01:45.2 1:00:19.6 9:42 1311 588 Ann Arbor MI
136 Prygoski,Alicia 1257 1:01:25.3 1:00:29.9 9:44 1322 594 Okemos MI
137 Rodriguez,April 1303 1:02:09.7 1:00:30.8 9:44 1323 595 Ann Arbor United States
138 Brittain,Michelle 1784 1:02:14.6 1:00:40.8 9:46 1329 599 Ann Arbor MI
139 Timinski,Erica 2025 1:02:06.3 1:00:44.7 9:47 1335 601 Ann Arbor United States
140 Flynn,Kaitlin 454 1:02:17.2 1:00:50.3 9:47 1345 608 Ann Arbor MI
141 Dorner,Kate 360 1:02:17.0 1:01:00.8 9:49 1351 613 Richland United States
142 Hunsberger,Katie 676 1:03:02.0 1:01:17.9 9:52 1363 622 Ann Arbor MI
143 Colwell,Brittany 262 1:03:23.6 1:01:27.8 9:53 1376 629 Canton MI
144 Burgoyne,Adrienne 184 1:08:27.2 1:01:42.1 9:56 1388 638 Ann Arbor MI
145 Dornbusch,Krista 359 1:03:16.1 1:01:59.3 9:59 1412 653 Ann Arbor United States
146 Greenwood,Becca 552 1:03:32.1 1:02:10.3 10:00 1425 662 Ann Arbor MI
147 Fairchild,Jessica 421 1:03:35.4 1:02:23.2 10:02 1437 670 New Hudson United States
148 Fluger,Kimberly 453 1:03:16.9 1:02:26.7 10:03 1438 671 Ann Arbor United States
149 Laverty,Anne 1912 1:03:18.9 1:02:28.3 10:03 1439 672 Ann Arbor MI
150 Zurek,Katharine 1764 1:03:18.9 1:02:28.4 10:03 1440 673 Ann Arbor United States
151 Hart,Christina 599 1:03:16.5 1:02:29.0 10:03 1441 674 Ann Arbor MI
152 Calderon,Erica 201 1:04:04.0 1:02:42.1 10:05 1455 686 Livonia MI
153 Burkhart,Shannon 1791 1:04:30.8 1:03:08.8 10:10 1469 697 Holly Ridge United States
154 Santimauro,Lauren 1346 1:03:35.5 1:03:12.9 10:10 1473 699 Ann Arbor MI
155 Brym,Maria 172 1:05:01.0 1:03:19.3 10:11 1483 707 Ypsilanti MI
156 Vaughan,Katherine 1607 1:05:16.0 1:03:36.3 10:14 1496 720 Ann Arbor MI
157 Ramesh,Sheela 1272 1:04:52.1 1:03:50.9 10:17 1510 727 Canton MI
158 Horky,Allison 659 1:05:21.4 1:03:53.8 10:17 1513 730 Ann Arbor MI
159 Rouditchenko,Olga 1317 1:04:25.1 1:03:59.4 10:18 1516 733 Center Line MI
160 Wood,Annalee 1729 1:05:45.8 1:04:12.5 10:20 1525 741 Flushing MI
161 Bowns,Erin 1781 1:05:48.9 1:04:20.7 10:21 1532 747 Columbus OH
162 Piereson,Mary 1228 1:06:07.4 1:04:37.9 10:24 1538 753 Ann Arbor MI
163 Wang,Serena 1650 1:18:33.2 1:04:43.4 10:25 1546 758 Ann Arbor MI
164 Grenier,Andrea 556 1:05:58.9 1:04:59.9 10:28 1563 770 Macomb MI
165 Hankus,Rachel 582 1:06:07.6 1:05:23.8 10:31 1582 781 Troy MI
166 Dulic,Melissa 377 1:06:39.4 1:05:59.9 10:37 1605 795 Ann Arbor MI
167 Greig,Hillary 554 1:07:41.8 1:06:15.4 10:40 1612 802 Ann Arbor MI
168 Kelly,Elizabeth 757 1:07:49.4 1:06:28.1 10:42 1618 805 Ann Arbor United States
169 Garrett,Reina 1850 1:08:00.7 1:06:43.2 10:44 1627 812 Ann Arbor MI
170 Edwards,Kalee 391 1:08:52.5 1:07:16.7 10:50 1641 822 Ann Arbor United States
171 Gawecki,Elizabeth 2152 1:09:51.2 1:08:03.8 10:57 1663 837
172 Kumke,Karoline 837 1:09:51.8 1:08:04.8 10:57 1664 838 Brighton MI
173 Calevro,Tiffany 205 1:09:21.5 1:08:07.1 10:58 1668 842 Perrysburg United States
174 Zurawski,Bailey 1763 1:09:37.1 1:09:06.0 11:07 1695 864 Ann Arbor MI
175 Ruster,Kristen 1327 1:12:42.0 1:10:48.2 11:24 1727 890 Ann Arbor MI
176 Sherzer,Andrea 1403 1:12:42.6 1:10:49.1 11:24 1728 891 Ann Arbor MI
177 Holt,Bailey 653 1:13:01.6 1:11:13.9 11:28 1733 895 Brownstown MI
178 Ravat,Emmanuelle 2258 1:12:45.4 1:11:28.1 11:30 1736 897 Ann Arbor MI
179 Miller,Elizabeth 1043 1:13:18.7 1:12:05.6 11:36 1747 906 Trenton United States
180 Caldwell,Jaime 204 1:14:09.5 1:12:21.5 11:39 1752 910 Taylor MI
181 Lieberman,Allyson 895 1:15:29.7 1:13:46.1 11:52 1779 930 Ann Arbor MI
182 Gemborys,Colleen 508 1:14:53.4 1:14:08.2 11:56 1785 935 Ann Arbor MI
183 Lennex,Allison 880 1:15:30.5 1:14:09.5 11:56 1786 936 Royal Oak MI
184 Jones,Amanda 1892 1:15:04.8 1:14:21.1 11:58 1788 938 Ann Arbor MI
185 Bowns,Emily 139 1:17:03.0 1:15:35.0 12:10 1806 951 Ann Arbor MI
186 Salpietra,Laura 1339 1:17:48.7 1:16:11.1 12:16 1810 953 Ann Arbor MI
187 Maclin,Lindsey 936 1:20:30.9 1:19:06.4 12:44 1837 973 Monroe MI
188 Colwell,Caitlin 263 1:23:49.5 1:21:51.6 13:10 1853 984 Canton U.S.
189 Maples?,Aimee 2193 1:31:41.6 1:29:46.1 14:27 1887 1013
190 Conley,Rachele 271 1:39:54.3 1:37:48.5 15:44 1920 1038 Ann Arbor United States
191 Bereswill,Becky 93 1:51:34.7 1:51:34.7 17:57 1942 1053 Ann Arbor United States
Go To Top
25-29 Female
Overall Overall State/
Place Name Bib Gun Tag Pace Place by Sex City County
1 Azari,Emily 48 43:06.0 43:01.6 6:55 98 10 Ann Arbor MI
2 Cohen,Aliza 255 43:19.0 43:14.6 6:58 107 12 Ann Arbor MI
3 Chopp,Jennifer 1806 45:32.0 45:17.0 7:17 168 27 Ypsilanti MI
4 Smith,Mckenzie 1442 46:00.9 45:40.9 7:21 187 36 Rossford OH
5 Burghardt,Jill 183 46:59.6 45:58.7 7:24 199 40 Ann Arbor MI
6 Tattan,Anna 1520 46:09.9 45:59.1 7:24 201 41 Zeeland MI
7 Toth,Lauren 1560 47:13.0 47:00.3 7:34 251 58 Westland MI
8 Anderson,Lauren 32 47:35.1 47:04.0 7:34 254 60 Bloomfield Hills MI
9 Nelson,Kelly 1119 48:09.6 47:36.8 7:40 295 73 Ann Arbor United States
10 Tyler,Emily 1583 48:00.1 47:43.5 7:41 305 77 Rochester MI
11 Hasvold,Jennifer 2293 48:41.1 47:55.1 7:43 320 82 Ann Arbor MI
12 Manofsky,Laura 950 48:45.3 48:12.2 7:45 329 84 Ann Arbor MI
13 Monti,Emily 1061 49:06.9 48:26.1 7:48 341 86 Brighton U.S.
14 Pond,Amy 1243 48:47.2 48:27.3 7:48 342 87 Ann Arbor MI
15 Montas,Jane 2121 48:47.1 48:33.8 7:49 352 89
16 Dorzey,Megan 2236 49:27.4 49:03.3 7:54 381 99
17 Harkins,Lauren 586 49:50.6 49:18.3 7:56 405 107 Cohoes United States
18 Brown,Kendall 166 49:55.7 49:18.4 7:56 406 108 Ann Arbor MI
19 Van Houten,Allison 2183 50:31.7 49:42.8 8:00 429 115
20 Chen,Chelsea 237 50:11.1 49:43.3 8:00 431 116 Ann Arbor MI
21 Guo,Kimberly 1857 50:42.9 50:01.0 8:03 446 119 Ann Arbor United States
22 Ward,Claire 1651 50:15.2 50:02.1 8:03 448 120 Ann Arbor U.S.
23 Nicholls,Lauren 1129 50:30.2 50:09.3 8:04 455 124 Ann Arbor MI
24 Osetek,Anna 1955 50:39.1 50:14.6 8:05 459 125 Ann Arbor United States
25 Lines,Emily 902 50:51.3 50:19.7 8:06 464 127 Ann Arbor MI
26 Orsini,Caitlin 1180 51:03.4 50:21.2 8:06 467 129 Ann Arbor United States Of Ame
27 Snyder,Renee 1447 50:54.0 50:27.8 8:07 474 132 Huntersville NC
28 Gudek,Elizabeth 2119 51:03.3 50:43.9 8:10 496 140
29 Harrison,Dana 597 51:15.0 50:46.9 8:10 501 144 Ann Arbor MI
30 King,Angel 2204 51:17.6 50:54.0 8:11 515 149
31 Holtzman,Lisa 654 51:17.0 50:54.3 8:12 516 150 Ann Arbor United States
32 Reinke,Ashley 1281 51:26.4 50:56.0 8:12 518 151 Ann Arbor MI
33 Moore,Carrie 1068 51:48.8 51:13.5 8:15 535 159 Ann Arbor MI
34 Crower,Laura 296 51:57.9 51:31.3 8:17 551 167 Midland U.S.
35 Church,Samantha 242 52:12.1 51:31.3 8:17 552 168 Ypsilanti United States
36 Pope,Ryanne 1244 52:27.0 51:41.0 8:19 561 173 Holland MI
37 Lee,Joy 871 53:37.5 52:01.6 8:22 589 184 Ann Arbor MI
38 Beckers,Holly 76 52:51.2 52:01.7 8:22 590 185 Ypsilanti MI
39 Schroeder,Amanda 1361 53:31.3 52:35.8 8:28 622 192 Pinckney United States
40 Batts,Amy 69 53:04.8 52:38.6 8:28 626 194 Grand Haven MI
41 Irwin,Meredith 693 53:21.0 52:42.6 8:29 635 198 Ann Arbor MI
42 Thompson,Brittany 1547 53:11.1 52:44.4 8:29 640 201 Chicago IL
43 Start,Lauren 1469 53:23.1 52:44.8 8:29 641 202 Ann Arbor MI
44 Maslowsky,Jennifer 967 54:10.9 53:06.4 8:33 676 217 Leonard MI
45 Beatty,Erin 73 54:14.0 53:06.5 8:33 677 218 Brownstown MI
46 Harvey,Kaitlin 600 54:34.4 53:15.7 8:34 687 225 Tekonsha MI
47 Webber,Jocelyn 1671 54:48.1 53:28.5 8:36 702 232 Chelsea MI
48 Marzolf,Lauren 965 54:41.9 53:43.0 8:39 715 241 Livonia MI
49 Dreyer,Rachael 369 54:07.4 53:46.4 8:39 724 246 Ann Arbor MI
50 Loding,Katie 914 54:53.3 53:49.7 8:40 730 250 Ann Arbor MI
51 Smirnov,Katie 1430 54:54.9 53:58.6 8:41 747 261 Ann Arbor MI
52 Ervin,Melissa 405 54:23.7 54:01.0 8:42 750 263 Warren United States
53 Johnson,Sarah 730 55:06.8 54:03.8 8:42 756 265 South Lyon MI
54 Peron,Therese 1210 54:39.7 54:06.2 8:42 767 270 Bloomfield Hills MI
55 Peirce,Alysa 1203 55:16.8 54:08.9 8:43 772 272 Ann Arbor MI
56 Lobert,Alyson 912 55:28.4 54:12.7 8:43 781 275 Walled Lake MI
57 Danziger,Phoebe 310 54:48.6 54:19.6 8:45 793 281 Ann Arbor United States
58 Wares,Emily 1653 54:59.8 54:27.5 8:46 797 283 South Lyon United States
59 Kriscunas,Katherine 825 55:15.4 54:33.0 8:47 803 285 Ann Arbor MI
60 Gwisdala,Hilary 567 55:05.7 54:33.1 8:47 804 286 Midland MI
61 Goldberg,Alison 1853 55:05.2 54:35.6 8:47 809 288 Farmington Hills MI
62 Huffman,Raquel 671 55:22.3 54:49.7 8:49 829 298 Ypsilanti MI
63 Li,Amy 892 55:48.5 54:56.2 8:50 835 302 Ann Arbor MI
64 Mabley,Sarah 931 55:26.0 55:06.9 8:52 850 311 Ann Arbor MI
65 Anderson,Dayna 30 57:38.5 55:07.4 8:52 852 312 Plymouth United States
66 Sobb,Erin 1448 56:13.3 55:17.4 8:54 868 320 Milan MI
67 Torres,Maria 2026 57:03.1 55:25.9 8:55 882 326 Toledo OH
68 Will,Shannon 2042 56:59.9 55:30.7 8:56 888 329 Canton MI
69 Montry,Lindsay 1063 57:22.2 55:36.1 8:57 891 331 Pittsfield Township MI
70 Weinman,Andrea 2037 57:07.2 55:38.4 8:57 894 333 Livonia United States
71 Sushynski,Mary 1500 56:44.1 55:41.6 8:58 899 336 Saline United States
72 Dodd,Darcy 350 57:48.8 56:17.8 9:04 951 365 Ann Arbor MI
73 Pennings,Ani 1960 57:01.5 56:20.1 9:04 955 367 Ann Arbor MI
74 Hall,Laura 1860 57:33.0 56:27.9 9:05 967 374 ST. Clair Shores MI
75 Coultrap-bagg,Charlotte 286 57:25.0 56:38.2 9:07 980 381 Ann Arbor MI
76 Sugar,Samantha 1491 57:54.1 56:41.7 9:07 983 383 Ann Arbor United States
77 Gehrke,Gretchen 1852 58:08.4 57:04.2 9:11 1008 394 Ann Arbor MI
78 Bush,Katie 189 58:08.5 57:04.5 9:11 1010 396 Ann Arbor MI
79 Gersh,Maris 514 58:48.1 57:06.3 9:11 1011 397 Apt 1824 48104
80 Sharp,Meg 1399 57:51.1 57:11.1 9:12 1016 399 Adrian MI
81 Borowski,Sara 1778 57:40.7 57:11.6 9:12 1018 400 Ann Arbor MI
82 Mcgowan,Josephine 2088 58:36.1 57:19.4 9:13 1033 408 West Bloomfield U.S.A
83 Joiner,Danese 732 59:00.2 57:28.0 9:15 1047 417 Grand Rapids MI
84 Partridge,Katherine 1196 59:21.4 57:36.9 9:16 1062 426 Ann Arbor MI
85 Sharp,Kristen 1995 58:42.1 57:39.8 9:17 1069 430 Ann Arbor MI
86 Belke,Michelle 82 58:30.3 57:40.4 9:17 1072 433 Northville MI
87 Wilson,Megan 1709 58:24.7 57:42.2 9:17 1075 434 Ypsilanti MI
88 Han,Sarah 581 58:50.2 57:43.6 9:17 1078 435 Canton MI
89 Cezat,Kari 228 59:15.3 57:49.4 9:18 1088 444 Cape Canaveral FL
90 Grosteffon,Lorelei 564 59:40.4 57:49.4 9:18 1089 445 Battle Creek MI
91 Smith,Margaret 1440 58:33.3 57:53.9 9:19 1096 451 Ann Arbor United States
92 Lyons,Hannah 929 59:12.2 57:58.2 9:20 1105 455 Ann Arbor MI
93 Mills,Cheryl 1049 59:33.4 58:01.9 9:20 1112 458 Northville U.S.
94 Kornak,Rachel 813 59:17.5 58:24.1 9:24 1144 478 Plymouth MI
95 Headley,Amber 612 1:00:02.6 58:24.7 9:24 1146 479 Pinckney MI
96 Fabiili,Marta 416 1:00:20.0 58:34.5 9:26 1161 485 Ann Arbor MI
97 Townsend,Katie 1562 59:36.8 58:41.2 9:27 1173 492 Saginaw MI
98 Orfield,Cara 1177 1:00:02.6 58:53.8 9:29 1186 504 Ann Arbor MI
99 Fishman,Rachel 447 1:00:23.1 58:56.2 9:29 1188 506 Ann Arbor MI
100 Bache,Ashlea 2268 1:00:42.5 58:58.9 9:30 1192 509 Huron OH
101 Murray,Heather 1104 1:00:05.1 59:00.1 9:30 1195 510 Streetsboro OH
102 J�hin,L�a 1890 1:00:48.3 59:15.2 9:32 1218 521 Ann Arbor MI
103 Valle,Katherine 1595 1:00:35.0 59:24.2 9:34 1228 527 Ann Arbor United States Of Ame
104 Theis,Becky 2285 1:00:55.6 59:24.3 9:34 1229 528 Grand Ledge United States
105 Hughes,Margaret 674 1:00:40.8 59:27.1 9:34 1240 535 Ann Arbor MI
106 Cutright,Chelsea 302 1:01:24.3 59:38.4 9:36 1255 545 Ypsilanti MI
107 Lax,Liza 866 1:01:12.5 59:46.4 9:37 1266 551 Ann Arbor MI
108 Kulpa,Tiffany 836 1:01:36.8 59:53.4 9:38 1275 558 Novi MI
109 Madias,Angela 1925 1:01:31.7 59:56.3 9:39 1277 559 Novi United States
110 Houghton,Katie 1877 1:00:32.4 1:00:01.3 9:40 1285 567 Ann Arbor MI
111 Escamilla,Adrienne 406 1:02:02.4 1:00:05.4 9:40 1289 570 Ypsilanti MI
112 Goldstein,Amy 531 1:01:41.0 1:00:16.0 9:42 1299 578 Ann Arbor MI
113 Corle,Tyacie 281 1:01:32.6 1:00:16.2 9:42 1300 579 Ann Arbor MI
114 Cattier,Celine 224 1:01:43.7 1:00:18.1 9:42 1306 584 Ann Arbor MI
115 Tomlinson,Jessica 1554 1:00:59.3 1:00:19.3 9:42 1310 587 Dearborn Heights MI
116 Dejesus,Anna 332 1:01:48.1 1:00:23.6 9:43 1314 589 Ypsilanti MI
117 Warner,Allison 1654 1:02:30.7 1:00:46.8 9:47 1340 605 Maumee U.S.
118 Tortoriello,Renee 1559 1:02:52.4 1:00:58.5 9:49 1350 612 Novi U.S.
119 Chang,Priscilla 233 1:03:04.7 1:01:29.3 9:54 1379 632 Ann Arbor MI
120 Tran,Lucy 1565 1:03:05.5 1:01:48.8 9:57 1395 642 Ann Arbor MI
121 Fryer,Lisa 1843 1:03:06.9 1:01:49.0 9:57 1396 643 Whitmore Lake MI
122 Schultz,Kristen 1371 1:02:21.4 1:01:52.3 9:57 1402 645 Ann Arbor MI
123 Zditosky,Kristen 1752 1:03:45.6 1:01:53.5 9:58 1403 646 Mattawan MI
124 Tong,Bethany 1555 1:02:21.8 1:01:53.5 9:58 1404 647 Ann Arbor MI
125 Morse,Kelsey 1951 1:03:51.5 1:02:00.0 9:59 1413 654 Battle Creek United States
126 Finch,Chelsea 440 1:02:55.6 1:02:01.0 9:59 1415 655 Ann Arbor MI
127 Prout,Martha 1255 1:03:44.6 1:02:34.1 10:04 1447 679 Shepherd MI
128 Fowler,Christine 467 1:04:06.8 1:02:36.8 10:05 1451 682 Ann Arbor MI
129 Funkhouser,Chloe 485 1:04:33.4 1:02:39.1 10:05 1453 684 Ann Arbor MI
130 Antle,Katie 36 1:04:19.5 1:02:54.2 10:07 1459 690 Ann Arbor MI
131 Borchardt,Shavonne 124 1:04:28.7 1:02:58.8 10:08 1464 693 Canton MI
132 Lloyd,Jenna 911 1:04:10.6 1:03:06.0 10:09 1468 696 Ypsilanti MI
133 Mclean,Alexandra 1006 1:05:00.0 1:03:11.0 10:10 1471 698 Ann Arbor MI
134 Kolanowski,Mary 804 1:04:51.5 1:03:31.6 10:13 1490 714 Wolverine Lake MI
135 Colwell,Jennifer 264 1:05:30.9 1:03:32.1 10:13 1491 715 Canton MI
136 Platte,Rachel 1236 1:05:12.8 1:04:00.1 10:18 1518 735 Ann Arbor MI
137 Linsley,Susanna 1920 1:05:50.7 1:04:04.3 10:19 1522 739 Ann Arbor MI
138 Rimer,Jessica 1292 1:04:55.5 1:04:05.0 10:19 1524 740 Plymouth MI
139 Bartlett,Kimberly 65 1:05:56.4 1:04:42.8 10:25 1545 757 Ypsilanti United States
140 Squire,Crystal 1461 1:05:44.9 1:04:45.2 10:25 1549 761 Livonia MI
141 Wolfe,Megan 1728 1:06:46.8 1:04:55.3 10:27 1556 764 Chicago United States
142 Fuentes,Melina 482 1:06:51.0 1:05:15.5 10:30 1575 776 Ypsilanti MI
143 Evans,Jamie 412 1:06:27.6 1:05:18.5 10:31 1578 778 Flint MI
144 Sexton,Ashley 1395 1:07:00.3 1:05:34.2 10:33 1586 783 Ann Arbor MI
145 Davis,Stephanie 321 1:06:47.0 1:06:02.1 10:38 1607 797 Clinton MI
146 Tran,Julia 1564 1:08:32.8 1:06:06.2 10:38 1609 799 Ann Arbor MI
147 Fuqua-smith,Anna 1846 1:07:24.0 1:06:39.5 10:44 1621 807 Ann Arbor MI
148 Boyea,Melissa 142 1:08:20.7 1:06:39.8 10:44 1622 808 Burns Street MI
149 Cosgrove,Jenny 284 1:07:55.0 1:06:40.4 10:44 1624 809 Columbus OH
150 Norman,Lorena 1140 1:08:58.2 1:07:06.0 10:48 1635 817 Pinckney United States
151 Daberko,Megan 304 1:08:59.8 1:07:07.8 10:48 1636 818 Pinckney MI
152 Darnbrook,Emily 311 1:08:52.0 1:07:16.2 10:50 1639 820 Northville MI
153 Reisman,Rachel 1282 1:08:55.6 1:07:16.7 10:50 1642 823 Ann Arbor MI
154 Bekemeier,Kelly 81 1:08:07.0 1:07:35.3 10:53 1653 830 Birch Run Saginaw
155 Turner,Sarah 1581 1:09:22.5 1:07:51.4 10:55 1657 834 Royal Oak MI
156 Borr,Subrina 127 1:09:22.5 1:07:52.8 10:55 1660 835 Mattawan United States
157 Januszka,Racheal 704 1:09:53.1 1:08:05.2 10:57 1665 839 Lansing Ingham
158 Januszka,Megan 703 1:09:54.1 1:08:06.4 10:58 1666 840 Coldwater United States
159 Thomey,Jessica 1544 1:09:41.4 1:08:27.4 11:01 1674 846 Plymouth MI
160 Dunlap,Kate 379 1:10:15.4 1:08:32.5 11:02 1680 852 Plymouth MI
161 Peltier,Jennifer 1206 1:10:15.5 1:08:32.5 11:02 1681 853 Plymouth MI
162 Johnson,Kelly 722 1:10:30.2 1:09:07.6 11:07 1696 865 Berkley MI
163 Roedel,Jennifer 1305 1:09:49.9 1:09:13.5 11:08 1702 869 Ann Arbor MI
164 Coffey,Tracy 254 1:10:17.4 1:09:36.4 11:12 1710 877 Chelsea MI
165 Torrice,Mary 1558 1:11:36.4 1:09:43.3 11:13 1712 879 Chelsea MI
166 Davis,Jennifer 317 1:11:22.3 1:09:59.0 11:16 1713 880 Ypsilanti MI
167 Glass,Carrie 523 1:12:18.9 1:10:45.3 11:23 1725 888 Milan United States
168 Warren,Lauren 1658 1:12:08.3 1:10:49.5 11:24 1729 892 Schaumburg IL
169 Shahabuddin,Ambreen 1397 1:12:10.7 1:11:54.5 11:34 1743 903 Ypsilanti MI
170 Nord,Kristina 1138 1:14:07.4 1:12:11.7 11:37 1748 907 Ann Arbor MI
171 Maleonskie,Sara 941 1:14:29.7 1:12:32.8 11:40 1756 913 Milford MI
172 Bell,Kierstyn 2168 1:14:36.6 1:12:33.3 11:41 1757 914
173 Walden,Dayeann 1639 1:15:06.0 1:13:06.0 11:46 1768 922 Brighton MI
174 Milliman,Ashley 1048 1:15:06.8 1:13:06.6 11:46 1769 923 Ann Arbor MI
175 ST.Vincent,Sarah 1462 1:14:34.2 1:13:10.1 11:46 1771 924 Ann Arbor MI
176 Chen,Jessica 1803 1:15:52.1 1:13:49.1 11:53 1782 932 Ann Arbor MI
177 Martin,Erika 962 1:37:25.5 1:15:15.5 12:07 1800 946 Berrien Springs MI
178 Ross,Katy 1313 1:18:02.3 1:16:22.1 12:17 1812 955 Ann Arbor MI
179 Mckinney,Heather 2089 1:18:03.6 1:16:42.5 12:21 1817 960 White Lake MI
180 Curtis,Abigail 300 1:18:12.3 1:16:58.2 12:23 1823 965 Perrysburg OH
181 Toll,Dana 1553 1:19:21.9 1:17:33.7 12:29 1827 966 Livonia United States
182 Coleman,Lindsey 258 1:19:31.2 1:17:56.8 12:33 1829 967 Lakewood United States
183 Zappalla,Kristen 1750 1:19:42.2 1:18:13.6 12:35 1833 971 Ann Arbor MI
184 Crider,Elizabeth 292 1:20:43.1 1:19:10.0 12:44 1839 974 Mount Pleasant MI
185 Billington,Alecia 105 1:20:44.4 1:19:11.1 12:45 1840 975 MT. Pleasant MI
186 Higaki,Ai 1870 1:21:08.6 1:19:12.3 12:45 1842 976 Canton United States
187 Kozlowski,Kelly 2208 1:23:32.0 1:21:35.8 13:08 1849 981
188 Mcphilamy,Breanne 1009 1:25:04.7 1:23:32.5 13:27 1867 998 Canton MI
189 Lechtanski,Bethany 869 1:28:26.8 1:26:23.0 13:54 1874 1003 Ypsilanti MI
190 Clement,Danielle 251 1:28:27.5 1:26:23.9 13:54 1875 1004 Tecumseh MI
191 Lewis,Joy 891 1:28:38.3 1:26:36.4 13:56 1878 1007 Ypsilanti MI
192 Trojan,Cassandre 1570 1:34:14.1 1:32:12.0 14:50 1893 1018 Jamaica Plain MA
193 Eaton,Melissa 387 1:49:35.4 1:47:29.5 17:18 1933 1048 Brighton MI
194 Bhatt,Monica 100 1:54:26.2 1:54:26.2 18:25 1947 1057 Ann Arbor MI
Go To Top
30-34 Female
Overall Overall State/
Place Name Bib Gun Tag Pace Place by Sex City County
1 Walrath,Andrea 1644 41:44.2 41:41.9 6:43 61 5 Ann Arbor United States
2 Anderson,Jocelyn 31 43:25.6 43:21.9 6:59 109 13 Ann Arbor MI
3 Swan,Sandra 1502 44:04.6 43:58.5 7:05 128 16 Ypsilanti MI
4 Ault,Amanda 44 44:43.9 44:29.1 7:10 140 20 Ann Arbor MI
5 Miller,Michelle 1045 46:09.2 45:34.8 7:20 181 32 Ann Arbor MI
6 Pini,May 1232 45:49.5 45:36.9 7:20 183 33 Ann Arbor MI
7 Jackson,Dana 696 46:20.3 46:12.1 7:26 213 44 Morton Grove United States
8 Aherne,Melissa 2205 46:19.3 46:16.0 7:27 218 46
9 Caird,Margaret 200 48:19.2 47:42.1 7:41 303 76 Ann Arbor MI
10 Brzoznowski,Kathy 173 48:35.8 48:18.7 7:46 335 85 Ann Arbor MI
11 Martin,Kristine 963 48:47.5 48:34.2 7:49 353 90 Ann Arbor United States
12 Grahovac,Ivana 540 48:50.4 48:39.9 7:50 356 91 Austin TX
13 Head,Elizabeth 611 49:10.9 48:58.9 7:53 375 98 Superior Township MI
14 Allet,Lara 2129 49:10.8 49:06.3 7:54 388 100
15 Gabriel,Alana 486 49:39.4 49:15.1 7:56 396 101 Northville United States
16 Sheuerman,Karen 1404 50:19.8 49:26.5 7:57 416 111 Dexter MI
17 Dismondy,Maria 347 50:24.7 50:15.6 8:05 460 126 Novi MI
18 Jacobs,Sarah 698 51:05.2 50:20.7 8:06 466 128 Monroe United States
19 Wiggins,Heather 1700 51:18.0 50:41.7 8:10 495 139 Ann Arbor MI
20 Cherwinski,Jill 239 50:58.7 50:46.1 8:10 500 143 Montrose United States
21 Wolf,Kristy 1725 51:58.0 51:24.1 8:16 544 162 Clinton Township MI
22 Thompson,Nicole 1549 52:59.8 52:04.2 8:23 595 186 Livonia United States
23 Fanelli,Emily 2246 55:39.2 52:29.7 8:27 613 191
24 Zimmer,Erin 1756 53:47.4 52:42.0 8:29 633 197 Ann Arbor MI
25 Wagenhauser,Lisa 2112 53:40.5 53:04.7 8:33 674 216 Temperance MI
26 Kuschinsky,Nancy 841 53:39.8 53:10.5 8:33 679 220 Plymouth MI
27 Borders,Angie 125 54:06.1 53:22.4 8:35 693 226 Adrian MI
28 Light,Kristen 899 54:52.5 53:26.6 8:36 699 229 Ann Arbor MI
29 Bishop,Allison 107 54:29.2 53:26.6 8:36 700 230 Ann Arbor MI
30 Veling,Anne 1609 53:45.0 53:28.1 8:36 701 231 Ann Arbor MI
31 Fenton,Karla 434 1:03:37.8 53:33.1 8:37 707 234 Lansing MI
32 Munteanu,Magda 1099 55:08.9 53:42.5 8:39 714 240 Ann Arbor MI
33 Kirk,Maria 790 54:37.4 53:47.4 8:39 726 247 Livonia MI
34 Sattler,Janine 1350 54:56.2 53:57.1 8:41 742 258 Commerce Twp MI
35 Winn,Erica 1711 54:44.2 54:14.1 8:44 785 277 Ann Arbor MI
36 Swanson,Jeanne 1504 56:09.5 54:37.0 8:47 815 291 Novi MI
37 Rosenberg,Jennifer 1983 56:23.7 54:38.6 8:48 820 293 Ypsilanti MI
38 King,Kaitlin 784 55:31.9 54:45.9 8:49 825 296 Ann Arbor MI
39 Radant,Cari 1268 55:31.9 54:47.4 8:49 827 297 Adrian MI
40 Johnson,Emilie 716 55:45.9 54:51.2 8:50 830 299 Ann Arbor MI
41 Newton,Stacey 1126 56:11.1 55:06.6 8:52 849 310 Jackson MI
42 Van Sickle,Nicole 1598 57:38.6 55:07.7 8:52 853 313 Ann Arbor MI
43 Fouch,Erin 465 56:38.0 55:15.7 8:54 866 318 Ann Arbor MI
44 Axe,Michelle 46 55:59.1 55:25.0 8:55 880 325 Farmington Hills MI
45 Floros,Demetra 1840 55:57.9 55:27.5 8:55 884 327 Lasalle Canada
46 Robison,Amie 1301 56:52.9 55:43.5 8:58 904 339 Dexter MI
47 Stone,Michelle 2254 57:18.8 55:47.5 8:59 908 342 Ann Arbor MI
48 Cooper,Nicole 2066 56:37.3 55:47.6 8:59 909 343 Linden United States
49 Kellmann,Laura 756 56:42.3 55:50.4 8:59 914 345 Dearborn MI
50 Ankeney,Rebecca 2253 57:44.5 56:09.1 9:02 937 358 Ann Arbor MI
51 Chu-blough,Millie 1808 57:48.6 56:25.2 9:05 962 370 Ann Arbor MI
52 Degroot,Jessica 1825 57:40.1 56:34.1 9:06 976 377 Royal Oak MI
53 Berger,Laura 2198 57:09.4 56:37.7 9:07 979 380
54 Salazar,Daisy 2104 1:10:06.4 56:47.9 9:08 986 385 Ann Arbor United States
55 Grziwotz,Sabine 565 57:35.6 56:54.6 9:10 995 390 Farmington Hills MI
56 Lake,Kelly 1905 57:31.4 56:56.8 9:10 1000 392 Lambertville MI
57 Rougee,Annick 1318 58:43.6 57:11.6 9:12 1019 401 Ann Arbor MI
58 Kang,Leanne 737 58:43.6 57:11.8 9:12 1020 402 Ann Arbor United States
59 Beck,Heather 74 58:00.3 57:19.0 9:13 1030 406 Ypsilanti United States
60 Eleby,Michelle 2166 58:55.6 57:19.2 9:13 1032 407
61 Manning,Sophie 947 58:13.1 57:26.5 9:15 1042 414 Ann Arbor MI
62 Abbey,Minda 2200 58:59.4 57:28.9 9:15 1052 421
63 Woods,Laura 2045 58:59.6 57:29.1 9:15 1053 422 Manchester MI
64 Wagner,Monica 2036 58:07.3 57:32.6 9:16 1054 423 Monroe MI
65 Volk,Sarah 1623 59:17.4 57:47.1 9:18 1082 438 Blissfield MI
66 Shelby,Rebecca 1402 58:39.7 57:53.4 9:19 1095 450 Plymouth MI
67 Hill,Amy 633 58:47.5 58:03.4 9:21 1116 460 Onsted MI
68 Almeida,Tais 2170 1:00:10.1 58:06.9 9:21 1120 464
69 Rietz,Melissa 1290 59:35.0 58:11.9 9:22 1126 466 Ann Arbor United States
70 Hiram,Amanda 2215 58:58.4 58:14.9 9:22 1129 469
71 Martin,Beth 960 59:37.3 58:32.4 9:25 1155 483 Royal Oak MI
72 Newton,Regen 1125 59:24.6 58:35.8 9:26 1163 487 Ypsilanti MI
73 Emery,Lisa 1833 59:48.3 58:39.4 9:26 1169 490 Ann Arbor MI
74 Herrington,Kristen 629 59:26.1 58:45.4 9:27 1178 497 Manitou Beach MI
75 Block,Alyson 116 1:00:27.2 58:48.8 9:28 1180 499 Flat Rock United States
76 Caruthers,Regine 222 59:30.9 58:49.3 9:28 1181 500 Ann Arbor MI
77 Truesdell,Katie 1574 1:00:13.8 58:50.2 9:28 1182 501 Dexter MI
78 Sylvester,Mariann 1506 1:00:27.6 59:04.8 9:30 1200 513 Ann Arbor MI
79 Fitzgibbons,Casey 449 1:00:58.5 59:04.9 9:30 1202 514 Jackson United States
80 Runarsdottir,Hildur 2103 1:00:11.0 59:07.3 9:31 1205 516 Saline, Mi 48176 MI
81 Kolasa,Genevieve 805 1:00:57.0 59:18.9 9:33 1221 524 Northville MI
82 Early,Susana 385 1:01:09.3 59:26.1 9:34 1236 531 Superior Twp MI
83 Campbell,Jamina 211 1:00:16.1 59:28.2 9:34 1242 537 Ypsilanti MI
84 Dix,Rene 348 1:01:00.1 59:30.4 9:35 1245 539 Wixom MI
85 Critchfield,Amanda 295 1:01:14.3 59:37.2 9:36 1253 544 Chelsea United States
86 Forster,Michele 460 1:01:18.4 59:47.7 9:37 1267 552 Ann Arbor MI
87 Rutledge,Meg 2277 1:00:48.0 59:50.9 9:38 1272 557 Birmingham MI
88 Arnedt,Caroline 1770 1:01:04.7 59:58.4 9:39 1282 564 Dexter MI
89 Koldys,Christie 806 1:02:11.9 1:00:14.5 9:42 1296 575 Chesterfield MI
90 Newton Rosenow,Mandy 1127 1:01:46.1 1:00:16.0 9:42 1298 577 Saline MI
91 Sanborn,Amy 1341 1:01:38.6 1:00:29.3 9:44 1321 593 Commerce Twp United States
92 Fabry,Melinda 418 1:02:10.4 1:00:35.9 9:45 1328 598 Brighton MI
93 Candela,Danielle 1794 1:01:42.3 1:00:44.4 9:46 1334 600 Sterling Heights United States
94 Stuckey,Linda 1487 1:01:50.6 1:00:45.2 9:47 1336 602 Ann Arbor MI
95 Vuocolo,Caitlin 1629 1:02:34.0 1:00:45.3 9:47 1338 604 Ypsilanti MI
96 Blixt,Mollie 113 1:02:34.9 1:00:48.5 9:47 1343 606 Fowlerville Livingston
97 Spiker,Amy 1458 1:02:36.7 1:00:50.1 9:47 1344 607 Howell MI
98 Radel,Carrie 1269 1:02:09.9 1:00:54.2 9:48 1346 609 Lyons OH
99 Shaw,Alicia 1400 1:02:00.5 1:01:19.9 9:52 1365 623 Milan United States
100 Mueller,Melissa 1092 1:03:14.7 1:01:24.8 9:53 1372 627 Brighton MI
101 Round,Rebecca 1319 1:02:22.3 1:01:28.0 9:54 1377 630 Saline MI
102 Albinger,Suzanne 11 1:03:04.4 1:01:33.7 9:54 1381 634 Livonia MI
103 Morris,Melanie 1078 1:03:27.2 1:01:35.6 9:55 1383 635 Livonia MI
104 Vondracek,Anne 1624 1:02:52.5 1:01:41.3 9:56 1387 637 Novi MI
105 Francis,Melissa 470 1:02:50.8 1:01:47.5 9:57 1394 641 Ann Arbor MI
106 Mostek,Michele 1088 1:03:08.2 1:01:49.9 9:57 1398 644 Livonia United States
107 Lansu,Lucia 854 1:03:16.9 1:01:57.1 9:58 1409 650 Westland U.S
108 Dean,Christina 326 1:03:17.2 1:01:57.5 9:58 1410 651 Ypsilanti U.S.A
109 Young,Kristy 2047 1:03:33.9 1:02:01.7 9:59 1416 656 Ann Arbor MI
110 Brickman,Katie 153 1:03:21.1 1:02:04.2 9:59 1419 658 Ann Arbor MI
111 Brant,Racheal 150 1:03:29.4 1:02:05.6 10:00 1420 659 Maybee MI
112 Khateeb,Rafina 774 1:03:26.9 1:02:31.7 10:04 1444 677 Brighton MI
113 Boman,Kelly 122 1:04:31.2 1:02:33.7 10:04 1446 678 Grosse Pointe Woods MI
114 Bourne,Kyla 135 1:03:26.9 1:02:48.6 10:06 1456 687 Ann Arbor MI
115 Williams,Sarah 1705 1:04:03.2 1:02:50.1 10:07 1458 689 Ann Arbor MI
116 Grochowski,Heather 562 1:04:50.7 1:02:56.6 10:08 1461 691 Lambertville United States
117 Townsend,Devonie 1561 1:04:14.6 1:03:01.9 10:09 1465 694 Ann Arbor MI
118 Jordan,Katherine 735 1:04:15.2 1:03:02.3 10:09 1466 695 Saline MI
119 Kokotovich,Catherine 1898 1:04:28.7 1:03:15.4 10:11 1477 703 Ferndale MI
120 Peacock,Jennifer 1959 1:05:09.6 1:03:23.2 10:12 1485 709 Ann Arbor MI
121 Blitz,Lauren 112 1:05:04.5 1:03:24.7 10:12 1487 711 Ann Arbor MI
122 Kovacs,April 819 1:04:52.7 1:03:25.5 10:12 1488 712 Wyandotte MI
123 Petkus,Shylah 1217 1:05:15.0 1:03:52.6 10:17 1512 729 Wixom MI
124 Lipke,Crystal 1921 1:05:43.9 1:03:58.0 10:18 1514 731 Ann Arbor MI
125 Lehnis,Katie 875 1:04:47.2 1:03:58.2 10:18 1515 732 Canton MI
126 Mcfarland,Manda 997 1:05:12.9 1:04:00.0 10:18 1517 734 Milan MI
127 Gaynier,Beth 506 1:05:18.1 1:04:02.5 10:18 1520 737 Ypsilanti United States
128 Mcbride,Faith 983 1:05:51.9 1:04:18.2 10:21 1530 745 Flushing MI
129 Wolf,Jennifer 1724 1:06:07.6 1:04:21.0 10:21 1533 748 Ann Arbor MI
130 Cranson,Cheryl 289 1:05:47.3 1:04:56.0 10:27 1557 765 Dundee MI
131 Mikolajczak,Christine 1036 1:06:51.9 1:05:17.1 10:30 1576 777 Ypsilanti MI
132 Greashaber,Laura 544 1:07:27.4 1:05:35.7 10:33 1587 784 Ann Arbor MI
133 Johnson,Lorraine 394 1:06:48.2 1:05:37.8 10:34 1588 785 Ann Arbor United States
134 Flatley,Nicole 2209 1:07:28.5 1:05:47.7 10:35 1594 788
135 Wohl,Nicole 1720 1:07:20.0 1:05:59.3 10:37 1603 793 Clarkston MI
136 Manno,Erin 1929 1:07:31.7 1:06:10.5 10:39 1610 800 Superior Township United States
137 Radtke,Dana 1970 1:08:35.0 1:06:42.6 10:44 1625 810 Ann Arbor MI
138 Anderson,Carrie 28 1:08:39.2 1:06:48.9 10:45 1629 814 Trenton MI
139 Frarer,Jennifer 471 1:09:45.6 1:07:26.8 10:51 1645 826 New Boston MI
140 Smith,Amy 2225 1:09:22.2 1:07:29.3 10:52 1648 827
141 Poglits,Sarah 1240 1:08:46.4 1:07:34.5 10:52 1652 829 Canton MI
142 Wheat,Kari 2039 1:10:01.0 1:08:20.9 11:00 1671 844 Ypsilanti United States
143 Dilsizian,Sarah 345 1:09:48.3 1:08:30.0 11:01 1678 850 S Rockwood MI
144 Oneill,Megan 1172 1:10:38.3 1:09:01.3 11:06 1690 859 Chicago IL
145 O'neill,Erin 1173 1:10:38.5 1:09:02.4 11:07 1691 860 Niskayuna NY
146 Koval,Liz 820 1:10:58.4 1:09:11.0 11:08 1699 867 Manchester MI
147 Puser,Hollee 1263 1:10:39.6 1:09:15.7 11:09 1705 872 Chicago IL
148 Hornbacher,Kelly 661 1:12:04.2 1:10:09.8 11:17 1718 884 Canton MI
149 Crower,Tara 297 1:12:33.9 1:10:48.1 11:24 1726 889 Auburn MI
150 Taguchi,Naoko 1510 1:13:05.7 1:11:28.4 11:30 1738 898 Novi MI
151 Mason,Jennifer 1935 1:13:37.6 1:11:42.1 11:32 1741 901 Royal Oak MI
152 Knibbs,Trina 802 1:14:03.7 1:12:53.8 11:44 1764 919 Rochester Hills MI
153 Mcewen,Laura 996 1:15:18.0 1:13:05.2 11:46 1767 921 Ann Arbor MI
154 Craggs,Erin 2229 1:15:21.9 1:13:21.3 11:48 1775 926
155 Bogdan,Courtney 119 1:16:25.5 1:14:42.7 12:01 1797 944 Monroe MI
156 Schmidt,Lindsay 1358 1:16:43.0 1:14:43.3 12:01 1798 945 Brighton MI
157 Schlitt,Mary 1357 1:18:02.5 1:16:22.7 12:17 1813 956 Ann Arbor MI
158 Konrad,Heather 809 1:18:26.7 1:16:29.2 12:19 1814 957 Holland OH
159 Mcclain,Melissa 990 1:18:16.3 1:16:38.8 12:20 1815 958 Canton MI
160 Vanairsdale,Kerry 2289 1:18:16.2 1:16:38.9 12:20 1816 959 Canton MI
161 Lee,Jacqueline 870 1:19:30.3 1:18:03.3 12:34 1831 969 Millford MI
162 Kitchen,Ceyard 792 1:19:38.4 1:18:29.9 12:38 1834 972 Flint MI
163 Knox,Jodi 1896 1:22:17.6 1:20:17.4 12:55 1846 978 Milan United States
164 Brinning-lisker,Leslie 157 1:23:47.2 1:21:52.5 13:11 1855 986 Monroe MI
165 Posey,Jessica 2227 1:25:12.5 1:23:19.0 13:24 1861 992
166 Gaskin,Courtney 502 1:25:18.3 1:23:25.3 13:25 1862 993 Farmington Hills MI
167 Ogoe,Effie 1159 1:26:44.7 1:24:45.2 13:38 1869 1000 Canton MI
168 Schaare,Amy 1352 1:27:07.9 1:25:03.6 13:41 1870 1001 Milan MI
169 Peterson,Jennifer 1215 1:28:27.0 1:28:27.0 14:14 1883 1009 Jackson MI
170 Peters,Kristin 1213 1:34:39.6 1:32:38.8 14:55 1896 1021 Lansing MI
171 Hobbs,Rachel 639 1:36:03.7 1:33:50.9 15:06 1901 1025 Ypsilanti MI
172 Fales,Jessica 1837 1:36:03.9 1:33:51.2 15:06 1902 1026 Ypsilanti MI
173 Irvine,Solveig 692 1:36:55.8 1:34:39.9 15:14 1909 1031 Ann Arbor MI
174 Jan,Terri 1886 1:36:51.0 1:34:44.3 15:15 1911 1032 Ann Arbor MI
175 Witter,Christina 1716 1:39:59.4 1:37:50.9 15:45 1921 1039 Ann Arbor MI
176 Sobczak,Elizabeth 1449 1:39:59.6 1:37:52.3 15:45 1922 1040 Oakland Twp MI
177 Roe,Andrea 1981 1:55:09.7 1:52:58.0 18:11 1943 1054 Ann Arbor MI
Go To Top
35-39 Female
Overall Overall State/
Place Name Bib Gun Tag Pace Place by Sex City County
1 Matuszewski,Kristi 975 40:14.3 40:12.5 6:28 34 3 Brighton MI
2 Mattox,Amy 973 42:17.5 42:00.6 6:46 70 6 Marysville MI
3 Rubin,Julie 1985 42:59.5 42:50.2 6:54 91 7 Kent OH
4 Byersdorfer,Lori 193 45:20.7 45:17.0 7:17 170 28 Ann Arbor MI
5 Hall,Jennifer 2163 45:51.0 45:47.2 7:22 191 38
6 Alford,Jennifer 13 46:46.6 46:19.5 7:27 219 47 Chelsea MI
7 Licari,Tracy 893 46:48.1 46:38.8 7:30 239 55 Farmington Hills MI
8 Riggs,Elizabeth 1291 47:32.3 47:13.3 7:36 268 63 Ann Arbor MI
9 Burch,Tonya 2290 48:25.6 47:18.2 7:37 276 66 Flint MI
10 Morton,Jennifer 1084 47:44.4 47:20.1 7:37 278 67 Pinckney United States
11 Knape,Wendy 801 47:58.0 47:38.6 7:40 296 74 Tecumseh MI
12 Cookinham,Sarah 2189 47:55.0 47:44.3 7:41 307 78
13 Hein,Barrett 1867 49:34.1 49:16.3 7:56 398 103 Ann Arbor MI
14 Harless,Anita 588 49:41.8 49:16.5 7:56 400 105 Holly MI
15 Witthoff,Stacy 2043 50:01.0 49:22.4 7:57 413 109 Canton MI
16 Goetz,Mindy 527 50:28.2 49:47.1 8:01 435 117 Blissfield United States
17 Aribarg,Anocha 39 51:30.0 50:34.7 8:08 484 136 Ann Arbor MI
18 Kaper,Heather 739 51:44.5 51:11.7 8:14 533 158 Ypsilanti MI
19 Ross,Kristin 1314 52:03.3 51:19.4 8:16 539 160 Onsted MI
20 Heffelfinger,Tammy 613 51:47.8 51:26.5 8:17 547 165 Pinckney United States
21 Treder,Marcy 1566 51:49.8 51:28.0 8:17 549 166 Belleville United States
22 Cavanaugh,Sarah 225 51:59.1 51:43.4 8:19 566 174 Ypsilanti MI
23 Wiersema,Mn 2116 52:30.3 51:53.1 8:21 577 179 Ann Arbor United States
24 Schembri,Jenny 1355 53:26.4 51:57.0 8:22

Ann Arbor, MI
Provided by Running Fit Timing